<?xml version="1.0" encoding="UTF-8" standalone="no" ?>
<gpx xmlns="http://www.topografix.com/GPX/1/1" xmlns:xsi="http://www.w3.org/2001/XMLSchema-instance" xsi:schemaLocation="http://www.topografix.com/GPX/1/1 http://www.topografix.com/GPX/1/1/gpx.xsd" version="1.1" creator="VisuGPX - https://www.visugpx.com">
  <metadata>
    <name>Ballon d'Alsace - Rouge Gazon - Wissgrut</name>
  </metadata>
  <trk>
    <name><![CDATA[Ballon d'Alsace - Rouge Gazon - Wissgrut_1]]></name>
    <trkseg>
      <trkpt lat="47.80182" lon="6.84755">
        <ele>1059.8</ele>
        <time>2026-08-20T05:58:17.000Z</time>
      </trkpt>
      <trkpt lat="47.80185" lon="6.84751">
        <ele>1059.6</ele>
        <time>2026-08-20T05:58:18.000Z</time>
      </trkpt>
      <trkpt lat="47.80189" lon="6.84748">
        <ele>1059.6</ele>
        <time>2026-08-20T05:58:19.000Z</time>
      </trkpt>
      <trkpt lat="47.80193" lon="6.84745">
        <ele>1059.6</ele>
        <time>2026-08-20T05:58:20.000Z</time>
      </trkpt>
      <trkpt lat="47.80201" lon="6.84737">
        <ele>1059.4</ele>
        <time>2026-08-20T05:58:22.000Z</time>
      </trkpt>
      <trkpt lat="47.80205" lon="6.84733">
        <ele>1059.4</ele>
        <time>2026-08-20T05:58:23.000Z</time>
      </trkpt>
      <trkpt lat="47.80209" lon="6.84729">
        <ele>1059.4</ele>
        <time>2026-08-20T05:58:24.000Z</time>
      </trkpt>
      <trkpt lat="47.80221" lon="6.84717">
        <ele>1059.4</ele>
        <time>2026-08-20T05:58:27.000Z</time>
      </trkpt>
      <trkpt lat="47.8023" lon="6.84709">
        <ele>1059.2</ele>
        <time>2026-08-20T05:58:29.000Z</time>
      </trkpt>
      <trkpt lat="47.80246" lon="6.84693">
        <ele>1059.4</ele>
        <time>2026-08-20T05:58:33.000Z</time>
      </trkpt>
      <trkpt lat="47.80263" lon="6.84676">
        <ele>1059.8</ele>
        <time>2026-08-20T05:58:37.000Z</time>
      </trkpt>
      <trkpt lat="47.8028" lon="6.8466">
        <ele>1059.2</ele>
        <time>2026-08-20T05:58:41.000Z</time>
      </trkpt>
      <trkpt lat="47.80298" lon="6.84642">
        <ele>1059.4</ele>
        <time>2026-08-20T05:58:45.000Z</time>
      </trkpt>
      <trkpt lat="47.80314" lon="6.84627">
        <ele>1059.6</ele>
        <time>2026-08-20T05:58:49.000Z</time>
      </trkpt>
      <trkpt lat="47.80319" lon="6.84624">
        <ele>1059.6</ele>
        <time>2026-08-20T05:58:50.000Z</time>
      </trkpt>
      <trkpt lat="47.80327" lon="6.84619">
        <ele>1060</ele>
        <time>2026-08-20T05:58:52.000Z</time>
      </trkpt>
      <trkpt lat="47.80345" lon="6.84612">
        <ele>1060.6</ele>
        <time>2026-08-20T05:58:56.000Z</time>
      </trkpt>
      <trkpt lat="47.80349" lon="6.8461">
        <ele>1060.8</ele>
        <time>2026-08-20T05:58:57.000Z</time>
      </trkpt>
      <trkpt lat="47.80358" lon="6.84609">
        <ele>1061</ele>
        <time>2026-08-20T05:58:59.000Z</time>
      </trkpt>
      <trkpt lat="47.80372" lon="6.84609">
        <ele>1061.8</ele>
        <time>2026-08-20T05:59:03.000Z</time>
      </trkpt>
      <trkpt lat="47.80374" lon="6.8461">
        <ele>1062</ele>
        <time>2026-08-20T05:59:04.000Z</time>
      </trkpt>
      <trkpt lat="47.80379" lon="6.8461">
        <ele>1062.4</ele>
        <time>2026-08-20T05:59:06.000Z</time>
      </trkpt>
      <trkpt lat="47.80383" lon="6.84609">
        <ele>1062.8</ele>
        <time>2026-08-20T05:59:08.000Z</time>
      </trkpt>
      <trkpt lat="47.80386" lon="6.84609">
        <ele>1062.8</ele>
        <time>2026-08-20T05:59:09.000Z</time>
      </trkpt>
      <trkpt lat="47.80391" lon="6.84609">
        <ele>1063.2</ele>
        <time>2026-08-20T05:59:11.000Z</time>
      </trkpt>
      <trkpt lat="47.80406" lon="6.84612">
        <ele>1063.8</ele>
        <time>2026-08-20T05:59:17.000Z</time>
      </trkpt>
      <trkpt lat="47.80426" lon="6.84614">
        <ele>1064</ele>
        <time>2026-08-20T05:59:24.000Z</time>
      </trkpt>
      <trkpt lat="47.80429" lon="6.84615">
        <ele>1064</ele>
        <time>2026-08-20T05:59:25.000Z</time>
      </trkpt>
      <trkpt lat="47.80448" lon="6.84619">
        <ele>1063.6</ele>
        <time>2026-08-20T05:59:30.000Z</time>
      </trkpt>
      <trkpt lat="47.8046" lon="6.84625">
        <ele>1063.4</ele>
        <time>2026-08-20T05:59:33.000Z</time>
      </trkpt>
      <trkpt lat="47.80478" lon="6.84635">
        <ele>1063.2</ele>
        <time>2026-08-20T05:59:37.000Z</time>
      </trkpt>
      <trkpt lat="47.80496" lon="6.84648">
        <ele>1062.6</ele>
        <time>2026-08-20T05:59:41.000Z</time>
      </trkpt>
      <trkpt lat="47.80506" lon="6.84655">
        <ele>1062.4</ele>
        <time>2026-08-20T05:59:43.000Z</time>
      </trkpt>
      <trkpt lat="47.80511" lon="6.84658">
        <ele>1062.2</ele>
        <time>2026-08-20T05:59:44.000Z</time>
      </trkpt>
      <trkpt lat="47.80533" lon="6.84671">
        <ele>1061.8</ele>
        <time>2026-08-20T05:59:48.000Z</time>
      </trkpt>
      <trkpt lat="47.80538" lon="6.84673">
        <ele>1061.8</ele>
        <time>2026-08-20T05:59:49.000Z</time>
      </trkpt>
      <trkpt lat="47.80561" lon="6.84679">
        <ele>1062.2</ele>
        <time>2026-08-20T05:59:53.000Z</time>
      </trkpt>
      <trkpt lat="47.80572" lon="6.84681">
        <ele>1062.4</ele>
        <time>2026-08-20T05:59:55.000Z</time>
      </trkpt>
      <trkpt lat="47.80588" lon="6.84687">
        <ele>1063</ele>
        <time>2026-08-20T05:59:58.000Z</time>
      </trkpt>
      <trkpt lat="47.80593" lon="6.84688">
        <ele>1063.2</ele>
        <time>2026-08-20T05:59:59.000Z</time>
      </trkpt>
      <trkpt lat="47.80613" lon="6.84698">
        <ele>1064.2</ele>
        <time>2026-08-20T06:00:03.000Z</time>
      </trkpt>
      <trkpt lat="47.80618" lon="6.847">
        <ele>1064.4</ele>
        <time>2026-08-20T06:00:04.000Z</time>
      </trkpt>
      <trkpt lat="47.80631" lon="6.84707">
        <ele>1064.6</ele>
        <time>2026-08-20T06:00:07.000Z</time>
      </trkpt>
      <trkpt lat="47.80644" lon="6.84714">
        <ele>1065.6</ele>
        <time>2026-08-20T06:00:10.000Z</time>
      </trkpt>
      <trkpt lat="47.80658" lon="6.84722">
        <ele>1066.8</ele>
        <time>2026-08-20T06:00:13.000Z</time>
      </trkpt>
      <trkpt lat="47.80672" lon="6.84729">
        <ele>1067.6</ele>
        <time>2026-08-20T06:00:16.000Z</time>
      </trkpt>
      <trkpt lat="47.80676" lon="6.84732">
        <ele>1067.8</ele>
        <time>2026-08-20T06:00:17.000Z</time>
      </trkpt>
      <trkpt lat="47.80689" lon="6.84739">
        <ele>1069</ele>
        <time>2026-08-20T06:00:20.000Z</time>
      </trkpt>
      <trkpt lat="47.80703" lon="6.84745">
        <ele>1069.8</ele>
        <time>2026-08-20T06:00:23.000Z</time>
      </trkpt>
      <trkpt lat="47.80707" lon="6.84747">
        <ele>1070.2</ele>
        <time>2026-08-20T06:00:24.000Z</time>
      </trkpt>
      <trkpt lat="47.80725" lon="6.84753">
        <ele>1071</ele>
        <time>2026-08-20T06:00:28.000Z</time>
      </trkpt>
      <trkpt lat="47.80729" lon="6.84754">
        <ele>1071.2</ele>
        <time>2026-08-20T06:00:29.000Z</time>
      </trkpt>
      <trkpt lat="47.80734" lon="6.84755">
        <ele>1071.4</ele>
        <time>2026-08-20T06:00:30.000Z</time>
      </trkpt>
      <trkpt lat="47.80755" lon="6.84758">
        <ele>1072</ele>
        <time>2026-08-20T06:00:35.000Z</time>
      </trkpt>
      <trkpt lat="47.8076" lon="6.84757">
        <ele>1072.2</ele>
        <time>2026-08-20T06:00:36.000Z</time>
      </trkpt>
      <trkpt lat="47.80768" lon="6.84757">
        <ele>1073</ele>
        <time>2026-08-20T06:00:38.000Z</time>
      </trkpt>
      <trkpt lat="47.80777" lon="6.84758">
        <ele>1073.4</ele>
        <time>2026-08-20T06:00:40.000Z</time>
      </trkpt>
      <trkpt lat="47.8079" lon="6.84756">
        <ele>1074.6</ele>
        <time>2026-08-20T06:00:43.000Z</time>
      </trkpt>
      <trkpt lat="47.80799" lon="6.84755">
        <ele>1075</ele>
        <time>2026-08-20T06:00:45.000Z</time>
      </trkpt>
      <trkpt lat="47.80808" lon="6.84753">
        <ele>1075</ele>
        <time>2026-08-20T06:00:47.000Z</time>
      </trkpt>
      <trkpt lat="47.80816" lon="6.84751">
        <ele>1075.4</ele>
        <time>2026-08-20T06:00:49.000Z</time>
      </trkpt>
      <trkpt lat="47.8082" lon="6.8475">
        <ele>1075.6</ele>
        <time>2026-08-20T06:00:50.000Z</time>
      </trkpt>
      <trkpt lat="47.80824" lon="6.84748">
        <ele>1076</ele>
        <time>2026-08-20T06:00:51.000Z</time>
      </trkpt>
      <trkpt lat="47.80828" lon="6.84745">
        <ele>1076.4</ele>
        <time>2026-08-20T06:00:52.000Z</time>
      </trkpt>
      <trkpt lat="47.80832" lon="6.84743">
        <ele>1076.8</ele>
        <time>2026-08-20T06:00:53.000Z</time>
      </trkpt>
      <trkpt lat="47.80836" lon="6.84741">
        <ele>1076.8</ele>
        <time>2026-08-20T06:00:54.000Z</time>
      </trkpt>
      <trkpt lat="47.80856" lon="6.84729">
        <ele>1077.4</ele>
        <time>2026-08-20T06:00:59.000Z</time>
      </trkpt>
      <trkpt lat="47.80864" lon="6.84724">
        <ele>1078.2</ele>
        <time>2026-08-20T06:01:01.000Z</time>
      </trkpt>
      <trkpt lat="47.80875" lon="6.84717">
        <ele>1079.2</ele>
        <time>2026-08-20T06:01:04.000Z</time>
      </trkpt>
      <trkpt lat="47.80892" lon="6.8471">
        <ele>1080.6</ele>
        <time>2026-08-20T06:01:08.000Z</time>
      </trkpt>
      <trkpt lat="47.80907" lon="6.84704">
        <ele>1081.6</ele>
        <time>2026-08-20T06:01:12.000Z</time>
      </trkpt>
      <trkpt lat="47.80911" lon="6.84703">
        <ele>1081.8</ele>
        <time>2026-08-20T06:01:13.000Z</time>
      </trkpt>
      <trkpt lat="47.80927" lon="6.847">
        <ele>1082.8</ele>
        <time>2026-08-20T06:01:17.000Z</time>
      </trkpt>
      <trkpt lat="47.80942" lon="6.84698">
        <ele>1083.8</ele>
        <time>2026-08-20T06:01:21.000Z</time>
      </trkpt>
      <trkpt lat="47.80958" lon="6.84694">
        <ele>1084.8</ele>
        <time>2026-08-20T06:01:25.000Z</time>
      </trkpt>
      <trkpt lat="47.80965" lon="6.84692">
        <ele>1085.4</ele>
        <time>2026-08-20T06:01:27.000Z</time>
      </trkpt>
      <trkpt lat="47.80973" lon="6.84688">
        <ele>1085.8</ele>
        <time>2026-08-20T06:01:29.000Z</time>
      </trkpt>
      <trkpt lat="47.80986" lon="6.84676">
        <ele>1087.2</ele>
        <time>2026-08-20T06:01:33.000Z</time>
      </trkpt>
      <trkpt lat="47.81002" lon="6.84658">
        <ele>1087.8</ele>
        <time>2026-08-20T06:01:38.000Z</time>
      </trkpt>
      <trkpt lat="47.8101" lon="6.84645">
        <ele>1088.4</ele>
        <time>2026-08-20T06:01:41.000Z</time>
      </trkpt>
      <trkpt lat="47.8102" lon="6.84621">
        <ele>1089.4</ele>
        <time>2026-08-20T06:01:46.000Z</time>
      </trkpt>
      <trkpt lat="47.81024" lon="6.84604">
        <ele>1090.2</ele>
        <time>2026-08-20T06:01:49.000Z</time>
      </trkpt>
      <trkpt lat="47.81025" lon="6.84598">
        <ele>1090.6</ele>
        <time>2026-08-20T06:01:50.000Z</time>
      </trkpt>
      <trkpt lat="47.81027" lon="6.84573">
        <ele>1091.6</ele>
        <time>2026-08-20T06:01:54.000Z</time>
      </trkpt>
      <trkpt lat="47.81028" lon="6.84554">
        <ele>1092.2</ele>
        <time>2026-08-20T06:01:57.000Z</time>
      </trkpt>
      <trkpt lat="47.8103" lon="6.84537">
        <ele>1092.6</ele>
        <time>2026-08-20T06:02:00.000Z</time>
      </trkpt>
      <trkpt lat="47.81033" lon="6.84508">
        <ele>1093.4</ele>
        <time>2026-08-20T06:02:05.000Z</time>
      </trkpt>
      <trkpt lat="47.81034" lon="6.84497">
        <ele>1093.8</ele>
        <time>2026-08-20T06:02:07.000Z</time>
      </trkpt>
      <trkpt lat="47.81034" lon="6.84491">
        <ele>1094</ele>
        <time>2026-08-20T06:02:08.000Z</time>
      </trkpt>
      <trkpt lat="47.81036" lon="6.84469">
        <ele>1094.8</ele>
        <time>2026-08-20T06:02:12.000Z</time>
      </trkpt>
      <trkpt lat="47.81037" lon="6.84442">
        <ele>1095.8</ele>
        <time>2026-08-20T06:02:17.000Z</time>
      </trkpt>
      <trkpt lat="47.81037" lon="6.84436">
        <ele>1096</ele>
        <time>2026-08-20T06:02:18.000Z</time>
      </trkpt>
      <trkpt lat="47.81037" lon="6.84408">
        <ele>1097</ele>
        <time>2026-08-20T06:02:23.000Z</time>
      </trkpt>
      <trkpt lat="47.81036" lon="6.84391">
        <ele>1097.8</ele>
        <time>2026-08-20T06:02:26.000Z</time>
      </trkpt>
      <trkpt lat="47.81035" lon="6.84379">
        <ele>1098.2</ele>
        <time>2026-08-20T06:02:28.000Z</time>
      </trkpt>
      <trkpt lat="47.81034" lon="6.84348">
        <ele>1099</ele>
        <time>2026-08-20T06:02:33.000Z</time>
      </trkpt>
      <trkpt lat="47.81033" lon="6.84342">
        <ele>1099.2</ele>
        <time>2026-08-20T06:02:34.000Z</time>
      </trkpt>
      <trkpt lat="47.8103" lon="6.84311">
        <ele>1100.4</ele>
        <time>2026-08-20T06:02:39.000Z</time>
      </trkpt>
      <trkpt lat="47.81028" lon="6.84288">
        <ele>1101.6</ele>
        <time>2026-08-20T06:02:43.000Z</time>
      </trkpt>
      <trkpt lat="47.81027" lon="6.84276">
        <ele>1102</ele>
        <time>2026-08-20T06:02:45.000Z</time>
      </trkpt>
      <trkpt lat="47.81027" lon="6.84258">
        <ele>1102.6</ele>
        <time>2026-08-20T06:02:48.000Z</time>
      </trkpt>
      <trkpt lat="47.8103" lon="6.84235">
        <ele>1103.6</ele>
        <time>2026-08-20T06:02:52.000Z</time>
      </trkpt>
      <trkpt lat="47.8103" lon="6.84223">
        <ele>1104.2</ele>
        <time>2026-08-20T06:02:54.000Z</time>
      </trkpt>
      <trkpt lat="47.81029" lon="6.84212">
        <ele>1105</ele>
        <time>2026-08-20T06:02:56.000Z</time>
      </trkpt>
      <trkpt lat="47.81022" lon="6.84198">
        <ele>1105.8</ele>
        <time>2026-08-20T06:02:59.000Z</time>
      </trkpt>
      <trkpt lat="47.81018" lon="6.84195">
        <ele>1106</ele>
        <time>2026-08-20T06:03:00.000Z</time>
      </trkpt>
      <trkpt lat="47.81002" lon="6.84188">
        <ele>1107</ele>
        <time>2026-08-20T06:03:04.000Z</time>
      </trkpt>
      <trkpt lat="47.80998" lon="6.84186">
        <ele>1107.2</ele>
        <time>2026-08-20T06:03:05.000Z</time>
      </trkpt>
      <trkpt lat="47.80986" lon="6.84179">
        <ele>1107.4</ele>
        <time>2026-08-20T06:03:08.000Z</time>
      </trkpt>
      <trkpt lat="47.80976" lon="6.84167">
        <ele>1108</ele>
        <time>2026-08-20T06:03:11.000Z</time>
      </trkpt>
      <trkpt lat="47.80971" lon="6.84159">
        <ele>1108.4</ele>
        <time>2026-08-20T06:03:13.000Z</time>
      </trkpt>
      <trkpt lat="47.80963" lon="6.84138">
        <ele>1109.6</ele>
        <time>2026-08-20T06:03:17.000Z</time>
      </trkpt>
      <trkpt lat="47.80957" lon="6.84109">
        <ele>1110.2</ele>
        <time>2026-08-20T06:03:22.000Z</time>
      </trkpt>
      <trkpt lat="47.80954" lon="6.84098">
        <ele>1110.6</ele>
        <time>2026-08-20T06:03:24.000Z</time>
      </trkpt>
      <trkpt lat="47.80951" lon="6.84068">
        <ele>1111.8</ele>
        <time>2026-08-20T06:03:29.000Z</time>
      </trkpt>
      <trkpt lat="47.80951" lon="6.84051">
        <ele>1112.8</ele>
        <time>2026-08-20T06:03:32.000Z</time>
      </trkpt>
      <trkpt lat="47.80953" lon="6.84034">
        <ele>1113.6</ele>
        <time>2026-08-20T06:03:35.000Z</time>
      </trkpt>
      <trkpt lat="47.80953" lon="6.84028">
        <ele>1113.8</ele>
        <time>2026-08-20T06:03:36.000Z</time>
      </trkpt>
      <trkpt lat="47.80956" lon="6.84011">
        <ele>1114.8</ele>
        <time>2026-08-20T06:03:39.000Z</time>
      </trkpt>
      <trkpt lat="47.80959" lon="6.84">
        <ele>1115.8</ele>
        <time>2026-08-20T06:03:41.000Z</time>
      </trkpt>
      <trkpt lat="47.80961" lon="6.83996">
        <ele>1116</ele>
        <time>2026-08-20T06:03:42.000Z</time>
      </trkpt>
      <trkpt lat="47.80969" lon="6.83983">
        <ele>1116.4</ele>
        <time>2026-08-20T06:03:45.000Z</time>
      </trkpt>
      <trkpt lat="47.80986" lon="6.8397">
        <ele>1117</ele>
        <time>2026-08-20T06:03:50.000Z</time>
      </trkpt>
      <trkpt lat="47.8099" lon="6.83968">
        <ele>1117</ele>
        <time>2026-08-20T06:03:51.000Z</time>
      </trkpt>
      <trkpt lat="47.81008" lon="6.83957">
        <ele>1117.6</ele>
        <time>2026-08-20T06:03:56.000Z</time>
      </trkpt>
      <trkpt lat="47.81015" lon="6.83953">
        <ele>1118.2</ele>
        <time>2026-08-20T06:03:58.000Z</time>
      </trkpt>
      <trkpt lat="47.81034" lon="6.83943">
        <ele>1119.4</ele>
        <time>2026-08-20T06:04:03.000Z</time>
      </trkpt>
      <trkpt lat="47.81053" lon="6.83935">
        <ele>1120.4</ele>
        <time>2026-08-20T06:04:08.000Z</time>
      </trkpt>
      <trkpt lat="47.81057" lon="6.83934">
        <ele>1120.6</ele>
        <time>2026-08-20T06:04:09.000Z</time>
      </trkpt>
      <trkpt lat="47.81073" lon="6.83935">
        <ele>1121.6</ele>
        <time>2026-08-20T06:04:13.000Z</time>
      </trkpt>
      <trkpt lat="47.81086" lon="6.83936">
        <ele>1122.4</ele>
        <time>2026-08-20T06:04:16.000Z</time>
      </trkpt>
      <trkpt lat="47.81093" lon="6.83937">
        <ele>1122.8</ele>
        <time>2026-08-20T06:04:18.000Z</time>
      </trkpt>
      <trkpt lat="47.81113" lon="6.8394">
        <ele>1123.6</ele>
        <time>2026-08-20T06:04:23.000Z</time>
      </trkpt>
      <trkpt lat="47.8112" lon="6.83942">
        <ele>1124</ele>
        <time>2026-08-20T06:04:25.000Z</time>
      </trkpt>
      <trkpt lat="47.81136" lon="6.83949">
        <ele>1125.2</ele>
        <time>2026-08-20T06:04:29.000Z</time>
      </trkpt>
      <trkpt lat="47.81152" lon="6.83958">
        <ele>1126.2</ele>
        <time>2026-08-20T06:04:33.000Z</time>
      </trkpt>
      <trkpt lat="47.81155" lon="6.8396">
        <ele>1126.6</ele>
        <time>2026-08-20T06:04:34.000Z</time>
      </trkpt>
      <trkpt lat="47.81163" lon="6.83965">
        <ele>1127.4</ele>
        <time>2026-08-20T06:04:36.000Z</time>
      </trkpt>
      <trkpt lat="47.81174" lon="6.83972">
        <ele>1129</ele>
        <time>2026-08-20T06:04:39.000Z</time>
      </trkpt>
      <trkpt lat="47.81193" lon="6.83984">
        <ele>1130</ele>
        <time>2026-08-20T06:04:44.000Z</time>
      </trkpt>
      <trkpt lat="47.81197" lon="6.83986">
        <ele>1130</ele>
        <time>2026-08-20T06:04:45.000Z</time>
      </trkpt>
      <trkpt lat="47.81214" lon="6.84002">
        <ele>1130.8</ele>
        <time>2026-08-20T06:04:50.000Z</time>
      </trkpt>
      <trkpt lat="47.81221" lon="6.84009">
        <ele>1131.2</ele>
        <time>2026-08-20T06:04:52.000Z</time>
      </trkpt>
      <trkpt lat="47.81239" lon="6.84028">
        <ele>1132.4</ele>
        <time>2026-08-20T06:04:57.000Z</time>
      </trkpt>
      <trkpt lat="47.81253" lon="6.84042">
        <ele>1133.6</ele>
        <time>2026-08-20T06:05:01.000Z</time>
      </trkpt>
      <trkpt lat="47.81272" lon="6.84059">
        <ele>1134.8</ele>
        <time>2026-08-20T06:05:06.000Z</time>
      </trkpt>
      <trkpt lat="47.81287" lon="6.84073">
        <ele>1135.8</ele>
        <time>2026-08-20T06:05:10.000Z</time>
      </trkpt>
      <trkpt lat="47.8129" lon="6.84076">
        <ele>1136.2</ele>
        <time>2026-08-20T06:05:11.000Z</time>
      </trkpt>
      <trkpt lat="47.81302" lon="6.84087">
        <ele>1137</ele>
        <time>2026-08-20T06:05:14.000Z</time>
      </trkpt>
      <trkpt lat="47.81321" lon="6.84105">
        <ele>1137.8</ele>
        <time>2026-08-20T06:05:19.000Z</time>
      </trkpt>
      <trkpt lat="47.81329" lon="6.84112">
        <ele>1138</ele>
        <time>2026-08-20T06:05:21.000Z</time>
      </trkpt>
      <trkpt lat="47.81344" lon="6.84127">
        <ele>1138.4</ele>
        <time>2026-08-20T06:05:25.000Z</time>
      </trkpt>
      <trkpt lat="47.8136" lon="6.84143">
        <ele>1138.6</ele>
        <time>2026-08-20T06:05:29.000Z</time>
      </trkpt>
      <trkpt lat="47.81373" lon="6.84156">
        <ele>1138.8</ele>
        <time>2026-08-20T06:05:32.000Z</time>
      </trkpt>
      <trkpt lat="47.81377" lon="6.84161">
        <ele>1139</ele>
        <time>2026-08-20T06:05:33.000Z</time>
      </trkpt>
      <trkpt lat="47.81394" lon="6.84179">
        <ele>1139.6</ele>
        <time>2026-08-20T06:05:37.000Z</time>
      </trkpt>
      <trkpt lat="47.81411" lon="6.84197">
        <ele>1139.6</ele>
        <time>2026-08-20T06:05:41.000Z</time>
      </trkpt>
      <trkpt lat="47.81415" lon="6.84201">
        <ele>1139.6</ele>
        <time>2026-08-20T06:05:42.000Z</time>
      </trkpt>
      <trkpt lat="47.81432" lon="6.84219">
        <ele>1140</ele>
        <time>2026-08-20T06:05:46.000Z</time>
      </trkpt>
      <trkpt lat="47.81437" lon="6.84223">
        <ele>1140</ele>
        <time>2026-08-20T06:05:47.000Z</time>
      </trkpt>
      <trkpt lat="47.81457" lon="6.84236">
        <ele>1139.8</ele>
        <time>2026-08-20T06:05:51.000Z</time>
      </trkpt>
      <trkpt lat="47.81477" lon="6.84242">
        <ele>1139.4</ele>
        <time>2026-08-20T06:05:55.000Z</time>
      </trkpt>
      <trkpt lat="47.81488" lon="6.84243">
        <ele>1139.2</ele>
        <time>2026-08-20T06:05:57.000Z</time>
      </trkpt>
      <trkpt lat="47.81493" lon="6.84243">
        <ele>1139</ele>
        <time>2026-08-20T06:05:58.000Z</time>
      </trkpt>
      <trkpt lat="47.81514" lon="6.84242">
        <ele>1140</ele>
        <time>2026-08-20T06:06:02.000Z</time>
      </trkpt>
      <trkpt lat="47.81524" lon="6.84242">
        <ele>1140.2</ele>
        <time>2026-08-20T06:06:04.000Z</time>
      </trkpt>
      <trkpt lat="47.81544" lon="6.8424">
        <ele>1140.4</ele>
        <time>2026-08-20T06:06:08.000Z</time>
      </trkpt>
      <trkpt lat="47.81564" lon="6.84238">
        <ele>1140.4</ele>
        <time>2026-08-20T06:06:12.000Z</time>
      </trkpt>
      <trkpt lat="47.81574" lon="6.84237">
        <ele>1141.4</ele>
        <time>2026-08-20T06:06:14.000Z</time>
      </trkpt>
      <trkpt lat="47.81579" lon="6.84237">
        <ele>1141.6</ele>
        <time>2026-08-20T06:06:15.000Z</time>
      </trkpt>
      <trkpt lat="47.81598" lon="6.84236">
        <ele>1141.4</ele>
        <time>2026-08-20T06:06:19.000Z</time>
      </trkpt>
      <trkpt lat="47.81618" lon="6.84234">
        <ele>1142.2</ele>
        <time>2026-08-20T06:06:23.000Z</time>
      </trkpt>
      <trkpt lat="47.81623" lon="6.84233">
        <ele>1142.6</ele>
        <time>2026-08-20T06:06:24.000Z</time>
      </trkpt>
      <trkpt lat="47.81642" lon="6.84232">
        <ele>1143.8</ele>
        <time>2026-08-20T06:06:28.000Z</time>
      </trkpt>
      <trkpt lat="47.81647" lon="6.84231">
        <ele>1144</ele>
        <time>2026-08-20T06:06:29.000Z</time>
      </trkpt>
      <trkpt lat="47.81656" lon="6.8423">
        <ele>1144</ele>
        <time>2026-08-20T06:06:31.000Z</time>
      </trkpt>
      <trkpt lat="47.81678" lon="6.84227">
        <ele>1144.4</ele>
        <time>2026-08-20T06:06:36.000Z</time>
      </trkpt>
      <trkpt lat="47.8169" lon="6.84224">
        <ele>1145.4</ele>
        <time>2026-08-20T06:06:39.000Z</time>
      </trkpt>
      <trkpt lat="47.81698" lon="6.84222">
        <ele>1146</ele>
        <time>2026-08-20T06:06:41.000Z</time>
      </trkpt>
      <trkpt lat="47.81702" lon="6.84221">
        <ele>1146.6</ele>
        <time>2026-08-20T06:06:42.000Z</time>
      </trkpt>
      <trkpt lat="47.8171" lon="6.84218">
        <ele>1147.8</ele>
        <time>2026-08-20T06:06:44.000Z</time>
      </trkpt>
      <trkpt lat="47.81717" lon="6.84216">
        <ele>1148.2</ele>
        <time>2026-08-20T06:06:46.000Z</time>
      </trkpt>
      <trkpt lat="47.81721" lon="6.84214">
        <ele>1148</ele>
        <time>2026-08-20T06:06:47.000Z</time>
      </trkpt>
      <trkpt lat="47.81724" lon="6.84213">
        <ele>1147.8</ele>
        <time>2026-08-20T06:06:48.000Z</time>
      </trkpt>
      <trkpt lat="47.81728" lon="6.84211">
        <ele>1148</ele>
        <time>2026-08-20T06:06:49.000Z</time>
      </trkpt>
      <trkpt lat="47.81734" lon="6.84208">
        <ele>1149</ele>
        <time>2026-08-20T06:06:51.000Z</time>
      </trkpt>
      <trkpt lat="47.81737" lon="6.84207">
        <ele>1149.6</ele>
        <time>2026-08-20T06:06:52.000Z</time>
      </trkpt>
      <trkpt lat="47.81741" lon="6.84205">
        <ele>1150.2</ele>
        <time>2026-08-20T06:06:53.000Z</time>
      </trkpt>
      <trkpt lat="47.81751" lon="6.84201">
        <ele>1151.4</ele>
        <time>2026-08-20T06:06:56.000Z</time>
      </trkpt>
      <trkpt lat="47.81764" lon="6.84194">
        <ele>1151.8</ele>
        <time>2026-08-20T06:07:00.000Z</time>
      </trkpt>
      <trkpt lat="47.81773" lon="6.84189">
        <ele>1152.8</ele>
        <time>2026-08-20T06:07:03.000Z</time>
      </trkpt>
      <trkpt lat="47.81776" lon="6.84188">
        <ele>1152.8</ele>
        <time>2026-08-20T06:07:04.000Z</time>
      </trkpt>
      <trkpt lat="47.81793" lon="6.84179">
        <ele>1154</ele>
        <time>2026-08-20T06:07:09.000Z</time>
      </trkpt>
      <trkpt lat="47.81803" lon="6.84174">
        <ele>1155.2</ele>
        <time>2026-08-20T06:07:12.000Z</time>
      </trkpt>
      <trkpt lat="47.81812" lon="6.84168">
        <ele>1155.8</ele>
        <time>2026-08-20T06:07:15.000Z</time>
      </trkpt>
      <trkpt lat="47.81823" lon="6.84163">
        <ele>1156.4</ele>
        <time>2026-08-20T06:07:18.000Z</time>
      </trkpt>
      <trkpt lat="47.81836" lon="6.84154">
        <ele>1157.6</ele>
        <time>2026-08-20T06:07:22.000Z</time>
      </trkpt>
      <trkpt lat="47.81845" lon="6.84148">
        <ele>1158.8</ele>
        <time>2026-08-20T06:07:25.000Z</time>
      </trkpt>
      <trkpt lat="47.81849" lon="6.84146">
        <ele>1159.2</ele>
        <time>2026-08-20T06:07:26.000Z</time>
      </trkpt>
      <trkpt lat="47.81858" lon="6.84139">
        <ele>1160</ele>
        <time>2026-08-20T06:07:29.000Z</time>
      </trkpt>
      <trkpt lat="47.81866" lon="6.84133">
        <ele>1161</ele>
        <time>2026-08-20T06:07:32.000Z</time>
      </trkpt>
      <trkpt lat="47.81875" lon="6.84127">
        <ele>1161.8</ele>
        <time>2026-08-20T06:07:35.000Z</time>
      </trkpt>
      <trkpt lat="47.81877" lon="6.84125">
        <ele>1162.2</ele>
        <time>2026-08-20T06:07:36.000Z</time>
      </trkpt>
      <trkpt lat="47.81891" lon="6.84115">
        <ele>1163.4</ele>
        <time>2026-08-20T06:07:41.000Z</time>
      </trkpt>
      <trkpt lat="47.81901" lon="6.84106">
        <ele>1164.6</ele>
        <time>2026-08-20T06:07:45.000Z</time>
      </trkpt>
      <trkpt lat="47.81906" lon="6.84102">
        <ele>1164.6</ele>
        <time>2026-08-20T06:07:47.000Z</time>
      </trkpt>
      <trkpt lat="47.8192" lon="6.8409">
        <ele>1165.8</ele>
        <time>2026-08-20T06:07:52.000Z</time>
      </trkpt>
      <trkpt lat="47.81928" lon="6.84084">
        <ele>1167.2</ele>
        <time>2026-08-20T06:07:55.000Z</time>
      </trkpt>
      <trkpt lat="47.81934" lon="6.84079">
        <ele>1167.4</ele>
        <time>2026-08-20T06:07:57.000Z</time>
      </trkpt>
      <trkpt lat="47.81951" lon="6.84065">
        <ele>1168.2</ele>
        <time>2026-08-20T06:08:03.000Z</time>
      </trkpt>
      <trkpt lat="47.81964" lon="6.84054">
        <ele>1168.6</ele>
        <time>2026-08-20T06:08:07.000Z</time>
      </trkpt>
      <trkpt lat="47.81971" lon="6.8405">
        <ele>1168.8</ele>
        <time>2026-08-20T06:08:09.000Z</time>
      </trkpt>
      <trkpt lat="47.8199" lon="6.84034">
        <ele>1168</ele>
        <time>2026-08-20T06:08:15.000Z</time>
      </trkpt>
      <trkpt lat="47.82005" lon="6.84019">
        <ele>1169</ele>
        <time>2026-08-20T06:08:20.000Z</time>
      </trkpt>
      <trkpt lat="47.82008" lon="6.84016">
        <ele>1168.4</ele>
        <time>2026-08-20T06:08:21.000Z</time>
      </trkpt>
      <trkpt lat="47.8202" lon="6.84003">
        <ele>1169.8</ele>
        <time>2026-08-20T06:08:26.000Z</time>
      </trkpt>
      <trkpt lat="47.82023" lon="6.84003">
        <ele>1170</ele>
        <time>2026-08-20T06:08:27.000Z</time>
      </trkpt>
      <trkpt lat="47.82037" lon="6.83989">
        <ele>1170.2</ele>
        <time>2026-08-20T06:08:32.000Z</time>
      </trkpt>
      <trkpt lat="47.82049" lon="6.83962">
        <ele>1169.6</ele>
        <time>2026-08-20T06:08:38.000Z</time>
      </trkpt>
      <trkpt lat="47.82051" lon="6.83957">
        <ele>1169.4</ele>
        <time>2026-08-20T06:08:39.000Z</time>
      </trkpt>
      <trkpt lat="47.82057" lon="6.83944">
        <ele>1169.8</ele>
        <time>2026-08-20T06:08:42.000Z</time>
      </trkpt>
      <trkpt lat="47.8206" lon="6.83935">
        <ele>1170.8</ele>
        <time>2026-08-20T06:08:44.000Z</time>
      </trkpt>
      <trkpt lat="47.82061" lon="6.83929">
        <ele>1170.8</ele>
        <time>2026-08-20T06:08:45.000Z</time>
      </trkpt>
      <trkpt lat="47.82072" lon="6.83907">
        <ele>1171.8</ele>
        <time>2026-08-20T06:08:50.000Z</time>
      </trkpt>
      <trkpt lat="47.82074" lon="6.83902">
        <ele>1172</ele>
        <time>2026-08-20T06:08:51.000Z</time>
      </trkpt>
      <trkpt lat="47.82079" lon="6.83874">
        <ele>1172</ele>
        <time>2026-08-20T06:08:56.000Z</time>
      </trkpt>
      <trkpt lat="47.82084" lon="6.83846">
        <ele>1172.2</ele>
        <time>2026-08-20T06:09:01.000Z</time>
      </trkpt>
      <trkpt lat="47.82087" lon="6.83825">
        <ele>1172.4</ele>
        <time>2026-08-20T06:09:05.000Z</time>
      </trkpt>
      <trkpt lat="47.82089" lon="6.83808">
        <ele>1173</ele>
        <time>2026-08-20T06:09:08.000Z</time>
      </trkpt>
      <trkpt lat="47.82091" lon="6.83796">
        <ele>1173.6</ele>
        <time>2026-08-20T06:09:10.000Z</time>
      </trkpt>
      <trkpt lat="47.82091" lon="6.83778">
        <ele>1173.8</ele>
        <time>2026-08-20T06:09:13.000Z</time>
      </trkpt>
      <trkpt lat="47.82094" lon="6.83749">
        <ele>1173.8</ele>
        <time>2026-08-20T06:09:18.000Z</time>
      </trkpt>
      <trkpt lat="47.82098" lon="6.83735">
        <ele>1173.6</ele>
        <time>2026-08-20T06:09:21.000Z</time>
      </trkpt>
      <trkpt lat="47.821" lon="6.83719">
        <ele>1173.6</ele>
        <time>2026-08-20T06:09:24.000Z</time>
      </trkpt>
      <trkpt lat="47.821" lon="6.83707">
        <ele>1173.8</ele>
        <time>2026-08-20T06:09:26.000Z</time>
      </trkpt>
      <trkpt lat="47.82099" lon="6.83676">
        <ele>1173.2</ele>
        <time>2026-08-20T06:09:31.000Z</time>
      </trkpt>
      <trkpt lat="47.82097" lon="6.83664">
        <ele>1172.4</ele>
        <time>2026-08-20T06:09:33.000Z</time>
      </trkpt>
      <trkpt lat="47.82095" lon="6.83658">
        <ele>1172.6</ele>
        <time>2026-08-20T06:09:34.000Z</time>
      </trkpt>
      <trkpt lat="47.82086" lon="6.8363">
        <ele>1172.6</ele>
        <time>2026-08-20T06:09:40.000Z</time>
      </trkpt>
      <trkpt lat="47.82077" lon="6.83601">
        <ele>1171.6</ele>
        <time>2026-08-20T06:09:45.000Z</time>
      </trkpt>
      <trkpt lat="47.82076" lon="6.83595">
        <ele>1171.4</ele>
        <time>2026-08-20T06:09:46.000Z</time>
      </trkpt>
      <trkpt lat="47.82074" lon="6.83589">
        <ele>1171.4</ele>
        <time>2026-08-20T06:09:47.000Z</time>
      </trkpt>
      <trkpt lat="47.82065" lon="6.83568">
        <ele>1172.4</ele>
        <time>2026-08-20T06:09:51.000Z</time>
      </trkpt>
      <trkpt lat="47.82062" lon="6.83557">
        <ele>1173.2</ele>
        <time>2026-08-20T06:09:53.000Z</time>
      </trkpt>
      <trkpt lat="47.8206" lon="6.83551">
        <ele>1173.2</ele>
        <time>2026-08-20T06:09:54.000Z</time>
      </trkpt>
      <trkpt lat="47.82054" lon="6.83536">
        <ele>1173.4</ele>
        <time>2026-08-20T06:09:57.000Z</time>
      </trkpt>
      <trkpt lat="47.82049" lon="6.83522">
        <ele>1174</ele>
        <time>2026-08-20T06:10:00.000Z</time>
      </trkpt>
      <trkpt lat="47.82047" lon="6.83506">
        <ele>1173.4</ele>
        <time>2026-08-20T06:10:04.000Z</time>
      </trkpt>
      <trkpt lat="47.82048" lon="6.83503">
        <ele>1173.2</ele>
        <time>2026-08-20T06:10:05.000Z</time>
      </trkpt>
      <trkpt lat="47.82057" lon="6.83498">
        <ele>1174.2</ele>
        <time>2026-08-20T06:10:09.000Z</time>
      </trkpt>
      <trkpt lat="47.82063" lon="6.83502">
        <ele>1174.8</ele>
        <time>2026-08-20T06:10:11.000Z</time>
      </trkpt>
      <trkpt lat="47.82072" lon="6.83508">
        <ele>1175.6</ele>
        <time>2026-08-20T06:10:14.000Z</time>
      </trkpt>
      <trkpt lat="47.82075" lon="6.83509">
        <ele>1175.8</ele>
        <time>2026-08-20T06:10:15.000Z</time>
      </trkpt>
      <trkpt lat="47.82092" lon="6.83517">
        <ele>1175.6</ele>
        <time>2026-08-20T06:10:21.000Z</time>
      </trkpt>
      <trkpt lat="47.82095" lon="6.83519">
        <ele>1175.8</ele>
        <time>2026-08-20T06:10:22.000Z</time>
      </trkpt>
      <trkpt lat="47.82108" lon="6.83525">
        <ele>1176.8</ele>
        <time>2026-08-20T06:10:26.000Z</time>
      </trkpt>
      <trkpt lat="47.82111" lon="6.83527">
        <ele>1177</ele>
        <time>2026-08-20T06:10:27.000Z</time>
      </trkpt>
      <trkpt lat="47.82127" lon="6.83535">
        <ele>1178</ele>
        <time>2026-08-20T06:10:32.000Z</time>
      </trkpt>
      <trkpt lat="47.8213" lon="6.83536">
        <ele>1178.2</ele>
        <time>2026-08-20T06:10:33.000Z</time>
      </trkpt>
      <trkpt lat="47.82148" lon="6.83548">
        <ele>1179.2</ele>
        <time>2026-08-20T06:10:39.000Z</time>
      </trkpt>
      <trkpt lat="47.82151" lon="6.83551">
        <ele>1179.4</ele>
        <time>2026-08-20T06:10:40.000Z</time>
      </trkpt>
      <trkpt lat="47.82161" lon="6.83563">
        <ele>1180.8</ele>
        <time>2026-08-20T06:10:44.000Z</time>
      </trkpt>
      <trkpt lat="47.82165" lon="6.8357">
        <ele>1181.2</ele>
        <time>2026-08-20T06:10:46.000Z</time>
      </trkpt>
      <trkpt lat="47.82168" lon="6.83577">
        <ele>1181.8</ele>
        <time>2026-08-20T06:10:48.000Z</time>
      </trkpt>
      <trkpt lat="47.8218" lon="6.83596">
        <ele>1182.8</ele>
        <time>2026-08-20T06:10:54.000Z</time>
      </trkpt>
      <trkpt lat="47.82182" lon="6.83599">
        <ele>1183</ele>
        <time>2026-08-20T06:10:55.000Z</time>
      </trkpt>
      <trkpt lat="47.8219" lon="6.83611">
        <ele>1184.2</ele>
        <time>2026-08-20T06:10:59.000Z</time>
      </trkpt>
      <trkpt lat="47.82193" lon="6.83617">
        <ele>1185</ele>
        <time>2026-08-20T06:11:01.000Z</time>
      </trkpt>
      <trkpt lat="47.82195" lon="6.8362">
        <ele>1185.2</ele>
        <time>2026-08-20T06:11:02.000Z</time>
      </trkpt>
      <trkpt lat="47.82199" lon="6.83631">
        <ele>1186.6</ele>
        <time>2026-08-20T06:11:05.000Z</time>
      </trkpt>
      <trkpt lat="47.82199" lon="6.83635">
        <ele>1187</ele>
        <time>2026-08-20T06:11:06.000Z</time>
      </trkpt>
      <trkpt lat="47.82201" lon="6.83642">
        <ele>1187.6</ele>
        <time>2026-08-20T06:11:08.000Z</time>
      </trkpt>
      <trkpt lat="47.82206" lon="6.83652">
        <ele>1188.6</ele>
        <time>2026-08-20T06:11:11.000Z</time>
      </trkpt>
      <trkpt lat="47.82208" lon="6.83656">
        <ele>1188.8</ele>
        <time>2026-08-20T06:11:12.000Z</time>
      </trkpt>
      <trkpt lat="47.82216" lon="6.83669">
        <ele>1190.2</ele>
        <time>2026-08-20T06:11:16.000Z</time>
      </trkpt>
      <trkpt lat="47.82223" lon="6.83678">
        <ele>1191.2</ele>
        <time>2026-08-20T06:11:19.000Z</time>
      </trkpt>
      <trkpt lat="47.82229" lon="6.83688">
        <ele>1192.4</ele>
        <time>2026-08-20T06:11:22.000Z</time>
      </trkpt>
      <trkpt lat="47.82235" lon="6.83696">
        <ele>1193.8</ele>
        <time>2026-08-20T06:11:25.000Z</time>
      </trkpt>
      <trkpt lat="47.82239" lon="6.83703">
        <ele>1194.6</ele>
        <time>2026-08-20T06:11:27.000Z</time>
      </trkpt>
      <trkpt lat="47.82241" lon="6.83706">
        <ele>1195</ele>
        <time>2026-08-20T06:11:28.000Z</time>
      </trkpt>
      <trkpt lat="47.82248" lon="6.83715">
        <ele>1196.2</ele>
        <time>2026-08-20T06:11:31.000Z</time>
      </trkpt>
      <trkpt lat="47.82254" lon="6.83723">
        <ele>1197.2</ele>
        <time>2026-08-20T06:11:34.000Z</time>
      </trkpt>
      <trkpt lat="47.82256" lon="6.83725">
        <ele>1197.4</ele>
        <time>2026-08-20T06:11:35.000Z</time>
      </trkpt>
      <trkpt lat="47.82261" lon="6.83734">
        <ele>1198.8</ele>
        <time>2026-08-20T06:11:38.000Z</time>
      </trkpt>
      <trkpt lat="47.82268" lon="6.83741">
        <ele>1200.4</ele>
        <time>2026-08-20T06:11:41.000Z</time>
      </trkpt>
      <trkpt lat="47.82275" lon="6.83748">
        <ele>1201.4</ele>
        <time>2026-08-20T06:11:44.000Z</time>
      </trkpt>
      <trkpt lat="47.82279" lon="6.83757">
        <ele>1202.4</ele>
        <time>2026-08-20T06:11:47.000Z</time>
      </trkpt>
      <trkpt lat="47.8228" lon="6.8376">
        <ele>1202.8</ele>
        <time>2026-08-20T06:11:48.000Z</time>
      </trkpt>
      <trkpt lat="47.82284" lon="6.83768">
        <ele>1203.8</ele>
        <time>2026-08-20T06:11:51.000Z</time>
      </trkpt>
      <trkpt lat="47.82289" lon="6.83776">
        <ele>1205.2</ele>
        <time>2026-08-20T06:11:54.000Z</time>
      </trkpt>
      <trkpt lat="47.82294" lon="6.83784">
        <ele>1206.6</ele>
        <time>2026-08-20T06:11:57.000Z</time>
      </trkpt>
      <trkpt lat="47.823" lon="6.83791">
        <ele>1207.8</ele>
        <time>2026-08-20T06:12:00.000Z</time>
      </trkpt>
      <trkpt lat="47.82307" lon="6.83799">
        <ele>1208.8</ele>
        <time>2026-08-20T06:12:03.000Z</time>
      </trkpt>
      <trkpt lat="47.82314" lon="6.83804">
        <ele>1210</ele>
        <time>2026-08-20T06:12:06.000Z</time>
      </trkpt>
      <trkpt lat="47.82321" lon="6.83808">
        <ele>1211</ele>
        <time>2026-08-20T06:12:09.000Z</time>
      </trkpt>
      <trkpt lat="47.82327" lon="6.83812">
        <ele>1212</ele>
        <time>2026-08-20T06:12:12.000Z</time>
      </trkpt>
      <trkpt lat="47.8233" lon="6.8382">
        <ele>1213.2</ele>
        <time>2026-08-20T06:12:15.000Z</time>
      </trkpt>
      <trkpt lat="47.82336" lon="6.83829">
        <ele>1214.2</ele>
        <time>2026-08-20T06:12:19.000Z</time>
      </trkpt>
      <trkpt lat="47.82338" lon="6.83831">
        <ele>1214.6</ele>
        <time>2026-08-20T06:12:20.000Z</time>
      </trkpt>
      <trkpt lat="47.82341" lon="6.83834">
        <ele>1215.6</ele>
        <time>2026-08-20T06:12:22.000Z</time>
      </trkpt>
      <trkpt lat="47.82345" lon="6.8384">
        <ele>1217</ele>
        <time>2026-08-20T06:12:25.000Z</time>
      </trkpt>
      <trkpt lat="47.82349" lon="6.83843">
        <ele>1217.6</ele>
        <time>2026-08-20T06:12:27.000Z</time>
      </trkpt>
      <trkpt lat="47.82353" lon="6.83847">
        <ele>1218</ele>
        <time>2026-08-20T06:12:29.000Z</time>
      </trkpt>
      <trkpt lat="47.82358" lon="6.83847">
        <ele>1218.8</ele>
        <time>2026-08-20T06:12:32.000Z</time>
      </trkpt>
      <trkpt lat="47.82361" lon="6.83848">
        <ele>1218.8</ele>
        <time>2026-08-20T06:12:34.000Z</time>
      </trkpt>
      <trkpt lat="47.82364" lon="6.83852">
        <ele>1219.2</ele>
        <time>2026-08-20T06:12:36.000Z</time>
      </trkpt>
      <trkpt lat="47.82365" lon="6.83854">
        <ele>1219.6</ele>
        <time>2026-08-20T06:12:37.000Z</time>
      </trkpt>
      <trkpt lat="47.82369" lon="6.83857">
        <ele>1220.6</ele>
        <time>2026-08-20T06:12:39.000Z</time>
      </trkpt>
      <trkpt lat="47.82374" lon="6.83861">
        <ele>1221.8</ele>
        <time>2026-08-20T06:12:42.000Z</time>
      </trkpt>
      <trkpt lat="47.8238" lon="6.83864">
        <ele>1222.8</ele>
        <time>2026-08-20T06:12:45.000Z</time>
      </trkpt>
      <trkpt lat="47.82388" lon="6.83868">
        <ele>1224.2</ele>
        <time>2026-08-20T06:12:49.000Z</time>
      </trkpt>
      <trkpt lat="47.8239" lon="6.83868">
        <ele>1224.8</ele>
        <time>2026-08-20T06:12:50.000Z</time>
      </trkpt>
      <trkpt lat="47.82393" lon="6.83869">
        <ele>1225.4</ele>
        <time>2026-08-20T06:12:51.000Z</time>
      </trkpt>
      <trkpt lat="47.82402" lon="6.83871">
        <ele>1226.6</ele>
        <time>2026-08-20T06:12:55.000Z</time>
      </trkpt>
      <trkpt lat="47.82407" lon="6.83873">
        <ele>1227.4</ele>
        <time>2026-08-20T06:12:57.000Z</time>
      </trkpt>
      <trkpt lat="47.82409" lon="6.83874">
        <ele>1228</ele>
        <time>2026-08-20T06:12:58.000Z</time>
      </trkpt>
      <trkpt lat="47.82415" lon="6.83877">
        <ele>1229.2</ele>
        <time>2026-08-20T06:13:01.000Z</time>
      </trkpt>
      <trkpt lat="47.82423" lon="6.83882">
        <ele>1230.4</ele>
        <time>2026-08-20T06:13:05.000Z</time>
      </trkpt>
      <trkpt lat="47.82425" lon="6.83882">
        <ele>1230.8</ele>
        <time>2026-08-20T06:13:06.000Z</time>
      </trkpt>
      <trkpt lat="47.82429" lon="6.8388">
        <ele>1231.6</ele>
        <time>2026-08-20T06:13:08.000Z</time>
      </trkpt>
      <trkpt lat="47.82433" lon="6.83882">
        <ele>1232.2</ele>
        <time>2026-08-20T06:13:10.000Z</time>
      </trkpt>
      <trkpt lat="47.82435" lon="6.83883">
        <ele>1232.6</ele>
        <time>2026-08-20T06:13:11.000Z</time>
      </trkpt>
      <trkpt lat="47.82442" lon="6.83892">
        <ele>1234</ele>
        <time>2026-08-20T06:13:16.000Z</time>
      </trkpt>
      <trkpt lat="47.82449" lon="6.83898">
        <ele>1235</ele>
        <time>2026-08-20T06:13:20.000Z</time>
      </trkpt>
      <trkpt lat="47.82454" lon="6.83899">
        <ele>1235.6</ele>
        <time>2026-08-20T06:13:23.000Z</time>
      </trkpt>
      <trkpt lat="47.82464" lon="6.83904">
        <ele>1236</ele>
        <time>2026-08-20T06:13:28.000Z</time>
      </trkpt>
      <trkpt lat="47.82465" lon="6.83905">
        <ele>1236.2</ele>
        <time>2026-08-20T06:13:30.000Z</time>
      </trkpt>
      <trkpt lat="47.82472" lon="6.83905">
        <ele>1235.6</ele>
        <time>2026-08-20T06:13:35.000Z</time>
      </trkpt>
      <trkpt lat="47.82476" lon="6.83905">
        <ele>1235</ele>
        <time>2026-08-20T06:13:37.000Z</time>
      </trkpt>
      <trkpt lat="47.82481" lon="6.83905">
        <ele>1234</ele>
        <time>2026-08-20T06:13:39.000Z</time>
      </trkpt>
      <trkpt lat="47.82484" lon="6.83906">
        <ele>1233.2</ele>
        <time>2026-08-20T06:13:41.000Z</time>
      </trkpt>
      <trkpt lat="47.82485" lon="6.83906">
        <ele>1232.6</ele>
        <time>2026-08-20T06:13:42.000Z</time>
      </trkpt>
      <trkpt lat="47.82491" lon="6.83907">
        <ele>1231.4</ele>
        <time>2026-08-20T06:13:45.000Z</time>
      </trkpt>
      <trkpt lat="47.82494" lon="6.8391">
        <ele>1230.6</ele>
        <time>2026-08-20T06:13:47.000Z</time>
      </trkpt>
      <trkpt lat="47.82495" lon="6.83912">
        <ele>1230.2</ele>
        <time>2026-08-20T06:13:48.000Z</time>
      </trkpt>
      <trkpt lat="47.82498" lon="6.83916">
        <ele>1229.2</ele>
        <time>2026-08-20T06:13:53.000Z</time>
      </trkpt>
      <trkpt lat="47.82502" lon="6.83916">
        <ele>1228</ele>
        <time>2026-08-20T06:13:57.000Z</time>
      </trkpt>
      <trkpt lat="47.82503" lon="6.83915">
        <ele>1227.2</ele>
        <time>2026-08-20T06:14:00.000Z</time>
      </trkpt>
      <trkpt lat="47.82503" lon="6.83915">
        <ele>1226.8</ele>
        <time>2026-08-20T06:14:02.000Z</time>
      </trkpt>
      <trkpt lat="47.82503" lon="6.83915">
        <ele>1226.6</ele>
        <time>2026-08-20T06:14:08.000Z</time>
      </trkpt>
      <trkpt lat="47.82504" lon="6.83915">
        <ele>1227.4</ele>
        <time>2026-08-20T06:14:13.000Z</time>
      </trkpt>
      <trkpt lat="47.82505" lon="6.83914">
        <ele>1227</ele>
        <time>2026-08-20T06:14:18.000Z</time>
      </trkpt>
      <trkpt lat="47.8251" lon="6.83919">
        <ele>1226.2</ele>
        <time>2026-08-20T06:14:23.000Z</time>
      </trkpt>
      <trkpt lat="47.82511" lon="6.83921">
        <ele>1225.8</ele>
        <time>2026-08-20T06:14:24.000Z</time>
      </trkpt>
      <trkpt lat="47.82515" lon="6.83922">
        <ele>1224.8</ele>
        <time>2026-08-20T06:14:26.000Z</time>
      </trkpt>
      <trkpt lat="47.82519" lon="6.83925">
        <ele>1223.6</ele>
        <time>2026-08-20T06:14:28.000Z</time>
      </trkpt>
      <trkpt lat="47.82526" lon="6.83926">
        <ele>1222.2</ele>
        <time>2026-08-20T06:14:31.000Z</time>
      </trkpt>
      <trkpt lat="47.82528" lon="6.83928">
        <ele>1221.6</ele>
        <time>2026-08-20T06:14:32.000Z</time>
      </trkpt>
      <trkpt lat="47.82531" lon="6.8393">
        <ele>1221</ele>
        <time>2026-08-20T06:14:33.000Z</time>
      </trkpt>
      <trkpt lat="47.82538" lon="6.83936">
        <ele>1219.6</ele>
        <time>2026-08-20T06:14:35.000Z</time>
      </trkpt>
      <trkpt lat="47.82542" lon="6.8394">
        <ele>1218.6</ele>
        <time>2026-08-20T06:14:36.000Z</time>
      </trkpt>
      <trkpt lat="47.82546" lon="6.83943">
        <ele>1217.8</ele>
        <time>2026-08-20T06:14:37.000Z</time>
      </trkpt>
      <trkpt lat="47.82549" lon="6.83945">
        <ele>1217</ele>
        <time>2026-08-20T06:14:38.000Z</time>
      </trkpt>
      <trkpt lat="47.82553" lon="6.83946">
        <ele>1216.4</ele>
        <time>2026-08-20T06:14:39.000Z</time>
      </trkpt>
      <trkpt lat="47.82559" lon="6.83946">
        <ele>1215</ele>
        <time>2026-08-20T06:14:41.000Z</time>
      </trkpt>
      <trkpt lat="47.82565" lon="6.83948">
        <ele>1213.6</ele>
        <time>2026-08-20T06:14:43.000Z</time>
      </trkpt>
      <trkpt lat="47.82571" lon="6.83951">
        <ele>1212.2</ele>
        <time>2026-08-20T06:14:45.000Z</time>
      </trkpt>
      <trkpt lat="47.82575" lon="6.83952">
        <ele>1211.2</ele>
        <time>2026-08-20T06:14:46.000Z</time>
      </trkpt>
      <trkpt lat="47.82579" lon="6.83954">
        <ele>1210</ele>
        <time>2026-08-20T06:14:47.000Z</time>
      </trkpt>
      <trkpt lat="47.82584" lon="6.83956">
        <ele>1208.8</ele>
        <time>2026-08-20T06:14:48.000Z</time>
      </trkpt>
      <trkpt lat="47.82589" lon="6.83958">
        <ele>1207.6</ele>
        <time>2026-08-20T06:14:49.000Z</time>
      </trkpt>
      <trkpt lat="47.82598" lon="6.83964">
        <ele>1206</ele>
        <time>2026-08-20T06:14:51.000Z</time>
      </trkpt>
      <trkpt lat="47.82602" lon="6.83967">
        <ele>1205</ele>
        <time>2026-08-20T06:14:52.000Z</time>
      </trkpt>
      <trkpt lat="47.82606" lon="6.83969">
        <ele>1203.8</ele>
        <time>2026-08-20T06:14:53.000Z</time>
      </trkpt>
      <trkpt lat="47.82609" lon="6.83971">
        <ele>1202.8</ele>
        <time>2026-08-20T06:14:54.000Z</time>
      </trkpt>
      <trkpt lat="47.82613" lon="6.8397">
        <ele>1202</ele>
        <time>2026-08-20T06:14:55.000Z</time>
      </trkpt>
      <trkpt lat="47.82617" lon="6.83971">
        <ele>1201.4</ele>
        <time>2026-08-20T06:14:56.000Z</time>
      </trkpt>
      <trkpt lat="47.82622" lon="6.83974">
        <ele>1200.6</ele>
        <time>2026-08-20T06:14:58.000Z</time>
      </trkpt>
      <trkpt lat="47.82628" lon="6.83977">
        <ele>1199.8</ele>
        <time>2026-08-20T06:15:00.000Z</time>
      </trkpt>
      <trkpt lat="47.82631" lon="6.83977">
        <ele>1199</ele>
        <time>2026-08-20T06:15:01.000Z</time>
      </trkpt>
      <trkpt lat="47.82638" lon="6.83977">
        <ele>1197.6</ele>
        <time>2026-08-20T06:15:03.000Z</time>
      </trkpt>
      <trkpt lat="47.82644" lon="6.83979">
        <ele>1196</ele>
        <time>2026-08-20T06:15:05.000Z</time>
      </trkpt>
      <trkpt lat="47.82651" lon="6.83981">
        <ele>1194.8</ele>
        <time>2026-08-20T06:15:07.000Z</time>
      </trkpt>
      <trkpt lat="47.82658" lon="6.83981">
        <ele>1193.4</ele>
        <time>2026-08-20T06:15:09.000Z</time>
      </trkpt>
      <trkpt lat="47.82661" lon="6.8398">
        <ele>1192.8</ele>
        <time>2026-08-20T06:15:10.000Z</time>
      </trkpt>
      <trkpt lat="47.82664" lon="6.8398">
        <ele>1192</ele>
        <time>2026-08-20T06:15:11.000Z</time>
      </trkpt>
      <trkpt lat="47.82672" lon="6.83979">
        <ele>1190.6</ele>
        <time>2026-08-20T06:15:13.000Z</time>
      </trkpt>
      <trkpt lat="47.8268" lon="6.8398">
        <ele>1189.4</ele>
        <time>2026-08-20T06:15:15.000Z</time>
      </trkpt>
      <trkpt lat="47.82685" lon="6.8398">
        <ele>1188.4</ele>
        <time>2026-08-20T06:15:17.000Z</time>
      </trkpt>
      <trkpt lat="47.82692" lon="6.83973">
        <ele>1186.8</ele>
        <time>2026-08-20T06:15:20.000Z</time>
      </trkpt>
      <trkpt lat="47.82695" lon="6.8397">
        <ele>1186.2</ele>
        <time>2026-08-20T06:15:21.000Z</time>
      </trkpt>
      <trkpt lat="47.82699" lon="6.83968">
        <ele>1185.6</ele>
        <time>2026-08-20T06:15:22.000Z</time>
      </trkpt>
      <trkpt lat="47.82707" lon="6.83964">
        <ele>1183.8</ele>
        <time>2026-08-20T06:15:24.000Z</time>
      </trkpt>
      <trkpt lat="47.82712" lon="6.83962">
        <ele>1182.8</ele>
        <time>2026-08-20T06:15:25.000Z</time>
      </trkpt>
      <trkpt lat="47.82715" lon="6.83959">
        <ele>1181.6</ele>
        <time>2026-08-20T06:15:26.000Z</time>
      </trkpt>
      <trkpt lat="47.82719" lon="6.83956">
        <ele>1180.6</ele>
        <time>2026-08-20T06:15:27.000Z</time>
      </trkpt>
      <trkpt lat="47.82724" lon="6.83954">
        <ele>1179.6</ele>
        <time>2026-08-20T06:15:28.000Z</time>
      </trkpt>
      <trkpt lat="47.82729" lon="6.83953">
        <ele>1178.6</ele>
        <time>2026-08-20T06:15:29.000Z</time>
      </trkpt>
      <trkpt lat="47.82734" lon="6.8395">
        <ele>1177.4</ele>
        <time>2026-08-20T06:15:30.000Z</time>
      </trkpt>
      <trkpt lat="47.82739" lon="6.83949">
        <ele>1176.4</ele>
        <time>2026-08-20T06:15:31.000Z</time>
      </trkpt>
      <trkpt lat="47.82747" lon="6.83948">
        <ele>1174.2</ele>
        <time>2026-08-20T06:15:33.000Z</time>
      </trkpt>
      <trkpt lat="47.82751" lon="6.83946">
        <ele>1173.4</ele>
        <time>2026-08-20T06:15:34.000Z</time>
      </trkpt>
      <trkpt lat="47.82756" lon="6.83944">
        <ele>1172.6</ele>
        <time>2026-08-20T06:15:35.000Z</time>
      </trkpt>
      <trkpt lat="47.82765" lon="6.83939">
        <ele>1171.2</ele>
        <time>2026-08-20T06:15:37.000Z</time>
      </trkpt>
      <trkpt lat="47.82772" lon="6.83934">
        <ele>1169.6</ele>
        <time>2026-08-20T06:15:39.000Z</time>
      </trkpt>
      <trkpt lat="47.82776" lon="6.83931">
        <ele>1168.4</ele>
        <time>2026-08-20T06:15:40.000Z</time>
      </trkpt>
      <trkpt lat="47.8278" lon="6.83928">
        <ele>1167.2</ele>
        <time>2026-08-20T06:15:41.000Z</time>
      </trkpt>
      <trkpt lat="47.82783" lon="6.83926">
        <ele>1166</ele>
        <time>2026-08-20T06:15:42.000Z</time>
      </trkpt>
      <trkpt lat="47.82787" lon="6.83924">
        <ele>1164.8</ele>
        <time>2026-08-20T06:15:43.000Z</time>
      </trkpt>
      <trkpt lat="47.82792" lon="6.83922">
        <ele>1163.8</ele>
        <time>2026-08-20T06:15:44.000Z</time>
      </trkpt>
      <trkpt lat="47.82796" lon="6.8392">
        <ele>1162.8</ele>
        <time>2026-08-20T06:15:45.000Z</time>
      </trkpt>
      <trkpt lat="47.828" lon="6.83919">
        <ele>1161.8</ele>
        <time>2026-08-20T06:15:46.000Z</time>
      </trkpt>
      <trkpt lat="47.8281" lon="6.83918">
        <ele>1159.6</ele>
        <time>2026-08-20T06:15:48.000Z</time>
      </trkpt>
      <trkpt lat="47.82814" lon="6.83917">
        <ele>1158.4</ele>
        <time>2026-08-20T06:15:49.000Z</time>
      </trkpt>
      <trkpt lat="47.82818" lon="6.83916">
        <ele>1157.4</ele>
        <time>2026-08-20T06:15:50.000Z</time>
      </trkpt>
      <trkpt lat="47.82826" lon="6.83914">
        <ele>1155.6</ele>
        <time>2026-08-20T06:15:52.000Z</time>
      </trkpt>
      <trkpt lat="47.82833" lon="6.8391">
        <ele>1153.8</ele>
        <time>2026-08-20T06:15:54.000Z</time>
      </trkpt>
      <trkpt lat="47.8284" lon="6.83909">
        <ele>1152</ele>
        <time>2026-08-20T06:15:56.000Z</time>
      </trkpt>
      <trkpt lat="47.82842" lon="6.83907">
        <ele>1151</ele>
        <time>2026-08-20T06:15:57.000Z</time>
      </trkpt>
      <trkpt lat="47.82847" lon="6.83906">
        <ele>1150</ele>
        <time>2026-08-20T06:15:58.000Z</time>
      </trkpt>
      <trkpt lat="47.82851" lon="6.83906">
        <ele>1148.8</ele>
        <time>2026-08-20T06:15:59.000Z</time>
      </trkpt>
      <trkpt lat="47.82858" lon="6.83908">
        <ele>1147</ele>
        <time>2026-08-20T06:16:01.000Z</time>
      </trkpt>
      <trkpt lat="47.82863" lon="6.83913">
        <ele>1145.8</ele>
        <time>2026-08-20T06:16:03.000Z</time>
      </trkpt>
      <trkpt lat="47.82863" lon="6.83915">
        <ele>1145.4</ele>
        <time>2026-08-20T06:16:05.000Z</time>
      </trkpt>
      <trkpt lat="47.82862" lon="6.83915">
        <ele>1145.2</ele>
        <time>2026-08-20T06:16:15.000Z</time>
      </trkpt>
      <trkpt lat="47.82862" lon="6.83915">
        <ele>1145.2</ele>
        <time>2026-08-20T06:16:18.000Z</time>
      </trkpt>
      <trkpt lat="47.82863" lon="6.83915">
        <ele>1145.2</ele>
        <time>2026-08-20T06:16:19.000Z</time>
      </trkpt>
      <trkpt lat="47.82864" lon="6.83917">
        <ele>1144.8</ele>
        <time>2026-08-20T06:16:39.000Z</time>
      </trkpt>
      <trkpt lat="47.82866" lon="6.83918">
        <ele>1144.6</ele>
        <time>2026-08-20T06:16:46.000Z</time>
      </trkpt>
      <trkpt lat="47.82872" lon="6.83922">
        <ele>1143.6</ele>
        <time>2026-08-20T06:16:50.000Z</time>
      </trkpt>
      <trkpt lat="47.82873" lon="6.83923">
        <ele>1143.2</ele>
        <time>2026-08-20T06:16:51.000Z</time>
      </trkpt>
      <trkpt lat="47.82881" lon="6.83926">
        <ele>1142.4</ele>
        <time>2026-08-20T06:16:55.000Z</time>
      </trkpt>
      <trkpt lat="47.82883" lon="6.83927">
        <ele>1142.2</ele>
        <time>2026-08-20T06:16:56.000Z</time>
      </trkpt>
      <trkpt lat="47.82886" lon="6.83929">
        <ele>1141.6</ele>
        <time>2026-08-20T06:16:58.000Z</time>
      </trkpt>
      <trkpt lat="47.82889" lon="6.8393">
        <ele>1141.2</ele>
        <time>2026-08-20T06:16:59.000Z</time>
      </trkpt>
      <trkpt lat="47.82894" lon="6.83932">
        <ele>1140.2</ele>
        <time>2026-08-20T06:17:01.000Z</time>
      </trkpt>
      <trkpt lat="47.82897" lon="6.83933">
        <ele>1139.8</ele>
        <time>2026-08-20T06:17:02.000Z</time>
      </trkpt>
      <trkpt lat="47.829" lon="6.83936">
        <ele>1138.6</ele>
        <time>2026-08-20T06:17:05.000Z</time>
      </trkpt>
      <trkpt lat="47.82907" lon="6.83948">
        <ele>1137.6</ele>
        <time>2026-08-20T06:17:09.000Z</time>
      </trkpt>
      <trkpt lat="47.82908" lon="6.83952">
        <ele>1137.2</ele>
        <time>2026-08-20T06:17:13.000Z</time>
      </trkpt>
      <trkpt lat="47.82909" lon="6.83953">
        <ele>1137</ele>
        <time>2026-08-20T06:17:19.000Z</time>
      </trkpt>
      <trkpt lat="47.82915" lon="6.83959">
        <ele>1136.4</ele>
        <time>2026-08-20T06:17:24.000Z</time>
      </trkpt>
      <trkpt lat="47.82918" lon="6.83965">
        <ele>1135.2</ele>
        <time>2026-08-20T06:17:28.000Z</time>
      </trkpt>
      <trkpt lat="47.8292" lon="6.83968">
        <ele>1134.6</ele>
        <time>2026-08-20T06:17:30.000Z</time>
      </trkpt>
      <trkpt lat="47.82923" lon="6.8397">
        <ele>1134</ele>
        <time>2026-08-20T06:17:32.000Z</time>
      </trkpt>
      <trkpt lat="47.82929" lon="6.83976">
        <ele>1132.6</ele>
        <time>2026-08-20T06:17:35.000Z</time>
      </trkpt>
      <trkpt lat="47.82933" lon="6.83981">
        <ele>1131.4</ele>
        <time>2026-08-20T06:17:37.000Z</time>
      </trkpt>
      <trkpt lat="47.82939" lon="6.83983">
        <ele>1130.2</ele>
        <time>2026-08-20T06:17:39.000Z</time>
      </trkpt>
      <trkpt lat="47.82948" lon="6.83986">
        <ele>1128.8</ele>
        <time>2026-08-20T06:17:42.000Z</time>
      </trkpt>
      <trkpt lat="47.82954" lon="6.83991">
        <ele>1127.8</ele>
        <time>2026-08-20T06:17:44.000Z</time>
      </trkpt>
      <trkpt lat="47.82958" lon="6.83994">
        <ele>1126.6</ele>
        <time>2026-08-20T06:17:46.000Z</time>
      </trkpt>
      <trkpt lat="47.82963" lon="6.83997">
        <ele>1125.8</ele>
        <time>2026-08-20T06:17:48.000Z</time>
      </trkpt>
      <trkpt lat="47.82964" lon="6.83999">
        <ele>1125.2</ele>
        <time>2026-08-20T06:17:49.000Z</time>
      </trkpt>
      <trkpt lat="47.82969" lon="6.84005">
        <ele>1123.8</ele>
        <time>2026-08-20T06:17:52.000Z</time>
      </trkpt>
      <trkpt lat="47.82971" lon="6.84008">
        <ele>1123</ele>
        <time>2026-08-20T06:17:54.000Z</time>
      </trkpt>
      <trkpt lat="47.82972" lon="6.84009">
        <ele>1122.6</ele>
        <time>2026-08-20T06:17:55.000Z</time>
      </trkpt>
      <trkpt lat="47.82973" lon="6.84009">
        <ele>1122</ele>
        <time>2026-08-20T06:17:57.000Z</time>
      </trkpt>
      <trkpt lat="47.82975" lon="6.84011">
        <ele>1121.6</ele>
        <time>2026-08-20T06:17:58.000Z</time>
      </trkpt>
      <trkpt lat="47.82976" lon="6.84013">
        <ele>1121.4</ele>
        <time>2026-08-20T06:17:59.000Z</time>
      </trkpt>
      <trkpt lat="47.82982" lon="6.8402">
        <ele>1119.8</ele>
        <time>2026-08-20T06:18:02.000Z</time>
      </trkpt>
      <trkpt lat="47.82984" lon="6.84022">
        <ele>1119.4</ele>
        <time>2026-08-20T06:18:03.000Z</time>
      </trkpt>
      <trkpt lat="47.82988" lon="6.84027">
        <ele>1118.8</ele>
        <time>2026-08-20T06:18:06.000Z</time>
      </trkpt>
      <trkpt lat="47.82995" lon="6.84031">
        <ele>1117.4</ele>
        <time>2026-08-20T06:18:09.000Z</time>
      </trkpt>
      <trkpt lat="47.83" lon="6.84031">
        <ele>1116.4</ele>
        <time>2026-08-20T06:18:11.000Z</time>
      </trkpt>
      <trkpt lat="47.83009" lon="6.8403">
        <ele>1115.2</ele>
        <time>2026-08-20T06:18:14.000Z</time>
      </trkpt>
      <trkpt lat="47.83012" lon="6.84031">
        <ele>1114.6</ele>
        <time>2026-08-20T06:18:15.000Z</time>
      </trkpt>
      <trkpt lat="47.83015" lon="6.84032">
        <ele>1114</ele>
        <time>2026-08-20T06:18:16.000Z</time>
      </trkpt>
      <trkpt lat="47.83021" lon="6.84031">
        <ele>1112.8</ele>
        <time>2026-08-20T06:18:18.000Z</time>
      </trkpt>
      <trkpt lat="47.83025" lon="6.84029">
        <ele>1111.6</ele>
        <time>2026-08-20T06:18:20.000Z</time>
      </trkpt>
      <trkpt lat="47.83032" lon="6.84028">
        <ele>1110.6</ele>
        <time>2026-08-20T06:18:24.000Z</time>
      </trkpt>
      <trkpt lat="47.83034" lon="6.84028">
        <ele>1110.4</ele>
        <time>2026-08-20T06:18:25.000Z</time>
      </trkpt>
      <trkpt lat="47.83046" lon="6.84028">
        <ele>1109.6</ele>
        <time>2026-08-20T06:18:29.000Z</time>
      </trkpt>
      <trkpt lat="47.83058" lon="6.84029">
        <ele>1108.2</ele>
        <time>2026-08-20T06:18:33.000Z</time>
      </trkpt>
      <trkpt lat="47.83062" lon="6.84029">
        <ele>1108</ele>
        <time>2026-08-20T06:18:34.000Z</time>
      </trkpt>
      <trkpt lat="47.83073" lon="6.84029">
        <ele>1107</ele>
        <time>2026-08-20T06:18:37.000Z</time>
      </trkpt>
      <trkpt lat="47.83086" lon="6.84031">
        <ele>1106</ele>
        <time>2026-08-20T06:18:40.000Z</time>
      </trkpt>
      <trkpt lat="47.8309" lon="6.84032">
        <ele>1105.8</ele>
        <time>2026-08-20T06:18:41.000Z</time>
      </trkpt>
      <trkpt lat="47.83101" lon="6.84036">
        <ele>1104.8</ele>
        <time>2026-08-20T06:18:44.000Z</time>
      </trkpt>
      <trkpt lat="47.83108" lon="6.84036">
        <ele>1104</ele>
        <time>2026-08-20T06:18:46.000Z</time>
      </trkpt>
      <trkpt lat="47.83116" lon="6.84036">
        <ele>1103.4</ele>
        <time>2026-08-20T06:18:48.000Z</time>
      </trkpt>
      <trkpt lat="47.83128" lon="6.84035">
        <ele>1101.8</ele>
        <time>2026-08-20T06:18:51.000Z</time>
      </trkpt>
      <trkpt lat="47.83137" lon="6.84037">
        <ele>1100.4</ele>
        <time>2026-08-20T06:18:53.000Z</time>
      </trkpt>
      <trkpt lat="47.83145" lon="6.84039">
        <ele>1099</ele>
        <time>2026-08-20T06:18:55.000Z</time>
      </trkpt>
      <trkpt lat="47.83153" lon="6.84042">
        <ele>1097.6</ele>
        <time>2026-08-20T06:18:57.000Z</time>
      </trkpt>
      <trkpt lat="47.83162" lon="6.84043">
        <ele>1095.8</ele>
        <time>2026-08-20T06:18:59.000Z</time>
      </trkpt>
      <trkpt lat="47.83168" lon="6.84044">
        <ele>1094.6</ele>
        <time>2026-08-20T06:19:00.000Z</time>
      </trkpt>
      <trkpt lat="47.83173" lon="6.84044">
        <ele>1093.4</ele>
        <time>2026-08-20T06:19:01.000Z</time>
      </trkpt>
      <trkpt lat="47.83181" lon="6.84045">
        <ele>1091.4</ele>
        <time>2026-08-20T06:19:03.000Z</time>
      </trkpt>
      <trkpt lat="47.83185" lon="6.84045">
        <ele>1090.6</ele>
        <time>2026-08-20T06:19:04.000Z</time>
      </trkpt>
      <trkpt lat="47.83187" lon="6.84045">
        <ele>1090.2</ele>
        <time>2026-08-20T06:19:05.000Z</time>
      </trkpt>
      <trkpt lat="47.83189" lon="6.84044">
        <ele>1089.4</ele>
        <time>2026-08-20T06:19:08.000Z</time>
      </trkpt>
      <trkpt lat="47.83188" lon="6.84044">
        <ele>1089.4</ele>
        <time>2026-08-20T06:19:16.000Z</time>
      </trkpt>
      <trkpt lat="47.83198" lon="6.84043">
        <ele>1089</ele>
        <time>2026-08-20T06:19:21.000Z</time>
      </trkpt>
      <trkpt lat="47.83211" lon="6.84043">
        <ele>1088</ele>
        <time>2026-08-20T06:19:25.000Z</time>
      </trkpt>
      <trkpt lat="47.83215" lon="6.84042">
        <ele>1087.8</ele>
        <time>2026-08-20T06:19:26.000Z</time>
      </trkpt>
      <trkpt lat="47.83223" lon="6.84038">
        <ele>1087</ele>
        <time>2026-08-20T06:19:30.000Z</time>
      </trkpt>
      <trkpt lat="47.83225" lon="6.84037">
        <ele>1086.4</ele>
        <time>2026-08-20T06:19:31.000Z</time>
      </trkpt>
      <trkpt lat="47.83228" lon="6.84035">
        <ele>1085.4</ele>
        <time>2026-08-20T06:19:33.000Z</time>
      </trkpt>
      <trkpt lat="47.83231" lon="6.84033">
        <ele>1084.2</ele>
        <time>2026-08-20T06:19:35.000Z</time>
      </trkpt>
      <trkpt lat="47.83233" lon="6.84032">
        <ele>1083.2</ele>
        <time>2026-08-20T06:19:37.000Z</time>
      </trkpt>
      <trkpt lat="47.83235" lon="6.84032">
        <ele>1083</ele>
        <time>2026-08-20T06:19:38.000Z</time>
      </trkpt>
      <trkpt lat="47.83242" lon="6.84033">
        <ele>1082.2</ele>
        <time>2026-08-20T06:19:42.000Z</time>
      </trkpt>
      <trkpt lat="47.83244" lon="6.84032">
        <ele>1081.8</ele>
        <time>2026-08-20T06:19:43.000Z</time>
      </trkpt>
      <trkpt lat="47.83247" lon="6.84033">
        <ele>1080.8</ele>
        <time>2026-08-20T06:19:45.000Z</time>
      </trkpt>
      <trkpt lat="47.83248" lon="6.84035">
        <ele>1080.6</ele>
        <time>2026-08-20T06:19:46.000Z</time>
      </trkpt>
      <trkpt lat="47.83251" lon="6.84036">
        <ele>1080</ele>
        <time>2026-08-20T06:19:48.000Z</time>
      </trkpt>
      <trkpt lat="47.83252" lon="6.84034">
        <ele>1079.8</ele>
        <time>2026-08-20T06:19:50.000Z</time>
      </trkpt>
      <trkpt lat="47.83253" lon="6.84034">
        <ele>1079.4</ele>
        <time>2026-08-20T06:19:52.000Z</time>
      </trkpt>
      <trkpt lat="47.83252" lon="6.84035">
        <ele>1079.6</ele>
        <time>2026-08-20T06:19:57.000Z</time>
      </trkpt>
      <trkpt lat="47.83253" lon="6.84034">
        <ele>1078.8</ele>
        <time>2026-08-20T06:20:11.000Z</time>
      </trkpt>
      <trkpt lat="47.83253" lon="6.84034">
        <ele>1078.8</ele>
        <time>2026-08-20T06:20:14.000Z</time>
      </trkpt>
      <trkpt lat="47.83253" lon="6.84034">
        <ele>1079</ele>
        <time>2026-08-20T06:20:17.000Z</time>
      </trkpt>
      <trkpt lat="47.83253" lon="6.84034">
        <ele>1079.2</ele>
        <time>2026-08-20T06:20:19.000Z</time>
      </trkpt>
      <trkpt lat="47.83256" lon="6.84029">
        <ele>1079.2</ele>
        <time>2026-08-20T06:20:22.000Z</time>
      </trkpt>
      <trkpt lat="47.83268" lon="6.84029">
        <ele>1078.4</ele>
        <time>2026-08-20T06:20:26.000Z</time>
      </trkpt>
      <trkpt lat="47.83276" lon="6.84031">
        <ele>1078</ele>
        <time>2026-08-20T06:20:28.000Z</time>
      </trkpt>
      <trkpt lat="47.8329" lon="6.84031">
        <ele>1077.2</ele>
        <time>2026-08-20T06:20:31.000Z</time>
      </trkpt>
      <trkpt lat="47.83308" lon="6.84025">
        <ele>1076.4</ele>
        <time>2026-08-20T06:20:35.000Z</time>
      </trkpt>
      <trkpt lat="47.83312" lon="6.84025">
        <ele>1076.2</ele>
        <time>2026-08-20T06:20:36.000Z</time>
      </trkpt>
      <trkpt lat="47.83321" lon="6.84028">
        <ele>1075</ele>
        <time>2026-08-20T06:20:41.000Z</time>
      </trkpt>
      <trkpt lat="47.83333" lon="6.84028">
        <ele>1074</ele>
        <time>2026-08-20T06:20:45.000Z</time>
      </trkpt>
      <trkpt lat="47.83337" lon="6.84027">
        <ele>1073.4</ele>
        <time>2026-08-20T06:20:46.000Z</time>
      </trkpt>
      <trkpt lat="47.8335" lon="6.84022">
        <ele>1072.2</ele>
        <time>2026-08-20T06:20:49.000Z</time>
      </trkpt>
      <trkpt lat="47.83359" lon="6.84023">
        <ele>1071.4</ele>
        <time>2026-08-20T06:20:51.000Z</time>
      </trkpt>
      <trkpt lat="47.83362" lon="6.84023">
        <ele>1071</ele>
        <time>2026-08-20T06:20:52.000Z</time>
      </trkpt>
      <trkpt lat="47.83366" lon="6.84023">
        <ele>1070.4</ele>
        <time>2026-08-20T06:20:53.000Z</time>
      </trkpt>
      <trkpt lat="47.83374" lon="6.84027">
        <ele>1069.4</ele>
        <time>2026-08-20T06:20:55.000Z</time>
      </trkpt>
      <trkpt lat="47.83381" lon="6.84031">
        <ele>1068.4</ele>
        <time>2026-08-20T06:20:57.000Z</time>
      </trkpt>
      <trkpt lat="47.8339" lon="6.84036">
        <ele>1066.8</ele>
        <time>2026-08-20T06:20:59.000Z</time>
      </trkpt>
      <trkpt lat="47.834" lon="6.84043">
        <ele>1065</ele>
        <time>2026-08-20T06:21:01.000Z</time>
      </trkpt>
      <trkpt lat="47.83405" lon="6.84045">
        <ele>1064.2</ele>
        <time>2026-08-20T06:21:02.000Z</time>
      </trkpt>
      <trkpt lat="47.8341" lon="6.84048">
        <ele>1063.2</ele>
        <time>2026-08-20T06:21:03.000Z</time>
      </trkpt>
      <trkpt lat="47.83414" lon="6.84051">
        <ele>1062.2</ele>
        <time>2026-08-20T06:21:04.000Z</time>
      </trkpt>
      <trkpt lat="47.83418" lon="6.84055">
        <ele>1061.6</ele>
        <time>2026-08-20T06:21:05.000Z</time>
      </trkpt>
      <trkpt lat="47.83428" lon="6.84062">
        <ele>1060.2</ele>
        <time>2026-08-20T06:21:07.000Z</time>
      </trkpt>
      <trkpt lat="47.83432" lon="6.84065">
        <ele>1059.6</ele>
        <time>2026-08-20T06:21:08.000Z</time>
      </trkpt>
      <trkpt lat="47.83437" lon="6.84069">
        <ele>1058.8</ele>
        <time>2026-08-20T06:21:10.000Z</time>
      </trkpt>
      <trkpt lat="47.83439" lon="6.84072">
        <ele>1058.6</ele>
        <time>2026-08-20T06:21:11.000Z</time>
      </trkpt>
      <trkpt lat="47.83441" lon="6.84075">
        <ele>1058.4</ele>
        <time>2026-08-20T06:21:12.000Z</time>
      </trkpt>
      <trkpt lat="47.83445" lon="6.84084">
        <ele>1057.4</ele>
        <time>2026-08-20T06:21:15.000Z</time>
      </trkpt>
      <trkpt lat="47.8345" lon="6.8409">
        <ele>1056</ele>
        <time>2026-08-20T06:21:17.000Z</time>
      </trkpt>
      <trkpt lat="47.83459" lon="6.84096">
        <ele>1054.2</ele>
        <time>2026-08-20T06:21:19.000Z</time>
      </trkpt>
      <trkpt lat="47.83466" lon="6.84098">
        <ele>1053</ele>
        <time>2026-08-20T06:21:21.000Z</time>
      </trkpt>
      <trkpt lat="47.83471" lon="6.84099">
        <ele>1052.2</ele>
        <time>2026-08-20T06:21:25.000Z</time>
      </trkpt>
      <trkpt lat="47.83471" lon="6.84099">
        <ele>1052</ele>
        <time>2026-08-20T06:21:28.000Z</time>
      </trkpt>
      <trkpt lat="47.83471" lon="6.84099">
        <ele>1052</ele>
        <time>2026-08-20T06:21:35.000Z</time>
      </trkpt>
      <trkpt lat="47.83471" lon="6.84099">
        <ele>1052</ele>
        <time>2026-08-20T06:21:36.000Z</time>
      </trkpt>
      <trkpt lat="47.8347" lon="6.84098">
        <ele>1051.8</ele>
        <time>2026-08-20T06:21:46.000Z</time>
      </trkpt>
      <trkpt lat="47.83472" lon="6.84099">
        <ele>1051.6</ele>
        <time>2026-08-20T06:21:48.000Z</time>
      </trkpt>
      <trkpt lat="47.83479" lon="6.84104">
        <ele>1051</ele>
        <time>2026-08-20T06:21:52.000Z</time>
      </trkpt>
      <trkpt lat="47.83481" lon="6.84105">
        <ele>1050.8</ele>
        <time>2026-08-20T06:21:53.000Z</time>
      </trkpt>
      <trkpt lat="47.83489" lon="6.84114">
        <ele>1049.8</ele>
        <time>2026-08-20T06:21:58.000Z</time>
      </trkpt>
      <trkpt lat="47.83489" lon="6.84114">
        <ele>1049.6</ele>
        <time>2026-08-20T06:21:59.000Z</time>
      </trkpt>
      <trkpt lat="47.83489" lon="6.84114">
        <ele>1049.6</ele>
        <time>2026-08-20T06:22:01.000Z</time>
      </trkpt>
      <trkpt lat="47.83492" lon="6.84123">
        <ele>1049.2</ele>
        <time>2026-08-20T06:22:05.000Z</time>
      </trkpt>
      <trkpt lat="47.83494" lon="6.8413">
        <ele>1048.6</ele>
        <time>2026-08-20T06:22:07.000Z</time>
      </trkpt>
      <trkpt lat="47.83494" lon="6.84136">
        <ele>1048.2</ele>
        <time>2026-08-20T06:22:10.000Z</time>
      </trkpt>
      <trkpt lat="47.83495" lon="6.84141">
        <ele>1047.6</ele>
        <time>2026-08-20T06:22:14.000Z</time>
      </trkpt>
      <trkpt lat="47.83498" lon="6.84155">
        <ele>1046.4</ele>
        <time>2026-08-20T06:22:19.000Z</time>
      </trkpt>
      <trkpt lat="47.83501" lon="6.84164">
        <ele>1045.2</ele>
        <time>2026-08-20T06:22:22.000Z</time>
      </trkpt>
      <trkpt lat="47.83503" lon="6.84167">
        <ele>1044</ele>
        <time>2026-08-20T06:22:24.000Z</time>
      </trkpt>
      <trkpt lat="47.83504" lon="6.84169">
        <ele>1043.6</ele>
        <time>2026-08-20T06:22:25.000Z</time>
      </trkpt>
      <trkpt lat="47.83504" lon="6.84173">
        <ele>1042.8</ele>
        <time>2026-08-20T06:22:27.000Z</time>
      </trkpt>
      <trkpt lat="47.835" lon="6.84174">
        <ele>1042</ele>
        <time>2026-08-20T06:22:29.000Z</time>
      </trkpt>
      <trkpt lat="47.83498" lon="6.84174">
        <ele>1041.4</ele>
        <time>2026-08-20T06:22:30.000Z</time>
      </trkpt>
      <trkpt lat="47.83494" lon="6.84176">
        <ele>1040.2</ele>
        <time>2026-08-20T06:22:32.000Z</time>
      </trkpt>
      <trkpt lat="47.83488" lon="6.84177">
        <ele>1039</ele>
        <time>2026-08-20T06:22:34.000Z</time>
      </trkpt>
      <trkpt lat="47.83482" lon="6.84176">
        <ele>1037.8</ele>
        <time>2026-08-20T06:22:36.000Z</time>
      </trkpt>
      <trkpt lat="47.83474" lon="6.84175">
        <ele>1036.4</ele>
        <time>2026-08-20T06:22:39.000Z</time>
      </trkpt>
      <trkpt lat="47.83471" lon="6.84175">
        <ele>1036</ele>
        <time>2026-08-20T06:22:40.000Z</time>
      </trkpt>
      <trkpt lat="47.83465" lon="6.84174">
        <ele>1035</ele>
        <time>2026-08-20T06:22:42.000Z</time>
      </trkpt>
      <trkpt lat="47.83455" lon="6.84173">
        <ele>1033.6</ele>
        <time>2026-08-20T06:22:45.000Z</time>
      </trkpt>
      <trkpt lat="47.83449" lon="6.84173">
        <ele>1032.6</ele>
        <time>2026-08-20T06:22:47.000Z</time>
      </trkpt>
      <trkpt lat="47.83445" lon="6.84174">
        <ele>1031.2</ele>
        <time>2026-08-20T06:22:50.000Z</time>
      </trkpt>
      <trkpt lat="47.83445" lon="6.84174">
        <ele>1030.8</ele>
        <time>2026-08-20T06:22:52.000Z</time>
      </trkpt>
      <trkpt lat="47.83447" lon="6.84177">
        <ele>1030.2</ele>
        <time>2026-08-20T06:22:57.000Z</time>
      </trkpt>
      <trkpt lat="47.83452" lon="6.84182">
        <ele>1029.4</ele>
        <time>2026-08-20T06:23:00.000Z</time>
      </trkpt>
      <trkpt lat="47.83454" lon="6.84184">
        <ele>1028.8</ele>
        <time>2026-08-20T06:23:01.000Z</time>
      </trkpt>
      <trkpt lat="47.8346" lon="6.84189">
        <ele>1027.8</ele>
        <time>2026-08-20T06:23:03.000Z</time>
      </trkpt>
      <trkpt lat="47.83467" lon="6.84195">
        <ele>1026.6</ele>
        <time>2026-08-20T06:23:06.000Z</time>
      </trkpt>
      <trkpt lat="47.83473" lon="6.842">
        <ele>1025.4</ele>
        <time>2026-08-20T06:23:09.000Z</time>
      </trkpt>
      <trkpt lat="47.8348" lon="6.84203">
        <ele>1024.4</ele>
        <time>2026-08-20T06:23:12.000Z</time>
      </trkpt>
      <trkpt lat="47.8349" lon="6.8421">
        <ele>1022.8</ele>
        <time>2026-08-20T06:23:16.000Z</time>
      </trkpt>
      <trkpt lat="47.83498" lon="6.84218">
        <ele>1021.4</ele>
        <time>2026-08-20T06:23:19.000Z</time>
      </trkpt>
      <trkpt lat="47.83505" lon="6.84225">
        <ele>1020</ele>
        <time>2026-08-20T06:23:22.000Z</time>
      </trkpt>
      <trkpt lat="47.83512" lon="6.84232">
        <ele>1018.8</ele>
        <time>2026-08-20T06:23:25.000Z</time>
      </trkpt>
      <trkpt lat="47.83519" lon="6.8424">
        <ele>1017.4</ele>
        <time>2026-08-20T06:23:28.000Z</time>
      </trkpt>
      <trkpt lat="47.83523" lon="6.84244">
        <ele>1016.4</ele>
        <time>2026-08-20T06:23:30.000Z</time>
      </trkpt>
      <trkpt lat="47.83526" lon="6.84246">
        <ele>1016</ele>
        <time>2026-08-20T06:23:31.000Z</time>
      </trkpt>
      <trkpt lat="47.83528" lon="6.84248">
        <ele>1015.2</ele>
        <time>2026-08-20T06:23:34.000Z</time>
      </trkpt>
      <trkpt lat="47.83529" lon="6.8425">
        <ele>1014.8</ele>
        <time>2026-08-20T06:23:38.000Z</time>
      </trkpt>
      <trkpt lat="47.83534" lon="6.84254">
        <ele>1013.8</ele>
        <time>2026-08-20T06:23:44.000Z</time>
      </trkpt>
      <trkpt lat="47.83541" lon="6.84259">
        <ele>1012.8</ele>
        <time>2026-08-20T06:23:50.000Z</time>
      </trkpt>
      <trkpt lat="47.83541" lon="6.84259">
        <ele>1012.6</ele>
        <time>2026-08-20T06:23:51.000Z</time>
      </trkpt>
      <trkpt lat="47.83543" lon="6.84262">
        <ele>1012.2</ele>
        <time>2026-08-20T06:23:57.000Z</time>
      </trkpt>
      <trkpt lat="47.83542" lon="6.84263">
        <ele>1012.2</ele>
        <time>2026-08-20T06:24:00.000Z</time>
      </trkpt>
      <trkpt lat="47.83543" lon="6.84265">
        <ele>1011.6</ele>
        <time>2026-08-20T06:24:05.000Z</time>
      </trkpt>
      <trkpt lat="47.83545" lon="6.84267">
        <ele>1010.6</ele>
        <time>2026-08-20T06:24:09.000Z</time>
      </trkpt>
      <trkpt lat="47.83545" lon="6.84267">
        <ele>1010.6</ele>
        <time>2026-08-20T06:24:10.000Z</time>
      </trkpt>
      <trkpt lat="47.83549" lon="6.84267">
        <ele>1011</ele>
        <time>2026-08-20T06:24:17.000Z</time>
      </trkpt>
      <trkpt lat="47.8355" lon="6.84268">
        <ele>1011.6</ele>
        <time>2026-08-20T06:24:22.000Z</time>
      </trkpt>
      <trkpt lat="47.83552" lon="6.84272">
        <ele>1011.6</ele>
        <time>2026-08-20T06:24:25.000Z</time>
      </trkpt>
      <trkpt lat="47.83557" lon="6.84273">
        <ele>1010.4</ele>
        <time>2026-08-20T06:24:32.000Z</time>
      </trkpt>
      <trkpt lat="47.83558" lon="6.84273">
        <ele>1010.4</ele>
        <time>2026-08-20T06:24:33.000Z</time>
      </trkpt>
      <trkpt lat="47.83561" lon="6.84275">
        <ele>1009.8</ele>
        <time>2026-08-20T06:24:40.000Z</time>
      </trkpt>
      <trkpt lat="47.83566" lon="6.84279">
        <ele>1009.4</ele>
        <time>2026-08-20T06:24:42.000Z</time>
      </trkpt>
      <trkpt lat="47.83574" lon="6.84284">
        <ele>1008.4</ele>
        <time>2026-08-20T06:24:45.000Z</time>
      </trkpt>
      <trkpt lat="47.83576" lon="6.84285">
        <ele>1008</ele>
        <time>2026-08-20T06:24:46.000Z</time>
      </trkpt>
      <trkpt lat="47.83582" lon="6.8429">
        <ele>1007.6</ele>
        <time>2026-08-20T06:24:49.000Z</time>
      </trkpt>
      <trkpt lat="47.83586" lon="6.84294">
        <ele>1007</ele>
        <time>2026-08-20T06:24:51.000Z</time>
      </trkpt>
      <trkpt lat="47.83589" lon="6.84297">
        <ele>1006.6</ele>
        <time>2026-08-20T06:24:52.000Z</time>
      </trkpt>
      <trkpt lat="47.83594" lon="6.84302">
        <ele>1005.8</ele>
        <time>2026-08-20T06:24:54.000Z</time>
      </trkpt>
      <trkpt lat="47.83602" lon="6.8431">
        <ele>1004.4</ele>
        <time>2026-08-20T06:24:57.000Z</time>
      </trkpt>
      <trkpt lat="47.8361" lon="6.8432">
        <ele>1003.4</ele>
        <time>2026-08-20T06:25:00.000Z</time>
      </trkpt>
      <trkpt lat="47.83618" lon="6.84332">
        <ele>1002</ele>
        <time>2026-08-20T06:25:03.000Z</time>
      </trkpt>
      <trkpt lat="47.83624" lon="6.84344">
        <ele>1000.6</ele>
        <time>2026-08-20T06:25:06.000Z</time>
      </trkpt>
      <trkpt lat="47.83628" lon="6.84352">
        <ele>999.6</ele>
        <time>2026-08-20T06:25:08.000Z</time>
      </trkpt>
      <trkpt lat="47.83633" lon="6.84361">
        <ele>998.6</ele>
        <time>2026-08-20T06:25:10.000Z</time>
      </trkpt>
      <trkpt lat="47.83641" lon="6.84371">
        <ele>997.2</ele>
        <time>2026-08-20T06:25:13.000Z</time>
      </trkpt>
      <trkpt lat="47.83646" lon="6.84376">
        <ele>996.4</ele>
        <time>2026-08-20T06:25:15.000Z</time>
      </trkpt>
      <trkpt lat="47.83649" lon="6.84378">
        <ele>996</ele>
        <time>2026-08-20T06:25:16.000Z</time>
      </trkpt>
      <trkpt lat="47.83657" lon="6.84389">
        <ele>994.8</ele>
        <time>2026-08-20T06:25:19.000Z</time>
      </trkpt>
      <trkpt lat="47.83659" lon="6.84393">
        <ele>994.4</ele>
        <time>2026-08-20T06:25:20.000Z</time>
      </trkpt>
      <trkpt lat="47.83663" lon="6.844">
        <ele>993.6</ele>
        <time>2026-08-20T06:25:22.000Z</time>
      </trkpt>
      <trkpt lat="47.83671" lon="6.84411">
        <ele>992.2</ele>
        <time>2026-08-20T06:25:25.000Z</time>
      </trkpt>
      <trkpt lat="47.83673" lon="6.84414">
        <ele>991.6</ele>
        <time>2026-08-20T06:25:26.000Z</time>
      </trkpt>
      <trkpt lat="47.83675" lon="6.84417">
        <ele>991.2</ele>
        <time>2026-08-20T06:25:27.000Z</time>
      </trkpt>
      <trkpt lat="47.8368" lon="6.84423">
        <ele>989.8</ele>
        <time>2026-08-20T06:25:30.000Z</time>
      </trkpt>
      <trkpt lat="47.83681" lon="6.84423">
        <ele>989.6</ele>
        <time>2026-08-20T06:25:31.000Z</time>
      </trkpt>
      <trkpt lat="47.83683" lon="6.84428">
        <ele>988.8</ele>
        <time>2026-08-20T06:25:36.000Z</time>
      </trkpt>
      <trkpt lat="47.83683" lon="6.8443">
        <ele>988.2</ele>
        <time>2026-08-20T06:25:38.000Z</time>
      </trkpt>
      <trkpt lat="47.83684" lon="6.84431">
        <ele>987.6</ele>
        <time>2026-08-20T06:25:40.000Z</time>
      </trkpt>
      <trkpt lat="47.83688" lon="6.84434">
        <ele>986.6</ele>
        <time>2026-08-20T06:25:46.000Z</time>
      </trkpt>
      <trkpt lat="47.83689" lon="6.84436">
        <ele>986.2</ele>
        <time>2026-08-20T06:25:48.000Z</time>
      </trkpt>
      <trkpt lat="47.83698" lon="6.84443">
        <ele>985.8</ele>
        <time>2026-08-20T06:25:56.000Z</time>
      </trkpt>
      <trkpt lat="47.83701" lon="6.84446">
        <ele>986.2</ele>
        <time>2026-08-20T06:26:03.000Z</time>
      </trkpt>
      <trkpt lat="47.83704" lon="6.84449">
        <ele>986</ele>
        <time>2026-08-20T06:26:05.000Z</time>
      </trkpt>
      <trkpt lat="47.83708" lon="6.8446">
        <ele>985.4</ele>
        <time>2026-08-20T06:26:08.000Z</time>
      </trkpt>
      <trkpt lat="47.8371" lon="6.84474">
        <ele>984.2</ele>
        <time>2026-08-20T06:26:12.000Z</time>
      </trkpt>
      <trkpt lat="47.83711" lon="6.84482">
        <ele>983.4</ele>
        <time>2026-08-20T06:26:14.000Z</time>
      </trkpt>
      <trkpt lat="47.83711" lon="6.84485">
        <ele>983</ele>
        <time>2026-08-20T06:26:15.000Z</time>
      </trkpt>
      <trkpt lat="47.83713" lon="6.84493">
        <ele>982.2</ele>
        <time>2026-08-20T06:26:17.000Z</time>
      </trkpt>
      <trkpt lat="47.83714" lon="6.84497">
        <ele>981.8</ele>
        <time>2026-08-20T06:26:18.000Z</time>
      </trkpt>
      <trkpt lat="47.83715" lon="6.845">
        <ele>981.4</ele>
        <time>2026-08-20T06:26:19.000Z</time>
      </trkpt>
      <trkpt lat="47.83717" lon="6.84504">
        <ele>981</ele>
        <time>2026-08-20T06:26:20.000Z</time>
      </trkpt>
      <trkpt lat="47.83719" lon="6.84508">
        <ele>980.8</ele>
        <time>2026-08-20T06:26:21.000Z</time>
      </trkpt>
      <trkpt lat="47.83729" lon="6.84518">
        <ele>979.6</ele>
        <time>2026-08-20T06:26:24.000Z</time>
      </trkpt>
      <trkpt lat="47.83734" lon="6.84523">
        <ele>978.8</ele>
        <time>2026-08-20T06:26:26.000Z</time>
      </trkpt>
      <trkpt lat="47.83737" lon="6.84526">
        <ele>978.4</ele>
        <time>2026-08-20T06:26:27.000Z</time>
      </trkpt>
      <trkpt lat="47.83742" lon="6.84532">
        <ele>977.4</ele>
        <time>2026-08-20T06:26:29.000Z</time>
      </trkpt>
      <trkpt lat="47.83749" lon="6.84539">
        <ele>976</ele>
        <time>2026-08-20T06:26:32.000Z</time>
      </trkpt>
      <trkpt lat="47.83756" lon="6.84548">
        <ele>975</ele>
        <time>2026-08-20T06:26:35.000Z</time>
      </trkpt>
      <trkpt lat="47.83764" lon="6.84559">
        <ele>973.8</ele>
        <time>2026-08-20T06:26:38.000Z</time>
      </trkpt>
      <trkpt lat="47.83767" lon="6.84562">
        <ele>973.4</ele>
        <time>2026-08-20T06:26:39.000Z</time>
      </trkpt>
      <trkpt lat="47.83771" lon="6.84569">
        <ele>972.6</ele>
        <time>2026-08-20T06:26:41.000Z</time>
      </trkpt>
      <trkpt lat="47.83778" lon="6.8458">
        <ele>971.4</ele>
        <time>2026-08-20T06:26:44.000Z</time>
      </trkpt>
      <trkpt lat="47.83784" lon="6.84589">
        <ele>970.4</ele>
        <time>2026-08-20T06:26:46.000Z</time>
      </trkpt>
      <trkpt lat="47.83789" lon="6.84597">
        <ele>969.2</ele>
        <time>2026-08-20T06:26:48.000Z</time>
      </trkpt>
      <trkpt lat="47.83796" lon="6.84609">
        <ele>967.8</ele>
        <time>2026-08-20T06:26:51.000Z</time>
      </trkpt>
      <trkpt lat="47.83798" lon="6.84613">
        <ele>967.2</ele>
        <time>2026-08-20T06:26:52.000Z</time>
      </trkpt>
      <trkpt lat="47.83802" lon="6.84617">
        <ele>966.4</ele>
        <time>2026-08-20T06:26:54.000Z</time>
      </trkpt>
      <trkpt lat="47.83807" lon="6.84624">
        <ele>965.2</ele>
        <time>2026-08-20T06:26:58.000Z</time>
      </trkpt>
      <trkpt lat="47.83818" lon="6.84635">
        <ele>964</ele>
        <time>2026-08-20T06:27:02.000Z</time>
      </trkpt>
      <trkpt lat="47.83825" lon="6.84642">
        <ele>962.6</ele>
        <time>2026-08-20T06:27:05.000Z</time>
      </trkpt>
      <trkpt lat="47.83827" lon="6.84644">
        <ele>962</ele>
        <time>2026-08-20T06:27:06.000Z</time>
      </trkpt>
      <trkpt lat="47.8383" lon="6.84649">
        <ele>961.4</ele>
        <time>2026-08-20T06:27:08.000Z</time>
      </trkpt>
      <trkpt lat="47.8383" lon="6.84651">
        <ele>961</ele>
        <time>2026-08-20T06:27:09.000Z</time>
      </trkpt>
      <trkpt lat="47.83827" lon="6.84653">
        <ele>960.4</ele>
        <time>2026-08-20T06:27:11.000Z</time>
      </trkpt>
      <trkpt lat="47.83821" lon="6.8465">
        <ele>959</ele>
        <time>2026-08-20T06:27:14.000Z</time>
      </trkpt>
      <trkpt lat="47.83818" lon="6.84649">
        <ele>958.6</ele>
        <time>2026-08-20T06:27:15.000Z</time>
      </trkpt>
      <trkpt lat="47.83811" lon="6.84648">
        <ele>957.8</ele>
        <time>2026-08-20T06:27:17.000Z</time>
      </trkpt>
      <trkpt lat="47.838" lon="6.84644">
        <ele>956.6</ele>
        <time>2026-08-20T06:27:20.000Z</time>
      </trkpt>
      <trkpt lat="47.83796" lon="6.84643">
        <ele>956.2</ele>
        <time>2026-08-20T06:27:21.000Z</time>
      </trkpt>
      <trkpt lat="47.8379" lon="6.8464">
        <ele>955.2</ele>
        <time>2026-08-20T06:27:23.000Z</time>
      </trkpt>
      <trkpt lat="47.83782" lon="6.84634">
        <ele>954</ele>
        <time>2026-08-20T06:27:26.000Z</time>
      </trkpt>
      <trkpt lat="47.83779" lon="6.84633">
        <ele>953.6</ele>
        <time>2026-08-20T06:27:27.000Z</time>
      </trkpt>
      <trkpt lat="47.83773" lon="6.84631">
        <ele>953</ele>
        <time>2026-08-20T06:27:29.000Z</time>
      </trkpt>
      <trkpt lat="47.83766" lon="6.84628">
        <ele>952</ele>
        <time>2026-08-20T06:27:31.000Z</time>
      </trkpt>
      <trkpt lat="47.83762" lon="6.84627">
        <ele>951.4</ele>
        <time>2026-08-20T06:27:32.000Z</time>
      </trkpt>
      <trkpt lat="47.83754" lon="6.84624">
        <ele>950.2</ele>
        <time>2026-08-20T06:27:34.000Z</time>
      </trkpt>
      <trkpt lat="47.83748" lon="6.84621">
        <ele>949.2</ele>
        <time>2026-08-20T06:27:36.000Z</time>
      </trkpt>
      <trkpt lat="47.83742" lon="6.84617">
        <ele>948.4</ele>
        <time>2026-08-20T06:27:38.000Z</time>
      </trkpt>
      <trkpt lat="47.8374" lon="6.84617">
        <ele>948</ele>
        <time>2026-08-20T06:27:39.000Z</time>
      </trkpt>
      <trkpt lat="47.83736" lon="6.84617">
        <ele>946.8</ele>
        <time>2026-08-20T06:27:42.000Z</time>
      </trkpt>
      <trkpt lat="47.83736" lon="6.84616">
        <ele>946.4</ele>
        <time>2026-08-20T06:27:43.000Z</time>
      </trkpt>
      <trkpt lat="47.83736" lon="6.84615">
        <ele>945.6</ele>
        <time>2026-08-20T06:27:45.000Z</time>
      </trkpt>
      <trkpt lat="47.83737" lon="6.84616">
        <ele>945.4</ele>
        <time>2026-08-20T06:27:50.000Z</time>
      </trkpt>
      <trkpt lat="47.83747" lon="6.84625">
        <ele>945.2</ele>
        <time>2026-08-20T06:27:56.000Z</time>
      </trkpt>
      <trkpt lat="47.83752" lon="6.84629">
        <ele>944.4</ele>
        <time>2026-08-20T06:27:58.000Z</time>
      </trkpt>
      <trkpt lat="47.83757" lon="6.84638">
        <ele>943.4</ele>
        <time>2026-08-20T06:28:01.000Z</time>
      </trkpt>
      <trkpt lat="47.83755" lon="6.84641">
        <ele>943</ele>
        <time>2026-08-20T06:28:02.000Z</time>
      </trkpt>
      <trkpt lat="47.83749" lon="6.84639">
        <ele>942.4</ele>
        <time>2026-08-20T06:28:05.000Z</time>
      </trkpt>
      <trkpt lat="47.83736" lon="6.84631">
        <ele>941.2</ele>
        <time>2026-08-20T06:28:09.000Z</time>
      </trkpt>
      <trkpt lat="47.83731" lon="6.84629">
        <ele>941</ele>
        <time>2026-08-20T06:28:10.000Z</time>
      </trkpt>
      <trkpt lat="47.83723" lon="6.84624">
        <ele>940</ele>
        <time>2026-08-20T06:28:12.000Z</time>
      </trkpt>
      <trkpt lat="47.83715" lon="6.84618">
        <ele>939</ele>
        <time>2026-08-20T06:28:14.000Z</time>
      </trkpt>
      <trkpt lat="47.83702" lon="6.84608">
        <ele>937.4</ele>
        <time>2026-08-20T06:28:17.000Z</time>
      </trkpt>
      <trkpt lat="47.8369" lon="6.84598">
        <ele>935.8</ele>
        <time>2026-08-20T06:28:20.000Z</time>
      </trkpt>
      <trkpt lat="47.83678" lon="6.84587">
        <ele>934.4</ele>
        <time>2026-08-20T06:28:23.000Z</time>
      </trkpt>
      <trkpt lat="47.83669" lon="6.84579">
        <ele>933.2</ele>
        <time>2026-08-20T06:28:25.000Z</time>
      </trkpt>
      <trkpt lat="47.83662" lon="6.84572">
        <ele>932</ele>
        <time>2026-08-20T06:28:27.000Z</time>
      </trkpt>
      <trkpt lat="47.83655" lon="6.84564">
        <ele>931</ele>
        <time>2026-08-20T06:28:29.000Z</time>
      </trkpt>
      <trkpt lat="47.83649" lon="6.84555">
        <ele>930</ele>
        <time>2026-08-20T06:28:31.000Z</time>
      </trkpt>
      <trkpt lat="47.83646" lon="6.84551">
        <ele>929.6</ele>
        <time>2026-08-20T06:28:32.000Z</time>
      </trkpt>
      <trkpt lat="47.83637" lon="6.84537">
        <ele>928.2</ele>
        <time>2026-08-20T06:28:35.000Z</time>
      </trkpt>
      <trkpt lat="47.83633" lon="6.84534">
        <ele>927.8</ele>
        <time>2026-08-20T06:28:36.000Z</time>
      </trkpt>
      <trkpt lat="47.83626" lon="6.84527">
        <ele>926.6</ele>
        <time>2026-08-20T06:28:38.000Z</time>
      </trkpt>
      <trkpt lat="47.83622" lon="6.84524">
        <ele>926.2</ele>
        <time>2026-08-20T06:28:39.000Z</time>
      </trkpt>
      <trkpt lat="47.83615" lon="6.84519">
        <ele>925.4</ele>
        <time>2026-08-20T06:28:41.000Z</time>
      </trkpt>
      <trkpt lat="47.83605" lon="6.84512">
        <ele>924.2</ele>
        <time>2026-08-20T06:28:44.000Z</time>
      </trkpt>
      <trkpt lat="47.83602" lon="6.8451">
        <ele>923.8</ele>
        <time>2026-08-20T06:28:45.000Z</time>
      </trkpt>
      <trkpt lat="47.83594" lon="6.84504">
        <ele>923</ele>
        <time>2026-08-20T06:28:47.000Z</time>
      </trkpt>
      <trkpt lat="47.83583" lon="6.84495">
        <ele>921.6</ele>
        <time>2026-08-20T06:28:50.000Z</time>
      </trkpt>
      <trkpt lat="47.83575" lon="6.84489">
        <ele>920.6</ele>
        <time>2026-08-20T06:28:52.000Z</time>
      </trkpt>
      <trkpt lat="47.83567" lon="6.84483">
        <ele>919.6</ele>
        <time>2026-08-20T06:28:54.000Z</time>
      </trkpt>
      <trkpt lat="47.83556" lon="6.84473">
        <ele>918</ele>
        <time>2026-08-20T06:28:57.000Z</time>
      </trkpt>
      <trkpt lat="47.83544" lon="6.84465">
        <ele>916.8</ele>
        <time>2026-08-20T06:29:00.000Z</time>
      </trkpt>
      <trkpt lat="47.83532" lon="6.8446">
        <ele>915.4</ele>
        <time>2026-08-20T06:29:03.000Z</time>
      </trkpt>
      <trkpt lat="47.83528" lon="6.84459">
        <ele>915.2</ele>
        <time>2026-08-20T06:29:04.000Z</time>
      </trkpt>
      <trkpt lat="47.8352" lon="6.84457">
        <ele>914.4</ele>
        <time>2026-08-20T06:29:06.000Z</time>
      </trkpt>
      <trkpt lat="47.83507" lon="6.84457">
        <ele>913</ele>
        <time>2026-08-20T06:29:09.000Z</time>
      </trkpt>
      <trkpt lat="47.835" lon="6.84457">
        <ele>912</ele>
        <time>2026-08-20T06:29:11.000Z</time>
      </trkpt>
      <trkpt lat="47.83496" lon="6.84457">
        <ele>911.6</ele>
        <time>2026-08-20T06:29:12.000Z</time>
      </trkpt>
      <trkpt lat="47.83489" lon="6.84457">
        <ele>910.6</ele>
        <time>2026-08-20T06:29:14.000Z</time>
      </trkpt>
      <trkpt lat="47.8348" lon="6.84458">
        <ele>909.6</ele>
        <time>2026-08-20T06:29:16.000Z</time>
      </trkpt>
      <trkpt lat="47.83472" lon="6.8446">
        <ele>908.4</ele>
        <time>2026-08-20T06:29:18.000Z</time>
      </trkpt>
      <trkpt lat="47.83469" lon="6.84462">
        <ele>908</ele>
        <time>2026-08-20T06:29:19.000Z</time>
      </trkpt>
      <trkpt lat="47.83467" lon="6.84465">
        <ele>907.4</ele>
        <time>2026-08-20T06:29:20.000Z</time>
      </trkpt>
      <trkpt lat="47.83465" lon="6.84468">
        <ele>907.2</ele>
        <time>2026-08-20T06:29:21.000Z</time>
      </trkpt>
      <trkpt lat="47.83464" lon="6.84471">
        <ele>907</ele>
        <time>2026-08-20T06:29:22.000Z</time>
      </trkpt>
      <trkpt lat="47.83462" lon="6.84473">
        <ele>907</ele>
        <time>2026-08-20T06:29:23.000Z</time>
      </trkpt>
      <trkpt lat="47.83461" lon="6.84472">
        <ele>907</ele>
        <time>2026-08-20T06:29:24.000Z</time>
      </trkpt>
      <trkpt lat="47.83459" lon="6.84471">
        <ele>907</ele>
        <time>2026-08-20T06:29:27.000Z</time>
      </trkpt>
      <trkpt lat="47.83458" lon="6.84471">
        <ele>907</ele>
        <time>2026-08-20T06:29:29.000Z</time>
      </trkpt>
      <trkpt lat="47.83461" lon="6.84467">
        <ele>907</ele>
        <time>2026-08-20T06:29:34.000Z</time>
      </trkpt>
      <trkpt lat="47.83462" lon="6.84468">
        <ele>906.8</ele>
        <time>2026-08-20T06:29:36.000Z</time>
      </trkpt>
      <trkpt lat="47.83466" lon="6.8447">
        <ele>906.6</ele>
        <time>2026-08-20T06:29:38.000Z</time>
      </trkpt>
      <trkpt lat="47.83475" lon="6.84476">
        <ele>906.2</ele>
        <time>2026-08-20T06:29:43.000Z</time>
      </trkpt>
      <trkpt lat="47.83478" lon="6.84476">
        <ele>906</ele>
        <time>2026-08-20T06:29:44.000Z</time>
      </trkpt>
      <trkpt lat="47.8349" lon="6.84479">
        <ele>905</ele>
        <time>2026-08-20T06:29:48.000Z</time>
      </trkpt>
      <trkpt lat="47.83503" lon="6.84483">
        <ele>903.8</ele>
        <time>2026-08-20T06:29:52.000Z</time>
      </trkpt>
      <trkpt lat="47.83514" lon="6.84488">
        <ele>902.6</ele>
        <time>2026-08-20T06:29:55.000Z</time>
      </trkpt>
      <trkpt lat="47.83521" lon="6.84492">
        <ele>901.8</ele>
        <time>2026-08-20T06:29:57.000Z</time>
      </trkpt>
      <trkpt lat="47.83526" lon="6.84495">
        <ele>901.4</ele>
        <time>2026-08-20T06:29:58.000Z</time>
      </trkpt>
      <trkpt lat="47.83539" lon="6.84507">
        <ele>900.4</ele>
        <time>2026-08-20T06:30:01.000Z</time>
      </trkpt>
      <trkpt lat="47.83543" lon="6.8451">
        <ele>900</ele>
        <time>2026-08-20T06:30:02.000Z</time>
      </trkpt>
      <trkpt lat="47.83554" lon="6.84523">
        <ele>899.2</ele>
        <time>2026-08-20T06:30:05.000Z</time>
      </trkpt>
      <trkpt lat="47.83557" lon="6.84528">
        <ele>899</ele>
        <time>2026-08-20T06:30:06.000Z</time>
      </trkpt>
      <trkpt lat="47.83564" lon="6.84537">
        <ele>898.6</ele>
        <time>2026-08-20T06:30:08.000Z</time>
      </trkpt>
      <trkpt lat="47.8357" lon="6.84546">
        <ele>898.4</ele>
        <time>2026-08-20T06:30:10.000Z</time>
      </trkpt>
      <trkpt lat="47.83573" lon="6.8455">
        <ele>898.2</ele>
        <time>2026-08-20T06:30:11.000Z</time>
      </trkpt>
      <trkpt lat="47.8359" lon="6.84571">
        <ele>897</ele>
        <time>2026-08-20T06:30:16.000Z</time>
      </trkpt>
      <trkpt lat="47.83597" lon="6.84578">
        <ele>896.6</ele>
        <time>2026-08-20T06:30:18.000Z</time>
      </trkpt>
      <trkpt lat="47.83606" lon="6.84592">
        <ele>896.2</ele>
        <time>2026-08-20T06:30:21.000Z</time>
      </trkpt>
      <trkpt lat="47.8361" lon="6.84604">
        <ele>895.8</ele>
        <time>2026-08-20T06:30:23.000Z</time>
      </trkpt>
      <trkpt lat="47.83612" lon="6.84609">
        <ele>895.6</ele>
        <time>2026-08-20T06:30:24.000Z</time>
      </trkpt>
      <trkpt lat="47.83624" lon="6.84629">
        <ele>894.8</ele>
        <time>2026-08-20T06:30:28.000Z</time>
      </trkpt>
      <trkpt lat="47.83631" lon="6.84637">
        <ele>894.4</ele>
        <time>2026-08-20T06:30:30.000Z</time>
      </trkpt>
      <trkpt lat="47.83647" lon="6.84658">
        <ele>893.8</ele>
        <time>2026-08-20T06:30:35.000Z</time>
      </trkpt>
      <trkpt lat="47.8365" lon="6.84662">
        <ele>893.8</ele>
        <time>2026-08-20T06:30:36.000Z</time>
      </trkpt>
      <trkpt lat="47.83662" lon="6.84681">
        <ele>893</ele>
        <time>2026-08-20T06:30:40.000Z</time>
      </trkpt>
      <trkpt lat="47.83668" lon="6.84691">
        <ele>892.4</ele>
        <time>2026-08-20T06:30:42.000Z</time>
      </trkpt>
      <trkpt lat="47.83681" lon="6.84711">
        <ele>891.8</ele>
        <time>2026-08-20T06:30:46.000Z</time>
      </trkpt>
      <trkpt lat="47.83691" lon="6.84723">
        <ele>891.4</ele>
        <time>2026-08-20T06:30:49.000Z</time>
      </trkpt>
      <trkpt lat="47.83706" lon="6.84741">
        <ele>890.4</ele>
        <time>2026-08-20T06:30:54.000Z</time>
      </trkpt>
      <trkpt lat="47.8371" lon="6.84745">
        <ele>890</ele>
        <time>2026-08-20T06:30:55.000Z</time>
      </trkpt>
      <trkpt lat="47.83716" lon="6.84754">
        <ele>889.8</ele>
        <time>2026-08-20T06:30:57.000Z</time>
      </trkpt>
      <trkpt lat="47.83723" lon="6.84763">
        <ele>889.4</ele>
        <time>2026-08-20T06:30:59.000Z</time>
      </trkpt>
      <trkpt lat="47.83738" lon="6.84782">
        <ele>888.4</ele>
        <time>2026-08-20T06:31:03.000Z</time>
      </trkpt>
      <trkpt lat="47.83741" lon="6.84787">
        <ele>888.2</ele>
        <time>2026-08-20T06:31:04.000Z</time>
      </trkpt>
      <trkpt lat="47.83756" lon="6.84805">
        <ele>887</ele>
        <time>2026-08-20T06:31:08.000Z</time>
      </trkpt>
      <trkpt lat="47.83767" lon="6.84817">
        <ele>886</ele>
        <time>2026-08-20T06:31:11.000Z</time>
      </trkpt>
      <trkpt lat="47.83771" lon="6.8482">
        <ele>885.6</ele>
        <time>2026-08-20T06:31:12.000Z</time>
      </trkpt>
      <trkpt lat="47.83779" lon="6.84828">
        <ele>885</ele>
        <time>2026-08-20T06:31:14.000Z</time>
      </trkpt>
      <trkpt lat="47.83782" lon="6.84832">
        <ele>884.8</ele>
        <time>2026-08-20T06:31:15.000Z</time>
      </trkpt>
      <trkpt lat="47.838" lon="6.84851">
        <ele>883.6</ele>
        <time>2026-08-20T06:31:20.000Z</time>
      </trkpt>
      <trkpt lat="47.83812" lon="6.84869">
        <ele>882.4</ele>
        <time>2026-08-20T06:31:24.000Z</time>
      </trkpt>
      <trkpt lat="47.8382" lon="6.84882">
        <ele>881.4</ele>
        <time>2026-08-20T06:31:27.000Z</time>
      </trkpt>
      <trkpt lat="47.83827" lon="6.84897">
        <ele>880.4</ele>
        <time>2026-08-20T06:31:30.000Z</time>
      </trkpt>
      <trkpt lat="47.83835" lon="6.84911">
        <ele>878.8</ele>
        <time>2026-08-20T06:31:33.000Z</time>
      </trkpt>
      <trkpt lat="47.83843" lon="6.84923">
        <ele>877.6</ele>
        <time>2026-08-20T06:31:36.000Z</time>
      </trkpt>
      <trkpt lat="47.83853" lon="6.84936">
        <ele>876.6</ele>
        <time>2026-08-20T06:31:39.000Z</time>
      </trkpt>
      <trkpt lat="47.83859" lon="6.84943">
        <ele>875.4</ele>
        <time>2026-08-20T06:31:41.000Z</time>
      </trkpt>
      <trkpt lat="47.83862" lon="6.84947">
        <ele>875</ele>
        <time>2026-08-20T06:31:42.000Z</time>
      </trkpt>
      <trkpt lat="47.83868" lon="6.84954">
        <ele>874</ele>
        <time>2026-08-20T06:31:44.000Z</time>
      </trkpt>
      <trkpt lat="47.83875" lon="6.84961">
        <ele>872.8</ele>
        <time>2026-08-20T06:31:46.000Z</time>
      </trkpt>
      <trkpt lat="47.83881" lon="6.84968">
        <ele>871.8</ele>
        <time>2026-08-20T06:31:48.000Z</time>
      </trkpt>
      <trkpt lat="47.83888" lon="6.84975">
        <ele>870.4</ele>
        <time>2026-08-20T06:31:50.000Z</time>
      </trkpt>
      <trkpt lat="47.83891" lon="6.84978">
        <ele>869.8</ele>
        <time>2026-08-20T06:31:51.000Z</time>
      </trkpt>
      <trkpt lat="47.83895" lon="6.84981">
        <ele>869</ele>
        <time>2026-08-20T06:31:52.000Z</time>
      </trkpt>
      <trkpt lat="47.83899" lon="6.84982">
        <ele>868.4</ele>
        <time>2026-08-20T06:31:53.000Z</time>
      </trkpt>
      <trkpt lat="47.83903" lon="6.84985">
        <ele>867.8</ele>
        <time>2026-08-20T06:31:54.000Z</time>
      </trkpt>
      <trkpt lat="47.83916" lon="6.84988">
        <ele>866.8</ele>
        <time>2026-08-20T06:31:57.000Z</time>
      </trkpt>
      <trkpt lat="47.8393" lon="6.84992">
        <ele>865.8</ele>
        <time>2026-08-20T06:32:00.000Z</time>
      </trkpt>
      <trkpt lat="47.83939" lon="6.84998">
        <ele>865.2</ele>
        <time>2026-08-20T06:32:02.000Z</time>
      </trkpt>
      <trkpt lat="47.83947" lon="6.85007">
        <ele>864.6</ele>
        <time>2026-08-20T06:32:04.000Z</time>
      </trkpt>
      <trkpt lat="47.83956" lon="6.85024">
        <ele>863.2</ele>
        <time>2026-08-20T06:32:07.000Z</time>
      </trkpt>
      <trkpt lat="47.83961" lon="6.85039">
        <ele>862.4</ele>
        <time>2026-08-20T06:32:09.000Z</time>
      </trkpt>
      <trkpt lat="47.83963" lon="6.85047">
        <ele>861.8</ele>
        <time>2026-08-20T06:32:10.000Z</time>
      </trkpt>
      <trkpt lat="47.83968" lon="6.85071">
        <ele>860.8</ele>
        <time>2026-08-20T06:32:13.000Z</time>
      </trkpt>
      <trkpt lat="47.83971" lon="6.85083">
        <ele>860.4</ele>
        <time>2026-08-20T06:32:15.000Z</time>
      </trkpt>
      <trkpt lat="47.83982" lon="6.85109">
        <ele>859.8</ele>
        <time>2026-08-20T06:32:20.000Z</time>
      </trkpt>
      <trkpt lat="47.83985" lon="6.85114">
        <ele>859.6</ele>
        <time>2026-08-20T06:32:21.000Z</time>
      </trkpt>
      <trkpt lat="47.83995" lon="6.85125">
        <ele>858.2</ele>
        <time>2026-08-20T06:32:24.000Z</time>
      </trkpt>
      <trkpt lat="47.84005" lon="6.85134">
        <ele>857.4</ele>
        <time>2026-08-20T06:32:27.000Z</time>
      </trkpt>
      <trkpt lat="47.84008" lon="6.85138">
        <ele>857.2</ele>
        <time>2026-08-20T06:32:28.000Z</time>
      </trkpt>
      <trkpt lat="47.8402" lon="6.85152">
        <ele>856</ele>
        <time>2026-08-20T06:32:32.000Z</time>
      </trkpt>
      <trkpt lat="47.84022" lon="6.85155">
        <ele>855.6</ele>
        <time>2026-08-20T06:32:33.000Z</time>
      </trkpt>
      <trkpt lat="47.84028" lon="6.85159">
        <ele>854.8</ele>
        <time>2026-08-20T06:32:35.000Z</time>
      </trkpt>
      <trkpt lat="47.84039" lon="6.85161">
        <ele>853.8</ele>
        <time>2026-08-20T06:32:38.000Z</time>
      </trkpt>
      <trkpt lat="47.84046" lon="6.8516">
        <ele>852.8</ele>
        <time>2026-08-20T06:32:40.000Z</time>
      </trkpt>
      <trkpt lat="47.8405" lon="6.85159">
        <ele>852.2</ele>
        <time>2026-08-20T06:32:41.000Z</time>
      </trkpt>
      <trkpt lat="47.84053" lon="6.85157">
        <ele>851.6</ele>
        <time>2026-08-20T06:32:42.000Z</time>
      </trkpt>
      <trkpt lat="47.84059" lon="6.85155">
        <ele>850.4</ele>
        <time>2026-08-20T06:32:44.000Z</time>
      </trkpt>
      <trkpt lat="47.84063" lon="6.85154">
        <ele>850</ele>
        <time>2026-08-20T06:32:45.000Z</time>
      </trkpt>
      <trkpt lat="47.84066" lon="6.85152">
        <ele>849.4</ele>
        <time>2026-08-20T06:32:46.000Z</time>
      </trkpt>
      <trkpt lat="47.84073" lon="6.8515">
        <ele>848.2</ele>
        <time>2026-08-20T06:32:48.000Z</time>
      </trkpt>
      <trkpt lat="47.84082" lon="6.85148">
        <ele>847</ele>
        <time>2026-08-20T06:32:50.000Z</time>
      </trkpt>
      <trkpt lat="47.84086" lon="6.85148">
        <ele>846.4</ele>
        <time>2026-08-20T06:32:51.000Z</time>
      </trkpt>
      <trkpt lat="47.8409" lon="6.85148">
        <ele>846</ele>
        <time>2026-08-20T06:32:52.000Z</time>
      </trkpt>
      <trkpt lat="47.84098" lon="6.85149">
        <ele>844.8</ele>
        <time>2026-08-20T06:32:54.000Z</time>
      </trkpt>
      <trkpt lat="47.84109" lon="6.85147">
        <ele>843.4</ele>
        <time>2026-08-20T06:32:57.000Z</time>
      </trkpt>
      <trkpt lat="47.84116" lon="6.85141">
        <ele>842.2</ele>
        <time>2026-08-20T06:32:59.000Z</time>
      </trkpt>
      <trkpt lat="47.84123" lon="6.85133">
        <ele>841</ele>
        <time>2026-08-20T06:33:01.000Z</time>
      </trkpt>
      <trkpt lat="47.84125" lon="6.85128">
        <ele>840.4</ele>
        <time>2026-08-20T06:33:02.000Z</time>
      </trkpt>
      <trkpt lat="47.84131" lon="6.85119">
        <ele>839.6</ele>
        <time>2026-08-20T06:33:04.000Z</time>
      </trkpt>
      <trkpt lat="47.84137" lon="6.85109">
        <ele>838.4</ele>
        <time>2026-08-20T06:33:06.000Z</time>
      </trkpt>
      <trkpt lat="47.84143" lon="6.851">
        <ele>837.2</ele>
        <time>2026-08-20T06:33:08.000Z</time>
      </trkpt>
      <trkpt lat="47.84146" lon="6.85095">
        <ele>836.4</ele>
        <time>2026-08-20T06:33:09.000Z</time>
      </trkpt>
      <trkpt lat="47.84149" lon="6.85091">
        <ele>835.8</ele>
        <time>2026-08-20T06:33:10.000Z</time>
      </trkpt>
      <trkpt lat="47.84154" lon="6.85081">
        <ele>834.4</ele>
        <time>2026-08-20T06:33:12.000Z</time>
      </trkpt>
      <trkpt lat="47.8416" lon="6.85072">
        <ele>833.4</ele>
        <time>2026-08-20T06:33:14.000Z</time>
      </trkpt>
      <trkpt lat="47.84167" lon="6.85066">
        <ele>832.4</ele>
        <time>2026-08-20T06:33:16.000Z</time>
      </trkpt>
      <trkpt lat="47.84174" lon="6.85065">
        <ele>831.4</ele>
        <time>2026-08-20T06:33:18.000Z</time>
      </trkpt>
      <trkpt lat="47.84178" lon="6.85067">
        <ele>830.8</ele>
        <time>2026-08-20T06:33:19.000Z</time>
      </trkpt>
      <trkpt lat="47.8418" lon="6.85071">
        <ele>830.4</ele>
        <time>2026-08-20T06:33:20.000Z</time>
      </trkpt>
      <trkpt lat="47.8418" lon="6.8508">
        <ele>829.8</ele>
        <time>2026-08-20T06:33:22.000Z</time>
      </trkpt>
      <trkpt lat="47.84176" lon="6.85087">
        <ele>829</ele>
        <time>2026-08-20T06:33:24.000Z</time>
      </trkpt>
      <trkpt lat="47.84175" lon="6.8509">
        <ele>828.4</ele>
        <time>2026-08-20T06:33:25.000Z</time>
      </trkpt>
      <trkpt lat="47.84173" lon="6.85094">
        <ele>827.8</ele>
        <time>2026-08-20T06:33:26.000Z</time>
      </trkpt>
      <trkpt lat="47.84171" lon="6.85098">
        <ele>827.2</ele>
        <time>2026-08-20T06:33:27.000Z</time>
      </trkpt>
      <trkpt lat="47.84167" lon="6.85108">
        <ele>825.8</ele>
        <time>2026-08-20T06:33:29.000Z</time>
      </trkpt>
      <trkpt lat="47.84164" lon="6.85118">
        <ele>824.4</ele>
        <time>2026-08-20T06:33:31.000Z</time>
      </trkpt>
      <trkpt lat="47.84162" lon="6.85129">
        <ele>823.2</ele>
        <time>2026-08-20T06:33:33.000Z</time>
      </trkpt>
      <trkpt lat="47.8416" lon="6.85141">
        <ele>822.2</ele>
        <time>2026-08-20T06:33:35.000Z</time>
      </trkpt>
      <trkpt lat="47.84158" lon="6.85152">
        <ele>821</ele>
        <time>2026-08-20T06:33:37.000Z</time>
      </trkpt>
      <trkpt lat="47.84157" lon="6.85162">
        <ele>819.8</ele>
        <time>2026-08-20T06:33:39.000Z</time>
      </trkpt>
      <trkpt lat="47.84156" lon="6.85173">
        <ele>818.8</ele>
        <time>2026-08-20T06:33:41.000Z</time>
      </trkpt>
      <trkpt lat="47.84155" lon="6.85185">
        <ele>817.6</ele>
        <time>2026-08-20T06:33:43.000Z</time>
      </trkpt>
      <trkpt lat="47.84155" lon="6.85197">
        <ele>816.6</ele>
        <time>2026-08-20T06:33:45.000Z</time>
      </trkpt>
      <trkpt lat="47.84155" lon="6.85208">
        <ele>815.4</ele>
        <time>2026-08-20T06:33:47.000Z</time>
      </trkpt>
      <trkpt lat="47.84155" lon="6.85219">
        <ele>814.2</ele>
        <time>2026-08-20T06:33:49.000Z</time>
      </trkpt>
      <trkpt lat="47.84155" lon="6.85225">
        <ele>813.4</ele>
        <time>2026-08-20T06:33:50.000Z</time>
      </trkpt>
      <trkpt lat="47.84155" lon="6.8523">
        <ele>812.8</ele>
        <time>2026-08-20T06:33:51.000Z</time>
      </trkpt>
      <trkpt lat="47.84154" lon="6.85239">
        <ele>811.8</ele>
        <time>2026-08-20T06:33:53.000Z</time>
      </trkpt>
      <trkpt lat="47.84152" lon="6.85253">
        <ele>810.6</ele>
        <time>2026-08-20T06:33:56.000Z</time>
      </trkpt>
      <trkpt lat="47.84152" lon="6.85258">
        <ele>810.2</ele>
        <time>2026-08-20T06:33:57.000Z</time>
      </trkpt>
      <trkpt lat="47.84152" lon="6.85268">
        <ele>809.4</ele>
        <time>2026-08-20T06:33:59.000Z</time>
      </trkpt>
      <trkpt lat="47.84151" lon="6.85282">
        <ele>808</ele>
        <time>2026-08-20T06:34:02.000Z</time>
      </trkpt>
      <trkpt lat="47.84151" lon="6.85287">
        <ele>807.6</ele>
        <time>2026-08-20T06:34:03.000Z</time>
      </trkpt>
      <trkpt lat="47.84152" lon="6.85292">
        <ele>807</ele>
        <time>2026-08-20T06:34:04.000Z</time>
      </trkpt>
      <trkpt lat="47.84154" lon="6.853">
        <ele>805.8</ele>
        <time>2026-08-20T06:34:06.000Z</time>
      </trkpt>
      <trkpt lat="47.84158" lon="6.85308">
        <ele>804.4</ele>
        <time>2026-08-20T06:34:09.000Z</time>
      </trkpt>
      <trkpt lat="47.84164" lon="6.85311">
        <ele>803.4</ele>
        <time>2026-08-20T06:34:12.000Z</time>
      </trkpt>
      <trkpt lat="47.84167" lon="6.85311">
        <ele>802.8</ele>
        <time>2026-08-20T06:34:14.000Z</time>
      </trkpt>
      <trkpt lat="47.84171" lon="6.85308">
        <ele>802.2</ele>
        <time>2026-08-20T06:34:16.000Z</time>
      </trkpt>
      <trkpt lat="47.84176" lon="6.85303">
        <ele>801.4</ele>
        <time>2026-08-20T06:34:18.000Z</time>
      </trkpt>
      <trkpt lat="47.84178" lon="6.853">
        <ele>801</ele>
        <time>2026-08-20T06:34:19.000Z</time>
      </trkpt>
      <trkpt lat="47.84185" lon="6.8529">
        <ele>799.8</ele>
        <time>2026-08-20T06:34:22.000Z</time>
      </trkpt>
      <trkpt lat="47.84189" lon="6.85283">
        <ele>799.2</ele>
        <time>2026-08-20T06:34:24.000Z</time>
      </trkpt>
      <trkpt lat="47.84192" lon="6.85273">
        <ele>798.6</ele>
        <time>2026-08-20T06:34:26.000Z</time>
      </trkpt>
      <trkpt lat="47.84195" lon="6.85259">
        <ele>797.2</ele>
        <time>2026-08-20T06:34:29.000Z</time>
      </trkpt>
      <trkpt lat="47.84197" lon="6.85249">
        <ele>796.4</ele>
        <time>2026-08-20T06:34:31.000Z</time>
      </trkpt>
      <trkpt lat="47.84198" lon="6.85243">
        <ele>795.8</ele>
        <time>2026-08-20T06:34:32.000Z</time>
      </trkpt>
      <trkpt lat="47.84201" lon="6.85232">
        <ele>794.6</ele>
        <time>2026-08-20T06:34:34.000Z</time>
      </trkpt>
      <trkpt lat="47.84205" lon="6.85221">
        <ele>793.6</ele>
        <time>2026-08-20T06:34:36.000Z</time>
      </trkpt>
      <trkpt lat="47.84211" lon="6.85206">
        <ele>792.2</ele>
        <time>2026-08-20T06:34:39.000Z</time>
      </trkpt>
      <trkpt lat="47.84216" lon="6.85197">
        <ele>791.2</ele>
        <time>2026-08-20T06:34:41.000Z</time>
      </trkpt>
      <trkpt lat="47.84221" lon="6.85188">
        <ele>790</ele>
        <time>2026-08-20T06:34:43.000Z</time>
      </trkpt>
      <trkpt lat="47.84227" lon="6.8518">
        <ele>788.8</ele>
        <time>2026-08-20T06:34:45.000Z</time>
      </trkpt>
      <trkpt lat="47.84234" lon="6.85175">
        <ele>787.6</ele>
        <time>2026-08-20T06:34:47.000Z</time>
      </trkpt>
      <trkpt lat="47.84242" lon="6.85171">
        <ele>786.8</ele>
        <time>2026-08-20T06:34:49.000Z</time>
      </trkpt>
      <trkpt lat="47.84247" lon="6.85169">
        <ele>786.4</ele>
        <time>2026-08-20T06:34:50.000Z</time>
      </trkpt>
      <trkpt lat="47.84255" lon="6.85166">
        <ele>785.6</ele>
        <time>2026-08-20T06:34:52.000Z</time>
      </trkpt>
      <trkpt lat="47.84259" lon="6.85164">
        <ele>785.2</ele>
        <time>2026-08-20T06:34:53.000Z</time>
      </trkpt>
      <trkpt lat="47.84276" lon="6.85152">
        <ele>784</ele>
        <time>2026-08-20T06:34:58.000Z</time>
      </trkpt>
      <trkpt lat="47.8428" lon="6.85151">
        <ele>783.8</ele>
        <time>2026-08-20T06:34:59.000Z</time>
      </trkpt>
      <trkpt lat="47.84289" lon="6.8515">
        <ele>783</ele>
        <time>2026-08-20T06:35:02.000Z</time>
      </trkpt>
      <trkpt lat="47.84296" lon="6.8515">
        <ele>782.2</ele>
        <time>2026-08-20T06:35:04.000Z</time>
      </trkpt>
      <trkpt lat="47.84299" lon="6.85149">
        <ele>781.8</ele>
        <time>2026-08-20T06:35:05.000Z</time>
      </trkpt>
      <trkpt lat="47.8431" lon="6.8515">
        <ele>780.4</ele>
        <time>2026-08-20T06:35:08.000Z</time>
      </trkpt>
      <trkpt lat="47.84322" lon="6.8515">
        <ele>778.6</ele>
        <time>2026-08-20T06:35:11.000Z</time>
      </trkpt>
      <trkpt lat="47.84331" lon="6.8515">
        <ele>777.4</ele>
        <time>2026-08-20T06:35:13.000Z</time>
      </trkpt>
      <trkpt lat="47.8434" lon="6.85149">
        <ele>776.2</ele>
        <time>2026-08-20T06:35:15.000Z</time>
      </trkpt>
      <trkpt lat="47.84349" lon="6.85148">
        <ele>775</ele>
        <time>2026-08-20T06:35:17.000Z</time>
      </trkpt>
      <trkpt lat="47.84358" lon="6.85148">
        <ele>773.8</ele>
        <time>2026-08-20T06:35:19.000Z</time>
      </trkpt>
      <trkpt lat="47.84371" lon="6.85147">
        <ele>772.4</ele>
        <time>2026-08-20T06:35:22.000Z</time>
      </trkpt>
      <trkpt lat="47.84383" lon="6.85144">
        <ele>771.2</ele>
        <time>2026-08-20T06:35:25.000Z</time>
      </trkpt>
      <trkpt lat="47.84392" lon="6.85142">
        <ele>770.2</ele>
        <time>2026-08-20T06:35:27.000Z</time>
      </trkpt>
      <trkpt lat="47.84401" lon="6.85139">
        <ele>769.2</ele>
        <time>2026-08-20T06:35:29.000Z</time>
      </trkpt>
      <trkpt lat="47.84406" lon="6.85136">
        <ele>768.6</ele>
        <time>2026-08-20T06:35:30.000Z</time>
      </trkpt>
      <trkpt lat="47.84418" lon="6.85131">
        <ele>767.2</ele>
        <time>2026-08-20T06:35:33.000Z</time>
      </trkpt>
      <trkpt lat="47.84425" lon="6.85128">
        <ele>766.2</ele>
        <time>2026-08-20T06:35:35.000Z</time>
      </trkpt>
      <trkpt lat="47.84429" lon="6.85126">
        <ele>765.8</ele>
        <time>2026-08-20T06:35:36.000Z</time>
      </trkpt>
      <trkpt lat="47.84432" lon="6.85125">
        <ele>765.2</ele>
        <time>2026-08-20T06:35:37.000Z</time>
      </trkpt>
      <trkpt lat="47.84435" lon="6.85123">
        <ele>764.6</ele>
        <time>2026-08-20T06:35:38.000Z</time>
      </trkpt>
      <trkpt lat="47.84441" lon="6.85119">
        <ele>763.6</ele>
        <time>2026-08-20T06:35:40.000Z</time>
      </trkpt>
      <trkpt lat="47.84447" lon="6.85115">
        <ele>762.6</ele>
        <time>2026-08-20T06:35:42.000Z</time>
      </trkpt>
      <trkpt lat="47.84452" lon="6.85111">
        <ele>761.4</ele>
        <time>2026-08-20T06:35:44.000Z</time>
      </trkpt>
      <trkpt lat="47.84454" lon="6.85108">
        <ele>760.8</ele>
        <time>2026-08-20T06:35:45.000Z</time>
      </trkpt>
      <trkpt lat="47.84457" lon="6.85105">
        <ele>760.4</ele>
        <time>2026-08-20T06:35:46.000Z</time>
      </trkpt>
      <trkpt lat="47.84464" lon="6.85096">
        <ele>759</ele>
        <time>2026-08-20T06:35:49.000Z</time>
      </trkpt>
      <trkpt lat="47.8447" lon="6.85085">
        <ele>757.8</ele>
        <time>2026-08-20T06:35:52.000Z</time>
      </trkpt>
      <trkpt lat="47.84471" lon="6.85082">
        <ele>757.4</ele>
        <time>2026-08-20T06:35:53.000Z</time>
      </trkpt>
      <trkpt lat="47.84474" lon="6.85073">
        <ele>756.6</ele>
        <time>2026-08-20T06:35:55.000Z</time>
      </trkpt>
      <trkpt lat="47.84476" lon="6.85057">
        <ele>755.4</ele>
        <time>2026-08-20T06:35:58.000Z</time>
      </trkpt>
      <trkpt lat="47.84478" lon="6.85041">
        <ele>754.4</ele>
        <time>2026-08-20T06:36:01.000Z</time>
      </trkpt>
      <trkpt lat="47.84479" lon="6.85027">
        <ele>753</ele>
        <time>2026-08-20T06:36:04.000Z</time>
      </trkpt>
      <trkpt lat="47.8448" lon="6.85015">
        <ele>751.8</ele>
        <time>2026-08-20T06:36:06.000Z</time>
      </trkpt>
      <trkpt lat="47.84481" lon="6.85003">
        <ele>750.8</ele>
        <time>2026-08-20T06:36:08.000Z</time>
      </trkpt>
      <trkpt lat="47.84484" lon="6.84991">
        <ele>749.6</ele>
        <time>2026-08-20T06:36:10.000Z</time>
      </trkpt>
      <trkpt lat="47.84486" lon="6.8498">
        <ele>748.2</ele>
        <time>2026-08-20T06:36:12.000Z</time>
      </trkpt>
      <trkpt lat="47.84487" lon="6.84975">
        <ele>747.8</ele>
        <time>2026-08-20T06:36:13.000Z</time>
      </trkpt>
      <trkpt lat="47.8449" lon="6.84963">
        <ele>747</ele>
        <time>2026-08-20T06:36:15.000Z</time>
      </trkpt>
      <trkpt lat="47.84494" lon="6.84944">
        <ele>745.6</ele>
        <time>2026-08-20T06:36:18.000Z</time>
      </trkpt>
      <trkpt lat="47.84495" lon="6.84931">
        <ele>744.4</ele>
        <time>2026-08-20T06:36:20.000Z</time>
      </trkpt>
      <trkpt lat="47.84497" lon="6.84914">
        <ele>743.2</ele>
        <time>2026-08-20T06:36:23.000Z</time>
      </trkpt>
      <trkpt lat="47.84496" lon="6.84896">
        <ele>741.6</ele>
        <time>2026-08-20T06:36:26.000Z</time>
      </trkpt>
      <trkpt lat="47.84496" lon="6.8489">
        <ele>741</ele>
        <time>2026-08-20T06:36:27.000Z</time>
      </trkpt>
      <trkpt lat="47.84496" lon="6.84884">
        <ele>740.4</ele>
        <time>2026-08-20T06:36:28.000Z</time>
      </trkpt>
      <trkpt lat="47.84495" lon="6.84865">
        <ele>739</ele>
        <time>2026-08-20T06:36:31.000Z</time>
      </trkpt>
      <trkpt lat="47.84493" lon="6.8484">
        <ele>737</ele>
        <time>2026-08-20T06:36:35.000Z</time>
      </trkpt>
      <trkpt lat="47.84492" lon="6.84828">
        <ele>735.4</ele>
        <time>2026-08-20T06:36:37.000Z</time>
      </trkpt>
      <trkpt lat="47.84489" lon="6.84805">
        <ele>734.2</ele>
        <time>2026-08-20T06:36:41.000Z</time>
      </trkpt>
      <trkpt lat="47.84488" lon="6.84798">
        <ele>733.8</ele>
        <time>2026-08-20T06:36:42.000Z</time>
      </trkpt>
      <trkpt lat="47.84486" lon="6.84777">
        <ele>732.8</ele>
        <time>2026-08-20T06:36:45.000Z</time>
      </trkpt>
      <trkpt lat="47.84484" lon="6.84763">
        <ele>732.4</ele>
        <time>2026-08-20T06:36:48.000Z</time>
      </trkpt>
      <trkpt lat="47.84481" lon="6.8476">
        <ele>732.2</ele>
        <time>2026-08-20T06:36:52.000Z</time>
      </trkpt>
      <trkpt lat="47.84478" lon="6.84761">
        <ele>731.8</ele>
        <time>2026-08-20T06:37:00.000Z</time>
      </trkpt>
      <trkpt lat="47.84477" lon="6.84755">
        <ele>731.8</ele>
        <time>2026-08-20T06:37:05.000Z</time>
      </trkpt>
      <trkpt lat="47.84476" lon="6.84752">
        <ele>731.8</ele>
        <time>2026-08-20T06:37:06.000Z</time>
      </trkpt>
      <trkpt lat="47.84471" lon="6.84736">
        <ele>731.2</ele>
        <time>2026-08-20T06:37:10.000Z</time>
      </trkpt>
      <trkpt lat="47.84467" lon="6.84729">
        <ele>730.6</ele>
        <time>2026-08-20T06:37:12.000Z</time>
      </trkpt>
      <trkpt lat="47.84461" lon="6.84719">
        <ele>729.4</ele>
        <time>2026-08-20T06:37:15.000Z</time>
      </trkpt>
      <trkpt lat="47.84458" lon="6.84703">
        <ele>728.2</ele>
        <time>2026-08-20T06:37:18.000Z</time>
      </trkpt>
      <trkpt lat="47.84457" lon="6.84686">
        <ele>726.8</ele>
        <time>2026-08-20T06:37:21.000Z</time>
      </trkpt>
      <trkpt lat="47.84455" lon="6.84669">
        <ele>725.4</ele>
        <time>2026-08-20T06:37:24.000Z</time>
      </trkpt>
      <trkpt lat="47.84452" lon="6.84654">
        <ele>724.2</ele>
        <time>2026-08-20T06:37:27.000Z</time>
      </trkpt>
      <trkpt lat="47.84451" lon="6.84649">
        <ele>724</ele>
        <time>2026-08-20T06:37:28.000Z</time>
      </trkpt>
      <trkpt lat="47.84448" lon="6.84639">
        <ele>723.2</ele>
        <time>2026-08-20T06:37:30.000Z</time>
      </trkpt>
      <trkpt lat="47.84444" lon="6.8463">
        <ele>722</ele>
        <time>2026-08-20T06:37:32.000Z</time>
      </trkpt>
      <trkpt lat="47.84441" lon="6.8462">
        <ele>721</ele>
        <time>2026-08-20T06:37:34.000Z</time>
      </trkpt>
      <trkpt lat="47.8444" lon="6.84615">
        <ele>720.4</ele>
        <time>2026-08-20T06:37:35.000Z</time>
      </trkpt>
      <trkpt lat="47.84439" lon="6.84605">
        <ele>719.6</ele>
        <time>2026-08-20T06:37:37.000Z</time>
      </trkpt>
      <trkpt lat="47.8444" lon="6.84591">
        <ele>718.6</ele>
        <time>2026-08-20T06:37:40.000Z</time>
      </trkpt>
      <trkpt lat="47.84441" lon="6.84586">
        <ele>718.4</ele>
        <time>2026-08-20T06:37:41.000Z</time>
      </trkpt>
      <trkpt lat="47.84445" lon="6.84576">
        <ele>717.2</ele>
        <time>2026-08-20T06:37:44.000Z</time>
      </trkpt>
      <trkpt lat="47.84449" lon="6.84569">
        <ele>716.4</ele>
        <time>2026-08-20T06:37:46.000Z</time>
      </trkpt>
      <trkpt lat="47.84453" lon="6.84569">
        <ele>716</ele>
        <time>2026-08-20T06:37:47.000Z</time>
      </trkpt>
      <trkpt lat="47.8446" lon="6.8457">
        <ele>715</ele>
        <time>2026-08-20T06:37:49.000Z</time>
      </trkpt>
      <trkpt lat="47.84466" lon="6.84572">
        <ele>713.8</ele>
        <time>2026-08-20T06:37:51.000Z</time>
      </trkpt>
      <trkpt lat="47.84473" lon="6.84571">
        <ele>712.4</ele>
        <time>2026-08-20T06:37:53.000Z</time>
      </trkpt>
      <trkpt lat="47.84481" lon="6.8457">
        <ele>711.4</ele>
        <time>2026-08-20T06:37:55.000Z</time>
      </trkpt>
      <trkpt lat="47.8449" lon="6.84569">
        <ele>710.4</ele>
        <time>2026-08-20T06:37:57.000Z</time>
      </trkpt>
      <trkpt lat="47.845" lon="6.84566">
        <ele>709</ele>
        <time>2026-08-20T06:37:59.000Z</time>
      </trkpt>
      <trkpt lat="47.84514" lon="6.84564">
        <ele>707.8</ele>
        <time>2026-08-20T06:38:02.000Z</time>
      </trkpt>
      <trkpt lat="47.84537" lon="6.84567">
        <ele>707.4</ele>
        <time>2026-08-20T06:38:07.000Z</time>
      </trkpt>
      <trkpt lat="47.84545" lon="6.84569">
        <ele>707</ele>
        <time>2026-08-20T06:38:09.000Z</time>
      </trkpt>
      <trkpt lat="47.84554" lon="6.84571">
        <ele>706.6</ele>
        <time>2026-08-20T06:38:11.000Z</time>
      </trkpt>
      <trkpt lat="47.84561" lon="6.84572">
        <ele>706.4</ele>
        <time>2026-08-20T06:38:13.000Z</time>
      </trkpt>
      <trkpt lat="47.84569" lon="6.84574">
        <ele>706.4</ele>
        <time>2026-08-20T06:38:15.000Z</time>
      </trkpt>
      <trkpt lat="47.84582" lon="6.84577">
        <ele>706</ele>
        <time>2026-08-20T06:38:18.000Z</time>
      </trkpt>
      <trkpt lat="47.846" lon="6.8458">
        <ele>705.8</ele>
        <time>2026-08-20T06:38:22.000Z</time>
      </trkpt>
      <trkpt lat="47.84607" lon="6.84582">
        <ele>705.6</ele>
        <time>2026-08-20T06:38:24.000Z</time>
      </trkpt>
      <trkpt lat="47.84612" lon="6.84582">
        <ele>705.6</ele>
        <time>2026-08-20T06:38:25.000Z</time>
      </trkpt>
      <trkpt lat="47.84628" lon="6.84584">
        <ele>705.4</ele>
        <time>2026-08-20T06:38:29.000Z</time>
      </trkpt>
      <trkpt lat="47.84633" lon="6.84586">
        <ele>705.4</ele>
        <time>2026-08-20T06:38:30.000Z</time>
      </trkpt>
      <trkpt lat="47.8465" lon="6.84595">
        <ele>705.2</ele>
        <time>2026-08-20T06:38:34.000Z</time>
      </trkpt>
      <trkpt lat="47.84654" lon="6.84597">
        <ele>705.2</ele>
        <time>2026-08-20T06:38:35.000Z</time>
      </trkpt>
      <trkpt lat="47.84669" lon="6.84608">
        <ele>705.6</ele>
        <time>2026-08-20T06:38:41.000Z</time>
      </trkpt>
      <trkpt lat="47.84669" lon="6.8461">
        <ele>705.6</ele>
        <time>2026-08-20T06:38:42.000Z</time>
      </trkpt>
      <trkpt lat="47.84665" lon="6.84608">
        <ele>705.8</ele>
        <time>2026-08-20T06:38:45.000Z</time>
      </trkpt>
      <trkpt lat="47.84663" lon="6.84604">
        <ele>705.8</ele>
        <time>2026-08-20T06:38:46.000Z</time>
      </trkpt>
      <trkpt lat="47.84659" lon="6.84598">
        <ele>705.4</ele>
        <time>2026-08-20T06:38:48.000Z</time>
      </trkpt>
      <trkpt lat="47.84657" lon="6.84597">
        <ele>705.4</ele>
        <time>2026-08-20T06:38:49.000Z</time>
      </trkpt>
      <trkpt lat="47.84655" lon="6.84606">
        <ele>704.8</ele>
        <time>2026-08-20T06:38:52.000Z</time>
      </trkpt>
      <trkpt lat="47.84656" lon="6.84609">
        <ele>704.6</ele>
        <time>2026-08-20T06:38:53.000Z</time>
      </trkpt>
      <trkpt lat="47.84664" lon="6.84621">
        <ele>703.2</ele>
        <time>2026-08-20T06:38:56.000Z</time>
      </trkpt>
      <trkpt lat="47.84671" lon="6.84633">
        <ele>701.8</ele>
        <time>2026-08-20T06:38:59.000Z</time>
      </trkpt>
      <trkpt lat="47.84679" lon="6.84645">
        <ele>700.4</ele>
        <time>2026-08-20T06:39:02.000Z</time>
      </trkpt>
      <trkpt lat="47.84681" lon="6.84648">
        <ele>700</ele>
        <time>2026-08-20T06:39:03.000Z</time>
      </trkpt>
      <trkpt lat="47.84684" lon="6.84652">
        <ele>699.4</ele>
        <time>2026-08-20T06:39:04.000Z</time>
      </trkpt>
      <trkpt lat="47.84689" lon="6.84658">
        <ele>698.4</ele>
        <time>2026-08-20T06:39:06.000Z</time>
      </trkpt>
      <trkpt lat="47.84696" lon="6.84666">
        <ele>697</ele>
        <time>2026-08-20T06:39:09.000Z</time>
      </trkpt>
      <trkpt lat="47.84697" lon="6.84668">
        <ele>696.6</ele>
        <time>2026-08-20T06:39:10.000Z</time>
      </trkpt>
      <trkpt lat="47.84701" lon="6.84672">
        <ele>695.6</ele>
        <time>2026-08-20T06:39:12.000Z</time>
      </trkpt>
      <trkpt lat="47.84708" lon="6.8468">
        <ele>694.4</ele>
        <time>2026-08-20T06:39:15.000Z</time>
      </trkpt>
      <trkpt lat="47.84712" lon="6.84685">
        <ele>693.6</ele>
        <time>2026-08-20T06:39:17.000Z</time>
      </trkpt>
      <trkpt lat="47.84715" lon="6.84688">
        <ele>693.2</ele>
        <time>2026-08-20T06:39:18.000Z</time>
      </trkpt>
      <trkpt lat="47.84724" lon="6.84694">
        <ele>691.6</ele>
        <time>2026-08-20T06:39:21.000Z</time>
      </trkpt>
      <trkpt lat="47.84731" lon="6.84696">
        <ele>690.6</ele>
        <time>2026-08-20T06:39:23.000Z</time>
      </trkpt>
      <trkpt lat="47.84735" lon="6.84697">
        <ele>690</ele>
        <time>2026-08-20T06:39:24.000Z</time>
      </trkpt>
      <trkpt lat="47.84738" lon="6.84698">
        <ele>689.4</ele>
        <time>2026-08-20T06:39:25.000Z</time>
      </trkpt>
      <trkpt lat="47.84745" lon="6.84702">
        <ele>688</ele>
        <time>2026-08-20T06:39:27.000Z</time>
      </trkpt>
      <trkpt lat="47.84752" lon="6.8471">
        <ele>686.8</ele>
        <time>2026-08-20T06:39:29.000Z</time>
      </trkpt>
      <trkpt lat="47.84758" lon="6.84719">
        <ele>685.8</ele>
        <time>2026-08-20T06:39:31.000Z</time>
      </trkpt>
      <trkpt lat="47.84761" lon="6.84726">
        <ele>685</ele>
        <time>2026-08-20T06:39:33.000Z</time>
      </trkpt>
      <trkpt lat="47.84764" lon="6.84729">
        <ele>684.6</ele>
        <time>2026-08-20T06:39:34.000Z</time>
      </trkpt>
      <trkpt lat="47.84773" lon="6.84741">
        <ele>683.2</ele>
        <time>2026-08-20T06:39:37.000Z</time>
      </trkpt>
      <trkpt lat="47.84781" lon="6.84751">
        <ele>681.8</ele>
        <time>2026-08-20T06:39:40.000Z</time>
      </trkpt>
      <trkpt lat="47.84786" lon="6.84759">
        <ele>680.4</ele>
        <time>2026-08-20T06:39:42.000Z</time>
      </trkpt>
      <trkpt lat="47.84791" lon="6.84767">
        <ele>679</ele>
        <time>2026-08-20T06:39:44.000Z</time>
      </trkpt>
      <trkpt lat="47.84795" lon="6.84775">
        <ele>677.6</ele>
        <time>2026-08-20T06:39:46.000Z</time>
      </trkpt>
      <trkpt lat="47.848" lon="6.84783">
        <ele>676.4</ele>
        <time>2026-08-20T06:39:48.000Z</time>
      </trkpt>
      <trkpt lat="47.84804" lon="6.84791">
        <ele>674.8</ele>
        <time>2026-08-20T06:39:50.000Z</time>
      </trkpt>
      <trkpt lat="47.84806" lon="6.84794">
        <ele>674</ele>
        <time>2026-08-20T06:39:51.000Z</time>
      </trkpt>
      <trkpt lat="47.84808" lon="6.84797">
        <ele>673.2</ele>
        <time>2026-08-20T06:39:52.000Z</time>
      </trkpt>
      <trkpt lat="47.8481" lon="6.84802">
        <ele>672</ele>
        <time>2026-08-20T06:39:54.000Z</time>
      </trkpt>
      <trkpt lat="47.84812" lon="6.84806">
        <ele>671</ele>
        <time>2026-08-20T06:39:56.000Z</time>
      </trkpt>
      <trkpt lat="47.84814" lon="6.84808">
        <ele>670.6</ele>
        <time>2026-08-20T06:39:57.000Z</time>
      </trkpt>
      <trkpt lat="47.84818" lon="6.84813">
        <ele>669.6</ele>
        <time>2026-08-20T06:39:59.000Z</time>
      </trkpt>
      <trkpt lat="47.84826" lon="6.8482">
        <ele>668</ele>
        <time>2026-08-20T06:40:02.000Z</time>
      </trkpt>
      <trkpt lat="47.84831" lon="6.84824">
        <ele>666.8</ele>
        <time>2026-08-20T06:40:04.000Z</time>
      </trkpt>
      <trkpt lat="47.84836" lon="6.84828">
        <ele>665.6</ele>
        <time>2026-08-20T06:40:06.000Z</time>
      </trkpt>
      <trkpt lat="47.84842" lon="6.84833">
        <ele>664.2</ele>
        <time>2026-08-20T06:40:09.000Z</time>
      </trkpt>
      <trkpt lat="47.84849" lon="6.84838">
        <ele>663</ele>
        <time>2026-08-20T06:40:12.000Z</time>
      </trkpt>
      <trkpt lat="47.84856" lon="6.84843">
        <ele>661.6</ele>
        <time>2026-08-20T06:40:15.000Z</time>
      </trkpt>
      <trkpt lat="47.84864" lon="6.84846">
        <ele>660.2</ele>
        <time>2026-08-20T06:40:18.000Z</time>
      </trkpt>
      <trkpt lat="47.8487" lon="6.84846">
        <ele>659</ele>
        <time>2026-08-20T06:40:21.000Z</time>
      </trkpt>
      <trkpt lat="47.84876" lon="6.84847">
        <ele>657.6</ele>
        <time>2026-08-20T06:40:24.000Z</time>
      </trkpt>
      <trkpt lat="47.8488" lon="6.84847">
        <ele>656.8</ele>
        <time>2026-08-20T06:40:26.000Z</time>
      </trkpt>
      <trkpt lat="47.84882" lon="6.84848">
        <ele>656.4</ele>
        <time>2026-08-20T06:40:27.000Z</time>
      </trkpt>
      <trkpt lat="47.84885" lon="6.84849">
        <ele>655.2</ele>
        <time>2026-08-20T06:40:29.000Z</time>
      </trkpt>
      <trkpt lat="47.84892" lon="6.84852">
        <ele>653.8</ele>
        <time>2026-08-20T06:40:32.000Z</time>
      </trkpt>
      <trkpt lat="47.84897" lon="6.84853">
        <ele>652.4</ele>
        <time>2026-08-20T06:40:35.000Z</time>
      </trkpt>
      <trkpt lat="47.849" lon="6.84855">
        <ele>651.2</ele>
        <time>2026-08-20T06:40:37.000Z</time>
      </trkpt>
      <trkpt lat="47.84904" lon="6.84857">
        <ele>649.8</ele>
        <time>2026-08-20T06:40:39.000Z</time>
      </trkpt>
      <trkpt lat="47.84909" lon="6.84859">
        <ele>648.8</ele>
        <time>2026-08-20T06:40:41.000Z</time>
      </trkpt>
      <trkpt lat="47.84916" lon="6.84861">
        <ele>647.4</ele>
        <time>2026-08-20T06:40:44.000Z</time>
      </trkpt>
      <trkpt lat="47.84918" lon="6.84862">
        <ele>646.8</ele>
        <time>2026-08-20T06:40:45.000Z</time>
      </trkpt>
      <trkpt lat="47.8492" lon="6.84862">
        <ele>646.2</ele>
        <time>2026-08-20T06:40:46.000Z</time>
      </trkpt>
      <trkpt lat="47.84924" lon="6.84863">
        <ele>645</ele>
        <time>2026-08-20T06:40:48.000Z</time>
      </trkpt>
      <trkpt lat="47.84927" lon="6.84864">
        <ele>643.8</ele>
        <time>2026-08-20T06:40:50.000Z</time>
      </trkpt>
      <trkpt lat="47.84927" lon="6.84864">
        <ele>643.4</ele>
        <time>2026-08-20T06:40:51.000Z</time>
      </trkpt>
      <trkpt lat="47.84928" lon="6.84864">
        <ele>643</ele>
        <time>2026-08-20T06:40:52.000Z</time>
      </trkpt>
      <trkpt lat="47.84928" lon="6.84864">
        <ele>642.8</ele>
        <time>2026-08-20T06:40:53.000Z</time>
      </trkpt>
      <trkpt lat="47.84927" lon="6.84863">
        <ele>642.6</ele>
        <time>2026-08-20T06:40:57.000Z</time>
      </trkpt>
      <trkpt lat="47.84927" lon="6.84863">
        <ele>642.2</ele>
        <time>2026-08-20T06:40:59.000Z</time>
      </trkpt>
      <trkpt lat="47.84927" lon="6.84864">
        <ele>642.2</ele>
        <time>2026-08-20T06:41:00.000Z</time>
      </trkpt>
      <trkpt lat="47.84936" lon="6.84864">
        <ele>641.4</ele>
        <time>2026-08-20T06:41:06.000Z</time>
      </trkpt>
      <trkpt lat="47.8494" lon="6.84863">
        <ele>640.4</ele>
        <time>2026-08-20T06:41:08.000Z</time>
      </trkpt>
      <trkpt lat="47.84945" lon="6.84862">
        <ele>639.2</ele>
        <time>2026-08-20T06:41:10.000Z</time>
      </trkpt>
      <trkpt lat="47.84949" lon="6.84861">
        <ele>638.2</ele>
        <time>2026-08-20T06:41:12.000Z</time>
      </trkpt>
      <trkpt lat="47.84952" lon="6.8486">
        <ele>637</ele>
        <time>2026-08-20T06:41:14.000Z</time>
      </trkpt>
      <trkpt lat="47.84956" lon="6.84858">
        <ele>636</ele>
        <time>2026-08-20T06:41:16.000Z</time>
      </trkpt>
      <trkpt lat="47.84962" lon="6.84854">
        <ele>634.6</ele>
        <time>2026-08-20T06:41:19.000Z</time>
      </trkpt>
      <trkpt lat="47.84965" lon="6.84853">
        <ele>634.2</ele>
        <time>2026-08-20T06:41:20.000Z</time>
      </trkpt>
      <trkpt lat="47.84968" lon="6.84852">
        <ele>633.2</ele>
        <time>2026-08-20T06:41:22.000Z</time>
      </trkpt>
      <trkpt lat="47.84974" lon="6.8485">
        <ele>631.6</ele>
        <time>2026-08-20T06:41:25.000Z</time>
      </trkpt>
      <trkpt lat="47.8498" lon="6.84847">
        <ele>630.4</ele>
        <time>2026-08-20T06:41:28.000Z</time>
      </trkpt>
      <trkpt lat="47.84986" lon="6.84848">
        <ele>629.2</ele>
        <time>2026-08-20T06:41:31.000Z</time>
      </trkpt>
      <trkpt lat="47.84986" lon="6.84848">
        <ele>628.8</ele>
        <time>2026-08-20T06:41:32.000Z</time>
      </trkpt>
      <trkpt lat="47.84986" lon="6.84848">
        <ele>628.2</ele>
        <time>2026-08-20T06:41:37.000Z</time>
      </trkpt>
      <trkpt lat="47.8499" lon="6.84846">
        <ele>628</ele>
        <time>2026-08-20T06:41:44.000Z</time>
      </trkpt>
      <trkpt lat="47.85" lon="6.84841">
        <ele>626.6</ele>
        <time>2026-08-20T06:41:48.000Z</time>
      </trkpt>
      <trkpt lat="47.85002" lon="6.8484">
        <ele>626.2</ele>
        <time>2026-08-20T06:41:49.000Z</time>
      </trkpt>
      <trkpt lat="47.85005" lon="6.84839">
        <ele>625.6</ele>
        <time>2026-08-20T06:41:50.000Z</time>
      </trkpt>
      <trkpt lat="47.85011" lon="6.84836">
        <ele>624.4</ele>
        <time>2026-08-20T06:41:52.000Z</time>
      </trkpt>
      <trkpt lat="47.85017" lon="6.84834">
        <ele>623.2</ele>
        <time>2026-08-20T06:41:54.000Z</time>
      </trkpt>
      <trkpt lat="47.85024" lon="6.8483">
        <ele>622</ele>
        <time>2026-08-20T06:41:57.000Z</time>
      </trkpt>
      <trkpt lat="47.85027" lon="6.84829">
        <ele>621.4</ele>
        <time>2026-08-20T06:41:58.000Z</time>
      </trkpt>
      <trkpt lat="47.85029" lon="6.84827">
        <ele>620.8</ele>
        <time>2026-08-20T06:41:59.000Z</time>
      </trkpt>
      <trkpt lat="47.85035" lon="6.84823">
        <ele>619.6</ele>
        <time>2026-08-20T06:42:01.000Z</time>
      </trkpt>
      <trkpt lat="47.85043" lon="6.84817">
        <ele>618.6</ele>
        <time>2026-08-20T06:42:04.000Z</time>
      </trkpt>
      <trkpt lat="47.85046" lon="6.84816">
        <ele>618.4</ele>
        <time>2026-08-20T06:42:05.000Z</time>
      </trkpt>
      <trkpt lat="47.85058" lon="6.84815">
        <ele>617</ele>
        <time>2026-08-20T06:42:08.000Z</time>
      </trkpt>
      <trkpt lat="47.85067" lon="6.84811">
        <ele>616</ele>
        <time>2026-08-20T06:42:10.000Z</time>
      </trkpt>
      <trkpt lat="47.85078" lon="6.84796">
        <ele>614.6</ele>
        <time>2026-08-20T06:42:13.000Z</time>
      </trkpt>
      <trkpt lat="47.85082" lon="6.84789">
        <ele>614.4</ele>
        <time>2026-08-20T06:42:14.000Z</time>
      </trkpt>
      <trkpt lat="47.85089" lon="6.84774">
        <ele>613.4</ele>
        <time>2026-08-20T06:42:16.000Z</time>
      </trkpt>
      <trkpt lat="47.85098" lon="6.8476">
        <ele>612.6</ele>
        <time>2026-08-20T06:42:18.000Z</time>
      </trkpt>
      <trkpt lat="47.85104" lon="6.84753">
        <ele>611.8</ele>
        <time>2026-08-20T06:42:19.000Z</time>
      </trkpt>
      <trkpt lat="47.85116" lon="6.84742">
        <ele>610.8</ele>
        <time>2026-08-20T06:42:21.000Z</time>
      </trkpt>
      <trkpt lat="47.85127" lon="6.84731">
        <ele>609</ele>
        <time>2026-08-20T06:42:23.000Z</time>
      </trkpt>
      <trkpt lat="47.85137" lon="6.8472">
        <ele>608.4</ele>
        <time>2026-08-20T06:42:25.000Z</time>
      </trkpt>
      <trkpt lat="47.85149" lon="6.84708">
        <ele>608.2</ele>
        <time>2026-08-20T06:42:28.000Z</time>
      </trkpt>
      <trkpt lat="47.85155" lon="6.84701">
        <ele>608.4</ele>
        <time>2026-08-20T06:42:30.000Z</time>
      </trkpt>
      <trkpt lat="47.85164" lon="6.84686">
        <ele>608</ele>
        <time>2026-08-20T06:42:33.000Z</time>
      </trkpt>
      <trkpt lat="47.85167" lon="6.8468">
        <ele>607.8</ele>
        <time>2026-08-20T06:42:34.000Z</time>
      </trkpt>
      <trkpt lat="47.85175" lon="6.84657">
        <ele>606.6</ele>
        <time>2026-08-20T06:42:37.000Z</time>
      </trkpt>
      <trkpt lat="47.8518" lon="6.84633">
        <ele>605.2</ele>
        <time>2026-08-20T06:42:40.000Z</time>
      </trkpt>
      <trkpt lat="47.85183" lon="6.84611">
        <ele>604.2</ele>
        <time>2026-08-20T06:42:43.000Z</time>
      </trkpt>
      <trkpt lat="47.85186" lon="6.84604">
        <ele>603.8</ele>
        <time>2026-08-20T06:42:44.000Z</time>
      </trkpt>
      <trkpt lat="47.8519" lon="6.84599">
        <ele>603.4</ele>
        <time>2026-08-20T06:42:45.000Z</time>
      </trkpt>
      <trkpt lat="47.852" lon="6.84593">
        <ele>602.6</ele>
        <time>2026-08-20T06:42:47.000Z</time>
      </trkpt>
      <trkpt lat="47.85205" lon="6.84592">
        <ele>602.4</ele>
        <time>2026-08-20T06:42:48.000Z</time>
      </trkpt>
      <trkpt lat="47.85211" lon="6.84593">
        <ele>602.2</ele>
        <time>2026-08-20T06:42:49.000Z</time>
      </trkpt>
      <trkpt lat="47.85231" lon="6.84593">
        <ele>603</ele>
        <time>2026-08-20T06:42:53.000Z</time>
      </trkpt>
      <trkpt lat="47.8524" lon="6.84593">
        <ele>603.8</ele>
        <time>2026-08-20T06:42:55.000Z</time>
      </trkpt>
      <trkpt lat="47.85245" lon="6.84593">
        <ele>604</ele>
        <time>2026-08-20T06:42:56.000Z</time>
      </trkpt>
      <trkpt lat="47.85263" lon="6.84592">
        <ele>603.8</ele>
        <time>2026-08-20T06:43:00.000Z</time>
      </trkpt>
      <trkpt lat="47.85273" lon="6.8459">
        <ele>603.8</ele>
        <time>2026-08-20T06:43:02.000Z</time>
      </trkpt>
      <trkpt lat="47.85278" lon="6.8459">
        <ele>603.8</ele>
        <time>2026-08-20T06:43:03.000Z</time>
      </trkpt>
      <trkpt lat="47.85299" lon="6.84586">
        <ele>604.6</ele>
        <time>2026-08-20T06:43:08.000Z</time>
      </trkpt>
      <trkpt lat="47.85303" lon="6.84586">
        <ele>604.6</ele>
        <time>2026-08-20T06:43:09.000Z</time>
      </trkpt>
      <trkpt lat="47.85307" lon="6.84588">
        <ele>604.6</ele>
        <time>2026-08-20T06:43:10.000Z</time>
      </trkpt>
      <trkpt lat="47.8531" lon="6.84592">
        <ele>604.4</ele>
        <time>2026-08-20T06:43:11.000Z</time>
      </trkpt>
      <trkpt lat="47.85316" lon="6.84602">
        <ele>604.4</ele>
        <time>2026-08-20T06:43:13.000Z</time>
      </trkpt>
      <trkpt lat="47.85318" lon="6.84608">
        <ele>604.4</ele>
        <time>2026-08-20T06:43:14.000Z</time>
      </trkpt>
      <trkpt lat="47.85326" lon="6.84625">
        <ele>604.8</ele>
        <time>2026-08-20T06:43:17.000Z</time>
      </trkpt>
      <trkpt lat="47.85331" lon="6.84636">
        <ele>605.2</ele>
        <time>2026-08-20T06:43:19.000Z</time>
      </trkpt>
      <trkpt lat="47.85338" lon="6.84652">
        <ele>605.6</ele>
        <time>2026-08-20T06:43:22.000Z</time>
      </trkpt>
      <trkpt lat="47.8534" lon="6.84657">
        <ele>605.8</ele>
        <time>2026-08-20T06:43:23.000Z</time>
      </trkpt>
      <trkpt lat="47.85352" lon="6.84674">
        <ele>606.6</ele>
        <time>2026-08-20T06:43:27.000Z</time>
      </trkpt>
      <trkpt lat="47.85355" lon="6.84678">
        <ele>606.8</ele>
        <time>2026-08-20T06:43:28.000Z</time>
      </trkpt>
      <trkpt lat="47.85358" lon="6.84682">
        <ele>607</ele>
        <time>2026-08-20T06:43:29.000Z</time>
      </trkpt>
      <trkpt lat="47.85369" lon="6.84695">
        <ele>608</ele>
        <time>2026-08-20T06:43:33.000Z</time>
      </trkpt>
      <trkpt lat="47.85375" lon="6.84702">
        <ele>608.6</ele>
        <time>2026-08-20T06:43:35.000Z</time>
      </trkpt>
      <trkpt lat="47.85377" lon="6.84706">
        <ele>608.8</ele>
        <time>2026-08-20T06:43:36.000Z</time>
      </trkpt>
      <trkpt lat="47.8538" lon="6.8471">
        <ele>609</ele>
        <time>2026-08-20T06:43:37.000Z</time>
      </trkpt>
      <trkpt lat="47.85382" lon="6.84715">
        <ele>609.2</ele>
        <time>2026-08-20T06:43:38.000Z</time>
      </trkpt>
      <trkpt lat="47.85395" lon="6.84734">
        <ele>610.2</ele>
        <time>2026-08-20T06:43:43.000Z</time>
      </trkpt>
      <trkpt lat="47.85398" lon="6.84739">
        <ele>610.4</ele>
        <time>2026-08-20T06:43:44.000Z</time>
      </trkpt>
      <trkpt lat="47.85407" lon="6.8475">
        <ele>611.4</ele>
        <time>2026-08-20T06:43:47.000Z</time>
      </trkpt>
      <trkpt lat="47.85419" lon="6.84765">
        <ele>612.6</ele>
        <time>2026-08-20T06:43:51.000Z</time>
      </trkpt>
      <trkpt lat="47.85424" lon="6.84772">
        <ele>613</ele>
        <time>2026-08-20T06:43:53.000Z</time>
      </trkpt>
      <trkpt lat="47.8543" lon="6.84778">
        <ele>613.6</ele>
        <time>2026-08-20T06:43:55.000Z</time>
      </trkpt>
      <trkpt lat="47.85442" lon="6.8479">
        <ele>614.8</ele>
        <time>2026-08-20T06:43:59.000Z</time>
      </trkpt>
      <trkpt lat="47.85445" lon="6.84794">
        <ele>615</ele>
        <time>2026-08-20T06:44:00.000Z</time>
      </trkpt>
      <trkpt lat="47.8546" lon="6.84811">
        <ele>615.8</ele>
        <time>2026-08-20T06:44:05.000Z</time>
      </trkpt>
      <trkpt lat="47.85471" lon="6.84822">
        <ele>616.6</ele>
        <time>2026-08-20T06:44:09.000Z</time>
      </trkpt>
      <trkpt lat="47.85474" lon="6.84825">
        <ele>617</ele>
        <time>2026-08-20T06:44:10.000Z</time>
      </trkpt>
      <trkpt lat="47.85484" lon="6.84836">
        <ele>618.2</ele>
        <time>2026-08-20T06:44:14.000Z</time>
      </trkpt>
      <trkpt lat="47.85493" lon="6.84847">
        <ele>619.4</ele>
        <time>2026-08-20T06:44:18.000Z</time>
      </trkpt>
      <trkpt lat="47.85506" lon="6.84859">
        <ele>620.6</ele>
        <time>2026-08-20T06:44:23.000Z</time>
      </trkpt>
      <trkpt lat="47.85513" lon="6.84866">
        <ele>621.4</ele>
        <time>2026-08-20T06:44:26.000Z</time>
      </trkpt>
      <trkpt lat="47.85515" lon="6.84868">
        <ele>621.8</ele>
        <time>2026-08-20T06:44:27.000Z</time>
      </trkpt>
      <trkpt lat="47.85524" lon="6.84875">
        <ele>623</ele>
        <time>2026-08-20T06:44:31.000Z</time>
      </trkpt>
      <trkpt lat="47.85533" lon="6.84883">
        <ele>624.2</ele>
        <time>2026-08-20T06:44:35.000Z</time>
      </trkpt>
      <trkpt lat="47.85543" lon="6.84893">
        <ele>625.4</ele>
        <time>2026-08-20T06:44:40.000Z</time>
      </trkpt>
      <trkpt lat="47.85548" lon="6.849">
        <ele>626.4</ele>
        <time>2026-08-20T06:44:43.000Z</time>
      </trkpt>
      <trkpt lat="47.8555" lon="6.84902">
        <ele>626.6</ele>
        <time>2026-08-20T06:44:44.000Z</time>
      </trkpt>
      <trkpt lat="47.85559" lon="6.84911">
        <ele>627.8</ele>
        <time>2026-08-20T06:44:48.000Z</time>
      </trkpt>
      <trkpt lat="47.85565" lon="6.84919">
        <ele>629</ele>
        <time>2026-08-20T06:44:52.000Z</time>
      </trkpt>
      <trkpt lat="47.85572" lon="6.84926">
        <ele>630.2</ele>
        <time>2026-08-20T06:44:56.000Z</time>
      </trkpt>
      <trkpt lat="47.8558" lon="6.84935">
        <ele>631</ele>
        <time>2026-08-20T06:45:00.000Z</time>
      </trkpt>
      <trkpt lat="47.85583" lon="6.84937">
        <ele>631.2</ele>
        <time>2026-08-20T06:45:01.000Z</time>
      </trkpt>
      <trkpt lat="47.85593" lon="6.84948">
        <ele>632.4</ele>
        <time>2026-08-20T06:45:07.000Z</time>
      </trkpt>
      <trkpt lat="47.85598" lon="6.84957">
        <ele>633.6</ele>
        <time>2026-08-20T06:45:11.000Z</time>
      </trkpt>
      <trkpt lat="47.85605" lon="6.84963">
        <ele>635</ele>
        <time>2026-08-20T06:45:15.000Z</time>
      </trkpt>
      <trkpt lat="47.85615" lon="6.84971">
        <ele>636.2</ele>
        <time>2026-08-20T06:45:20.000Z</time>
      </trkpt>
      <trkpt lat="47.8562" lon="6.84977">
        <ele>637</ele>
        <time>2026-08-20T06:45:23.000Z</time>
      </trkpt>
      <trkpt lat="47.85623" lon="6.8498">
        <ele>637.2</ele>
        <time>2026-08-20T06:45:24.000Z</time>
      </trkpt>
      <trkpt lat="47.85629" lon="6.84989">
        <ele>638.4</ele>
        <time>2026-08-20T06:45:28.000Z</time>
      </trkpt>
      <trkpt lat="47.85637" lon="6.84998">
        <ele>639.4</ele>
        <time>2026-08-20T06:45:32.000Z</time>
      </trkpt>
      <trkpt lat="47.85645" lon="6.8501">
        <ele>640.8</ele>
        <time>2026-08-20T06:45:37.000Z</time>
      </trkpt>
      <trkpt lat="47.85649" lon="6.85018">
        <ele>641.8</ele>
        <time>2026-08-20T06:45:40.000Z</time>
      </trkpt>
      <trkpt lat="47.85651" lon="6.85021">
        <ele>642</ele>
        <time>2026-08-20T06:45:41.000Z</time>
      </trkpt>
      <trkpt lat="47.85657" lon="6.85032">
        <ele>643</ele>
        <time>2026-08-20T06:45:45.000Z</time>
      </trkpt>
      <trkpt lat="47.85662" lon="6.85039">
        <ele>643.6</ele>
        <time>2026-08-20T06:45:48.000Z</time>
      </trkpt>
      <trkpt lat="47.85665" lon="6.85045">
        <ele>644.2</ele>
        <time>2026-08-20T06:45:50.000Z</time>
      </trkpt>
      <trkpt lat="47.85672" lon="6.85056">
        <ele>645.4</ele>
        <time>2026-08-20T06:45:55.000Z</time>
      </trkpt>
      <trkpt lat="47.85675" lon="6.8506">
        <ele>646.2</ele>
        <time>2026-08-20T06:45:57.000Z</time>
      </trkpt>
      <trkpt lat="47.85678" lon="6.85065">
        <ele>646.8</ele>
        <time>2026-08-20T06:45:59.000Z</time>
      </trkpt>
      <trkpt lat="47.85684" lon="6.85077">
        <ele>647.8</ele>
        <time>2026-08-20T06:46:04.000Z</time>
      </trkpt>
      <trkpt lat="47.8569" lon="6.85087">
        <ele>649</ele>
        <time>2026-08-20T06:46:08.000Z</time>
      </trkpt>
      <trkpt lat="47.85695" lon="6.85098">
        <ele>650</ele>
        <time>2026-08-20T06:46:12.000Z</time>
      </trkpt>
      <trkpt lat="47.85697" lon="6.85101">
        <ele>650.2</ele>
        <time>2026-08-20T06:46:13.000Z</time>
      </trkpt>
      <trkpt lat="47.85703" lon="6.85111">
        <ele>651.2</ele>
        <time>2026-08-20T06:46:17.000Z</time>
      </trkpt>
      <trkpt lat="47.85709" lon="6.85125">
        <ele>652.4</ele>
        <time>2026-08-20T06:46:22.000Z</time>
      </trkpt>
      <trkpt lat="47.8571" lon="6.85127">
        <ele>652.6</ele>
        <time>2026-08-20T06:46:23.000Z</time>
      </trkpt>
      <trkpt lat="47.85714" lon="6.85136">
        <ele>653.6</ele>
        <time>2026-08-20T06:46:26.000Z</time>
      </trkpt>
      <trkpt lat="47.85718" lon="6.85148">
        <ele>654.6</ele>
        <time>2026-08-20T06:46:30.000Z</time>
      </trkpt>
      <trkpt lat="47.8572" lon="6.85153">
        <ele>655.2</ele>
        <time>2026-08-20T06:46:32.000Z</time>
      </trkpt>
      <trkpt lat="47.85722" lon="6.8516">
        <ele>655.8</ele>
        <time>2026-08-20T06:46:34.000Z</time>
      </trkpt>
      <trkpt lat="47.85727" lon="6.85174">
        <ele>657</ele>
        <time>2026-08-20T06:46:39.000Z</time>
      </trkpt>
      <trkpt lat="47.85729" lon="6.8518">
        <ele>657.6</ele>
        <time>2026-08-20T06:46:41.000Z</time>
      </trkpt>
      <trkpt lat="47.8573" lon="6.85187">
        <ele>658.2</ele>
        <time>2026-08-20T06:46:43.000Z</time>
      </trkpt>
      <trkpt lat="47.85734" lon="6.85199">
        <ele>659.2</ele>
        <time>2026-08-20T06:46:47.000Z</time>
      </trkpt>
      <trkpt lat="47.85736" lon="6.85206">
        <ele>659.8</ele>
        <time>2026-08-20T06:46:49.000Z</time>
      </trkpt>
      <trkpt lat="47.85739" lon="6.85217">
        <ele>660.4</ele>
        <time>2026-08-20T06:46:52.000Z</time>
      </trkpt>
      <trkpt lat="47.85742" lon="6.8523">
        <ele>661.4</ele>
        <time>2026-08-20T06:46:56.000Z</time>
      </trkpt>
      <trkpt lat="47.85745" lon="6.8524">
        <ele>662.2</ele>
        <time>2026-08-20T06:46:59.000Z</time>
      </trkpt>
      <trkpt lat="47.85748" lon="6.85247">
        <ele>662.6</ele>
        <time>2026-08-20T06:47:01.000Z</time>
      </trkpt>
      <trkpt lat="47.85754" lon="6.85262">
        <ele>663.8</ele>
        <time>2026-08-20T06:47:06.000Z</time>
      </trkpt>
      <trkpt lat="47.85758" lon="6.85271">
        <ele>664.4</ele>
        <time>2026-08-20T06:47:09.000Z</time>
      </trkpt>
      <trkpt lat="47.8576" lon="6.85275">
        <ele>664.8</ele>
        <time>2026-08-20T06:47:10.000Z</time>
      </trkpt>
      <trkpt lat="47.85765" lon="6.85286">
        <ele>665.8</ele>
        <time>2026-08-20T06:47:14.000Z</time>
      </trkpt>
      <trkpt lat="47.85769" lon="6.85294">
        <ele>666.6</ele>
        <time>2026-08-20T06:47:17.000Z</time>
      </trkpt>
      <trkpt lat="47.8577" lon="6.85297">
        <ele>666.8</ele>
        <time>2026-08-20T06:47:18.000Z</time>
      </trkpt>
      <trkpt lat="47.85775" lon="6.85308">
        <ele>668</ele>
        <time>2026-08-20T06:47:22.000Z</time>
      </trkpt>
      <trkpt lat="47.85781" lon="6.85321">
        <ele>669.2</ele>
        <time>2026-08-20T06:47:27.000Z</time>
      </trkpt>
      <trkpt lat="47.85783" lon="6.85334">
        <ele>670.2</ele>
        <time>2026-08-20T06:47:31.000Z</time>
      </trkpt>
      <trkpt lat="47.85783" lon="6.85341">
        <ele>670.8</ele>
        <time>2026-08-20T06:47:33.000Z</time>
      </trkpt>
      <trkpt lat="47.85783" lon="6.85351">
        <ele>671.4</ele>
        <time>2026-08-20T06:47:36.000Z</time>
      </trkpt>
      <trkpt lat="47.85783" lon="6.85364">
        <ele>672.6</ele>
        <time>2026-08-20T06:47:40.000Z</time>
      </trkpt>
      <trkpt lat="47.85781" lon="6.85379">
        <ele>673.8</ele>
        <time>2026-08-20T06:47:45.000Z</time>
      </trkpt>
      <trkpt lat="47.8578" lon="6.85382">
        <ele>674.2</ele>
        <time>2026-08-20T06:47:46.000Z</time>
      </trkpt>
      <trkpt lat="47.85775" lon="6.85394">
        <ele>675</ele>
        <time>2026-08-20T06:47:50.000Z</time>
      </trkpt>
      <trkpt lat="47.85773" lon="6.85403">
        <ele>675.8</ele>
        <time>2026-08-20T06:47:53.000Z</time>
      </trkpt>
      <trkpt lat="47.85773" lon="6.85406">
        <ele>676.2</ele>
        <time>2026-08-20T06:47:54.000Z</time>
      </trkpt>
      <trkpt lat="47.85772" lon="6.85414">
        <ele>677.4</ele>
        <time>2026-08-20T06:47:57.000Z</time>
      </trkpt>
      <trkpt lat="47.85769" lon="6.85427">
        <ele>678.6</ele>
        <time>2026-08-20T06:48:01.000Z</time>
      </trkpt>
      <trkpt lat="47.85767" lon="6.85428">
        <ele>678.8</ele>
        <time>2026-08-20T06:48:02.000Z</time>
      </trkpt>
      <trkpt lat="47.85762" lon="6.85429">
        <ele>679.2</ele>
        <time>2026-08-20T06:48:04.000Z</time>
      </trkpt>
      <trkpt lat="47.85759" lon="6.85424">
        <ele>679.6</ele>
        <time>2026-08-20T06:48:06.000Z</time>
      </trkpt>
      <trkpt lat="47.85758" lon="6.85406">
        <ele>680.4</ele>
        <time>2026-08-20T06:48:11.000Z</time>
      </trkpt>
      <trkpt lat="47.85757" lon="6.85402">
        <ele>680.6</ele>
        <time>2026-08-20T06:48:12.000Z</time>
      </trkpt>
      <trkpt lat="47.85757" lon="6.85389">
        <ele>681.8</ele>
        <time>2026-08-20T06:48:16.000Z</time>
      </trkpt>
      <trkpt lat="47.85756" lon="6.85376">
        <ele>683</ele>
        <time>2026-08-20T06:48:20.000Z</time>
      </trkpt>
      <trkpt lat="47.85755" lon="6.85372">
        <ele>683.4</ele>
        <time>2026-08-20T06:48:21.000Z</time>
      </trkpt>
      <trkpt lat="47.85753" lon="6.85364">
        <ele>684.2</ele>
        <time>2026-08-20T06:48:24.000Z</time>
      </trkpt>
      <trkpt lat="47.85749" lon="6.85354">
        <ele>685.2</ele>
        <time>2026-08-20T06:48:28.000Z</time>
      </trkpt>
      <trkpt lat="47.85747" lon="6.85352">
        <ele>685.4</ele>
        <time>2026-08-20T06:48:29.000Z</time>
      </trkpt>
      <trkpt lat="47.85739" lon="6.85344">
        <ele>686.6</ele>
        <time>2026-08-20T06:48:33.000Z</time>
      </trkpt>
      <trkpt lat="47.85736" lon="6.8534">
        <ele>687</ele>
        <time>2026-08-20T06:48:35.000Z</time>
      </trkpt>
      <trkpt lat="47.85729" lon="6.85331">
        <ele>687.8</ele>
        <time>2026-08-20T06:48:39.000Z</time>
      </trkpt>
      <trkpt lat="47.85722" lon="6.85323">
        <ele>688.8</ele>
        <time>2026-08-20T06:48:43.000Z</time>
      </trkpt>
      <trkpt lat="47.8572" lon="6.85321">
        <ele>689</ele>
        <time>2026-08-20T06:48:44.000Z</time>
      </trkpt>
      <trkpt lat="47.85711" lon="6.85309">
        <ele>690.2</ele>
        <time>2026-08-20T06:48:49.000Z</time>
      </trkpt>
      <trkpt lat="47.85709" lon="6.85307">
        <ele>690.4</ele>
        <time>2026-08-20T06:48:50.000Z</time>
      </trkpt>
      <trkpt lat="47.85701" lon="6.85299">
        <ele>691.4</ele>
        <time>2026-08-20T06:48:54.000Z</time>
      </trkpt>
      <trkpt lat="47.85695" lon="6.85292">
        <ele>692</ele>
        <time>2026-08-20T06:48:57.000Z</time>
      </trkpt>
      <trkpt lat="47.85691" lon="6.85288">
        <ele>692.6</ele>
        <time>2026-08-20T06:48:59.000Z</time>
      </trkpt>
      <trkpt lat="47.85684" lon="6.85279">
        <ele>693.6</ele>
        <time>2026-08-20T06:49:03.000Z</time>
      </trkpt>
      <trkpt lat="47.85679" lon="6.85273">
        <ele>694.4</ele>
        <time>2026-08-20T06:49:06.000Z</time>
      </trkpt>
      <trkpt lat="47.85678" lon="6.85271">
        <ele>694.8</ele>
        <time>2026-08-20T06:49:07.000Z</time>
      </trkpt>
      <trkpt lat="47.8567" lon="6.85259">
        <ele>696</ele>
        <time>2026-08-20T06:49:12.000Z</time>
      </trkpt>
      <trkpt lat="47.85666" lon="6.85253">
        <ele>696.8</ele>
        <time>2026-08-20T06:49:15.000Z</time>
      </trkpt>
      <trkpt lat="47.85664" lon="6.85251">
        <ele>697</ele>
        <time>2026-08-20T06:49:16.000Z</time>
      </trkpt>
      <trkpt lat="47.85658" lon="6.85241">
        <ele>698.2</ele>
        <time>2026-08-20T06:49:20.000Z</time>
      </trkpt>
      <trkpt lat="47.85652" lon="6.85232">
        <ele>699.2</ele>
        <time>2026-08-20T06:49:24.000Z</time>
      </trkpt>
      <trkpt lat="47.8565" lon="6.85226">
        <ele>699.8</ele>
        <time>2026-08-20T06:49:26.000Z</time>
      </trkpt>
      <trkpt lat="47.85648" lon="6.85221">
        <ele>700.4</ele>
        <time>2026-08-20T06:49:28.000Z</time>
      </trkpt>
      <trkpt lat="47.85642" lon="6.85211">
        <ele>701.4</ele>
        <time>2026-08-20T06:49:32.000Z</time>
      </trkpt>
      <trkpt lat="47.85639" lon="6.85207">
        <ele>702</ele>
        <time>2026-08-20T06:49:34.000Z</time>
      </trkpt>
      <trkpt lat="47.85636" lon="6.85203">
        <ele>702.4</ele>
        <time>2026-08-20T06:49:36.000Z</time>
      </trkpt>
      <trkpt lat="47.85625" lon="6.85193">
        <ele>703.6</ele>
        <time>2026-08-20T06:49:41.000Z</time>
      </trkpt>
      <trkpt lat="47.85617" lon="6.85186">
        <ele>704.6</ele>
        <time>2026-08-20T06:49:45.000Z</time>
      </trkpt>
      <trkpt lat="47.85611" lon="6.85178">
        <ele>705.6</ele>
        <time>2026-08-20T06:49:49.000Z</time>
      </trkpt>
      <trkpt lat="47.85609" lon="6.85176">
        <ele>705.8</ele>
        <time>2026-08-20T06:49:50.000Z</time>
      </trkpt>
      <trkpt lat="47.85603" lon="6.85171">
        <ele>706.4</ele>
        <time>2026-08-20T06:49:53.000Z</time>
      </trkpt>
      <trkpt lat="47.85601" lon="6.8517">
        <ele>706.8</ele>
        <time>2026-08-20T06:49:54.000Z</time>
      </trkpt>
      <trkpt lat="47.85594" lon="6.85162">
        <ele>707.8</ele>
        <time>2026-08-20T06:49:59.000Z</time>
      </trkpt>
      <trkpt lat="47.85591" lon="6.85159">
        <ele>708.4</ele>
        <time>2026-08-20T06:50:01.000Z</time>
      </trkpt>
      <trkpt lat="47.85585" lon="6.85156">
        <ele>708.8</ele>
        <time>2026-08-20T06:50:04.000Z</time>
      </trkpt>
      <trkpt lat="47.85573" lon="6.85149">
        <ele>709.8</ele>
        <time>2026-08-20T06:50:10.000Z</time>
      </trkpt>
      <trkpt lat="47.85563" lon="6.85145">
        <ele>711.2</ele>
        <time>2026-08-20T06:50:15.000Z</time>
      </trkpt>
      <trkpt lat="47.85555" lon="6.85142">
        <ele>712</ele>
        <time>2026-08-20T06:50:19.000Z</time>
      </trkpt>
      <trkpt lat="47.85553" lon="6.85141">
        <ele>712.2</ele>
        <time>2026-08-20T06:50:20.000Z</time>
      </trkpt>
      <trkpt lat="47.85541" lon="6.85138">
        <ele>713.4</ele>
        <time>2026-08-20T06:50:26.000Z</time>
      </trkpt>
      <trkpt lat="47.85539" lon="6.85137">
        <ele>713.6</ele>
        <time>2026-08-20T06:50:27.000Z</time>
      </trkpt>
      <trkpt lat="47.8553" lon="6.85137">
        <ele>714.4</ele>
        <time>2026-08-20T06:50:31.000Z</time>
      </trkpt>
      <trkpt lat="47.85524" lon="6.85134">
        <ele>715</ele>
        <time>2026-08-20T06:50:34.000Z</time>
      </trkpt>
      <trkpt lat="47.8552" lon="6.85133">
        <ele>715.6</ele>
        <time>2026-08-20T06:50:36.000Z</time>
      </trkpt>
      <trkpt lat="47.85511" lon="6.85131">
        <ele>716.6</ele>
        <time>2026-08-20T06:50:40.000Z</time>
      </trkpt>
      <trkpt lat="47.85505" lon="6.85128">
        <ele>717.4</ele>
        <time>2026-08-20T06:50:43.000Z</time>
      </trkpt>
      <trkpt lat="47.85503" lon="6.85127">
        <ele>717.6</ele>
        <time>2026-08-20T06:50:44.000Z</time>
      </trkpt>
      <trkpt lat="47.85497" lon="6.85125">
        <ele>718.4</ele>
        <time>2026-08-20T06:50:47.000Z</time>
      </trkpt>
      <trkpt lat="47.85494" lon="6.85124">
        <ele>718.8</ele>
        <time>2026-08-20T06:50:49.000Z</time>
      </trkpt>
      <trkpt lat="47.8549" lon="6.85122">
        <ele>719.2</ele>
        <time>2026-08-20T06:50:51.000Z</time>
      </trkpt>
      <trkpt lat="47.85483" lon="6.85119">
        <ele>720</ele>
        <time>2026-08-20T06:50:55.000Z</time>
      </trkpt>
      <trkpt lat="47.85475" lon="6.85117">
        <ele>721.2</ele>
        <time>2026-08-20T06:50:59.000Z</time>
      </trkpt>
      <trkpt lat="47.85467" lon="6.85114">
        <ele>722.2</ele>
        <time>2026-08-20T06:51:03.000Z</time>
      </trkpt>
      <trkpt lat="47.8546" lon="6.85114">
        <ele>723.4</ele>
        <time>2026-08-20T06:51:07.000Z</time>
      </trkpt>
      <trkpt lat="47.85456" lon="6.85115">
        <ele>723.8</ele>
        <time>2026-08-20T06:51:09.000Z</time>
      </trkpt>
      <trkpt lat="47.8545" lon="6.85114">
        <ele>724.4</ele>
        <time>2026-08-20T06:51:12.000Z</time>
      </trkpt>
      <trkpt lat="47.85443" lon="6.85115">
        <ele>725.2</ele>
        <time>2026-08-20T06:51:16.000Z</time>
      </trkpt>
      <trkpt lat="47.85441" lon="6.85115">
        <ele>725.4</ele>
        <time>2026-08-20T06:51:17.000Z</time>
      </trkpt>
      <trkpt lat="47.85431" lon="6.85117">
        <ele>726.6</ele>
        <time>2026-08-20T06:51:22.000Z</time>
      </trkpt>
      <trkpt lat="47.85429" lon="6.85117">
        <ele>726.8</ele>
        <time>2026-08-20T06:51:23.000Z</time>
      </trkpt>
      <trkpt lat="47.8542" lon="6.85119">
        <ele>727.6</ele>
        <time>2026-08-20T06:51:27.000Z</time>
      </trkpt>
      <trkpt lat="47.85413" lon="6.85122">
        <ele>728.6</ele>
        <time>2026-08-20T06:51:31.000Z</time>
      </trkpt>
      <trkpt lat="47.85411" lon="6.85124">
        <ele>728.8</ele>
        <time>2026-08-20T06:51:32.000Z</time>
      </trkpt>
      <trkpt lat="47.85403" lon="6.85133">
        <ele>729.8</ele>
        <time>2026-08-20T06:51:37.000Z</time>
      </trkpt>
      <trkpt lat="47.85394" lon="6.85141">
        <ele>731</ele>
        <time>2026-08-20T06:51:42.000Z</time>
      </trkpt>
      <trkpt lat="47.85387" lon="6.85149">
        <ele>732</ele>
        <time>2026-08-20T06:51:46.000Z</time>
      </trkpt>
      <trkpt lat="47.85386" lon="6.85152">
        <ele>732.2</ele>
        <time>2026-08-20T06:51:47.000Z</time>
      </trkpt>
      <trkpt lat="47.85377" lon="6.85163">
        <ele>733.4</ele>
        <time>2026-08-20T06:51:52.000Z</time>
      </trkpt>
      <trkpt lat="47.85373" lon="6.85171">
        <ele>734.2</ele>
        <time>2026-08-20T06:51:55.000Z</time>
      </trkpt>
      <trkpt lat="47.8537" lon="6.85175">
        <ele>734.6</ele>
        <time>2026-08-20T06:51:57.000Z</time>
      </trkpt>
      <trkpt lat="47.85364" lon="6.85185">
        <ele>735.6</ele>
        <time>2026-08-20T06:52:01.000Z</time>
      </trkpt>
      <trkpt lat="47.85362" lon="6.8519">
        <ele>736.2</ele>
        <time>2026-08-20T06:52:03.000Z</time>
      </trkpt>
      <trkpt lat="47.85357" lon="6.85199">
        <ele>736.8</ele>
        <time>2026-08-20T06:52:06.000Z</time>
      </trkpt>
      <trkpt lat="47.85351" lon="6.85213">
        <ele>738</ele>
        <time>2026-08-20T06:52:11.000Z</time>
      </trkpt>
      <trkpt lat="47.85345" lon="6.85228">
        <ele>739</ele>
        <time>2026-08-20T06:52:16.000Z</time>
      </trkpt>
      <trkpt lat="47.8534" lon="6.8524">
        <ele>740</ele>
        <time>2026-08-20T06:52:20.000Z</time>
      </trkpt>
      <trkpt lat="47.85337" lon="6.85246">
        <ele>740.4</ele>
        <time>2026-08-20T06:52:22.000Z</time>
      </trkpt>
      <trkpt lat="47.85333" lon="6.85254">
        <ele>741.2</ele>
        <time>2026-08-20T06:52:25.000Z</time>
      </trkpt>
      <trkpt lat="47.85326" lon="6.8527">
        <ele>742.2</ele>
        <time>2026-08-20T06:52:30.000Z</time>
      </trkpt>
      <trkpt lat="47.85325" lon="6.85272">
        <ele>742.6</ele>
        <time>2026-08-20T06:52:31.000Z</time>
      </trkpt>
      <trkpt lat="47.85321" lon="6.85281">
        <ele>743.2</ele>
        <time>2026-08-20T06:52:34.000Z</time>
      </trkpt>
      <trkpt lat="47.85315" lon="6.85293">
        <ele>744.4</ele>
        <time>2026-08-20T06:52:38.000Z</time>
      </trkpt>
      <trkpt lat="47.85311" lon="6.85302">
        <ele>745.2</ele>
        <time>2026-08-20T06:52:41.000Z</time>
      </trkpt>
      <trkpt lat="47.85309" lon="6.85305">
        <ele>745.6</ele>
        <time>2026-08-20T06:52:42.000Z</time>
      </trkpt>
      <trkpt lat="47.85302" lon="6.85317">
        <ele>746.6</ele>
        <time>2026-08-20T06:52:46.000Z</time>
      </trkpt>
      <trkpt lat="47.85299" lon="6.85323">
        <ele>747.2</ele>
        <time>2026-08-20T06:52:48.000Z</time>
      </trkpt>
      <trkpt lat="47.85296" lon="6.85329">
        <ele>748</ele>
        <time>2026-08-20T06:52:50.000Z</time>
      </trkpt>
      <trkpt lat="47.85292" lon="6.85339">
        <ele>749</ele>
        <time>2026-08-20T06:52:53.000Z</time>
      </trkpt>
      <trkpt lat="47.85287" lon="6.85351">
        <ele>750</ele>
        <time>2026-08-20T06:52:57.000Z</time>
      </trkpt>
      <trkpt lat="47.85281" lon="6.85363">
        <ele>751.4</ele>
        <time>2026-08-20T06:53:01.000Z</time>
      </trkpt>
      <trkpt lat="47.85276" lon="6.85371">
        <ele>752.2</ele>
        <time>2026-08-20T06:53:04.000Z</time>
      </trkpt>
      <trkpt lat="47.85275" lon="6.85373">
        <ele>752.4</ele>
        <time>2026-08-20T06:53:05.000Z</time>
      </trkpt>
      <trkpt lat="47.85269" lon="6.85381">
        <ele>753.4</ele>
        <time>2026-08-20T06:53:08.000Z</time>
      </trkpt>
      <trkpt lat="47.85267" lon="6.85384">
        <ele>753.6</ele>
        <time>2026-08-20T06:53:09.000Z</time>
      </trkpt>
      <trkpt lat="47.85263" lon="6.85389">
        <ele>754</ele>
        <time>2026-08-20T06:53:11.000Z</time>
      </trkpt>
      <trkpt lat="47.85259" lon="6.85394">
        <ele>754.6</ele>
        <time>2026-08-20T06:53:13.000Z</time>
      </trkpt>
      <trkpt lat="47.85251" lon="6.85404">
        <ele>755.6</ele>
        <time>2026-08-20T06:53:17.000Z</time>
      </trkpt>
      <trkpt lat="47.85246" lon="6.85412">
        <ele>756.6</ele>
        <time>2026-08-20T06:53:20.000Z</time>
      </trkpt>
      <trkpt lat="47.85245" lon="6.85416">
        <ele>756.8</ele>
        <time>2026-08-20T06:53:21.000Z</time>
      </trkpt>
      <trkpt lat="47.85238" lon="6.85428">
        <ele>758</ele>
        <time>2026-08-20T06:53:25.000Z</time>
      </trkpt>
      <trkpt lat="47.85233" lon="6.85441">
        <ele>759</ele>
        <time>2026-08-20T06:53:29.000Z</time>
      </trkpt>
      <trkpt lat="47.85228" lon="6.85454">
        <ele>760</ele>
        <time>2026-08-20T06:53:33.000Z</time>
      </trkpt>
      <trkpt lat="47.85222" lon="6.85468">
        <ele>761.4</ele>
        <time>2026-08-20T06:53:37.000Z</time>
      </trkpt>
      <trkpt lat="47.85221" lon="6.85471">
        <ele>761.6</ele>
        <time>2026-08-20T06:53:38.000Z</time>
      </trkpt>
      <trkpt lat="47.8522" lon="6.85478">
        <ele>762.4</ele>
        <time>2026-08-20T06:53:41.000Z</time>
      </trkpt>
      <trkpt lat="47.8522" lon="6.85479">
        <ele>762.6</ele>
        <time>2026-08-20T06:53:43.000Z</time>
      </trkpt>
      <trkpt lat="47.85224" lon="6.85484">
        <ele>762.6</ele>
        <time>2026-08-20T06:53:49.000Z</time>
      </trkpt>
      <trkpt lat="47.85223" lon="6.85483">
        <ele>762.8</ele>
        <time>2026-08-20T06:53:50.000Z</time>
      </trkpt>
      <trkpt lat="47.85224" lon="6.85482">
        <ele>763</ele>
        <time>2026-08-20T06:53:52.000Z</time>
      </trkpt>
      <trkpt lat="47.85224" lon="6.85483">
        <ele>763</ele>
        <time>2026-08-20T06:53:53.000Z</time>
      </trkpt>
      <trkpt lat="47.85225" lon="6.85483">
        <ele>763</ele>
        <time>2026-08-20T06:53:58.000Z</time>
      </trkpt>
      <trkpt lat="47.85225" lon="6.85483">
        <ele>762.8</ele>
        <time>2026-08-20T06:54:03.000Z</time>
      </trkpt>
      <trkpt lat="47.85225" lon="6.85486">
        <ele>763</ele>
        <time>2026-08-20T06:54:08.000Z</time>
      </trkpt>
      <trkpt lat="47.85224" lon="6.85486">
        <ele>762.8</ele>
        <time>2026-08-20T06:54:13.000Z</time>
      </trkpt>
      <trkpt lat="47.85222" lon="6.85485">
        <ele>762.6</ele>
        <time>2026-08-20T06:54:17.000Z</time>
      </trkpt>
      <trkpt lat="47.85223" lon="6.85485">
        <ele>762.8</ele>
        <time>2026-08-20T06:54:21.000Z</time>
      </trkpt>
      <trkpt lat="47.85224" lon="6.85485">
        <ele>762.6</ele>
        <time>2026-08-20T06:54:30.000Z</time>
      </trkpt>
      <trkpt lat="47.85224" lon="6.85485">
        <ele>762.6</ele>
        <time>2026-08-20T06:54:32.000Z</time>
      </trkpt>
      <trkpt lat="47.85223" lon="6.85487">
        <ele>763</ele>
        <time>2026-08-20T06:54:38.000Z</time>
      </trkpt>
      <trkpt lat="47.85223" lon="6.85485">
        <ele>763.2</ele>
        <time>2026-08-20T06:54:41.000Z</time>
      </trkpt>
      <trkpt lat="47.85223" lon="6.85483">
        <ele>763.4</ele>
        <time>2026-08-20T06:54:52.000Z</time>
      </trkpt>
      <trkpt lat="47.85223" lon="6.85483">
        <ele>763.4</ele>
        <time>2026-08-20T06:54:53.000Z</time>
      </trkpt>
      <trkpt lat="47.85223" lon="6.85483">
        <ele>763.4</ele>
        <time>2026-08-20T06:54:55.000Z</time>
      </trkpt>
      <trkpt lat="47.85223" lon="6.85483">
        <ele>763.4</ele>
        <time>2026-08-20T06:54:58.000Z</time>
      </trkpt>
      <trkpt lat="47.85223" lon="6.85483">
        <ele>763.4</ele>
        <time>2026-08-20T06:55:01.000Z</time>
      </trkpt>
      <trkpt lat="47.85223" lon="6.85483">
        <ele>763.6</ele>
        <time>2026-08-20T06:55:10.000Z</time>
      </trkpt>
      <trkpt lat="47.85222" lon="6.85483">
        <ele>763.8</ele>
        <time>2026-08-20T06:55:17.000Z</time>
      </trkpt>
      <trkpt lat="47.85221" lon="6.85482">
        <ele>763.6</ele>
        <time>2026-08-20T06:55:23.000Z</time>
      </trkpt>
      <trkpt lat="47.85223" lon="6.85483">
        <ele>763.8</ele>
        <time>2026-08-20T06:55:33.000Z</time>
      </trkpt>
      <trkpt lat="47.85223" lon="6.85483">
        <ele>763.6</ele>
        <time>2026-08-20T06:55:41.000Z</time>
      </trkpt>
      <trkpt lat="47.85223" lon="6.85483">
        <ele>763.6</ele>
        <time>2026-08-20T06:55:46.000Z</time>
      </trkpt>
      <trkpt lat="47.85223" lon="6.85483">
        <ele>763.6</ele>
        <time>2026-08-20T06:55:47.000Z</time>
      </trkpt>
      <trkpt lat="47.85223" lon="6.85483">
        <ele>763.8</ele>
        <time>2026-08-20T06:55:56.000Z</time>
      </trkpt>
      <trkpt lat="47.85223" lon="6.85482">
        <ele>763.8</ele>
        <time>2026-08-20T06:55:59.000Z</time>
      </trkpt>
      <trkpt lat="47.85224" lon="6.85481">
        <ele>763.8</ele>
        <time>2026-08-20T06:56:00.000Z</time>
      </trkpt>
      <trkpt lat="47.85225" lon="6.85481">
        <ele>763.8</ele>
        <time>2026-08-20T06:56:06.000Z</time>
      </trkpt>
      <trkpt lat="47.85222" lon="6.85483">
        <ele>764.2</ele>
        <time>2026-08-20T06:56:13.000Z</time>
      </trkpt>
      <trkpt lat="47.8522" lon="6.85483">
        <ele>764.2</ele>
        <time>2026-08-20T06:56:16.000Z</time>
      </trkpt>
      <trkpt lat="47.85219" lon="6.85485">
        <ele>764.4</ele>
        <time>2026-08-20T06:56:19.000Z</time>
      </trkpt>
      <trkpt lat="47.85216" lon="6.85491">
        <ele>764.6</ele>
        <time>2026-08-20T06:56:25.000Z</time>
      </trkpt>
      <trkpt lat="47.85214" lon="6.85497">
        <ele>765</ele>
        <time>2026-08-20T06:56:28.000Z</time>
      </trkpt>
      <trkpt lat="47.85214" lon="6.85503">
        <ele>765.4</ele>
        <time>2026-08-20T06:56:30.000Z</time>
      </trkpt>
      <trkpt lat="47.85214" lon="6.85506">
        <ele>765.6</ele>
        <time>2026-08-20T06:56:31.000Z</time>
      </trkpt>
      <trkpt lat="47.85212" lon="6.85518">
        <ele>766.6</ele>
        <time>2026-08-20T06:56:35.000Z</time>
      </trkpt>
      <trkpt lat="47.85212" lon="6.85521">
        <ele>767</ele>
        <time>2026-08-20T06:56:36.000Z</time>
      </trkpt>
      <trkpt lat="47.85211" lon="6.85529">
        <ele>767.8</ele>
        <time>2026-08-20T06:56:39.000Z</time>
      </trkpt>
      <trkpt lat="47.85209" lon="6.85544">
        <ele>769</ele>
        <time>2026-08-20T06:56:44.000Z</time>
      </trkpt>
      <trkpt lat="47.85209" lon="6.85547">
        <ele>769.2</ele>
        <time>2026-08-20T06:56:45.000Z</time>
      </trkpt>
      <trkpt lat="47.85208" lon="6.85554">
        <ele>769.8</ele>
        <time>2026-08-20T06:56:47.000Z</time>
      </trkpt>
      <trkpt lat="47.85208" lon="6.85558">
        <ele>770</ele>
        <time>2026-08-20T06:56:48.000Z</time>
      </trkpt>
      <trkpt lat="47.85207" lon="6.85574">
        <ele>771</ele>
        <time>2026-08-20T06:56:53.000Z</time>
      </trkpt>
      <trkpt lat="47.85206" lon="6.85581">
        <ele>771.6</ele>
        <time>2026-08-20T06:56:55.000Z</time>
      </trkpt>
      <trkpt lat="47.85206" lon="6.85591">
        <ele>772.2</ele>
        <time>2026-08-20T06:56:58.000Z</time>
      </trkpt>
      <trkpt lat="47.85204" lon="6.8561">
        <ele>773.4</ele>
        <time>2026-08-20T06:57:04.000Z</time>
      </trkpt>
      <trkpt lat="47.85204" lon="6.85613">
        <ele>773.8</ele>
        <time>2026-08-20T06:57:05.000Z</time>
      </trkpt>
      <trkpt lat="47.85203" lon="6.85622">
        <ele>774.6</ele>
        <time>2026-08-20T06:57:08.000Z</time>
      </trkpt>
      <trkpt lat="47.85202" lon="6.85637">
        <ele>775.8</ele>
        <time>2026-08-20T06:57:13.000Z</time>
      </trkpt>
      <trkpt lat="47.85201" lon="6.85644">
        <ele>776.2</ele>
        <time>2026-08-20T06:57:15.000Z</time>
      </trkpt>
      <trkpt lat="47.85201" lon="6.85654">
        <ele>777</ele>
        <time>2026-08-20T06:57:18.000Z</time>
      </trkpt>
      <trkpt lat="47.852" lon="6.8567">
        <ele>778.2</ele>
        <time>2026-08-20T06:57:23.000Z</time>
      </trkpt>
      <trkpt lat="47.852" lon="6.85673">
        <ele>778.6</ele>
        <time>2026-08-20T06:57:24.000Z</time>
      </trkpt>
      <trkpt lat="47.85198" lon="6.85682">
        <ele>779.2</ele>
        <time>2026-08-20T06:57:27.000Z</time>
      </trkpt>
      <trkpt lat="47.85197" lon="6.85702">
        <ele>780.4</ele>
        <time>2026-08-20T06:57:33.000Z</time>
      </trkpt>
      <trkpt lat="47.85197" lon="6.85705">
        <ele>780.6</ele>
        <time>2026-08-20T06:57:34.000Z</time>
      </trkpt>
      <trkpt lat="47.85197" lon="6.85718">
        <ele>781.4</ele>
        <time>2026-08-20T06:57:38.000Z</time>
      </trkpt>
      <trkpt lat="47.85195" lon="6.85734">
        <ele>782.4</ele>
        <time>2026-08-20T06:57:43.000Z</time>
      </trkpt>
      <trkpt lat="47.85195" lon="6.85738">
        <ele>782.8</ele>
        <time>2026-08-20T06:57:44.000Z</time>
      </trkpt>
      <trkpt lat="47.85194" lon="6.85748">
        <ele>783.6</ele>
        <time>2026-08-20T06:57:47.000Z</time>
      </trkpt>
      <trkpt lat="47.85193" lon="6.85765">
        <ele>784.8</ele>
        <time>2026-08-20T06:57:52.000Z</time>
      </trkpt>
      <trkpt lat="47.85192" lon="6.85769">
        <ele>784.8</ele>
        <time>2026-08-20T06:57:53.000Z</time>
      </trkpt>
      <trkpt lat="47.8519" lon="6.85782">
        <ele>785.8</ele>
        <time>2026-08-20T06:57:57.000Z</time>
      </trkpt>
      <trkpt lat="47.85188" lon="6.85796">
        <ele>787</ele>
        <time>2026-08-20T06:58:01.000Z</time>
      </trkpt>
      <trkpt lat="47.85186" lon="6.85804">
        <ele>787.8</ele>
        <time>2026-08-20T06:58:04.000Z</time>
      </trkpt>
      <trkpt lat="47.85185" lon="6.85807">
        <ele>788</ele>
        <time>2026-08-20T06:58:05.000Z</time>
      </trkpt>
      <trkpt lat="47.85181" lon="6.85823">
        <ele>789.2</ele>
        <time>2026-08-20T06:58:10.000Z</time>
      </trkpt>
      <trkpt lat="47.85179" lon="6.8583">
        <ele>789.8</ele>
        <time>2026-08-20T06:58:12.000Z</time>
      </trkpt>
      <trkpt lat="47.85178" lon="6.85836">
        <ele>790.4</ele>
        <time>2026-08-20T06:58:14.000Z</time>
      </trkpt>
      <trkpt lat="47.85175" lon="6.85848">
        <ele>791.4</ele>
        <time>2026-08-20T06:58:18.000Z</time>
      </trkpt>
      <trkpt lat="47.85172" lon="6.8586">
        <ele>792.4</ele>
        <time>2026-08-20T06:58:22.000Z</time>
      </trkpt>
      <trkpt lat="47.85171" lon="6.85863">
        <ele>792.8</ele>
        <time>2026-08-20T06:58:23.000Z</time>
      </trkpt>
      <trkpt lat="47.85168" lon="6.85872">
        <ele>793.6</ele>
        <time>2026-08-20T06:58:26.000Z</time>
      </trkpt>
      <trkpt lat="47.85163" lon="6.85887">
        <ele>794.8</ele>
        <time>2026-08-20T06:58:31.000Z</time>
      </trkpt>
      <trkpt lat="47.85162" lon="6.8589">
        <ele>795.2</ele>
        <time>2026-08-20T06:58:32.000Z</time>
      </trkpt>
      <trkpt lat="47.85159" lon="6.85899">
        <ele>796</ele>
        <time>2026-08-20T06:58:35.000Z</time>
      </trkpt>
      <trkpt lat="47.85153" lon="6.85913">
        <ele>797.2</ele>
        <time>2026-08-20T06:58:40.000Z</time>
      </trkpt>
      <trkpt lat="47.85152" lon="6.85917">
        <ele>797.4</ele>
        <time>2026-08-20T06:58:41.000Z</time>
      </trkpt>
      <trkpt lat="47.8515" lon="6.85926">
        <ele>798.2</ele>
        <time>2026-08-20T06:58:44.000Z</time>
      </trkpt>
      <trkpt lat="47.85145" lon="6.85943">
        <ele>799.4</ele>
        <time>2026-08-20T06:58:49.000Z</time>
      </trkpt>
      <trkpt lat="47.85144" lon="6.85946">
        <ele>799.6</ele>
        <time>2026-08-20T06:58:50.000Z</time>
      </trkpt>
      <trkpt lat="47.8514" lon="6.85958">
        <ele>800.4</ele>
        <time>2026-08-20T06:58:54.000Z</time>
      </trkpt>
      <trkpt lat="47.85136" lon="6.85971">
        <ele>801.4</ele>
        <time>2026-08-20T06:58:58.000Z</time>
      </trkpt>
      <trkpt lat="47.85134" lon="6.85975">
        <ele>801.6</ele>
        <time>2026-08-20T06:58:59.000Z</time>
      </trkpt>
      <trkpt lat="47.85129" lon="6.85988">
        <ele>802.8</ele>
        <time>2026-08-20T06:59:03.000Z</time>
      </trkpt>
      <trkpt lat="47.85124" lon="6.85999">
        <ele>803.8</ele>
        <time>2026-08-20T06:59:07.000Z</time>
      </trkpt>
      <trkpt lat="47.85118" lon="6.86013">
        <ele>805</ele>
        <time>2026-08-20T06:59:12.000Z</time>
      </trkpt>
      <trkpt lat="47.85114" lon="6.86021">
        <ele>806</ele>
        <time>2026-08-20T06:59:15.000Z</time>
      </trkpt>
      <trkpt lat="47.85113" lon="6.86024">
        <ele>806.2</ele>
        <time>2026-08-20T06:59:16.000Z</time>
      </trkpt>
      <trkpt lat="47.85108" lon="6.86036">
        <ele>807.2</ele>
        <time>2026-08-20T06:59:20.000Z</time>
      </trkpt>
      <trkpt lat="47.85106" lon="6.86042">
        <ele>807.8</ele>
        <time>2026-08-20T06:59:22.000Z</time>
      </trkpt>
      <trkpt lat="47.85101" lon="6.8605">
        <ele>808.4</ele>
        <time>2026-08-20T06:59:25.000Z</time>
      </trkpt>
      <trkpt lat="47.85092" lon="6.86063">
        <ele>809.6</ele>
        <time>2026-08-20T06:59:30.000Z</time>
      </trkpt>
      <trkpt lat="47.8508" lon="6.86076">
        <ele>810.6</ele>
        <time>2026-08-20T06:59:36.000Z</time>
      </trkpt>
      <trkpt lat="47.85078" lon="6.86078">
        <ele>810.8</ele>
        <time>2026-08-20T06:59:37.000Z</time>
      </trkpt>
      <trkpt lat="47.8507" lon="6.86091">
        <ele>811.8</ele>
        <time>2026-08-20T06:59:42.000Z</time>
      </trkpt>
      <trkpt lat="47.85062" lon="6.86106">
        <ele>812.8</ele>
        <time>2026-08-20T06:59:47.000Z</time>
      </trkpt>
      <trkpt lat="47.8506" lon="6.86109">
        <ele>813</ele>
        <time>2026-08-20T06:59:48.000Z</time>
      </trkpt>
      <trkpt lat="47.85051" lon="6.8613">
        <ele>814</ele>
        <time>2026-08-20T06:59:54.000Z</time>
      </trkpt>
      <trkpt lat="47.85049" lon="6.86138">
        <ele>814.4</ele>
        <time>2026-08-20T06:59:56.000Z</time>
      </trkpt>
      <trkpt lat="47.85049" lon="6.86142">
        <ele>814.6</ele>
        <time>2026-08-20T06:59:57.000Z</time>
      </trkpt>
      <trkpt lat="47.85048" lon="6.86146">
        <ele>814.8</ele>
        <time>2026-08-20T06:59:58.000Z</time>
      </trkpt>
      <trkpt lat="47.85048" lon="6.86149">
        <ele>814.8</ele>
        <time>2026-08-20T06:59:59.000Z</time>
      </trkpt>
      <trkpt lat="47.85049" lon="6.86157">
        <ele>815.2</ele>
        <time>2026-08-20T07:00:01.000Z</time>
      </trkpt>
      <trkpt lat="47.85051" lon="6.8616">
        <ele>815.2</ele>
        <time>2026-08-20T07:00:02.000Z</time>
      </trkpt>
      <trkpt lat="47.85065" lon="6.8618">
        <ele>816.2</ele>
        <time>2026-08-20T07:00:09.000Z</time>
      </trkpt>
      <trkpt lat="47.85081" lon="6.86197">
        <ele>817.4</ele>
        <time>2026-08-20T07:00:16.000Z</time>
      </trkpt>
      <trkpt lat="47.85083" lon="6.86199">
        <ele>817.6</ele>
        <time>2026-08-20T07:00:17.000Z</time>
      </trkpt>
      <trkpt lat="47.85094" lon="6.8621">
        <ele>818.4</ele>
        <time>2026-08-20T07:00:22.000Z</time>
      </trkpt>
      <trkpt lat="47.85102" lon="6.86219">
        <ele>819.2</ele>
        <time>2026-08-20T07:00:26.000Z</time>
      </trkpt>
      <trkpt lat="47.85106" lon="6.86224">
        <ele>819.6</ele>
        <time>2026-08-20T07:00:28.000Z</time>
      </trkpt>
      <trkpt lat="47.85122" lon="6.86242">
        <ele>820.6</ele>
        <time>2026-08-20T07:00:35.000Z</time>
      </trkpt>
      <trkpt lat="47.85136" lon="6.86259">
        <ele>821.8</ele>
        <time>2026-08-20T07:00:41.000Z</time>
      </trkpt>
      <trkpt lat="47.85142" lon="6.86264">
        <ele>822</ele>
        <time>2026-08-20T07:00:43.000Z</time>
      </trkpt>
      <trkpt lat="47.8516" lon="6.86277">
        <ele>822.8</ele>
        <time>2026-08-20T07:00:49.000Z</time>
      </trkpt>
      <trkpt lat="47.85166" lon="6.86281">
        <ele>823.2</ele>
        <time>2026-08-20T07:00:51.000Z</time>
      </trkpt>
      <trkpt lat="47.85179" lon="6.86291">
        <ele>824</ele>
        <time>2026-08-20T07:00:56.000Z</time>
      </trkpt>
      <trkpt lat="47.85184" lon="6.86296">
        <ele>824.2</ele>
        <time>2026-08-20T07:00:58.000Z</time>
      </trkpt>
      <trkpt lat="47.852" lon="6.86309">
        <ele>825</ele>
        <time>2026-08-20T07:01:03.000Z</time>
      </trkpt>
      <trkpt lat="47.85207" lon="6.86318">
        <ele>825.2</ele>
        <time>2026-08-20T07:01:06.000Z</time>
      </trkpt>
      <trkpt lat="47.8521" lon="6.86335">
        <ele>826.2</ele>
        <time>2026-08-20T07:01:09.000Z</time>
      </trkpt>
      <trkpt lat="47.8521" lon="6.86339">
        <ele>826.6</ele>
        <time>2026-08-20T07:01:10.000Z</time>
      </trkpt>
      <trkpt lat="47.85213" lon="6.86355">
        <ele>827.4</ele>
        <time>2026-08-20T07:01:14.000Z</time>
      </trkpt>
      <trkpt lat="47.85219" lon="6.86377">
        <ele>828.2</ele>
        <time>2026-08-20T07:01:19.000Z</time>
      </trkpt>
      <trkpt lat="47.8522" lon="6.8638">
        <ele>828.6</ele>
        <time>2026-08-20T07:01:20.000Z</time>
      </trkpt>
      <trkpt lat="47.85231" lon="6.86402">
        <ele>829.8</ele>
        <time>2026-08-20T07:01:26.000Z</time>
      </trkpt>
      <trkpt lat="47.85233" lon="6.86405">
        <ele>830</ele>
        <time>2026-08-20T07:01:27.000Z</time>
      </trkpt>
      <trkpt lat="47.85244" lon="6.86421">
        <ele>830.8</ele>
        <time>2026-08-20T07:01:32.000Z</time>
      </trkpt>
      <trkpt lat="47.85254" lon="6.86433">
        <ele>831.6</ele>
        <time>2026-08-20T07:01:36.000Z</time>
      </trkpt>
      <trkpt lat="47.85259" lon="6.86439">
        <ele>831.8</ele>
        <time>2026-08-20T07:01:38.000Z</time>
      </trkpt>
      <trkpt lat="47.85272" lon="6.86452">
        <ele>833</ele>
        <time>2026-08-20T07:01:44.000Z</time>
      </trkpt>
      <trkpt lat="47.85288" lon="6.86467">
        <ele>834</ele>
        <time>2026-08-20T07:01:50.000Z</time>
      </trkpt>
      <trkpt lat="47.85291" lon="6.8647">
        <ele>834.4</ele>
        <time>2026-08-20T07:01:51.000Z</time>
      </trkpt>
      <trkpt lat="47.85306" lon="6.86485">
        <ele>835</ele>
        <time>2026-08-20T07:01:57.000Z</time>
      </trkpt>
      <trkpt lat="47.85308" lon="6.86487">
        <ele>835.4</ele>
        <time>2026-08-20T07:01:58.000Z</time>
      </trkpt>
      <trkpt lat="47.85316" lon="6.86499">
        <ele>836</ele>
        <time>2026-08-20T07:02:04.000Z</time>
      </trkpt>
      <trkpt lat="47.85321" lon="6.86503">
        <ele>836.2</ele>
        <time>2026-08-20T07:02:06.000Z</time>
      </trkpt>
      <trkpt lat="47.85334" lon="6.86507">
        <ele>836.6</ele>
        <time>2026-08-20T07:02:10.000Z</time>
      </trkpt>
      <trkpt lat="47.85355" lon="6.865">
        <ele>836.8</ele>
        <time>2026-08-20T07:02:16.000Z</time>
      </trkpt>
      <trkpt lat="47.85359" lon="6.86498">
        <ele>836.8</ele>
        <time>2026-08-20T07:02:17.000Z</time>
      </trkpt>
      <trkpt lat="47.85373" lon="6.86489">
        <ele>837.2</ele>
        <time>2026-08-20T07:02:21.000Z</time>
      </trkpt>
      <trkpt lat="47.85386" lon="6.86481">
        <ele>837.8</ele>
        <time>2026-08-20T07:02:25.000Z</time>
      </trkpt>
      <trkpt lat="47.85392" lon="6.86481">
        <ele>838.2</ele>
        <time>2026-08-20T07:02:27.000Z</time>
      </trkpt>
      <trkpt lat="47.85409" lon="6.86482">
        <ele>839.4</ele>
        <time>2026-08-20T07:02:32.000Z</time>
      </trkpt>
      <trkpt lat="47.85423" lon="6.86483">
        <ele>839.8</ele>
        <time>2026-08-20T07:02:36.000Z</time>
      </trkpt>
      <trkpt lat="47.85445" lon="6.86482">
        <ele>839.6</ele>
        <time>2026-08-20T07:02:42.000Z</time>
      </trkpt>
      <trkpt lat="47.85452" lon="6.86483">
        <ele>839.6</ele>
        <time>2026-08-20T07:02:44.000Z</time>
      </trkpt>
      <trkpt lat="47.85469" lon="6.86493">
        <ele>840.2</ele>
        <time>2026-08-20T07:02:49.000Z</time>
      </trkpt>
      <trkpt lat="47.85472" lon="6.86496">
        <ele>840.2</ele>
        <time>2026-08-20T07:02:50.000Z</time>
      </trkpt>
      <trkpt lat="47.85477" lon="6.86503">
        <ele>840.4</ele>
        <time>2026-08-20T07:02:52.000Z</time>
      </trkpt>
      <trkpt lat="47.85491" lon="6.86526">
        <ele>841.2</ele>
        <time>2026-08-20T07:02:58.000Z</time>
      </trkpt>
      <trkpt lat="47.85496" lon="6.86533">
        <ele>841.6</ele>
        <time>2026-08-20T07:03:00.000Z</time>
      </trkpt>
      <trkpt lat="47.85509" lon="6.86554">
        <ele>842.6</ele>
        <time>2026-08-20T07:03:06.000Z</time>
      </trkpt>
      <trkpt lat="47.85521" lon="6.86576">
        <ele>843.6</ele>
        <time>2026-08-20T07:03:12.000Z</time>
      </trkpt>
      <trkpt lat="47.85523" lon="6.8658">
        <ele>843.8</ele>
        <time>2026-08-20T07:03:13.000Z</time>
      </trkpt>
      <trkpt lat="47.85526" lon="6.86584">
        <ele>844</ele>
        <time>2026-08-20T07:03:14.000Z</time>
      </trkpt>
      <trkpt lat="47.85531" lon="6.86595">
        <ele>844.8</ele>
        <time>2026-08-20T07:03:17.000Z</time>
      </trkpt>
      <trkpt lat="47.85539" lon="6.86612">
        <ele>845.8</ele>
        <time>2026-08-20T07:03:22.000Z</time>
      </trkpt>
      <trkpt lat="47.85546" lon="6.86632">
        <ele>846.8</ele>
        <time>2026-08-20T07:03:27.000Z</time>
      </trkpt>
      <trkpt lat="47.8555" lon="6.86644">
        <ele>847.4</ele>
        <time>2026-08-20T07:03:30.000Z</time>
      </trkpt>
      <trkpt lat="47.85557" lon="6.86671">
        <ele>847.8</ele>
        <time>2026-08-20T07:03:36.000Z</time>
      </trkpt>
      <trkpt lat="47.85558" lon="6.86675">
        <ele>847.8</ele>
        <time>2026-08-20T07:03:37.000Z</time>
      </trkpt>
      <trkpt lat="47.85559" lon="6.86685">
        <ele>848</ele>
        <time>2026-08-20T07:03:39.000Z</time>
      </trkpt>
      <trkpt lat="47.85562" lon="6.86714">
        <ele>848.8</ele>
        <time>2026-08-20T07:03:45.000Z</time>
      </trkpt>
      <trkpt lat="47.85562" lon="6.86719">
        <ele>849</ele>
        <time>2026-08-20T07:03:46.000Z</time>
      </trkpt>
      <trkpt lat="47.85563" lon="6.86728">
        <ele>849.4</ele>
        <time>2026-08-20T07:03:48.000Z</time>
      </trkpt>
      <trkpt lat="47.85564" lon="6.86743">
        <ele>850</ele>
        <time>2026-08-20T07:03:51.000Z</time>
      </trkpt>
      <trkpt lat="47.85568" lon="6.86764">
        <ele>851.2</ele>
        <time>2026-08-20T07:03:56.000Z</time>
      </trkpt>
      <trkpt lat="47.8557" lon="6.86773">
        <ele>851.6</ele>
        <time>2026-08-20T07:03:58.000Z</time>
      </trkpt>
      <trkpt lat="47.85573" lon="6.86796">
        <ele>852.2</ele>
        <time>2026-08-20T07:04:03.000Z</time>
      </trkpt>
      <trkpt lat="47.85575" lon="6.86811">
        <ele>852.4</ele>
        <time>2026-08-20T07:04:06.000Z</time>
      </trkpt>
      <trkpt lat="47.85581" lon="6.86835">
        <ele>853.2</ele>
        <time>2026-08-20T07:04:11.000Z</time>
      </trkpt>
      <trkpt lat="47.8559" lon="6.86857">
        <ele>853.8</ele>
        <time>2026-08-20T07:04:16.000Z</time>
      </trkpt>
      <trkpt lat="47.85596" lon="6.86868">
        <ele>854.4</ele>
        <time>2026-08-20T07:04:19.000Z</time>
      </trkpt>
      <trkpt lat="47.85609" lon="6.86881">
        <ele>855.2</ele>
        <time>2026-08-20T07:04:24.000Z</time>
      </trkpt>
      <trkpt lat="47.85615" lon="6.86885">
        <ele>855.6</ele>
        <time>2026-08-20T07:04:26.000Z</time>
      </trkpt>
      <trkpt lat="47.85631" lon="6.86896">
        <ele>856</ele>
        <time>2026-08-20T07:04:31.000Z</time>
      </trkpt>
      <trkpt lat="47.85645" lon="6.86899">
        <ele>856.8</ele>
        <time>2026-08-20T07:04:35.000Z</time>
      </trkpt>
      <trkpt lat="47.85648" lon="6.869">
        <ele>857</ele>
        <time>2026-08-20T07:04:36.000Z</time>
      </trkpt>
      <trkpt lat="47.85664" lon="6.86902">
        <ele>857.8</ele>
        <time>2026-08-20T07:04:41.000Z</time>
      </trkpt>
      <trkpt lat="47.85672" lon="6.86903">
        <ele>858.2</ele>
        <time>2026-08-20T07:04:43.000Z</time>
      </trkpt>
      <trkpt lat="47.85693" lon="6.86902">
        <ele>858.6</ele>
        <time>2026-08-20T07:04:49.000Z</time>
      </trkpt>
      <trkpt lat="47.857" lon="6.86901">
        <ele>858.8</ele>
        <time>2026-08-20T07:04:51.000Z</time>
      </trkpt>
      <trkpt lat="47.85703" lon="6.869">
        <ele>859</ele>
        <time>2026-08-20T07:04:52.000Z</time>
      </trkpt>
      <trkpt lat="47.85716" lon="6.86898">
        <ele>859.4</ele>
        <time>2026-08-20T07:04:56.000Z</time>
      </trkpt>
      <trkpt lat="47.85727" lon="6.86897">
        <ele>860</ele>
        <time>2026-08-20T07:04:59.000Z</time>
      </trkpt>
      <trkpt lat="47.8574" lon="6.86898">
        <ele>860.6</ele>
        <time>2026-08-20T07:05:03.000Z</time>
      </trkpt>
      <trkpt lat="47.85747" lon="6.86897">
        <ele>861.2</ele>
        <time>2026-08-20T07:05:05.000Z</time>
      </trkpt>
      <trkpt lat="47.85763" lon="6.86898">
        <ele>862.2</ele>
        <time>2026-08-20T07:05:10.000Z</time>
      </trkpt>
      <trkpt lat="47.85766" lon="6.86898">
        <ele>862.4</ele>
        <time>2026-08-20T07:05:11.000Z</time>
      </trkpt>
      <trkpt lat="47.85787" lon="6.86899">
        <ele>863</ele>
        <time>2026-08-20T07:05:17.000Z</time>
      </trkpt>
      <trkpt lat="47.85801" lon="6.86898">
        <ele>863.2</ele>
        <time>2026-08-20T07:05:21.000Z</time>
      </trkpt>
      <trkpt lat="47.85807" lon="6.86897">
        <ele>863.4</ele>
        <time>2026-08-20T07:05:23.000Z</time>
      </trkpt>
      <trkpt lat="47.85823" lon="6.86899">
        <ele>864.2</ele>
        <time>2026-08-20T07:05:28.000Z</time>
      </trkpt>
      <trkpt lat="47.85828" lon="6.86901">
        <ele>864.6</ele>
        <time>2026-08-20T07:05:30.000Z</time>
      </trkpt>
      <trkpt lat="47.85837" lon="6.8691">
        <ele>865.8</ele>
        <time>2026-08-20T07:05:34.000Z</time>
      </trkpt>
      <trkpt lat="47.85839" lon="6.86914">
        <ele>866.2</ele>
        <time>2026-08-20T07:05:35.000Z</time>
      </trkpt>
      <trkpt lat="47.85845" lon="6.86922">
        <ele>867</ele>
        <time>2026-08-20T07:05:38.000Z</time>
      </trkpt>
      <trkpt lat="47.85855" lon="6.86939">
        <ele>868</ele>
        <time>2026-08-20T07:05:43.000Z</time>
      </trkpt>
      <trkpt lat="47.85857" lon="6.86942">
        <ele>868.2</ele>
        <time>2026-08-20T07:05:44.000Z</time>
      </trkpt>
      <trkpt lat="47.85868" lon="6.86966">
        <ele>869</ele>
        <time>2026-08-20T07:05:50.000Z</time>
      </trkpt>
      <trkpt lat="47.85871" lon="6.86974">
        <ele>869.2</ele>
        <time>2026-08-20T07:05:52.000Z</time>
      </trkpt>
      <trkpt lat="47.85872" lon="6.86978">
        <ele>869.4</ele>
        <time>2026-08-20T07:05:53.000Z</time>
      </trkpt>
      <trkpt lat="47.85881" lon="6.87">
        <ele>870.4</ele>
        <time>2026-08-20T07:05:59.000Z</time>
      </trkpt>
      <trkpt lat="47.85886" lon="6.87011">
        <ele>870.8</ele>
        <time>2026-08-20T07:06:02.000Z</time>
      </trkpt>
      <trkpt lat="47.85895" lon="6.8703">
        <ele>871.4</ele>
        <time>2026-08-20T07:06:07.000Z</time>
      </trkpt>
      <trkpt lat="47.85904" lon="6.87046">
        <ele>872.4</ele>
        <time>2026-08-20T07:06:12.000Z</time>
      </trkpt>
      <trkpt lat="47.85907" lon="6.87049">
        <ele>872.6</ele>
        <time>2026-08-20T07:06:13.000Z</time>
      </trkpt>
      <trkpt lat="47.85923" lon="6.8706">
        <ele>873.4</ele>
        <time>2026-08-20T07:06:19.000Z</time>
      </trkpt>
      <trkpt lat="47.85926" lon="6.87064">
        <ele>873.6</ele>
        <time>2026-08-20T07:06:20.000Z</time>
      </trkpt>
      <trkpt lat="47.85935" lon="6.87082">
        <ele>873.8</ele>
        <time>2026-08-20T07:06:24.000Z</time>
      </trkpt>
      <trkpt lat="47.85936" lon="6.8711">
        <ele>874</ele>
        <time>2026-08-20T07:06:29.000Z</time>
      </trkpt>
      <trkpt lat="47.85935" lon="6.87124">
        <ele>874.8</ele>
        <time>2026-08-20T07:06:32.000Z</time>
      </trkpt>
      <trkpt lat="47.85934" lon="6.87136">
        <ele>875.8</ele>
        <time>2026-08-20T07:06:35.000Z</time>
      </trkpt>
      <trkpt lat="47.85934" lon="6.8714">
        <ele>876.2</ele>
        <time>2026-08-20T07:06:36.000Z</time>
      </trkpt>
      <trkpt lat="47.85934" lon="6.87148">
        <ele>876.8</ele>
        <time>2026-08-20T07:06:38.000Z</time>
      </trkpt>
      <trkpt lat="47.85939" lon="6.87168">
        <ele>877.6</ele>
        <time>2026-08-20T07:06:43.000Z</time>
      </trkpt>
      <trkpt lat="47.85942" lon="6.87175">
        <ele>878</ele>
        <time>2026-08-20T07:06:45.000Z</time>
      </trkpt>
      <trkpt lat="47.8595" lon="6.87198">
        <ele>879.2</ele>
        <time>2026-08-20T07:06:51.000Z</time>
      </trkpt>
      <trkpt lat="47.85954" lon="6.87211">
        <ele>880.4</ele>
        <time>2026-08-20T07:06:55.000Z</time>
      </trkpt>
      <trkpt lat="47.8596" lon="6.87223">
        <ele>881.6</ele>
        <time>2026-08-20T07:06:59.000Z</time>
      </trkpt>
      <trkpt lat="47.85965" lon="6.87235">
        <ele>883</ele>
        <time>2026-08-20T07:07:03.000Z</time>
      </trkpt>
      <trkpt lat="47.8597" lon="6.87242">
        <ele>884</ele>
        <time>2026-08-20T07:07:06.000Z</time>
      </trkpt>
      <trkpt lat="47.85972" lon="6.87247">
        <ele>884.8</ele>
        <time>2026-08-20T07:07:08.000Z</time>
      </trkpt>
      <trkpt lat="47.85973" lon="6.87249">
        <ele>885.2</ele>
        <time>2026-08-20T07:07:09.000Z</time>
      </trkpt>
      <trkpt lat="47.85979" lon="6.87259">
        <ele>886.4</ele>
        <time>2026-08-20T07:07:13.000Z</time>
      </trkpt>
      <trkpt lat="47.85986" lon="6.87271">
        <ele>887.2</ele>
        <time>2026-08-20T07:07:17.000Z</time>
      </trkpt>
      <trkpt lat="47.8599" lon="6.87277">
        <ele>887.4</ele>
        <time>2026-08-20T07:07:19.000Z</time>
      </trkpt>
      <trkpt lat="47.86001" lon="6.87294">
        <ele>888.8</ele>
        <time>2026-08-20T07:07:25.000Z</time>
      </trkpt>
      <trkpt lat="47.86004" lon="6.87299">
        <ele>889.2</ele>
        <time>2026-08-20T07:07:27.000Z</time>
      </trkpt>
      <trkpt lat="47.86008" lon="6.87303">
        <ele>890</ele>
        <time>2026-08-20T07:07:29.000Z</time>
      </trkpt>
      <trkpt lat="47.86017" lon="6.87317">
        <ele>891.2</ele>
        <time>2026-08-20T07:07:34.000Z</time>
      </trkpt>
      <trkpt lat="47.86026" lon="6.87331">
        <ele>892.4</ele>
        <time>2026-08-20T07:07:39.000Z</time>
      </trkpt>
      <trkpt lat="47.86033" lon="6.87342">
        <ele>893.4</ele>
        <time>2026-08-20T07:07:43.000Z</time>
      </trkpt>
      <trkpt lat="47.86042" lon="6.87356">
        <ele>894.2</ele>
        <time>2026-08-20T07:07:48.000Z</time>
      </trkpt>
      <trkpt lat="47.86044" lon="6.87359">
        <ele>894.4</ele>
        <time>2026-08-20T07:07:49.000Z</time>
      </trkpt>
      <trkpt lat="47.86058" lon="6.8737">
        <ele>895.4</ele>
        <time>2026-08-20T07:07:55.000Z</time>
      </trkpt>
      <trkpt lat="47.8606" lon="6.87372">
        <ele>895.6</ele>
        <time>2026-08-20T07:07:56.000Z</time>
      </trkpt>
      <trkpt lat="47.86072" lon="6.87378">
        <ele>896.8</ele>
        <time>2026-08-20T07:08:01.000Z</time>
      </trkpt>
      <trkpt lat="47.8608" lon="6.87382">
        <ele>897.4</ele>
        <time>2026-08-20T07:08:04.000Z</time>
      </trkpt>
      <trkpt lat="47.86086" lon="6.87385">
        <ele>897.8</ele>
        <time>2026-08-20T07:08:06.000Z</time>
      </trkpt>
      <trkpt lat="47.86103" lon="6.87398">
        <ele>899</ele>
        <time>2026-08-20T07:08:13.000Z</time>
      </trkpt>
      <trkpt lat="47.86105" lon="6.87401">
        <ele>899</ele>
        <time>2026-08-20T07:08:14.000Z</time>
      </trkpt>
      <trkpt lat="47.86114" lon="6.8741">
        <ele>900</ele>
        <time>2026-08-20T07:08:18.000Z</time>
      </trkpt>
      <trkpt lat="47.8612" lon="6.87416">
        <ele>901</ele>
        <time>2026-08-20T07:08:21.000Z</time>
      </trkpt>
      <trkpt lat="47.86127" lon="6.87422">
        <ele>902</ele>
        <time>2026-08-20T07:08:24.000Z</time>
      </trkpt>
      <trkpt lat="47.86129" lon="6.87424">
        <ele>902.2</ele>
        <time>2026-08-20T07:08:25.000Z</time>
      </trkpt>
      <trkpt lat="47.86135" lon="6.8743">
        <ele>903.4</ele>
        <time>2026-08-20T07:08:28.000Z</time>
      </trkpt>
      <trkpt lat="47.86141" lon="6.87433">
        <ele>904</ele>
        <time>2026-08-20T07:08:31.000Z</time>
      </trkpt>
      <trkpt lat="47.86146" lon="6.87431">
        <ele>904.4</ele>
        <time>2026-08-20T07:08:33.000Z</time>
      </trkpt>
      <trkpt lat="47.86153" lon="6.87425">
        <ele>904.6</ele>
        <time>2026-08-20T07:08:36.000Z</time>
      </trkpt>
      <trkpt lat="47.86168" lon="6.87408">
        <ele>905</ele>
        <time>2026-08-20T07:08:42.000Z</time>
      </trkpt>
      <trkpt lat="47.86173" lon="6.87403">
        <ele>905.4</ele>
        <time>2026-08-20T07:08:44.000Z</time>
      </trkpt>
      <trkpt lat="47.86183" lon="6.87395">
        <ele>906.6</ele>
        <time>2026-08-20T07:08:48.000Z</time>
      </trkpt>
      <trkpt lat="47.86189" lon="6.8739">
        <ele>907.8</ele>
        <time>2026-08-20T07:08:51.000Z</time>
      </trkpt>
      <trkpt lat="47.86191" lon="6.87389">
        <ele>908.2</ele>
        <time>2026-08-20T07:08:52.000Z</time>
      </trkpt>
      <trkpt lat="47.86194" lon="6.87385">
        <ele>909</ele>
        <time>2026-08-20T07:08:54.000Z</time>
      </trkpt>
      <trkpt lat="47.86198" lon="6.8738">
        <ele>910.2</ele>
        <time>2026-08-20T07:08:57.000Z</time>
      </trkpt>
      <trkpt lat="47.86201" lon="6.87375">
        <ele>911</ele>
        <time>2026-08-20T07:08:59.000Z</time>
      </trkpt>
      <trkpt lat="47.86203" lon="6.87372">
        <ele>911.2</ele>
        <time>2026-08-20T07:09:00.000Z</time>
      </trkpt>
      <trkpt lat="47.86206" lon="6.87366">
        <ele>911.8</ele>
        <time>2026-08-20T07:09:02.000Z</time>
      </trkpt>
      <trkpt lat="47.8621" lon="6.87358">
        <ele>912.4</ele>
        <time>2026-08-20T07:09:05.000Z</time>
      </trkpt>
      <trkpt lat="47.86217" lon="6.87348">
        <ele>913.4</ele>
        <time>2026-08-20T07:09:09.000Z</time>
      </trkpt>
      <trkpt lat="47.86219" lon="6.87345">
        <ele>913.6</ele>
        <time>2026-08-20T07:09:10.000Z</time>
      </trkpt>
      <trkpt lat="47.86229" lon="6.8733">
        <ele>914.6</ele>
        <time>2026-08-20T07:09:15.000Z</time>
      </trkpt>
      <trkpt lat="47.86236" lon="6.87322">
        <ele>915.2</ele>
        <time>2026-08-20T07:09:18.000Z</time>
      </trkpt>
      <trkpt lat="47.8624" lon="6.87316">
        <ele>915.8</ele>
        <time>2026-08-20T07:09:20.000Z</time>
      </trkpt>
      <trkpt lat="47.86253" lon="6.87297">
        <ele>916.8</ele>
        <time>2026-08-20T07:09:26.000Z</time>
      </trkpt>
      <trkpt lat="47.86258" lon="6.87291">
        <ele>917.4</ele>
        <time>2026-08-20T07:09:28.000Z</time>
      </trkpt>
      <trkpt lat="47.86265" lon="6.87283">
        <ele>918</ele>
        <time>2026-08-20T07:09:31.000Z</time>
      </trkpt>
      <trkpt lat="47.86278" lon="6.8727">
        <ele>918.8</ele>
        <time>2026-08-20T07:09:36.000Z</time>
      </trkpt>
      <trkpt lat="47.8628" lon="6.87268">
        <ele>919</ele>
        <time>2026-08-20T07:09:37.000Z</time>
      </trkpt>
      <trkpt lat="47.86298" lon="6.87252">
        <ele>919.8</ele>
        <time>2026-08-20T07:09:43.000Z</time>
      </trkpt>
      <trkpt lat="47.86313" lon="6.8724">
        <ele>919.8</ele>
        <time>2026-08-20T07:09:48.000Z</time>
      </trkpt>
      <trkpt lat="47.86315" lon="6.87239">
        <ele>919.6</ele>
        <time>2026-08-20T07:09:49.000Z</time>
      </trkpt>
      <trkpt lat="47.86323" lon="6.87232">
        <ele>919.6</ele>
        <time>2026-08-20T07:09:52.000Z</time>
      </trkpt>
      <trkpt lat="47.86329" lon="6.87226">
        <ele>919.4</ele>
        <time>2026-08-20T07:09:54.000Z</time>
      </trkpt>
      <trkpt lat="47.86349" lon="6.87213">
        <ele>918.6</ele>
        <time>2026-08-20T07:09:59.000Z</time>
      </trkpt>
      <trkpt lat="47.86357" lon="6.87216">
        <ele>918</ele>
        <time>2026-08-20T07:10:01.000Z</time>
      </trkpt>
      <trkpt lat="47.86361" lon="6.87219">
        <ele>917.8</ele>
        <time>2026-08-20T07:10:02.000Z</time>
      </trkpt>
      <trkpt lat="47.86373" lon="6.87234">
        <ele>918</ele>
        <time>2026-08-20T07:10:06.000Z</time>
      </trkpt>
      <trkpt lat="47.8638" lon="6.87244">
        <ele>919</ele>
        <time>2026-08-20T07:10:09.000Z</time>
      </trkpt>
      <trkpt lat="47.86382" lon="6.87248">
        <ele>919.2</ele>
        <time>2026-08-20T07:10:10.000Z</time>
      </trkpt>
      <trkpt lat="47.86384" lon="6.87251">
        <ele>919.6</ele>
        <time>2026-08-20T07:10:11.000Z</time>
      </trkpt>
      <trkpt lat="47.86386" lon="6.87255">
        <ele>919.8</ele>
        <time>2026-08-20T07:10:12.000Z</time>
      </trkpt>
      <trkpt lat="47.86388" lon="6.87258">
        <ele>920</ele>
        <time>2026-08-20T07:10:13.000Z</time>
      </trkpt>
      <trkpt lat="47.86398" lon="6.87277">
        <ele>921</ele>
        <time>2026-08-20T07:10:18.000Z</time>
      </trkpt>
      <trkpt lat="47.86403" lon="6.87286">
        <ele>921.2</ele>
        <time>2026-08-20T07:10:20.000Z</time>
      </trkpt>
      <trkpt lat="47.86413" lon="6.87311">
        <ele>921.4</ele>
        <time>2026-08-20T07:10:25.000Z</time>
      </trkpt>
      <trkpt lat="47.86418" lon="6.87327">
        <ele>921.4</ele>
        <time>2026-08-20T07:10:28.000Z</time>
      </trkpt>
      <trkpt lat="47.86424" lon="6.87352">
        <ele>922.2</ele>
        <time>2026-08-20T07:10:33.000Z</time>
      </trkpt>
      <trkpt lat="47.86424" lon="6.87362">
        <ele>922.6</ele>
        <time>2026-08-20T07:10:35.000Z</time>
      </trkpt>
      <trkpt lat="47.86425" lon="6.8739">
        <ele>922.6</ele>
        <time>2026-08-20T07:10:40.000Z</time>
      </trkpt>
      <trkpt lat="47.86426" lon="6.87397">
        <ele>922.4</ele>
        <time>2026-08-20T07:10:41.000Z</time>
      </trkpt>
      <trkpt lat="47.86428" lon="6.87425">
        <ele>922.2</ele>
        <time>2026-08-20T07:10:45.000Z</time>
      </trkpt>
      <trkpt lat="47.86428" lon="6.8745">
        <ele>922.8</ele>
        <time>2026-08-20T07:10:49.000Z</time>
      </trkpt>
      <trkpt lat="47.86427" lon="6.87461">
        <ele>923.4</ele>
        <time>2026-08-20T07:10:51.000Z</time>
      </trkpt>
      <trkpt lat="47.86426" lon="6.87481">
        <ele>924.4</ele>
        <time>2026-08-20T07:10:55.000Z</time>
      </trkpt>
      <trkpt lat="47.86425" lon="6.8749">
        <ele>925</ele>
        <time>2026-08-20T07:10:57.000Z</time>
      </trkpt>
      <trkpt lat="47.86425" lon="6.87498">
        <ele>925.6</ele>
        <time>2026-08-20T07:10:59.000Z</time>
      </trkpt>
      <trkpt lat="47.86426" lon="6.87514">
        <ele>926.8</ele>
        <time>2026-08-20T07:11:03.000Z</time>
      </trkpt>
      <trkpt lat="47.86425" lon="6.87519">
        <ele>927</ele>
        <time>2026-08-20T07:11:04.000Z</time>
      </trkpt>
      <trkpt lat="47.86425" lon="6.87537">
        <ele>928</ele>
        <time>2026-08-20T07:11:08.000Z</time>
      </trkpt>
      <trkpt lat="47.86423" lon="6.87561">
        <ele>929</ele>
        <time>2026-08-20T07:11:13.000Z</time>
      </trkpt>
      <trkpt lat="47.86422" lon="6.87566">
        <ele>929.2</ele>
        <time>2026-08-20T07:11:14.000Z</time>
      </trkpt>
      <trkpt lat="47.8642" lon="6.8758">
        <ele>929.8</ele>
        <time>2026-08-20T07:11:17.000Z</time>
      </trkpt>
      <trkpt lat="47.86419" lon="6.87596">
        <ele>930.2</ele>
        <time>2026-08-20T07:11:20.000Z</time>
      </trkpt>
      <trkpt lat="47.86417" lon="6.87616">
        <ele>930.8</ele>
        <time>2026-08-20T07:11:24.000Z</time>
      </trkpt>
      <trkpt lat="47.86416" lon="6.87647">
        <ele>931.2</ele>
        <time>2026-08-20T07:11:30.000Z</time>
      </trkpt>
      <trkpt lat="47.86415" lon="6.8766">
        <ele>931.2</ele>
        <time>2026-08-20T07:11:32.000Z</time>
      </trkpt>
      <trkpt lat="47.86415" lon="6.8769">
        <ele>932</ele>
        <time>2026-08-20T07:11:37.000Z</time>
      </trkpt>
      <trkpt lat="47.86414" lon="6.87701">
        <ele>932.2</ele>
        <time>2026-08-20T07:11:39.000Z</time>
      </trkpt>
      <trkpt lat="47.86415" lon="6.87712">
        <ele>932.4</ele>
        <time>2026-08-20T07:11:41.000Z</time>
      </trkpt>
      <trkpt lat="47.86422" lon="6.87734">
        <ele>932.8</ele>
        <time>2026-08-20T07:11:45.000Z</time>
      </trkpt>
      <trkpt lat="47.86435" lon="6.8775">
        <ele>933.4</ele>
        <time>2026-08-20T07:11:50.000Z</time>
      </trkpt>
      <trkpt lat="47.86452" lon="6.87766">
        <ele>934.4</ele>
        <time>2026-08-20T07:11:56.000Z</time>
      </trkpt>
      <trkpt lat="47.86455" lon="6.8777">
        <ele>934.4</ele>
        <time>2026-08-20T07:11:57.000Z</time>
      </trkpt>
      <trkpt lat="47.8647" lon="6.8778">
        <ele>935</ele>
        <time>2026-08-20T07:12:02.000Z</time>
      </trkpt>
      <trkpt lat="47.86477" lon="6.87782">
        <ele>935.4</ele>
        <time>2026-08-20T07:12:04.000Z</time>
      </trkpt>
      <trkpt lat="47.86493" lon="6.87788">
        <ele>936</ele>
        <time>2026-08-20T07:12:09.000Z</time>
      </trkpt>
      <trkpt lat="47.86502" lon="6.87792">
        <ele>936.6</ele>
        <time>2026-08-20T07:12:12.000Z</time>
      </trkpt>
      <trkpt lat="47.86516" lon="6.87799">
        <ele>937.2</ele>
        <time>2026-08-20T07:12:16.000Z</time>
      </trkpt>
      <trkpt lat="47.8653" lon="6.87816">
        <ele>937</ele>
        <time>2026-08-20T07:12:20.000Z</time>
      </trkpt>
      <trkpt lat="47.86532" lon="6.87823">
        <ele>937</ele>
        <time>2026-08-20T07:12:21.000Z</time>
      </trkpt>
      <trkpt lat="47.86541" lon="6.8785">
        <ele>937.6</ele>
        <time>2026-08-20T07:12:26.000Z</time>
      </trkpt>
      <trkpt lat="47.86542" lon="6.87855">
        <ele>938</ele>
        <time>2026-08-20T07:12:27.000Z</time>
      </trkpt>
      <trkpt lat="47.86546" lon="6.87865">
        <ele>938.6</ele>
        <time>2026-08-20T07:12:29.000Z</time>
      </trkpt>
      <trkpt lat="47.86555" lon="6.87891">
        <ele>939.6</ele>
        <time>2026-08-20T07:12:35.000Z</time>
      </trkpt>
      <trkpt lat="47.86557" lon="6.87895">
        <ele>939.8</ele>
        <time>2026-08-20T07:12:36.000Z</time>
      </trkpt>
      <trkpt lat="47.86568" lon="6.87918">
        <ele>940.6</ele>
        <time>2026-08-20T07:12:41.000Z</time>
      </trkpt>
      <trkpt lat="47.8657" lon="6.87923">
        <ele>940.6</ele>
        <time>2026-08-20T07:12:42.000Z</time>
      </trkpt>
      <trkpt lat="47.86573" lon="6.87932">
        <ele>941.2</ele>
        <time>2026-08-20T07:12:44.000Z</time>
      </trkpt>
      <trkpt lat="47.86577" lon="6.87947">
        <ele>941.8</ele>
        <time>2026-08-20T07:12:47.000Z</time>
      </trkpt>
      <trkpt lat="47.86584" lon="6.87976">
        <ele>943</ele>
        <time>2026-08-20T07:12:53.000Z</time>
      </trkpt>
      <trkpt lat="47.86589" lon="6.87999">
        <ele>944</ele>
        <time>2026-08-20T07:12:58.000Z</time>
      </trkpt>
      <trkpt lat="47.86591" lon="6.88013">
        <ele>944.6</ele>
        <time>2026-08-20T07:13:01.000Z</time>
      </trkpt>
      <trkpt lat="47.86592" lon="6.88021">
        <ele>945.2</ele>
        <time>2026-08-20T07:13:03.000Z</time>
      </trkpt>
      <trkpt lat="47.86595" lon="6.88039">
        <ele>946.2</ele>
        <time>2026-08-20T07:13:07.000Z</time>
      </trkpt>
      <trkpt lat="47.86596" lon="6.88043">
        <ele>946.4</ele>
        <time>2026-08-20T07:13:08.000Z</time>
      </trkpt>
      <trkpt lat="47.86598" lon="6.88051">
        <ele>947</ele>
        <time>2026-08-20T07:13:10.000Z</time>
      </trkpt>
      <trkpt lat="47.86599" lon="6.88054">
        <ele>947.4</ele>
        <time>2026-08-20T07:13:11.000Z</time>
      </trkpt>
      <trkpt lat="47.86605" lon="6.88074">
        <ele>948.4</ele>
        <time>2026-08-20T07:13:16.000Z</time>
      </trkpt>
      <trkpt lat="47.86606" lon="6.88079">
        <ele>948.4</ele>
        <time>2026-08-20T07:13:17.000Z</time>
      </trkpt>
      <trkpt lat="47.86607" lon="6.88083">
        <ele>948.6</ele>
        <time>2026-08-20T07:13:18.000Z</time>
      </trkpt>
      <trkpt lat="47.86609" lon="6.88087">
        <ele>948.8</ele>
        <time>2026-08-20T07:13:19.000Z</time>
      </trkpt>
      <trkpt lat="47.86612" lon="6.881">
        <ele>949.6</ele>
        <time>2026-08-20T07:13:22.000Z</time>
      </trkpt>
      <trkpt lat="47.86619" lon="6.88126">
        <ele>950.6</ele>
        <time>2026-08-20T07:13:28.000Z</time>
      </trkpt>
      <trkpt lat="47.8662" lon="6.8813">
        <ele>950.8</ele>
        <time>2026-08-20T07:13:29.000Z</time>
      </trkpt>
      <trkpt lat="47.86624" lon="6.88143">
        <ele>951.4</ele>
        <time>2026-08-20T07:13:32.000Z</time>
      </trkpt>
      <trkpt lat="47.86626" lon="6.88147">
        <ele>951.6</ele>
        <time>2026-08-20T07:13:33.000Z</time>
      </trkpt>
      <trkpt lat="47.86627" lon="6.88151">
        <ele>951.8</ele>
        <time>2026-08-20T07:13:34.000Z</time>
      </trkpt>
      <trkpt lat="47.86632" lon="6.88168">
        <ele>952.8</ele>
        <time>2026-08-20T07:13:38.000Z</time>
      </trkpt>
      <trkpt lat="47.86634" lon="6.88177">
        <ele>953</ele>
        <time>2026-08-20T07:13:40.000Z</time>
      </trkpt>
      <trkpt lat="47.86639" lon="6.88193">
        <ele>953.8</ele>
        <time>2026-08-20T07:13:44.000Z</time>
      </trkpt>
      <trkpt lat="47.86642" lon="6.88206">
        <ele>954.6</ele>
        <time>2026-08-20T07:13:47.000Z</time>
      </trkpt>
      <trkpt lat="47.86645" lon="6.88214">
        <ele>955.2</ele>
        <time>2026-08-20T07:13:49.000Z</time>
      </trkpt>
      <trkpt lat="47.86651" lon="6.88235">
        <ele>956.2</ele>
        <time>2026-08-20T07:13:54.000Z</time>
      </trkpt>
      <trkpt lat="47.86652" lon="6.88239">
        <ele>956.4</ele>
        <time>2026-08-20T07:13:55.000Z</time>
      </trkpt>
      <trkpt lat="47.86656" lon="6.88254">
        <ele>957.4</ele>
        <time>2026-08-20T07:13:59.000Z</time>
      </trkpt>
      <trkpt lat="47.86662" lon="6.88275">
        <ele>958.4</ele>
        <time>2026-08-20T07:14:04.000Z</time>
      </trkpt>
      <trkpt lat="47.86664" lon="6.88283">
        <ele>958.8</ele>
        <time>2026-08-20T07:14:06.000Z</time>
      </trkpt>
      <trkpt lat="47.86667" lon="6.88295">
        <ele>959.4</ele>
        <time>2026-08-20T07:14:09.000Z</time>
      </trkpt>
      <trkpt lat="47.86673" lon="6.88315">
        <ele>960.6</ele>
        <time>2026-08-20T07:14:14.000Z</time>
      </trkpt>
      <trkpt lat="47.86674" lon="6.88319">
        <ele>960.8</ele>
        <time>2026-08-20T07:14:15.000Z</time>
      </trkpt>
      <trkpt lat="47.86681" lon="6.88337">
        <ele>961.8</ele>
        <time>2026-08-20T07:14:20.000Z</time>
      </trkpt>
      <trkpt lat="47.86689" lon="6.88355">
        <ele>963.2</ele>
        <time>2026-08-20T07:14:25.000Z</time>
      </trkpt>
      <trkpt lat="47.86694" lon="6.88368">
        <ele>964.2</ele>
        <time>2026-08-20T07:14:29.000Z</time>
      </trkpt>
      <trkpt lat="47.86702" lon="6.88387">
        <ele>965.4</ele>
        <time>2026-08-20T07:14:34.000Z</time>
      </trkpt>
      <trkpt lat="47.86713" lon="6.88409">
        <ele>966.2</ele>
        <time>2026-08-20T07:14:40.000Z</time>
      </trkpt>
      <trkpt lat="47.86715" lon="6.88413">
        <ele>966.6</ele>
        <time>2026-08-20T07:14:41.000Z</time>
      </trkpt>
      <trkpt lat="47.8672" lon="6.88424">
        <ele>967</ele>
        <time>2026-08-20T07:14:44.000Z</time>
      </trkpt>
      <trkpt lat="47.86725" lon="6.88435">
        <ele>967.8</ele>
        <time>2026-08-20T07:14:47.000Z</time>
      </trkpt>
      <trkpt lat="47.86732" lon="6.88449">
        <ele>968.8</ele>
        <time>2026-08-20T07:14:51.000Z</time>
      </trkpt>
      <trkpt lat="47.86736" lon="6.88456">
        <ele>969.2</ele>
        <time>2026-08-20T07:14:53.000Z</time>
      </trkpt>
      <trkpt lat="47.86747" lon="6.88472">
        <ele>969.8</ele>
        <time>2026-08-20T07:14:58.000Z</time>
      </trkpt>
      <trkpt lat="47.86756" lon="6.88483">
        <ele>970.2</ele>
        <time>2026-08-20T07:15:02.000Z</time>
      </trkpt>
      <trkpt lat="47.86766" lon="6.88495">
        <ele>970.8</ele>
        <time>2026-08-20T07:15:06.000Z</time>
      </trkpt>
      <trkpt lat="47.8678" lon="6.88511">
        <ele>971.6</ele>
        <time>2026-08-20T07:15:11.000Z</time>
      </trkpt>
      <trkpt lat="47.86785" lon="6.88517">
        <ele>972</ele>
        <time>2026-08-20T07:15:13.000Z</time>
      </trkpt>
      <trkpt lat="47.86787" lon="6.8852">
        <ele>972.2</ele>
        <time>2026-08-20T07:15:14.000Z</time>
      </trkpt>
      <trkpt lat="47.86794" lon="6.88547">
        <ele>972.8</ele>
        <time>2026-08-20T07:15:20.000Z</time>
      </trkpt>
      <trkpt lat="47.86795" lon="6.88556">
        <ele>973</ele>
        <time>2026-08-20T07:15:22.000Z</time>
      </trkpt>
      <trkpt lat="47.86793" lon="6.88578">
        <ele>974.2</ele>
        <time>2026-08-20T07:15:27.000Z</time>
      </trkpt>
      <trkpt lat="47.86792" lon="6.88581">
        <ele>974.4</ele>
        <time>2026-08-20T07:15:28.000Z</time>
      </trkpt>
      <trkpt lat="47.86792" lon="6.88592">
        <ele>975.2</ele>
        <time>2026-08-20T07:15:31.000Z</time>
      </trkpt>
      <trkpt lat="47.86794" lon="6.88608">
        <ele>976.2</ele>
        <time>2026-08-20T07:15:35.000Z</time>
      </trkpt>
      <trkpt lat="47.86794" lon="6.88613">
        <ele>976.4</ele>
        <time>2026-08-20T07:15:36.000Z</time>
      </trkpt>
      <trkpt lat="47.86796" lon="6.88636">
        <ele>977.4</ele>
        <time>2026-08-20T07:15:41.000Z</time>
      </trkpt>
      <trkpt lat="47.86797" lon="6.88645">
        <ele>978</ele>
        <time>2026-08-20T07:15:43.000Z</time>
      </trkpt>
      <trkpt lat="47.86798" lon="6.88657">
        <ele>978.6</ele>
        <time>2026-08-20T07:15:46.000Z</time>
      </trkpt>
      <trkpt lat="47.86799" lon="6.88677">
        <ele>979.6</ele>
        <time>2026-08-20T07:15:51.000Z</time>
      </trkpt>
      <trkpt lat="47.86801" lon="6.88703">
        <ele>981</ele>
        <time>2026-08-20T07:15:57.000Z</time>
      </trkpt>
      <trkpt lat="47.86803" lon="6.88715">
        <ele>981.6</ele>
        <time>2026-08-20T07:16:00.000Z</time>
      </trkpt>
      <trkpt lat="47.86804" lon="6.88718">
        <ele>982</ele>
        <time>2026-08-20T07:16:01.000Z</time>
      </trkpt>
      <trkpt lat="47.86808" lon="6.88741">
        <ele>983</ele>
        <time>2026-08-20T07:16:06.000Z</time>
      </trkpt>
      <trkpt lat="47.86809" lon="6.8875">
        <ele>983.4</ele>
        <time>2026-08-20T07:16:08.000Z</time>
      </trkpt>
      <trkpt lat="47.8681" lon="6.88768">
        <ele>984</ele>
        <time>2026-08-20T07:16:12.000Z</time>
      </trkpt>
      <trkpt lat="47.86811" lon="6.8879">
        <ele>984.4</ele>
        <time>2026-08-20T07:16:16.000Z</time>
      </trkpt>
      <trkpt lat="47.86813" lon="6.88819">
        <ele>985</ele>
        <time>2026-08-20T07:16:22.000Z</time>
      </trkpt>
      <trkpt lat="47.86813" lon="6.88824">
        <ele>985.2</ele>
        <time>2026-08-20T07:16:23.000Z</time>
      </trkpt>
      <trkpt lat="47.86813" lon="6.88848">
        <ele>986.2</ele>
        <time>2026-08-20T07:16:28.000Z</time>
      </trkpt>
      <trkpt lat="47.86812" lon="6.88861">
        <ele>987</ele>
        <time>2026-08-20T07:16:31.000Z</time>
      </trkpt>
      <trkpt lat="47.86811" lon="6.88866">
        <ele>987.4</ele>
        <time>2026-08-20T07:16:32.000Z</time>
      </trkpt>
      <trkpt lat="47.86807" lon="6.88891">
        <ele>988.4</ele>
        <time>2026-08-20T07:16:37.000Z</time>
      </trkpt>
      <trkpt lat="47.868" lon="6.88917">
        <ele>988.6</ele>
        <time>2026-08-20T07:16:42.000Z</time>
      </trkpt>
      <trkpt lat="47.86796" lon="6.88933">
        <ele>988.8</ele>
        <time>2026-08-20T07:16:45.000Z</time>
      </trkpt>
      <trkpt lat="47.86787" lon="6.8896">
        <ele>989.2</ele>
        <time>2026-08-20T07:16:51.000Z</time>
      </trkpt>
      <trkpt lat="47.86784" lon="6.88968">
        <ele>989.4</ele>
        <time>2026-08-20T07:16:53.000Z</time>
      </trkpt>
      <trkpt lat="47.86783" lon="6.88973">
        <ele>989.4</ele>
        <time>2026-08-20T07:16:54.000Z</time>
      </trkpt>
      <trkpt lat="47.86774" lon="6.88999">
        <ele>989.2</ele>
        <time>2026-08-20T07:17:00.000Z</time>
      </trkpt>
      <trkpt lat="47.86768" lon="6.89012">
        <ele>988.6</ele>
        <time>2026-08-20T07:17:03.000Z</time>
      </trkpt>
      <trkpt lat="47.86765" lon="6.89016">
        <ele>988.2</ele>
        <time>2026-08-20T07:17:04.000Z</time>
      </trkpt>
      <trkpt lat="47.86754" lon="6.89034">
        <ele>987.2</ele>
        <time>2026-08-20T07:17:08.000Z</time>
      </trkpt>
      <trkpt lat="47.86751" lon="6.89039">
        <ele>986.8</ele>
        <time>2026-08-20T07:17:09.000Z</time>
      </trkpt>
      <trkpt lat="47.86748" lon="6.89045">
        <ele>986.6</ele>
        <time>2026-08-20T07:17:10.000Z</time>
      </trkpt>
      <trkpt lat="47.86745" lon="6.8905">
        <ele>986.2</ele>
        <time>2026-08-20T07:17:11.000Z</time>
      </trkpt>
      <trkpt lat="47.86743" lon="6.89055">
        <ele>986</ele>
        <time>2026-08-20T07:17:12.000Z</time>
      </trkpt>
      <trkpt lat="47.86733" lon="6.89071">
        <ele>984.8</ele>
        <time>2026-08-20T07:17:15.000Z</time>
      </trkpt>
      <trkpt lat="47.86725" lon="6.89079">
        <ele>984.2</ele>
        <time>2026-08-20T07:17:17.000Z</time>
      </trkpt>
      <trkpt lat="47.86719" lon="6.89087">
        <ele>983.8</ele>
        <time>2026-08-20T07:17:19.000Z</time>
      </trkpt>
      <trkpt lat="47.8671" lon="6.89102">
        <ele>983.8</ele>
        <time>2026-08-20T07:17:22.000Z</time>
      </trkpt>
      <trkpt lat="47.86707" lon="6.89109">
        <ele>983.6</ele>
        <time>2026-08-20T07:17:23.000Z</time>
      </trkpt>
      <trkpt lat="47.86697" lon="6.89123">
        <ele>983.4</ele>
        <time>2026-08-20T07:17:26.000Z</time>
      </trkpt>
      <trkpt lat="47.8669" lon="6.89128">
        <ele>983</ele>
        <time>2026-08-20T07:17:28.000Z</time>
      </trkpt>
      <trkpt lat="47.86686" lon="6.89131">
        <ele>982.8</ele>
        <time>2026-08-20T07:17:29.000Z</time>
      </trkpt>
      <trkpt lat="47.86682" lon="6.89133">
        <ele>982.6</ele>
        <time>2026-08-20T07:17:30.000Z</time>
      </trkpt>
      <trkpt lat="47.86662" lon="6.89141">
        <ele>981.4</ele>
        <time>2026-08-20T07:17:34.000Z</time>
      </trkpt>
      <trkpt lat="47.86658" lon="6.89143">
        <ele>981.2</ele>
        <time>2026-08-20T07:17:35.000Z</time>
      </trkpt>
      <trkpt lat="47.86648" lon="6.89147">
        <ele>980.4</ele>
        <time>2026-08-20T07:17:37.000Z</time>
      </trkpt>
      <trkpt lat="47.86633" lon="6.89152">
        <ele>979.2</ele>
        <time>2026-08-20T07:17:40.000Z</time>
      </trkpt>
      <trkpt lat="47.86628" lon="6.89154">
        <ele>979</ele>
        <time>2026-08-20T07:17:41.000Z</time>
      </trkpt>
      <trkpt lat="47.86619" lon="6.89158">
        <ele>978.4</ele>
        <time>2026-08-20T07:17:43.000Z</time>
      </trkpt>
      <trkpt lat="47.86615" lon="6.89159">
        <ele>978.2</ele>
        <time>2026-08-20T07:17:44.000Z</time>
      </trkpt>
      <trkpt lat="47.86597" lon="6.89167">
        <ele>977.2</ele>
        <time>2026-08-20T07:17:49.000Z</time>
      </trkpt>
      <trkpt lat="47.86593" lon="6.89169">
        <ele>977</ele>
        <time>2026-08-20T07:17:50.000Z</time>
      </trkpt>
      <trkpt lat="47.86581" lon="6.89173">
        <ele>975.6</ele>
        <time>2026-08-20T07:17:53.000Z</time>
      </trkpt>
      <trkpt lat="47.86569" lon="6.8918">
        <ele>974.4</ele>
        <time>2026-08-20T07:17:56.000Z</time>
      </trkpt>
      <trkpt lat="47.8656" lon="6.89187">
        <ele>973.8</ele>
        <time>2026-08-20T07:17:58.000Z</time>
      </trkpt>
      <trkpt lat="47.86556" lon="6.89191">
        <ele>973.2</ele>
        <time>2026-08-20T07:17:59.000Z</time>
      </trkpt>
      <trkpt lat="47.86552" lon="6.89197">
        <ele>972.6</ele>
        <time>2026-08-20T07:18:00.000Z</time>
      </trkpt>
      <trkpt lat="47.86548" lon="6.89203">
        <ele>972</ele>
        <time>2026-08-20T07:18:01.000Z</time>
      </trkpt>
      <trkpt lat="47.86537" lon="6.89221">
        <ele>971</ele>
        <time>2026-08-20T07:18:04.000Z</time>
      </trkpt>
      <trkpt lat="47.86528" lon="6.89237">
        <ele>969.8</ele>
        <time>2026-08-20T07:18:07.000Z</time>
      </trkpt>
      <trkpt lat="47.86518" lon="6.89255">
        <ele>968.8</ele>
        <time>2026-08-20T07:18:10.000Z</time>
      </trkpt>
      <trkpt lat="47.86505" lon="6.89277">
        <ele>967.6</ele>
        <time>2026-08-20T07:18:14.000Z</time>
      </trkpt>
      <trkpt lat="47.86491" lon="6.89299">
        <ele>966.2</ele>
        <time>2026-08-20T07:18:18.000Z</time>
      </trkpt>
      <trkpt lat="47.86481" lon="6.89323">
        <ele>964.8</ele>
        <time>2026-08-20T07:18:21.000Z</time>
      </trkpt>
      <trkpt lat="47.86479" lon="6.89331">
        <ele>964.4</ele>
        <time>2026-08-20T07:18:22.000Z</time>
      </trkpt>
      <trkpt lat="47.86477" lon="6.89339">
        <ele>964.2</ele>
        <time>2026-08-20T07:18:23.000Z</time>
      </trkpt>
      <trkpt lat="47.86473" lon="6.89354">
        <ele>963.8</ele>
        <time>2026-08-20T07:18:25.000Z</time>
      </trkpt>
      <trkpt lat="47.86465" lon="6.89375">
        <ele>962.6</ele>
        <time>2026-08-20T07:18:28.000Z</time>
      </trkpt>
      <trkpt lat="47.86457" lon="6.89393">
        <ele>961.4</ele>
        <time>2026-08-20T07:18:31.000Z</time>
      </trkpt>
      <trkpt lat="47.86452" lon="6.89397">
        <ele>961</ele>
        <time>2026-08-20T07:18:32.000Z</time>
      </trkpt>
      <trkpt lat="47.86444" lon="6.894">
        <ele>960.4</ele>
        <time>2026-08-20T07:18:34.000Z</time>
      </trkpt>
      <trkpt lat="47.86441" lon="6.89399">
        <ele>960.2</ele>
        <time>2026-08-20T07:18:35.000Z</time>
      </trkpt>
      <trkpt lat="47.86437" lon="6.89398">
        <ele>960</ele>
        <time>2026-08-20T07:18:36.000Z</time>
      </trkpt>
      <trkpt lat="47.86426" lon="6.89395">
        <ele>959.2</ele>
        <time>2026-08-20T07:18:39.000Z</time>
      </trkpt>
      <trkpt lat="47.86421" lon="6.89394">
        <ele>959</ele>
        <time>2026-08-20T07:18:40.000Z</time>
      </trkpt>
      <trkpt lat="47.86408" lon="6.89395">
        <ele>958.4</ele>
        <time>2026-08-20T07:18:43.000Z</time>
      </trkpt>
      <trkpt lat="47.86399" lon="6.894">
        <ele>957.8</ele>
        <time>2026-08-20T07:18:45.000Z</time>
      </trkpt>
      <trkpt lat="47.86394" lon="6.89404">
        <ele>957.6</ele>
        <time>2026-08-20T07:18:46.000Z</time>
      </trkpt>
      <trkpt lat="47.86384" lon="6.89415">
        <ele>956.6</ele>
        <time>2026-08-20T07:18:48.000Z</time>
      </trkpt>
      <trkpt lat="47.86379" lon="6.89422">
        <ele>956.2</ele>
        <time>2026-08-20T07:18:49.000Z</time>
      </trkpt>
      <trkpt lat="47.8637" lon="6.89438">
        <ele>955.6</ele>
        <time>2026-08-20T07:18:52.000Z</time>
      </trkpt>
      <trkpt lat="47.86367" lon="6.89444">
        <ele>955.4</ele>
        <time>2026-08-20T07:18:53.000Z</time>
      </trkpt>
      <trkpt lat="47.8636" lon="6.89465">
        <ele>954</ele>
        <time>2026-08-20T07:18:56.000Z</time>
      </trkpt>
      <trkpt lat="47.86357" lon="6.89473">
        <ele>953.2</ele>
        <time>2026-08-20T07:18:57.000Z</time>
      </trkpt>
      <trkpt lat="47.86355" lon="6.89481">
        <ele>952.4</ele>
        <time>2026-08-20T07:18:58.000Z</time>
      </trkpt>
      <trkpt lat="47.86351" lon="6.89496">
        <ele>951.2</ele>
        <time>2026-08-20T07:19:00.000Z</time>
      </trkpt>
      <trkpt lat="47.86345" lon="6.89522">
        <ele>950.2</ele>
        <time>2026-08-20T07:19:03.000Z</time>
      </trkpt>
      <trkpt lat="47.86344" lon="6.89531">
        <ele>949.8</ele>
        <time>2026-08-20T07:19:04.000Z</time>
      </trkpt>
      <trkpt lat="47.86344" lon="6.89538">
        <ele>949.8</ele>
        <time>2026-08-20T07:19:05.000Z</time>
      </trkpt>
      <trkpt lat="47.8634" lon="6.89566">
        <ele>949.6</ele>
        <time>2026-08-20T07:19:09.000Z</time>
      </trkpt>
      <trkpt lat="47.86337" lon="6.8958">
        <ele>949.4</ele>
        <time>2026-08-20T07:19:11.000Z</time>
      </trkpt>
      <trkpt lat="47.86328" lon="6.89604">
        <ele>948.8</ele>
        <time>2026-08-20T07:19:15.000Z</time>
      </trkpt>
      <trkpt lat="47.86325" lon="6.8961">
        <ele>948.8</ele>
        <time>2026-08-20T07:19:16.000Z</time>
      </trkpt>
      <trkpt lat="47.86314" lon="6.89634">
        <ele>948.4</ele>
        <time>2026-08-20T07:19:20.000Z</time>
      </trkpt>
      <trkpt lat="47.86313" lon="6.89641">
        <ele>948.2</ele>
        <time>2026-08-20T07:19:21.000Z</time>
      </trkpt>
      <trkpt lat="47.86311" lon="6.89655">
        <ele>947.8</ele>
        <time>2026-08-20T07:19:23.000Z</time>
      </trkpt>
      <trkpt lat="47.86314" lon="6.8967">
        <ele>947</ele>
        <time>2026-08-20T07:19:25.000Z</time>
      </trkpt>
      <trkpt lat="47.86316" lon="6.89678">
        <ele>946.6</ele>
        <time>2026-08-20T07:19:26.000Z</time>
      </trkpt>
      <trkpt lat="47.86318" lon="6.89686">
        <ele>946</ele>
        <time>2026-08-20T07:19:27.000Z</time>
      </trkpt>
      <trkpt lat="47.86323" lon="6.89703">
        <ele>945.4</ele>
        <time>2026-08-20T07:19:29.000Z</time>
      </trkpt>
      <trkpt lat="47.86326" lon="6.89711">
        <ele>945.4</ele>
        <time>2026-08-20T07:19:30.000Z</time>
      </trkpt>
      <trkpt lat="47.86331" lon="6.89724">
        <ele>945.6</ele>
        <time>2026-08-20T07:19:32.000Z</time>
      </trkpt>
      <trkpt lat="47.86333" lon="6.89729">
        <ele>945.8</ele>
        <time>2026-08-20T07:19:33.000Z</time>
      </trkpt>
      <trkpt lat="47.86339" lon="6.89739">
        <ele>946.6</ele>
        <time>2026-08-20T07:19:36.000Z</time>
      </trkpt>
      <trkpt lat="47.86342" lon="6.89743">
        <ele>947.2</ele>
        <time>2026-08-20T07:19:38.000Z</time>
      </trkpt>
      <trkpt lat="47.86347" lon="6.89754">
        <ele>947.8</ele>
        <time>2026-08-20T07:19:41.000Z</time>
      </trkpt>
      <trkpt lat="47.86353" lon="6.89766">
        <ele>948.2</ele>
        <time>2026-08-20T07:19:44.000Z</time>
      </trkpt>
      <trkpt lat="47.86361" lon="6.89792">
        <ele>948</ele>
        <time>2026-08-20T07:19:49.000Z</time>
      </trkpt>
      <trkpt lat="47.86363" lon="6.89798">
        <ele>948</ele>
        <time>2026-08-20T07:19:50.000Z</time>
      </trkpt>
      <trkpt lat="47.86371" lon="6.89821">
        <ele>947.2</ele>
        <time>2026-08-20T07:19:54.000Z</time>
      </trkpt>
      <trkpt lat="47.86375" lon="6.89842">
        <ele>947.2</ele>
        <time>2026-08-20T07:19:57.000Z</time>
      </trkpt>
      <trkpt lat="47.86378" lon="6.89862">
        <ele>947.2</ele>
        <time>2026-08-20T07:20:00.000Z</time>
      </trkpt>
      <trkpt lat="47.86377" lon="6.89868">
        <ele>947.2</ele>
        <time>2026-08-20T07:20:01.000Z</time>
      </trkpt>
      <trkpt lat="47.86372" lon="6.89879">
        <ele>947.4</ele>
        <time>2026-08-20T07:20:03.000Z</time>
      </trkpt>
      <trkpt lat="47.86365" lon="6.89884">
        <ele>947.8</ele>
        <time>2026-08-20T07:20:05.000Z</time>
      </trkpt>
      <trkpt lat="47.86358" lon="6.89885">
        <ele>948.2</ele>
        <time>2026-08-20T07:20:07.000Z</time>
      </trkpt>
      <trkpt lat="47.86351" lon="6.89883">
        <ele>948.6</ele>
        <time>2026-08-20T07:20:09.000Z</time>
      </trkpt>
      <trkpt lat="47.86345" lon="6.8988">
        <ele>948.8</ele>
        <time>2026-08-20T07:20:11.000Z</time>
      </trkpt>
      <trkpt lat="47.86342" lon="6.89878">
        <ele>949</ele>
        <time>2026-08-20T07:20:12.000Z</time>
      </trkpt>
      <trkpt lat="47.86325" lon="6.89871">
        <ele>949.6</ele>
        <time>2026-08-20T07:20:17.000Z</time>
      </trkpt>
      <trkpt lat="47.86311" lon="6.89866">
        <ele>950</ele>
        <time>2026-08-20T07:20:21.000Z</time>
      </trkpt>
      <trkpt lat="47.86297" lon="6.89863">
        <ele>950.4</ele>
        <time>2026-08-20T07:20:25.000Z</time>
      </trkpt>
      <trkpt lat="47.86279" lon="6.89857">
        <ele>950.8</ele>
        <time>2026-08-20T07:20:30.000Z</time>
      </trkpt>
      <trkpt lat="47.86275" lon="6.89855">
        <ele>951</ele>
        <time>2026-08-20T07:20:31.000Z</time>
      </trkpt>
      <trkpt lat="47.86264" lon="6.89854">
        <ele>951.4</ele>
        <time>2026-08-20T07:20:34.000Z</time>
      </trkpt>
      <trkpt lat="47.86255" lon="6.89854">
        <ele>952.4</ele>
        <time>2026-08-20T07:20:37.000Z</time>
      </trkpt>
      <trkpt lat="47.86246" lon="6.89854">
        <ele>953.6</ele>
        <time>2026-08-20T07:20:40.000Z</time>
      </trkpt>
      <trkpt lat="47.86244" lon="6.89853">
        <ele>954</ele>
        <time>2026-08-20T07:20:41.000Z</time>
      </trkpt>
      <trkpt lat="47.86237" lon="6.89852">
        <ele>954.6</ele>
        <time>2026-08-20T07:20:43.000Z</time>
      </trkpt>
      <trkpt lat="47.86223" lon="6.89848">
        <ele>956</ele>
        <time>2026-08-20T07:20:47.000Z</time>
      </trkpt>
      <trkpt lat="47.86217" lon="6.89846">
        <ele>956.6</ele>
        <time>2026-08-20T07:20:49.000Z</time>
      </trkpt>
      <trkpt lat="47.86214" lon="6.89845">
        <ele>957</ele>
        <time>2026-08-20T07:20:50.000Z</time>
      </trkpt>
      <trkpt lat="47.86204" lon="6.89847">
        <ele>958.6</ele>
        <time>2026-08-20T07:20:53.000Z</time>
      </trkpt>
      <trkpt lat="47.86198" lon="6.89852">
        <ele>959.2</ele>
        <time>2026-08-20T07:20:55.000Z</time>
      </trkpt>
      <trkpt lat="47.86196" lon="6.8986">
        <ele>959.6</ele>
        <time>2026-08-20T07:20:57.000Z</time>
      </trkpt>
      <trkpt lat="47.86197" lon="6.89864">
        <ele>959.6</ele>
        <time>2026-08-20T07:20:58.000Z</time>
      </trkpt>
      <trkpt lat="47.86199" lon="6.89867">
        <ele>959.6</ele>
        <time>2026-08-20T07:20:59.000Z</time>
      </trkpt>
      <trkpt lat="47.86206" lon="6.89877">
        <ele>960.8</ele>
        <time>2026-08-20T07:21:03.000Z</time>
      </trkpt>
      <trkpt lat="47.86207" lon="6.8988">
        <ele>961</ele>
        <time>2026-08-20T07:21:04.000Z</time>
      </trkpt>
      <trkpt lat="47.86213" lon="6.89888">
        <ele>962</ele>
        <time>2026-08-20T07:21:07.000Z</time>
      </trkpt>
      <trkpt lat="47.86219" lon="6.89897">
        <ele>963</ele>
        <time>2026-08-20T07:21:10.000Z</time>
      </trkpt>
      <trkpt lat="47.86224" lon="6.89901">
        <ele>963.6</ele>
        <time>2026-08-20T07:21:12.000Z</time>
      </trkpt>
      <trkpt lat="47.86229" lon="6.89905">
        <ele>964.2</ele>
        <time>2026-08-20T07:21:14.000Z</time>
      </trkpt>
      <trkpt lat="47.86236" lon="6.89913">
        <ele>965.4</ele>
        <time>2026-08-20T07:21:17.000Z</time>
      </trkpt>
      <trkpt lat="47.86239" lon="6.89919">
        <ele>966.4</ele>
        <time>2026-08-20T07:21:19.000Z</time>
      </trkpt>
      <trkpt lat="47.86239" lon="6.89923">
        <ele>967</ele>
        <time>2026-08-20T07:21:20.000Z</time>
      </trkpt>
      <trkpt lat="47.86239" lon="6.89926">
        <ele>967.6</ele>
        <time>2026-08-20T07:21:21.000Z</time>
      </trkpt>
      <trkpt lat="47.86238" lon="6.89931">
        <ele>968.6</ele>
        <time>2026-08-20T07:21:23.000Z</time>
      </trkpt>
      <trkpt lat="47.86235" lon="6.89936">
        <ele>969.4</ele>
        <time>2026-08-20T07:21:25.000Z</time>
      </trkpt>
      <trkpt lat="47.86233" lon="6.89938">
        <ele>969.8</ele>
        <time>2026-08-20T07:21:26.000Z</time>
      </trkpt>
      <trkpt lat="47.86224" lon="6.89945">
        <ele>970.4</ele>
        <time>2026-08-20T07:21:30.000Z</time>
      </trkpt>
      <trkpt lat="47.86219" lon="6.8995">
        <ele>971</ele>
        <time>2026-08-20T07:21:33.000Z</time>
      </trkpt>
      <trkpt lat="47.86212" lon="6.89955">
        <ele>972.2</ele>
        <time>2026-08-20T07:21:36.000Z</time>
      </trkpt>
      <trkpt lat="47.86207" lon="6.89961">
        <ele>973.2</ele>
        <time>2026-08-20T07:21:39.000Z</time>
      </trkpt>
      <trkpt lat="47.86199" lon="6.89969">
        <ele>974.4</ele>
        <time>2026-08-20T07:21:43.000Z</time>
      </trkpt>
      <trkpt lat="47.86195" lon="6.89972">
        <ele>975</ele>
        <time>2026-08-20T07:21:45.000Z</time>
      </trkpt>
      <trkpt lat="47.8619" lon="6.89978">
        <ele>975.4</ele>
        <time>2026-08-20T07:21:48.000Z</time>
      </trkpt>
      <trkpt lat="47.86183" lon="6.89991">
        <ele>976.2</ele>
        <time>2026-08-20T07:21:52.000Z</time>
      </trkpt>
      <trkpt lat="47.86181" lon="6.89995">
        <ele>976.4</ele>
        <time>2026-08-20T07:21:53.000Z</time>
      </trkpt>
      <trkpt lat="47.86173" lon="6.90014">
        <ele>977.4</ele>
        <time>2026-08-20T07:21:58.000Z</time>
      </trkpt>
      <trkpt lat="47.8617" lon="6.90023">
        <ele>977.6</ele>
        <time>2026-08-20T07:22:00.000Z</time>
      </trkpt>
      <trkpt lat="47.86165" lon="6.90042">
        <ele>978.2</ele>
        <time>2026-08-20T07:22:05.000Z</time>
      </trkpt>
      <trkpt lat="47.86164" lon="6.90046">
        <ele>978.4</ele>
        <time>2026-08-20T07:22:06.000Z</time>
      </trkpt>
      <trkpt lat="47.86163" lon="6.9005">
        <ele>978.6</ele>
        <time>2026-08-20T07:22:07.000Z</time>
      </trkpt>
      <trkpt lat="47.86156" lon="6.90077">
        <ele>979.4</ele>
        <time>2026-08-20T07:22:14.000Z</time>
      </trkpt>
      <trkpt lat="47.86155" lon="6.90081">
        <ele>979.4</ele>
        <time>2026-08-20T07:22:15.000Z</time>
      </trkpt>
      <trkpt lat="47.86151" lon="6.90093">
        <ele>979.6</ele>
        <time>2026-08-20T07:22:18.000Z</time>
      </trkpt>
      <trkpt lat="47.86147" lon="6.90114">
        <ele>980.6</ele>
        <time>2026-08-20T07:22:23.000Z</time>
      </trkpt>
      <trkpt lat="47.86146" lon="6.90123">
        <ele>980.8</ele>
        <time>2026-08-20T07:22:25.000Z</time>
      </trkpt>
      <trkpt lat="47.86143" lon="6.90148">
        <ele>981.2</ele>
        <time>2026-08-20T07:22:31.000Z</time>
      </trkpt>
      <trkpt lat="47.86143" lon="6.90163">
        <ele>981.8</ele>
        <time>2026-08-20T07:22:35.000Z</time>
      </trkpt>
      <trkpt lat="47.86145" lon="6.90177">
        <ele>982.2</ele>
        <time>2026-08-20T07:22:38.000Z</time>
      </trkpt>
      <trkpt lat="47.86148" lon="6.90193">
        <ele>982.8</ele>
        <time>2026-08-20T07:22:42.000Z</time>
      </trkpt>
      <trkpt lat="47.86151" lon="6.9021">
        <ele>983.8</ele>
        <time>2026-08-20T07:22:46.000Z</time>
      </trkpt>
      <trkpt lat="47.86151" lon="6.90215">
        <ele>984</ele>
        <time>2026-08-20T07:22:47.000Z</time>
      </trkpt>
      <trkpt lat="47.86153" lon="6.90236">
        <ele>984.8</ele>
        <time>2026-08-20T07:22:52.000Z</time>
      </trkpt>
      <trkpt lat="47.86153" lon="6.9024">
        <ele>985</ele>
        <time>2026-08-20T07:22:53.000Z</time>
      </trkpt>
      <trkpt lat="47.86152" lon="6.90257">
        <ele>986</ele>
        <time>2026-08-20T07:22:58.000Z</time>
      </trkpt>
      <trkpt lat="47.86151" lon="6.9026">
        <ele>986.2</ele>
        <time>2026-08-20T07:22:59.000Z</time>
      </trkpt>
      <trkpt lat="47.8615" lon="6.90264">
        <ele>986.4</ele>
        <time>2026-08-20T07:23:04.000Z</time>
      </trkpt>
      <trkpt lat="47.86148" lon="6.90267">
        <ele>986.6</ele>
        <time>2026-08-20T07:23:11.000Z</time>
      </trkpt>
      <trkpt lat="47.86148" lon="6.90268">
        <ele>986.6</ele>
        <time>2026-08-20T07:23:19.000Z</time>
      </trkpt>
      <trkpt lat="47.86148" lon="6.90269">
        <ele>986.6</ele>
        <time>2026-08-20T07:23:20.000Z</time>
      </trkpt>
      <trkpt lat="47.86149" lon="6.90272">
        <ele>987</ele>
        <time>2026-08-20T07:23:28.000Z</time>
      </trkpt>
      <trkpt lat="47.86148" lon="6.90265">
        <ele>986.6</ele>
        <time>2026-08-20T07:23:34.000Z</time>
      </trkpt>
      <trkpt lat="47.86147" lon="6.90265">
        <ele>986.6</ele>
        <time>2026-08-20T07:23:35.000Z</time>
      </trkpt>
      <trkpt lat="47.86144" lon="6.90269">
        <ele>986.8</ele>
        <time>2026-08-20T07:23:42.000Z</time>
      </trkpt>
      <trkpt lat="47.86144" lon="6.9027">
        <ele>986.8</ele>
        <time>2026-08-20T07:23:43.000Z</time>
      </trkpt>
      <trkpt lat="47.86144" lon="6.90272">
        <ele>986.6</ele>
        <time>2026-08-20T07:23:45.000Z</time>
      </trkpt>
      <trkpt lat="47.86146" lon="6.90273">
        <ele>986.8</ele>
        <time>2026-08-20T07:23:49.000Z</time>
      </trkpt>
      <trkpt lat="47.86147" lon="6.90272">
        <ele>987.2</ele>
        <time>2026-08-20T07:23:52.000Z</time>
      </trkpt>
      <trkpt lat="47.86149" lon="6.90273">
        <ele>987</ele>
        <time>2026-08-20T07:23:58.000Z</time>
      </trkpt>
      <trkpt lat="47.86149" lon="6.90274">
        <ele>987</ele>
        <time>2026-08-20T07:24:02.000Z</time>
      </trkpt>
      <trkpt lat="47.86148" lon="6.90273">
        <ele>986.8</ele>
        <time>2026-08-20T07:24:05.000Z</time>
      </trkpt>
      <trkpt lat="47.86147" lon="6.90273">
        <ele>986.8</ele>
        <time>2026-08-20T07:24:08.000Z</time>
      </trkpt>
      <trkpt lat="47.86148" lon="6.90273">
        <ele>987.6</ele>
        <time>2026-08-20T07:24:17.000Z</time>
      </trkpt>
      <trkpt lat="47.86148" lon="6.90276">
        <ele>988.2</ele>
        <time>2026-08-20T07:24:22.000Z</time>
      </trkpt>
      <trkpt lat="47.86148" lon="6.90278">
        <ele>988.2</ele>
        <time>2026-08-20T07:24:24.000Z</time>
      </trkpt>
      <trkpt lat="47.86149" lon="6.90278">
        <ele>988.2</ele>
        <time>2026-08-20T07:24:27.000Z</time>
      </trkpt>
      <trkpt lat="47.86149" lon="6.90279">
        <ele>988</ele>
        <time>2026-08-20T07:24:29.000Z</time>
      </trkpt>
      <trkpt lat="47.8615" lon="6.90276">
        <ele>988</ele>
        <time>2026-08-20T07:24:32.000Z</time>
      </trkpt>
      <trkpt lat="47.86149" lon="6.90278">
        <ele>988.2</ele>
        <time>2026-08-20T07:24:34.000Z</time>
      </trkpt>
      <trkpt lat="47.86146" lon="6.90283">
        <ele>988</ele>
        <time>2026-08-20T07:24:40.000Z</time>
      </trkpt>
      <trkpt lat="47.86144" lon="6.90299">
        <ele>988.2</ele>
        <time>2026-08-20T07:24:45.000Z</time>
      </trkpt>
      <trkpt lat="47.86143" lon="6.90311">
        <ele>988.8</ele>
        <time>2026-08-20T07:24:48.000Z</time>
      </trkpt>
      <trkpt lat="47.86144" lon="6.9032">
        <ele>989.4</ele>
        <time>2026-08-20T07:24:50.000Z</time>
      </trkpt>
      <trkpt lat="47.86145" lon="6.90327">
        <ele>990.4</ele>
        <time>2026-08-20T07:24:52.000Z</time>
      </trkpt>
      <trkpt lat="47.86145" lon="6.90331">
        <ele>990.8</ele>
        <time>2026-08-20T07:24:53.000Z</time>
      </trkpt>
      <trkpt lat="47.86147" lon="6.90343">
        <ele>992.4</ele>
        <time>2026-08-20T07:24:56.000Z</time>
      </trkpt>
      <trkpt lat="47.86151" lon="6.90357">
        <ele>993.4</ele>
        <time>2026-08-20T07:25:00.000Z</time>
      </trkpt>
      <trkpt lat="47.86156" lon="6.90374">
        <ele>994.6</ele>
        <time>2026-08-20T07:25:06.000Z</time>
      </trkpt>
      <trkpt lat="47.86158" lon="6.90377">
        <ele>995</ele>
        <time>2026-08-20T07:25:07.000Z</time>
      </trkpt>
      <trkpt lat="47.8616" lon="6.90383">
        <ele>996</ele>
        <time>2026-08-20T07:25:09.000Z</time>
      </trkpt>
      <trkpt lat="47.86164" lon="6.90392">
        <ele>997.2</ele>
        <time>2026-08-20T07:25:12.000Z</time>
      </trkpt>
      <trkpt lat="47.86167" lon="6.90398">
        <ele>998.4</ele>
        <time>2026-08-20T07:25:14.000Z</time>
      </trkpt>
      <trkpt lat="47.86169" lon="6.90401">
        <ele>998.8</ele>
        <time>2026-08-20T07:25:15.000Z</time>
      </trkpt>
      <trkpt lat="47.86172" lon="6.90405">
        <ele>999.8</ele>
        <time>2026-08-20T07:25:17.000Z</time>
      </trkpt>
      <trkpt lat="47.86175" lon="6.9041">
        <ele>1000.8</ele>
        <time>2026-08-20T07:25:19.000Z</time>
      </trkpt>
      <trkpt lat="47.86177" lon="6.90416">
        <ele>1002</ele>
        <time>2026-08-20T07:25:21.000Z</time>
      </trkpt>
      <trkpt lat="47.86178" lon="6.90418">
        <ele>1002.8</ele>
        <time>2026-08-20T07:25:22.000Z</time>
      </trkpt>
      <trkpt lat="47.86179" lon="6.9042">
        <ele>1003.4</ele>
        <time>2026-08-20T07:25:23.000Z</time>
      </trkpt>
      <trkpt lat="47.86181" lon="6.90425">
        <ele>1004.8</ele>
        <time>2026-08-20T07:25:25.000Z</time>
      </trkpt>
      <trkpt lat="47.86183" lon="6.90434">
        <ele>1006.2</ele>
        <time>2026-08-20T07:25:28.000Z</time>
      </trkpt>
      <trkpt lat="47.86185" lon="6.9044">
        <ele>1007.2</ele>
        <time>2026-08-20T07:25:30.000Z</time>
      </trkpt>
      <trkpt lat="47.86187" lon="6.90446">
        <ele>1008.4</ele>
        <time>2026-08-20T07:25:32.000Z</time>
      </trkpt>
      <trkpt lat="47.86189" lon="6.90452">
        <ele>1009</ele>
        <time>2026-08-20T07:25:34.000Z</time>
      </trkpt>
      <trkpt lat="47.86189" lon="6.90455">
        <ele>1009.4</ele>
        <time>2026-08-20T07:25:35.000Z</time>
      </trkpt>
      <trkpt lat="47.86191" lon="6.9046">
        <ele>1010</ele>
        <time>2026-08-20T07:25:37.000Z</time>
      </trkpt>
      <trkpt lat="47.86193" lon="6.90466">
        <ele>1010.6</ele>
        <time>2026-08-20T07:25:39.000Z</time>
      </trkpt>
      <trkpt lat="47.86197" lon="6.9048">
        <ele>1011.8</ele>
        <time>2026-08-20T07:25:44.000Z</time>
      </trkpt>
      <trkpt lat="47.86198" lon="6.90483">
        <ele>1012</ele>
        <time>2026-08-20T07:25:45.000Z</time>
      </trkpt>
      <trkpt lat="47.86201" lon="6.90496">
        <ele>1013</ele>
        <time>2026-08-20T07:25:50.000Z</time>
      </trkpt>
      <trkpt lat="47.86203" lon="6.90504">
        <ele>1013.6</ele>
        <time>2026-08-20T07:25:53.000Z</time>
      </trkpt>
      <trkpt lat="47.86206" lon="6.90512">
        <ele>1014</ele>
        <time>2026-08-20T07:25:56.000Z</time>
      </trkpt>
      <trkpt lat="47.86209" lon="6.90521">
        <ele>1014.4</ele>
        <time>2026-08-20T07:25:59.000Z</time>
      </trkpt>
      <trkpt lat="47.86214" lon="6.90536">
        <ele>1015</ele>
        <time>2026-08-20T07:26:04.000Z</time>
      </trkpt>
      <trkpt lat="47.86219" lon="6.90549">
        <ele>1015.4</ele>
        <time>2026-08-20T07:26:08.000Z</time>
      </trkpt>
      <trkpt lat="47.86225" lon="6.90561">
        <ele>1016.2</ele>
        <time>2026-08-20T07:26:12.000Z</time>
      </trkpt>
      <trkpt lat="47.86231" lon="6.90575">
        <ele>1016.6</ele>
        <time>2026-08-20T07:26:16.000Z</time>
      </trkpt>
      <trkpt lat="47.8624" lon="6.90601">
        <ele>1016.4</ele>
        <time>2026-08-20T07:26:22.000Z</time>
      </trkpt>
      <trkpt lat="47.86242" lon="6.90605">
        <ele>1016.2</ele>
        <time>2026-08-20T07:26:23.000Z</time>
      </trkpt>
      <trkpt lat="47.86246" lon="6.90633">
        <ele>1015.8</ele>
        <time>2026-08-20T07:26:28.000Z</time>
      </trkpt>
      <trkpt lat="47.86247" lon="6.90638">
        <ele>1016</ele>
        <time>2026-08-20T07:26:29.000Z</time>
      </trkpt>
      <trkpt lat="47.86249" lon="6.90654">
        <ele>1016.8</ele>
        <time>2026-08-20T07:26:33.000Z</time>
      </trkpt>
      <trkpt lat="47.86249" lon="6.90667">
        <ele>1016.6</ele>
        <time>2026-08-20T07:26:35.000Z</time>
      </trkpt>
      <trkpt lat="47.86248" lon="6.9069">
        <ele>1015.6</ele>
        <time>2026-08-20T07:26:38.000Z</time>
      </trkpt>
      <trkpt lat="47.86247" lon="6.90695">
        <ele>1015.4</ele>
        <time>2026-08-20T07:26:39.000Z</time>
      </trkpt>
      <trkpt lat="47.86246" lon="6.907">
        <ele>1015.6</ele>
        <time>2026-08-20T07:26:40.000Z</time>
      </trkpt>
      <trkpt lat="47.86244" lon="6.90717">
        <ele>1017.2</ele>
        <time>2026-08-20T07:26:44.000Z</time>
      </trkpt>
      <trkpt lat="47.86244" lon="6.90725">
        <ele>1018</ele>
        <time>2026-08-20T07:26:46.000Z</time>
      </trkpt>
      <trkpt lat="47.86244" lon="6.90729">
        <ele>1018.4</ele>
        <time>2026-08-20T07:26:47.000Z</time>
      </trkpt>
      <trkpt lat="47.86243" lon="6.90742">
        <ele>1019.6</ele>
        <time>2026-08-20T07:26:51.000Z</time>
      </trkpt>
      <trkpt lat="47.86244" lon="6.90749">
        <ele>1020.2</ele>
        <time>2026-08-20T07:26:53.000Z</time>
      </trkpt>
      <trkpt lat="47.86246" lon="6.90756">
        <ele>1020.8</ele>
        <time>2026-08-20T07:26:55.000Z</time>
      </trkpt>
      <trkpt lat="47.8625" lon="6.90769">
        <ele>1022.2</ele>
        <time>2026-08-20T07:26:59.000Z</time>
      </trkpt>
      <trkpt lat="47.8625" lon="6.90769">
        <ele>1022.6</ele>
        <time>2026-08-20T07:27:00.000Z</time>
      </trkpt>
      <trkpt lat="47.86253" lon="6.90775">
        <ele>1023.4</ele>
        <time>2026-08-20T07:27:02.000Z</time>
      </trkpt>
      <trkpt lat="47.86253" lon="6.90776">
        <ele>1024.2</ele>
        <time>2026-08-20T07:27:04.000Z</time>
      </trkpt>
      <trkpt lat="47.86253" lon="6.90776">
        <ele>1024.6</ele>
        <time>2026-08-20T07:27:05.000Z</time>
      </trkpt>
      <trkpt lat="47.86254" lon="6.90776">
        <ele>1025.2</ele>
        <time>2026-08-20T07:27:11.000Z</time>
      </trkpt>
      <trkpt lat="47.86254" lon="6.90775">
        <ele>1025.2</ele>
        <time>2026-08-20T07:27:17.000Z</time>
      </trkpt>
      <trkpt lat="47.86256" lon="6.90779">
        <ele>1025.8</ele>
        <time>2026-08-20T07:27:23.000Z</time>
      </trkpt>
      <trkpt lat="47.86258" lon="6.90785">
        <ele>1026.8</ele>
        <time>2026-08-20T07:27:27.000Z</time>
      </trkpt>
      <trkpt lat="47.86261" lon="6.90789">
        <ele>1028.2</ele>
        <time>2026-08-20T07:27:33.000Z</time>
      </trkpt>
      <trkpt lat="47.86261" lon="6.90789">
        <ele>1029</ele>
        <time>2026-08-20T07:27:36.000Z</time>
      </trkpt>
      <trkpt lat="47.86262" lon="6.9079">
        <ele>1029.4</ele>
        <time>2026-08-20T07:27:37.000Z</time>
      </trkpt>
      <trkpt lat="47.86263" lon="6.90793">
        <ele>1029.6</ele>
        <time>2026-08-20T07:27:38.000Z</time>
      </trkpt>
      <trkpt lat="47.86271" lon="6.90809">
        <ele>1029.8</ele>
        <time>2026-08-20T07:27:44.000Z</time>
      </trkpt>
      <trkpt lat="47.86278" lon="6.90824">
        <ele>1030.2</ele>
        <time>2026-08-20T07:27:49.000Z</time>
      </trkpt>
      <trkpt lat="47.8628" lon="6.9083">
        <ele>1030.4</ele>
        <time>2026-08-20T07:27:51.000Z</time>
      </trkpt>
      <trkpt lat="47.86285" lon="6.9084">
        <ele>1030.8</ele>
        <time>2026-08-20T07:27:54.000Z</time>
      </trkpt>
      <trkpt lat="47.86289" lon="6.9085">
        <ele>1031.4</ele>
        <time>2026-08-20T07:27:57.000Z</time>
      </trkpt>
      <trkpt lat="47.86294" lon="6.90862">
        <ele>1032.6</ele>
        <time>2026-08-20T07:28:01.000Z</time>
      </trkpt>
      <trkpt lat="47.86296" lon="6.90869">
        <ele>1033.2</ele>
        <time>2026-08-20T07:28:03.000Z</time>
      </trkpt>
      <trkpt lat="47.86298" lon="6.90875">
        <ele>1033.6</ele>
        <time>2026-08-20T07:28:05.000Z</time>
      </trkpt>
      <trkpt lat="47.86303" lon="6.90887">
        <ele>1034.6</ele>
        <time>2026-08-20T07:28:09.000Z</time>
      </trkpt>
      <trkpt lat="47.86307" lon="6.90895">
        <ele>1035.6</ele>
        <time>2026-08-20T07:28:12.000Z</time>
      </trkpt>
      <trkpt lat="47.86308" lon="6.90898">
        <ele>1036</ele>
        <time>2026-08-20T07:28:13.000Z</time>
      </trkpt>
      <trkpt lat="47.86312" lon="6.90906">
        <ele>1037</ele>
        <time>2026-08-20T07:28:16.000Z</time>
      </trkpt>
      <trkpt lat="47.86316" lon="6.90915">
        <ele>1038.2</ele>
        <time>2026-08-20T07:28:19.000Z</time>
      </trkpt>
      <trkpt lat="47.8632" lon="6.9092">
        <ele>1038.6</ele>
        <time>2026-08-20T07:28:21.000Z</time>
      </trkpt>
      <trkpt lat="47.86324" lon="6.90928">
        <ele>1039.2</ele>
        <time>2026-08-20T07:28:24.000Z</time>
      </trkpt>
      <trkpt lat="47.86333" lon="6.90941">
        <ele>1040.4</ele>
        <time>2026-08-20T07:28:29.000Z</time>
      </trkpt>
      <trkpt lat="47.86337" lon="6.90949">
        <ele>1041.8</ele>
        <time>2026-08-20T07:28:32.000Z</time>
      </trkpt>
      <trkpt lat="47.86344" lon="6.90959">
        <ele>1043.4</ele>
        <time>2026-08-20T07:28:36.000Z</time>
      </trkpt>
      <trkpt lat="47.86346" lon="6.90962">
        <ele>1044.2</ele>
        <time>2026-08-20T07:28:37.000Z</time>
      </trkpt>
      <trkpt lat="47.86349" lon="6.90967">
        <ele>1045.4</ele>
        <time>2026-08-20T07:28:39.000Z</time>
      </trkpt>
      <trkpt lat="47.86354" lon="6.90986">
        <ele>1045</ele>
        <time>2026-08-20T07:28:43.000Z</time>
      </trkpt>
      <trkpt lat="47.86355" lon="6.91002">
        <ele>1044.2</ele>
        <time>2026-08-20T07:28:46.000Z</time>
      </trkpt>
      <trkpt lat="47.86352" lon="6.9101">
        <ele>1043</ele>
        <time>2026-08-20T07:28:48.000Z</time>
      </trkpt>
      <trkpt lat="47.86347" lon="6.91021">
        <ele>1042</ele>
        <time>2026-08-20T07:28:51.000Z</time>
      </trkpt>
      <trkpt lat="47.86341" lon="6.91031">
        <ele>1043</ele>
        <time>2026-08-20T07:28:54.000Z</time>
      </trkpt>
      <trkpt lat="47.86339" lon="6.91034">
        <ele>1043.6</ele>
        <time>2026-08-20T07:28:55.000Z</time>
      </trkpt>
      <trkpt lat="47.86334" lon="6.91039">
        <ele>1044.8</ele>
        <time>2026-08-20T07:28:57.000Z</time>
      </trkpt>
      <trkpt lat="47.86327" lon="6.91046">
        <ele>1046</ele>
        <time>2026-08-20T07:29:00.000Z</time>
      </trkpt>
      <trkpt lat="47.86325" lon="6.91048">
        <ele>1046.2</ele>
        <time>2026-08-20T07:29:01.000Z</time>
      </trkpt>
      <trkpt lat="47.86317" lon="6.91052">
        <ele>1047.2</ele>
        <time>2026-08-20T07:29:04.000Z</time>
      </trkpt>
      <trkpt lat="47.86306" lon="6.91055">
        <ele>1048.2</ele>
        <time>2026-08-20T07:29:08.000Z</time>
      </trkpt>
      <trkpt lat="47.86295" lon="6.91055">
        <ele>1049.6</ele>
        <time>2026-08-20T07:29:12.000Z</time>
      </trkpt>
      <trkpt lat="47.86285" lon="6.91055">
        <ele>1050.8</ele>
        <time>2026-08-20T07:29:16.000Z</time>
      </trkpt>
      <trkpt lat="47.86278" lon="6.91053">
        <ele>1052</ele>
        <time>2026-08-20T07:29:19.000Z</time>
      </trkpt>
      <trkpt lat="47.86268" lon="6.9105">
        <ele>1053</ele>
        <time>2026-08-20T07:29:23.000Z</time>
      </trkpt>
      <trkpt lat="47.86259" lon="6.91046">
        <ele>1054.4</ele>
        <time>2026-08-20T07:29:27.000Z</time>
      </trkpt>
      <trkpt lat="47.86253" lon="6.91043">
        <ele>1055</ele>
        <time>2026-08-20T07:29:30.000Z</time>
      </trkpt>
      <trkpt lat="47.86251" lon="6.91041">
        <ele>1055.4</ele>
        <time>2026-08-20T07:29:31.000Z</time>
      </trkpt>
      <trkpt lat="47.86242" lon="6.91036">
        <ele>1056.6</ele>
        <time>2026-08-20T07:29:35.000Z</time>
      </trkpt>
      <trkpt lat="47.86234" lon="6.91034">
        <ele>1057.4</ele>
        <time>2026-08-20T07:29:38.000Z</time>
      </trkpt>
      <trkpt lat="47.86233" lon="6.91032">
        <ele>1057.8</ele>
        <time>2026-08-20T07:29:39.000Z</time>
      </trkpt>
      <trkpt lat="47.86225" lon="6.91027">
        <ele>1058.6</ele>
        <time>2026-08-20T07:29:44.000Z</time>
      </trkpt>
      <trkpt lat="47.86223" lon="6.91026">
        <ele>1058.8</ele>
        <time>2026-08-20T07:29:45.000Z</time>
      </trkpt>
      <trkpt lat="47.86213" lon="6.91015">
        <ele>1059.6</ele>
        <time>2026-08-20T07:29:50.000Z</time>
      </trkpt>
      <trkpt lat="47.8621" lon="6.9101">
        <ele>1059.8</ele>
        <time>2026-08-20T07:29:52.000Z</time>
      </trkpt>
      <trkpt lat="47.86201" lon="6.90994">
        <ele>1060.6</ele>
        <time>2026-08-20T07:29:57.000Z</time>
      </trkpt>
      <trkpt lat="47.86192" lon="6.9098">
        <ele>1060.8</ele>
        <time>2026-08-20T07:30:02.000Z</time>
      </trkpt>
      <trkpt lat="47.86191" lon="6.90978">
        <ele>1061.2</ele>
        <time>2026-08-20T07:30:03.000Z</time>
      </trkpt>
      <trkpt lat="47.8619" lon="6.90975">
        <ele>1062.2</ele>
        <time>2026-08-20T07:30:05.000Z</time>
      </trkpt>
      <trkpt lat="47.86188" lon="6.90973">
        <ele>1063</ele>
        <time>2026-08-20T07:30:07.000Z</time>
      </trkpt>
      <trkpt lat="47.86187" lon="6.90973">
        <ele>1063.2</ele>
        <time>2026-08-20T07:30:08.000Z</time>
      </trkpt>
      <trkpt lat="47.86188" lon="6.90973">
        <ele>1063.4</ele>
        <time>2026-08-20T07:30:10.000Z</time>
      </trkpt>
      <trkpt lat="47.8619" lon="6.90977">
        <ele>1063.6</ele>
        <time>2026-08-20T07:30:12.000Z</time>
      </trkpt>
      <trkpt lat="47.86198" lon="6.90986">
        <ele>1063.4</ele>
        <time>2026-08-20T07:30:16.000Z</time>
      </trkpt>
      <trkpt lat="47.86207" lon="6.91">
        <ele>1062</ele>
        <time>2026-08-20T07:30:20.000Z</time>
      </trkpt>
      <trkpt lat="47.86213" lon="6.9101">
        <ele>1061.4</ele>
        <time>2026-08-20T07:30:23.000Z</time>
      </trkpt>
      <trkpt lat="47.86218" lon="6.91014">
        <ele>1060.8</ele>
        <time>2026-08-20T07:30:25.000Z</time>
      </trkpt>
      <trkpt lat="47.86224" lon="6.91019">
        <ele>1060.2</ele>
        <time>2026-08-20T07:30:29.000Z</time>
      </trkpt>
      <trkpt lat="47.86224" lon="6.91021">
        <ele>1060.2</ele>
        <time>2026-08-20T07:30:30.000Z</time>
      </trkpt>
      <trkpt lat="47.86222" lon="6.9102">
        <ele>1060</ele>
        <time>2026-08-20T07:30:33.000Z</time>
      </trkpt>
      <trkpt lat="47.86222" lon="6.91022">
        <ele>1060</ele>
        <time>2026-08-20T07:30:35.000Z</time>
      </trkpt>
      <trkpt lat="47.86221" lon="6.91023">
        <ele>1060</ele>
        <time>2026-08-20T07:30:37.000Z</time>
      </trkpt>
      <trkpt lat="47.8622" lon="6.91022">
        <ele>1060</ele>
        <time>2026-08-20T07:30:38.000Z</time>
      </trkpt>
      <trkpt lat="47.86211" lon="6.91021">
        <ele>1062.2</ele>
        <time>2026-08-20T07:30:45.000Z</time>
      </trkpt>
      <trkpt lat="47.86208" lon="6.91023">
        <ele>1063.2</ele>
        <time>2026-08-20T07:30:50.000Z</time>
      </trkpt>
      <trkpt lat="47.86207" lon="6.91023">
        <ele>1063.4</ele>
        <time>2026-08-20T07:30:51.000Z</time>
      </trkpt>
      <trkpt lat="47.86204" lon="6.91023">
        <ele>1063.8</ele>
        <time>2026-08-20T07:30:55.000Z</time>
      </trkpt>
      <trkpt lat="47.86201" lon="6.91021">
        <ele>1064.2</ele>
        <time>2026-08-20T07:30:57.000Z</time>
      </trkpt>
      <trkpt lat="47.862" lon="6.9102">
        <ele>1064.4</ele>
        <time>2026-08-20T07:30:58.000Z</time>
      </trkpt>
      <trkpt lat="47.86197" lon="6.91016">
        <ele>1065.4</ele>
        <time>2026-08-20T07:31:01.000Z</time>
      </trkpt>
      <trkpt lat="47.86193" lon="6.9101">
        <ele>1066.8</ele>
        <time>2026-08-20T07:31:04.000Z</time>
      </trkpt>
      <trkpt lat="47.86191" lon="6.91006">
        <ele>1067.6</ele>
        <time>2026-08-20T07:31:06.000Z</time>
      </trkpt>
      <trkpt lat="47.86189" lon="6.91005">
        <ele>1068</ele>
        <time>2026-08-20T07:31:07.000Z</time>
      </trkpt>
      <trkpt lat="47.86183" lon="6.91003">
        <ele>1069</ele>
        <time>2026-08-20T07:31:10.000Z</time>
      </trkpt>
      <trkpt lat="47.8618" lon="6.91003">
        <ele>1069.8</ele>
        <time>2026-08-20T07:31:12.000Z</time>
      </trkpt>
      <trkpt lat="47.86178" lon="6.91002">
        <ele>1070.2</ele>
        <time>2026-08-20T07:31:13.000Z</time>
      </trkpt>
      <trkpt lat="47.86171" lon="6.91002">
        <ele>1071.4</ele>
        <time>2026-08-20T07:31:16.000Z</time>
      </trkpt>
      <trkpt lat="47.86166" lon="6.91002">
        <ele>1072.4</ele>
        <time>2026-08-20T07:31:18.000Z</time>
      </trkpt>
      <trkpt lat="47.86161" lon="6.91001">
        <ele>1073.6</ele>
        <time>2026-08-20T07:31:21.000Z</time>
      </trkpt>
      <trkpt lat="47.86155" lon="6.91002">
        <ele>1074.6</ele>
        <time>2026-08-20T07:31:24.000Z</time>
      </trkpt>
      <trkpt lat="47.86153" lon="6.91003">
        <ele>1075</ele>
        <time>2026-08-20T07:31:25.000Z</time>
      </trkpt>
      <trkpt lat="47.86149" lon="6.91003">
        <ele>1075.8</ele>
        <time>2026-08-20T07:31:27.000Z</time>
      </trkpt>
      <trkpt lat="47.86142" lon="6.91003">
        <ele>1076.8</ele>
        <time>2026-08-20T07:31:30.000Z</time>
      </trkpt>
      <trkpt lat="47.86136" lon="6.90999">
        <ele>1078</ele>
        <time>2026-08-20T07:31:33.000Z</time>
      </trkpt>
      <trkpt lat="47.8613" lon="6.90998">
        <ele>1079</ele>
        <time>2026-08-20T07:31:36.000Z</time>
      </trkpt>
      <trkpt lat="47.86128" lon="6.90997">
        <ele>1079.2</ele>
        <time>2026-08-20T07:31:37.000Z</time>
      </trkpt>
      <trkpt lat="47.86126" lon="6.90996">
        <ele>1079.6</ele>
        <time>2026-08-20T07:31:38.000Z</time>
      </trkpt>
      <trkpt lat="47.86119" lon="6.90994">
        <ele>1080.4</ele>
        <time>2026-08-20T07:31:42.000Z</time>
      </trkpt>
      <trkpt lat="47.86115" lon="6.90993">
        <ele>1080.8</ele>
        <time>2026-08-20T07:31:44.000Z</time>
      </trkpt>
      <trkpt lat="47.86109" lon="6.90992">
        <ele>1081.4</ele>
        <time>2026-08-20T07:31:47.000Z</time>
      </trkpt>
      <trkpt lat="47.86102" lon="6.90989">
        <ele>1082.6</ele>
        <time>2026-08-20T07:31:52.000Z</time>
      </trkpt>
      <trkpt lat="47.86094" lon="6.90988">
        <ele>1083.6</ele>
        <time>2026-08-20T07:31:57.000Z</time>
      </trkpt>
      <trkpt lat="47.86091" lon="6.90988">
        <ele>1084</ele>
        <time>2026-08-20T07:31:59.000Z</time>
      </trkpt>
      <trkpt lat="47.86081" lon="6.90986">
        <ele>1084.8</ele>
        <time>2026-08-20T07:32:04.000Z</time>
      </trkpt>
      <trkpt lat="47.8608" lon="6.90986">
        <ele>1085</ele>
        <time>2026-08-20T07:32:05.000Z</time>
      </trkpt>
      <trkpt lat="47.86072" lon="6.90987">
        <ele>1086</ele>
        <time>2026-08-20T07:32:09.000Z</time>
      </trkpt>
      <trkpt lat="47.86063" lon="6.90988">
        <ele>1087</ele>
        <time>2026-08-20T07:32:13.000Z</time>
      </trkpt>
      <trkpt lat="47.86062" lon="6.90988">
        <ele>1087.4</ele>
        <time>2026-08-20T07:32:14.000Z</time>
      </trkpt>
      <trkpt lat="47.86057" lon="6.90988">
        <ele>1088.2</ele>
        <time>2026-08-20T07:32:17.000Z</time>
      </trkpt>
      <trkpt lat="47.86051" lon="6.90986">
        <ele>1088.6</ele>
        <time>2026-08-20T07:32:20.000Z</time>
      </trkpt>
      <trkpt lat="47.8604" lon="6.90987">
        <ele>1089.4</ele>
        <time>2026-08-20T07:32:25.000Z</time>
      </trkpt>
      <trkpt lat="47.86037" lon="6.90986">
        <ele>1090</ele>
        <time>2026-08-20T07:32:27.000Z</time>
      </trkpt>
      <trkpt lat="47.86034" lon="6.90986">
        <ele>1090.6</ele>
        <time>2026-08-20T07:32:29.000Z</time>
      </trkpt>
      <trkpt lat="47.86029" lon="6.90987">
        <ele>1091.4</ele>
        <time>2026-08-20T07:32:32.000Z</time>
      </trkpt>
      <trkpt lat="47.86028" lon="6.90987">
        <ele>1091.8</ele>
        <time>2026-08-20T07:32:33.000Z</time>
      </trkpt>
      <trkpt lat="47.86025" lon="6.90986">
        <ele>1092.4</ele>
        <time>2026-08-20T07:32:35.000Z</time>
      </trkpt>
      <trkpt lat="47.86022" lon="6.90986">
        <ele>1092.8</ele>
        <time>2026-08-20T07:32:37.000Z</time>
      </trkpt>
      <trkpt lat="47.86015" lon="6.90985">
        <ele>1093.8</ele>
        <time>2026-08-20T07:32:41.000Z</time>
      </trkpt>
      <trkpt lat="47.86009" lon="6.90982">
        <ele>1095</ele>
        <time>2026-08-20T07:32:45.000Z</time>
      </trkpt>
      <trkpt lat="47.86004" lon="6.90982">
        <ele>1096.2</ele>
        <time>2026-08-20T07:32:48.000Z</time>
      </trkpt>
      <trkpt lat="47.85998" lon="6.9098">
        <ele>1097.2</ele>
        <time>2026-08-20T07:32:51.000Z</time>
      </trkpt>
      <trkpt lat="47.85991" lon="6.90978">
        <ele>1098.6</ele>
        <time>2026-08-20T07:32:55.000Z</time>
      </trkpt>
      <trkpt lat="47.85986" lon="6.90976">
        <ele>1099.4</ele>
        <time>2026-08-20T07:32:58.000Z</time>
      </trkpt>
      <trkpt lat="47.85984" lon="6.90976">
        <ele>1099.6</ele>
        <time>2026-08-20T07:32:59.000Z</time>
      </trkpt>
      <trkpt lat="47.85978" lon="6.90973">
        <ele>1100.8</ele>
        <time>2026-08-20T07:33:02.000Z</time>
      </trkpt>
      <trkpt lat="47.85972" lon="6.90972">
        <ele>1102.2</ele>
        <time>2026-08-20T07:33:05.000Z</time>
      </trkpt>
      <trkpt lat="47.85969" lon="6.90972">
        <ele>1103.2</ele>
        <time>2026-08-20T07:33:07.000Z</time>
      </trkpt>
      <trkpt lat="47.85964" lon="6.90965">
        <ele>1104.4</ele>
        <time>2026-08-20T07:33:11.000Z</time>
      </trkpt>
      <trkpt lat="47.8596" lon="6.90962">
        <ele>1104.8</ele>
        <time>2026-08-20T07:33:13.000Z</time>
      </trkpt>
      <trkpt lat="47.85957" lon="6.9096">
        <ele>1105.4</ele>
        <time>2026-08-20T07:33:15.000Z</time>
      </trkpt>
      <trkpt lat="47.8595" lon="6.90957">
        <ele>1106.6</ele>
        <time>2026-08-20T07:33:19.000Z</time>
      </trkpt>
      <trkpt lat="47.85946" lon="6.90954">
        <ele>1107.4</ele>
        <time>2026-08-20T07:33:21.000Z</time>
      </trkpt>
      <trkpt lat="47.85945" lon="6.90953">
        <ele>1107.8</ele>
        <time>2026-08-20T07:33:22.000Z</time>
      </trkpt>
      <trkpt lat="47.85939" lon="6.90951">
        <ele>1108.8</ele>
        <time>2026-08-20T07:33:26.000Z</time>
      </trkpt>
      <trkpt lat="47.85937" lon="6.9095">
        <ele>1109.2</ele>
        <time>2026-08-20T07:33:27.000Z</time>
      </trkpt>
      <trkpt lat="47.85934" lon="6.90949">
        <ele>1110</ele>
        <time>2026-08-20T07:33:29.000Z</time>
      </trkpt>
      <trkpt lat="47.85931" lon="6.90951">
        <ele>1110.6</ele>
        <time>2026-08-20T07:33:31.000Z</time>
      </trkpt>
      <trkpt lat="47.85928" lon="6.90954">
        <ele>1111</ele>
        <time>2026-08-20T07:33:33.000Z</time>
      </trkpt>
      <trkpt lat="47.85927" lon="6.90956">
        <ele>1111</ele>
        <time>2026-08-20T07:33:34.000Z</time>
      </trkpt>
      <trkpt lat="47.85919" lon="6.90962">
        <ele>1111.8</ele>
        <time>2026-08-20T07:33:38.000Z</time>
      </trkpt>
      <trkpt lat="47.85917" lon="6.90964">
        <ele>1112.2</ele>
        <time>2026-08-20T07:33:39.000Z</time>
      </trkpt>
      <trkpt lat="47.85906" lon="6.90975">
        <ele>1112.6</ele>
        <time>2026-08-20T07:33:44.000Z</time>
      </trkpt>
      <trkpt lat="47.85901" lon="6.90981">
        <ele>1112.8</ele>
        <time>2026-08-20T07:33:47.000Z</time>
      </trkpt>
      <trkpt lat="47.85887" lon="6.90997">
        <ele>1112.8</ele>
        <time>2026-08-20T07:33:54.000Z</time>
      </trkpt>
      <trkpt lat="47.85871" lon="6.91012">
        <ele>1112</ele>
        <time>2026-08-20T07:34:00.000Z</time>
      </trkpt>
      <trkpt lat="47.85864" lon="6.91017">
        <ele>1111.8</ele>
        <time>2026-08-20T07:34:02.000Z</time>
      </trkpt>
      <trkpt lat="47.85859" lon="6.91022">
        <ele>1111.8</ele>
        <time>2026-08-20T07:34:04.000Z</time>
      </trkpt>
      <trkpt lat="47.85854" lon="6.91028">
        <ele>1111.8</ele>
        <time>2026-08-20T07:34:06.000Z</time>
      </trkpt>
      <trkpt lat="47.85849" lon="6.91033">
        <ele>1111.8</ele>
        <time>2026-08-20T07:34:08.000Z</time>
      </trkpt>
      <trkpt lat="47.85834" lon="6.91051">
        <ele>1113.2</ele>
        <time>2026-08-20T07:34:15.000Z</time>
      </trkpt>
      <trkpt lat="47.85832" lon="6.91053">
        <ele>1113.2</ele>
        <time>2026-08-20T07:34:16.000Z</time>
      </trkpt>
      <trkpt lat="47.85829" lon="6.91059">
        <ele>1113.4</ele>
        <time>2026-08-20T07:34:18.000Z</time>
      </trkpt>
      <trkpt lat="47.8582" lon="6.91076">
        <ele>1114</ele>
        <time>2026-08-20T07:34:24.000Z</time>
      </trkpt>
      <trkpt lat="47.85817" lon="6.91082">
        <ele>1114.2</ele>
        <time>2026-08-20T07:34:26.000Z</time>
      </trkpt>
      <trkpt lat="47.85805" lon="6.91104">
        <ele>1114.6</ele>
        <time>2026-08-20T07:34:33.000Z</time>
      </trkpt>
      <trkpt lat="47.85793" lon="6.91126">
        <ele>1114.4</ele>
        <time>2026-08-20T07:34:39.000Z</time>
      </trkpt>
      <trkpt lat="47.85791" lon="6.91131">
        <ele>1114.2</ele>
        <time>2026-08-20T07:34:40.000Z</time>
      </trkpt>
      <trkpt lat="47.85778" lon="6.91154">
        <ele>1114.2</ele>
        <time>2026-08-20T07:34:45.000Z</time>
      </trkpt>
      <trkpt lat="47.85771" lon="6.91167">
        <ele>1114</ele>
        <time>2026-08-20T07:34:48.000Z</time>
      </trkpt>
      <trkpt lat="47.85763" lon="6.91184">
        <ele>1113.6</ele>
        <time>2026-08-20T07:34:52.000Z</time>
      </trkpt>
      <trkpt lat="47.85756" lon="6.91197">
        <ele>1113.2</ele>
        <time>2026-08-20T07:34:55.000Z</time>
      </trkpt>
      <trkpt lat="47.85748" lon="6.91214">
        <ele>1111.8</ele>
        <time>2026-08-20T07:34:59.000Z</time>
      </trkpt>
      <trkpt lat="47.85743" lon="6.91229">
        <ele>1110.8</ele>
        <time>2026-08-20T07:35:02.000Z</time>
      </trkpt>
      <trkpt lat="47.85738" lon="6.91249">
        <ele>1109.8</ele>
        <time>2026-08-20T07:35:06.000Z</time>
      </trkpt>
      <trkpt lat="47.85732" lon="6.91266">
        <ele>1108.6</ele>
        <time>2026-08-20T07:35:10.000Z</time>
      </trkpt>
      <trkpt lat="47.85731" lon="6.91271">
        <ele>1108.2</ele>
        <time>2026-08-20T07:35:11.000Z</time>
      </trkpt>
      <trkpt lat="47.85727" lon="6.91285">
        <ele>1107.4</ele>
        <time>2026-08-20T07:35:14.000Z</time>
      </trkpt>
      <trkpt lat="47.85721" lon="6.91304">
        <ele>1106.4</ele>
        <time>2026-08-20T07:35:18.000Z</time>
      </trkpt>
      <trkpt lat="47.8572" lon="6.91309">
        <ele>1106</ele>
        <time>2026-08-20T07:35:19.000Z</time>
      </trkpt>
      <trkpt lat="47.85717" lon="6.91317">
        <ele>1105</ele>
        <time>2026-08-20T07:35:21.000Z</time>
      </trkpt>
      <trkpt lat="47.85713" lon="6.91332">
        <ele>1103.8</ele>
        <time>2026-08-20T07:35:24.000Z</time>
      </trkpt>
      <trkpt lat="47.85711" lon="6.91337">
        <ele>1103.4</ele>
        <time>2026-08-20T07:35:25.000Z</time>
      </trkpt>
      <trkpt lat="47.85708" lon="6.91346">
        <ele>1102.6</ele>
        <time>2026-08-20T07:35:27.000Z</time>
      </trkpt>
      <trkpt lat="47.85703" lon="6.91361">
        <ele>1101.4</ele>
        <time>2026-08-20T07:35:30.000Z</time>
      </trkpt>
      <trkpt lat="47.85699" lon="6.9137">
        <ele>1100.4</ele>
        <time>2026-08-20T07:35:32.000Z</time>
      </trkpt>
      <trkpt lat="47.85693" lon="6.91384">
        <ele>1099.2</ele>
        <time>2026-08-20T07:35:35.000Z</time>
      </trkpt>
      <trkpt lat="47.85682" lon="6.91404">
        <ele>1098.4</ele>
        <time>2026-08-20T07:35:39.000Z</time>
      </trkpt>
      <trkpt lat="47.85679" lon="6.91408">
        <ele>1098.2</ele>
        <time>2026-08-20T07:35:40.000Z</time>
      </trkpt>
      <trkpt lat="47.85668" lon="6.91426">
        <ele>1097.2</ele>
        <time>2026-08-20T07:35:44.000Z</time>
      </trkpt>
      <trkpt lat="47.8566" lon="6.9144">
        <ele>1096</ele>
        <time>2026-08-20T07:35:47.000Z</time>
      </trkpt>
      <trkpt lat="47.85649" lon="6.9146">
        <ele>1094.8</ele>
        <time>2026-08-20T07:35:51.000Z</time>
      </trkpt>
      <trkpt lat="47.85642" lon="6.91476">
        <ele>1093.6</ele>
        <time>2026-08-20T07:35:54.000Z</time>
      </trkpt>
      <trkpt lat="47.85637" lon="6.91488">
        <ele>1093</ele>
        <time>2026-08-20T07:35:56.000Z</time>
      </trkpt>
      <trkpt lat="47.85628" lon="6.91512">
        <ele>1093.2</ele>
        <time>2026-08-20T07:36:00.000Z</time>
      </trkpt>
      <trkpt lat="47.85622" lon="6.91527">
        <ele>1093.2</ele>
        <time>2026-08-20T07:36:03.000Z</time>
      </trkpt>
      <trkpt lat="47.85621" lon="6.91533">
        <ele>1093.2</ele>
        <time>2026-08-20T07:36:04.000Z</time>
      </trkpt>
      <trkpt lat="47.85613" lon="6.91561">
        <ele>1092.6</ele>
        <time>2026-08-20T07:36:10.000Z</time>
      </trkpt>
      <trkpt lat="47.85612" lon="6.91566">
        <ele>1092.6</ele>
        <time>2026-08-20T07:36:11.000Z</time>
      </trkpt>
      <trkpt lat="47.85606" lon="6.91596">
        <ele>1092.2</ele>
        <time>2026-08-20T07:36:17.000Z</time>
      </trkpt>
      <trkpt lat="47.85606" lon="6.91601">
        <ele>1092.2</ele>
        <time>2026-08-20T07:36:18.000Z</time>
      </trkpt>
      <trkpt lat="47.856" lon="6.91626">
        <ele>1092</ele>
        <time>2026-08-20T07:36:23.000Z</time>
      </trkpt>
      <trkpt lat="47.85598" lon="6.91644">
        <ele>1091.2</ele>
        <time>2026-08-20T07:36:26.000Z</time>
      </trkpt>
      <trkpt lat="47.85593" lon="6.91673">
        <ele>1091</ele>
        <time>2026-08-20T07:36:31.000Z</time>
      </trkpt>
      <trkpt lat="47.8559" lon="6.91685">
        <ele>1090.4</ele>
        <time>2026-08-20T07:36:33.000Z</time>
      </trkpt>
      <trkpt lat="47.85589" lon="6.9169">
        <ele>1090</ele>
        <time>2026-08-20T07:36:34.000Z</time>
      </trkpt>
      <trkpt lat="47.85579" lon="6.91716">
        <ele>1089</ele>
        <time>2026-08-20T07:36:39.000Z</time>
      </trkpt>
      <trkpt lat="47.85576" lon="6.91721">
        <ele>1089</ele>
        <time>2026-08-20T07:36:40.000Z</time>
      </trkpt>
      <trkpt lat="47.85569" lon="6.91729">
        <ele>1089.2</ele>
        <time>2026-08-20T07:36:42.000Z</time>
      </trkpt>
      <trkpt lat="47.85565" lon="6.91732">
        <ele>1089.4</ele>
        <time>2026-08-20T07:36:43.000Z</time>
      </trkpt>
      <trkpt lat="47.85562" lon="6.91733">
        <ele>1089.6</ele>
        <time>2026-08-20T07:36:44.000Z</time>
      </trkpt>
      <trkpt lat="47.85552" lon="6.91734">
        <ele>1089.4</ele>
        <time>2026-08-20T07:36:47.000Z</time>
      </trkpt>
      <trkpt lat="47.85541" lon="6.91744">
        <ele>1089.2</ele>
        <time>2026-08-20T07:36:53.000Z</time>
      </trkpt>
      <trkpt lat="47.85533" lon="6.91751">
        <ele>1089.4</ele>
        <time>2026-08-20T07:36:57.000Z</time>
      </trkpt>
      <trkpt lat="47.85528" lon="6.91756">
        <ele>1089.6</ele>
        <time>2026-08-20T07:37:00.000Z</time>
      </trkpt>
      <trkpt lat="47.85526" lon="6.91757">
        <ele>1090</ele>
        <time>2026-08-20T07:37:01.000Z</time>
      </trkpt>
      <trkpt lat="47.85521" lon="6.91758">
        <ele>1091.2</ele>
        <time>2026-08-20T07:37:03.000Z</time>
      </trkpt>
      <trkpt lat="47.85515" lon="6.91761">
        <ele>1092.2</ele>
        <time>2026-08-20T07:37:06.000Z</time>
      </trkpt>
      <trkpt lat="47.85511" lon="6.91765">
        <ele>1092.2</ele>
        <time>2026-08-20T07:37:08.000Z</time>
      </trkpt>
      <trkpt lat="47.85503" lon="6.91781">
        <ele>1092.6</ele>
        <time>2026-08-20T07:37:14.000Z</time>
      </trkpt>
      <trkpt lat="47.855" lon="6.91784">
        <ele>1093.4</ele>
        <time>2026-08-20T07:37:16.000Z</time>
      </trkpt>
      <trkpt lat="47.85491" lon="6.91789">
        <ele>1094</ele>
        <time>2026-08-20T07:37:20.000Z</time>
      </trkpt>
      <trkpt lat="47.85483" lon="6.91791">
        <ele>1093.8</ele>
        <time>2026-08-20T07:37:23.000Z</time>
      </trkpt>
      <trkpt lat="47.85473" lon="6.91794">
        <ele>1093.6</ele>
        <time>2026-08-20T07:37:27.000Z</time>
      </trkpt>
      <trkpt lat="47.85465" lon="6.91791">
        <ele>1093.2</ele>
        <time>2026-08-20T07:37:30.000Z</time>
      </trkpt>
      <trkpt lat="47.85461" lon="6.91788">
        <ele>1093</ele>
        <time>2026-08-20T07:37:32.000Z</time>
      </trkpt>
      <trkpt lat="47.85461" lon="6.91787">
        <ele>1093.8</ele>
        <time>2026-08-20T07:37:35.000Z</time>
      </trkpt>
      <trkpt lat="47.85461" lon="6.91787">
        <ele>1093.6</ele>
        <time>2026-08-20T07:37:42.000Z</time>
      </trkpt>
      <trkpt lat="47.85461" lon="6.91787">
        <ele>1093.6</ele>
        <time>2026-08-20T07:37:52.000Z</time>
      </trkpt>
      <trkpt lat="47.85457" lon="6.91787">
        <ele>1093.6</ele>
        <time>2026-08-20T07:37:58.000Z</time>
      </trkpt>
      <trkpt lat="47.85452" lon="6.91782">
        <ele>1094.4</ele>
        <time>2026-08-20T07:38:01.000Z</time>
      </trkpt>
      <trkpt lat="47.8545" lon="6.91775">
        <ele>1094.8</ele>
        <time>2026-08-20T07:38:03.000Z</time>
      </trkpt>
      <trkpt lat="47.85443" lon="6.9176">
        <ele>1095.4</ele>
        <time>2026-08-20T07:38:08.000Z</time>
      </trkpt>
      <trkpt lat="47.85438" lon="6.9175">
        <ele>1095.6</ele>
        <time>2026-08-20T07:38:11.000Z</time>
      </trkpt>
      <trkpt lat="47.85432" lon="6.9174">
        <ele>1097</ele>
        <time>2026-08-20T07:38:14.000Z</time>
      </trkpt>
      <trkpt lat="47.85425" lon="6.91727">
        <ele>1096.8</ele>
        <time>2026-08-20T07:38:18.000Z</time>
      </trkpt>
      <trkpt lat="47.85422" lon="6.9172">
        <ele>1096.4</ele>
        <time>2026-08-20T07:38:20.000Z</time>
      </trkpt>
      <trkpt lat="47.85411" lon="6.91698">
        <ele>1097.2</ele>
        <time>2026-08-20T07:38:26.000Z</time>
      </trkpt>
      <trkpt lat="47.8541" lon="6.91694">
        <ele>1097</ele>
        <time>2026-08-20T07:38:27.000Z</time>
      </trkpt>
      <trkpt lat="47.85399" lon="6.91676">
        <ele>1096.8</ele>
        <time>2026-08-20T07:38:33.000Z</time>
      </trkpt>
      <trkpt lat="47.85398" lon="6.91675">
        <ele>1098</ele>
        <time>2026-08-20T07:38:37.000Z</time>
      </trkpt>
      <trkpt lat="47.85398" lon="6.91675">
        <ele>1098</ele>
        <time>2026-08-20T07:38:38.000Z</time>
      </trkpt>
      <trkpt lat="47.85398" lon="6.91675">
        <ele>1098.6</ele>
        <time>2026-08-20T07:38:43.000Z</time>
      </trkpt>
      <trkpt lat="47.85396" lon="6.91675">
        <ele>1098.2</ele>
        <time>2026-08-20T07:38:48.000Z</time>
      </trkpt>
      <trkpt lat="47.85394" lon="6.91675">
        <ele>1098.8</ele>
        <time>2026-08-20T07:38:53.000Z</time>
      </trkpt>
      <trkpt lat="47.8539" lon="6.91675">
        <ele>1099</ele>
        <time>2026-08-20T07:38:59.000Z</time>
      </trkpt>
      <trkpt lat="47.85386" lon="6.91673">
        <ele>1100.2</ele>
        <time>2026-08-20T07:39:01.000Z</time>
      </trkpt>
      <trkpt lat="47.85382" lon="6.91671">
        <ele>1101.2</ele>
        <time>2026-08-20T07:39:03.000Z</time>
      </trkpt>
      <trkpt lat="47.85377" lon="6.91669">
        <ele>1102</ele>
        <time>2026-08-20T07:39:06.000Z</time>
      </trkpt>
      <trkpt lat="47.85375" lon="6.91668">
        <ele>1102.2</ele>
        <time>2026-08-20T07:39:07.000Z</time>
      </trkpt>
      <trkpt lat="47.85369" lon="6.91666">
        <ele>1103.4</ele>
        <time>2026-08-20T07:39:10.000Z</time>
      </trkpt>
      <trkpt lat="47.85364" lon="6.91665">
        <ele>1104.6</ele>
        <time>2026-08-20T07:39:13.000Z</time>
      </trkpt>
      <trkpt lat="47.85352" lon="6.9166">
        <ele>1105.6</ele>
        <time>2026-08-20T07:39:18.000Z</time>
      </trkpt>
      <trkpt lat="47.85348" lon="6.91658">
        <ele>1106</ele>
        <time>2026-08-20T07:39:20.000Z</time>
      </trkpt>
      <trkpt lat="47.85344" lon="6.91657">
        <ele>1106.8</ele>
        <time>2026-08-20T07:39:22.000Z</time>
      </trkpt>
      <trkpt lat="47.8534" lon="6.91655">
        <ele>1108</ele>
        <time>2026-08-20T07:39:24.000Z</time>
      </trkpt>
      <trkpt lat="47.85336" lon="6.91655">
        <ele>1109.2</ele>
        <time>2026-08-20T07:39:26.000Z</time>
      </trkpt>
      <trkpt lat="47.85334" lon="6.91655">
        <ele>1109.6</ele>
        <time>2026-08-20T07:39:27.000Z</time>
      </trkpt>
      <trkpt lat="47.8533" lon="6.91653">
        <ele>1110.6</ele>
        <time>2026-08-20T07:39:29.000Z</time>
      </trkpt>
      <trkpt lat="47.85322" lon="6.91649">
        <ele>1111.4</ele>
        <time>2026-08-20T07:39:33.000Z</time>
      </trkpt>
      <trkpt lat="47.85318" lon="6.91647">
        <ele>1111.8</ele>
        <time>2026-08-20T07:39:35.000Z</time>
      </trkpt>
      <trkpt lat="47.85314" lon="6.91644">
        <ele>1113.6</ele>
        <time>2026-08-20T07:39:37.000Z</time>
      </trkpt>
      <trkpt lat="47.8531" lon="6.91641">
        <ele>1115.2</ele>
        <time>2026-08-20T07:39:39.000Z</time>
      </trkpt>
      <trkpt lat="47.85308" lon="6.9164">
        <ele>1115.8</ele>
        <time>2026-08-20T07:39:40.000Z</time>
      </trkpt>
      <trkpt lat="47.85295" lon="6.91633">
        <ele>1116.4</ele>
        <time>2026-08-20T07:39:46.000Z</time>
      </trkpt>
      <trkpt lat="47.85293" lon="6.91633">
        <ele>1116.8</ele>
        <time>2026-08-20T07:39:47.000Z</time>
      </trkpt>
      <trkpt lat="47.85291" lon="6.91633">
        <ele>1117.4</ele>
        <time>2026-08-20T07:39:48.000Z</time>
      </trkpt>
      <trkpt lat="47.85285" lon="6.91628">
        <ele>1118.8</ele>
        <time>2026-08-20T07:39:51.000Z</time>
      </trkpt>
      <trkpt lat="47.85281" lon="6.91626">
        <ele>1119.6</ele>
        <time>2026-08-20T07:39:53.000Z</time>
      </trkpt>
      <trkpt lat="47.85279" lon="6.91625">
        <ele>1120</ele>
        <time>2026-08-20T07:39:54.000Z</time>
      </trkpt>
      <trkpt lat="47.85273" lon="6.91623">
        <ele>1121</ele>
        <time>2026-08-20T07:39:57.000Z</time>
      </trkpt>
      <trkpt lat="47.85266" lon="6.91621">
        <ele>1122.2</ele>
        <time>2026-08-20T07:40:00.000Z</time>
      </trkpt>
      <trkpt lat="47.8526" lon="6.91619">
        <ele>1123.2</ele>
        <time>2026-08-20T07:40:03.000Z</time>
      </trkpt>
      <trkpt lat="47.85254" lon="6.91617">
        <ele>1124.6</ele>
        <time>2026-08-20T07:40:06.000Z</time>
      </trkpt>
      <trkpt lat="47.85251" lon="6.91617">
        <ele>1125</ele>
        <time>2026-08-20T07:40:07.000Z</time>
      </trkpt>
      <trkpt lat="47.85247" lon="6.91616">
        <ele>1125.8</ele>
        <time>2026-08-20T07:40:09.000Z</time>
      </trkpt>
      <trkpt lat="47.85239" lon="6.91613">
        <ele>1127</ele>
        <time>2026-08-20T07:40:13.000Z</time>
      </trkpt>
      <trkpt lat="47.85237" lon="6.91612">
        <ele>1127.4</ele>
        <time>2026-08-20T07:40:14.000Z</time>
      </trkpt>
      <trkpt lat="47.85233" lon="6.91611">
        <ele>1128.2</ele>
        <time>2026-08-20T07:40:16.000Z</time>
      </trkpt>
      <trkpt lat="47.85228" lon="6.91612">
        <ele>1129.2</ele>
        <time>2026-08-20T07:40:18.000Z</time>
      </trkpt>
      <trkpt lat="47.85221" lon="6.91612">
        <ele>1130.2</ele>
        <time>2026-08-20T07:40:21.000Z</time>
      </trkpt>
      <trkpt lat="47.85218" lon="6.91611">
        <ele>1130.6</ele>
        <time>2026-08-20T07:40:22.000Z</time>
      </trkpt>
      <trkpt lat="47.85208" lon="6.9161">
        <ele>1131.8</ele>
        <time>2026-08-20T07:40:26.000Z</time>
      </trkpt>
      <trkpt lat="47.85201" lon="6.91609">
        <ele>1133.2</ele>
        <time>2026-08-20T07:40:29.000Z</time>
      </trkpt>
      <trkpt lat="47.85196" lon="6.91608">
        <ele>1133.8</ele>
        <time>2026-08-20T07:40:31.000Z</time>
      </trkpt>
      <trkpt lat="47.85191" lon="6.91606">
        <ele>1134.2</ele>
        <time>2026-08-20T07:40:33.000Z</time>
      </trkpt>
      <trkpt lat="47.85184" lon="6.91606">
        <ele>1135.4</ele>
        <time>2026-08-20T07:40:36.000Z</time>
      </trkpt>
      <trkpt lat="47.85179" lon="6.91606">
        <ele>1136.4</ele>
        <time>2026-08-20T07:40:38.000Z</time>
      </trkpt>
      <trkpt lat="47.85177" lon="6.91606">
        <ele>1136.6</ele>
        <time>2026-08-20T07:40:39.000Z</time>
      </trkpt>
      <trkpt lat="47.8517" lon="6.91606">
        <ele>1137.8</ele>
        <time>2026-08-20T07:40:42.000Z</time>
      </trkpt>
      <trkpt lat="47.8516" lon="6.91609">
        <ele>1139.2</ele>
        <time>2026-08-20T07:40:46.000Z</time>
      </trkpt>
      <trkpt lat="47.85157" lon="6.9161">
        <ele>1139.6</ele>
        <time>2026-08-20T07:40:47.000Z</time>
      </trkpt>
      <trkpt lat="47.85153" lon="6.91611">
        <ele>1140.4</ele>
        <time>2026-08-20T07:40:49.000Z</time>
      </trkpt>
      <trkpt lat="47.8515" lon="6.91612">
        <ele>1140.8</ele>
        <time>2026-08-20T07:40:50.000Z</time>
      </trkpt>
      <trkpt lat="47.85148" lon="6.91612">
        <ele>1141.2</ele>
        <time>2026-08-20T07:40:51.000Z</time>
      </trkpt>
      <trkpt lat="47.85145" lon="6.91611">
        <ele>1141.6</ele>
        <time>2026-08-20T07:40:52.000Z</time>
      </trkpt>
      <trkpt lat="47.85138" lon="6.91612">
        <ele>1142.6</ele>
        <time>2026-08-20T07:40:55.000Z</time>
      </trkpt>
      <trkpt lat="47.8513" lon="6.91614">
        <ele>1143.8</ele>
        <time>2026-08-20T07:40:58.000Z</time>
      </trkpt>
      <trkpt lat="47.85124" lon="6.9162">
        <ele>1145</ele>
        <time>2026-08-20T07:41:01.000Z</time>
      </trkpt>
      <trkpt lat="47.85122" lon="6.91621">
        <ele>1145.4</ele>
        <time>2026-08-20T07:41:02.000Z</time>
      </trkpt>
      <trkpt lat="47.85122" lon="6.9162">
        <ele>1146.2</ele>
        <time>2026-08-20T07:41:05.000Z</time>
      </trkpt>
      <trkpt lat="47.85122" lon="6.91621">
        <ele>1146.2</ele>
        <time>2026-08-20T07:41:10.000Z</time>
      </trkpt>
      <trkpt lat="47.85121" lon="6.91623">
        <ele>1146.2</ele>
        <time>2026-08-20T07:41:13.000Z</time>
      </trkpt>
      <trkpt lat="47.85121" lon="6.91623">
        <ele>1146.4</ele>
        <time>2026-08-20T07:41:15.000Z</time>
      </trkpt>
      <trkpt lat="47.85121" lon="6.91624">
        <ele>1146.8</ele>
        <time>2026-08-20T07:41:19.000Z</time>
      </trkpt>
      <trkpt lat="47.85119" lon="6.91626">
        <ele>1147.2</ele>
        <time>2026-08-20T07:41:25.000Z</time>
      </trkpt>
      <trkpt lat="47.85119" lon="6.91626">
        <ele>1147.2</ele>
        <time>2026-08-20T07:41:26.000Z</time>
      </trkpt>
      <trkpt lat="47.85117" lon="6.91626">
        <ele>1147.4</ele>
        <time>2026-08-20T07:41:28.000Z</time>
      </trkpt>
      <trkpt lat="47.85114" lon="6.91627">
        <ele>1147.8</ele>
        <time>2026-08-20T07:41:30.000Z</time>
      </trkpt>
      <trkpt lat="47.8511" lon="6.91629">
        <ele>1148.6</ele>
        <time>2026-08-20T07:41:32.000Z</time>
      </trkpt>
      <trkpt lat="47.85103" lon="6.91631">
        <ele>1150</ele>
        <time>2026-08-20T07:41:35.000Z</time>
      </trkpt>
      <trkpt lat="47.851" lon="6.91631">
        <ele>1150.2</ele>
        <time>2026-08-20T07:41:36.000Z</time>
      </trkpt>
      <trkpt lat="47.85095" lon="6.91631">
        <ele>1151.2</ele>
        <time>2026-08-20T07:41:38.000Z</time>
      </trkpt>
      <trkpt lat="47.85086" lon="6.91634">
        <ele>1152.4</ele>
        <time>2026-08-20T07:41:42.000Z</time>
      </trkpt>
      <trkpt lat="47.85084" lon="6.91635">
        <ele>1152.6</ele>
        <time>2026-08-20T07:41:43.000Z</time>
      </trkpt>
      <trkpt lat="47.85077" lon="6.9164">
        <ele>1153.4</ele>
        <time>2026-08-20T07:41:47.000Z</time>
      </trkpt>
      <trkpt lat="47.85073" lon="6.91641">
        <ele>1154</ele>
        <time>2026-08-20T07:41:49.000Z</time>
      </trkpt>
      <trkpt lat="47.85069" lon="6.91642">
        <ele>1154.8</ele>
        <time>2026-08-20T07:41:51.000Z</time>
      </trkpt>
      <trkpt lat="47.85061" lon="6.91645">
        <ele>1156</ele>
        <time>2026-08-20T07:41:55.000Z</time>
      </trkpt>
      <trkpt lat="47.85059" lon="6.91646">
        <ele>1156.2</ele>
        <time>2026-08-20T07:41:56.000Z</time>
      </trkpt>
      <trkpt lat="47.85054" lon="6.91648">
        <ele>1157</ele>
        <time>2026-08-20T07:41:59.000Z</time>
      </trkpt>
      <trkpt lat="47.85047" lon="6.9165">
        <ele>1158</ele>
        <time>2026-08-20T07:42:03.000Z</time>
      </trkpt>
      <trkpt lat="47.85045" lon="6.9165">
        <ele>1158.2</ele>
        <time>2026-08-20T07:42:04.000Z</time>
      </trkpt>
      <trkpt lat="47.85034" lon="6.91656">
        <ele>1159.2</ele>
        <time>2026-08-20T07:42:10.000Z</time>
      </trkpt>
      <trkpt lat="47.85032" lon="6.91658">
        <ele>1159.4</ele>
        <time>2026-08-20T07:42:11.000Z</time>
      </trkpt>
      <trkpt lat="47.85024" lon="6.91662">
        <ele>1160.6</ele>
        <time>2026-08-20T07:42:15.000Z</time>
      </trkpt>
      <trkpt lat="47.85018" lon="6.91666">
        <ele>1161.8</ele>
        <time>2026-08-20T07:42:18.000Z</time>
      </trkpt>
      <trkpt lat="47.85016" lon="6.91668">
        <ele>1162.4</ele>
        <time>2026-08-20T07:42:19.000Z</time>
      </trkpt>
      <trkpt lat="47.85012" lon="6.91671">
        <ele>1163.2</ele>
        <time>2026-08-20T07:42:21.000Z</time>
      </trkpt>
      <trkpt lat="47.85006" lon="6.91675">
        <ele>1164.4</ele>
        <time>2026-08-20T07:42:24.000Z</time>
      </trkpt>
      <trkpt lat="47.85001" lon="6.9168">
        <ele>1165.6</ele>
        <time>2026-08-20T07:42:27.000Z</time>
      </trkpt>
      <trkpt lat="47.84999" lon="6.91682">
        <ele>1166</ele>
        <time>2026-08-20T07:42:28.000Z</time>
      </trkpt>
      <trkpt lat="47.84994" lon="6.91685">
        <ele>1166.8</ele>
        <time>2026-08-20T07:42:30.000Z</time>
      </trkpt>
      <trkpt lat="47.84989" lon="6.9169">
        <ele>1168.2</ele>
        <time>2026-08-20T07:42:33.000Z</time>
      </trkpt>
      <trkpt lat="47.84985" lon="6.91692">
        <ele>1169.4</ele>
        <time>2026-08-20T07:42:35.000Z</time>
      </trkpt>
      <trkpt lat="47.84983" lon="6.91694">
        <ele>1169.8</ele>
        <time>2026-08-20T07:42:36.000Z</time>
      </trkpt>
      <trkpt lat="47.8498" lon="6.91697">
        <ele>1170.8</ele>
        <time>2026-08-20T07:42:38.000Z</time>
      </trkpt>
      <trkpt lat="47.84974" lon="6.91701">
        <ele>1172</ele>
        <time>2026-08-20T07:42:41.000Z</time>
      </trkpt>
      <trkpt lat="47.8497" lon="6.91704">
        <ele>1173</ele>
        <time>2026-08-20T07:42:43.000Z</time>
      </trkpt>
      <trkpt lat="47.84968" lon="6.91705">
        <ele>1173.2</ele>
        <time>2026-08-20T07:42:44.000Z</time>
      </trkpt>
      <trkpt lat="47.84962" lon="6.9171">
        <ele>1174.4</ele>
        <time>2026-08-20T07:42:47.000Z</time>
      </trkpt>
      <trkpt lat="47.84956" lon="6.91713">
        <ele>1175</ele>
        <time>2026-08-20T07:42:50.000Z</time>
      </trkpt>
      <trkpt lat="47.8495" lon="6.91717">
        <ele>1175.6</ele>
        <time>2026-08-20T07:42:53.000Z</time>
      </trkpt>
      <trkpt lat="47.84944" lon="6.91718">
        <ele>1176.2</ele>
        <time>2026-08-20T07:42:56.000Z</time>
      </trkpt>
      <trkpt lat="47.84939" lon="6.9172">
        <ele>1176.6</ele>
        <time>2026-08-20T07:42:58.000Z</time>
      </trkpt>
      <trkpt lat="47.84931" lon="6.91723">
        <ele>1178</ele>
        <time>2026-08-20T07:43:01.000Z</time>
      </trkpt>
      <trkpt lat="47.84926" lon="6.91724">
        <ele>1179</ele>
        <time>2026-08-20T07:43:03.000Z</time>
      </trkpt>
      <trkpt lat="47.84924" lon="6.91725">
        <ele>1179.2</ele>
        <time>2026-08-20T07:43:04.000Z</time>
      </trkpt>
      <trkpt lat="47.84914" lon="6.91729">
        <ele>1180.4</ele>
        <time>2026-08-20T07:43:08.000Z</time>
      </trkpt>
      <trkpt lat="47.84905" lon="6.91734">
        <ele>1181.6</ele>
        <time>2026-08-20T07:43:12.000Z</time>
      </trkpt>
      <trkpt lat="47.84897" lon="6.91739">
        <ele>1182.8</ele>
        <time>2026-08-20T07:43:16.000Z</time>
      </trkpt>
      <trkpt lat="47.84892" lon="6.91744">
        <ele>1183.4</ele>
        <time>2026-08-20T07:43:19.000Z</time>
      </trkpt>
      <trkpt lat="47.8489" lon="6.91745">
        <ele>1183.8</ele>
        <time>2026-08-20T07:43:20.000Z</time>
      </trkpt>
      <trkpt lat="47.84888" lon="6.91745">
        <ele>1184</ele>
        <time>2026-08-20T07:43:21.000Z</time>
      </trkpt>
      <trkpt lat="47.84883" lon="6.91748">
        <ele>1184.4</ele>
        <time>2026-08-20T07:43:24.000Z</time>
      </trkpt>
      <trkpt lat="47.84877" lon="6.91755">
        <ele>1185.2</ele>
        <time>2026-08-20T07:43:28.000Z</time>
      </trkpt>
      <trkpt lat="47.84873" lon="6.91758">
        <ele>1185.6</ele>
        <time>2026-08-20T07:43:30.000Z</time>
      </trkpt>
      <trkpt lat="47.84866" lon="6.91772">
        <ele>1186.2</ele>
        <time>2026-08-20T07:43:36.000Z</time>
      </trkpt>
      <trkpt lat="47.84864" lon="6.91774">
        <ele>1186.4</ele>
        <time>2026-08-20T07:43:37.000Z</time>
      </trkpt>
      <trkpt lat="47.84859" lon="6.91776">
        <ele>1187</ele>
        <time>2026-08-20T07:43:41.000Z</time>
      </trkpt>
      <trkpt lat="47.84859" lon="6.91778">
        <ele>1187</ele>
        <time>2026-08-20T07:43:45.000Z</time>
      </trkpt>
      <trkpt lat="47.84859" lon="6.91779">
        <ele>1186.6</ele>
        <time>2026-08-20T07:43:47.000Z</time>
      </trkpt>
      <trkpt lat="47.84859" lon="6.9178">
        <ele>1187</ele>
        <time>2026-08-20T07:43:54.000Z</time>
      </trkpt>
      <trkpt lat="47.84857" lon="6.91781">
        <ele>1187.2</ele>
        <time>2026-08-20T07:43:59.000Z</time>
      </trkpt>
      <trkpt lat="47.84856" lon="6.91781">
        <ele>1187.4</ele>
        <time>2026-08-20T07:44:00.000Z</time>
      </trkpt>
      <trkpt lat="47.84854" lon="6.91782">
        <ele>1188.2</ele>
        <time>2026-08-20T07:44:05.000Z</time>
      </trkpt>
      <trkpt lat="47.84854" lon="6.91782">
        <ele>1188.2</ele>
        <time>2026-08-20T07:44:07.000Z</time>
      </trkpt>
      <trkpt lat="47.84854" lon="6.91782">
        <ele>1187.8</ele>
        <time>2026-08-20T07:44:12.000Z</time>
      </trkpt>
      <trkpt lat="47.84852" lon="6.9178">
        <ele>1188</ele>
        <time>2026-08-20T07:44:22.000Z</time>
      </trkpt>
      <trkpt lat="47.84852" lon="6.91781">
        <ele>1187.6</ele>
        <time>2026-08-20T07:44:32.000Z</time>
      </trkpt>
      <trkpt lat="47.84843" lon="6.91779">
        <ele>1187.8</ele>
        <time>2026-08-20T07:44:37.000Z</time>
      </trkpt>
      <trkpt lat="47.84832" lon="6.91775">
        <ele>1188.4</ele>
        <time>2026-08-20T07:44:42.000Z</time>
      </trkpt>
      <trkpt lat="47.84831" lon="6.91773">
        <ele>1188.8</ele>
        <time>2026-08-20T07:44:43.000Z</time>
      </trkpt>
      <trkpt lat="47.84825" lon="6.91768">
        <ele>1189.6</ele>
        <time>2026-08-20T07:44:46.000Z</time>
      </trkpt>
      <trkpt lat="47.84816" lon="6.91766">
        <ele>1190.8</ele>
        <time>2026-08-20T07:44:50.000Z</time>
      </trkpt>
      <trkpt lat="47.84808" lon="6.91763">
        <ele>1192</ele>
        <time>2026-08-20T07:44:53.000Z</time>
      </trkpt>
      <trkpt lat="47.84803" lon="6.9176">
        <ele>1193.2</ele>
        <time>2026-08-20T07:44:55.000Z</time>
      </trkpt>
      <trkpt lat="47.84798" lon="6.91755">
        <ele>1194.4</ele>
        <time>2026-08-20T07:44:57.000Z</time>
      </trkpt>
      <trkpt lat="47.84788" lon="6.91742">
        <ele>1194.8</ele>
        <time>2026-08-20T07:45:01.000Z</time>
      </trkpt>
      <trkpt lat="47.84783" lon="6.91736">
        <ele>1194.8</ele>
        <time>2026-08-20T07:45:03.000Z</time>
      </trkpt>
      <trkpt lat="47.84771" lon="6.91724">
        <ele>1195.8</ele>
        <time>2026-08-20T07:45:08.000Z</time>
      </trkpt>
      <trkpt lat="47.84764" lon="6.91719">
        <ele>1196.4</ele>
        <time>2026-08-20T07:45:11.000Z</time>
      </trkpt>
      <trkpt lat="47.84759" lon="6.91717">
        <ele>1196.8</ele>
        <time>2026-08-20T07:45:13.000Z</time>
      </trkpt>
      <trkpt lat="47.84746" lon="6.91713">
        <ele>1197.8</ele>
        <time>2026-08-20T07:45:18.000Z</time>
      </trkpt>
      <trkpt lat="47.84726" lon="6.91707">
        <ele>1199</ele>
        <time>2026-08-20T07:45:25.000Z</time>
      </trkpt>
      <trkpt lat="47.84708" lon="6.91703">
        <ele>1199.4</ele>
        <time>2026-08-20T07:45:31.000Z</time>
      </trkpt>
      <trkpt lat="47.84702" lon="6.91703">
        <ele>1199.4</ele>
        <time>2026-08-20T07:45:33.000Z</time>
      </trkpt>
      <trkpt lat="47.84694" lon="6.91702">
        <ele>1199</ele>
        <time>2026-08-20T07:45:35.000Z</time>
      </trkpt>
      <trkpt lat="47.84674" lon="6.91705">
        <ele>1197.6</ele>
        <time>2026-08-20T07:45:40.000Z</time>
      </trkpt>
      <trkpt lat="47.84659" lon="6.91705">
        <ele>1196.4</ele>
        <time>2026-08-20T07:45:44.000Z</time>
      </trkpt>
      <trkpt lat="47.84651" lon="6.91705">
        <ele>1195.6</ele>
        <time>2026-08-20T07:45:46.000Z</time>
      </trkpt>
      <trkpt lat="47.84647" lon="6.91706">
        <ele>1195</ele>
        <time>2026-08-20T07:45:47.000Z</time>
      </trkpt>
      <trkpt lat="47.8464" lon="6.91707">
        <ele>1194</ele>
        <time>2026-08-20T07:45:49.000Z</time>
      </trkpt>
      <trkpt lat="47.84633" lon="6.91707">
        <ele>1193</ele>
        <time>2026-08-20T07:45:51.000Z</time>
      </trkpt>
      <trkpt lat="47.84628" lon="6.91707">
        <ele>1192.6</ele>
        <time>2026-08-20T07:45:52.000Z</time>
      </trkpt>
      <trkpt lat="47.84622" lon="6.91704">
        <ele>1191.8</ele>
        <time>2026-08-20T07:45:54.000Z</time>
      </trkpt>
      <trkpt lat="47.84612" lon="6.917">
        <ele>1190.6</ele>
        <time>2026-08-20T07:45:57.000Z</time>
      </trkpt>
      <trkpt lat="47.84609" lon="6.91699">
        <ele>1190.2</ele>
        <time>2026-08-20T07:45:58.000Z</time>
      </trkpt>
      <trkpt lat="47.84601" lon="6.91699">
        <ele>1189.4</ele>
        <time>2026-08-20T07:46:01.000Z</time>
      </trkpt>
      <trkpt lat="47.84595" lon="6.91699">
        <ele>1188.6</ele>
        <time>2026-08-20T07:46:03.000Z</time>
      </trkpt>
      <trkpt lat="47.84592" lon="6.91699">
        <ele>1188</ele>
        <time>2026-08-20T07:46:04.000Z</time>
      </trkpt>
      <trkpt lat="47.84585" lon="6.91699">
        <ele>1186.8</ele>
        <time>2026-08-20T07:46:06.000Z</time>
      </trkpt>
      <trkpt lat="47.84578" lon="6.91698">
        <ele>1185.6</ele>
        <time>2026-08-20T07:46:08.000Z</time>
      </trkpt>
      <trkpt lat="47.84569" lon="6.91697">
        <ele>1184.2</ele>
        <time>2026-08-20T07:46:11.000Z</time>
      </trkpt>
      <trkpt lat="47.84566" lon="6.91697">
        <ele>1183.8</ele>
        <time>2026-08-20T07:46:12.000Z</time>
      </trkpt>
      <trkpt lat="47.8456" lon="6.91695">
        <ele>1182.8</ele>
        <time>2026-08-20T07:46:14.000Z</time>
      </trkpt>
      <trkpt lat="47.84549" lon="6.91691">
        <ele>1181.6</ele>
        <time>2026-08-20T07:46:18.000Z</time>
      </trkpt>
      <trkpt lat="47.84541" lon="6.91688">
        <ele>1180.2</ele>
        <time>2026-08-20T07:46:21.000Z</time>
      </trkpt>
      <trkpt lat="47.84536" lon="6.91688">
        <ele>1179</ele>
        <time>2026-08-20T07:46:23.000Z</time>
      </trkpt>
      <trkpt lat="47.84533" lon="6.91688">
        <ele>1177.8</ele>
        <time>2026-08-20T07:46:25.000Z</time>
      </trkpt>
      <trkpt lat="47.84529" lon="6.91686">
        <ele>1177.2</ele>
        <time>2026-08-20T07:46:28.000Z</time>
      </trkpt>
      <trkpt lat="47.84527" lon="6.91686">
        <ele>1177</ele>
        <time>2026-08-20T07:46:29.000Z</time>
      </trkpt>
      <trkpt lat="47.84525" lon="6.91686">
        <ele>1176.8</ele>
        <time>2026-08-20T07:46:30.000Z</time>
      </trkpt>
      <trkpt lat="47.84518" lon="6.91683">
        <ele>1175.4</ele>
        <time>2026-08-20T07:46:33.000Z</time>
      </trkpt>
      <trkpt lat="47.84512" lon="6.91682">
        <ele>1174.2</ele>
        <time>2026-08-20T07:46:36.000Z</time>
      </trkpt>
      <trkpt lat="47.84507" lon="6.91682">
        <ele>1173.2</ele>
        <time>2026-08-20T07:46:38.000Z</time>
      </trkpt>
      <trkpt lat="47.84505" lon="6.91681">
        <ele>1172.4</ele>
        <time>2026-08-20T07:46:39.000Z</time>
      </trkpt>
      <trkpt lat="47.84503" lon="6.91681">
        <ele>1171.6</ele>
        <time>2026-08-20T07:46:40.000Z</time>
      </trkpt>
      <trkpt lat="47.84499" lon="6.9168">
        <ele>1170.4</ele>
        <time>2026-08-20T07:46:42.000Z</time>
      </trkpt>
      <trkpt lat="47.84493" lon="6.9168">
        <ele>1169</ele>
        <time>2026-08-20T07:46:45.000Z</time>
      </trkpt>
      <trkpt lat="47.8449" lon="6.9168">
        <ele>1168</ele>
        <time>2026-08-20T07:46:47.000Z</time>
      </trkpt>
      <trkpt lat="47.84485" lon="6.91682">
        <ele>1166.8</ele>
        <time>2026-08-20T07:46:49.000Z</time>
      </trkpt>
      <trkpt lat="47.84479" lon="6.91683">
        <ele>1165.4</ele>
        <time>2026-08-20T07:46:51.000Z</time>
      </trkpt>
      <trkpt lat="47.84472" lon="6.91685">
        <ele>1163.8</ele>
        <time>2026-08-20T07:46:53.000Z</time>
      </trkpt>
      <trkpt lat="47.84466" lon="6.91686">
        <ele>1162.4</ele>
        <time>2026-08-20T07:46:55.000Z</time>
      </trkpt>
      <trkpt lat="47.84463" lon="6.91687">
        <ele>1161.8</ele>
        <time>2026-08-20T07:46:56.000Z</time>
      </trkpt>
      <trkpt lat="47.84461" lon="6.91687">
        <ele>1161.2</ele>
        <time>2026-08-20T07:46:57.000Z</time>
      </trkpt>
      <trkpt lat="47.84456" lon="6.91687">
        <ele>1160.2</ele>
        <time>2026-08-20T07:46:59.000Z</time>
      </trkpt>
      <trkpt lat="47.84452" lon="6.9169">
        <ele>1159.2</ele>
        <time>2026-08-20T07:47:01.000Z</time>
      </trkpt>
      <trkpt lat="47.8445" lon="6.91691">
        <ele>1158.8</ele>
        <time>2026-08-20T07:47:02.000Z</time>
      </trkpt>
      <trkpt lat="47.84444" lon="6.91692">
        <ele>1157.6</ele>
        <time>2026-08-20T07:47:04.000Z</time>
      </trkpt>
      <trkpt lat="47.84439" lon="6.91692">
        <ele>1156</ele>
        <time>2026-08-20T07:47:06.000Z</time>
      </trkpt>
      <trkpt lat="47.84435" lon="6.91693">
        <ele>1154.6</ele>
        <time>2026-08-20T07:47:08.000Z</time>
      </trkpt>
      <trkpt lat="47.84432" lon="6.91692">
        <ele>1153.6</ele>
        <time>2026-08-20T07:47:11.000Z</time>
      </trkpt>
      <trkpt lat="47.84431" lon="6.91691">
        <ele>1153.2</ele>
        <time>2026-08-20T07:47:13.000Z</time>
      </trkpt>
      <trkpt lat="47.84426" lon="6.91688">
        <ele>1152.6</ele>
        <time>2026-08-20T07:47:18.000Z</time>
      </trkpt>
      <trkpt lat="47.84424" lon="6.91688">
        <ele>1152.2</ele>
        <time>2026-08-20T07:47:20.000Z</time>
      </trkpt>
      <trkpt lat="47.8442" lon="6.91689">
        <ele>1151.4</ele>
        <time>2026-08-20T07:47:23.000Z</time>
      </trkpt>
      <trkpt lat="47.84419" lon="6.91688">
        <ele>1151</ele>
        <time>2026-08-20T07:47:24.000Z</time>
      </trkpt>
      <trkpt lat="47.84417" lon="6.91685">
        <ele>1150.2</ele>
        <time>2026-08-20T07:47:26.000Z</time>
      </trkpt>
      <trkpt lat="47.84416" lon="6.91683">
        <ele>1149.6</ele>
        <time>2026-08-20T07:47:30.000Z</time>
      </trkpt>
      <trkpt lat="47.84416" lon="6.91683">
        <ele>1149.6</ele>
        <time>2026-08-20T07:47:34.000Z</time>
      </trkpt>
      <trkpt lat="47.84416" lon="6.91683">
        <ele>1149.6</ele>
        <time>2026-08-20T07:47:35.000Z</time>
      </trkpt>
      <trkpt lat="47.84414" lon="6.91683">
        <ele>1149.2</ele>
        <time>2026-08-20T07:47:37.000Z</time>
      </trkpt>
      <trkpt lat="47.84414" lon="6.91683">
        <ele>1149</ele>
        <time>2026-08-20T07:47:38.000Z</time>
      </trkpt>
      <trkpt lat="47.84412" lon="6.91684">
        <ele>1148.2</ele>
        <time>2026-08-20T07:47:42.000Z</time>
      </trkpt>
      <trkpt lat="47.84411" lon="6.91684">
        <ele>1148</ele>
        <time>2026-08-20T07:47:43.000Z</time>
      </trkpt>
      <trkpt lat="47.84405" lon="6.91683">
        <ele>1146.8</ele>
        <time>2026-08-20T07:47:48.000Z</time>
      </trkpt>
      <trkpt lat="47.84404" lon="6.91683">
        <ele>1146.4</ele>
        <time>2026-08-20T07:47:49.000Z</time>
      </trkpt>
      <trkpt lat="47.844" lon="6.91682">
        <ele>1145.4</ele>
        <time>2026-08-20T07:47:51.000Z</time>
      </trkpt>
      <trkpt lat="47.84394" lon="6.91682">
        <ele>1143.8</ele>
        <time>2026-08-20T07:47:54.000Z</time>
      </trkpt>
      <trkpt lat="47.84394" lon="6.91681">
        <ele>1142.6</ele>
        <time>2026-08-20T07:47:57.000Z</time>
      </trkpt>
      <trkpt lat="47.84394" lon="6.91681">
        <ele>1142.6</ele>
        <time>2026-08-20T07:47:58.000Z</time>
      </trkpt>
      <trkpt lat="47.84391" lon="6.91678">
        <ele>1142.6</ele>
        <time>2026-08-20T07:48:04.000Z</time>
      </trkpt>
      <trkpt lat="47.84382" lon="6.91677">
        <ele>1141.4</ele>
        <time>2026-08-20T07:48:08.000Z</time>
      </trkpt>
      <trkpt lat="47.84377" lon="6.91674">
        <ele>1140</ele>
        <time>2026-08-20T07:48:11.000Z</time>
      </trkpt>
      <trkpt lat="47.84375" lon="6.91674">
        <ele>1139.4</ele>
        <time>2026-08-20T07:48:12.000Z</time>
      </trkpt>
      <trkpt lat="47.84373" lon="6.91672">
        <ele>1138.8</ele>
        <time>2026-08-20T07:48:13.000Z</time>
      </trkpt>
      <trkpt lat="47.84369" lon="6.91671">
        <ele>1137.6</ele>
        <time>2026-08-20T07:48:15.000Z</time>
      </trkpt>
      <trkpt lat="47.84366" lon="6.91669">
        <ele>1136.6</ele>
        <time>2026-08-20T07:48:17.000Z</time>
      </trkpt>
      <trkpt lat="47.84366" lon="6.9167">
        <ele>1136.4</ele>
        <time>2026-08-20T07:48:18.000Z</time>
      </trkpt>
      <trkpt lat="47.84366" lon="6.9167">
        <ele>1136.2</ele>
        <time>2026-08-20T07:48:20.000Z</time>
      </trkpt>
      <trkpt lat="47.84366" lon="6.9167">
        <ele>1136.2</ele>
        <time>2026-08-20T07:48:22.000Z</time>
      </trkpt>
      <trkpt lat="47.84361" lon="6.91669">
        <ele>1135.6</ele>
        <time>2026-08-20T07:48:29.000Z</time>
      </trkpt>
      <trkpt lat="47.8436" lon="6.91669">
        <ele>1135</ele>
        <time>2026-08-20T07:48:30.000Z</time>
      </trkpt>
      <trkpt lat="47.84355" lon="6.91669">
        <ele>1133.8</ele>
        <time>2026-08-20T07:48:32.000Z</time>
      </trkpt>
      <trkpt lat="47.8435" lon="6.91669">
        <ele>1132.4</ele>
        <time>2026-08-20T07:48:34.000Z</time>
      </trkpt>
      <trkpt lat="47.84347" lon="6.91669">
        <ele>1131.8</ele>
        <time>2026-08-20T07:48:35.000Z</time>
      </trkpt>
      <trkpt lat="47.84344" lon="6.91668">
        <ele>1131.2</ele>
        <time>2026-08-20T07:48:36.000Z</time>
      </trkpt>
      <trkpt lat="47.84337" lon="6.91662">
        <ele>1129.8</ele>
        <time>2026-08-20T07:48:39.000Z</time>
      </trkpt>
      <trkpt lat="47.84335" lon="6.91659">
        <ele>1129.4</ele>
        <time>2026-08-20T07:48:40.000Z</time>
      </trkpt>
      <trkpt lat="47.8433" lon="6.91651">
        <ele>1128.6</ele>
        <time>2026-08-20T07:48:43.000Z</time>
      </trkpt>
      <trkpt lat="47.84327" lon="6.91645">
        <ele>1128.2</ele>
        <time>2026-08-20T07:48:45.000Z</time>
      </trkpt>
      <trkpt lat="47.84316" lon="6.91625">
        <ele>1127.8</ele>
        <time>2026-08-20T07:48:52.000Z</time>
      </trkpt>
      <trkpt lat="47.84312" lon="6.9162">
        <ele>1127.6</ele>
        <time>2026-08-20T07:48:54.000Z</time>
      </trkpt>
      <trkpt lat="47.84305" lon="6.91608">
        <ele>1126.8</ele>
        <time>2026-08-20T07:48:59.000Z</time>
      </trkpt>
      <trkpt lat="47.843" lon="6.91597">
        <ele>1126.4</ele>
        <time>2026-08-20T07:49:03.000Z</time>
      </trkpt>
      <trkpt lat="47.843" lon="6.91593">
        <ele>1126</ele>
        <time>2026-08-20T07:49:05.000Z</time>
      </trkpt>
      <trkpt lat="47.843" lon="6.91594">
        <ele>1126.6</ele>
        <time>2026-08-20T07:49:09.000Z</time>
      </trkpt>
      <trkpt lat="47.843" lon="6.91594">
        <ele>1126.6</ele>
        <time>2026-08-20T07:49:17.000Z</time>
      </trkpt>
      <trkpt lat="47.843" lon="6.91594">
        <ele>1126.8</ele>
        <time>2026-08-20T07:49:22.000Z</time>
      </trkpt>
      <trkpt lat="47.84301" lon="6.91599">
        <ele>1126.2</ele>
        <time>2026-08-20T07:49:29.000Z</time>
      </trkpt>
      <trkpt lat="47.84302" lon="6.916">
        <ele>1126.4</ele>
        <time>2026-08-20T07:49:36.000Z</time>
      </trkpt>
      <trkpt lat="47.84301" lon="6.91599">
        <ele>1126.4</ele>
        <time>2026-08-20T07:49:43.000Z</time>
      </trkpt>
      <trkpt lat="47.84301" lon="6.91602">
        <ele>1126.2</ele>
        <time>2026-08-20T07:49:52.000Z</time>
      </trkpt>
      <trkpt lat="47.84295" lon="6.916">
        <ele>1125.4</ele>
        <time>2026-08-20T07:49:55.000Z</time>
      </trkpt>
      <trkpt lat="47.84293" lon="6.91599">
        <ele>1124.8</ele>
        <time>2026-08-20T07:49:56.000Z</time>
      </trkpt>
      <trkpt lat="47.8429" lon="6.91597">
        <ele>1124.2</ele>
        <time>2026-08-20T07:49:57.000Z</time>
      </trkpt>
      <trkpt lat="47.84286" lon="6.91593">
        <ele>1122.8</ele>
        <time>2026-08-20T07:49:59.000Z</time>
      </trkpt>
      <trkpt lat="47.84282" lon="6.9159">
        <ele>1121.8</ele>
        <time>2026-08-20T07:50:01.000Z</time>
      </trkpt>
      <trkpt lat="47.84276" lon="6.91586">
        <ele>1120.4</ele>
        <time>2026-08-20T07:50:04.000Z</time>
      </trkpt>
      <trkpt lat="47.84271" lon="6.91579">
        <ele>1119</ele>
        <time>2026-08-20T07:50:07.000Z</time>
      </trkpt>
      <trkpt lat="47.84262" lon="6.91572">
        <ele>1118</ele>
        <time>2026-08-20T07:50:12.000Z</time>
      </trkpt>
      <trkpt lat="47.84261" lon="6.91571">
        <ele>1117.8</ele>
        <time>2026-08-20T07:50:13.000Z</time>
      </trkpt>
      <trkpt lat="47.8426" lon="6.91572">
        <ele>1117.4</ele>
        <time>2026-08-20T07:50:15.000Z</time>
      </trkpt>
      <trkpt lat="47.84257" lon="6.91574">
        <ele>1116.6</ele>
        <time>2026-08-20T07:50:17.000Z</time>
      </trkpt>
      <trkpt lat="47.84254" lon="6.91575">
        <ele>1115.6</ele>
        <time>2026-08-20T07:50:21.000Z</time>
      </trkpt>
      <trkpt lat="47.84252" lon="6.91573">
        <ele>1115</ele>
        <time>2026-08-20T07:50:25.000Z</time>
      </trkpt>
      <trkpt lat="47.84251" lon="6.91573">
        <ele>1115</ele>
        <time>2026-08-20T07:50:26.000Z</time>
      </trkpt>
      <trkpt lat="47.84252" lon="6.91573">
        <ele>1114.6</ele>
        <time>2026-08-20T07:50:34.000Z</time>
      </trkpt>
      <trkpt lat="47.84251" lon="6.91573">
        <ele>1114.6</ele>
        <time>2026-08-20T07:50:40.000Z</time>
      </trkpt>
      <trkpt lat="47.84251" lon="6.91573">
        <ele>1114.4</ele>
        <time>2026-08-20T07:50:41.000Z</time>
      </trkpt>
      <trkpt lat="47.84252" lon="6.91572">
        <ele>1115</ele>
        <time>2026-08-20T07:50:49.000Z</time>
      </trkpt>
      <trkpt lat="47.84251" lon="6.91573">
        <ele>1114.6</ele>
        <time>2026-08-20T07:50:55.000Z</time>
      </trkpt>
      <trkpt lat="47.84251" lon="6.91573">
        <ele>1114.8</ele>
        <time>2026-08-20T07:51:00.000Z</time>
      </trkpt>
      <trkpt lat="47.84251" lon="6.91573">
        <ele>1114.8</ele>
        <time>2026-08-20T07:51:01.000Z</time>
      </trkpt>
      <trkpt lat="47.84251" lon="6.91573">
        <ele>1114.8</ele>
        <time>2026-08-20T07:51:02.000Z</time>
      </trkpt>
      <trkpt lat="47.84252" lon="6.91572">
        <ele>1114.8</ele>
        <time>2026-08-20T07:51:09.000Z</time>
      </trkpt>
      <trkpt lat="47.84252" lon="6.91572">
        <ele>1114.6</ele>
        <time>2026-08-20T07:51:10.000Z</time>
      </trkpt>
      <trkpt lat="47.84247" lon="6.91573">
        <ele>1114.6</ele>
        <time>2026-08-20T07:51:18.000Z</time>
      </trkpt>
      <trkpt lat="47.84239" lon="6.91573">
        <ele>1113.6</ele>
        <time>2026-08-20T07:51:20.000Z</time>
      </trkpt>
      <trkpt lat="47.8423" lon="6.91573">
        <ele>1111.6</ele>
        <time>2026-08-20T07:51:22.000Z</time>
      </trkpt>
      <trkpt lat="47.84225" lon="6.91571">
        <ele>1110.8</ele>
        <time>2026-08-20T07:51:23.000Z</time>
      </trkpt>
      <trkpt lat="47.84221" lon="6.9157">
        <ele>1110</ele>
        <time>2026-08-20T07:51:24.000Z</time>
      </trkpt>
      <trkpt lat="47.84216" lon="6.9157">
        <ele>1109.2</ele>
        <time>2026-08-20T07:51:25.000Z</time>
      </trkpt>
      <trkpt lat="47.84212" lon="6.9157">
        <ele>1108.6</ele>
        <time>2026-08-20T07:51:26.000Z</time>
      </trkpt>
      <trkpt lat="47.84208" lon="6.91573">
        <ele>1107.8</ele>
        <time>2026-08-20T07:51:27.000Z</time>
      </trkpt>
      <trkpt lat="47.84204" lon="6.91576">
        <ele>1106.8</ele>
        <time>2026-08-20T07:51:28.000Z</time>
      </trkpt>
      <trkpt lat="47.84201" lon="6.91581">
        <ele>1105.8</ele>
        <time>2026-08-20T07:51:29.000Z</time>
      </trkpt>
      <trkpt lat="47.84198" lon="6.91586">
        <ele>1105</ele>
        <time>2026-08-20T07:51:30.000Z</time>
      </trkpt>
      <trkpt lat="47.84194" lon="6.9159">
        <ele>1104.2</ele>
        <time>2026-08-20T07:51:31.000Z</time>
      </trkpt>
      <trkpt lat="47.8419" lon="6.91593">
        <ele>1103.4</ele>
        <time>2026-08-20T07:51:32.000Z</time>
      </trkpt>
      <trkpt lat="47.84186" lon="6.91594">
        <ele>1102.6</ele>
        <time>2026-08-20T07:51:33.000Z</time>
      </trkpt>
      <trkpt lat="47.84181" lon="6.91594">
        <ele>1102</ele>
        <time>2026-08-20T07:51:34.000Z</time>
      </trkpt>
      <trkpt lat="47.84176" lon="6.91592">
        <ele>1101</ele>
        <time>2026-08-20T07:51:35.000Z</time>
      </trkpt>
      <trkpt lat="47.84171" lon="6.9159">
        <ele>1100.2</ele>
        <time>2026-08-20T07:51:36.000Z</time>
      </trkpt>
      <trkpt lat="47.84159" lon="6.91586">
        <ele>1098.6</ele>
        <time>2026-08-20T07:51:38.000Z</time>
      </trkpt>
      <trkpt lat="47.84148" lon="6.91584">
        <ele>1097</ele>
        <time>2026-08-20T07:51:40.000Z</time>
      </trkpt>
      <trkpt lat="47.84141" lon="6.91583">
        <ele>1095.8</ele>
        <time>2026-08-20T07:51:41.000Z</time>
      </trkpt>
      <trkpt lat="47.84135" lon="6.91581">
        <ele>1094.6</ele>
        <time>2026-08-20T07:51:42.000Z</time>
      </trkpt>
      <trkpt lat="47.84122" lon="6.91576">
        <ele>1093</ele>
        <time>2026-08-20T07:51:44.000Z</time>
      </trkpt>
      <trkpt lat="47.84114" lon="6.91576">
        <ele>1092.6</ele>
        <time>2026-08-20T07:51:45.000Z</time>
      </trkpt>
      <trkpt lat="47.84107" lon="6.91575">
        <ele>1091.8</ele>
        <time>2026-08-20T07:51:46.000Z</time>
      </trkpt>
      <trkpt lat="47.8409" lon="6.91569">
        <ele>1090.6</ele>
        <time>2026-08-20T07:51:49.000Z</time>
      </trkpt>
      <trkpt lat="47.84084" lon="6.91569">
        <ele>1090.4</ele>
        <time>2026-08-20T07:51:50.000Z</time>
      </trkpt>
      <trkpt lat="47.84073" lon="6.91568">
        <ele>1089.4</ele>
        <time>2026-08-20T07:51:52.000Z</time>
      </trkpt>
      <trkpt lat="47.84062" lon="6.91564">
        <ele>1088</ele>
        <time>2026-08-20T07:51:54.000Z</time>
      </trkpt>
      <trkpt lat="47.84057" lon="6.91562">
        <ele>1087.4</ele>
        <time>2026-08-20T07:51:55.000Z</time>
      </trkpt>
      <trkpt lat="47.84052" lon="6.91559">
        <ele>1086.8</ele>
        <time>2026-08-20T07:51:56.000Z</time>
      </trkpt>
      <trkpt lat="47.84035" lon="6.91551">
        <ele>1085.6</ele>
        <time>2026-08-20T07:52:00.000Z</time>
      </trkpt>
      <trkpt lat="47.84032" lon="6.91549">
        <ele>1085.2</ele>
        <time>2026-08-20T07:52:01.000Z</time>
      </trkpt>
      <trkpt lat="47.8403" lon="6.91548">
        <ele>1084.6</ele>
        <time>2026-08-20T07:52:02.000Z</time>
      </trkpt>
      <trkpt lat="47.8403" lon="6.91547">
        <ele>1084.2</ele>
        <time>2026-08-20T07:52:05.000Z</time>
      </trkpt>
      <trkpt lat="47.8403" lon="6.91547">
        <ele>1084.6</ele>
        <time>2026-08-20T07:52:07.000Z</time>
      </trkpt>
      <trkpt lat="47.8403" lon="6.91547">
        <ele>1085.2</ele>
        <time>2026-08-20T07:52:15.000Z</time>
      </trkpt>
      <trkpt lat="47.84026" lon="6.91545">
        <ele>1085.4</ele>
        <time>2026-08-20T07:52:21.000Z</time>
      </trkpt>
      <trkpt lat="47.84013" lon="6.91536">
        <ele>1085</ele>
        <time>2026-08-20T07:52:25.000Z</time>
      </trkpt>
      <trkpt lat="47.83999" lon="6.91519">
        <ele>1084</ele>
        <time>2026-08-20T07:52:29.000Z</time>
      </trkpt>
      <trkpt lat="47.83993" lon="6.91512">
        <ele>1083.8</ele>
        <time>2026-08-20T07:52:31.000Z</time>
      </trkpt>
      <trkpt lat="47.83988" lon="6.91506">
        <ele>1083.6</ele>
        <time>2026-08-20T07:52:33.000Z</time>
      </trkpt>
      <trkpt lat="47.83983" lon="6.91501">
        <ele>1083</ele>
        <time>2026-08-20T07:52:35.000Z</time>
      </trkpt>
      <trkpt lat="47.83981" lon="6.91496">
        <ele>1082.6</ele>
        <time>2026-08-20T07:52:37.000Z</time>
      </trkpt>
      <trkpt lat="47.83979" lon="6.91493">
        <ele>1082.6</ele>
        <time>2026-08-20T07:52:38.000Z</time>
      </trkpt>
      <trkpt lat="47.83977" lon="6.91491">
        <ele>1082.4</ele>
        <time>2026-08-20T07:52:39.000Z</time>
      </trkpt>
      <trkpt lat="47.83969" lon="6.91483">
        <ele>1083</ele>
        <time>2026-08-20T07:52:43.000Z</time>
      </trkpt>
      <trkpt lat="47.83962" lon="6.91478">
        <ele>1083.6</ele>
        <time>2026-08-20T07:52:46.000Z</time>
      </trkpt>
      <trkpt lat="47.83957" lon="6.91472">
        <ele>1084</ele>
        <time>2026-08-20T07:52:49.000Z</time>
      </trkpt>
      <trkpt lat="47.83956" lon="6.9147">
        <ele>1084</ele>
        <time>2026-08-20T07:52:50.000Z</time>
      </trkpt>
      <trkpt lat="47.83955" lon="6.9146">
        <ele>1083.4</ele>
        <time>2026-08-20T07:52:55.000Z</time>
      </trkpt>
      <trkpt lat="47.83959" lon="6.91454">
        <ele>1082.4</ele>
        <time>2026-08-20T07:52:59.000Z</time>
      </trkpt>
      <trkpt lat="47.83963" lon="6.91446">
        <ele>1081.4</ele>
        <time>2026-08-20T07:53:02.000Z</time>
      </trkpt>
      <trkpt lat="47.83967" lon="6.91437">
        <ele>1080.2</ele>
        <time>2026-08-20T07:53:05.000Z</time>
      </trkpt>
      <trkpt lat="47.83971" lon="6.91432">
        <ele>1079.4</ele>
        <time>2026-08-20T07:53:07.000Z</time>
      </trkpt>
      <trkpt lat="47.83973" lon="6.91431">
        <ele>1079</ele>
        <time>2026-08-20T07:53:08.000Z</time>
      </trkpt>
      <trkpt lat="47.83978" lon="6.91425">
        <ele>1077.8</ele>
        <time>2026-08-20T07:53:11.000Z</time>
      </trkpt>
      <trkpt lat="47.83979" lon="6.91421">
        <ele>1077.2</ele>
        <time>2026-08-20T07:53:13.000Z</time>
      </trkpt>
      <trkpt lat="47.83981" lon="6.91419">
        <ele>1076.6</ele>
        <time>2026-08-20T07:53:15.000Z</time>
      </trkpt>
      <trkpt lat="47.83982" lon="6.91418">
        <ele>1076</ele>
        <time>2026-08-20T07:53:19.000Z</time>
      </trkpt>
      <trkpt lat="47.83982" lon="6.91416">
        <ele>1075.4</ele>
        <time>2026-08-20T07:53:22.000Z</time>
      </trkpt>
      <trkpt lat="47.83981" lon="6.91413">
        <ele>1074.8</ele>
        <time>2026-08-20T07:53:26.000Z</time>
      </trkpt>
      <trkpt lat="47.83975" lon="6.914">
        <ele>1074</ele>
        <time>2026-08-20T07:53:31.000Z</time>
      </trkpt>
      <trkpt lat="47.83971" lon="6.91388">
        <ele>1072.8</ele>
        <time>2026-08-20T07:53:34.000Z</time>
      </trkpt>
      <trkpt lat="47.83969" lon="6.91375">
        <ele>1071.6</ele>
        <time>2026-08-20T07:53:37.000Z</time>
      </trkpt>
      <trkpt lat="47.83961" lon="6.9136">
        <ele>1070.6</ele>
        <time>2026-08-20T07:53:41.000Z</time>
      </trkpt>
      <trkpt lat="47.83956" lon="6.91354">
        <ele>1070.4</ele>
        <time>2026-08-20T07:53:43.000Z</time>
      </trkpt>
      <trkpt lat="47.83948" lon="6.91341">
        <ele>1069.4</ele>
        <time>2026-08-20T07:53:46.000Z</time>
      </trkpt>
      <trkpt lat="47.83944" lon="6.91334">
        <ele>1068.6</ele>
        <time>2026-08-20T07:53:48.000Z</time>
      </trkpt>
      <trkpt lat="47.83941" lon="6.91329">
        <ele>1068.2</ele>
        <time>2026-08-20T07:53:49.000Z</time>
      </trkpt>
      <trkpt lat="47.83935" lon="6.91318">
        <ele>1067.2</ele>
        <time>2026-08-20T07:53:52.000Z</time>
      </trkpt>
      <trkpt lat="47.83933" lon="6.91314">
        <ele>1067</ele>
        <time>2026-08-20T07:53:53.000Z</time>
      </trkpt>
      <trkpt lat="47.83925" lon="6.91305">
        <ele>1066.2</ele>
        <time>2026-08-20T07:53:56.000Z</time>
      </trkpt>
      <trkpt lat="47.8391" lon="6.91294">
        <ele>1064.8</ele>
        <time>2026-08-20T07:54:00.000Z</time>
      </trkpt>
      <trkpt lat="47.83895" lon="6.91287">
        <ele>1063.6</ele>
        <time>2026-08-20T07:54:04.000Z</time>
      </trkpt>
      <trkpt lat="47.8389" lon="6.91282">
        <ele>1062.8</ele>
        <time>2026-08-20T07:54:06.000Z</time>
      </trkpt>
      <trkpt lat="47.83888" lon="6.91279">
        <ele>1062.4</ele>
        <time>2026-08-20T07:54:07.000Z</time>
      </trkpt>
      <trkpt lat="47.83889" lon="6.91263">
        <ele>1061.2</ele>
        <time>2026-08-20T07:54:11.000Z</time>
      </trkpt>
      <trkpt lat="47.83899" lon="6.9126">
        <ele>1060.2</ele>
        <time>2026-08-20T07:54:16.000Z</time>
      </trkpt>
      <trkpt lat="47.83909" lon="6.91263">
        <ele>1059.2</ele>
        <time>2026-08-20T07:54:19.000Z</time>
      </trkpt>
      <trkpt lat="47.83915" lon="6.91264">
        <ele>1058.4</ele>
        <time>2026-08-20T07:54:21.000Z</time>
      </trkpt>
      <trkpt lat="47.83919" lon="6.91264">
        <ele>1058.2</ele>
        <time>2026-08-20T07:54:22.000Z</time>
      </trkpt>
      <trkpt lat="47.83925" lon="6.91265">
        <ele>1057.6</ele>
        <time>2026-08-20T07:54:24.000Z</time>
      </trkpt>
      <trkpt lat="47.83928" lon="6.91265">
        <ele>1057.4</ele>
        <time>2026-08-20T07:54:25.000Z</time>
      </trkpt>
      <trkpt lat="47.83931" lon="6.91266">
        <ele>1057.2</ele>
        <time>2026-08-20T07:54:26.000Z</time>
      </trkpt>
      <trkpt lat="47.83933" lon="6.91266">
        <ele>1057</ele>
        <time>2026-08-20T07:54:27.000Z</time>
      </trkpt>
      <trkpt lat="47.83936" lon="6.91267">
        <ele>1057</ele>
        <time>2026-08-20T07:54:28.000Z</time>
      </trkpt>
      <trkpt lat="47.83945" lon="6.91269">
        <ele>1056</ele>
        <time>2026-08-20T07:54:31.000Z</time>
      </trkpt>
      <trkpt lat="47.83948" lon="6.9127">
        <ele>1055.8</ele>
        <time>2026-08-20T07:54:32.000Z</time>
      </trkpt>
      <trkpt lat="47.83964" lon="6.91271">
        <ele>1054.6</ele>
        <time>2026-08-20T07:54:36.000Z</time>
      </trkpt>
      <trkpt lat="47.83974" lon="6.91273">
        <ele>1053.6</ele>
        <time>2026-08-20T07:54:39.000Z</time>
      </trkpt>
      <trkpt lat="47.83979" lon="6.91274">
        <ele>1053.4</ele>
        <time>2026-08-20T07:54:40.000Z</time>
      </trkpt>
      <trkpt lat="47.83995" lon="6.91276">
        <ele>1052.6</ele>
        <time>2026-08-20T07:54:44.000Z</time>
      </trkpt>
      <trkpt lat="47.84001" lon="6.91273">
        <ele>1052.2</ele>
        <time>2026-08-20T07:54:46.000Z</time>
      </trkpt>
      <trkpt lat="47.84004" lon="6.91267">
        <ele>1051.6</ele>
        <time>2026-08-20T07:54:48.000Z</time>
      </trkpt>
      <trkpt lat="47.84005" lon="6.91261">
        <ele>1051.2</ele>
        <time>2026-08-20T07:54:49.000Z</time>
      </trkpt>
      <trkpt lat="47.84004" lon="6.91254">
        <ele>1050.4</ele>
        <time>2026-08-20T07:54:51.000Z</time>
      </trkpt>
      <trkpt lat="47.84002" lon="6.91251">
        <ele>1050</ele>
        <time>2026-08-20T07:54:52.000Z</time>
      </trkpt>
      <trkpt lat="47.83999" lon="6.91249">
        <ele>1049.8</ele>
        <time>2026-08-20T07:54:53.000Z</time>
      </trkpt>
      <trkpt lat="47.83994" lon="6.91245">
        <ele>1049.2</ele>
        <time>2026-08-20T07:54:55.000Z</time>
      </trkpt>
      <trkpt lat="47.8399" lon="6.91243">
        <ele>1048.8</ele>
        <time>2026-08-20T07:54:56.000Z</time>
      </trkpt>
      <trkpt lat="47.83973" lon="6.91236">
        <ele>1048</ele>
        <time>2026-08-20T07:55:01.000Z</time>
      </trkpt>
      <trkpt lat="47.83971" lon="6.91232">
        <ele>1047.8</ele>
        <time>2026-08-20T07:55:02.000Z</time>
      </trkpt>
      <trkpt lat="47.83963" lon="6.91223">
        <ele>1046.6</ele>
        <time>2026-08-20T07:55:05.000Z</time>
      </trkpt>
      <trkpt lat="47.8396" lon="6.9122">
        <ele>1046.4</ele>
        <time>2026-08-20T07:55:06.000Z</time>
      </trkpt>
      <trkpt lat="47.83946" lon="6.91209">
        <ele>1045.6</ele>
        <time>2026-08-20T07:55:10.000Z</time>
      </trkpt>
      <trkpt lat="47.8394" lon="6.91203">
        <ele>1045</ele>
        <time>2026-08-20T07:55:12.000Z</time>
      </trkpt>
      <trkpt lat="47.83937" lon="6.912">
        <ele>1044.6</ele>
        <time>2026-08-20T07:55:13.000Z</time>
      </trkpt>
      <trkpt lat="47.83931" lon="6.91196">
        <ele>1043.8</ele>
        <time>2026-08-20T07:55:15.000Z</time>
      </trkpt>
      <trkpt lat="47.83927" lon="6.91194">
        <ele>1043.4</ele>
        <time>2026-08-20T07:55:16.000Z</time>
      </trkpt>
      <trkpt lat="47.83917" lon="6.91191">
        <ele>1042.4</ele>
        <time>2026-08-20T07:55:19.000Z</time>
      </trkpt>
      <trkpt lat="47.83913" lon="6.91191">
        <ele>1042.2</ele>
        <time>2026-08-20T07:55:20.000Z</time>
      </trkpt>
      <trkpt lat="47.83901" lon="6.91187">
        <ele>1041.2</ele>
        <time>2026-08-20T07:55:24.000Z</time>
      </trkpt>
      <trkpt lat="47.83896" lon="6.91182">
        <ele>1040.4</ele>
        <time>2026-08-20T07:55:26.000Z</time>
      </trkpt>
      <trkpt lat="47.83894" lon="6.91179">
        <ele>1040</ele>
        <time>2026-08-20T07:55:27.000Z</time>
      </trkpt>
      <trkpt lat="47.83893" lon="6.91163">
        <ele>1039</ele>
        <time>2026-08-20T07:55:31.000Z</time>
      </trkpt>
      <trkpt lat="47.83895" lon="6.9116">
        <ele>1038.8</ele>
        <time>2026-08-20T07:55:32.000Z</time>
      </trkpt>
      <trkpt lat="47.83905" lon="6.91155">
        <ele>1038.6</ele>
        <time>2026-08-20T07:55:36.000Z</time>
      </trkpt>
      <trkpt lat="47.83914" lon="6.91158">
        <ele>1038</ele>
        <time>2026-08-20T07:55:39.000Z</time>
      </trkpt>
      <trkpt lat="47.83919" lon="6.91159">
        <ele>1037.2</ele>
        <time>2026-08-20T07:55:41.000Z</time>
      </trkpt>
      <trkpt lat="47.83925" lon="6.9116">
        <ele>1036.8</ele>
        <time>2026-08-20T07:55:43.000Z</time>
      </trkpt>
      <trkpt lat="47.83936" lon="6.91157">
        <ele>1036</ele>
        <time>2026-08-20T07:55:46.000Z</time>
      </trkpt>
      <trkpt lat="47.83943" lon="6.91159">
        <ele>1035.6</ele>
        <time>2026-08-20T07:55:48.000Z</time>
      </trkpt>
      <trkpt lat="47.83955" lon="6.91163">
        <ele>1034.8</ele>
        <time>2026-08-20T07:55:52.000Z</time>
      </trkpt>
      <trkpt lat="47.83957" lon="6.91164">
        <ele>1034.6</ele>
        <time>2026-08-20T07:55:53.000Z</time>
      </trkpt>
      <trkpt lat="47.83967" lon="6.91166">
        <ele>1033.8</ele>
        <time>2026-08-20T07:55:57.000Z</time>
      </trkpt>
      <trkpt lat="47.83969" lon="6.91166">
        <ele>1033.4</ele>
        <time>2026-08-20T07:55:58.000Z</time>
      </trkpt>
      <trkpt lat="47.83977" lon="6.9116">
        <ele>1032.2</ele>
        <time>2026-08-20T07:56:02.000Z</time>
      </trkpt>
      <trkpt lat="47.83978" lon="6.91158">
        <ele>1032</ele>
        <time>2026-08-20T07:56:03.000Z</time>
      </trkpt>
      <trkpt lat="47.83979" lon="6.91155">
        <ele>1031.6</ele>
        <time>2026-08-20T07:56:04.000Z</time>
      </trkpt>
      <trkpt lat="47.83978" lon="6.91148">
        <ele>1031</ele>
        <time>2026-08-20T07:56:06.000Z</time>
      </trkpt>
      <trkpt lat="47.83976" lon="6.91141">
        <ele>1030.4</ele>
        <time>2026-08-20T07:56:08.000Z</time>
      </trkpt>
      <trkpt lat="47.83974" lon="6.91139">
        <ele>1030.2</ele>
        <time>2026-08-20T07:56:09.000Z</time>
      </trkpt>
      <trkpt lat="47.83971" lon="6.91137">
        <ele>1029.8</ele>
        <time>2026-08-20T07:56:10.000Z</time>
      </trkpt>
      <trkpt lat="47.83966" lon="6.91134">
        <ele>1029.2</ele>
        <time>2026-08-20T07:56:12.000Z</time>
      </trkpt>
      <trkpt lat="47.83961" lon="6.91131">
        <ele>1028.6</ele>
        <time>2026-08-20T07:56:14.000Z</time>
      </trkpt>
      <trkpt lat="47.8395" lon="6.91125">
        <ele>1027.4</ele>
        <time>2026-08-20T07:56:18.000Z</time>
      </trkpt>
      <trkpt lat="47.83939" lon="6.9112">
        <ele>1026</ele>
        <time>2026-08-20T07:56:22.000Z</time>
      </trkpt>
      <trkpt lat="47.83929" lon="6.91116">
        <ele>1025.2</ele>
        <time>2026-08-20T07:56:25.000Z</time>
      </trkpt>
      <trkpt lat="47.83927" lon="6.91115">
        <ele>1024.8</ele>
        <time>2026-08-20T07:56:26.000Z</time>
      </trkpt>
      <trkpt lat="47.8392" lon="6.91113">
        <ele>1023.8</ele>
        <time>2026-08-20T07:56:28.000Z</time>
      </trkpt>
      <trkpt lat="47.83906" lon="6.91111">
        <ele>1022.6</ele>
        <time>2026-08-20T07:56:32.000Z</time>
      </trkpt>
      <trkpt lat="47.83893" lon="6.91109">
        <ele>1021.4</ele>
        <time>2026-08-20T07:56:36.000Z</time>
      </trkpt>
      <trkpt lat="47.83884" lon="6.91108">
        <ele>1020.4</ele>
        <time>2026-08-20T07:56:39.000Z</time>
      </trkpt>
      <trkpt lat="47.83881" lon="6.91108">
        <ele>1020.2</ele>
        <time>2026-08-20T07:56:40.000Z</time>
      </trkpt>
      <trkpt lat="47.83872" lon="6.91108">
        <ele>1019</ele>
        <time>2026-08-20T07:56:43.000Z</time>
      </trkpt>
      <trkpt lat="47.83864" lon="6.9111">
        <ele>1018.2</ele>
        <time>2026-08-20T07:56:46.000Z</time>
      </trkpt>
      <trkpt lat="47.83861" lon="6.91111">
        <ele>1018</ele>
        <time>2026-08-20T07:56:47.000Z</time>
      </trkpt>
      <trkpt lat="47.83846" lon="6.91113">
        <ele>1016.8</ele>
        <time>2026-08-20T07:56:52.000Z</time>
      </trkpt>
      <trkpt lat="47.83843" lon="6.91114">
        <ele>1016.6</ele>
        <time>2026-08-20T07:56:53.000Z</time>
      </trkpt>
      <trkpt lat="47.83833" lon="6.91115">
        <ele>1015.6</ele>
        <time>2026-08-20T07:56:56.000Z</time>
      </trkpt>
      <trkpt lat="47.83822" lon="6.91118">
        <ele>1015</ele>
        <time>2026-08-20T07:56:59.000Z</time>
      </trkpt>
      <trkpt lat="47.83816" lon="6.91119">
        <ele>1014.6</ele>
        <time>2026-08-20T07:57:01.000Z</time>
      </trkpt>
      <trkpt lat="47.83808" lon="6.91128">
        <ele>1014</ele>
        <time>2026-08-20T07:57:04.000Z</time>
      </trkpt>
      <trkpt lat="47.83795" lon="6.91141">
        <ele>1013.4</ele>
        <time>2026-08-20T07:57:09.000Z</time>
      </trkpt>
      <trkpt lat="47.83792" lon="6.91141">
        <ele>1013.2</ele>
        <time>2026-08-20T07:57:10.000Z</time>
      </trkpt>
      <trkpt lat="47.83785" lon="6.91142">
        <ele>1012.6</ele>
        <time>2026-08-20T07:57:12.000Z</time>
      </trkpt>
      <trkpt lat="47.83782" lon="6.91141">
        <ele>1012.2</ele>
        <time>2026-08-20T07:57:13.000Z</time>
      </trkpt>
      <trkpt lat="47.83777" lon="6.91137">
        <ele>1011.8</ele>
        <time>2026-08-20T07:57:15.000Z</time>
      </trkpt>
      <trkpt lat="47.83775" lon="6.91131">
        <ele>1011.2</ele>
        <time>2026-08-20T07:57:17.000Z</time>
      </trkpt>
      <trkpt lat="47.83777" lon="6.91122">
        <ele>1010.6</ele>
        <time>2026-08-20T07:57:19.000Z</time>
      </trkpt>
      <trkpt lat="47.83784" lon="6.91112">
        <ele>1010</ele>
        <time>2026-08-20T07:57:22.000Z</time>
      </trkpt>
      <trkpt lat="47.83786" lon="6.9111">
        <ele>1009.8</ele>
        <time>2026-08-20T07:57:23.000Z</time>
      </trkpt>
      <trkpt lat="47.83797" lon="6.91101">
        <ele>1008.8</ele>
        <time>2026-08-20T07:57:27.000Z</time>
      </trkpt>
      <trkpt lat="47.83802" lon="6.91097">
        <ele>1008</ele>
        <time>2026-08-20T07:57:29.000Z</time>
      </trkpt>
      <trkpt lat="47.83804" lon="6.91095">
        <ele>1007.6</ele>
        <time>2026-08-20T07:57:30.000Z</time>
      </trkpt>
      <trkpt lat="47.83814" lon="6.91084">
        <ele>1006.6</ele>
        <time>2026-08-20T07:57:34.000Z</time>
      </trkpt>
      <trkpt lat="47.83816" lon="6.91079">
        <ele>1006.4</ele>
        <time>2026-08-20T07:57:35.000Z</time>
      </trkpt>
      <trkpt lat="47.8382" lon="6.91058">
        <ele>1005.8</ele>
        <time>2026-08-20T07:57:39.000Z</time>
      </trkpt>
      <trkpt lat="47.83819" lon="6.91047">
        <ele>1005.6</ele>
        <time>2026-08-20T07:57:41.000Z</time>
      </trkpt>
      <trkpt lat="47.83818" lon="6.9103">
        <ele>1005.2</ele>
        <time>2026-08-20T07:57:45.000Z</time>
      </trkpt>
      <trkpt lat="47.83828" lon="6.91015">
        <ele>1005</ele>
        <time>2026-08-20T07:57:50.000Z</time>
      </trkpt>
      <trkpt lat="47.83833" lon="6.91014">
        <ele>1004.2</ele>
        <time>2026-08-20T07:57:53.000Z</time>
      </trkpt>
      <trkpt lat="47.83837" lon="6.91014">
        <ele>1003.8</ele>
        <time>2026-08-20T07:57:54.000Z</time>
      </trkpt>
      <trkpt lat="47.83845" lon="6.91014">
        <ele>1003</ele>
        <time>2026-08-20T07:57:57.000Z</time>
      </trkpt>
      <trkpt lat="47.83861" lon="6.91016">
        <ele>1001.8</ele>
        <time>2026-08-20T07:58:01.000Z</time>
      </trkpt>
      <trkpt lat="47.83875" lon="6.91015">
        <ele>1000.4</ele>
        <time>2026-08-20T07:58:04.000Z</time>
      </trkpt>
      <trkpt lat="47.83882" lon="6.91015">
        <ele>999.6</ele>
        <time>2026-08-20T07:58:06.000Z</time>
      </trkpt>
      <trkpt lat="47.83885" lon="6.91015">
        <ele>999.2</ele>
        <time>2026-08-20T07:58:07.000Z</time>
      </trkpt>
      <trkpt lat="47.83897" lon="6.91016">
        <ele>998</ele>
        <time>2026-08-20T07:58:10.000Z</time>
      </trkpt>
      <trkpt lat="47.83905" lon="6.91016">
        <ele>997.2</ele>
        <time>2026-08-20T07:58:12.000Z</time>
      </trkpt>
      <trkpt lat="47.83909" lon="6.91016">
        <ele>997</ele>
        <time>2026-08-20T07:58:13.000Z</time>
      </trkpt>
      <trkpt lat="47.83922" lon="6.91017">
        <ele>995.8</ele>
        <time>2026-08-20T07:58:16.000Z</time>
      </trkpt>
      <trkpt lat="47.8393" lon="6.91017">
        <ele>995</ele>
        <time>2026-08-20T07:58:18.000Z</time>
      </trkpt>
      <trkpt lat="47.83934" lon="6.91017">
        <ele>994.6</ele>
        <time>2026-08-20T07:58:19.000Z</time>
      </trkpt>
      <trkpt lat="47.83947" lon="6.91008">
        <ele>993.2</ele>
        <time>2026-08-20T07:58:23.000Z</time>
      </trkpt>
      <trkpt lat="47.83947" lon="6.90999">
        <ele>992.6</ele>
        <time>2026-08-20T07:58:25.000Z</time>
      </trkpt>
      <trkpt lat="47.83943" lon="6.90994">
        <ele>992</ele>
        <time>2026-08-20T07:58:27.000Z</time>
      </trkpt>
      <trkpt lat="47.83932" lon="6.90991">
        <ele>991</ele>
        <time>2026-08-20T07:58:31.000Z</time>
      </trkpt>
      <trkpt lat="47.83928" lon="6.90991">
        <ele>990.8</ele>
        <time>2026-08-20T07:58:32.000Z</time>
      </trkpt>
      <trkpt lat="47.83916" lon="6.9099">
        <ele>989.4</ele>
        <time>2026-08-20T07:58:36.000Z</time>
      </trkpt>
      <trkpt lat="47.83912" lon="6.90988">
        <ele>989.2</ele>
        <time>2026-08-20T07:58:37.000Z</time>
      </trkpt>
      <trkpt lat="47.83909" lon="6.90987">
        <ele>988.8</ele>
        <time>2026-08-20T07:58:38.000Z</time>
      </trkpt>
      <trkpt lat="47.83906" lon="6.90984">
        <ele>988.4</ele>
        <time>2026-08-20T07:58:39.000Z</time>
      </trkpt>
      <trkpt lat="47.83899" lon="6.90975">
        <ele>987.6</ele>
        <time>2026-08-20T07:58:42.000Z</time>
      </trkpt>
      <trkpt lat="47.83897" lon="6.90972">
        <ele>987.4</ele>
        <time>2026-08-20T07:58:43.000Z</time>
      </trkpt>
      <trkpt lat="47.8389" lon="6.90962">
        <ele>986.4</ele>
        <time>2026-08-20T07:58:46.000Z</time>
      </trkpt>
      <trkpt lat="47.83888" lon="6.9096">
        <ele>986</ele>
        <time>2026-08-20T07:58:47.000Z</time>
      </trkpt>
      <trkpt lat="47.83883" lon="6.90953">
        <ele>985.2</ele>
        <time>2026-08-20T07:58:50.000Z</time>
      </trkpt>
      <trkpt lat="47.8388" lon="6.90951">
        <ele>985</ele>
        <time>2026-08-20T07:58:51.000Z</time>
      </trkpt>
      <trkpt lat="47.83872" lon="6.90942">
        <ele>983.8</ele>
        <time>2026-08-20T07:58:55.000Z</time>
      </trkpt>
      <trkpt lat="47.8387" lon="6.9094">
        <ele>983.4</ele>
        <time>2026-08-20T07:58:56.000Z</time>
      </trkpt>
      <trkpt lat="47.8386" lon="6.90942">
        <ele>982.6</ele>
        <time>2026-08-20T07:59:00.000Z</time>
      </trkpt>
      <trkpt lat="47.83857" lon="6.90942">
        <ele>982.4</ele>
        <time>2026-08-20T07:59:01.000Z</time>
      </trkpt>
      <trkpt lat="47.83848" lon="6.90943">
        <ele>981.6</ele>
        <time>2026-08-20T07:59:04.000Z</time>
      </trkpt>
      <trkpt lat="47.83838" lon="6.90938">
        <ele>980</ele>
        <time>2026-08-20T07:59:07.000Z</time>
      </trkpt>
      <trkpt lat="47.83835" lon="6.90936">
        <ele>979.8</ele>
        <time>2026-08-20T07:59:08.000Z</time>
      </trkpt>
      <trkpt lat="47.83827" lon="6.90929">
        <ele>978.8</ele>
        <time>2026-08-20T07:59:11.000Z</time>
      </trkpt>
      <trkpt lat="47.83824" lon="6.90927">
        <ele>978.6</ele>
        <time>2026-08-20T07:59:12.000Z</time>
      </trkpt>
      <trkpt lat="47.83816" lon="6.90921">
        <ele>977.8</ele>
        <time>2026-08-20T07:59:15.000Z</time>
      </trkpt>
      <trkpt lat="47.83813" lon="6.90918">
        <ele>977.6</ele>
        <time>2026-08-20T07:59:16.000Z</time>
      </trkpt>
      <trkpt lat="47.83808" lon="6.90909">
        <ele>976.6</ele>
        <time>2026-08-20T07:59:19.000Z</time>
      </trkpt>
      <trkpt lat="47.83807" lon="6.90904">
        <ele>976</ele>
        <time>2026-08-20T07:59:22.000Z</time>
      </trkpt>
      <trkpt lat="47.83808" lon="6.90898">
        <ele>975.8</ele>
        <time>2026-08-20T07:59:28.000Z</time>
      </trkpt>
      <trkpt lat="47.83815" lon="6.90889">
        <ele>975.8</ele>
        <time>2026-08-20T07:59:32.000Z</time>
      </trkpt>
      <trkpt lat="47.83818" lon="6.90889">
        <ele>975.8</ele>
        <time>2026-08-20T07:59:33.000Z</time>
      </trkpt>
      <trkpt lat="47.8382" lon="6.90889">
        <ele>976</ele>
        <time>2026-08-20T07:59:34.000Z</time>
      </trkpt>
      <trkpt lat="47.83834" lon="6.90895">
        <ele>975.4</ele>
        <time>2026-08-20T07:59:38.000Z</time>
      </trkpt>
      <trkpt lat="47.83845" lon="6.90899">
        <ele>974.8</ele>
        <time>2026-08-20T07:59:41.000Z</time>
      </trkpt>
      <trkpt lat="47.83856" lon="6.90902">
        <ele>974.4</ele>
        <time>2026-08-20T07:59:44.000Z</time>
      </trkpt>
      <trkpt lat="47.83862" lon="6.909">
        <ele>974.2</ele>
        <time>2026-08-20T07:59:46.000Z</time>
      </trkpt>
      <trkpt lat="47.83865" lon="6.90896">
        <ele>974.2</ele>
        <time>2026-08-20T07:59:47.000Z</time>
      </trkpt>
      <trkpt lat="47.83866" lon="6.90881">
        <ele>973.2</ele>
        <time>2026-08-20T07:59:50.000Z</time>
      </trkpt>
      <trkpt lat="47.83863" lon="6.90868">
        <ele>971.8</ele>
        <time>2026-08-20T07:59:53.000Z</time>
      </trkpt>
      <trkpt lat="47.83858" lon="6.90864">
        <ele>971.2</ele>
        <time>2026-08-20T07:59:55.000Z</time>
      </trkpt>
      <trkpt lat="47.83846" lon="6.90863">
        <ele>971.2</ele>
        <time>2026-08-20T07:59:59.000Z</time>
      </trkpt>
      <trkpt lat="47.83837" lon="6.90865">
        <ele>970.8</ele>
        <time>2026-08-20T08:00:02.000Z</time>
      </trkpt>
      <trkpt lat="47.8383" lon="6.90864">
        <ele>970.2</ele>
        <time>2026-08-20T08:00:04.000Z</time>
      </trkpt>
      <trkpt lat="47.83828" lon="6.90864">
        <ele>969.8</ele>
        <time>2026-08-20T08:00:05.000Z</time>
      </trkpt>
      <trkpt lat="47.8382" lon="6.90854">
        <ele>968.8</ele>
        <time>2026-08-20T08:00:09.000Z</time>
      </trkpt>
      <trkpt lat="47.83816" lon="6.90846">
        <ele>968</ele>
        <time>2026-08-20T08:00:11.000Z</time>
      </trkpt>
      <trkpt lat="47.83814" lon="6.90841">
        <ele>967.6</ele>
        <time>2026-08-20T08:00:12.000Z</time>
      </trkpt>
      <trkpt lat="47.83809" lon="6.90832">
        <ele>966.8</ele>
        <time>2026-08-20T08:00:14.000Z</time>
      </trkpt>
      <trkpt lat="47.83807" lon="6.90829">
        <ele>966.6</ele>
        <time>2026-08-20T08:00:15.000Z</time>
      </trkpt>
      <trkpt lat="47.83792" lon="6.90813">
        <ele>965.6</ele>
        <time>2026-08-20T08:00:20.000Z</time>
      </trkpt>
      <trkpt lat="47.83789" lon="6.90811">
        <ele>965.4</ele>
        <time>2026-08-20T08:00:21.000Z</time>
      </trkpt>
      <trkpt lat="47.83782" lon="6.90805">
        <ele>964.2</ele>
        <time>2026-08-20T08:00:24.000Z</time>
      </trkpt>
      <trkpt lat="47.83774" lon="6.90802">
        <ele>963.4</ele>
        <time>2026-08-20T08:00:27.000Z</time>
      </trkpt>
      <trkpt lat="47.83768" lon="6.90797">
        <ele>963.2</ele>
        <time>2026-08-20T08:00:29.000Z</time>
      </trkpt>
      <trkpt lat="47.83759" lon="6.90788">
        <ele>962.4</ele>
        <time>2026-08-20T08:00:32.000Z</time>
      </trkpt>
      <trkpt lat="47.83757" lon="6.90786">
        <ele>962</ele>
        <time>2026-08-20T08:00:33.000Z</time>
      </trkpt>
      <trkpt lat="47.83749" lon="6.90775">
        <ele>961</ele>
        <time>2026-08-20T08:00:36.000Z</time>
      </trkpt>
      <trkpt lat="47.83744" lon="6.90769">
        <ele>960.8</ele>
        <time>2026-08-20T08:00:38.000Z</time>
      </trkpt>
      <trkpt lat="47.83739" lon="6.90747">
        <ele>960.2</ele>
        <time>2026-08-20T08:00:43.000Z</time>
      </trkpt>
      <trkpt lat="47.8374" lon="6.90744">
        <ele>960</ele>
        <time>2026-08-20T08:00:44.000Z</time>
      </trkpt>
      <trkpt lat="47.83748" lon="6.90735">
        <ele>959.8</ele>
        <time>2026-08-20T08:00:47.000Z</time>
      </trkpt>
      <trkpt lat="47.83763" lon="6.90732">
        <ele>959.2</ele>
        <time>2026-08-20T08:00:52.000Z</time>
      </trkpt>
      <trkpt lat="47.83766" lon="6.90731">
        <ele>959</ele>
        <time>2026-08-20T08:00:53.000Z</time>
      </trkpt>
      <trkpt lat="47.83786" lon="6.90725">
        <ele>958.2</ele>
        <time>2026-08-20T08:00:59.000Z</time>
      </trkpt>
      <trkpt lat="47.83798" lon="6.90721">
        <ele>957.8</ele>
        <time>2026-08-20T08:01:02.000Z</time>
      </trkpt>
      <trkpt lat="47.83808" lon="6.9072">
        <ele>957</ele>
        <time>2026-08-20T08:01:05.000Z</time>
      </trkpt>
      <trkpt lat="47.83817" lon="6.90722">
        <ele>956.4</ele>
        <time>2026-08-20T08:01:07.000Z</time>
      </trkpt>
      <trkpt lat="47.83825" lon="6.90724">
        <ele>955.8</ele>
        <time>2026-08-20T08:01:09.000Z</time>
      </trkpt>
      <trkpt lat="47.83829" lon="6.90726">
        <ele>955.4</ele>
        <time>2026-08-20T08:01:10.000Z</time>
      </trkpt>
      <trkpt lat="47.83841" lon="6.90731">
        <ele>954</ele>
        <time>2026-08-20T08:01:13.000Z</time>
      </trkpt>
      <trkpt lat="47.8385" lon="6.90737">
        <ele>953.2</ele>
        <time>2026-08-20T08:01:15.000Z</time>
      </trkpt>
      <trkpt lat="47.83855" lon="6.9074">
        <ele>952.8</ele>
        <time>2026-08-20T08:01:16.000Z</time>
      </trkpt>
      <trkpt lat="47.83873" lon="6.90749">
        <ele>951.6</ele>
        <time>2026-08-20T08:01:21.000Z</time>
      </trkpt>
      <trkpt lat="47.83876" lon="6.9075">
        <ele>951.2</ele>
        <time>2026-08-20T08:01:22.000Z</time>
      </trkpt>
      <trkpt lat="47.83888" lon="6.9075">
        <ele>950.2</ele>
        <time>2026-08-20T08:01:25.000Z</time>
      </trkpt>
      <trkpt lat="47.83896" lon="6.90747">
        <ele>949.4</ele>
        <time>2026-08-20T08:01:28.000Z</time>
      </trkpt>
      <trkpt lat="47.83899" lon="6.90747">
        <ele>949.2</ele>
        <time>2026-08-20T08:01:29.000Z</time>
      </trkpt>
      <trkpt lat="47.83899" lon="6.90746">
        <ele>949.2</ele>
        <time>2026-08-20T08:01:32.000Z</time>
      </trkpt>
      <trkpt lat="47.83901" lon="6.90748">
        <ele>949.2</ele>
        <time>2026-08-20T08:01:35.000Z</time>
      </trkpt>
      <trkpt lat="47.83902" lon="6.90749">
        <ele>949.2</ele>
        <time>2026-08-20T08:01:37.000Z</time>
      </trkpt>
      <trkpt lat="47.83905" lon="6.90749">
        <ele>948.8</ele>
        <time>2026-08-20T08:01:43.000Z</time>
      </trkpt>
      <trkpt lat="47.83907" lon="6.90746">
        <ele>948</ele>
        <time>2026-08-20T08:01:46.000Z</time>
      </trkpt>
      <trkpt lat="47.83908" lon="6.90747">
        <ele>947.8</ele>
        <time>2026-08-20T08:01:49.000Z</time>
      </trkpt>
      <trkpt lat="47.83909" lon="6.90744">
        <ele>948.8</ele>
        <time>2026-08-20T08:01:56.000Z</time>
      </trkpt>
      <trkpt lat="47.83909" lon="6.90742">
        <ele>949</ele>
        <time>2026-08-20T08:01:58.000Z</time>
      </trkpt>
      <trkpt lat="47.83912" lon="6.90736">
        <ele>949</ele>
        <time>2026-08-20T08:02:02.000Z</time>
      </trkpt>
      <trkpt lat="47.8392" lon="6.90717">
        <ele>948.4</ele>
        <time>2026-08-20T08:02:08.000Z</time>
      </trkpt>
      <trkpt lat="47.83922" lon="6.90698">
        <ele>948</ele>
        <time>2026-08-20T08:02:12.000Z</time>
      </trkpt>
      <trkpt lat="47.8392" lon="6.90688">
        <ele>947.8</ele>
        <time>2026-08-20T08:02:14.000Z</time>
      </trkpt>
      <trkpt lat="47.83913" lon="6.90669">
        <ele>947.6</ele>
        <time>2026-08-20T08:02:18.000Z</time>
      </trkpt>
      <trkpt lat="47.83912" lon="6.90665">
        <ele>947.4</ele>
        <time>2026-08-20T08:02:19.000Z</time>
      </trkpt>
      <trkpt lat="47.8391" lon="6.9066">
        <ele>947.4</ele>
        <time>2026-08-20T08:02:20.000Z</time>
      </trkpt>
      <trkpt lat="47.83908" lon="6.90655">
        <ele>947.2</ele>
        <time>2026-08-20T08:02:21.000Z</time>
      </trkpt>
      <trkpt lat="47.83906" lon="6.9065">
        <ele>947</ele>
        <time>2026-08-20T08:02:22.000Z</time>
      </trkpt>
      <trkpt lat="47.83899" lon="6.9063">
        <ele>945.8</ele>
        <time>2026-08-20T08:02:26.000Z</time>
      </trkpt>
      <trkpt lat="47.83892" lon="6.90621">
        <ele>945.2</ele>
        <time>2026-08-20T08:02:28.000Z</time>
      </trkpt>
      <trkpt lat="47.83886" lon="6.90613">
        <ele>944.4</ele>
        <time>2026-08-20T08:02:30.000Z</time>
      </trkpt>
      <trkpt lat="47.83873" lon="6.90601">
        <ele>943.6</ele>
        <time>2026-08-20T08:02:34.000Z</time>
      </trkpt>
      <trkpt lat="47.83864" lon="6.90593">
        <ele>943.4</ele>
        <time>2026-08-20T08:02:37.000Z</time>
      </trkpt>
      <trkpt lat="47.83851" lon="6.90585">
        <ele>942.4</ele>
        <time>2026-08-20T08:02:42.000Z</time>
      </trkpt>
      <trkpt lat="47.83849" lon="6.90584">
        <ele>942.2</ele>
        <time>2026-08-20T08:02:43.000Z</time>
      </trkpt>
      <trkpt lat="47.83837" lon="6.90586">
        <ele>941</ele>
        <time>2026-08-20T08:02:47.000Z</time>
      </trkpt>
      <trkpt lat="47.83826" lon="6.90592">
        <ele>940.4</ele>
        <time>2026-08-20T08:02:53.000Z</time>
      </trkpt>
      <trkpt lat="47.83819" lon="6.9059">
        <ele>939.8</ele>
        <time>2026-08-20T08:02:55.000Z</time>
      </trkpt>
      <trkpt lat="47.83815" lon="6.90585">
        <ele>939.4</ele>
        <time>2026-08-20T08:02:57.000Z</time>
      </trkpt>
      <trkpt lat="47.83797" lon="6.90579">
        <ele>938.8</ele>
        <time>2026-08-20T08:03:03.000Z</time>
      </trkpt>
      <trkpt lat="47.83793" lon="6.90579">
        <ele>938.6</ele>
        <time>2026-08-20T08:03:04.000Z</time>
      </trkpt>
      <trkpt lat="47.83777" lon="6.90581">
        <ele>937.4</ele>
        <time>2026-08-20T08:03:08.000Z</time>
      </trkpt>
      <trkpt lat="47.83769" lon="6.90581">
        <ele>936.6</ele>
        <time>2026-08-20T08:03:10.000Z</time>
      </trkpt>
      <trkpt lat="47.83764" lon="6.90581">
        <ele>936.2</ele>
        <time>2026-08-20T08:03:11.000Z</time>
      </trkpt>
      <trkpt lat="47.83742" lon="6.90579">
        <ele>935</ele>
        <time>2026-08-20T08:03:16.000Z</time>
      </trkpt>
      <trkpt lat="47.83739" lon="6.90576">
        <ele>935</ele>
        <time>2026-08-20T08:03:17.000Z</time>
      </trkpt>
      <trkpt lat="47.83729" lon="6.90565">
        <ele>934.4</ele>
        <time>2026-08-20T08:03:20.000Z</time>
      </trkpt>
      <trkpt lat="47.83721" lon="6.90557">
        <ele>933.6</ele>
        <time>2026-08-20T08:03:22.000Z</time>
      </trkpt>
      <trkpt lat="47.8371" lon="6.90544">
        <ele>932.4</ele>
        <time>2026-08-20T08:03:26.000Z</time>
      </trkpt>
      <trkpt lat="47.83708" lon="6.90541">
        <ele>932.2</ele>
        <time>2026-08-20T08:03:27.000Z</time>
      </trkpt>
      <trkpt lat="47.83702" lon="6.90534">
        <ele>931.2</ele>
        <time>2026-08-20T08:03:29.000Z</time>
      </trkpt>
      <trkpt lat="47.83694" lon="6.90527">
        <ele>930.2</ele>
        <time>2026-08-20T08:03:32.000Z</time>
      </trkpt>
      <trkpt lat="47.83691" lon="6.90525">
        <ele>929.8</ele>
        <time>2026-08-20T08:03:33.000Z</time>
      </trkpt>
      <trkpt lat="47.83687" lon="6.90521">
        <ele>929</ele>
        <time>2026-08-20T08:03:35.000Z</time>
      </trkpt>
      <trkpt lat="47.83681" lon="6.90516">
        <ele>928</ele>
        <time>2026-08-20T08:03:38.000Z</time>
      </trkpt>
      <trkpt lat="47.83677" lon="6.90513">
        <ele>927.4</ele>
        <time>2026-08-20T08:03:40.000Z</time>
      </trkpt>
      <trkpt lat="47.83674" lon="6.90511">
        <ele>926.8</ele>
        <time>2026-08-20T08:03:42.000Z</time>
      </trkpt>
      <trkpt lat="47.83669" lon="6.90507">
        <ele>925.6</ele>
        <time>2026-08-20T08:03:45.000Z</time>
      </trkpt>
      <trkpt lat="47.83664" lon="6.90505">
        <ele>924.8</ele>
        <time>2026-08-20T08:03:47.000Z</time>
      </trkpt>
      <trkpt lat="47.83663" lon="6.90504">
        <ele>924.6</ele>
        <time>2026-08-20T08:03:48.000Z</time>
      </trkpt>
      <trkpt lat="47.83656" lon="6.905">
        <ele>923.4</ele>
        <time>2026-08-20T08:03:51.000Z</time>
      </trkpt>
      <trkpt lat="47.83648" lon="6.90495">
        <ele>922.2</ele>
        <time>2026-08-20T08:03:54.000Z</time>
      </trkpt>
      <trkpt lat="47.83643" lon="6.90491">
        <ele>921.2</ele>
        <time>2026-08-20T08:03:56.000Z</time>
      </trkpt>
      <trkpt lat="47.83641" lon="6.90489">
        <ele>920.8</ele>
        <time>2026-08-20T08:03:57.000Z</time>
      </trkpt>
      <trkpt lat="47.83638" lon="6.90487">
        <ele>920.2</ele>
        <time>2026-08-20T08:03:59.000Z</time>
      </trkpt>
      <trkpt lat="47.83637" lon="6.90487">
        <ele>919.8</ele>
        <time>2026-08-20T08:04:00.000Z</time>
      </trkpt>
      <trkpt lat="47.83636" lon="6.90488">
        <ele>919.4</ele>
        <time>2026-08-20T08:04:03.000Z</time>
      </trkpt>
      <trkpt lat="47.8363" lon="6.90486">
        <ele>919</ele>
        <time>2026-08-20T08:04:10.000Z</time>
      </trkpt>
      <trkpt lat="47.83629" lon="6.90484">
        <ele>918.8</ele>
        <time>2026-08-20T08:04:11.000Z</time>
      </trkpt>
      <trkpt lat="47.83625" lon="6.90477">
        <ele>917.6</ele>
        <time>2026-08-20T08:04:15.000Z</time>
      </trkpt>
      <trkpt lat="47.83622" lon="6.90476">
        <ele>917.2</ele>
        <time>2026-08-20T08:04:17.000Z</time>
      </trkpt>
      <trkpt lat="47.83619" lon="6.90476">
        <ele>916.4</ele>
        <time>2026-08-20T08:04:19.000Z</time>
      </trkpt>
      <trkpt lat="47.83614" lon="6.90477">
        <ele>915</ele>
        <time>2026-08-20T08:04:22.000Z</time>
      </trkpt>
      <trkpt lat="47.83613" lon="6.90478">
        <ele>914.4</ele>
        <time>2026-08-20T08:04:24.000Z</time>
      </trkpt>
      <trkpt lat="47.83612" lon="6.90479">
        <ele>914.4</ele>
        <time>2026-08-20T08:04:31.000Z</time>
      </trkpt>
      <trkpt lat="47.83611" lon="6.90478">
        <ele>914.4</ele>
        <time>2026-08-20T08:04:32.000Z</time>
      </trkpt>
      <trkpt lat="47.83609" lon="6.90475">
        <ele>914</ele>
        <time>2026-08-20T08:04:36.000Z</time>
      </trkpt>
      <trkpt lat="47.83609" lon="6.90476">
        <ele>913.6</ele>
        <time>2026-08-20T08:04:38.000Z</time>
      </trkpt>
      <trkpt lat="47.83607" lon="6.90482">
        <ele>912.8</ele>
        <time>2026-08-20T08:04:45.000Z</time>
      </trkpt>
      <trkpt lat="47.83597" lon="6.90484">
        <ele>911.4</ele>
        <time>2026-08-20T08:04:49.000Z</time>
      </trkpt>
      <trkpt lat="47.83595" lon="6.90484">
        <ele>911.2</ele>
        <time>2026-08-20T08:04:50.000Z</time>
      </trkpt>
      <trkpt lat="47.83588" lon="6.90485">
        <ele>910.2</ele>
        <time>2026-08-20T08:04:53.000Z</time>
      </trkpt>
      <trkpt lat="47.83582" lon="6.90485">
        <ele>909</ele>
        <time>2026-08-20T08:04:56.000Z</time>
      </trkpt>
      <trkpt lat="47.83576" lon="6.90487">
        <ele>907.6</ele>
        <time>2026-08-20T08:04:59.000Z</time>
      </trkpt>
      <trkpt lat="47.83569" lon="6.90486">
        <ele>906.2</ele>
        <time>2026-08-20T08:05:02.000Z</time>
      </trkpt>
      <trkpt lat="47.83566" lon="6.90485">
        <ele>905.8</ele>
        <time>2026-08-20T08:05:03.000Z</time>
      </trkpt>
      <trkpt lat="47.83561" lon="6.90482">
        <ele>905</ele>
        <time>2026-08-20T08:05:05.000Z</time>
      </trkpt>
      <trkpt lat="47.83553" lon="6.90475">
        <ele>904</ele>
        <time>2026-08-20T08:05:08.000Z</time>
      </trkpt>
      <trkpt lat="47.8355" lon="6.90472">
        <ele>903.4</ele>
        <time>2026-08-20T08:05:09.000Z</time>
      </trkpt>
      <trkpt lat="47.83545" lon="6.90468">
        <ele>902.6</ele>
        <time>2026-08-20T08:05:11.000Z</time>
      </trkpt>
      <trkpt lat="47.83537" lon="6.9046">
        <ele>901.6</ele>
        <time>2026-08-20T08:05:14.000Z</time>
      </trkpt>
      <trkpt lat="47.83535" lon="6.90457">
        <ele>901.2</ele>
        <time>2026-08-20T08:05:15.000Z</time>
      </trkpt>
      <trkpt lat="47.83528" lon="6.90447">
        <ele>899.8</ele>
        <time>2026-08-20T08:05:18.000Z</time>
      </trkpt>
      <trkpt lat="47.8352" lon="6.90438">
        <ele>898.6</ele>
        <time>2026-08-20T08:05:21.000Z</time>
      </trkpt>
      <trkpt lat="47.8351" lon="6.90427">
        <ele>897.6</ele>
        <time>2026-08-20T08:05:25.000Z</time>
      </trkpt>
      <trkpt lat="47.83505" lon="6.9042">
        <ele>897</ele>
        <time>2026-08-20T08:05:27.000Z</time>
      </trkpt>
      <trkpt lat="47.83497" lon="6.90412">
        <ele>896.4</ele>
        <time>2026-08-20T08:05:30.000Z</time>
      </trkpt>
      <trkpt lat="47.83486" lon="6.904">
        <ele>895.4</ele>
        <time>2026-08-20T08:05:34.000Z</time>
      </trkpt>
      <trkpt lat="47.83484" lon="6.90397">
        <ele>895.2</ele>
        <time>2026-08-20T08:05:35.000Z</time>
      </trkpt>
      <trkpt lat="47.83475" lon="6.9039">
        <ele>894.4</ele>
        <time>2026-08-20T08:05:39.000Z</time>
      </trkpt>
      <trkpt lat="47.83468" lon="6.90391">
        <ele>894</ele>
        <time>2026-08-20T08:05:42.000Z</time>
      </trkpt>
      <trkpt lat="47.83461" lon="6.90396">
        <ele>893.8</ele>
        <time>2026-08-20T08:05:44.000Z</time>
      </trkpt>
      <trkpt lat="47.83447" lon="6.90398">
        <ele>894.4</ele>
        <time>2026-08-20T08:05:49.000Z</time>
      </trkpt>
      <trkpt lat="47.83443" lon="6.90397">
        <ele>895.2</ele>
        <time>2026-08-20T08:05:51.000Z</time>
      </trkpt>
      <trkpt lat="47.83428" lon="6.90399">
        <ele>896.2</ele>
        <time>2026-08-20T08:05:56.000Z</time>
      </trkpt>
      <trkpt lat="47.83426" lon="6.90399">
        <ele>896.2</ele>
        <time>2026-08-20T08:05:57.000Z</time>
      </trkpt>
      <trkpt lat="47.83414" lon="6.90394">
        <ele>896.4</ele>
        <time>2026-08-20T08:06:02.000Z</time>
      </trkpt>
      <trkpt lat="47.83402" lon="6.90393">
        <ele>895</ele>
        <time>2026-08-20T08:06:06.000Z</time>
      </trkpt>
      <trkpt lat="47.83398" lon="6.90392">
        <ele>895</ele>
        <time>2026-08-20T08:06:08.000Z</time>
      </trkpt>
      <trkpt lat="47.83392" lon="6.90392">
        <ele>893.8</ele>
        <time>2026-08-20T08:06:13.000Z</time>
      </trkpt>
      <trkpt lat="47.83389" lon="6.90393">
        <ele>892.8</ele>
        <time>2026-08-20T08:06:15.000Z</time>
      </trkpt>
      <trkpt lat="47.83387" lon="6.90394">
        <ele>892.2</ele>
        <time>2026-08-20T08:06:16.000Z</time>
      </trkpt>
      <trkpt lat="47.83385" lon="6.90395">
        <ele>891.8</ele>
        <time>2026-08-20T08:06:17.000Z</time>
      </trkpt>
      <trkpt lat="47.83381" lon="6.90396">
        <ele>890.6</ele>
        <time>2026-08-20T08:06:19.000Z</time>
      </trkpt>
      <trkpt lat="47.83377" lon="6.90396">
        <ele>889.6</ele>
        <time>2026-08-20T08:06:21.000Z</time>
      </trkpt>
      <trkpt lat="47.83376" lon="6.90394">
        <ele>889.2</ele>
        <time>2026-08-20T08:06:22.000Z</time>
      </trkpt>
      <trkpt lat="47.83374" lon="6.9039">
        <ele>888.2</ele>
        <time>2026-08-20T08:06:24.000Z</time>
      </trkpt>
      <trkpt lat="47.83374" lon="6.90387">
        <ele>887.6</ele>
        <time>2026-08-20T08:06:25.000Z</time>
      </trkpt>
      <trkpt lat="47.83374" lon="6.90384">
        <ele>887</ele>
        <time>2026-08-20T08:06:26.000Z</time>
      </trkpt>
      <trkpt lat="47.83372" lon="6.90374">
        <ele>885.2</ele>
        <time>2026-08-20T08:06:28.000Z</time>
      </trkpt>
      <trkpt lat="47.83371" lon="6.9037">
        <ele>884</ele>
        <time>2026-08-20T08:06:29.000Z</time>
      </trkpt>
      <trkpt lat="47.83368" lon="6.90363">
        <ele>882.4</ele>
        <time>2026-08-20T08:06:31.000Z</time>
      </trkpt>
      <trkpt lat="47.83365" lon="6.90356">
        <ele>881.2</ele>
        <time>2026-08-20T08:06:34.000Z</time>
      </trkpt>
      <trkpt lat="47.83363" lon="6.90357">
        <ele>880.6</ele>
        <time>2026-08-20T08:06:40.000Z</time>
      </trkpt>
      <trkpt lat="47.83358" lon="6.90353">
        <ele>880.4</ele>
        <time>2026-08-20T08:06:49.000Z</time>
      </trkpt>
      <trkpt lat="47.83356" lon="6.90352">
        <ele>880</ele>
        <time>2026-08-20T08:06:50.000Z</time>
      </trkpt>
      <trkpt lat="47.83352" lon="6.9035">
        <ele>878.8</ele>
        <time>2026-08-20T08:06:52.000Z</time>
      </trkpt>
      <trkpt lat="47.83348" lon="6.9035">
        <ele>877.8</ele>
        <time>2026-08-20T08:06:54.000Z</time>
      </trkpt>
      <trkpt lat="47.83343" lon="6.90352">
        <ele>877</ele>
        <time>2026-08-20T08:06:56.000Z</time>
      </trkpt>
      <trkpt lat="47.83334" lon="6.90353">
        <ele>876.6</ele>
        <time>2026-08-20T08:06:59.000Z</time>
      </trkpt>
      <trkpt lat="47.83324" lon="6.90354">
        <ele>876</ele>
        <time>2026-08-20T08:07:02.000Z</time>
      </trkpt>
      <trkpt lat="47.83318" lon="6.90355">
        <ele>875.8</ele>
        <time>2026-08-20T08:07:04.000Z</time>
      </trkpt>
      <trkpt lat="47.83315" lon="6.90354">
        <ele>875.8</ele>
        <time>2026-08-20T08:07:05.000Z</time>
      </trkpt>
      <trkpt lat="47.83311" lon="6.90353">
        <ele>875.8</ele>
        <time>2026-08-20T08:07:07.000Z</time>
      </trkpt>
      <trkpt lat="47.83309" lon="6.90351">
        <ele>875.6</ele>
        <time>2026-08-20T08:07:08.000Z</time>
      </trkpt>
      <trkpt lat="47.83307" lon="6.90349">
        <ele>875.4</ele>
        <time>2026-08-20T08:07:09.000Z</time>
      </trkpt>
      <trkpt lat="47.83298" lon="6.90341">
        <ele>874</ele>
        <time>2026-08-20T08:07:12.000Z</time>
      </trkpt>
      <trkpt lat="47.83292" lon="6.90336">
        <ele>873.4</ele>
        <time>2026-08-20T08:07:14.000Z</time>
      </trkpt>
      <trkpt lat="47.83288" lon="6.90335">
        <ele>874</ele>
        <time>2026-08-20T08:07:18.000Z</time>
      </trkpt>
      <trkpt lat="47.83284" lon="6.90335">
        <ele>874.2</ele>
        <time>2026-08-20T08:07:26.000Z</time>
      </trkpt>
      <trkpt lat="47.83281" lon="6.90336">
        <ele>874.6</ele>
        <time>2026-08-20T08:07:32.000Z</time>
      </trkpt>
      <trkpt lat="47.83276" lon="6.90337">
        <ele>874.6</ele>
        <time>2026-08-20T08:07:38.000Z</time>
      </trkpt>
      <trkpt lat="47.83267" lon="6.90346">
        <ele>874.8</ele>
        <time>2026-08-20T08:07:46.000Z</time>
      </trkpt>
      <trkpt lat="47.83261" lon="6.90348">
        <ele>875.2</ele>
        <time>2026-08-20T08:07:50.000Z</time>
      </trkpt>
      <trkpt lat="47.83255" lon="6.90352">
        <ele>875.8</ele>
        <time>2026-08-20T08:07:54.000Z</time>
      </trkpt>
      <trkpt lat="47.83251" lon="6.90357">
        <ele>876.2</ele>
        <time>2026-08-20T08:07:56.000Z</time>
      </trkpt>
      <trkpt lat="47.83246" lon="6.90366">
        <ele>876.6</ele>
        <time>2026-08-20T08:08:00.000Z</time>
      </trkpt>
      <trkpt lat="47.83238" lon="6.90376">
        <ele>877.4</ele>
        <time>2026-08-20T08:08:05.000Z</time>
      </trkpt>
      <trkpt lat="47.83237" lon="6.90377">
        <ele>877.8</ele>
        <time>2026-08-20T08:08:06.000Z</time>
      </trkpt>
      <trkpt lat="47.83231" lon="6.90381">
        <ele>878.6</ele>
        <time>2026-08-20T08:08:09.000Z</time>
      </trkpt>
      <trkpt lat="47.83224" lon="6.90386">
        <ele>879.2</ele>
        <time>2026-08-20T08:08:13.000Z</time>
      </trkpt>
      <trkpt lat="47.8322" lon="6.90393">
        <ele>879</ele>
        <time>2026-08-20T08:08:17.000Z</time>
      </trkpt>
      <trkpt lat="47.83216" lon="6.90402">
        <ele>878.2</ele>
        <time>2026-08-20T08:08:20.000Z</time>
      </trkpt>
      <trkpt lat="47.83213" lon="6.90408">
        <ele>877.4</ele>
        <time>2026-08-20T08:08:22.000Z</time>
      </trkpt>
      <trkpt lat="47.83211" lon="6.90413">
        <ele>876.8</ele>
        <time>2026-08-20T08:08:24.000Z</time>
      </trkpt>
      <trkpt lat="47.83209" lon="6.90416">
        <ele>876.4</ele>
        <time>2026-08-20T08:08:26.000Z</time>
      </trkpt>
      <trkpt lat="47.83205" lon="6.90418">
        <ele>876</ele>
        <time>2026-08-20T08:08:29.000Z</time>
      </trkpt>
      <trkpt lat="47.83201" lon="6.90419">
        <ele>875.4</ele>
        <time>2026-08-20T08:08:32.000Z</time>
      </trkpt>
      <trkpt lat="47.83199" lon="6.90419">
        <ele>874.4</ele>
        <time>2026-08-20T08:08:35.000Z</time>
      </trkpt>
      <trkpt lat="47.83199" lon="6.90418">
        <ele>874.2</ele>
        <time>2026-08-20T08:08:36.000Z</time>
      </trkpt>
      <trkpt lat="47.83199" lon="6.90417">
        <ele>873.8</ele>
        <time>2026-08-20T08:08:38.000Z</time>
      </trkpt>
      <trkpt lat="47.83194" lon="6.90416">
        <ele>873.6</ele>
        <time>2026-08-20T08:08:43.000Z</time>
      </trkpt>
      <trkpt lat="47.83189" lon="6.90416">
        <ele>872.8</ele>
        <time>2026-08-20T08:08:45.000Z</time>
      </trkpt>
      <trkpt lat="47.83178" lon="6.90418">
        <ele>871.8</ele>
        <time>2026-08-20T08:08:49.000Z</time>
      </trkpt>
      <trkpt lat="47.83168" lon="6.90429">
        <ele>871</ele>
        <time>2026-08-20T08:08:55.000Z</time>
      </trkpt>
      <trkpt lat="47.83167" lon="6.90431">
        <ele>870.8</ele>
        <time>2026-08-20T08:08:56.000Z</time>
      </trkpt>
      <trkpt lat="47.83161" lon="6.90445">
        <ele>870</ele>
        <time>2026-08-20T08:09:02.000Z</time>
      </trkpt>
      <trkpt lat="47.83158" lon="6.90469">
        <ele>869.8</ele>
        <time>2026-08-20T08:09:08.000Z</time>
      </trkpt>
      <trkpt lat="47.83158" lon="6.90474">
        <ele>869.4</ele>
        <time>2026-08-20T08:09:09.000Z</time>
      </trkpt>
      <trkpt lat="47.83156" lon="6.90495">
        <ele>868.8</ele>
        <time>2026-08-20T08:09:14.000Z</time>
      </trkpt>
      <trkpt lat="47.83154" lon="6.90515">
        <ele>868.6</ele>
        <time>2026-08-20T08:09:20.000Z</time>
      </trkpt>
      <trkpt lat="47.83153" lon="6.90518">
        <ele>868.2</ele>
        <time>2026-08-20T08:09:21.000Z</time>
      </trkpt>
      <trkpt lat="47.8315" lon="6.90534">
        <ele>867</ele>
        <time>2026-08-20T08:09:25.000Z</time>
      </trkpt>
      <trkpt lat="47.83149" lon="6.90537">
        <ele>866.8</ele>
        <time>2026-08-20T08:09:26.000Z</time>
      </trkpt>
      <trkpt lat="47.8314" lon="6.90548">
        <ele>865.8</ele>
        <time>2026-08-20T08:09:29.000Z</time>
      </trkpt>
      <trkpt lat="47.83137" lon="6.90551">
        <ele>865.6</ele>
        <time>2026-08-20T08:09:30.000Z</time>
      </trkpt>
      <trkpt lat="47.83128" lon="6.90559">
        <ele>865.8</ele>
        <time>2026-08-20T08:09:35.000Z</time>
      </trkpt>
      <trkpt lat="47.83115" lon="6.90572">
        <ele>865.8</ele>
        <time>2026-08-20T08:09:41.000Z</time>
      </trkpt>
      <trkpt lat="47.83106" lon="6.90583">
        <ele>866</ele>
        <time>2026-08-20T08:09:46.000Z</time>
      </trkpt>
      <trkpt lat="47.83098" lon="6.90594">
        <ele>866.4</ele>
        <time>2026-08-20T08:09:53.000Z</time>
      </trkpt>
      <trkpt lat="47.83092" lon="6.90605">
        <ele>866.2</ele>
        <time>2026-08-20T08:09:59.000Z</time>
      </trkpt>
      <trkpt lat="47.83084" lon="6.90619">
        <ele>866</ele>
        <time>2026-08-20T08:10:06.000Z</time>
      </trkpt>
      <trkpt lat="47.83072" lon="6.90639">
        <ele>866.2</ele>
        <time>2026-08-20T08:10:13.000Z</time>
      </trkpt>
      <trkpt lat="47.83063" lon="6.9065">
        <ele>866.8</ele>
        <time>2026-08-20T08:10:17.000Z</time>
      </trkpt>
      <trkpt lat="47.83056" lon="6.90655">
        <ele>867.4</ele>
        <time>2026-08-20T08:10:20.000Z</time>
      </trkpt>
      <trkpt lat="47.83037" lon="6.90661">
        <ele>867.6</ele>
        <time>2026-08-20T08:10:26.000Z</time>
      </trkpt>
      <trkpt lat="47.83022" lon="6.90652">
        <ele>866.6</ele>
        <time>2026-08-20T08:10:30.000Z</time>
      </trkpt>
      <trkpt lat="47.83005" lon="6.90641">
        <ele>866</ele>
        <time>2026-08-20T08:10:34.000Z</time>
      </trkpt>
      <trkpt lat="47.82997" lon="6.90638">
        <ele>866</ele>
        <time>2026-08-20T08:10:36.000Z</time>
      </trkpt>
      <trkpt lat="47.82987" lon="6.90637">
        <ele>866.4</ele>
        <time>2026-08-20T08:10:39.000Z</time>
      </trkpt>
      <trkpt lat="47.82979" lon="6.90637">
        <ele>866.2</ele>
        <time>2026-08-20T08:10:41.000Z</time>
      </trkpt>
      <trkpt lat="47.8297" lon="6.90638">
        <ele>865.6</ele>
        <time>2026-08-20T08:10:43.000Z</time>
      </trkpt>
      <trkpt lat="47.82953" lon="6.9064">
        <ele>864.6</ele>
        <time>2026-08-20T08:10:46.000Z</time>
      </trkpt>
      <trkpt lat="47.82936" lon="6.90642">
        <ele>865.2</ele>
        <time>2026-08-20T08:10:50.000Z</time>
      </trkpt>
      <trkpt lat="47.82916" lon="6.90647">
        <ele>866.2</ele>
        <time>2026-08-20T08:10:55.000Z</time>
      </trkpt>
      <trkpt lat="47.82912" lon="6.90647">
        <ele>866.4</ele>
        <time>2026-08-20T08:10:56.000Z</time>
      </trkpt>
      <trkpt lat="47.82892" lon="6.90654">
        <ele>866</ele>
        <time>2026-08-20T08:11:00.000Z</time>
      </trkpt>
      <trkpt lat="47.8287" lon="6.90661">
        <ele>865.6</ele>
        <time>2026-08-20T08:11:04.000Z</time>
      </trkpt>
      <trkpt lat="47.82865" lon="6.90662">
        <ele>865.6</ele>
        <time>2026-08-20T08:11:05.000Z</time>
      </trkpt>
      <trkpt lat="47.82846" lon="6.90666">
        <ele>866.6</ele>
        <time>2026-08-20T08:11:09.000Z</time>
      </trkpt>
      <trkpt lat="47.8283" lon="6.90669">
        <ele>867.6</ele>
        <time>2026-08-20T08:11:13.000Z</time>
      </trkpt>
      <trkpt lat="47.82818" lon="6.90669">
        <ele>868.2</ele>
        <time>2026-08-20T08:11:16.000Z</time>
      </trkpt>
      <trkpt lat="47.82805" lon="6.90664">
        <ele>867.8</ele>
        <time>2026-08-20T08:11:19.000Z</time>
      </trkpt>
      <trkpt lat="47.82794" lon="6.9066">
        <ele>866.4</ele>
        <time>2026-08-20T08:11:22.000Z</time>
      </trkpt>
      <trkpt lat="47.82785" lon="6.90657">
        <ele>865.4</ele>
        <time>2026-08-20T08:11:24.000Z</time>
      </trkpt>
      <trkpt lat="47.82767" lon="6.90654">
        <ele>864.2</ele>
        <time>2026-08-20T08:11:28.000Z</time>
      </trkpt>
      <trkpt lat="47.82758" lon="6.90656">
        <ele>863.6</ele>
        <time>2026-08-20T08:11:30.000Z</time>
      </trkpt>
      <trkpt lat="47.82754" lon="6.90659">
        <ele>863.2</ele>
        <time>2026-08-20T08:11:31.000Z</time>
      </trkpt>
      <trkpt lat="47.82742" lon="6.90666">
        <ele>862</ele>
        <time>2026-08-20T08:11:34.000Z</time>
      </trkpt>
      <trkpt lat="47.82738" lon="6.90669">
        <ele>861.8</ele>
        <time>2026-08-20T08:11:35.000Z</time>
      </trkpt>
      <trkpt lat="47.82729" lon="6.90675">
        <ele>861.4</ele>
        <time>2026-08-20T08:11:37.000Z</time>
      </trkpt>
      <trkpt lat="47.82725" lon="6.90678">
        <ele>861.2</ele>
        <time>2026-08-20T08:11:38.000Z</time>
      </trkpt>
      <trkpt lat="47.82718" lon="6.90684">
        <ele>860.8</ele>
        <time>2026-08-20T08:11:40.000Z</time>
      </trkpt>
      <trkpt lat="47.82711" lon="6.90689">
        <ele>860.2</ele>
        <time>2026-08-20T08:11:42.000Z</time>
      </trkpt>
      <trkpt lat="47.82703" lon="6.90693">
        <ele>859.6</ele>
        <time>2026-08-20T08:11:44.000Z</time>
      </trkpt>
      <trkpt lat="47.82694" lon="6.90699">
        <ele>858.8</ele>
        <time>2026-08-20T08:11:48.000Z</time>
      </trkpt>
      <trkpt lat="47.82691" lon="6.907">
        <ele>858.6</ele>
        <time>2026-08-20T08:11:49.000Z</time>
      </trkpt>
      <trkpt lat="47.82681" lon="6.90705">
        <ele>857.8</ele>
        <time>2026-08-20T08:11:53.000Z</time>
      </trkpt>
      <trkpt lat="47.82679" lon="6.90706">
        <ele>857.4</ele>
        <time>2026-08-20T08:11:54.000Z</time>
      </trkpt>
      <trkpt lat="47.82676" lon="6.90707">
        <ele>857.2</ele>
        <time>2026-08-20T08:11:55.000Z</time>
      </trkpt>
      <trkpt lat="47.82665" lon="6.90715">
        <ele>856.4</ele>
        <time>2026-08-20T08:11:59.000Z</time>
      </trkpt>
      <trkpt lat="47.8266" lon="6.9072">
        <ele>855.4</ele>
        <time>2026-08-20T08:12:01.000Z</time>
      </trkpt>
      <trkpt lat="47.82658" lon="6.90723">
        <ele>854.8</ele>
        <time>2026-08-20T08:12:02.000Z</time>
      </trkpt>
      <trkpt lat="47.82653" lon="6.9073">
        <ele>853.6</ele>
        <time>2026-08-20T08:12:04.000Z</time>
      </trkpt>
      <trkpt lat="47.82649" lon="6.90738">
        <ele>852.4</ele>
        <time>2026-08-20T08:12:06.000Z</time>
      </trkpt>
      <trkpt lat="47.82648" lon="6.90741">
        <ele>852</ele>
        <time>2026-08-20T08:12:07.000Z</time>
      </trkpt>
      <trkpt lat="47.82646" lon="6.90746">
        <ele>851.4</ele>
        <time>2026-08-20T08:12:08.000Z</time>
      </trkpt>
      <trkpt lat="47.82644" lon="6.90757">
        <ele>850.2</ele>
        <time>2026-08-20T08:12:10.000Z</time>
      </trkpt>
      <trkpt lat="47.82642" lon="6.90767">
        <ele>849.2</ele>
        <time>2026-08-20T08:12:12.000Z</time>
      </trkpt>
      <trkpt lat="47.82641" lon="6.90773">
        <ele>848.6</ele>
        <time>2026-08-20T08:12:13.000Z</time>
      </trkpt>
      <trkpt lat="47.8264" lon="6.90778">
        <ele>848</ele>
        <time>2026-08-20T08:12:14.000Z</time>
      </trkpt>
      <trkpt lat="47.82638" lon="6.90791">
        <ele>846.6</ele>
        <time>2026-08-20T08:12:16.000Z</time>
      </trkpt>
      <trkpt lat="47.82636" lon="6.90802">
        <ele>845.2</ele>
        <time>2026-08-20T08:12:18.000Z</time>
      </trkpt>
      <trkpt lat="47.82633" lon="6.90814">
        <ele>844.2</ele>
        <time>2026-08-20T08:12:20.000Z</time>
      </trkpt>
      <trkpt lat="47.82632" lon="6.90819">
        <ele>843.8</ele>
        <time>2026-08-20T08:12:21.000Z</time>
      </trkpt>
      <trkpt lat="47.8263" lon="6.90834">
        <ele>843</ele>
        <time>2026-08-20T08:12:24.000Z</time>
      </trkpt>
      <trkpt lat="47.82626" lon="6.9085">
        <ele>842.4</ele>
        <time>2026-08-20T08:12:27.000Z</time>
      </trkpt>
      <trkpt lat="47.82625" lon="6.90856">
        <ele>842</ele>
        <time>2026-08-20T08:12:28.000Z</time>
      </trkpt>
      <trkpt lat="47.82619" lon="6.9087">
        <ele>840.8</ele>
        <time>2026-08-20T08:12:31.000Z</time>
      </trkpt>
      <trkpt lat="47.82614" lon="6.90885">
        <ele>839.6</ele>
        <time>2026-08-20T08:12:34.000Z</time>
      </trkpt>
      <trkpt lat="47.82611" lon="6.90895">
        <ele>838.6</ele>
        <time>2026-08-20T08:12:36.000Z</time>
      </trkpt>
      <trkpt lat="47.82609" lon="6.909">
        <ele>838.4</ele>
        <time>2026-08-20T08:12:37.000Z</time>
      </trkpt>
      <trkpt lat="47.82603" lon="6.90914">
        <ele>837.2</ele>
        <time>2026-08-20T08:12:40.000Z</time>
      </trkpt>
      <trkpt lat="47.82598" lon="6.90929">
        <ele>835.6</ele>
        <time>2026-08-20T08:12:43.000Z</time>
      </trkpt>
      <trkpt lat="47.82596" lon="6.90933">
        <ele>835.4</ele>
        <time>2026-08-20T08:12:44.000Z</time>
      </trkpt>
      <trkpt lat="47.82592" lon="6.90942">
        <ele>834.4</ele>
        <time>2026-08-20T08:12:46.000Z</time>
      </trkpt>
      <trkpt lat="47.82587" lon="6.90952">
        <ele>833.2</ele>
        <time>2026-08-20T08:12:48.000Z</time>
      </trkpt>
      <trkpt lat="47.82583" lon="6.90961">
        <ele>832</ele>
        <time>2026-08-20T08:12:50.000Z</time>
      </trkpt>
      <trkpt lat="47.82577" lon="6.90973">
        <ele>830.4</ele>
        <time>2026-08-20T08:12:53.000Z</time>
      </trkpt>
      <trkpt lat="47.82572" lon="6.90985">
        <ele>829.2</ele>
        <time>2026-08-20T08:12:56.000Z</time>
      </trkpt>
      <trkpt lat="47.8257" lon="6.90988">
        <ele>828.8</ele>
        <time>2026-08-20T08:12:57.000Z</time>
      </trkpt>
      <trkpt lat="47.82568" lon="6.90996">
        <ele>828</ele>
        <time>2026-08-20T08:12:59.000Z</time>
      </trkpt>
      <trkpt lat="47.82564" lon="6.91008">
        <ele>826.4</ele>
        <time>2026-08-20T08:13:02.000Z</time>
      </trkpt>
      <trkpt lat="47.82562" lon="6.91012">
        <ele>826</ele>
        <time>2026-08-20T08:13:03.000Z</time>
      </trkpt>
      <trkpt lat="47.82561" lon="6.91017">
        <ele>825.4</ele>
        <time>2026-08-20T08:13:04.000Z</time>
      </trkpt>
      <trkpt lat="47.82556" lon="6.9103">
        <ele>824</ele>
        <time>2026-08-20T08:13:07.000Z</time>
      </trkpt>
      <trkpt lat="47.8255" lon="6.91044">
        <ele>822.4</ele>
        <time>2026-08-20T08:13:10.000Z</time>
      </trkpt>
      <trkpt lat="47.82548" lon="6.91048">
        <ele>821.8</ele>
        <time>2026-08-20T08:13:11.000Z</time>
      </trkpt>
      <trkpt lat="47.82546" lon="6.91052">
        <ele>821.2</ele>
        <time>2026-08-20T08:13:12.000Z</time>
      </trkpt>
      <trkpt lat="47.82541" lon="6.91058">
        <ele>820</ele>
        <time>2026-08-20T08:13:14.000Z</time>
      </trkpt>
      <trkpt lat="47.82534" lon="6.91069">
        <ele>818.8</ele>
        <time>2026-08-20T08:13:17.000Z</time>
      </trkpt>
      <trkpt lat="47.82529" lon="6.91076">
        <ele>817.6</ele>
        <time>2026-08-20T08:13:19.000Z</time>
      </trkpt>
      <trkpt lat="47.82524" lon="6.91083">
        <ele>816</ele>
        <time>2026-08-20T08:13:21.000Z</time>
      </trkpt>
      <trkpt lat="47.82519" lon="6.91089">
        <ele>815</ele>
        <time>2026-08-20T08:13:23.000Z</time>
      </trkpt>
      <trkpt lat="47.82512" lon="6.91098">
        <ele>813.8</ele>
        <time>2026-08-20T08:13:25.000Z</time>
      </trkpt>
      <trkpt lat="47.82501" lon="6.91115">
        <ele>812.4</ele>
        <time>2026-08-20T08:13:28.000Z</time>
      </trkpt>
      <trkpt lat="47.82493" lon="6.91128">
        <ele>812</ele>
        <time>2026-08-20T08:13:30.000Z</time>
      </trkpt>
      <trkpt lat="47.82484" lon="6.9114">
        <ele>811.2</ele>
        <time>2026-08-20T08:13:32.000Z</time>
      </trkpt>
      <trkpt lat="47.82467" lon="6.91157">
        <ele>810.4</ele>
        <time>2026-08-20T08:13:36.000Z</time>
      </trkpt>
      <trkpt lat="47.82459" lon="6.91161">
        <ele>810</ele>
        <time>2026-08-20T08:13:38.000Z</time>
      </trkpt>
      <trkpt lat="47.82446" lon="6.91167">
        <ele>809.2</ele>
        <time>2026-08-20T08:13:42.000Z</time>
      </trkpt>
      <trkpt lat="47.82434" lon="6.91181">
        <ele>809.8</ele>
        <time>2026-08-20T08:13:47.000Z</time>
      </trkpt>
      <trkpt lat="47.82431" lon="6.91185">
        <ele>810</ele>
        <time>2026-08-20T08:13:48.000Z</time>
      </trkpt>
      <trkpt lat="47.82426" lon="6.91194">
        <ele>809.8</ele>
        <time>2026-08-20T08:13:50.000Z</time>
      </trkpt>
      <trkpt lat="47.8242" lon="6.91204">
        <ele>809.4</ele>
        <time>2026-08-20T08:13:52.000Z</time>
      </trkpt>
      <trkpt lat="47.82417" lon="6.9121">
        <ele>808.8</ele>
        <time>2026-08-20T08:13:53.000Z</time>
      </trkpt>
      <trkpt lat="47.82412" lon="6.91221">
        <ele>807.8</ele>
        <time>2026-08-20T08:13:55.000Z</time>
      </trkpt>
      <trkpt lat="47.82408" lon="6.91228">
        <ele>807.2</ele>
        <time>2026-08-20T08:13:57.000Z</time>
      </trkpt>
      <trkpt lat="47.82407" lon="6.91231">
        <ele>807</ele>
        <time>2026-08-20T08:13:58.000Z</time>
      </trkpt>
      <trkpt lat="47.82405" lon="6.91238">
        <ele>806.6</ele>
        <time>2026-08-20T08:14:00.000Z</time>
      </trkpt>
      <trkpt lat="47.82401" lon="6.91243">
        <ele>806</ele>
        <time>2026-08-20T08:14:02.000Z</time>
      </trkpt>
      <trkpt lat="47.82398" lon="6.91245">
        <ele>805.8</ele>
        <time>2026-08-20T08:14:04.000Z</time>
      </trkpt>
      <trkpt lat="47.82396" lon="6.91246">
        <ele>805.6</ele>
        <time>2026-08-20T08:14:05.000Z</time>
      </trkpt>
      <trkpt lat="47.82393" lon="6.91249">
        <ele>805.4</ele>
        <time>2026-08-20T08:14:07.000Z</time>
      </trkpt>
      <trkpt lat="47.82393" lon="6.91251">
        <ele>805.4</ele>
        <time>2026-08-20T08:14:08.000Z</time>
      </trkpt>
      <trkpt lat="47.82394" lon="6.91266">
        <ele>805</ele>
        <time>2026-08-20T08:14:12.000Z</time>
      </trkpt>
      <trkpt lat="47.82393" lon="6.91268">
        <ele>805</ele>
        <time>2026-08-20T08:14:13.000Z</time>
      </trkpt>
      <trkpt lat="47.82392" lon="6.91269">
        <ele>805</ele>
        <time>2026-08-20T08:14:15.000Z</time>
      </trkpt>
      <trkpt lat="47.82389" lon="6.9127">
        <ele>805.2</ele>
        <time>2026-08-20T08:14:20.000Z</time>
      </trkpt>
      <trkpt lat="47.82386" lon="6.91271">
        <ele>805.2</ele>
        <time>2026-08-20T08:14:22.000Z</time>
      </trkpt>
      <trkpt lat="47.82381" lon="6.91274">
        <ele>805</ele>
        <time>2026-08-20T08:14:26.000Z</time>
      </trkpt>
      <trkpt lat="47.8238" lon="6.91275">
        <ele>804.8</ele>
        <time>2026-08-20T08:14:27.000Z</time>
      </trkpt>
      <trkpt lat="47.8238" lon="6.91275">
        <ele>805</ele>
        <time>2026-08-20T08:14:28.000Z</time>
      </trkpt>
      <trkpt lat="47.82379" lon="6.91275">
        <ele>804.8</ele>
        <time>2026-08-20T08:14:29.000Z</time>
      </trkpt>
      <trkpt lat="47.82374" lon="6.91276">
        <ele>804.8</ele>
        <time>2026-08-20T08:14:32.000Z</time>
      </trkpt>
      <trkpt lat="47.82361" lon="6.91286">
        <ele>805.2</ele>
        <time>2026-08-20T08:14:37.000Z</time>
      </trkpt>
      <trkpt lat="47.82354" lon="6.91295">
        <ele>805.2</ele>
        <time>2026-08-20T08:14:40.000Z</time>
      </trkpt>
      <trkpt lat="47.82352" lon="6.91298">
        <ele>805.2</ele>
        <time>2026-08-20T08:14:42.000Z</time>
      </trkpt>
      <trkpt lat="47.82351" lon="6.91298">
        <ele>805.2</ele>
        <time>2026-08-20T08:14:43.000Z</time>
      </trkpt>
      <trkpt lat="47.82352" lon="6.91296">
        <ele>805.2</ele>
        <time>2026-08-20T08:14:46.000Z</time>
      </trkpt>
      <trkpt lat="47.82352" lon="6.91296">
        <ele>805.2</ele>
        <time>2026-08-20T08:14:47.000Z</time>
      </trkpt>
      <trkpt lat="47.82357" lon="6.91292">
        <ele>804.8</ele>
        <time>2026-08-20T08:14:50.000Z</time>
      </trkpt>
      <trkpt lat="47.82359" lon="6.91284">
        <ele>804.4</ele>
        <time>2026-08-20T08:14:52.000Z</time>
      </trkpt>
      <trkpt lat="47.8236" lon="6.91274">
        <ele>804.4</ele>
        <time>2026-08-20T08:14:54.000Z</time>
      </trkpt>
      <trkpt lat="47.82353" lon="6.91253">
        <ele>805.6</ele>
        <time>2026-08-20T08:14:59.000Z</time>
      </trkpt>
      <trkpt lat="47.8235" lon="6.91249">
        <ele>806.2</ele>
        <time>2026-08-20T08:15:01.000Z</time>
      </trkpt>
      <trkpt lat="47.82347" lon="6.91244">
        <ele>806.8</ele>
        <time>2026-08-20T08:15:03.000Z</time>
      </trkpt>
      <trkpt lat="47.82346" lon="6.91241">
        <ele>807.4</ele>
        <time>2026-08-20T08:15:04.000Z</time>
      </trkpt>
      <trkpt lat="47.82345" lon="6.91233">
        <ele>808.2</ele>
        <time>2026-08-20T08:15:06.000Z</time>
      </trkpt>
      <trkpt lat="47.82343" lon="6.91221">
        <ele>808.2</ele>
        <time>2026-08-20T08:15:09.000Z</time>
      </trkpt>
      <trkpt lat="47.82343" lon="6.91217">
        <ele>808.2</ele>
        <time>2026-08-20T08:15:10.000Z</time>
      </trkpt>
      <trkpt lat="47.82339" lon="6.91194">
        <ele>809</ele>
        <time>2026-08-20T08:15:16.000Z</time>
      </trkpt>
      <trkpt lat="47.82339" lon="6.9119">
        <ele>809.2</ele>
        <time>2026-08-20T08:15:17.000Z</time>
      </trkpt>
      <trkpt lat="47.82337" lon="6.9118">
        <ele>810.4</ele>
        <time>2026-08-20T08:15:22.000Z</time>
      </trkpt>
      <trkpt lat="47.82337" lon="6.9118">
        <ele>810.6</ele>
        <time>2026-08-20T08:15:23.000Z</time>
      </trkpt>
      <trkpt lat="47.82337" lon="6.91178">
        <ele>810.4</ele>
        <time>2026-08-20T08:15:27.000Z</time>
      </trkpt>
      <trkpt lat="47.82337" lon="6.9118">
        <ele>810.2</ele>
        <time>2026-08-20T08:15:32.000Z</time>
      </trkpt>
      <trkpt lat="47.82336" lon="6.91177">
        <ele>810.2</ele>
        <time>2026-08-20T08:15:37.000Z</time>
      </trkpt>
      <trkpt lat="47.82338" lon="6.91174">
        <ele>810</ele>
        <time>2026-08-20T08:15:44.000Z</time>
      </trkpt>
      <trkpt lat="47.82337" lon="6.91179">
        <ele>809.8</ele>
        <time>2026-08-20T08:15:48.000Z</time>
      </trkpt>
      <trkpt lat="47.82336" lon="6.91175">
        <ele>810</ele>
        <time>2026-08-20T08:15:52.000Z</time>
      </trkpt>
      <trkpt lat="47.82338" lon="6.91174">
        <ele>809.8</ele>
        <time>2026-08-20T08:15:56.000Z</time>
      </trkpt>
      <trkpt lat="47.82335" lon="6.91177">
        <ele>809.6</ele>
        <time>2026-08-20T08:16:01.000Z</time>
      </trkpt>
      <trkpt lat="47.82336" lon="6.91178">
        <ele>809.4</ele>
        <time>2026-08-20T08:16:03.000Z</time>
      </trkpt>
      <trkpt lat="47.82337" lon="6.91176">
        <ele>810</ele>
        <time>2026-08-20T08:16:08.000Z</time>
      </trkpt>
      <trkpt lat="47.82337" lon="6.91176">
        <ele>809.8</ele>
        <time>2026-08-20T08:16:13.000Z</time>
      </trkpt>
      <trkpt lat="47.82337" lon="6.91176">
        <ele>809.8</ele>
        <time>2026-08-20T08:16:15.000Z</time>
      </trkpt>
      <trkpt lat="47.82337" lon="6.91176">
        <ele>809.6</ele>
        <time>2026-08-20T08:16:17.000Z</time>
      </trkpt>
      <trkpt lat="47.82337" lon="6.91174">
        <ele>809.8</ele>
        <time>2026-08-20T08:16:22.000Z</time>
      </trkpt>
      <trkpt lat="47.82337" lon="6.9117">
        <ele>810.2</ele>
        <time>2026-08-20T08:16:28.000Z</time>
      </trkpt>
      <trkpt lat="47.82337" lon="6.9117">
        <ele>810.2</ele>
        <time>2026-08-20T08:16:32.000Z</time>
      </trkpt>
      <trkpt lat="47.82337" lon="6.9117">
        <ele>810.2</ele>
        <time>2026-08-20T08:16:33.000Z</time>
      </trkpt>
      <trkpt lat="47.82337" lon="6.91169">
        <ele>810.2</ele>
        <time>2026-08-20T08:16:34.000Z</time>
      </trkpt>
      <trkpt lat="47.82336" lon="6.91166">
        <ele>810.4</ele>
        <time>2026-08-20T08:16:36.000Z</time>
      </trkpt>
      <trkpt lat="47.82334" lon="6.91157">
        <ele>810.8</ele>
        <time>2026-08-20T08:16:39.000Z</time>
      </trkpt>
      <trkpt lat="47.82332" lon="6.91147">
        <ele>811.6</ele>
        <time>2026-08-20T08:16:42.000Z</time>
      </trkpt>
      <trkpt lat="47.82329" lon="6.91138">
        <ele>812.8</ele>
        <time>2026-08-20T08:16:45.000Z</time>
      </trkpt>
      <trkpt lat="47.82328" lon="6.91131">
        <ele>813.2</ele>
        <time>2026-08-20T08:16:47.000Z</time>
      </trkpt>
      <trkpt lat="47.82327" lon="6.91123">
        <ele>813.8</ele>
        <time>2026-08-20T08:16:49.000Z</time>
      </trkpt>
      <trkpt lat="47.82324" lon="6.91111">
        <ele>815</ele>
        <time>2026-08-20T08:16:52.000Z</time>
      </trkpt>
      <trkpt lat="47.82321" lon="6.91099">
        <ele>816.2</ele>
        <time>2026-08-20T08:16:55.000Z</time>
      </trkpt>
      <trkpt lat="47.82319" lon="6.91091">
        <ele>816.8</ele>
        <time>2026-08-20T08:16:57.000Z</time>
      </trkpt>
      <trkpt lat="47.82318" lon="6.91088">
        <ele>817.4</ele>
        <time>2026-08-20T08:16:58.000Z</time>
      </trkpt>
      <trkpt lat="47.82317" lon="6.91077">
        <ele>818.4</ele>
        <time>2026-08-20T08:17:01.000Z</time>
      </trkpt>
      <trkpt lat="47.82317" lon="6.91074">
        <ele>818.6</ele>
        <time>2026-08-20T08:17:02.000Z</time>
      </trkpt>
      <trkpt lat="47.82316" lon="6.91055">
        <ele>820</ele>
        <time>2026-08-20T08:17:07.000Z</time>
      </trkpt>
      <trkpt lat="47.82316" lon="6.91039">
        <ele>821</ele>
        <time>2026-08-20T08:17:11.000Z</time>
      </trkpt>
      <trkpt lat="47.82315" lon="6.91023">
        <ele>822</ele>
        <time>2026-08-20T08:17:15.000Z</time>
      </trkpt>
      <trkpt lat="47.82313" lon="6.91012">
        <ele>823.2</ele>
        <time>2026-08-20T08:17:18.000Z</time>
      </trkpt>
      <trkpt lat="47.82311" lon="6.91001">
        <ele>824.2</ele>
        <time>2026-08-20T08:17:21.000Z</time>
      </trkpt>
      <trkpt lat="47.82308" lon="6.90991">
        <ele>825.6</ele>
        <time>2026-08-20T08:17:24.000Z</time>
      </trkpt>
      <trkpt lat="47.82306" lon="6.90981">
        <ele>826.6</ele>
        <time>2026-08-20T08:17:27.000Z</time>
      </trkpt>
      <trkpt lat="47.82305" lon="6.90967">
        <ele>827.8</ele>
        <time>2026-08-20T08:17:31.000Z</time>
      </trkpt>
      <trkpt lat="47.82305" lon="6.90964">
        <ele>828.2</ele>
        <time>2026-08-20T08:17:32.000Z</time>
      </trkpt>
      <trkpt lat="47.82306" lon="6.90953">
        <ele>829.2</ele>
        <time>2026-08-20T08:17:35.000Z</time>
      </trkpt>
      <trkpt lat="47.82311" lon="6.90937">
        <ele>830.4</ele>
        <time>2026-08-20T08:17:39.000Z</time>
      </trkpt>
      <trkpt lat="47.8231" lon="6.90925">
        <ele>831.6</ele>
        <time>2026-08-20T08:17:42.000Z</time>
      </trkpt>
      <trkpt lat="47.82309" lon="6.90918">
        <ele>832.8</ele>
        <time>2026-08-20T08:17:44.000Z</time>
      </trkpt>
      <trkpt lat="47.82309" lon="6.90915">
        <ele>833.2</ele>
        <time>2026-08-20T08:17:45.000Z</time>
      </trkpt>
      <trkpt lat="47.82308" lon="6.90911">
        <ele>834</ele>
        <time>2026-08-20T08:17:47.000Z</time>
      </trkpt>
      <trkpt lat="47.82308" lon="6.9091">
        <ele>834.6</ele>
        <time>2026-08-20T08:17:50.000Z</time>
      </trkpt>
      <trkpt lat="47.82307" lon="6.90899">
        <ele>835</ele>
        <time>2026-08-20T08:17:54.000Z</time>
      </trkpt>
      <trkpt lat="47.82307" lon="6.90896">
        <ele>835.2</ele>
        <time>2026-08-20T08:17:55.000Z</time>
      </trkpt>
      <trkpt lat="47.82306" lon="6.90883">
        <ele>836.2</ele>
        <time>2026-08-20T08:17:58.000Z</time>
      </trkpt>
      <trkpt lat="47.82305" lon="6.90869">
        <ele>837.4</ele>
        <time>2026-08-20T08:18:01.000Z</time>
      </trkpt>
      <trkpt lat="47.82304" lon="6.90856">
        <ele>838.4</ele>
        <time>2026-08-20T08:18:04.000Z</time>
      </trkpt>
      <trkpt lat="47.82304" lon="6.90844">
        <ele>839.8</ele>
        <time>2026-08-20T08:18:07.000Z</time>
      </trkpt>
      <trkpt lat="47.82304" lon="6.9084">
        <ele>840.2</ele>
        <time>2026-08-20T08:18:08.000Z</time>
      </trkpt>
      <trkpt lat="47.82303" lon="6.90831">
        <ele>841</ele>
        <time>2026-08-20T08:18:10.000Z</time>
      </trkpt>
      <trkpt lat="47.823" lon="6.90818">
        <ele>842.2</ele>
        <time>2026-08-20T08:18:13.000Z</time>
      </trkpt>
      <trkpt lat="47.823" lon="6.90806">
        <ele>843.2</ele>
        <time>2026-08-20T08:18:16.000Z</time>
      </trkpt>
      <trkpt lat="47.823" lon="6.90802">
        <ele>843.2</ele>
        <time>2026-08-20T08:18:17.000Z</time>
      </trkpt>
      <trkpt lat="47.82297" lon="6.90791">
        <ele>844.6</ele>
        <time>2026-08-20T08:18:20.000Z</time>
      </trkpt>
      <trkpt lat="47.82296" lon="6.90787">
        <ele>845.2</ele>
        <time>2026-08-20T08:18:21.000Z</time>
      </trkpt>
      <trkpt lat="47.82295" lon="6.90783">
        <ele>845.6</ele>
        <time>2026-08-20T08:18:22.000Z</time>
      </trkpt>
      <trkpt lat="47.82291" lon="6.90778">
        <ele>846.8</ele>
        <time>2026-08-20T08:18:24.000Z</time>
      </trkpt>
      <trkpt lat="47.82288" lon="6.90774">
        <ele>848</ele>
        <time>2026-08-20T08:18:26.000Z</time>
      </trkpt>
      <trkpt lat="47.82287" lon="6.90763">
        <ele>849.4</ele>
        <time>2026-08-20T08:18:29.000Z</time>
      </trkpt>
      <trkpt lat="47.82286" lon="6.90761">
        <ele>850</ele>
        <time>2026-08-20T08:18:31.000Z</time>
      </trkpt>
      <trkpt lat="47.82285" lon="6.90761">
        <ele>850.6</ele>
        <time>2026-08-20T08:18:33.000Z</time>
      </trkpt>
      <trkpt lat="47.82285" lon="6.9076">
        <ele>850.8</ele>
        <time>2026-08-20T08:18:38.000Z</time>
      </trkpt>
      <trkpt lat="47.82285" lon="6.9076">
        <ele>850.8</ele>
        <time>2026-08-20T08:18:43.000Z</time>
      </trkpt>
      <trkpt lat="47.82286" lon="6.90759">
        <ele>850.8</ele>
        <time>2026-08-20T08:18:47.000Z</time>
      </trkpt>
      <trkpt lat="47.82286" lon="6.90759">
        <ele>850.6</ele>
        <time>2026-08-20T08:18:50.000Z</time>
      </trkpt>
      <trkpt lat="47.82285" lon="6.9076">
        <ele>850.2</ele>
        <time>2026-08-20T08:18:56.000Z</time>
      </trkpt>
      <trkpt lat="47.82285" lon="6.9076">
        <ele>850</ele>
        <time>2026-08-20T08:18:59.000Z</time>
      </trkpt>
      <trkpt lat="47.82284" lon="6.90761">
        <ele>850.6</ele>
        <time>2026-08-20T08:19:05.000Z</time>
      </trkpt>
      <trkpt lat="47.82285" lon="6.9076">
        <ele>850.6</ele>
        <time>2026-08-20T08:19:15.000Z</time>
      </trkpt>
      <trkpt lat="47.82285" lon="6.9076">
        <ele>850.6</ele>
        <time>2026-08-20T08:19:20.000Z</time>
      </trkpt>
      <trkpt lat="47.82285" lon="6.90758">
        <ele>850.2</ele>
        <time>2026-08-20T08:19:24.000Z</time>
      </trkpt>
      <trkpt lat="47.82285" lon="6.90757">
        <ele>850.4</ele>
        <time>2026-08-20T08:19:27.000Z</time>
      </trkpt>
      <trkpt lat="47.82285" lon="6.90758">
        <ele>850.8</ele>
        <time>2026-08-20T08:19:29.000Z</time>
      </trkpt>
      <trkpt lat="47.82284" lon="6.90761">
        <ele>850.8</ele>
        <time>2026-08-20T08:19:32.000Z</time>
      </trkpt>
      <trkpt lat="47.82284" lon="6.90761">
        <ele>850.8</ele>
        <time>2026-08-20T08:19:34.000Z</time>
      </trkpt>
      <trkpt lat="47.82283" lon="6.9076">
        <ele>850.6</ele>
        <time>2026-08-20T08:19:39.000Z</time>
      </trkpt>
      <trkpt lat="47.82282" lon="6.90758">
        <ele>851.4</ele>
        <time>2026-08-20T08:19:45.000Z</time>
      </trkpt>
      <trkpt lat="47.82282" lon="6.9075">
        <ele>851.2</ele>
        <time>2026-08-20T08:19:51.000Z</time>
      </trkpt>
      <trkpt lat="47.82282" lon="6.90738">
        <ele>851.6</ele>
        <time>2026-08-20T08:19:54.000Z</time>
      </trkpt>
      <trkpt lat="47.82281" lon="6.90722">
        <ele>852.4</ele>
        <time>2026-08-20T08:19:58.000Z</time>
      </trkpt>
      <trkpt lat="47.82281" lon="6.90718">
        <ele>852.6</ele>
        <time>2026-08-20T08:19:59.000Z</time>
      </trkpt>
      <trkpt lat="47.82279" lon="6.90695">
        <ele>853.8</ele>
        <time>2026-08-20T08:20:05.000Z</time>
      </trkpt>
      <trkpt lat="47.82279" lon="6.90691">
        <ele>854.2</ele>
        <time>2026-08-20T08:20:06.000Z</time>
      </trkpt>
      <trkpt lat="47.82278" lon="6.9068">
        <ele>855</ele>
        <time>2026-08-20T08:20:09.000Z</time>
      </trkpt>
      <trkpt lat="47.82278" lon="6.90665">
        <ele>856.4</ele>
        <time>2026-08-20T08:20:13.000Z</time>
      </trkpt>
      <trkpt lat="47.82278" lon="6.90659">
        <ele>857.2</ele>
        <time>2026-08-20T08:20:15.000Z</time>
      </trkpt>
      <trkpt lat="47.82278" lon="6.90656">
        <ele>857.4</ele>
        <time>2026-08-20T08:20:16.000Z</time>
      </trkpt>
      <trkpt lat="47.82278" lon="6.90641">
        <ele>858.6</ele>
        <time>2026-08-20T08:20:21.000Z</time>
      </trkpt>
      <trkpt lat="47.82278" lon="6.90635">
        <ele>859</ele>
        <time>2026-08-20T08:20:23.000Z</time>
      </trkpt>
      <trkpt lat="47.82279" lon="6.90628">
        <ele>859.6</ele>
        <time>2026-08-20T08:20:25.000Z</time>
      </trkpt>
      <trkpt lat="47.82279" lon="6.90618">
        <ele>860.4</ele>
        <time>2026-08-20T08:20:28.000Z</time>
      </trkpt>
      <trkpt lat="47.82279" lon="6.90615">
        <ele>860.6</ele>
        <time>2026-08-20T08:20:29.000Z</time>
      </trkpt>
      <trkpt lat="47.82279" lon="6.90605">
        <ele>861.4</ele>
        <time>2026-08-20T08:20:32.000Z</time>
      </trkpt>
      <trkpt lat="47.82279" lon="6.90602">
        <ele>861.8</ele>
        <time>2026-08-20T08:20:33.000Z</time>
      </trkpt>
      <trkpt lat="47.82281" lon="6.90591">
        <ele>863</ele>
        <time>2026-08-20T08:20:37.000Z</time>
      </trkpt>
      <trkpt lat="47.82282" lon="6.90584">
        <ele>863.6</ele>
        <time>2026-08-20T08:20:40.000Z</time>
      </trkpt>
      <trkpt lat="47.82283" lon="6.90581">
        <ele>864</ele>
        <time>2026-08-20T08:20:43.000Z</time>
      </trkpt>
      <trkpt lat="47.82283" lon="6.90581">
        <ele>864</ele>
        <time>2026-08-20T08:20:44.000Z</time>
      </trkpt>
      <trkpt lat="47.82283" lon="6.90582">
        <ele>864</ele>
        <time>2026-08-20T08:20:50.000Z</time>
      </trkpt>
      <trkpt lat="47.82284" lon="6.90579">
        <ele>864</ele>
        <time>2026-08-20T08:20:53.000Z</time>
      </trkpt>
      <trkpt lat="47.82284" lon="6.9058">
        <ele>864</ele>
        <time>2026-08-20T08:20:57.000Z</time>
      </trkpt>
      <trkpt lat="47.82284" lon="6.90579">
        <ele>864</ele>
        <time>2026-08-20T08:21:00.000Z</time>
      </trkpt>
      <trkpt lat="47.82284" lon="6.9058">
        <ele>864</ele>
        <time>2026-08-20T08:21:02.000Z</time>
      </trkpt>
      <trkpt lat="47.82283" lon="6.9058">
        <ele>863.8</ele>
        <time>2026-08-20T08:21:05.000Z</time>
      </trkpt>
      <trkpt lat="47.82282" lon="6.9058">
        <ele>863.6</ele>
        <time>2026-08-20T08:21:11.000Z</time>
      </trkpt>
      <trkpt lat="47.82283" lon="6.90578">
        <ele>863.6</ele>
        <time>2026-08-20T08:21:16.000Z</time>
      </trkpt>
      <trkpt lat="47.82284" lon="6.90582">
        <ele>864</ele>
        <time>2026-08-20T08:21:23.000Z</time>
      </trkpt>
      <trkpt lat="47.82285" lon="6.90583">
        <ele>864</ele>
        <time>2026-08-20T08:21:31.000Z</time>
      </trkpt>
      <trkpt lat="47.82285" lon="6.90583">
        <ele>864</ele>
        <time>2026-08-20T08:21:33.000Z</time>
      </trkpt>
      <trkpt lat="47.82285" lon="6.90583">
        <ele>864</ele>
        <time>2026-08-20T08:21:37.000Z</time>
      </trkpt>
      <trkpt lat="47.82285" lon="6.9058">
        <ele>863.6</ele>
        <time>2026-08-20T08:21:49.000Z</time>
      </trkpt>
      <trkpt lat="47.82285" lon="6.9058">
        <ele>863.4</ele>
        <time>2026-08-20T08:21:54.000Z</time>
      </trkpt>
      <trkpt lat="47.82284" lon="6.90579">
        <ele>863.4</ele>
        <time>2026-08-20T08:22:00.000Z</time>
      </trkpt>
      <trkpt lat="47.82284" lon="6.90579">
        <ele>863.4</ele>
        <time>2026-08-20T08:22:05.000Z</time>
      </trkpt>
      <trkpt lat="47.82284" lon="6.90581">
        <ele>863.4</ele>
        <time>2026-08-20T08:22:09.000Z</time>
      </trkpt>
      <trkpt lat="47.82284" lon="6.90579">
        <ele>863.4</ele>
        <time>2026-08-20T08:22:21.000Z</time>
      </trkpt>
      <trkpt lat="47.82284" lon="6.90579">
        <ele>863.4</ele>
        <time>2026-08-20T08:22:29.000Z</time>
      </trkpt>
      <trkpt lat="47.82284" lon="6.90581">
        <ele>863.4</ele>
        <time>2026-08-20T08:22:30.000Z</time>
      </trkpt>
      <trkpt lat="47.82284" lon="6.90579">
        <ele>863.6</ele>
        <time>2026-08-20T08:22:35.000Z</time>
      </trkpt>
      <trkpt lat="47.82284" lon="6.90579">
        <ele>863.8</ele>
        <time>2026-08-20T08:22:37.000Z</time>
      </trkpt>
      <trkpt lat="47.82284" lon="6.90579">
        <ele>863.8</ele>
        <time>2026-08-20T08:22:40.000Z</time>
      </trkpt>
      <trkpt lat="47.82284" lon="6.90579">
        <ele>864</ele>
        <time>2026-08-20T08:22:43.000Z</time>
      </trkpt>
      <trkpt lat="47.82284" lon="6.90579">
        <ele>864</ele>
        <time>2026-08-20T08:22:49.000Z</time>
      </trkpt>
      <trkpt lat="47.82284" lon="6.90579">
        <ele>864</ele>
        <time>2026-08-20T08:22:55.000Z</time>
      </trkpt>
      <trkpt lat="47.82284" lon="6.90579">
        <ele>864</ele>
        <time>2026-08-20T08:22:59.000Z</time>
      </trkpt>
      <trkpt lat="47.82284" lon="6.90579">
        <ele>864</ele>
        <time>2026-08-20T08:23:11.000Z</time>
      </trkpt>
      <trkpt lat="47.82284" lon="6.90579">
        <ele>864</ele>
        <time>2026-08-20T08:23:16.000Z</time>
      </trkpt>
      <trkpt lat="47.82284" lon="6.90579">
        <ele>864</ele>
        <time>2026-08-20T08:23:44.000Z</time>
      </trkpt>
      <trkpt lat="47.82284" lon="6.90582">
        <ele>863.4</ele>
        <time>2026-08-20T08:23:56.000Z</time>
      </trkpt>
      <trkpt lat="47.82284" lon="6.90579">
        <ele>863</ele>
        <time>2026-08-20T08:24:00.000Z</time>
      </trkpt>
      <trkpt lat="47.82284" lon="6.90579">
        <ele>863</ele>
        <time>2026-08-20T08:24:01.000Z</time>
      </trkpt>
      <trkpt lat="47.82284" lon="6.90579">
        <ele>862.8</ele>
        <time>2026-08-20T08:24:03.000Z</time>
      </trkpt>
      <trkpt lat="47.82284" lon="6.90579">
        <ele>863.4</ele>
        <time>2026-08-20T08:24:11.000Z</time>
      </trkpt>
      <trkpt lat="47.82284" lon="6.90581">
        <ele>863.4</ele>
        <time>2026-08-20T08:24:13.000Z</time>
      </trkpt>
      <trkpt lat="47.82284" lon="6.90581">
        <ele>862.6</ele>
        <time>2026-08-20T08:24:18.000Z</time>
      </trkpt>
      <trkpt lat="47.82283" lon="6.90582">
        <ele>862.8</ele>
        <time>2026-08-20T08:24:27.000Z</time>
      </trkpt>
      <trkpt lat="47.82284" lon="6.90582">
        <ele>862.4</ele>
        <time>2026-08-20T08:24:33.000Z</time>
      </trkpt>
      <trkpt lat="47.82283" lon="6.90581">
        <ele>862.8</ele>
        <time>2026-08-20T08:24:40.000Z</time>
      </trkpt>
      <trkpt lat="47.82284" lon="6.90582">
        <ele>862.8</ele>
        <time>2026-08-20T08:24:47.000Z</time>
      </trkpt>
      <trkpt lat="47.82284" lon="6.9058">
        <ele>862.6</ele>
        <time>2026-08-20T08:24:50.000Z</time>
      </trkpt>
      <trkpt lat="47.82284" lon="6.9058">
        <ele>862.8</ele>
        <time>2026-08-20T08:24:53.000Z</time>
      </trkpt>
      <trkpt lat="47.82284" lon="6.9058">
        <ele>863</ele>
        <time>2026-08-20T08:25:02.000Z</time>
      </trkpt>
      <trkpt lat="47.82284" lon="6.90581">
        <ele>863.2</ele>
        <time>2026-08-20T08:25:09.000Z</time>
      </trkpt>
      <trkpt lat="47.82284" lon="6.9058">
        <ele>863</ele>
        <time>2026-08-20T08:25:17.000Z</time>
      </trkpt>
      <trkpt lat="47.82285" lon="6.90582">
        <ele>863</ele>
        <time>2026-08-20T08:25:23.000Z</time>
      </trkpt>
      <trkpt lat="47.82284" lon="6.90582">
        <ele>863</ele>
        <time>2026-08-20T08:25:30.000Z</time>
      </trkpt>
      <trkpt lat="47.82284" lon="6.90582">
        <ele>863.2</ele>
        <time>2026-08-20T08:25:34.000Z</time>
      </trkpt>
      <trkpt lat="47.82284" lon="6.90581">
        <ele>863.4</ele>
        <time>2026-08-20T08:25:41.000Z</time>
      </trkpt>
      <trkpt lat="47.82284" lon="6.9058">
        <ele>863.4</ele>
        <time>2026-08-20T08:25:43.000Z</time>
      </trkpt>
      <trkpt lat="47.82284" lon="6.9058">
        <ele>863.4</ele>
        <time>2026-08-20T08:25:45.000Z</time>
      </trkpt>
      <trkpt lat="47.82284" lon="6.9058">
        <ele>863.4</ele>
        <time>2026-08-20T08:25:47.000Z</time>
      </trkpt>
      <trkpt lat="47.82284" lon="6.9058">
        <ele>862.4</ele>
        <time>2026-08-20T08:25:58.000Z</time>
      </trkpt>
      <trkpt lat="47.82284" lon="6.9058">
        <ele>862.8</ele>
        <time>2026-08-20T08:26:06.000Z</time>
      </trkpt>
      <trkpt lat="47.82283" lon="6.90581">
        <ele>863</ele>
        <time>2026-08-20T08:26:14.000Z</time>
      </trkpt>
      <trkpt lat="47.82284" lon="6.9058">
        <ele>863.2</ele>
        <time>2026-08-20T08:26:21.000Z</time>
      </trkpt>
      <trkpt lat="47.82284" lon="6.9058">
        <ele>863.2</ele>
        <time>2026-08-20T08:26:22.000Z</time>
      </trkpt>
      <trkpt lat="47.82284" lon="6.9058">
        <ele>863.2</ele>
        <time>2026-08-20T08:26:24.000Z</time>
      </trkpt>
      <trkpt lat="47.82284" lon="6.9058">
        <ele>863.2</ele>
        <time>2026-08-20T08:26:26.000Z</time>
      </trkpt>
      <trkpt lat="47.82284" lon="6.9058">
        <ele>863.4</ele>
        <time>2026-08-20T08:26:33.000Z</time>
      </trkpt>
      <trkpt lat="47.82283" lon="6.9058">
        <ele>863.6</ele>
        <time>2026-08-20T08:26:39.000Z</time>
      </trkpt>
      <trkpt lat="47.82283" lon="6.90581">
        <ele>863.6</ele>
        <time>2026-08-20T08:26:45.000Z</time>
      </trkpt>
      <trkpt lat="47.82283" lon="6.90581">
        <ele>863.6</ele>
        <time>2026-08-20T08:26:52.000Z</time>
      </trkpt>
      <trkpt lat="47.82284" lon="6.9058">
        <ele>863.4</ele>
        <time>2026-08-20T08:26:56.000Z</time>
      </trkpt>
      <trkpt lat="47.82284" lon="6.9058">
        <ele>863.2</ele>
        <time>2026-08-20T08:26:57.000Z</time>
      </trkpt>
      <trkpt lat="47.82284" lon="6.9058">
        <ele>863.2</ele>
        <time>2026-08-20T08:26:58.000Z</time>
      </trkpt>
      <trkpt lat="47.82284" lon="6.9058">
        <ele>863.4</ele>
        <time>2026-08-20T08:26:59.000Z</time>
      </trkpt>
      <trkpt lat="47.82284" lon="6.9058">
        <ele>863.4</ele>
        <time>2026-08-20T08:27:00.000Z</time>
      </trkpt>
      <trkpt lat="47.82284" lon="6.9058">
        <ele>863.4</ele>
        <time>2026-08-20T08:27:09.000Z</time>
      </trkpt>
      <trkpt lat="47.82284" lon="6.9058">
        <ele>863.4</ele>
        <time>2026-08-20T08:27:10.000Z</time>
      </trkpt>
      <trkpt lat="47.82284" lon="6.9058">
        <ele>863.4</ele>
        <time>2026-08-20T08:27:25.000Z</time>
      </trkpt>
      <trkpt lat="47.82283" lon="6.9058">
        <ele>863</ele>
        <time>2026-08-20T08:27:30.000Z</time>
      </trkpt>
      <trkpt lat="47.82283" lon="6.90581">
        <ele>863.2</ele>
        <time>2026-08-20T08:27:38.000Z</time>
      </trkpt>
      <trkpt lat="47.82283" lon="6.9058">
        <ele>863.2</ele>
        <time>2026-08-20T08:27:47.000Z</time>
      </trkpt>
      <trkpt lat="47.82285" lon="6.90581">
        <ele>863</ele>
        <time>2026-08-20T08:27:53.000Z</time>
      </trkpt>
      <trkpt lat="47.82283" lon="6.90579">
        <ele>862.8</ele>
        <time>2026-08-20T08:27:59.000Z</time>
      </trkpt>
      <trkpt lat="47.82283" lon="6.90579">
        <ele>863.4</ele>
        <time>2026-08-20T08:28:05.000Z</time>
      </trkpt>
      <trkpt lat="47.82282" lon="6.90578">
        <ele>863</ele>
        <time>2026-08-20T08:28:10.000Z</time>
      </trkpt>
      <trkpt lat="47.82282" lon="6.90579">
        <ele>863.2</ele>
        <time>2026-08-20T08:28:13.000Z</time>
      </trkpt>
      <trkpt lat="47.82283" lon="6.90579">
        <ele>863.4</ele>
        <time>2026-08-20T08:28:21.000Z</time>
      </trkpt>
      <trkpt lat="47.82283" lon="6.90577">
        <ele>863.6</ele>
        <time>2026-08-20T08:28:31.000Z</time>
      </trkpt>
      <trkpt lat="47.82285" lon="6.90575">
        <ele>863.6</ele>
        <time>2026-08-20T08:28:33.000Z</time>
      </trkpt>
      <trkpt lat="47.82285" lon="6.90572">
        <ele>863.6</ele>
        <time>2026-08-20T08:28:36.000Z</time>
      </trkpt>
      <trkpt lat="47.82286" lon="6.90571">
        <ele>863.8</ele>
        <time>2026-08-20T08:28:37.000Z</time>
      </trkpt>
      <trkpt lat="47.82287" lon="6.90569">
        <ele>864</ele>
        <time>2026-08-20T08:28:38.000Z</time>
      </trkpt>
      <trkpt lat="47.82289" lon="6.90562">
        <ele>864.6</ele>
        <time>2026-08-20T08:28:45.000Z</time>
      </trkpt>
      <trkpt lat="47.82289" lon="6.90558">
        <ele>865</ele>
        <time>2026-08-20T08:28:50.000Z</time>
      </trkpt>
      <trkpt lat="47.82289" lon="6.90558">
        <ele>865.2</ele>
        <time>2026-08-20T08:28:52.000Z</time>
      </trkpt>
      <trkpt lat="47.8229" lon="6.9055">
        <ele>865.4</ele>
        <time>2026-08-20T08:28:58.000Z</time>
      </trkpt>
      <trkpt lat="47.82293" lon="6.90542">
        <ele>866.2</ele>
        <time>2026-08-20T08:29:01.000Z</time>
      </trkpt>
      <trkpt lat="47.82294" lon="6.90534">
        <ele>866.8</ele>
        <time>2026-08-20T08:29:04.000Z</time>
      </trkpt>
      <trkpt lat="47.82295" lon="6.90529">
        <ele>867.4</ele>
        <time>2026-08-20T08:29:06.000Z</time>
      </trkpt>
      <trkpt lat="47.82298" lon="6.9052">
        <ele>868.4</ele>
        <time>2026-08-20T08:29:10.000Z</time>
      </trkpt>
      <trkpt lat="47.82299" lon="6.90518">
        <ele>868.6</ele>
        <time>2026-08-20T08:29:11.000Z</time>
      </trkpt>
      <trkpt lat="47.823" lon="6.90511">
        <ele>869.4</ele>
        <time>2026-08-20T08:29:14.000Z</time>
      </trkpt>
      <trkpt lat="47.82301" lon="6.90508">
        <ele>869.8</ele>
        <time>2026-08-20T08:29:15.000Z</time>
      </trkpt>
      <trkpt lat="47.82304" lon="6.90498">
        <ele>871</ele>
        <time>2026-08-20T08:29:19.000Z</time>
      </trkpt>
      <trkpt lat="47.82306" lon="6.90491">
        <ele>872.4</ele>
        <time>2026-08-20T08:29:22.000Z</time>
      </trkpt>
      <trkpt lat="47.82309" lon="6.90484">
        <ele>873.6</ele>
        <time>2026-08-20T08:29:25.000Z</time>
      </trkpt>
      <trkpt lat="47.82312" lon="6.90478">
        <ele>874.8</ele>
        <time>2026-08-20T08:29:28.000Z</time>
      </trkpt>
      <trkpt lat="47.82314" lon="6.90476">
        <ele>875.2</ele>
        <time>2026-08-20T08:29:30.000Z</time>
      </trkpt>
      <trkpt lat="47.82317" lon="6.90468">
        <ele>876.2</ele>
        <time>2026-08-20T08:29:33.000Z</time>
      </trkpt>
      <trkpt lat="47.8232" lon="6.90461">
        <ele>877.2</ele>
        <time>2026-08-20T08:29:36.000Z</time>
      </trkpt>
      <trkpt lat="47.82325" lon="6.90452">
        <ele>878.4</ele>
        <time>2026-08-20T08:29:40.000Z</time>
      </trkpt>
      <trkpt lat="47.82329" lon="6.90446">
        <ele>879.4</ele>
        <time>2026-08-20T08:29:43.000Z</time>
      </trkpt>
      <trkpt lat="47.8233" lon="6.90445">
        <ele>879.8</ele>
        <time>2026-08-20T08:29:44.000Z</time>
      </trkpt>
      <trkpt lat="47.82332" lon="6.90443">
        <ele>880.4</ele>
        <time>2026-08-20T08:29:46.000Z</time>
      </trkpt>
      <trkpt lat="47.82337" lon="6.90437">
        <ele>881.6</ele>
        <time>2026-08-20T08:29:50.000Z</time>
      </trkpt>
      <trkpt lat="47.82339" lon="6.90436">
        <ele>882</ele>
        <time>2026-08-20T08:29:51.000Z</time>
      </trkpt>
      <trkpt lat="47.82342" lon="6.90433">
        <ele>882.8</ele>
        <time>2026-08-20T08:29:53.000Z</time>
      </trkpt>
      <trkpt lat="47.82344" lon="6.90431">
        <ele>883.6</ele>
        <time>2026-08-20T08:29:57.000Z</time>
      </trkpt>
      <trkpt lat="47.82347" lon="6.90429">
        <ele>883.8</ele>
        <time>2026-08-20T08:30:03.000Z</time>
      </trkpt>
      <trkpt lat="47.82347" lon="6.9043">
        <ele>883.8</ele>
        <time>2026-08-20T08:30:04.000Z</time>
      </trkpt>
      <trkpt lat="47.82348" lon="6.90429">
        <ele>883.8</ele>
        <time>2026-08-20T08:30:05.000Z</time>
      </trkpt>
      <trkpt lat="47.82351" lon="6.90429">
        <ele>884</ele>
        <time>2026-08-20T08:30:09.000Z</time>
      </trkpt>
      <trkpt lat="47.82353" lon="6.90431">
        <ele>884.4</ele>
        <time>2026-08-20T08:30:13.000Z</time>
      </trkpt>
      <trkpt lat="47.82351" lon="6.90431">
        <ele>884</ele>
        <time>2026-08-20T08:30:16.000Z</time>
      </trkpt>
      <trkpt lat="47.82351" lon="6.90433">
        <ele>884.2</ele>
        <time>2026-08-20T08:30:22.000Z</time>
      </trkpt>
      <trkpt lat="47.82353" lon="6.90434">
        <ele>884.2</ele>
        <time>2026-08-20T08:30:24.000Z</time>
      </trkpt>
      <trkpt lat="47.82352" lon="6.9043">
        <ele>884.6</ele>
        <time>2026-08-20T08:30:32.000Z</time>
      </trkpt>
      <trkpt lat="47.82353" lon="6.9043">
        <ele>884.8</ele>
        <time>2026-08-20T08:30:34.000Z</time>
      </trkpt>
      <trkpt lat="47.82352" lon="6.90429">
        <ele>884.8</ele>
        <time>2026-08-20T08:30:37.000Z</time>
      </trkpt>
      <trkpt lat="47.82353" lon="6.90427">
        <ele>885</ele>
        <time>2026-08-20T08:30:39.000Z</time>
      </trkpt>
      <trkpt lat="47.82358" lon="6.90419">
        <ele>885.8</ele>
        <time>2026-08-20T08:30:47.000Z</time>
      </trkpt>
      <trkpt lat="47.8236" lon="6.90416">
        <ele>886</ele>
        <time>2026-08-20T08:30:49.000Z</time>
      </trkpt>
      <trkpt lat="47.82367" lon="6.90408">
        <ele>886.4</ele>
        <time>2026-08-20T08:30:53.000Z</time>
      </trkpt>
      <trkpt lat="47.82376" lon="6.90394">
        <ele>887</ele>
        <time>2026-08-20T08:30:59.000Z</time>
      </trkpt>
      <trkpt lat="47.82379" lon="6.90389">
        <ele>887.2</ele>
        <time>2026-08-20T08:31:01.000Z</time>
      </trkpt>
      <trkpt lat="47.82382" lon="6.90385">
        <ele>887.6</ele>
        <time>2026-08-20T08:31:03.000Z</time>
      </trkpt>
      <trkpt lat="47.82386" lon="6.90377">
        <ele>888.2</ele>
        <time>2026-08-20T08:31:06.000Z</time>
      </trkpt>
      <trkpt lat="47.82392" lon="6.90367">
        <ele>889</ele>
        <time>2026-08-20T08:31:10.000Z</time>
      </trkpt>
      <trkpt lat="47.82393" lon="6.90365">
        <ele>889.2</ele>
        <time>2026-08-20T08:31:11.000Z</time>
      </trkpt>
      <trkpt lat="47.82399" lon="6.90349">
        <ele>890.4</ele>
        <time>2026-08-20T08:31:17.000Z</time>
      </trkpt>
      <trkpt lat="47.82401" lon="6.90343">
        <ele>890.8</ele>
        <time>2026-08-20T08:31:19.000Z</time>
      </trkpt>
      <trkpt lat="47.82404" lon="6.90335">
        <ele>891.4</ele>
        <time>2026-08-20T08:31:22.000Z</time>
      </trkpt>
      <trkpt lat="47.82409" lon="6.90324">
        <ele>892.2</ele>
        <time>2026-08-20T08:31:26.000Z</time>
      </trkpt>
      <trkpt lat="47.82413" lon="6.90316">
        <ele>892.6</ele>
        <time>2026-08-20T08:31:29.000Z</time>
      </trkpt>
      <trkpt lat="47.82416" lon="6.90308">
        <ele>893</ele>
        <time>2026-08-20T08:31:32.000Z</time>
      </trkpt>
      <trkpt lat="47.82419" lon="6.90303">
        <ele>893.4</ele>
        <time>2026-08-20T08:31:34.000Z</time>
      </trkpt>
      <trkpt lat="47.8242" lon="6.903">
        <ele>893.6</ele>
        <time>2026-08-20T08:31:35.000Z</time>
      </trkpt>
      <trkpt lat="47.82421" lon="6.90299">
        <ele>894</ele>
        <time>2026-08-20T08:31:36.000Z</time>
      </trkpt>
      <trkpt lat="47.82424" lon="6.90293">
        <ele>894.8</ele>
        <time>2026-08-20T08:31:39.000Z</time>
      </trkpt>
      <trkpt lat="47.82428" lon="6.90282">
        <ele>895.8</ele>
        <time>2026-08-20T08:31:43.000Z</time>
      </trkpt>
      <trkpt lat="47.82432" lon="6.90271">
        <ele>897</ele>
        <time>2026-08-20T08:31:47.000Z</time>
      </trkpt>
      <trkpt lat="47.82435" lon="6.90263">
        <ele>897.6</ele>
        <time>2026-08-20T08:31:50.000Z</time>
      </trkpt>
      <trkpt lat="47.82437" lon="6.90258">
        <ele>898</ele>
        <time>2026-08-20T08:31:52.000Z</time>
      </trkpt>
      <trkpt lat="47.82439" lon="6.90254">
        <ele>898.4</ele>
        <time>2026-08-20T08:31:54.000Z</time>
      </trkpt>
      <trkpt lat="47.82443" lon="6.9025">
        <ele>898.8</ele>
        <time>2026-08-20T08:31:56.000Z</time>
      </trkpt>
      <trkpt lat="47.82446" lon="6.90246">
        <ele>899</ele>
        <time>2026-08-20T08:31:58.000Z</time>
      </trkpt>
      <trkpt lat="47.82454" lon="6.90238">
        <ele>900</ele>
        <time>2026-08-20T08:32:03.000Z</time>
      </trkpt>
      <trkpt lat="47.82456" lon="6.90237">
        <ele>900.2</ele>
        <time>2026-08-20T08:32:04.000Z</time>
      </trkpt>
      <trkpt lat="47.82466" lon="6.90233">
        <ele>901.4</ele>
        <time>2026-08-20T08:32:09.000Z</time>
      </trkpt>
      <trkpt lat="47.82468" lon="6.90232">
        <ele>901.8</ele>
        <time>2026-08-20T08:32:10.000Z</time>
      </trkpt>
      <trkpt lat="47.82472" lon="6.90232">
        <ele>902.6</ele>
        <time>2026-08-20T08:32:12.000Z</time>
      </trkpt>
      <trkpt lat="47.8248" lon="6.90229">
        <ele>903.4</ele>
        <time>2026-08-20T08:32:16.000Z</time>
      </trkpt>
      <trkpt lat="47.82483" lon="6.90227">
        <ele>903.6</ele>
        <time>2026-08-20T08:32:18.000Z</time>
      </trkpt>
      <trkpt lat="47.82492" lon="6.90223">
        <ele>904.4</ele>
        <time>2026-08-20T08:32:22.000Z</time>
      </trkpt>
      <trkpt lat="47.82497" lon="6.90221">
        <ele>904.8</ele>
        <time>2026-08-20T08:32:24.000Z</time>
      </trkpt>
      <trkpt lat="47.82507" lon="6.90216">
        <ele>905.8</ele>
        <time>2026-08-20T08:32:28.000Z</time>
      </trkpt>
      <trkpt lat="47.82511" lon="6.90214">
        <ele>906.6</ele>
        <time>2026-08-20T08:32:30.000Z</time>
      </trkpt>
      <trkpt lat="47.82516" lon="6.90211">
        <ele>907.2</ele>
        <time>2026-08-20T08:32:32.000Z</time>
      </trkpt>
      <trkpt lat="47.82523" lon="6.90208">
        <ele>908.2</ele>
        <time>2026-08-20T08:32:35.000Z</time>
      </trkpt>
      <trkpt lat="47.82527" lon="6.90206">
        <ele>908.8</ele>
        <time>2026-08-20T08:32:37.000Z</time>
      </trkpt>
      <trkpt lat="47.82531" lon="6.90205">
        <ele>909.4</ele>
        <time>2026-08-20T08:32:39.000Z</time>
      </trkpt>
      <trkpt lat="47.82539" lon="6.90202">
        <ele>910.4</ele>
        <time>2026-08-20T08:32:43.000Z</time>
      </trkpt>
      <trkpt lat="47.82546" lon="6.90198">
        <ele>911.4</ele>
        <time>2026-08-20T08:32:46.000Z</time>
      </trkpt>
      <trkpt lat="47.82547" lon="6.90198">
        <ele>911.6</ele>
        <time>2026-08-20T08:32:47.000Z</time>
      </trkpt>
      <trkpt lat="47.82555" lon="6.90195">
        <ele>912.8</ele>
        <time>2026-08-20T08:32:51.000Z</time>
      </trkpt>
      <trkpt lat="47.82558" lon="6.90192">
        <ele>913.4</ele>
        <time>2026-08-20T08:32:53.000Z</time>
      </trkpt>
      <trkpt lat="47.82562" lon="6.9019">
        <ele>913.8</ele>
        <time>2026-08-20T08:32:55.000Z</time>
      </trkpt>
      <trkpt lat="47.82562" lon="6.90186">
        <ele>914.2</ele>
        <time>2026-08-20T08:32:57.000Z</time>
      </trkpt>
      <trkpt lat="47.82561" lon="6.90185">
        <ele>914.4</ele>
        <time>2026-08-20T08:32:58.000Z</time>
      </trkpt>
      <trkpt lat="47.82552" lon="6.90181">
        <ele>915</ele>
        <time>2026-08-20T08:33:02.000Z</time>
      </trkpt>
      <trkpt lat="47.82551" lon="6.9018">
        <ele>915.2</ele>
        <time>2026-08-20T08:33:03.000Z</time>
      </trkpt>
      <trkpt lat="47.82546" lon="6.90178">
        <ele>916.2</ele>
        <time>2026-08-20T08:33:06.000Z</time>
      </trkpt>
      <trkpt lat="47.82541" lon="6.90176">
        <ele>917.4</ele>
        <time>2026-08-20T08:33:09.000Z</time>
      </trkpt>
      <trkpt lat="47.82538" lon="6.90175">
        <ele>918.2</ele>
        <time>2026-08-20T08:33:11.000Z</time>
      </trkpt>
      <trkpt lat="47.82535" lon="6.90174">
        <ele>918.4</ele>
        <time>2026-08-20T08:33:12.000Z</time>
      </trkpt>
      <trkpt lat="47.82529" lon="6.90172">
        <ele>919.8</ele>
        <time>2026-08-20T08:33:15.000Z</time>
      </trkpt>
      <trkpt lat="47.82525" lon="6.9017">
        <ele>920.8</ele>
        <time>2026-08-20T08:33:17.000Z</time>
      </trkpt>
      <trkpt lat="47.8252" lon="6.90167">
        <ele>922</ele>
        <time>2026-08-20T08:33:20.000Z</time>
      </trkpt>
      <trkpt lat="47.82515" lon="6.90163">
        <ele>923.4</ele>
        <time>2026-08-20T08:33:23.000Z</time>
      </trkpt>
      <trkpt lat="47.82513" lon="6.90161">
        <ele>923.8</ele>
        <time>2026-08-20T08:33:24.000Z</time>
      </trkpt>
      <trkpt lat="47.82511" lon="6.90157">
        <ele>924.4</ele>
        <time>2026-08-20T08:33:26.000Z</time>
      </trkpt>
      <trkpt lat="47.82508" lon="6.9015">
        <ele>925.4</ele>
        <time>2026-08-20T08:33:29.000Z</time>
      </trkpt>
      <trkpt lat="47.82507" lon="6.90149">
        <ele>925.6</ele>
        <time>2026-08-20T08:33:30.000Z</time>
      </trkpt>
      <trkpt lat="47.82499" lon="6.90145">
        <ele>926.4</ele>
        <time>2026-08-20T08:33:34.000Z</time>
      </trkpt>
      <trkpt lat="47.82493" lon="6.90142">
        <ele>926.8</ele>
        <time>2026-08-20T08:33:37.000Z</time>
      </trkpt>
      <trkpt lat="47.82487" lon="6.90136">
        <ele>927.6</ele>
        <time>2026-08-20T08:33:41.000Z</time>
      </trkpt>
      <trkpt lat="47.82481" lon="6.90133">
        <ele>928.6</ele>
        <time>2026-08-20T08:33:44.000Z</time>
      </trkpt>
      <trkpt lat="47.82479" lon="6.90132">
        <ele>928.8</ele>
        <time>2026-08-20T08:33:45.000Z</time>
      </trkpt>
      <trkpt lat="47.82466" lon="6.90125">
        <ele>930</ele>
        <time>2026-08-20T08:33:52.000Z</time>
      </trkpt>
      <trkpt lat="47.82452" lon="6.90117">
        <ele>931.2</ele>
        <time>2026-08-20T08:34:00.000Z</time>
      </trkpt>
      <trkpt lat="47.82451" lon="6.90115">
        <ele>931.4</ele>
        <time>2026-08-20T08:34:01.000Z</time>
      </trkpt>
      <trkpt lat="47.82451" lon="6.90116">
        <ele>932</ele>
        <time>2026-08-20T08:34:05.000Z</time>
      </trkpt>
      <trkpt lat="47.82451" lon="6.90116">
        <ele>931.8</ele>
        <time>2026-08-20T08:34:11.000Z</time>
      </trkpt>
      <trkpt lat="47.82449" lon="6.90114">
        <ele>931.8</ele>
        <time>2026-08-20T08:34:13.000Z</time>
      </trkpt>
      <trkpt lat="47.8245" lon="6.90114">
        <ele>931.8</ele>
        <time>2026-08-20T08:34:14.000Z</time>
      </trkpt>
      <trkpt lat="47.82449" lon="6.90114">
        <ele>932</ele>
        <time>2026-08-20T08:34:20.000Z</time>
      </trkpt>
      <trkpt lat="47.82449" lon="6.90114">
        <ele>932.2</ele>
        <time>2026-08-20T08:34:33.000Z</time>
      </trkpt>
      <trkpt lat="47.8245" lon="6.90114">
        <ele>932.2</ele>
        <time>2026-08-20T08:34:37.000Z</time>
      </trkpt>
      <trkpt lat="47.82449" lon="6.90113">
        <ele>932.2</ele>
        <time>2026-08-20T08:34:39.000Z</time>
      </trkpt>
      <trkpt lat="47.82449" lon="6.90112">
        <ele>932.2</ele>
        <time>2026-08-20T08:34:42.000Z</time>
      </trkpt>
      <trkpt lat="47.82449" lon="6.90112">
        <ele>932.2</ele>
        <time>2026-08-20T08:34:43.000Z</time>
      </trkpt>
      <trkpt lat="47.8245" lon="6.90113">
        <ele>932.4</ele>
        <time>2026-08-20T08:34:44.000Z</time>
      </trkpt>
      <trkpt lat="47.82449" lon="6.90111">
        <ele>932.2</ele>
        <time>2026-08-20T08:34:50.000Z</time>
      </trkpt>
      <trkpt lat="47.82448" lon="6.90111">
        <ele>932.6</ele>
        <time>2026-08-20T08:34:58.000Z</time>
      </trkpt>
      <trkpt lat="47.82448" lon="6.90111">
        <ele>932.6</ele>
        <time>2026-08-20T08:35:02.000Z</time>
      </trkpt>
      <trkpt lat="47.82448" lon="6.90111">
        <ele>932.8</ele>
        <time>2026-08-20T08:35:05.000Z</time>
      </trkpt>
      <trkpt lat="47.82441" lon="6.90103">
        <ele>933.6</ele>
        <time>2026-08-20T08:35:09.000Z</time>
      </trkpt>
      <trkpt lat="47.8244" lon="6.901">
        <ele>933.8</ele>
        <time>2026-08-20T08:35:10.000Z</time>
      </trkpt>
      <trkpt lat="47.8244" lon="6.90091">
        <ele>934.8</ele>
        <time>2026-08-20T08:35:13.000Z</time>
      </trkpt>
      <trkpt lat="47.82438" lon="6.90087">
        <ele>935</ele>
        <time>2026-08-20T08:35:15.000Z</time>
      </trkpt>
      <trkpt lat="47.82433" lon="6.90083">
        <ele>936</ele>
        <time>2026-08-20T08:35:18.000Z</time>
      </trkpt>
      <trkpt lat="47.82429" lon="6.90081">
        <ele>936</ele>
        <time>2026-08-20T08:35:20.000Z</time>
      </trkpt>
      <trkpt lat="47.82417" lon="6.90081">
        <ele>935.8</ele>
        <time>2026-08-20T08:35:24.000Z</time>
      </trkpt>
      <trkpt lat="47.82412" lon="6.90082">
        <ele>935.8</ele>
        <time>2026-08-20T08:35:26.000Z</time>
      </trkpt>
      <trkpt lat="47.82396" lon="6.90088">
        <ele>937</ele>
        <time>2026-08-20T08:35:32.000Z</time>
      </trkpt>
      <trkpt lat="47.82393" lon="6.90088">
        <ele>937</ele>
        <time>2026-08-20T08:35:33.000Z</time>
      </trkpt>
      <trkpt lat="47.82384" lon="6.90081">
        <ele>937.2</ele>
        <time>2026-08-20T08:35:38.000Z</time>
      </trkpt>
      <trkpt lat="47.82378" lon="6.90076">
        <ele>938</ele>
        <time>2026-08-20T08:35:41.000Z</time>
      </trkpt>
      <trkpt lat="47.82373" lon="6.90069">
        <ele>938.4</ele>
        <time>2026-08-20T08:35:44.000Z</time>
      </trkpt>
      <trkpt lat="47.8237" lon="6.90064">
        <ele>939.4</ele>
        <time>2026-08-20T08:35:46.000Z</time>
      </trkpt>
      <trkpt lat="47.82367" lon="6.9006">
        <ele>940.4</ele>
        <time>2026-08-20T08:35:48.000Z</time>
      </trkpt>
      <trkpt lat="47.82362" lon="6.90052">
        <ele>941.6</ele>
        <time>2026-08-20T08:35:51.000Z</time>
      </trkpt>
      <trkpt lat="47.82352" lon="6.90032">
        <ele>942.6</ele>
        <time>2026-08-20T08:35:58.000Z</time>
      </trkpt>
      <trkpt lat="47.82351" lon="6.90029">
        <ele>943</ele>
        <time>2026-08-20T08:35:59.000Z</time>
      </trkpt>
      <trkpt lat="47.82348" lon="6.90023">
        <ele>944</ele>
        <time>2026-08-20T08:36:01.000Z</time>
      </trkpt>
      <trkpt lat="47.82344" lon="6.90014">
        <ele>945.6</ele>
        <time>2026-08-20T08:36:04.000Z</time>
      </trkpt>
      <trkpt lat="47.82341" lon="6.90006">
        <ele>946.8</ele>
        <time>2026-08-20T08:36:07.000Z</time>
      </trkpt>
      <trkpt lat="47.8234" lon="6.90002">
        <ele>947.2</ele>
        <time>2026-08-20T08:36:08.000Z</time>
      </trkpt>
      <trkpt lat="47.82337" lon="6.89993">
        <ele>948.2</ele>
        <time>2026-08-20T08:36:11.000Z</time>
      </trkpt>
      <trkpt lat="47.82335" lon="6.89987">
        <ele>949.2</ele>
        <time>2026-08-20T08:36:13.000Z</time>
      </trkpt>
      <trkpt lat="47.82333" lon="6.89981">
        <ele>949.8</ele>
        <time>2026-08-20T08:36:15.000Z</time>
      </trkpt>
      <trkpt lat="47.82329" lon="6.89972">
        <ele>950.6</ele>
        <time>2026-08-20T08:36:18.000Z</time>
      </trkpt>
      <trkpt lat="47.82328" lon="6.89966">
        <ele>951.8</ele>
        <time>2026-08-20T08:36:20.000Z</time>
      </trkpt>
      <trkpt lat="47.82326" lon="6.8996">
        <ele>953</ele>
        <time>2026-08-20T08:36:22.000Z</time>
      </trkpt>
      <trkpt lat="47.82323" lon="6.89954">
        <ele>954.2</ele>
        <time>2026-08-20T08:36:24.000Z</time>
      </trkpt>
      <trkpt lat="47.82322" lon="6.89948">
        <ele>955.4</ele>
        <time>2026-08-20T08:36:26.000Z</time>
      </trkpt>
      <trkpt lat="47.82322" lon="6.89941">
        <ele>956.4</ele>
        <time>2026-08-20T08:36:28.000Z</time>
      </trkpt>
      <trkpt lat="47.82321" lon="6.89937">
        <ele>956.6</ele>
        <time>2026-08-20T08:36:29.000Z</time>
      </trkpt>
      <trkpt lat="47.82317" lon="6.89924">
        <ele>958</ele>
        <time>2026-08-20T08:36:33.000Z</time>
      </trkpt>
      <trkpt lat="47.82316" lon="6.89917">
        <ele>958.6</ele>
        <time>2026-08-20T08:36:35.000Z</time>
      </trkpt>
      <trkpt lat="47.82316" lon="6.8991">
        <ele>959</ele>
        <time>2026-08-20T08:36:37.000Z</time>
      </trkpt>
      <trkpt lat="47.82314" lon="6.89896">
        <ele>960</ele>
        <time>2026-08-20T08:36:41.000Z</time>
      </trkpt>
      <trkpt lat="47.82315" lon="6.8989">
        <ele>961</ele>
        <time>2026-08-20T08:36:43.000Z</time>
      </trkpt>
      <trkpt lat="47.82314" lon="6.89885">
        <ele>962.2</ele>
        <time>2026-08-20T08:36:45.000Z</time>
      </trkpt>
      <trkpt lat="47.82313" lon="6.89877">
        <ele>963.2</ele>
        <time>2026-08-20T08:36:48.000Z</time>
      </trkpt>
      <trkpt lat="47.82313" lon="6.89874">
        <ele>963.4</ele>
        <time>2026-08-20T08:36:49.000Z</time>
      </trkpt>
      <trkpt lat="47.82315" lon="6.89867">
        <ele>964.4</ele>
        <time>2026-08-20T08:36:52.000Z</time>
      </trkpt>
      <trkpt lat="47.82314" lon="6.89857">
        <ele>965</ele>
        <time>2026-08-20T08:36:56.000Z</time>
      </trkpt>
      <trkpt lat="47.82312" lon="6.89846">
        <ele>965.4</ele>
        <time>2026-08-20T08:37:00.000Z</time>
      </trkpt>
      <trkpt lat="47.8231" lon="6.89838">
        <ele>966.2</ele>
        <time>2026-08-20T08:37:03.000Z</time>
      </trkpt>
      <trkpt lat="47.82306" lon="6.8982">
        <ele>967.2</ele>
        <time>2026-08-20T08:37:09.000Z</time>
      </trkpt>
      <trkpt lat="47.82303" lon="6.89809">
        <ele>968.2</ele>
        <time>2026-08-20T08:37:12.000Z</time>
      </trkpt>
      <trkpt lat="47.823" lon="6.89795">
        <ele>968.6</ele>
        <time>2026-08-20T08:37:16.000Z</time>
      </trkpt>
      <trkpt lat="47.82299" lon="6.89778">
        <ele>969.2</ele>
        <time>2026-08-20T08:37:21.000Z</time>
      </trkpt>
      <trkpt lat="47.82297" lon="6.89771">
        <ele>969.4</ele>
        <time>2026-08-20T08:37:23.000Z</time>
      </trkpt>
      <trkpt lat="47.82293" lon="6.89757">
        <ele>967.8</ele>
        <time>2026-08-20T08:37:27.000Z</time>
      </trkpt>
      <trkpt lat="47.82292" lon="6.89749">
        <ele>965.6</ele>
        <time>2026-08-20T08:37:29.000Z</time>
      </trkpt>
      <trkpt lat="47.82289" lon="6.89739">
        <ele>966.6</ele>
        <time>2026-08-20T08:37:32.000Z</time>
      </trkpt>
      <trkpt lat="47.82285" lon="6.89723">
        <ele>966</ele>
        <time>2026-08-20T08:37:36.000Z</time>
      </trkpt>
      <trkpt lat="47.82283" lon="6.89717">
        <ele>964.8</ele>
        <time>2026-08-20T08:37:37.000Z</time>
      </trkpt>
      <trkpt lat="47.82283" lon="6.8971">
        <ele>964</ele>
        <time>2026-08-20T08:37:38.000Z</time>
      </trkpt>
      <trkpt lat="47.82282" lon="6.89705">
        <ele>963</ele>
        <time>2026-08-20T08:37:39.000Z</time>
      </trkpt>
      <trkpt lat="47.82279" lon="6.89695">
        <ele>961.8</ele>
        <time>2026-08-20T08:37:41.000Z</time>
      </trkpt>
      <trkpt lat="47.82277" lon="6.89691">
        <ele>961.4</ele>
        <time>2026-08-20T08:37:42.000Z</time>
      </trkpt>
      <trkpt lat="47.82278" lon="6.89685">
        <ele>960.8</ele>
        <time>2026-08-20T08:37:43.000Z</time>
      </trkpt>
      <trkpt lat="47.8228" lon="6.89679">
        <ele>960.4</ele>
        <time>2026-08-20T08:37:44.000Z</time>
      </trkpt>
      <trkpt lat="47.82283" lon="6.89673">
        <ele>959.2</ele>
        <time>2026-08-20T08:37:45.000Z</time>
      </trkpt>
      <trkpt lat="47.82287" lon="6.89669">
        <ele>958</ele>
        <time>2026-08-20T08:37:46.000Z</time>
      </trkpt>
      <trkpt lat="47.82295" lon="6.89658">
        <ele>956.6</ele>
        <time>2026-08-20T08:37:48.000Z</time>
      </trkpt>
      <trkpt lat="47.82303" lon="6.89648">
        <ele>956.6</ele>
        <time>2026-08-20T08:37:50.000Z</time>
      </trkpt>
      <trkpt lat="47.82311" lon="6.89635">
        <ele>955.8</ele>
        <time>2026-08-20T08:37:53.000Z</time>
      </trkpt>
      <trkpt lat="47.82313" lon="6.89632">
        <ele>955.4</ele>
        <time>2026-08-20T08:37:54.000Z</time>
      </trkpt>
      <trkpt lat="47.82313" lon="6.89631">
        <ele>954.4</ele>
        <time>2026-08-20T08:37:57.000Z</time>
      </trkpt>
      <trkpt lat="47.82314" lon="6.8963">
        <ele>954.6</ele>
        <time>2026-08-20T08:38:01.000Z</time>
      </trkpt>
      <trkpt lat="47.82314" lon="6.89631">
        <ele>955</ele>
        <time>2026-08-20T08:38:07.000Z</time>
      </trkpt>
      <trkpt lat="47.82315" lon="6.8963">
        <ele>955.2</ele>
        <time>2026-08-20T08:38:12.000Z</time>
      </trkpt>
      <trkpt lat="47.82315" lon="6.89631">
        <ele>955.2</ele>
        <time>2026-08-20T08:38:14.000Z</time>
      </trkpt>
      <trkpt lat="47.82315" lon="6.8963">
        <ele>955</ele>
        <time>2026-08-20T08:38:15.000Z</time>
      </trkpt>
      <trkpt lat="47.82315" lon="6.89629">
        <ele>954.6</ele>
        <time>2026-08-20T08:38:21.000Z</time>
      </trkpt>
      <trkpt lat="47.82315" lon="6.89628">
        <ele>954.6</ele>
        <time>2026-08-20T08:38:22.000Z</time>
      </trkpt>
      <trkpt lat="47.8232" lon="6.8962">
        <ele>954.2</ele>
        <time>2026-08-20T08:38:25.000Z</time>
      </trkpt>
      <trkpt lat="47.82328" lon="6.89607">
        <ele>953.2</ele>
        <time>2026-08-20T08:38:28.000Z</time>
      </trkpt>
      <trkpt lat="47.82331" lon="6.89603">
        <ele>953</ele>
        <time>2026-08-20T08:38:29.000Z</time>
      </trkpt>
      <trkpt lat="47.82334" lon="6.896">
        <ele>952.8</ele>
        <time>2026-08-20T08:38:30.000Z</time>
      </trkpt>
      <trkpt lat="47.82336" lon="6.89596">
        <ele>952.8</ele>
        <time>2026-08-20T08:38:31.000Z</time>
      </trkpt>
      <trkpt lat="47.82341" lon="6.89591">
        <ele>952.8</ele>
        <time>2026-08-20T08:38:33.000Z</time>
      </trkpt>
      <trkpt lat="47.82351" lon="6.89578">
        <ele>952.2</ele>
        <time>2026-08-20T08:38:37.000Z</time>
      </trkpt>
      <trkpt lat="47.82354" lon="6.89573">
        <ele>952</ele>
        <time>2026-08-20T08:38:38.000Z</time>
      </trkpt>
      <trkpt lat="47.82367" lon="6.89552">
        <ele>950.8</ele>
        <time>2026-08-20T08:38:43.000Z</time>
      </trkpt>
      <trkpt lat="47.82376" lon="6.89538">
        <ele>949.8</ele>
        <time>2026-08-20T08:38:47.000Z</time>
      </trkpt>
      <trkpt lat="47.82379" lon="6.89535">
        <ele>949.8</ele>
        <time>2026-08-20T08:38:49.000Z</time>
      </trkpt>
      <trkpt lat="47.8238" lon="6.89533">
        <ele>949.4</ele>
        <time>2026-08-20T08:38:53.000Z</time>
      </trkpt>
      <trkpt lat="47.8238" lon="6.89533">
        <ele>949</ele>
        <time>2026-08-20T08:39:00.000Z</time>
      </trkpt>
      <trkpt lat="47.8238" lon="6.89531">
        <ele>949.6</ele>
        <time>2026-08-20T08:39:06.000Z</time>
      </trkpt>
      <trkpt lat="47.8238" lon="6.8953">
        <ele>949.6</ele>
        <time>2026-08-20T08:39:07.000Z</time>
      </trkpt>
      <trkpt lat="47.8238" lon="6.89531">
        <ele>949.6</ele>
        <time>2026-08-20T08:39:08.000Z</time>
      </trkpt>
      <trkpt lat="47.82379" lon="6.89529">
        <ele>949</ele>
        <time>2026-08-20T08:39:11.000Z</time>
      </trkpt>
      <trkpt lat="47.82383" lon="6.89524">
        <ele>948.8</ele>
        <time>2026-08-20T08:39:15.000Z</time>
      </trkpt>
      <trkpt lat="47.82384" lon="6.89522">
        <ele>948.6</ele>
        <time>2026-08-20T08:39:16.000Z</time>
      </trkpt>
      <trkpt lat="47.82391" lon="6.89515">
        <ele>947.6</ele>
        <time>2026-08-20T08:39:19.000Z</time>
      </trkpt>
      <trkpt lat="47.82396" lon="6.89508">
        <ele>947.2</ele>
        <time>2026-08-20T08:39:22.000Z</time>
      </trkpt>
      <trkpt lat="47.82404" lon="6.895">
        <ele>946.4</ele>
        <time>2026-08-20T08:39:25.000Z</time>
      </trkpt>
      <trkpt lat="47.82409" lon="6.89492">
        <ele>945.4</ele>
        <time>2026-08-20T08:39:28.000Z</time>
      </trkpt>
      <trkpt lat="47.8241" lon="6.8949">
        <ele>945.2</ele>
        <time>2026-08-20T08:39:29.000Z</time>
      </trkpt>
      <trkpt lat="47.82418" lon="6.89475">
        <ele>944</ele>
        <time>2026-08-20T08:39:33.000Z</time>
      </trkpt>
      <trkpt lat="47.82421" lon="6.89469">
        <ele>943.4</ele>
        <time>2026-08-20T08:39:35.000Z</time>
      </trkpt>
      <trkpt lat="47.82424" lon="6.89462">
        <ele>942.8</ele>
        <time>2026-08-20T08:39:37.000Z</time>
      </trkpt>
      <trkpt lat="47.82431" lon="6.8945">
        <ele>941.8</ele>
        <time>2026-08-20T08:39:40.000Z</time>
      </trkpt>
      <trkpt lat="47.82433" lon="6.89446">
        <ele>941.2</ele>
        <time>2026-08-20T08:39:41.000Z</time>
      </trkpt>
      <trkpt lat="47.82435" lon="6.89443">
        <ele>940.8</ele>
        <time>2026-08-20T08:39:42.000Z</time>
      </trkpt>
      <trkpt lat="47.82443" lon="6.89431">
        <ele>939.6</ele>
        <time>2026-08-20T08:39:46.000Z</time>
      </trkpt>
      <trkpt lat="47.82443" lon="6.89426">
        <ele>939.8</ele>
        <time>2026-08-20T08:39:48.000Z</time>
      </trkpt>
      <trkpt lat="47.82435" lon="6.89424">
        <ele>938.2</ele>
        <time>2026-08-20T08:39:53.000Z</time>
      </trkpt>
      <trkpt lat="47.82432" lon="6.89425">
        <ele>937</ele>
        <time>2026-08-20T08:39:55.000Z</time>
      </trkpt>
      <trkpt lat="47.82431" lon="6.89428">
        <ele>936.4</ele>
        <time>2026-08-20T08:39:58.000Z</time>
      </trkpt>
      <trkpt lat="47.82423" lon="6.89433">
        <ele>937.2</ele>
        <time>2026-08-20T08:40:07.000Z</time>
      </trkpt>
      <trkpt lat="47.82419" lon="6.8943">
        <ele>935.8</ele>
        <time>2026-08-20T08:40:13.000Z</time>
      </trkpt>
      <trkpt lat="47.82418" lon="6.8943">
        <ele>935.4</ele>
        <time>2026-08-20T08:40:15.000Z</time>
      </trkpt>
      <trkpt lat="47.82416" lon="6.89432">
        <ele>934.8</ele>
        <time>2026-08-20T08:40:19.000Z</time>
      </trkpt>
      <trkpt lat="47.82417" lon="6.89432">
        <ele>934.6</ele>
        <time>2026-08-20T08:40:21.000Z</time>
      </trkpt>
      <trkpt lat="47.82417" lon="6.89433">
        <ele>934.6</ele>
        <time>2026-08-20T08:40:22.000Z</time>
      </trkpt>
      <trkpt lat="47.82409" lon="6.8944">
        <ele>934</ele>
        <time>2026-08-20T08:40:27.000Z</time>
      </trkpt>
      <trkpt lat="47.82407" lon="6.89439">
        <ele>934</ele>
        <time>2026-08-20T08:40:28.000Z</time>
      </trkpt>
      <trkpt lat="47.82406" lon="6.89434">
        <ele>933.6</ele>
        <time>2026-08-20T08:40:31.000Z</time>
      </trkpt>
      <trkpt lat="47.82407" lon="6.89427">
        <ele>932.4</ele>
        <time>2026-08-20T08:40:33.000Z</time>
      </trkpt>
      <trkpt lat="47.82409" lon="6.89421">
        <ele>930.8</ele>
        <time>2026-08-20T08:40:35.000Z</time>
      </trkpt>
      <trkpt lat="47.82409" lon="6.89418">
        <ele>930.2</ele>
        <time>2026-08-20T08:40:36.000Z</time>
      </trkpt>
      <trkpt lat="47.8241" lon="6.89415">
        <ele>929.6</ele>
        <time>2026-08-20T08:40:38.000Z</time>
      </trkpt>
      <trkpt lat="47.82412" lon="6.89403">
        <ele>928.4</ele>
        <time>2026-08-20T08:40:42.000Z</time>
      </trkpt>
      <trkpt lat="47.82412" lon="6.89399">
        <ele>927.6</ele>
        <time>2026-08-20T08:40:43.000Z</time>
      </trkpt>
      <trkpt lat="47.82413" lon="6.89395">
        <ele>926.8</ele>
        <time>2026-08-20T08:40:44.000Z</time>
      </trkpt>
      <trkpt lat="47.82415" lon="6.89388">
        <ele>925.6</ele>
        <time>2026-08-20T08:40:46.000Z</time>
      </trkpt>
      <trkpt lat="47.82417" lon="6.89375">
        <ele>924.2</ele>
        <time>2026-08-20T08:40:49.000Z</time>
      </trkpt>
      <trkpt lat="47.82419" lon="6.8937">
        <ele>923.2</ele>
        <time>2026-08-20T08:40:51.000Z</time>
      </trkpt>
      <trkpt lat="47.82419" lon="6.89368">
        <ele>922.6</ele>
        <time>2026-08-20T08:40:52.000Z</time>
      </trkpt>
      <trkpt lat="47.82419" lon="6.89364">
        <ele>922</ele>
        <time>2026-08-20T08:40:54.000Z</time>
      </trkpt>
      <trkpt lat="47.82422" lon="6.89358">
        <ele>921.4</ele>
        <time>2026-08-20T08:40:56.000Z</time>
      </trkpt>
      <trkpt lat="47.82423" lon="6.89354">
        <ele>920.8</ele>
        <time>2026-08-20T08:40:58.000Z</time>
      </trkpt>
      <trkpt lat="47.82422" lon="6.89353">
        <ele>920.4</ele>
        <time>2026-08-20T08:41:00.000Z</time>
      </trkpt>
      <trkpt lat="47.82421" lon="6.89353">
        <ele>920.2</ele>
        <time>2026-08-20T08:41:02.000Z</time>
      </trkpt>
      <trkpt lat="47.8242" lon="6.89354">
        <ele>920.2</ele>
        <time>2026-08-20T08:41:03.000Z</time>
      </trkpt>
      <trkpt lat="47.82417" lon="6.89353">
        <ele>920</ele>
        <time>2026-08-20T08:41:09.000Z</time>
      </trkpt>
      <trkpt lat="47.82417" lon="6.89351">
        <ele>919.8</ele>
        <time>2026-08-20T08:41:10.000Z</time>
      </trkpt>
      <trkpt lat="47.82419" lon="6.89348">
        <ele>919</ele>
        <time>2026-08-20T08:41:12.000Z</time>
      </trkpt>
      <trkpt lat="47.8242" lon="6.89344">
        <ele>917.8</ele>
        <time>2026-08-20T08:41:15.000Z</time>
      </trkpt>
      <trkpt lat="47.82422" lon="6.8934">
        <ele>916.8</ele>
        <time>2026-08-20T08:41:22.000Z</time>
      </trkpt>
      <trkpt lat="47.82422" lon="6.89339">
        <ele>916.8</ele>
        <time>2026-08-20T08:41:24.000Z</time>
      </trkpt>
      <trkpt lat="47.82422" lon="6.89333">
        <ele>915.6</ele>
        <time>2026-08-20T08:41:29.000Z</time>
      </trkpt>
      <trkpt lat="47.82422" lon="6.89331">
        <ele>915.4</ele>
        <time>2026-08-20T08:41:30.000Z</time>
      </trkpt>
      <trkpt lat="47.82423" lon="6.89325">
        <ele>914.4</ele>
        <time>2026-08-20T08:41:34.000Z</time>
      </trkpt>
      <trkpt lat="47.82424" lon="6.89321">
        <ele>913.8</ele>
        <time>2026-08-20T08:41:38.000Z</time>
      </trkpt>
      <trkpt lat="47.82425" lon="6.89322">
        <ele>914</ele>
        <time>2026-08-20T08:41:42.000Z</time>
      </trkpt>
      <trkpt lat="47.82426" lon="6.89317">
        <ele>913.8</ele>
        <time>2026-08-20T08:41:45.000Z</time>
      </trkpt>
      <trkpt lat="47.82429" lon="6.89312">
        <ele>913.4</ele>
        <time>2026-08-20T08:41:48.000Z</time>
      </trkpt>
      <trkpt lat="47.8243" lon="6.89308">
        <ele>913.4</ele>
        <time>2026-08-20T08:41:50.000Z</time>
      </trkpt>
      <trkpt lat="47.82436" lon="6.89287">
        <ele>912.6</ele>
        <time>2026-08-20T08:41:56.000Z</time>
      </trkpt>
      <trkpt lat="47.82438" lon="6.89282">
        <ele>912.4</ele>
        <time>2026-08-20T08:41:58.000Z</time>
      </trkpt>
      <trkpt lat="47.82439" lon="6.89275">
        <ele>911.8</ele>
        <time>2026-08-20T08:42:02.000Z</time>
      </trkpt>
      <trkpt lat="47.82438" lon="6.89273">
        <ele>911.2</ele>
        <time>2026-08-20T08:42:04.000Z</time>
      </trkpt>
      <trkpt lat="47.82436" lon="6.89274">
        <ele>910.8</ele>
        <time>2026-08-20T08:42:06.000Z</time>
      </trkpt>
      <trkpt lat="47.82436" lon="6.89274">
        <ele>910.6</ele>
        <time>2026-08-20T08:42:08.000Z</time>
      </trkpt>
      <trkpt lat="47.82436" lon="6.89279">
        <ele>910.2</ele>
        <time>2026-08-20T08:42:12.000Z</time>
      </trkpt>
      <trkpt lat="47.82434" lon="6.89281">
        <ele>910.2</ele>
        <time>2026-08-20T08:42:14.000Z</time>
      </trkpt>
      <trkpt lat="47.82433" lon="6.89283">
        <ele>910.2</ele>
        <time>2026-08-20T08:42:15.000Z</time>
      </trkpt>
      <trkpt lat="47.82432" lon="6.89284">
        <ele>910</ele>
        <time>2026-08-20T08:42:16.000Z</time>
      </trkpt>
      <trkpt lat="47.82425" lon="6.89295">
        <ele>909</ele>
        <time>2026-08-20T08:42:22.000Z</time>
      </trkpt>
      <trkpt lat="47.82424" lon="6.89296">
        <ele>908.8</ele>
        <time>2026-08-20T08:42:23.000Z</time>
      </trkpt>
      <trkpt lat="47.82421" lon="6.89297">
        <ele>908</ele>
        <time>2026-08-20T08:42:29.000Z</time>
      </trkpt>
      <trkpt lat="47.82421" lon="6.89295">
        <ele>907.6</ele>
        <time>2026-08-20T08:42:30.000Z</time>
      </trkpt>
      <trkpt lat="47.82421" lon="6.89292">
        <ele>906.6</ele>
        <time>2026-08-20T08:42:33.000Z</time>
      </trkpt>
      <trkpt lat="47.82422" lon="6.89287">
        <ele>906</ele>
        <time>2026-08-20T08:42:35.000Z</time>
      </trkpt>
      <trkpt lat="47.82422" lon="6.89283">
        <ele>905.6</ele>
        <time>2026-08-20T08:42:36.000Z</time>
      </trkpt>
      <trkpt lat="47.82423" lon="6.89276">
        <ele>904.6</ele>
        <time>2026-08-20T08:42:39.000Z</time>
      </trkpt>
      <trkpt lat="47.82424" lon="6.89273">
        <ele>904.2</ele>
        <time>2026-08-20T08:42:41.000Z</time>
      </trkpt>
      <trkpt lat="47.82423" lon="6.89272">
        <ele>903.4</ele>
        <time>2026-08-20T08:42:44.000Z</time>
      </trkpt>
      <trkpt lat="47.8242" lon="6.89273">
        <ele>903</ele>
        <time>2026-08-20T08:42:48.000Z</time>
      </trkpt>
      <trkpt lat="47.82416" lon="6.89278">
        <ele>902.4</ele>
        <time>2026-08-20T08:42:52.000Z</time>
      </trkpt>
      <trkpt lat="47.82412" lon="6.89282">
        <ele>901.8</ele>
        <time>2026-08-20T08:42:54.000Z</time>
      </trkpt>
      <trkpt lat="47.82409" lon="6.89286">
        <ele>901.2</ele>
        <time>2026-08-20T08:42:56.000Z</time>
      </trkpt>
      <trkpt lat="47.82406" lon="6.89285">
        <ele>900.4</ele>
        <time>2026-08-20T08:42:59.000Z</time>
      </trkpt>
      <trkpt lat="47.82406" lon="6.89284">
        <ele>900.2</ele>
        <time>2026-08-20T08:43:00.000Z</time>
      </trkpt>
      <trkpt lat="47.82406" lon="6.89283">
        <ele>900.2</ele>
        <time>2026-08-20T08:43:01.000Z</time>
      </trkpt>
      <trkpt lat="47.82406" lon="6.89279">
        <ele>899.6</ele>
        <time>2026-08-20T08:43:04.000Z</time>
      </trkpt>
      <trkpt lat="47.82407" lon="6.89276">
        <ele>899</ele>
        <time>2026-08-20T08:43:07.000Z</time>
      </trkpt>
      <trkpt lat="47.82409" lon="6.89274">
        <ele>898.8</ele>
        <time>2026-08-20T08:43:10.000Z</time>
      </trkpt>
      <trkpt lat="47.82413" lon="6.89267">
        <ele>898</ele>
        <time>2026-08-20T08:43:15.000Z</time>
      </trkpt>
      <trkpt lat="47.82413" lon="6.89266">
        <ele>898</ele>
        <time>2026-08-20T08:43:16.000Z</time>
      </trkpt>
      <trkpt lat="47.82416" lon="6.89256">
        <ele>896.8</ele>
        <time>2026-08-20T08:43:22.000Z</time>
      </trkpt>
      <trkpt lat="47.82417" lon="6.89252">
        <ele>896.4</ele>
        <time>2026-08-20T08:43:23.000Z</time>
      </trkpt>
      <trkpt lat="47.82418" lon="6.89249">
        <ele>895.8</ele>
        <time>2026-08-20T08:43:24.000Z</time>
      </trkpt>
      <trkpt lat="47.82418" lon="6.89242">
        <ele>894.4</ele>
        <time>2026-08-20T08:43:26.000Z</time>
      </trkpt>
      <trkpt lat="47.82419" lon="6.89236">
        <ele>893</ele>
        <time>2026-08-20T08:43:28.000Z</time>
      </trkpt>
      <trkpt lat="47.82419" lon="6.8923">
        <ele>891.8</ele>
        <time>2026-08-20T08:43:30.000Z</time>
      </trkpt>
      <trkpt lat="47.8242" lon="6.89227">
        <ele>891.4</ele>
        <time>2026-08-20T08:43:31.000Z</time>
      </trkpt>
      <trkpt lat="47.82421" lon="6.89223">
        <ele>890.8</ele>
        <time>2026-08-20T08:43:32.000Z</time>
      </trkpt>
      <trkpt lat="47.82423" lon="6.89217">
        <ele>889.6</ele>
        <time>2026-08-20T08:43:34.000Z</time>
      </trkpt>
      <trkpt lat="47.82426" lon="6.89207">
        <ele>888.4</ele>
        <time>2026-08-20T08:43:37.000Z</time>
      </trkpt>
      <trkpt lat="47.82426" lon="6.89204">
        <ele>888</ele>
        <time>2026-08-20T08:43:38.000Z</time>
      </trkpt>
      <trkpt lat="47.82427" lon="6.892">
        <ele>887.4</ele>
        <time>2026-08-20T08:43:39.000Z</time>
      </trkpt>
      <trkpt lat="47.82429" lon="6.89194">
        <ele>886.2</ele>
        <time>2026-08-20T08:43:41.000Z</time>
      </trkpt>
      <trkpt lat="47.82429" lon="6.89193">
        <ele>885.4</ele>
        <time>2026-08-20T08:43:43.000Z</time>
      </trkpt>
      <trkpt lat="47.82428" lon="6.8919">
        <ele>885.2</ele>
        <time>2026-08-20T08:43:47.000Z</time>
      </trkpt>
      <trkpt lat="47.82427" lon="6.89193">
        <ele>884.6</ele>
        <time>2026-08-20T08:43:51.000Z</time>
      </trkpt>
      <trkpt lat="47.82423" lon="6.89199">
        <ele>884</ele>
        <time>2026-08-20T08:43:55.000Z</time>
      </trkpt>
      <trkpt lat="47.8242" lon="6.89201">
        <ele>883.8</ele>
        <time>2026-08-20T08:43:57.000Z</time>
      </trkpt>
      <trkpt lat="47.82418" lon="6.89202">
        <ele>883.6</ele>
        <time>2026-08-20T08:43:58.000Z</time>
      </trkpt>
      <trkpt lat="47.82417" lon="6.89203">
        <ele>883.4</ele>
        <time>2026-08-20T08:43:59.000Z</time>
      </trkpt>
      <trkpt lat="47.82415" lon="6.89204">
        <ele>883</ele>
        <time>2026-08-20T08:44:01.000Z</time>
      </trkpt>
      <trkpt lat="47.82415" lon="6.89198">
        <ele>882.4</ele>
        <time>2026-08-20T08:44:07.000Z</time>
      </trkpt>
      <trkpt lat="47.82415" lon="6.89196">
        <ele>881.8</ele>
        <time>2026-08-20T08:44:09.000Z</time>
      </trkpt>
      <trkpt lat="47.82415" lon="6.89196">
        <ele>881.4</ele>
        <time>2026-08-20T08:44:14.000Z</time>
      </trkpt>
      <trkpt lat="47.82416" lon="6.89185">
        <ele>880.8</ele>
        <time>2026-08-20T08:44:18.000Z</time>
      </trkpt>
      <trkpt lat="47.82419" lon="6.89175">
        <ele>879.4</ele>
        <time>2026-08-20T08:44:21.000Z</time>
      </trkpt>
      <trkpt lat="47.8242" lon="6.89169">
        <ele>878.6</ele>
        <time>2026-08-20T08:44:24.000Z</time>
      </trkpt>
      <trkpt lat="47.8242" lon="6.89166">
        <ele>878.2</ele>
        <time>2026-08-20T08:44:25.000Z</time>
      </trkpt>
      <trkpt lat="47.8242" lon="6.89165">
        <ele>877.4</ele>
        <time>2026-08-20T08:44:30.000Z</time>
      </trkpt>
      <trkpt lat="47.82419" lon="6.89168">
        <ele>877.8</ele>
        <time>2026-08-20T08:44:38.000Z</time>
      </trkpt>
      <trkpt lat="47.82418" lon="6.89163">
        <ele>877.4</ele>
        <time>2026-08-20T08:44:44.000Z</time>
      </trkpt>
      <trkpt lat="47.82418" lon="6.89162">
        <ele>877.4</ele>
        <time>2026-08-20T08:44:45.000Z</time>
      </trkpt>
      <trkpt lat="47.82419" lon="6.89161">
        <ele>877.2</ele>
        <time>2026-08-20T08:44:53.000Z</time>
      </trkpt>
      <trkpt lat="47.82418" lon="6.89162">
        <ele>877.2</ele>
        <time>2026-08-20T08:44:54.000Z</time>
      </trkpt>
      <trkpt lat="47.82418" lon="6.89158">
        <ele>877</ele>
        <time>2026-08-20T08:45:03.000Z</time>
      </trkpt>
      <trkpt lat="47.82419" lon="6.89159">
        <ele>876.4</ele>
        <time>2026-08-20T08:45:10.000Z</time>
      </trkpt>
      <trkpt lat="47.8242" lon="6.89158">
        <ele>876.2</ele>
        <time>2026-08-20T08:45:11.000Z</time>
      </trkpt>
      <trkpt lat="47.82421" lon="6.89157">
        <ele>876.2</ele>
        <time>2026-08-20T08:45:12.000Z</time>
      </trkpt>
      <trkpt lat="47.82423" lon="6.89152">
        <ele>875</ele>
        <time>2026-08-20T08:45:15.000Z</time>
      </trkpt>
      <trkpt lat="47.82423" lon="6.8915">
        <ele>874.4</ele>
        <time>2026-08-20T08:45:16.000Z</time>
      </trkpt>
      <trkpt lat="47.82424" lon="6.89147">
        <ele>873.8</ele>
        <time>2026-08-20T08:45:17.000Z</time>
      </trkpt>
      <trkpt lat="47.82425" lon="6.89144">
        <ele>873.2</ele>
        <time>2026-08-20T08:45:18.000Z</time>
      </trkpt>
      <trkpt lat="47.82425" lon="6.89142">
        <ele>872.8</ele>
        <time>2026-08-20T08:45:19.000Z</time>
      </trkpt>
      <trkpt lat="47.82427" lon="6.89135">
        <ele>871.2</ele>
        <time>2026-08-20T08:45:22.000Z</time>
      </trkpt>
      <trkpt lat="47.82428" lon="6.89126">
        <ele>869.8</ele>
        <time>2026-08-20T08:45:25.000Z</time>
      </trkpt>
      <trkpt lat="47.82429" lon="6.89123">
        <ele>869.4</ele>
        <time>2026-08-20T08:45:26.000Z</time>
      </trkpt>
      <trkpt lat="47.82429" lon="6.89117">
        <ele>868.6</ele>
        <time>2026-08-20T08:45:28.000Z</time>
      </trkpt>
      <trkpt lat="47.82431" lon="6.89112">
        <ele>867.4</ele>
        <time>2026-08-20T08:45:31.000Z</time>
      </trkpt>
      <trkpt lat="47.82431" lon="6.89105">
        <ele>866</ele>
        <time>2026-08-20T08:45:34.000Z</time>
      </trkpt>
      <trkpt lat="47.82432" lon="6.89097">
        <ele>864.6</ele>
        <time>2026-08-20T08:45:37.000Z</time>
      </trkpt>
      <trkpt lat="47.82433" lon="6.89091">
        <ele>863.8</ele>
        <time>2026-08-20T08:45:39.000Z</time>
      </trkpt>
      <trkpt lat="47.82434" lon="6.8909">
        <ele>863.4</ele>
        <time>2026-08-20T08:45:40.000Z</time>
      </trkpt>
      <trkpt lat="47.82436" lon="6.89081">
        <ele>861.8</ele>
        <time>2026-08-20T08:45:43.000Z</time>
      </trkpt>
      <trkpt lat="47.82437" lon="6.89073">
        <ele>860.6</ele>
        <time>2026-08-20T08:45:45.000Z</time>
      </trkpt>
      <trkpt lat="47.82438" lon="6.89065">
        <ele>859.4</ele>
        <time>2026-08-20T08:45:47.000Z</time>
      </trkpt>
      <trkpt lat="47.82439" lon="6.89056">
        <ele>858</ele>
        <time>2026-08-20T08:45:49.000Z</time>
      </trkpt>
      <trkpt lat="47.8244" lon="6.89047">
        <ele>856.6</ele>
        <time>2026-08-20T08:45:51.000Z</time>
      </trkpt>
      <trkpt lat="47.82441" lon="6.89038">
        <ele>855.6</ele>
        <time>2026-08-20T08:45:53.000Z</time>
      </trkpt>
      <trkpt lat="47.82442" lon="6.89028">
        <ele>854.2</ele>
        <time>2026-08-20T08:45:56.000Z</time>
      </trkpt>
      <trkpt lat="47.82443" lon="6.89022">
        <ele>853.4</ele>
        <time>2026-08-20T08:45:58.000Z</time>
      </trkpt>
      <trkpt lat="47.82443" lon="6.89018">
        <ele>853.2</ele>
        <time>2026-08-20T08:45:59.000Z</time>
      </trkpt>
      <trkpt lat="47.82444" lon="6.8901">
        <ele>852.2</ele>
        <time>2026-08-20T08:46:02.000Z</time>
      </trkpt>
      <trkpt lat="47.82444" lon="6.89005">
        <ele>851.4</ele>
        <time>2026-08-20T08:46:04.000Z</time>
      </trkpt>
      <trkpt lat="47.82444" lon="6.89003">
        <ele>851</ele>
        <time>2026-08-20T08:46:05.000Z</time>
      </trkpt>
      <trkpt lat="47.82444" lon="6.88995">
        <ele>849.8</ele>
        <time>2026-08-20T08:46:08.000Z</time>
      </trkpt>
      <trkpt lat="47.82444" lon="6.88993">
        <ele>849.6</ele>
        <time>2026-08-20T08:46:09.000Z</time>
      </trkpt>
      <trkpt lat="47.82445" lon="6.8899">
        <ele>848.8</ele>
        <time>2026-08-20T08:46:12.000Z</time>
      </trkpt>
      <trkpt lat="47.82445" lon="6.8899">
        <ele>848.6</ele>
        <time>2026-08-20T08:46:14.000Z</time>
      </trkpt>
      <trkpt lat="47.82443" lon="6.88986">
        <ele>848</ele>
        <time>2026-08-20T08:46:21.000Z</time>
      </trkpt>
      <trkpt lat="47.82443" lon="6.88983">
        <ele>847.6</ele>
        <time>2026-08-20T08:46:23.000Z</time>
      </trkpt>
      <trkpt lat="47.82443" lon="6.8898">
        <ele>847</ele>
        <time>2026-08-20T08:46:25.000Z</time>
      </trkpt>
      <trkpt lat="47.82444" lon="6.88979">
        <ele>846.6</ele>
        <time>2026-08-20T08:46:27.000Z</time>
      </trkpt>
      <trkpt lat="47.82444" lon="6.88977">
        <ele>845.8</ele>
        <time>2026-08-20T08:46:31.000Z</time>
      </trkpt>
      <trkpt lat="47.82444" lon="6.88973">
        <ele>845.6</ele>
        <time>2026-08-20T08:46:38.000Z</time>
      </trkpt>
      <trkpt lat="47.82443" lon="6.88971">
        <ele>845</ele>
        <time>2026-08-20T08:46:40.000Z</time>
      </trkpt>
      <trkpt lat="47.82443" lon="6.8897">
        <ele>845</ele>
        <time>2026-08-20T08:46:41.000Z</time>
      </trkpt>
      <trkpt lat="47.82443" lon="6.8897">
        <ele>844.8</ele>
        <time>2026-08-20T08:46:44.000Z</time>
      </trkpt>
      <trkpt lat="47.82442" lon="6.88966">
        <ele>844.4</ele>
        <time>2026-08-20T08:46:54.000Z</time>
      </trkpt>
      <trkpt lat="47.82442" lon="6.88964">
        <ele>844.2</ele>
        <time>2026-08-20T08:46:55.000Z</time>
      </trkpt>
      <trkpt lat="47.82444" lon="6.88955">
        <ele>843.4</ele>
        <time>2026-08-20T08:47:01.000Z</time>
      </trkpt>
      <trkpt lat="47.82444" lon="6.88951">
        <ele>843.4</ele>
        <time>2026-08-20T08:47:02.000Z</time>
      </trkpt>
      <trkpt lat="47.82445" lon="6.88941">
        <ele>843.2</ele>
        <time>2026-08-20T08:47:06.000Z</time>
      </trkpt>
      <trkpt lat="47.82446" lon="6.88935">
        <ele>842.6</ele>
        <time>2026-08-20T08:47:08.000Z</time>
      </trkpt>
      <trkpt lat="47.82445" lon="6.88932">
        <ele>842</ele>
        <time>2026-08-20T08:47:09.000Z</time>
      </trkpt>
      <trkpt lat="47.82448" lon="6.88921">
        <ele>840.6</ele>
        <time>2026-08-20T08:47:12.000Z</time>
      </trkpt>
      <trkpt lat="47.82449" lon="6.88918">
        <ele>840</ele>
        <time>2026-08-20T08:47:13.000Z</time>
      </trkpt>
      <trkpt lat="47.82451" lon="6.88915">
        <ele>839.4</ele>
        <time>2026-08-20T08:47:14.000Z</time>
      </trkpt>
      <trkpt lat="47.82455" lon="6.88909">
        <ele>838.4</ele>
        <time>2026-08-20T08:47:16.000Z</time>
      </trkpt>
      <trkpt lat="47.82459" lon="6.88903">
        <ele>837.8</ele>
        <time>2026-08-20T08:47:18.000Z</time>
      </trkpt>
      <trkpt lat="47.82462" lon="6.88899">
        <ele>837.4</ele>
        <time>2026-08-20T08:47:19.000Z</time>
      </trkpt>
      <trkpt lat="47.82473" lon="6.88893">
        <ele>836.2</ele>
        <time>2026-08-20T08:47:22.000Z</time>
      </trkpt>
      <trkpt lat="47.82482" lon="6.88888">
        <ele>836.2</ele>
        <time>2026-08-20T08:47:26.000Z</time>
      </trkpt>
      <trkpt lat="47.82495" lon="6.88881">
        <ele>836.2</ele>
        <time>2026-08-20T08:47:31.000Z</time>
      </trkpt>
      <trkpt lat="47.8251" lon="6.88873">
        <ele>835</ele>
        <time>2026-08-20T08:47:37.000Z</time>
      </trkpt>
      <trkpt lat="47.82523" lon="6.88877">
        <ele>834</ele>
        <time>2026-08-20T08:47:40.000Z</time>
      </trkpt>
      <trkpt lat="47.82532" lon="6.88881">
        <ele>833.6</ele>
        <time>2026-08-20T08:47:42.000Z</time>
      </trkpt>
      <trkpt lat="47.8255" lon="6.8889">
        <ele>833.2</ele>
        <time>2026-08-20T08:47:47.000Z</time>
      </trkpt>
      <trkpt lat="47.82557" lon="6.88892">
        <ele>833.2</ele>
        <time>2026-08-20T08:47:49.000Z</time>
      </trkpt>
      <trkpt lat="47.82571" lon="6.88893">
        <ele>833.4</ele>
        <time>2026-08-20T08:47:53.000Z</time>
      </trkpt>
      <trkpt lat="47.82579" lon="6.88891">
        <ele>834</ele>
        <time>2026-08-20T08:47:56.000Z</time>
      </trkpt>
      <trkpt lat="47.82585" lon="6.88888">
        <ele>834.8</ele>
        <time>2026-08-20T08:48:00.000Z</time>
      </trkpt>
      <trkpt lat="47.82586" lon="6.88887">
        <ele>835.2</ele>
        <time>2026-08-20T08:48:01.000Z</time>
      </trkpt>
      <trkpt lat="47.82597" lon="6.88887">
        <ele>836</ele>
        <time>2026-08-20T08:48:07.000Z</time>
      </trkpt>
      <trkpt lat="47.82611" lon="6.889">
        <ele>835.4</ele>
        <time>2026-08-20T08:48:13.000Z</time>
      </trkpt>
      <trkpt lat="47.8262" lon="6.88907">
        <ele>834.2</ele>
        <time>2026-08-20T08:48:17.000Z</time>
      </trkpt>
      <trkpt lat="47.82623" lon="6.88908">
        <ele>833.8</ele>
        <time>2026-08-20T08:48:18.000Z</time>
      </trkpt>
      <trkpt lat="47.82626" lon="6.88909">
        <ele>833.6</ele>
        <time>2026-08-20T08:48:19.000Z</time>
      </trkpt>
      <trkpt lat="47.82633" lon="6.88911">
        <ele>833.2</ele>
        <time>2026-08-20T08:48:21.000Z</time>
      </trkpt>
      <trkpt lat="47.8264" lon="6.88914">
        <ele>832.8</ele>
        <time>2026-08-20T08:48:23.000Z</time>
      </trkpt>
      <trkpt lat="47.82655" lon="6.88919">
        <ele>831.8</ele>
        <time>2026-08-20T08:48:28.000Z</time>
      </trkpt>
      <trkpt lat="47.82658" lon="6.8892">
        <ele>831.4</ele>
        <time>2026-08-20T08:48:29.000Z</time>
      </trkpt>
      <trkpt lat="47.82668" lon="6.88923">
        <ele>830.4</ele>
        <time>2026-08-20T08:48:32.000Z</time>
      </trkpt>
      <trkpt lat="47.82675" lon="6.88925">
        <ele>829.8</ele>
        <time>2026-08-20T08:48:34.000Z</time>
      </trkpt>
      <trkpt lat="47.82678" lon="6.88926">
        <ele>829.4</ele>
        <time>2026-08-20T08:48:35.000Z</time>
      </trkpt>
      <trkpt lat="47.82691" lon="6.88925">
        <ele>828.2</ele>
        <time>2026-08-20T08:48:38.000Z</time>
      </trkpt>
      <trkpt lat="47.82695" lon="6.88924">
        <ele>827.8</ele>
        <time>2026-08-20T08:48:39.000Z</time>
      </trkpt>
      <trkpt lat="47.82704" lon="6.88923">
        <ele>827</ele>
        <time>2026-08-20T08:48:41.000Z</time>
      </trkpt>
      <trkpt lat="47.82724" lon="6.88923">
        <ele>826.4</ele>
        <time>2026-08-20T08:48:46.000Z</time>
      </trkpt>
      <trkpt lat="47.82732" lon="6.88924">
        <ele>825.8</ele>
        <time>2026-08-20T08:48:48.000Z</time>
      </trkpt>
      <trkpt lat="47.82748" lon="6.88924">
        <ele>824.6</ele>
        <time>2026-08-20T08:48:52.000Z</time>
      </trkpt>
      <trkpt lat="47.82761" lon="6.88922">
        <ele>823.4</ele>
        <time>2026-08-20T08:48:55.000Z</time>
      </trkpt>
      <trkpt lat="47.82777" lon="6.88915">
        <ele>822.4</ele>
        <time>2026-08-20T08:48:59.000Z</time>
      </trkpt>
      <trkpt lat="47.82785" lon="6.88909">
        <ele>822</ele>
        <time>2026-08-20T08:49:01.000Z</time>
      </trkpt>
      <trkpt lat="47.82793" lon="6.88903">
        <ele>821.6</ele>
        <time>2026-08-20T08:49:03.000Z</time>
      </trkpt>
      <trkpt lat="47.82798" lon="6.88901">
        <ele>821.2</ele>
        <time>2026-08-20T08:49:04.000Z</time>
      </trkpt>
      <trkpt lat="47.82812" lon="6.88898">
        <ele>820.4</ele>
        <time>2026-08-20T08:49:07.000Z</time>
      </trkpt>
      <trkpt lat="47.82816" lon="6.88898">
        <ele>820.2</ele>
        <time>2026-08-20T08:49:08.000Z</time>
      </trkpt>
      <trkpt lat="47.82819" lon="6.88897">
        <ele>820</ele>
        <time>2026-08-20T08:49:09.000Z</time>
      </trkpt>
      <trkpt lat="47.82823" lon="6.88894">
        <ele>819.8</ele>
        <time>2026-08-20T08:49:11.000Z</time>
      </trkpt>
      <trkpt lat="47.82824" lon="6.88884">
        <ele>819.4</ele>
        <time>2026-08-20T08:49:15.000Z</time>
      </trkpt>
      <trkpt lat="47.82822" lon="6.88881">
        <ele>819.2</ele>
        <time>2026-08-20T08:49:16.000Z</time>
      </trkpt>
      <trkpt lat="47.8282" lon="6.88878">
        <ele>818.8</ele>
        <time>2026-08-20T08:49:17.000Z</time>
      </trkpt>
      <trkpt lat="47.82812" lon="6.88873">
        <ele>818</ele>
        <time>2026-08-20T08:49:20.000Z</time>
      </trkpt>
      <trkpt lat="47.82809" lon="6.88871">
        <ele>817.8</ele>
        <time>2026-08-20T08:49:21.000Z</time>
      </trkpt>
      <trkpt lat="47.82797" lon="6.88865">
        <ele>816.4</ele>
        <time>2026-08-20T08:49:25.000Z</time>
      </trkpt>
      <trkpt lat="47.8279" lon="6.88865">
        <ele>815.4</ele>
        <time>2026-08-20T08:49:27.000Z</time>
      </trkpt>
      <trkpt lat="47.82786" lon="6.88865">
        <ele>814.8</ele>
        <time>2026-08-20T08:49:28.000Z</time>
      </trkpt>
      <trkpt lat="47.82776" lon="6.88872">
        <ele>813.6</ele>
        <time>2026-08-20T08:49:31.000Z</time>
      </trkpt>
      <trkpt lat="47.82772" lon="6.88874">
        <ele>813.2</ele>
        <time>2026-08-20T08:49:32.000Z</time>
      </trkpt>
      <trkpt lat="47.82764" lon="6.88878">
        <ele>812</ele>
        <time>2026-08-20T08:49:34.000Z</time>
      </trkpt>
      <trkpt lat="47.82755" lon="6.88881">
        <ele>811</ele>
        <time>2026-08-20T08:49:36.000Z</time>
      </trkpt>
      <trkpt lat="47.82742" lon="6.88883">
        <ele>809.8</ele>
        <time>2026-08-20T08:49:39.000Z</time>
      </trkpt>
      <trkpt lat="47.82739" lon="6.88882">
        <ele>809.4</ele>
        <time>2026-08-20T08:49:40.000Z</time>
      </trkpt>
      <trkpt lat="47.82731" lon="6.88873">
        <ele>808.4</ele>
        <time>2026-08-20T08:49:43.000Z</time>
      </trkpt>
      <trkpt lat="47.82724" lon="6.88863">
        <ele>806.8</ele>
        <time>2026-08-20T08:49:46.000Z</time>
      </trkpt>
      <trkpt lat="47.82719" lon="6.88857">
        <ele>805.6</ele>
        <time>2026-08-20T08:49:48.000Z</time>
      </trkpt>
      <trkpt lat="47.82713" lon="6.88851">
        <ele>804</ele>
        <time>2026-08-20T08:49:50.000Z</time>
      </trkpt>
      <trkpt lat="47.82707" lon="6.88845">
        <ele>802.6</ele>
        <time>2026-08-20T08:49:52.000Z</time>
      </trkpt>
      <trkpt lat="47.82701" lon="6.88839">
        <ele>801.2</ele>
        <time>2026-08-20T08:49:54.000Z</time>
      </trkpt>
      <trkpt lat="47.82695" lon="6.88833">
        <ele>799.8</ele>
        <time>2026-08-20T08:49:56.000Z</time>
      </trkpt>
      <trkpt lat="47.8269" lon="6.88827">
        <ele>798.6</ele>
        <time>2026-08-20T08:49:58.000Z</time>
      </trkpt>
      <trkpt lat="47.82687" lon="6.88823">
        <ele>798</ele>
        <time>2026-08-20T08:49:59.000Z</time>
      </trkpt>
      <trkpt lat="47.82685" lon="6.8882">
        <ele>797.4</ele>
        <time>2026-08-20T08:50:00.000Z</time>
      </trkpt>
      <trkpt lat="47.8268" lon="6.88813">
        <ele>796</ele>
        <time>2026-08-20T08:50:02.000Z</time>
      </trkpt>
      <trkpt lat="47.82677" lon="6.88809">
        <ele>795.2</ele>
        <time>2026-08-20T08:50:03.000Z</time>
      </trkpt>
      <trkpt lat="47.82674" lon="6.88805">
        <ele>794.4</ele>
        <time>2026-08-20T08:50:04.000Z</time>
      </trkpt>
      <trkpt lat="47.82671" lon="6.88801">
        <ele>793.8</ele>
        <time>2026-08-20T08:50:05.000Z</time>
      </trkpt>
      <trkpt lat="47.82668" lon="6.88797">
        <ele>793</ele>
        <time>2026-08-20T08:50:06.000Z</time>
      </trkpt>
      <trkpt lat="47.82661" lon="6.88789">
        <ele>791.6</ele>
        <time>2026-08-20T08:50:08.000Z</time>
      </trkpt>
      <trkpt lat="47.82656" lon="6.88781">
        <ele>790</ele>
        <time>2026-08-20T08:50:10.000Z</time>
      </trkpt>
      <trkpt lat="47.8265" lon="6.88775">
        <ele>788.8</ele>
        <time>2026-08-20T08:50:12.000Z</time>
      </trkpt>
      <trkpt lat="47.82645" lon="6.88769">
        <ele>787.8</ele>
        <time>2026-08-20T08:50:14.000Z</time>
      </trkpt>
      <trkpt lat="47.8264" lon="6.88762">
        <ele>786.6</ele>
        <time>2026-08-20T08:50:16.000Z</time>
      </trkpt>
      <trkpt lat="47.82635" lon="6.88755">
        <ele>785.4</ele>
        <time>2026-08-20T08:50:18.000Z</time>
      </trkpt>
      <trkpt lat="47.82631" lon="6.88748">
        <ele>783.8</ele>
        <time>2026-08-20T08:50:20.000Z</time>
      </trkpt>
      <trkpt lat="47.82626" lon="6.88741">
        <ele>782.4</ele>
        <time>2026-08-20T08:50:22.000Z</time>
      </trkpt>
      <trkpt lat="47.82623" lon="6.88738">
        <ele>781.8</ele>
        <time>2026-08-20T08:50:23.000Z</time>
      </trkpt>
      <trkpt lat="47.82621" lon="6.88735">
        <ele>781</ele>
        <time>2026-08-20T08:50:24.000Z</time>
      </trkpt>
      <trkpt lat="47.82616" lon="6.8873">
        <ele>779.8</ele>
        <time>2026-08-20T08:50:26.000Z</time>
      </trkpt>
      <trkpt lat="47.8261" lon="6.88726">
        <ele>778.6</ele>
        <time>2026-08-20T08:50:28.000Z</time>
      </trkpt>
      <trkpt lat="47.82605" lon="6.88722">
        <ele>777.6</ele>
        <time>2026-08-20T08:50:30.000Z</time>
      </trkpt>
      <trkpt lat="47.82602" lon="6.8872">
        <ele>777</ele>
        <time>2026-08-20T08:50:31.000Z</time>
      </trkpt>
      <trkpt lat="47.82598" lon="6.88718">
        <ele>776.4</ele>
        <time>2026-08-20T08:50:32.000Z</time>
      </trkpt>
      <trkpt lat="47.82591" lon="6.88715">
        <ele>775</ele>
        <time>2026-08-20T08:50:34.000Z</time>
      </trkpt>
      <trkpt lat="47.82584" lon="6.88704">
        <ele>773.6</ele>
        <time>2026-08-20T08:50:37.000Z</time>
      </trkpt>
      <trkpt lat="47.82581" lon="6.88699">
        <ele>773</ele>
        <time>2026-08-20T08:50:38.000Z</time>
      </trkpt>
      <trkpt lat="47.82576" lon="6.88693">
        <ele>772</ele>
        <time>2026-08-20T08:50:40.000Z</time>
      </trkpt>
      <trkpt lat="47.8257" lon="6.88687">
        <ele>771</ele>
        <time>2026-08-20T08:50:42.000Z</time>
      </trkpt>
      <trkpt lat="47.82561" lon="6.8868">
        <ele>769.6</ele>
        <time>2026-08-20T08:50:45.000Z</time>
      </trkpt>
      <trkpt lat="47.82554" lon="6.88674">
        <ele>768.4</ele>
        <time>2026-08-20T08:50:47.000Z</time>
      </trkpt>
      <trkpt lat="47.82547" lon="6.88666">
        <ele>767.4</ele>
        <time>2026-08-20T08:50:49.000Z</time>
      </trkpt>
      <trkpt lat="47.82539" lon="6.88658">
        <ele>766.6</ele>
        <time>2026-08-20T08:50:51.000Z</time>
      </trkpt>
      <trkpt lat="47.82536" lon="6.88653">
        <ele>766.4</ele>
        <time>2026-08-20T08:50:52.000Z</time>
      </trkpt>
      <trkpt lat="47.8252" lon="6.88633">
        <ele>765.4</ele>
        <time>2026-08-20T08:50:57.000Z</time>
      </trkpt>
      <trkpt lat="47.82516" lon="6.88629">
        <ele>765.2</ele>
        <time>2026-08-20T08:50:58.000Z</time>
      </trkpt>
      <trkpt lat="47.82513" lon="6.88624">
        <ele>764.8</ele>
        <time>2026-08-20T08:50:59.000Z</time>
      </trkpt>
      <trkpt lat="47.82507" lon="6.88616">
        <ele>764</ele>
        <time>2026-08-20T08:51:01.000Z</time>
      </trkpt>
      <trkpt lat="47.82499" lon="6.88603">
        <ele>763</ele>
        <time>2026-08-20T08:51:04.000Z</time>
      </trkpt>
      <trkpt lat="47.82495" lon="6.88597">
        <ele>762.6</ele>
        <time>2026-08-20T08:51:06.000Z</time>
      </trkpt>
      <trkpt lat="47.82484" lon="6.88574">
        <ele>762.2</ele>
        <time>2026-08-20T08:51:13.000Z</time>
      </trkpt>
      <trkpt lat="47.82477" lon="6.88566">
        <ele>761.8</ele>
        <time>2026-08-20T08:51:16.000Z</time>
      </trkpt>
      <trkpt lat="47.82467" lon="6.88558">
        <ele>760.8</ele>
        <time>2026-08-20T08:51:19.000Z</time>
      </trkpt>
      <trkpt lat="47.82455" lon="6.88547">
        <ele>759.8</ele>
        <time>2026-08-20T08:51:23.000Z</time>
      </trkpt>
      <trkpt lat="47.82441" lon="6.88535">
        <ele>758.8</ele>
        <time>2026-08-20T08:51:27.000Z</time>
      </trkpt>
      <trkpt lat="47.82438" lon="6.88533">
        <ele>758.4</ele>
        <time>2026-08-20T08:51:28.000Z</time>
      </trkpt>
      <trkpt lat="47.82429" lon="6.88525">
        <ele>757.4</ele>
        <time>2026-08-20T08:51:31.000Z</time>
      </trkpt>
      <trkpt lat="47.82421" lon="6.88517">
        <ele>756.6</ele>
        <time>2026-08-20T08:51:34.000Z</time>
      </trkpt>
      <trkpt lat="47.82419" lon="6.88515">
        <ele>756.2</ele>
        <time>2026-08-20T08:51:35.000Z</time>
      </trkpt>
      <trkpt lat="47.82413" lon="6.88508">
        <ele>755</ele>
        <time>2026-08-20T08:51:37.000Z</time>
      </trkpt>
      <trkpt lat="47.82407" lon="6.88501">
        <ele>753.8</ele>
        <time>2026-08-20T08:51:39.000Z</time>
      </trkpt>
      <trkpt lat="47.82401" lon="6.88493">
        <ele>752.8</ele>
        <time>2026-08-20T08:51:41.000Z</time>
      </trkpt>
      <trkpt lat="47.82395" lon="6.88487">
        <ele>752</ele>
        <time>2026-08-20T08:51:43.000Z</time>
      </trkpt>
      <trkpt lat="47.82392" lon="6.88484">
        <ele>751.6</ele>
        <time>2026-08-20T08:51:44.000Z</time>
      </trkpt>
      <trkpt lat="47.8238" lon="6.88475">
        <ele>750.2</ele>
        <time>2026-08-20T08:51:48.000Z</time>
      </trkpt>
      <trkpt lat="47.82374" lon="6.88471">
        <ele>749.4</ele>
        <time>2026-08-20T08:51:50.000Z</time>
      </trkpt>
      <trkpt lat="47.82371" lon="6.88468">
        <ele>749</ele>
        <time>2026-08-20T08:51:51.000Z</time>
      </trkpt>
      <trkpt lat="47.82366" lon="6.88462">
        <ele>747.8</ele>
        <time>2026-08-20T08:51:53.000Z</time>
      </trkpt>
      <trkpt lat="47.8236" lon="6.88454">
        <ele>747</ele>
        <time>2026-08-20T08:51:55.000Z</time>
      </trkpt>
      <trkpt lat="47.82357" lon="6.88451">
        <ele>746.6</ele>
        <time>2026-08-20T08:51:56.000Z</time>
      </trkpt>
      <trkpt lat="47.82345" lon="6.88441">
        <ele>745.4</ele>
        <time>2026-08-20T08:51:59.000Z</time>
      </trkpt>
      <trkpt lat="47.82339" lon="6.88435">
        <ele>744.8</ele>
        <time>2026-08-20T08:52:01.000Z</time>
      </trkpt>
      <trkpt lat="47.82328" lon="6.88423">
        <ele>744.2</ele>
        <time>2026-08-20T08:52:05.000Z</time>
      </trkpt>
      <trkpt lat="47.82315" lon="6.8841">
        <ele>743.2</ele>
        <time>2026-08-20T08:52:09.000Z</time>
      </trkpt>
      <trkpt lat="47.82308" lon="6.88404">
        <ele>742.8</ele>
        <time>2026-08-20T08:52:11.000Z</time>
      </trkpt>
      <trkpt lat="47.82301" lon="6.88399">
        <ele>742.2</ele>
        <time>2026-08-20T08:52:13.000Z</time>
      </trkpt>
      <trkpt lat="47.82287" lon="6.88392">
        <ele>741</ele>
        <time>2026-08-20T08:52:17.000Z</time>
      </trkpt>
      <trkpt lat="47.8228" lon="6.88388">
        <ele>740.4</ele>
        <time>2026-08-20T08:52:19.000Z</time>
      </trkpt>
      <trkpt lat="47.82262" lon="6.88378">
        <ele>740.2</ele>
        <time>2026-08-20T08:52:25.000Z</time>
      </trkpt>
      <trkpt lat="47.8226" lon="6.88375">
        <ele>739.8</ele>
        <time>2026-08-20T08:52:29.000Z</time>
      </trkpt>
      <trkpt lat="47.8226" lon="6.88375">
        <ele>739.6</ele>
        <time>2026-08-20T08:52:38.000Z</time>
      </trkpt>
      <trkpt lat="47.8226" lon="6.88375">
        <ele>739.6</ele>
        <time>2026-08-20T08:52:41.000Z</time>
      </trkpt>
      <trkpt lat="47.8226" lon="6.88375">
        <ele>739.4</ele>
        <time>2026-08-20T08:52:58.000Z</time>
      </trkpt>
      <trkpt lat="47.82258" lon="6.88375">
        <ele>739.2</ele>
        <time>2026-08-20T08:53:09.000Z</time>
      </trkpt>
      <trkpt lat="47.82259" lon="6.88375">
        <ele>739.2</ele>
        <time>2026-08-20T08:53:18.000Z</time>
      </trkpt>
      <trkpt lat="47.82259" lon="6.88375">
        <ele>738.8</ele>
        <time>2026-08-20T08:53:25.000Z</time>
      </trkpt>
      <trkpt lat="47.82259" lon="6.88375">
        <ele>738.8</ele>
        <time>2026-08-20T08:53:26.000Z</time>
      </trkpt>
      <trkpt lat="47.82258" lon="6.88376">
        <ele>738.8</ele>
        <time>2026-08-20T08:53:35.000Z</time>
      </trkpt>
      <trkpt lat="47.8226" lon="6.88375">
        <ele>739</ele>
        <time>2026-08-20T08:53:45.000Z</time>
      </trkpt>
      <trkpt lat="47.82258" lon="6.88377">
        <ele>738.8</ele>
        <time>2026-08-20T08:53:52.000Z</time>
      </trkpt>
      <trkpt lat="47.8225" lon="6.88374">
        <ele>738.6</ele>
        <time>2026-08-20T08:53:57.000Z</time>
      </trkpt>
      <trkpt lat="47.82236" lon="6.88374">
        <ele>738.6</ele>
        <time>2026-08-20T08:54:03.000Z</time>
      </trkpt>
      <trkpt lat="47.82232" lon="6.88376">
        <ele>738.6</ele>
        <time>2026-08-20T08:54:05.000Z</time>
      </trkpt>
      <trkpt lat="47.82228" lon="6.88379">
        <ele>738.6</ele>
        <time>2026-08-20T08:54:07.000Z</time>
      </trkpt>
      <trkpt lat="47.82227" lon="6.88381">
        <ele>738.6</ele>
        <time>2026-08-20T08:54:08.000Z</time>
      </trkpt>
      <trkpt lat="47.82224" lon="6.88385">
        <ele>738.6</ele>
        <time>2026-08-20T08:54:10.000Z</time>
      </trkpt>
      <trkpt lat="47.82217" lon="6.88393">
        <ele>738.8</ele>
        <time>2026-08-20T08:54:15.000Z</time>
      </trkpt>
      <trkpt lat="47.82214" lon="6.88391">
        <ele>738.8</ele>
        <time>2026-08-20T08:54:16.000Z</time>
      </trkpt>
      <trkpt lat="47.82212" lon="6.88388">
        <ele>738.8</ele>
        <time>2026-08-20T08:54:17.000Z</time>
      </trkpt>
      <trkpt lat="47.82212" lon="6.8838">
        <ele>738.6</ele>
        <time>2026-08-20T08:54:19.000Z</time>
      </trkpt>
      <trkpt lat="47.82218" lon="6.88367">
        <ele>737.6</ele>
        <time>2026-08-20T08:54:23.000Z</time>
      </trkpt>
      <trkpt lat="47.8222" lon="6.88362">
        <ele>737.4</ele>
        <time>2026-08-20T08:54:24.000Z</time>
      </trkpt>
      <trkpt lat="47.82227" lon="6.88353">
        <ele>736.4</ele>
        <time>2026-08-20T08:54:27.000Z</time>
      </trkpt>
      <trkpt lat="47.82232" lon="6.88349">
        <ele>735.6</ele>
        <time>2026-08-20T08:54:29.000Z</time>
      </trkpt>
      <trkpt lat="47.82234" lon="6.88347">
        <ele>735.2</ele>
        <time>2026-08-20T08:54:30.000Z</time>
      </trkpt>
      <trkpt lat="47.8224" lon="6.88341">
        <ele>733.8</ele>
        <time>2026-08-20T08:54:33.000Z</time>
      </trkpt>
      <trkpt lat="47.82243" lon="6.88339">
        <ele>733.2</ele>
        <time>2026-08-20T08:54:34.000Z</time>
      </trkpt>
      <trkpt lat="47.82248" lon="6.88335">
        <ele>732.6</ele>
        <time>2026-08-20T08:54:36.000Z</time>
      </trkpt>
      <trkpt lat="47.82256" lon="6.88328">
        <ele>731.4</ele>
        <time>2026-08-20T08:54:39.000Z</time>
      </trkpt>
      <trkpt lat="47.82262" lon="6.88324">
        <ele>730.6</ele>
        <time>2026-08-20T08:54:41.000Z</time>
      </trkpt>
      <trkpt lat="47.82265" lon="6.88323">
        <ele>730.4</ele>
        <time>2026-08-20T08:54:42.000Z</time>
      </trkpt>
      <trkpt lat="47.82277" lon="6.88319">
        <ele>729.2</ele>
        <time>2026-08-20T08:54:46.000Z</time>
      </trkpt>
      <trkpt lat="47.82284" lon="6.88319">
        <ele>728.6</ele>
        <time>2026-08-20T08:54:48.000Z</time>
      </trkpt>
      <trkpt lat="47.82291" lon="6.88318">
        <ele>728</ele>
        <time>2026-08-20T08:54:50.000Z</time>
      </trkpt>
      <trkpt lat="47.82305" lon="6.88321">
        <ele>726.8</ele>
        <time>2026-08-20T08:54:54.000Z</time>
      </trkpt>
      <trkpt lat="47.82308" lon="6.88323">
        <ele>726.6</ele>
        <time>2026-08-20T08:54:55.000Z</time>
      </trkpt>
      <trkpt lat="47.82314" lon="6.88326">
        <ele>725.8</ele>
        <time>2026-08-20T08:54:57.000Z</time>
      </trkpt>
      <trkpt lat="47.82325" lon="6.88333">
        <ele>724.4</ele>
        <time>2026-08-20T08:55:01.000Z</time>
      </trkpt>
      <trkpt lat="47.8233" lon="6.88336">
        <ele>723.8</ele>
        <time>2026-08-20T08:55:03.000Z</time>
      </trkpt>
      <trkpt lat="47.82334" lon="6.88338">
        <ele>723.4</ele>
        <time>2026-08-20T08:55:04.000Z</time>
      </trkpt>
      <trkpt lat="47.82343" lon="6.88342">
        <ele>722.2</ele>
        <time>2026-08-20T08:55:07.000Z</time>
      </trkpt>
      <trkpt lat="47.82354" lon="6.88344">
        <ele>721.2</ele>
        <time>2026-08-20T08:55:10.000Z</time>
      </trkpt>
      <trkpt lat="47.82357" lon="6.88345">
        <ele>721</ele>
        <time>2026-08-20T08:55:11.000Z</time>
      </trkpt>
      <trkpt lat="47.82369" lon="6.8835">
        <ele>719.8</ele>
        <time>2026-08-20T08:55:15.000Z</time>
      </trkpt>
      <trkpt lat="47.82379" lon="6.88359">
        <ele>718.8</ele>
        <time>2026-08-20T08:55:19.000Z</time>
      </trkpt>
      <trkpt lat="47.82384" lon="6.88365">
        <ele>718</ele>
        <time>2026-08-20T08:55:21.000Z</time>
      </trkpt>
      <trkpt lat="47.82386" lon="6.88367">
        <ele>717.8</ele>
        <time>2026-08-20T08:55:22.000Z</time>
      </trkpt>
      <trkpt lat="47.82389" lon="6.88368">
        <ele>717.6</ele>
        <time>2026-08-20T08:55:23.000Z</time>
      </trkpt>
      <trkpt lat="47.82392" lon="6.88367">
        <ele>717.4</ele>
        <time>2026-08-20T08:55:24.000Z</time>
      </trkpt>
      <trkpt lat="47.82394" lon="6.88365">
        <ele>717.2</ele>
        <time>2026-08-20T08:55:25.000Z</time>
      </trkpt>
      <trkpt lat="47.82395" lon="6.88361">
        <ele>716.8</ele>
        <time>2026-08-20T08:55:26.000Z</time>
      </trkpt>
      <trkpt lat="47.82395" lon="6.88358">
        <ele>716.6</ele>
        <time>2026-08-20T08:55:27.000Z</time>
      </trkpt>
      <trkpt lat="47.82394" lon="6.88356">
        <ele>716.2</ele>
        <time>2026-08-20T08:55:28.000Z</time>
      </trkpt>
      <trkpt lat="47.82392" lon="6.88355">
        <ele>716</ele>
        <time>2026-08-20T08:55:29.000Z</time>
      </trkpt>
      <trkpt lat="47.82387" lon="6.88352">
        <ele>715.6</ele>
        <time>2026-08-20T08:55:32.000Z</time>
      </trkpt>
      <trkpt lat="47.82381" lon="6.88346">
        <ele>714.8</ele>
        <time>2026-08-20T08:55:35.000Z</time>
      </trkpt>
      <trkpt lat="47.82378" lon="6.88343">
        <ele>714.4</ele>
        <time>2026-08-20T08:55:36.000Z</time>
      </trkpt>
      <trkpt lat="47.82371" lon="6.88334">
        <ele>713.2</ele>
        <time>2026-08-20T08:55:39.000Z</time>
      </trkpt>
      <trkpt lat="47.82365" lon="6.88325">
        <ele>712</ele>
        <time>2026-08-20T08:55:42.000Z</time>
      </trkpt>
      <trkpt lat="47.82362" lon="6.88322">
        <ele>711.6</ele>
        <time>2026-08-20T08:55:43.000Z</time>
      </trkpt>
      <trkpt lat="47.82358" lon="6.88316">
        <ele>710.6</ele>
        <time>2026-08-20T08:55:45.000Z</time>
      </trkpt>
      <trkpt lat="47.82355" lon="6.88313">
        <ele>710.2</ele>
        <time>2026-08-20T08:55:46.000Z</time>
      </trkpt>
      <trkpt lat="47.82352" lon="6.88308">
        <ele>709.8</ele>
        <time>2026-08-20T08:55:47.000Z</time>
      </trkpt>
      <trkpt lat="47.82349" lon="6.88303">
        <ele>709.4</ele>
        <time>2026-08-20T08:55:48.000Z</time>
      </trkpt>
      <trkpt lat="47.82341" lon="6.8829">
        <ele>708.4</ele>
        <time>2026-08-20T08:55:51.000Z</time>
      </trkpt>
      <trkpt lat="47.82336" lon="6.88281">
        <ele>707</ele>
        <time>2026-08-20T08:55:53.000Z</time>
      </trkpt>
      <trkpt lat="47.82333" lon="6.88277">
        <ele>706.6</ele>
        <time>2026-08-20T08:55:54.000Z</time>
      </trkpt>
      <trkpt lat="47.82331" lon="6.88269">
        <ele>706</ele>
        <time>2026-08-20T08:55:56.000Z</time>
      </trkpt>
      <trkpt lat="47.8233" lon="6.88253">
        <ele>704.8</ele>
        <time>2026-08-20T08:55:59.000Z</time>
      </trkpt>
      <trkpt lat="47.82333" lon="6.88235">
        <ele>703.8</ele>
        <time>2026-08-20T08:56:03.000Z</time>
      </trkpt>
      <trkpt lat="47.82334" lon="6.8823">
        <ele>703.6</ele>
        <time>2026-08-20T08:56:04.000Z</time>
      </trkpt>
      <trkpt lat="47.82329" lon="6.88215">
        <ele>702.4</ele>
        <time>2026-08-20T08:56:08.000Z</time>
      </trkpt>
      <trkpt lat="47.82327" lon="6.88212">
        <ele>702.2</ele>
        <time>2026-08-20T08:56:09.000Z</time>
      </trkpt>
      <trkpt lat="47.82319" lon="6.88207">
        <ele>701.2</ele>
        <time>2026-08-20T08:56:12.000Z</time>
      </trkpt>
      <trkpt lat="47.82312" lon="6.88203">
        <ele>700.6</ele>
        <time>2026-08-20T08:56:14.000Z</time>
      </trkpt>
      <trkpt lat="47.82306" lon="6.88199">
        <ele>700</ele>
        <time>2026-08-20T08:56:16.000Z</time>
      </trkpt>
      <trkpt lat="47.82298" lon="6.88188">
        <ele>698.8</ele>
        <time>2026-08-20T08:56:19.000Z</time>
      </trkpt>
      <trkpt lat="47.82296" lon="6.88184">
        <ele>698.4</ele>
        <time>2026-08-20T08:56:20.000Z</time>
      </trkpt>
      <trkpt lat="47.82293" lon="6.88175">
        <ele>697.4</ele>
        <time>2026-08-20T08:56:22.000Z</time>
      </trkpt>
      <trkpt lat="47.82286" lon="6.88162">
        <ele>696.4</ele>
        <time>2026-08-20T08:56:25.000Z</time>
      </trkpt>
      <trkpt lat="47.8228" lon="6.88152">
        <ele>695.4</ele>
        <time>2026-08-20T08:56:28.000Z</time>
      </trkpt>
      <trkpt lat="47.82277" lon="6.88149">
        <ele>695.2</ele>
        <time>2026-08-20T08:56:29.000Z</time>
      </trkpt>
      <trkpt lat="47.82271" lon="6.8814">
        <ele>694</ele>
        <time>2026-08-20T08:56:32.000Z</time>
      </trkpt>
      <trkpt lat="47.82263" lon="6.88132">
        <ele>693</ele>
        <time>2026-08-20T08:56:35.000Z</time>
      </trkpt>
      <trkpt lat="47.82259" lon="6.88127">
        <ele>692.2</ele>
        <time>2026-08-20T08:56:37.000Z</time>
      </trkpt>
      <trkpt lat="47.82257" lon="6.88125">
        <ele>691.6</ele>
        <time>2026-08-20T08:56:38.000Z</time>
      </trkpt>
      <trkpt lat="47.82251" lon="6.8812">
        <ele>690.6</ele>
        <time>2026-08-20T08:56:40.000Z</time>
      </trkpt>
      <trkpt lat="47.82244" lon="6.88112">
        <ele>689.2</ele>
        <time>2026-08-20T08:56:43.000Z</time>
      </trkpt>
      <trkpt lat="47.82241" lon="6.8811">
        <ele>688.8</ele>
        <time>2026-08-20T08:56:44.000Z</time>
      </trkpt>
      <trkpt lat="47.82236" lon="6.88105">
        <ele>687.8</ele>
        <time>2026-08-20T08:56:46.000Z</time>
      </trkpt>
      <trkpt lat="47.82228" lon="6.88099">
        <ele>686.2</ele>
        <time>2026-08-20T08:56:49.000Z</time>
      </trkpt>
      <trkpt lat="47.82222" lon="6.88094">
        <ele>685.2</ele>
        <time>2026-08-20T08:56:51.000Z</time>
      </trkpt>
      <trkpt lat="47.82215" lon="6.88091">
        <ele>684.2</ele>
        <time>2026-08-20T08:56:53.000Z</time>
      </trkpt>
      <trkpt lat="47.82207" lon="6.88089">
        <ele>682.6</ele>
        <time>2026-08-20T08:56:56.000Z</time>
      </trkpt>
      <trkpt lat="47.82201" lon="6.88088">
        <ele>681.8</ele>
        <time>2026-08-20T08:56:58.000Z</time>
      </trkpt>
      <trkpt lat="47.82198" lon="6.88086">
        <ele>681.4</ele>
        <time>2026-08-20T08:56:59.000Z</time>
      </trkpt>
      <trkpt lat="47.82191" lon="6.8808">
        <ele>680.2</ele>
        <time>2026-08-20T08:57:02.000Z</time>
      </trkpt>
      <trkpt lat="47.82183" lon="6.88074">
        <ele>678.8</ele>
        <time>2026-08-20T08:57:05.000Z</time>
      </trkpt>
      <trkpt lat="47.82181" lon="6.88072">
        <ele>678.4</ele>
        <time>2026-08-20T08:57:06.000Z</time>
      </trkpt>
      <trkpt lat="47.82176" lon="6.88067">
        <ele>677.4</ele>
        <time>2026-08-20T08:57:08.000Z</time>
      </trkpt>
      <trkpt lat="47.82172" lon="6.88061">
        <ele>676.4</ele>
        <time>2026-08-20T08:57:10.000Z</time>
      </trkpt>
      <trkpt lat="47.82167" lon="6.88057">
        <ele>675.4</ele>
        <time>2026-08-20T08:57:12.000Z</time>
      </trkpt>
      <trkpt lat="47.82163" lon="6.88051">
        <ele>674.4</ele>
        <time>2026-08-20T08:57:14.000Z</time>
      </trkpt>
      <trkpt lat="47.82156" lon="6.88042">
        <ele>672.8</ele>
        <time>2026-08-20T08:57:17.000Z</time>
      </trkpt>
      <trkpt lat="47.82151" lon="6.88036">
        <ele>671.6</ele>
        <time>2026-08-20T08:57:19.000Z</time>
      </trkpt>
      <trkpt lat="47.82146" lon="6.8803">
        <ele>670.6</ele>
        <time>2026-08-20T08:57:21.000Z</time>
      </trkpt>
      <trkpt lat="47.82143" lon="6.88027">
        <ele>670.2</ele>
        <time>2026-08-20T08:57:22.000Z</time>
      </trkpt>
      <trkpt lat="47.82133" lon="6.88019">
        <ele>668.8</ele>
        <time>2026-08-20T08:57:25.000Z</time>
      </trkpt>
      <trkpt lat="47.8213" lon="6.88016">
        <ele>668.4</ele>
        <time>2026-08-20T08:57:26.000Z</time>
      </trkpt>
      <trkpt lat="47.82125" lon="6.8801">
        <ele>667.6</ele>
        <time>2026-08-20T08:57:28.000Z</time>
      </trkpt>
      <trkpt lat="47.82116" lon="6.88">
        <ele>666.2</ele>
        <time>2026-08-20T08:57:31.000Z</time>
      </trkpt>
      <trkpt lat="47.82113" lon="6.87996">
        <ele>665.6</ele>
        <time>2026-08-20T08:57:32.000Z</time>
      </trkpt>
      <trkpt lat="47.8211" lon="6.87993">
        <ele>665</ele>
        <time>2026-08-20T08:57:33.000Z</time>
      </trkpt>
      <trkpt lat="47.82104" lon="6.87985">
        <ele>664</ele>
        <time>2026-08-20T08:57:36.000Z</time>
      </trkpt>
      <trkpt lat="47.82102" lon="6.87982">
        <ele>663.8</ele>
        <time>2026-08-20T08:57:37.000Z</time>
      </trkpt>
      <trkpt lat="47.82097" lon="6.87975">
        <ele>662.8</ele>
        <time>2026-08-20T08:57:39.000Z</time>
      </trkpt>
      <trkpt lat="47.82089" lon="6.87964">
        <ele>661.6</ele>
        <time>2026-08-20T08:57:42.000Z</time>
      </trkpt>
      <trkpt lat="47.82086" lon="6.8796">
        <ele>661.4</ele>
        <time>2026-08-20T08:57:43.000Z</time>
      </trkpt>
      <trkpt lat="47.82079" lon="6.87955">
        <ele>660.6</ele>
        <time>2026-08-20T08:57:45.000Z</time>
      </trkpt>
      <trkpt lat="47.82065" lon="6.87948">
        <ele>659.6</ele>
        <time>2026-08-20T08:57:49.000Z</time>
      </trkpt>
      <trkpt lat="47.82062" lon="6.87947">
        <ele>659.2</ele>
        <time>2026-08-20T08:57:50.000Z</time>
      </trkpt>
      <trkpt lat="47.82053" lon="6.87941">
        <ele>658</ele>
        <time>2026-08-20T08:57:53.000Z</time>
      </trkpt>
      <trkpt lat="47.82044" lon="6.87933">
        <ele>656.8</ele>
        <time>2026-08-20T08:57:56.000Z</time>
      </trkpt>
      <trkpt lat="47.82039" lon="6.87929">
        <ele>655.6</ele>
        <time>2026-08-20T08:57:58.000Z</time>
      </trkpt>
      <trkpt lat="47.82035" lon="6.87924">
        <ele>654.6</ele>
        <time>2026-08-20T08:58:00.000Z</time>
      </trkpt>
      <trkpt lat="47.82031" lon="6.87919">
        <ele>653.4</ele>
        <time>2026-08-20T08:58:02.000Z</time>
      </trkpt>
      <trkpt lat="47.82028" lon="6.87917">
        <ele>652.8</ele>
        <time>2026-08-20T08:58:04.000Z</time>
      </trkpt>
      <trkpt lat="47.82028" lon="6.87916">
        <ele>652.8</ele>
        <time>2026-08-20T08:58:10.000Z</time>
      </trkpt>
      <trkpt lat="47.82028" lon="6.87916">
        <ele>652.6</ele>
        <time>2026-08-20T08:58:19.000Z</time>
      </trkpt>
      <trkpt lat="47.82028" lon="6.87916">
        <ele>652.8</ele>
        <time>2026-08-20T08:58:28.000Z</time>
      </trkpt>
      <trkpt lat="47.82028" lon="6.87916">
        <ele>652.6</ele>
        <time>2026-08-20T08:58:30.000Z</time>
      </trkpt>
      <trkpt lat="47.82028" lon="6.87916">
        <ele>652.6</ele>
        <time>2026-08-20T08:58:37.000Z</time>
      </trkpt>
      <trkpt lat="47.82028" lon="6.87916">
        <ele>652.6</ele>
        <time>2026-08-20T08:58:41.000Z</time>
      </trkpt>
      <trkpt lat="47.82028" lon="6.87916">
        <ele>652.6</ele>
        <time>2026-08-20T08:58:45.000Z</time>
      </trkpt>
      <trkpt lat="47.82028" lon="6.87916">
        <ele>652.4</ele>
        <time>2026-08-20T08:58:51.000Z</time>
      </trkpt>
      <trkpt lat="47.82028" lon="6.87916">
        <ele>652.4</ele>
        <time>2026-08-20T08:58:53.000Z</time>
      </trkpt>
      <trkpt lat="47.82028" lon="6.87916">
        <ele>652.4</ele>
        <time>2026-08-20T08:59:01.000Z</time>
      </trkpt>
      <trkpt lat="47.82028" lon="6.87916">
        <ele>651.8</ele>
        <time>2026-08-20T08:59:26.000Z</time>
      </trkpt>
      <trkpt lat="47.82028" lon="6.87917">
        <ele>651.8</ele>
        <time>2026-08-20T08:59:47.000Z</time>
      </trkpt>
      <trkpt lat="47.82026" lon="6.87915">
        <ele>651.8</ele>
        <time>2026-08-20T08:59:48.000Z</time>
      </trkpt>
      <trkpt lat="47.82022" lon="6.8791">
        <ele>651.2</ele>
        <time>2026-08-20T08:59:51.000Z</time>
      </trkpt>
      <trkpt lat="47.82018" lon="6.87905">
        <ele>650.4</ele>
        <time>2026-08-20T08:59:54.000Z</time>
      </trkpt>
      <trkpt lat="47.82016" lon="6.87904">
        <ele>650.2</ele>
        <time>2026-08-20T08:59:55.000Z</time>
      </trkpt>
      <trkpt lat="47.82008" lon="6.87898">
        <ele>648.8</ele>
        <time>2026-08-20T08:59:59.000Z</time>
      </trkpt>
      <trkpt lat="47.82001" lon="6.87895">
        <ele>647.8</ele>
        <time>2026-08-20T09:00:02.000Z</time>
      </trkpt>
      <trkpt lat="47.81999" lon="6.87894">
        <ele>647.4</ele>
        <time>2026-08-20T09:00:03.000Z</time>
      </trkpt>
      <trkpt lat="47.81994" lon="6.87891">
        <ele>646.6</ele>
        <time>2026-08-20T09:00:05.000Z</time>
      </trkpt>
      <trkpt lat="47.8199" lon="6.87889">
        <ele>646</ele>
        <time>2026-08-20T09:00:07.000Z</time>
      </trkpt>
      <trkpt lat="47.81985" lon="6.87885">
        <ele>645.4</ele>
        <time>2026-08-20T09:00:09.000Z</time>
      </trkpt>
      <trkpt lat="47.81978" lon="6.8788">
        <ele>644.4</ele>
        <time>2026-08-20T09:00:12.000Z</time>
      </trkpt>
      <trkpt lat="47.81976" lon="6.8788">
        <ele>644.2</ele>
        <time>2026-08-20T09:00:13.000Z</time>
      </trkpt>
      <trkpt lat="47.81962" lon="6.87878">
        <ele>643</ele>
        <time>2026-08-20T09:00:18.000Z</time>
      </trkpt>
      <trkpt lat="47.81959" lon="6.87878">
        <ele>642.6</ele>
        <time>2026-08-20T09:00:19.000Z</time>
      </trkpt>
      <trkpt lat="47.81953" lon="6.87879">
        <ele>641.6</ele>
        <time>2026-08-20T09:00:21.000Z</time>
      </trkpt>
      <trkpt lat="47.81944" lon="6.87876">
        <ele>640.6</ele>
        <time>2026-08-20T09:00:24.000Z</time>
      </trkpt>
      <trkpt lat="47.81938" lon="6.87874">
        <ele>640</ele>
        <time>2026-08-20T09:00:26.000Z</time>
      </trkpt>
      <trkpt lat="47.81935" lon="6.87873">
        <ele>639.6</ele>
        <time>2026-08-20T09:00:27.000Z</time>
      </trkpt>
      <trkpt lat="47.81925" lon="6.87871">
        <ele>638.4</ele>
        <time>2026-08-20T09:00:30.000Z</time>
      </trkpt>
      <trkpt lat="47.81918" lon="6.87874">
        <ele>637.2</ele>
        <time>2026-08-20T09:00:33.000Z</time>
      </trkpt>
      <trkpt lat="47.81909" lon="6.87886">
        <ele>636.2</ele>
        <time>2026-08-20T09:00:37.000Z</time>
      </trkpt>
      <trkpt lat="47.81907" lon="6.87891">
        <ele>635.6</ele>
        <time>2026-08-20T09:00:38.000Z</time>
      </trkpt>
      <trkpt lat="47.81903" lon="6.87899">
        <ele>634.8</ele>
        <time>2026-08-20T09:00:40.000Z</time>
      </trkpt>
      <trkpt lat="47.819" lon="6.87915">
        <ele>633.6</ele>
        <time>2026-08-20T09:00:43.000Z</time>
      </trkpt>
      <trkpt lat="47.819" lon="6.87921">
        <ele>633.4</ele>
        <time>2026-08-20T09:00:44.000Z</time>
      </trkpt>
      <trkpt lat="47.8189" lon="6.87947">
        <ele>632.4</ele>
        <time>2026-08-20T09:00:50.000Z</time>
      </trkpt>
      <trkpt lat="47.8188" lon="6.87958">
        <ele>631</ele>
        <time>2026-08-20T09:00:53.000Z</time>
      </trkpt>
      <trkpt lat="47.81871" lon="6.87965">
        <ele>630.4</ele>
        <time>2026-08-20T09:00:55.000Z</time>
      </trkpt>
      <trkpt lat="47.81867" lon="6.87969">
        <ele>630</ele>
        <time>2026-08-20T09:00:56.000Z</time>
      </trkpt>
      <trkpt lat="47.81855" lon="6.87985">
        <ele>629</ele>
        <time>2026-08-20T09:01:00.000Z</time>
      </trkpt>
      <trkpt lat="47.81848" lon="6.87995">
        <ele>628.2</ele>
        <time>2026-08-20T09:01:02.000Z</time>
      </trkpt>
      <trkpt lat="47.81845" lon="6.88001">
        <ele>627.8</ele>
        <time>2026-08-20T09:01:03.000Z</time>
      </trkpt>
      <trkpt lat="47.81834" lon="6.8802">
        <ele>626.6</ele>
        <time>2026-08-20T09:01:07.000Z</time>
      </trkpt>
      <trkpt lat="47.81831" lon="6.88022">
        <ele>626.2</ele>
        <time>2026-08-20T09:01:08.000Z</time>
      </trkpt>
      <trkpt lat="47.81828" lon="6.88025">
        <ele>625.8</ele>
        <time>2026-08-20T09:01:09.000Z</time>
      </trkpt>
      <trkpt lat="47.81825" lon="6.88029">
        <ele>625.4</ele>
        <time>2026-08-20T09:01:10.000Z</time>
      </trkpt>
      <trkpt lat="47.81818" lon="6.88042">
        <ele>624</ele>
        <time>2026-08-20T09:01:13.000Z</time>
      </trkpt>
      <trkpt lat="47.81811" lon="6.88053">
        <ele>622.8</ele>
        <time>2026-08-20T09:01:16.000Z</time>
      </trkpt>
      <trkpt lat="47.81802" lon="6.88061">
        <ele>621.8</ele>
        <time>2026-08-20T09:01:19.000Z</time>
      </trkpt>
      <trkpt lat="47.81795" lon="6.88065">
        <ele>620.8</ele>
        <time>2026-08-20T09:01:21.000Z</time>
      </trkpt>
      <trkpt lat="47.81792" lon="6.88067">
        <ele>620.2</ele>
        <time>2026-08-20T09:01:22.000Z</time>
      </trkpt>
      <trkpt lat="47.81785" lon="6.88071">
        <ele>619.2</ele>
        <time>2026-08-20T09:01:24.000Z</time>
      </trkpt>
      <trkpt lat="47.81776" lon="6.88077">
        <ele>618.2</ele>
        <time>2026-08-20T09:01:27.000Z</time>
      </trkpt>
      <trkpt lat="47.81766" lon="6.88084">
        <ele>617.2</ele>
        <time>2026-08-20T09:01:30.000Z</time>
      </trkpt>
      <trkpt lat="47.81758" lon="6.88082">
        <ele>616.2</ele>
        <time>2026-08-20T09:01:33.000Z</time>
      </trkpt>
      <trkpt lat="47.81756" lon="6.88078">
        <ele>615.8</ele>
        <time>2026-08-20T09:01:34.000Z</time>
      </trkpt>
      <trkpt lat="47.81758" lon="6.88061">
        <ele>614.6</ele>
        <time>2026-08-20T09:01:38.000Z</time>
      </trkpt>
      <trkpt lat="47.8176" lon="6.88053">
        <ele>613.6</ele>
        <time>2026-08-20T09:01:40.000Z</time>
      </trkpt>
      <trkpt lat="47.81763" lon="6.88045">
        <ele>612.4</ele>
        <time>2026-08-20T09:01:42.000Z</time>
      </trkpt>
      <trkpt lat="47.81766" lon="6.8803">
        <ele>611</ele>
        <time>2026-08-20T09:01:45.000Z</time>
      </trkpt>
      <trkpt lat="47.8177" lon="6.88011">
        <ele>609.8</ele>
        <time>2026-08-20T09:01:48.000Z</time>
      </trkpt>
      <trkpt lat="47.81774" lon="6.87992">
        <ele>608.4</ele>
        <time>2026-08-20T09:01:51.000Z</time>
      </trkpt>
      <trkpt lat="47.81781" lon="6.87977">
        <ele>607.2</ele>
        <time>2026-08-20T09:01:54.000Z</time>
      </trkpt>
      <trkpt lat="47.81782" lon="6.87966">
        <ele>606.2</ele>
        <time>2026-08-20T09:01:56.000Z</time>
      </trkpt>
      <trkpt lat="47.8178" lon="6.87949">
        <ele>604.8</ele>
        <time>2026-08-20T09:01:59.000Z</time>
      </trkpt>
      <trkpt lat="47.81777" lon="6.87945">
        <ele>604.4</ele>
        <time>2026-08-20T09:02:00.000Z</time>
      </trkpt>
      <trkpt lat="47.81771" lon="6.87937">
        <ele>603.8</ele>
        <time>2026-08-20T09:02:02.000Z</time>
      </trkpt>
      <trkpt lat="47.81764" lon="6.87929">
        <ele>602.8</ele>
        <time>2026-08-20T09:02:04.000Z</time>
      </trkpt>
      <trkpt lat="47.81761" lon="6.87925">
        <ele>602.6</ele>
        <time>2026-08-20T09:02:05.000Z</time>
      </trkpt>
      <trkpt lat="47.81755" lon="6.8791">
        <ele>601.4</ele>
        <time>2026-08-20T09:02:08.000Z</time>
      </trkpt>
      <trkpt lat="47.8175" lon="6.87892">
        <ele>600.2</ele>
        <time>2026-08-20T09:02:11.000Z</time>
      </trkpt>
      <trkpt lat="47.81748" lon="6.87865">
        <ele>599.4</ele>
        <time>2026-08-20T09:02:16.000Z</time>
      </trkpt>
      <trkpt lat="47.81749" lon="6.8786">
        <ele>599.4</ele>
        <time>2026-08-20T09:02:17.000Z</time>
      </trkpt>
      <trkpt lat="47.81753" lon="6.8785">
        <ele>599</ele>
        <time>2026-08-20T09:02:19.000Z</time>
      </trkpt>
      <trkpt lat="47.81758" lon="6.87835">
        <ele>598.4</ele>
        <time>2026-08-20T09:02:22.000Z</time>
      </trkpt>
      <trkpt lat="47.81759" lon="6.87823">
        <ele>598</ele>
        <time>2026-08-20T09:02:24.000Z</time>
      </trkpt>
      <trkpt lat="47.81758" lon="6.87804">
        <ele>597.2</ele>
        <time>2026-08-20T09:02:27.000Z</time>
      </trkpt>
      <trkpt lat="47.81756" lon="6.87792">
        <ele>596.8</ele>
        <time>2026-08-20T09:02:29.000Z</time>
      </trkpt>
      <trkpt lat="47.81753" lon="6.87775">
        <ele>595.8</ele>
        <time>2026-08-20T09:02:32.000Z</time>
      </trkpt>
      <trkpt lat="47.81752" lon="6.8777">
        <ele>595.4</ele>
        <time>2026-08-20T09:02:33.000Z</time>
      </trkpt>
      <trkpt lat="47.81751" lon="6.87759">
        <ele>594.2</ele>
        <time>2026-08-20T09:02:35.000Z</time>
      </trkpt>
      <trkpt lat="47.81749" lon="6.87742">
        <ele>593.2</ele>
        <time>2026-08-20T09:02:38.000Z</time>
      </trkpt>
      <trkpt lat="47.81745" lon="6.87726">
        <ele>592</ele>
        <time>2026-08-20T09:02:41.000Z</time>
      </trkpt>
      <trkpt lat="47.81734" lon="6.87711">
        <ele>590.8</ele>
        <time>2026-08-20T09:02:45.000Z</time>
      </trkpt>
      <trkpt lat="47.8173" lon="6.87709">
        <ele>590.4</ele>
        <time>2026-08-20T09:02:46.000Z</time>
      </trkpt>
      <trkpt lat="47.81725" lon="6.87704">
        <ele>589.8</ele>
        <time>2026-08-20T09:02:48.000Z</time>
      </trkpt>
      <trkpt lat="47.81716" lon="6.87697">
        <ele>589</ele>
        <time>2026-08-20T09:02:52.000Z</time>
      </trkpt>
      <trkpt lat="47.81714" lon="6.87697">
        <ele>588.8</ele>
        <time>2026-08-20T09:02:53.000Z</time>
      </trkpt>
      <trkpt lat="47.81704" lon="6.877">
        <ele>588.2</ele>
        <time>2026-08-20T09:02:56.000Z</time>
      </trkpt>
      <trkpt lat="47.81699" lon="6.87698">
        <ele>587.8</ele>
        <time>2026-08-20T09:02:58.000Z</time>
      </trkpt>
      <trkpt lat="47.81698" lon="6.87696">
        <ele>587.8</ele>
        <time>2026-08-20T09:02:59.000Z</time>
      </trkpt>
      <trkpt lat="47.81697" lon="6.87693">
        <ele>587.6</ele>
        <time>2026-08-20T09:03:00.000Z</time>
      </trkpt>
      <trkpt lat="47.81692" lon="6.87688">
        <ele>587.2</ele>
        <time>2026-08-20T09:03:06.000Z</time>
      </trkpt>
      <trkpt lat="47.81692" lon="6.87688">
        <ele>586.8</ele>
        <time>2026-08-20T09:03:14.000Z</time>
      </trkpt>
      <trkpt lat="47.81692" lon="6.87688">
        <ele>586.6</ele>
        <time>2026-08-20T09:03:16.000Z</time>
      </trkpt>
      <trkpt lat="47.81688" lon="6.87688">
        <ele>586.2</ele>
        <time>2026-08-20T09:03:21.000Z</time>
      </trkpt>
      <trkpt lat="47.81681" lon="6.87683">
        <ele>585.6</ele>
        <time>2026-08-20T09:03:27.000Z</time>
      </trkpt>
      <trkpt lat="47.81678" lon="6.87681">
        <ele>584.6</ele>
        <time>2026-08-20T09:03:31.000Z</time>
      </trkpt>
      <trkpt lat="47.81676" lon="6.87681">
        <ele>584</ele>
        <time>2026-08-20T09:03:33.000Z</time>
      </trkpt>
      <trkpt lat="47.81664" lon="6.87682">
        <ele>582.6</ele>
        <time>2026-08-20T09:03:38.000Z</time>
      </trkpt>
      <trkpt lat="47.8166" lon="6.87687">
        <ele>581</ele>
        <time>2026-08-20T09:03:40.000Z</time>
      </trkpt>
      <trkpt lat="47.81659" lon="6.8769">
        <ele>580.4</ele>
        <time>2026-08-20T09:03:42.000Z</time>
      </trkpt>
      <trkpt lat="47.81657" lon="6.87694">
        <ele>580</ele>
        <time>2026-08-20T09:03:45.000Z</time>
      </trkpt>
      <trkpt lat="47.81656" lon="6.87696">
        <ele>579.6</ele>
        <time>2026-08-20T09:03:48.000Z</time>
      </trkpt>
      <trkpt lat="47.81655" lon="6.87696">
        <ele>579.4</ele>
        <time>2026-08-20T09:03:49.000Z</time>
      </trkpt>
      <trkpt lat="47.81655" lon="6.87697">
        <ele>579.4</ele>
        <time>2026-08-20T09:03:51.000Z</time>
      </trkpt>
      <trkpt lat="47.81653" lon="6.87701">
        <ele>579</ele>
        <time>2026-08-20T09:03:55.000Z</time>
      </trkpt>
      <trkpt lat="47.81653" lon="6.87707">
        <ele>578.6</ele>
        <time>2026-08-20T09:04:01.000Z</time>
      </trkpt>
      <trkpt lat="47.81653" lon="6.87711">
        <ele>577.8</ele>
        <time>2026-08-20T09:04:05.000Z</time>
      </trkpt>
      <trkpt lat="47.81653" lon="6.87713">
        <ele>577.4</ele>
        <time>2026-08-20T09:04:07.000Z</time>
      </trkpt>
      <trkpt lat="47.81653" lon="6.87714">
        <ele>577.2</ele>
        <time>2026-08-20T09:04:08.000Z</time>
      </trkpt>
      <trkpt lat="47.81653" lon="6.87716">
        <ele>576.6</ele>
        <time>2026-08-20T09:04:11.000Z</time>
      </trkpt>
      <trkpt lat="47.81652" lon="6.87718">
        <ele>575.6</ele>
        <time>2026-08-20T09:04:15.000Z</time>
      </trkpt>
      <trkpt lat="47.81651" lon="6.87719">
        <ele>575.4</ele>
        <time>2026-08-20T09:04:16.000Z</time>
      </trkpt>
      <trkpt lat="47.81647" lon="6.87721">
        <ele>574.6</ele>
        <time>2026-08-20T09:04:20.000Z</time>
      </trkpt>
      <trkpt lat="47.81646" lon="6.87722">
        <ele>574.2</ele>
        <time>2026-08-20T09:04:22.000Z</time>
      </trkpt>
      <trkpt lat="47.81644" lon="6.87725">
        <ele>574.2</ele>
        <time>2026-08-20T09:04:27.000Z</time>
      </trkpt>
      <trkpt lat="47.81636" lon="6.87728">
        <ele>574.2</ele>
        <time>2026-08-20T09:04:33.000Z</time>
      </trkpt>
      <trkpt lat="47.8163" lon="6.87727">
        <ele>573.6</ele>
        <time>2026-08-20T09:04:36.000Z</time>
      </trkpt>
      <trkpt lat="47.81621" lon="6.87725">
        <ele>572.4</ele>
        <time>2026-08-20T09:04:39.000Z</time>
      </trkpt>
      <trkpt lat="47.81615" lon="6.87726">
        <ele>571.2</ele>
        <time>2026-08-20T09:04:41.000Z</time>
      </trkpt>
      <trkpt lat="47.81608" lon="6.87728">
        <ele>570.2</ele>
        <time>2026-08-20T09:04:43.000Z</time>
      </trkpt>
      <trkpt lat="47.81603" lon="6.8773">
        <ele>569.6</ele>
        <time>2026-08-20T09:04:45.000Z</time>
      </trkpt>
      <trkpt lat="47.816" lon="6.87734">
        <ele>569.2</ele>
        <time>2026-08-20T09:04:47.000Z</time>
      </trkpt>
      <trkpt lat="47.81599" lon="6.87736">
        <ele>569.2</ele>
        <time>2026-08-20T09:04:48.000Z</time>
      </trkpt>
      <trkpt lat="47.81598" lon="6.87738">
        <ele>569.2</ele>
        <time>2026-08-20T09:04:49.000Z</time>
      </trkpt>
      <trkpt lat="47.81594" lon="6.87748">
        <ele>568.6</ele>
        <time>2026-08-20T09:04:55.000Z</time>
      </trkpt>
      <trkpt lat="47.81593" lon="6.87753">
        <ele>567.8</ele>
        <time>2026-08-20T09:04:57.000Z</time>
      </trkpt>
      <trkpt lat="47.8159" lon="6.87761">
        <ele>566.6</ele>
        <time>2026-08-20T09:04:59.000Z</time>
      </trkpt>
      <trkpt lat="47.81589" lon="6.87767">
        <ele>565.2</ele>
        <time>2026-08-20T09:05:01.000Z</time>
      </trkpt>
      <trkpt lat="47.81586" lon="6.87775">
        <ele>564</ele>
        <time>2026-08-20T09:05:03.000Z</time>
      </trkpt>
      <trkpt lat="47.81584" lon="6.87782">
        <ele>562.8</ele>
        <time>2026-08-20T09:05:05.000Z</time>
      </trkpt>
      <trkpt lat="47.81583" lon="6.87787">
        <ele>562.4</ele>
        <time>2026-08-20T09:05:06.000Z</time>
      </trkpt>
      <trkpt lat="47.8158" lon="6.87792">
        <ele>561.6</ele>
        <time>2026-08-20T09:05:08.000Z</time>
      </trkpt>
      <trkpt lat="47.81579" lon="6.87797">
        <ele>561.2</ele>
        <time>2026-08-20T09:05:10.000Z</time>
      </trkpt>
      <trkpt lat="47.81578" lon="6.87802">
        <ele>560.4</ele>
        <time>2026-08-20T09:05:12.000Z</time>
      </trkpt>
      <trkpt lat="47.81577" lon="6.87808">
        <ele>559.6</ele>
        <time>2026-08-20T09:05:14.000Z</time>
      </trkpt>
      <trkpt lat="47.81575" lon="6.87812">
        <ele>559.2</ele>
        <time>2026-08-20T09:05:16.000Z</time>
      </trkpt>
      <trkpt lat="47.81574" lon="6.87809">
        <ele>558.6</ele>
        <time>2026-08-20T09:05:18.000Z</time>
      </trkpt>
      <trkpt lat="47.81574" lon="6.8781">
        <ele>558.4</ele>
        <time>2026-08-20T09:05:19.000Z</time>
      </trkpt>
      <trkpt lat="47.81572" lon="6.87811">
        <ele>558</ele>
        <time>2026-08-20T09:05:25.000Z</time>
      </trkpt>
      <trkpt lat="47.81572" lon="6.87811">
        <ele>557.8</ele>
        <time>2026-08-20T09:05:26.000Z</time>
      </trkpt>
      <trkpt lat="47.81569" lon="6.87813">
        <ele>557</ele>
        <time>2026-08-20T09:05:29.000Z</time>
      </trkpt>
      <trkpt lat="47.81567" lon="6.87817">
        <ele>555.8</ele>
        <time>2026-08-20T09:05:33.000Z</time>
      </trkpt>
      <trkpt lat="47.81563" lon="6.8782">
        <ele>554.8</ele>
        <time>2026-08-20T09:05:38.000Z</time>
      </trkpt>
      <trkpt lat="47.8156" lon="6.87823">
        <ele>554</ele>
        <time>2026-08-20T09:05:42.000Z</time>
      </trkpt>
      <trkpt lat="47.8156" lon="6.87824">
        <ele>553.6</ele>
        <time>2026-08-20T09:05:44.000Z</time>
      </trkpt>
      <trkpt lat="47.8156" lon="6.87824">
        <ele>553.4</ele>
        <time>2026-08-20T09:05:46.000Z</time>
      </trkpt>
      <trkpt lat="47.8156" lon="6.87824">
        <ele>553</ele>
        <time>2026-08-20T09:05:49.000Z</time>
      </trkpt>
      <trkpt lat="47.81557" lon="6.87824">
        <ele>552.8</ele>
        <time>2026-08-20T09:05:54.000Z</time>
      </trkpt>
      <trkpt lat="47.81556" lon="6.87824">
        <ele>552.6</ele>
        <time>2026-08-20T09:05:55.000Z</time>
      </trkpt>
      <trkpt lat="47.81554" lon="6.87826">
        <ele>552.2</ele>
        <time>2026-08-20T09:05:58.000Z</time>
      </trkpt>
      <trkpt lat="47.81552" lon="6.87828">
        <ele>551.4</ele>
        <time>2026-08-20T09:06:01.000Z</time>
      </trkpt>
      <trkpt lat="47.81545" lon="6.87831">
        <ele>550.6</ele>
        <time>2026-08-20T09:06:06.000Z</time>
      </trkpt>
      <trkpt lat="47.81543" lon="6.87829">
        <ele>550.4</ele>
        <time>2026-08-20T09:06:08.000Z</time>
      </trkpt>
      <trkpt lat="47.8154" lon="6.87829">
        <ele>549.8</ele>
        <time>2026-08-20T09:06:12.000Z</time>
      </trkpt>
      <trkpt lat="47.81537" lon="6.87829">
        <ele>549.2</ele>
        <time>2026-08-20T09:06:16.000Z</time>
      </trkpt>
      <trkpt lat="47.81537" lon="6.87829">
        <ele>548.6</ele>
        <time>2026-08-20T09:06:19.000Z</time>
      </trkpt>
      <trkpt lat="47.81535" lon="6.87828">
        <ele>548.2</ele>
        <time>2026-08-20T09:06:22.000Z</time>
      </trkpt>
      <trkpt lat="47.81534" lon="6.87831">
        <ele>547.2</ele>
        <time>2026-08-20T09:06:26.000Z</time>
      </trkpt>
      <trkpt lat="47.81533" lon="6.87835">
        <ele>546</ele>
        <time>2026-08-20T09:06:30.000Z</time>
      </trkpt>
      <trkpt lat="47.81532" lon="6.87839">
        <ele>545</ele>
        <time>2026-08-20T09:06:33.000Z</time>
      </trkpt>
      <trkpt lat="47.81531" lon="6.87841">
        <ele>544.4</ele>
        <time>2026-08-20T09:06:35.000Z</time>
      </trkpt>
      <trkpt lat="47.8153" lon="6.87842">
        <ele>544.2</ele>
        <time>2026-08-20T09:06:36.000Z</time>
      </trkpt>
      <trkpt lat="47.81529" lon="6.87842">
        <ele>544</ele>
        <time>2026-08-20T09:06:37.000Z</time>
      </trkpt>
      <trkpt lat="47.81528" lon="6.87847">
        <ele>543</ele>
        <time>2026-08-20T09:06:41.000Z</time>
      </trkpt>
      <trkpt lat="47.81528" lon="6.8785">
        <ele>542.4</ele>
        <time>2026-08-20T09:06:43.000Z</time>
      </trkpt>
      <trkpt lat="47.81528" lon="6.8785">
        <ele>542</ele>
        <time>2026-08-20T09:06:50.000Z</time>
      </trkpt>
      <trkpt lat="47.81529" lon="6.87854">
        <ele>541.8</ele>
        <time>2026-08-20T09:06:52.000Z</time>
      </trkpt>
      <trkpt lat="47.81529" lon="6.87854">
        <ele>541.2</ele>
        <time>2026-08-20T09:06:56.000Z</time>
      </trkpt>
      <trkpt lat="47.81528" lon="6.87851">
        <ele>541.2</ele>
        <time>2026-08-20T09:07:03.000Z</time>
      </trkpt>
      <trkpt lat="47.81528" lon="6.87851">
        <ele>541.2</ele>
        <time>2026-08-20T09:07:04.000Z</time>
      </trkpt>
      <trkpt lat="47.81528" lon="6.87851">
        <ele>541.2</ele>
        <time>2026-08-20T09:07:06.000Z</time>
      </trkpt>
      <trkpt lat="47.8153" lon="6.87854">
        <ele>541.2</ele>
        <time>2026-08-20T09:07:11.000Z</time>
      </trkpt>
      <trkpt lat="47.81539" lon="6.8786">
        <ele>542.6</ele>
        <time>2026-08-20T09:07:19.000Z</time>
      </trkpt>
      <trkpt lat="47.81546" lon="6.87863">
        <ele>542.2</ele>
        <time>2026-08-20T09:07:24.000Z</time>
      </trkpt>
      <trkpt lat="47.81549" lon="6.87863">
        <ele>542</ele>
        <time>2026-08-20T09:07:26.000Z</time>
      </trkpt>
      <trkpt lat="47.8155" lon="6.87863">
        <ele>542</ele>
        <time>2026-08-20T09:07:28.000Z</time>
      </trkpt>
      <trkpt lat="47.81548" lon="6.87862">
        <ele>542.2</ele>
        <time>2026-08-20T09:07:33.000Z</time>
      </trkpt>
      <trkpt lat="47.81552" lon="6.87861">
        <ele>542.2</ele>
        <time>2026-08-20T09:07:45.000Z</time>
      </trkpt>
      <trkpt lat="47.8155" lon="6.87862">
        <ele>541.8</ele>
        <time>2026-08-20T09:07:55.000Z</time>
      </trkpt>
      <trkpt lat="47.81555" lon="6.87861">
        <ele>542</ele>
        <time>2026-08-20T09:08:00.000Z</time>
      </trkpt>
      <trkpt lat="47.81567" lon="6.87868">
        <ele>540.8</ele>
        <time>2026-08-20T09:08:06.000Z</time>
      </trkpt>
      <trkpt lat="47.81573" lon="6.8787">
        <ele>540.6</ele>
        <time>2026-08-20T09:08:12.000Z</time>
      </trkpt>
      <trkpt lat="47.81574" lon="6.87877">
        <ele>541.6</ele>
        <time>2026-08-20T09:08:20.000Z</time>
      </trkpt>
      <trkpt lat="47.81577" lon="6.87879">
        <ele>541</ele>
        <time>2026-08-20T09:08:26.000Z</time>
      </trkpt>
      <trkpt lat="47.81582" lon="6.87884">
        <ele>541.4</ele>
        <time>2026-08-20T09:08:34.000Z</time>
      </trkpt>
      <trkpt lat="47.81585" lon="6.87889">
        <ele>541.8</ele>
        <time>2026-08-20T09:08:37.000Z</time>
      </trkpt>
      <trkpt lat="47.81586" lon="6.87897">
        <ele>542.2</ele>
        <time>2026-08-20T09:08:41.000Z</time>
      </trkpt>
      <trkpt lat="47.81586" lon="6.87899">
        <ele>542</ele>
        <time>2026-08-20T09:08:43.000Z</time>
      </trkpt>
      <trkpt lat="47.81585" lon="6.87909">
        <ele>541.6</ele>
        <time>2026-08-20T09:08:47.000Z</time>
      </trkpt>
      <trkpt lat="47.81584" lon="6.8792">
        <ele>540.6</ele>
        <time>2026-08-20T09:08:50.000Z</time>
      </trkpt>
      <trkpt lat="47.81584" lon="6.87924">
        <ele>540.2</ele>
        <time>2026-08-20T09:08:51.000Z</time>
      </trkpt>
      <trkpt lat="47.81584" lon="6.87929">
        <ele>540</ele>
        <time>2026-08-20T09:08:52.000Z</time>
      </trkpt>
      <trkpt lat="47.81584" lon="6.87933">
        <ele>539.6</ele>
        <time>2026-08-20T09:08:53.000Z</time>
      </trkpt>
      <trkpt lat="47.81584" lon="6.87946">
        <ele>540</ele>
        <time>2026-08-20T09:08:57.000Z</time>
      </trkpt>
      <trkpt lat="47.81584" lon="6.87948">
        <ele>540</ele>
        <time>2026-08-20T09:08:59.000Z</time>
      </trkpt>
      <trkpt lat="47.81586" lon="6.87951">
        <ele>540.2</ele>
        <time>2026-08-20T09:09:01.000Z</time>
      </trkpt>
      <trkpt lat="47.81586" lon="6.87961">
        <ele>540.8</ele>
        <time>2026-08-20T09:09:06.000Z</time>
      </trkpt>
      <trkpt lat="47.81586" lon="6.87963">
        <ele>540.8</ele>
        <time>2026-08-20T09:09:12.000Z</time>
      </trkpt>
      <trkpt lat="47.81585" lon="6.8796">
        <ele>540.6</ele>
        <time>2026-08-20T09:09:15.000Z</time>
      </trkpt>
      <trkpt lat="47.81584" lon="6.8796">
        <ele>540.6</ele>
        <time>2026-08-20T09:09:20.000Z</time>
      </trkpt>
      <trkpt lat="47.81584" lon="6.87964">
        <ele>540.6</ele>
        <time>2026-08-20T09:09:24.000Z</time>
      </trkpt>
      <trkpt lat="47.81585" lon="6.87967">
        <ele>540.8</ele>
        <time>2026-08-20T09:09:26.000Z</time>
      </trkpt>
      <trkpt lat="47.81591" lon="6.87975">
        <ele>541</ele>
        <time>2026-08-20T09:09:33.000Z</time>
      </trkpt>
      <trkpt lat="47.81594" lon="6.87983">
        <ele>541.2</ele>
        <time>2026-08-20T09:09:40.000Z</time>
      </trkpt>
      <trkpt lat="47.81594" lon="6.87986">
        <ele>541.4</ele>
        <time>2026-08-20T09:09:42.000Z</time>
      </trkpt>
      <trkpt lat="47.81594" lon="6.87988">
        <ele>541.6</ele>
        <time>2026-08-20T09:09:44.000Z</time>
      </trkpt>
      <trkpt lat="47.81592" lon="6.87997">
        <ele>541.6</ele>
        <time>2026-08-20T09:09:50.000Z</time>
      </trkpt>
      <trkpt lat="47.81591" lon="6.88013">
        <ele>540.6</ele>
        <time>2026-08-20T09:09:55.000Z</time>
      </trkpt>
      <trkpt lat="47.8159" lon="6.88022">
        <ele>540</ele>
        <time>2026-08-20T09:09:57.000Z</time>
      </trkpt>
      <trkpt lat="47.81588" lon="6.88029">
        <ele>539.4</ele>
        <time>2026-08-20T09:09:59.000Z</time>
      </trkpt>
      <trkpt lat="47.81583" lon="6.88048">
        <ele>538.2</ele>
        <time>2026-08-20T09:10:04.000Z</time>
      </trkpt>
      <trkpt lat="47.81582" lon="6.88052">
        <ele>538.2</ele>
        <time>2026-08-20T09:10:05.000Z</time>
      </trkpt>
      <trkpt lat="47.81576" lon="6.88076">
        <ele>537.2</ele>
        <time>2026-08-20T09:10:12.000Z</time>
      </trkpt>
      <trkpt lat="47.81574" lon="6.8808">
        <ele>536.8</ele>
        <time>2026-08-20T09:10:13.000Z</time>
      </trkpt>
      <trkpt lat="47.81571" lon="6.88087">
        <ele>536</ele>
        <time>2026-08-20T09:10:15.000Z</time>
      </trkpt>
      <trkpt lat="47.81565" lon="6.88097">
        <ele>535.4</ele>
        <time>2026-08-20T09:10:19.000Z</time>
      </trkpt>
      <trkpt lat="47.81558" lon="6.88102">
        <ele>534.6</ele>
        <time>2026-08-20T09:10:22.000Z</time>
      </trkpt>
      <trkpt lat="47.81552" lon="6.88108">
        <ele>533.4</ele>
        <time>2026-08-20T09:10:24.000Z</time>
      </trkpt>
      <trkpt lat="47.81549" lon="6.88112">
        <ele>533</ele>
        <time>2026-08-20T09:10:25.000Z</time>
      </trkpt>
      <trkpt lat="47.81541" lon="6.88121">
        <ele>532.2</ele>
        <time>2026-08-20T09:10:28.000Z</time>
      </trkpt>
      <trkpt lat="47.81539" lon="6.88124">
        <ele>532</ele>
        <time>2026-08-20T09:10:30.000Z</time>
      </trkpt>
      <trkpt lat="47.81537" lon="6.8813">
        <ele>531.6</ele>
        <time>2026-08-20T09:10:35.000Z</time>
      </trkpt>
      <trkpt lat="47.81534" lon="6.88133">
        <ele>531.6</ele>
        <time>2026-08-20T09:10:38.000Z</time>
      </trkpt>
      <trkpt lat="47.81529" lon="6.88148">
        <ele>532.2</ele>
        <time>2026-08-20T09:10:45.000Z</time>
      </trkpt>
      <trkpt lat="47.81525" lon="6.88162">
        <ele>533</ele>
        <time>2026-08-20T09:10:52.000Z</time>
      </trkpt>
      <trkpt lat="47.81518" lon="6.88186">
        <ele>533</ele>
        <time>2026-08-20T09:11:00.000Z</time>
      </trkpt>
      <trkpt lat="47.8151" lon="6.88203">
        <ele>532</ele>
        <time>2026-08-20T09:11:06.000Z</time>
      </trkpt>
      <trkpt lat="47.8151" lon="6.88224">
        <ele>531.2</ele>
        <time>2026-08-20T09:11:11.000Z</time>
      </trkpt>
      <trkpt lat="47.81512" lon="6.88229">
        <ele>531</ele>
        <time>2026-08-20T09:11:12.000Z</time>
      </trkpt>
      <trkpt lat="47.81519" lon="6.88254">
        <ele>530.4</ele>
        <time>2026-08-20T09:11:17.000Z</time>
      </trkpt>
      <trkpt lat="47.8152" lon="6.88264">
        <ele>530.2</ele>
        <time>2026-08-20T09:11:19.000Z</time>
      </trkpt>
      <trkpt lat="47.81522" lon="6.88281">
        <ele>530.2</ele>
        <time>2026-08-20T09:11:24.000Z</time>
      </trkpt>
      <trkpt lat="47.81525" lon="6.88289">
        <ele>530</ele>
        <time>2026-08-20T09:11:27.000Z</time>
      </trkpt>
      <trkpt lat="47.8153" lon="6.88296">
        <ele>529.4</ele>
        <time>2026-08-20T09:11:30.000Z</time>
      </trkpt>
      <trkpt lat="47.81532" lon="6.88299">
        <ele>529</ele>
        <time>2026-08-20T09:11:31.000Z</time>
      </trkpt>
      <trkpt lat="47.8154" lon="6.88311">
        <ele>527.6</ele>
        <time>2026-08-20T09:11:36.000Z</time>
      </trkpt>
      <trkpt lat="47.81546" lon="6.88317">
        <ele>526.4</ele>
        <time>2026-08-20T09:11:39.000Z</time>
      </trkpt>
      <trkpt lat="47.81551" lon="6.88324">
        <ele>525</ele>
        <time>2026-08-20T09:11:42.000Z</time>
      </trkpt>
      <trkpt lat="47.81553" lon="6.88327">
        <ele>524.6</ele>
        <time>2026-08-20T09:11:43.000Z</time>
      </trkpt>
      <trkpt lat="47.81554" lon="6.88331">
        <ele>524</ele>
        <time>2026-08-20T09:11:45.000Z</time>
      </trkpt>
      <trkpt lat="47.81553" lon="6.88339">
        <ele>522.8</ele>
        <time>2026-08-20T09:11:48.000Z</time>
      </trkpt>
      <trkpt lat="47.81552" lon="6.88348">
        <ele>521.8</ele>
        <time>2026-08-20T09:11:50.000Z</time>
      </trkpt>
      <trkpt lat="47.8155" lon="6.88358">
        <ele>521</ele>
        <time>2026-08-20T09:11:52.000Z</time>
      </trkpt>
      <trkpt lat="47.81548" lon="6.88362">
        <ele>520.6</ele>
        <time>2026-08-20T09:11:53.000Z</time>
      </trkpt>
      <trkpt lat="47.81539" lon="6.88377">
        <ele>519.8</ele>
        <time>2026-08-20T09:11:57.000Z</time>
      </trkpt>
      <trkpt lat="47.81536" lon="6.8838">
        <ele>519.4</ele>
        <time>2026-08-20T09:11:58.000Z</time>
      </trkpt>
      <trkpt lat="47.81522" lon="6.88395">
        <ele>518.4</ele>
        <time>2026-08-20T09:12:02.000Z</time>
      </trkpt>
      <trkpt lat="47.81517" lon="6.88403">
        <ele>518.2</ele>
        <time>2026-08-20T09:12:06.000Z</time>
      </trkpt>
      <trkpt lat="47.81512" lon="6.88417">
        <ele>518.2</ele>
        <time>2026-08-20T09:12:14.000Z</time>
      </trkpt>
      <trkpt lat="47.81504" lon="6.88432">
        <ele>517.6</ele>
        <time>2026-08-20T09:12:21.000Z</time>
      </trkpt>
      <trkpt lat="47.81502" lon="6.88438">
        <ele>517.4</ele>
        <time>2026-08-20T09:12:23.000Z</time>
      </trkpt>
      <trkpt lat="47.815" lon="6.88445">
        <ele>517.2</ele>
        <time>2026-08-20T09:12:25.000Z</time>
      </trkpt>
      <trkpt lat="47.8149" lon="6.88467">
        <ele>517</ele>
        <time>2026-08-20T09:12:30.000Z</time>
      </trkpt>
      <trkpt lat="47.81473" lon="6.88485">
        <ele>516.4</ele>
        <time>2026-08-20T09:12:35.000Z</time>
      </trkpt>
      <trkpt lat="47.81469" lon="6.88487">
        <ele>516.2</ele>
        <time>2026-08-20T09:12:36.000Z</time>
      </trkpt>
      <trkpt lat="47.81461" lon="6.88488">
        <ele>516</ele>
        <time>2026-08-20T09:12:38.000Z</time>
      </trkpt>
      <trkpt lat="47.81457" lon="6.88487">
        <ele>515.8</ele>
        <time>2026-08-20T09:12:39.000Z</time>
      </trkpt>
      <trkpt lat="47.81452" lon="6.88484">
        <ele>515.6</ele>
        <time>2026-08-20T09:12:40.000Z</time>
      </trkpt>
      <trkpt lat="47.81448" lon="6.88482">
        <ele>515.6</ele>
        <time>2026-08-20T09:12:41.000Z</time>
      </trkpt>
      <trkpt lat="47.81444" lon="6.88478">
        <ele>515.4</ele>
        <time>2026-08-20T09:12:42.000Z</time>
      </trkpt>
      <trkpt lat="47.81432" lon="6.88468">
        <ele>515</ele>
        <time>2026-08-20T09:12:45.000Z</time>
      </trkpt>
      <trkpt lat="47.81429" lon="6.88466">
        <ele>515</ele>
        <time>2026-08-20T09:12:46.000Z</time>
      </trkpt>
      <trkpt lat="47.81423" lon="6.88464">
        <ele>515.2</ele>
        <time>2026-08-20T09:12:49.000Z</time>
      </trkpt>
      <trkpt lat="47.81422" lon="6.88463">
        <ele>515</ele>
        <time>2026-08-20T09:12:53.000Z</time>
      </trkpt>
      <trkpt lat="47.81425" lon="6.88463">
        <ele>515</ele>
        <time>2026-08-20T09:13:00.000Z</time>
      </trkpt>
      <trkpt lat="47.81426" lon="6.88463">
        <ele>515</ele>
        <time>2026-08-20T09:13:01.000Z</time>
      </trkpt>
      <trkpt lat="47.8143" lon="6.88464">
        <ele>514.8</ele>
        <time>2026-08-20T09:13:04.000Z</time>
      </trkpt>
      <trkpt lat="47.81442" lon="6.88474">
        <ele>514.6</ele>
        <time>2026-08-20T09:13:08.000Z</time>
      </trkpt>
      <trkpt lat="47.81456" lon="6.88483">
        <ele>514.8</ele>
        <time>2026-08-20T09:13:12.000Z</time>
      </trkpt>
      <trkpt lat="47.81463" lon="6.88485">
        <ele>515</ele>
        <time>2026-08-20T09:13:14.000Z</time>
      </trkpt>
      <trkpt lat="47.81479" lon="6.88492">
        <ele>515.6</ele>
        <time>2026-08-20T09:13:19.000Z</time>
      </trkpt>
      <trkpt lat="47.81489" lon="6.88511">
        <ele>516</ele>
        <time>2026-08-20T09:13:23.000Z</time>
      </trkpt>
      <trkpt lat="47.81489" lon="6.8852">
        <ele>516.8</ele>
        <time>2026-08-20T09:13:25.000Z</time>
      </trkpt>
      <trkpt lat="47.81485" lon="6.8853">
        <ele>518</ele>
        <time>2026-08-20T09:13:27.000Z</time>
      </trkpt>
      <trkpt lat="47.8148" lon="6.88545">
        <ele>519</ele>
        <time>2026-08-20T09:13:31.000Z</time>
      </trkpt>
      <trkpt lat="47.81482" lon="6.88564">
        <ele>519</ele>
        <time>2026-08-20T09:13:35.000Z</time>
      </trkpt>
      <trkpt lat="47.81482" lon="6.88569">
        <ele>519</ele>
        <time>2026-08-20T09:13:36.000Z</time>
      </trkpt>
      <trkpt lat="47.81482" lon="6.88581">
        <ele>519.2</ele>
        <time>2026-08-20T09:13:38.000Z</time>
      </trkpt>
      <trkpt lat="47.81482" lon="6.88604">
        <ele>519.2</ele>
        <time>2026-08-20T09:13:42.000Z</time>
      </trkpt>
      <trkpt lat="47.81485" lon="6.88631">
        <ele>517.8</ele>
        <time>2026-08-20T09:13:48.000Z</time>
      </trkpt>
      <trkpt lat="47.81486" lon="6.88638">
        <ele>517.2</ele>
        <time>2026-08-20T09:13:52.000Z</time>
      </trkpt>
      <trkpt lat="47.81486" lon="6.88643">
        <ele>516.8</ele>
        <time>2026-08-20T09:13:56.000Z</time>
      </trkpt>
      <trkpt lat="47.81486" lon="6.88646">
        <ele>516.6</ele>
        <time>2026-08-20T09:13:57.000Z</time>
      </trkpt>
      <trkpt lat="47.81485" lon="6.88662">
        <ele>516.2</ele>
        <time>2026-08-20T09:14:02.000Z</time>
      </trkpt>
      <trkpt lat="47.81485" lon="6.88664">
        <ele>516.2</ele>
        <time>2026-08-20T09:14:03.000Z</time>
      </trkpt>
      <trkpt lat="47.81485" lon="6.8868">
        <ele>516</ele>
        <time>2026-08-20T09:14:09.000Z</time>
      </trkpt>
      <trkpt lat="47.81485" lon="6.88687">
        <ele>515.8</ele>
        <time>2026-08-20T09:14:11.000Z</time>
      </trkpt>
      <trkpt lat="47.81485" lon="6.88702">
        <ele>515</ele>
        <time>2026-08-20T09:14:14.000Z</time>
      </trkpt>
      <trkpt lat="47.81486" lon="6.88713">
        <ele>514.6</ele>
        <time>2026-08-20T09:14:17.000Z</time>
      </trkpt>
      <trkpt lat="47.81488" lon="6.88727">
        <ele>513.6</ele>
        <time>2026-08-20T09:14:20.000Z</time>
      </trkpt>
      <trkpt lat="47.8149" lon="6.88737">
        <ele>513</ele>
        <time>2026-08-20T09:14:22.000Z</time>
      </trkpt>
      <trkpt lat="47.81492" lon="6.88745">
        <ele>512.6</ele>
        <time>2026-08-20T09:14:24.000Z</time>
      </trkpt>
      <trkpt lat="47.81494" lon="6.88754">
        <ele>512.4</ele>
        <time>2026-08-20T09:14:27.000Z</time>
      </trkpt>
      <trkpt lat="47.81498" lon="6.88773">
        <ele>512.2</ele>
        <time>2026-08-20T09:14:33.000Z</time>
      </trkpt>
      <trkpt lat="47.81505" lon="6.88794">
        <ele>512</ele>
        <time>2026-08-20T09:14:39.000Z</time>
      </trkpt>
      <trkpt lat="47.81508" lon="6.8881">
        <ele>512.6</ele>
        <time>2026-08-20T09:14:45.000Z</time>
      </trkpt>
      <trkpt lat="47.81507" lon="6.8883">
        <ele>512</ele>
        <time>2026-08-20T09:14:51.000Z</time>
      </trkpt>
      <trkpt lat="47.81501" lon="6.88854">
        <ele>512.4</ele>
        <time>2026-08-20T09:14:58.000Z</time>
      </trkpt>
      <trkpt lat="47.8149" lon="6.88872">
        <ele>511.6</ele>
        <time>2026-08-20T09:15:02.000Z</time>
      </trkpt>
      <trkpt lat="47.81482" lon="6.88884">
        <ele>511.6</ele>
        <time>2026-08-20T09:15:07.000Z</time>
      </trkpt>
      <trkpt lat="47.81474" lon="6.88906">
        <ele>512</ele>
        <time>2026-08-20T09:15:14.000Z</time>
      </trkpt>
      <trkpt lat="47.81465" lon="6.88934">
        <ele>511.8</ele>
        <time>2026-08-20T09:15:20.000Z</time>
      </trkpt>
      <trkpt lat="47.81464" lon="6.8894">
        <ele>511.8</ele>
        <time>2026-08-20T09:15:21.000Z</time>
      </trkpt>
      <trkpt lat="47.81456" lon="6.88972">
        <ele>511.4</ele>
        <time>2026-08-20T09:15:27.000Z</time>
      </trkpt>
      <trkpt lat="47.81452" lon="6.88989">
        <ele>510.4</ele>
        <time>2026-08-20T09:15:30.000Z</time>
      </trkpt>
      <trkpt lat="47.81451" lon="6.88999">
        <ele>509.6</ele>
        <time>2026-08-20T09:15:32.000Z</time>
      </trkpt>
      <trkpt lat="47.81442" lon="6.89022">
        <ele>509.6</ele>
        <time>2026-08-20T09:15:36.000Z</time>
      </trkpt>
      <trkpt lat="47.81439" lon="6.89028">
        <ele>509.8</ele>
        <time>2026-08-20T09:15:37.000Z</time>
      </trkpt>
      <trkpt lat="47.81427" lon="6.89046">
        <ele>510.2</ele>
        <time>2026-08-20T09:15:41.000Z</time>
      </trkpt>
      <trkpt lat="47.8142" lon="6.89058">
        <ele>510.2</ele>
        <time>2026-08-20T09:15:44.000Z</time>
      </trkpt>
      <trkpt lat="47.81409" lon="6.89079">
        <ele>509.8</ele>
        <time>2026-08-20T09:15:48.000Z</time>
      </trkpt>
      <trkpt lat="47.81403" lon="6.89091">
        <ele>509.6</ele>
        <time>2026-08-20T09:15:50.000Z</time>
      </trkpt>
      <trkpt lat="47.814" lon="6.89097">
        <ele>509.4</ele>
        <time>2026-08-20T09:15:51.000Z</time>
      </trkpt>
      <trkpt lat="47.81393" lon="6.89121">
        <ele>509.4</ele>
        <time>2026-08-20T09:15:55.000Z</time>
      </trkpt>
      <trkpt lat="47.81391" lon="6.89127">
        <ele>509.4</ele>
        <time>2026-08-20T09:15:56.000Z</time>
      </trkpt>
      <trkpt lat="47.81384" lon="6.89159">
        <ele>509.4</ele>
        <time>2026-08-20T09:16:01.000Z</time>
      </trkpt>
      <trkpt lat="47.81383" lon="6.89173">
        <ele>509.4</ele>
        <time>2026-08-20T09:16:03.000Z</time>
      </trkpt>
      <trkpt lat="47.81379" lon="6.89195">
        <ele>509.4</ele>
        <time>2026-08-20T09:16:06.000Z</time>
      </trkpt>
      <trkpt lat="47.81379" lon="6.89205">
        <ele>509.2</ele>
        <time>2026-08-20T09:16:08.000Z</time>
      </trkpt>
      <trkpt lat="47.81379" lon="6.89212">
        <ele>509.2</ele>
        <time>2026-08-20T09:16:10.000Z</time>
      </trkpt>
      <trkpt lat="47.81378" lon="6.89218">
        <ele>509.4</ele>
        <time>2026-08-20T09:16:12.000Z</time>
      </trkpt>
      <trkpt lat="47.81378" lon="6.8922">
        <ele>509.6</ele>
        <time>2026-08-20T09:16:13.000Z</time>
      </trkpt>
      <trkpt lat="47.81376" lon="6.89244">
        <ele>509.8</ele>
        <time>2026-08-20T09:16:20.000Z</time>
      </trkpt>
      <trkpt lat="47.81371" lon="6.89271">
        <ele>509.6</ele>
        <time>2026-08-20T09:16:26.000Z</time>
      </trkpt>
      <trkpt lat="47.8137" lon="6.89276">
        <ele>509.6</ele>
        <time>2026-08-20T09:16:27.000Z</time>
      </trkpt>
      <trkpt lat="47.81365" lon="6.89292">
        <ele>508.8</ele>
        <time>2026-08-20T09:16:30.000Z</time>
      </trkpt>
      <trkpt lat="47.81361" lon="6.89303">
        <ele>508.2</ele>
        <time>2026-08-20T09:16:32.000Z</time>
      </trkpt>
      <trkpt lat="47.81357" lon="6.8931">
        <ele>508.2</ele>
        <time>2026-08-20T09:16:33.000Z</time>
      </trkpt>
      <trkpt lat="47.81347" lon="6.89333">
        <ele>509.4</ele>
        <time>2026-08-20T09:16:37.000Z</time>
      </trkpt>
      <trkpt lat="47.8134" lon="6.8935">
        <ele>510.4</ele>
        <time>2026-08-20T09:16:40.000Z</time>
      </trkpt>
      <trkpt lat="47.81333" lon="6.89376">
        <ele>511.8</ele>
        <time>2026-08-20T09:16:45.000Z</time>
      </trkpt>
      <trkpt lat="47.81332" lon="6.89388">
        <ele>512.4</ele>
        <time>2026-08-20T09:16:47.000Z</time>
      </trkpt>
      <trkpt lat="47.81329" lon="6.89409">
        <ele>512.6</ele>
        <time>2026-08-20T09:16:51.000Z</time>
      </trkpt>
      <trkpt lat="47.81328" lon="6.89414">
        <ele>512.4</ele>
        <time>2026-08-20T09:16:52.000Z</time>
      </trkpt>
      <trkpt lat="47.81324" lon="6.89425">
        <ele>512</ele>
        <time>2026-08-20T09:16:54.000Z</time>
      </trkpt>
      <trkpt lat="47.81313" lon="6.8945">
        <ele>510.4</ele>
        <time>2026-08-20T09:16:58.000Z</time>
      </trkpt>
      <trkpt lat="47.81309" lon="6.89462">
        <ele>510</ele>
        <time>2026-08-20T09:17:00.000Z</time>
      </trkpt>
      <trkpt lat="47.81302" lon="6.89491">
        <ele>509.8</ele>
        <time>2026-08-20T09:17:04.000Z</time>
      </trkpt>
      <trkpt lat="47.81299" lon="6.89514">
        <ele>509.2</ele>
        <time>2026-08-20T09:17:07.000Z</time>
      </trkpt>
      <trkpt lat="47.81298" lon="6.89537">
        <ele>508.8</ele>
        <time>2026-08-20T09:17:10.000Z</time>
      </trkpt>
      <trkpt lat="47.81297" lon="6.89571">
        <ele>508.2</ele>
        <time>2026-08-20T09:17:14.000Z</time>
      </trkpt>
      <trkpt lat="47.81297" lon="6.89591">
        <ele>508.4</ele>
        <time>2026-08-20T09:17:17.000Z</time>
      </trkpt>
      <trkpt lat="47.81299" lon="6.89601">
        <ele>508.6</ele>
        <time>2026-08-20T09:17:19.000Z</time>
      </trkpt>
      <trkpt lat="47.81304" lon="6.89613">
        <ele>508.8</ele>
        <time>2026-08-20T09:17:21.000Z</time>
      </trkpt>
      <trkpt lat="47.81307" lon="6.8962">
        <ele>508.8</ele>
        <time>2026-08-20T09:17:22.000Z</time>
      </trkpt>
      <trkpt lat="47.81311" lon="6.89633">
        <ele>508.6</ele>
        <time>2026-08-20T09:17:24.000Z</time>
      </trkpt>
      <trkpt lat="47.81316" lon="6.89659">
        <ele>508.2</ele>
        <time>2026-08-20T09:17:28.000Z</time>
      </trkpt>
      <trkpt lat="47.81313" lon="6.89664">
        <ele>508</ele>
        <time>2026-08-20T09:17:29.000Z</time>
      </trkpt>
      <trkpt lat="47.81311" lon="6.8967">
        <ele>508</ele>
        <time>2026-08-20T09:17:30.000Z</time>
      </trkpt>
      <trkpt lat="47.81305" lon="6.89687">
        <ele>507.4</ele>
        <time>2026-08-20T09:17:33.000Z</time>
      </trkpt>
      <trkpt lat="47.81302" lon="6.89708">
        <ele>507.4</ele>
        <time>2026-08-20T09:17:36.000Z</time>
      </trkpt>
      <trkpt lat="47.813" lon="6.89721">
        <ele>507.4</ele>
        <time>2026-08-20T09:17:38.000Z</time>
      </trkpt>
      <trkpt lat="47.81295" lon="6.89748">
        <ele>507.2</ele>
        <time>2026-08-20T09:17:42.000Z</time>
      </trkpt>
      <trkpt lat="47.81293" lon="6.89762">
        <ele>507.2</ele>
        <time>2026-08-20T09:17:44.000Z</time>
      </trkpt>
      <trkpt lat="47.81288" lon="6.89787">
        <ele>507.2</ele>
        <time>2026-08-20T09:17:48.000Z</time>
      </trkpt>
      <trkpt lat="47.81284" lon="6.89799">
        <ele>507.8</ele>
        <time>2026-08-20T09:17:51.000Z</time>
      </trkpt>
      <trkpt lat="47.81278" lon="6.89812">
        <ele>508.2</ele>
        <time>2026-08-20T09:17:54.000Z</time>
      </trkpt>
      <trkpt lat="47.81271" lon="6.89826">
        <ele>508.4</ele>
        <time>2026-08-20T09:17:57.000Z</time>
      </trkpt>
      <trkpt lat="47.81261" lon="6.89857">
        <ele>508</ele>
        <time>2026-08-20T09:18:02.000Z</time>
      </trkpt>
      <trkpt lat="47.81255" lon="6.8987">
        <ele>508.4</ele>
        <time>2026-08-20T09:18:05.000Z</time>
      </trkpt>
      <trkpt lat="47.81246" lon="6.8989">
        <ele>509.2</ele>
        <time>2026-08-20T09:18:09.000Z</time>
      </trkpt>
      <trkpt lat="47.81242" lon="6.89903">
        <ele>509.2</ele>
        <time>2026-08-20T09:18:11.000Z</time>
      </trkpt>
      <trkpt lat="47.81235" lon="6.8993">
        <ele>509</ele>
        <time>2026-08-20T09:18:15.000Z</time>
      </trkpt>
      <trkpt lat="47.81232" lon="6.89941">
        <ele>509</ele>
        <time>2026-08-20T09:18:17.000Z</time>
      </trkpt>
      <trkpt lat="47.81223" lon="6.8997">
        <ele>509</ele>
        <time>2026-08-20T09:18:22.000Z</time>
      </trkpt>
      <trkpt lat="47.8122" lon="6.89975">
        <ele>509.2</ele>
        <time>2026-08-20T09:18:23.000Z</time>
      </trkpt>
      <trkpt lat="47.81212" lon="6.89985">
        <ele>509.4</ele>
        <time>2026-08-20T09:18:26.000Z</time>
      </trkpt>
      <trkpt lat="47.81202" lon="6.89998">
        <ele>509</ele>
        <time>2026-08-20T09:18:29.000Z</time>
      </trkpt>
      <trkpt lat="47.81192" lon="6.90016">
        <ele>508.8</ele>
        <time>2026-08-20T09:18:32.000Z</time>
      </trkpt>
      <trkpt lat="47.81183" lon="6.90045">
        <ele>509.4</ele>
        <time>2026-08-20T09:18:36.000Z</time>
      </trkpt>
      <trkpt lat="47.81178" lon="6.90061">
        <ele>510</ele>
        <time>2026-08-20T09:18:39.000Z</time>
      </trkpt>
      <trkpt lat="47.81176" lon="6.90073">
        <ele>510.4</ele>
        <time>2026-08-20T09:18:41.000Z</time>
      </trkpt>
      <trkpt lat="47.81174" lon="6.90091">
        <ele>511.2</ele>
        <time>2026-08-20T09:18:44.000Z</time>
      </trkpt>
      <trkpt lat="47.81174" lon="6.90097">
        <ele>511.6</ele>
        <time>2026-08-20T09:18:45.000Z</time>
      </trkpt>
      <trkpt lat="47.81174" lon="6.90119">
        <ele>512.6</ele>
        <time>2026-08-20T09:18:49.000Z</time>
      </trkpt>
      <trkpt lat="47.81174" lon="6.90124">
        <ele>512.8</ele>
        <time>2026-08-20T09:18:50.000Z</time>
      </trkpt>
      <trkpt lat="47.81172" lon="6.9014">
        <ele>513</ele>
        <time>2026-08-20T09:18:53.000Z</time>
      </trkpt>
      <trkpt lat="47.81168" lon="6.90161">
        <ele>512.4</ele>
        <time>2026-08-20T09:18:57.000Z</time>
      </trkpt>
      <trkpt lat="47.81159" lon="6.90186">
        <ele>512</ele>
        <time>2026-08-20T09:19:02.000Z</time>
      </trkpt>
      <trkpt lat="47.81158" lon="6.90189">
        <ele>512</ele>
        <time>2026-08-20T09:19:03.000Z</time>
      </trkpt>
      <trkpt lat="47.81149" lon="6.90203">
        <ele>511.6</ele>
        <time>2026-08-20T09:19:08.000Z</time>
      </trkpt>
      <trkpt lat="47.81146" lon="6.90203">
        <ele>511.4</ele>
        <time>2026-08-20T09:19:09.000Z</time>
      </trkpt>
      <trkpt lat="47.81144" lon="6.90202">
        <ele>511.2</ele>
        <time>2026-08-20T09:19:10.000Z</time>
      </trkpt>
      <trkpt lat="47.81138" lon="6.90198">
        <ele>510.4</ele>
        <time>2026-08-20T09:19:13.000Z</time>
      </trkpt>
      <trkpt lat="47.81136" lon="6.90197">
        <ele>509.8</ele>
        <time>2026-08-20T09:19:14.000Z</time>
      </trkpt>
      <trkpt lat="47.81132" lon="6.90198">
        <ele>509</ele>
        <time>2026-08-20T09:19:16.000Z</time>
      </trkpt>
      <trkpt lat="47.81131" lon="6.90199">
        <ele>508.8</ele>
        <time>2026-08-20T09:19:17.000Z</time>
      </trkpt>
      <trkpt lat="47.81128" lon="6.90206">
        <ele>508.2</ele>
        <time>2026-08-20T09:19:19.000Z</time>
      </trkpt>
      <trkpt lat="47.81126" lon="6.9021">
        <ele>507.8</ele>
        <time>2026-08-20T09:19:20.000Z</time>
      </trkpt>
      <trkpt lat="47.81114" lon="6.9022">
        <ele>507.6</ele>
        <time>2026-08-20T09:19:24.000Z</time>
      </trkpt>
      <trkpt lat="47.81106" lon="6.90222">
        <ele>507.8</ele>
        <time>2026-08-20T09:19:27.000Z</time>
      </trkpt>
      <trkpt lat="47.81104" lon="6.90223">
        <ele>507.8</ele>
        <time>2026-08-20T09:19:28.000Z</time>
      </trkpt>
      <trkpt lat="47.81095" lon="6.90226">
        <ele>507.6</ele>
        <time>2026-08-20T09:19:31.000Z</time>
      </trkpt>
      <trkpt lat="47.81083" lon="6.90231">
        <ele>507.4</ele>
        <time>2026-08-20T09:19:34.000Z</time>
      </trkpt>
      <trkpt lat="47.81064" lon="6.90245">
        <ele>507.8</ele>
        <time>2026-08-20T09:19:39.000Z</time>
      </trkpt>
      <trkpt lat="47.8106" lon="6.90249">
        <ele>508</ele>
        <time>2026-08-20T09:19:40.000Z</time>
      </trkpt>
      <trkpt lat="47.81045" lon="6.90263">
        <ele>508.2</ele>
        <time>2026-08-20T09:19:44.000Z</time>
      </trkpt>
      <trkpt lat="47.81029" lon="6.90276">
        <ele>508.8</ele>
        <time>2026-08-20T09:19:48.000Z</time>
      </trkpt>
      <trkpt lat="47.81025" lon="6.90278">
        <ele>508.8</ele>
        <time>2026-08-20T09:19:49.000Z</time>
      </trkpt>
      <trkpt lat="47.81006" lon="6.90288">
        <ele>508.4</ele>
        <time>2026-08-20T09:19:53.000Z</time>
      </trkpt>
      <trkpt lat="47.81002" lon="6.90292">
        <ele>508</ele>
        <time>2026-08-20T09:19:54.000Z</time>
      </trkpt>
      <trkpt lat="47.80994" lon="6.903">
        <ele>507.8</ele>
        <time>2026-08-20T09:19:56.000Z</time>
      </trkpt>
      <trkpt lat="47.80979" lon="6.90318">
        <ele>507.2</ele>
        <time>2026-08-20T09:20:00.000Z</time>
      </trkpt>
      <trkpt lat="47.80965" lon="6.90337">
        <ele>506.8</ele>
        <time>2026-08-20T09:20:04.000Z</time>
      </trkpt>
      <trkpt lat="47.80957" lon="6.90347">
        <ele>507</ele>
        <time>2026-08-20T09:20:06.000Z</time>
      </trkpt>
      <trkpt lat="47.80944" lon="6.90362">
        <ele>506.8</ele>
        <time>2026-08-20T09:20:09.000Z</time>
      </trkpt>
      <trkpt lat="47.80936" lon="6.90372">
        <ele>506.4</ele>
        <time>2026-08-20T09:20:11.000Z</time>
      </trkpt>
      <trkpt lat="47.80923" lon="6.90386">
        <ele>505.8</ele>
        <time>2026-08-20T09:20:14.000Z</time>
      </trkpt>
      <trkpt lat="47.80915" lon="6.90397">
        <ele>505.2</ele>
        <time>2026-08-20T09:20:16.000Z</time>
      </trkpt>
      <trkpt lat="47.80898" lon="6.90416">
        <ele>505.2</ele>
        <time>2026-08-20T09:20:20.000Z</time>
      </trkpt>
      <trkpt lat="47.80888" lon="6.90428">
        <ele>505</ele>
        <time>2026-08-20T09:20:23.000Z</time>
      </trkpt>
      <trkpt lat="47.80882" lon="6.90434">
        <ele>505</ele>
        <time>2026-08-20T09:20:25.000Z</time>
      </trkpt>
      <trkpt lat="47.80871" lon="6.90441">
        <ele>505.4</ele>
        <time>2026-08-20T09:20:28.000Z</time>
      </trkpt>
      <trkpt lat="47.80853" lon="6.9045">
        <ele>505.2</ele>
        <time>2026-08-20T09:20:33.000Z</time>
      </trkpt>
      <trkpt lat="47.80851" lon="6.90452">
        <ele>505</ele>
        <time>2026-08-20T09:20:34.000Z</time>
      </trkpt>
      <trkpt lat="47.80834" lon="6.90465">
        <ele>504.8</ele>
        <time>2026-08-20T09:20:39.000Z</time>
      </trkpt>
      <trkpt lat="47.80831" lon="6.90469">
        <ele>504.8</ele>
        <time>2026-08-20T09:20:40.000Z</time>
      </trkpt>
      <trkpt lat="47.80829" lon="6.90473">
        <ele>504.8</ele>
        <time>2026-08-20T09:20:41.000Z</time>
      </trkpt>
      <trkpt lat="47.80823" lon="6.90484">
        <ele>504.8</ele>
        <time>2026-08-20T09:20:44.000Z</time>
      </trkpt>
      <trkpt lat="47.80824" lon="6.90491">
        <ele>505.2</ele>
        <time>2026-08-20T09:20:46.000Z</time>
      </trkpt>
      <trkpt lat="47.80823" lon="6.90494">
        <ele>505.4</ele>
        <time>2026-08-20T09:20:47.000Z</time>
      </trkpt>
      <trkpt lat="47.80818" lon="6.90497">
        <ele>506</ele>
        <time>2026-08-20T09:20:49.000Z</time>
      </trkpt>
      <trkpt lat="47.80815" lon="6.90497">
        <ele>506.2</ele>
        <time>2026-08-20T09:20:50.000Z</time>
      </trkpt>
      <trkpt lat="47.80807" lon="6.90494">
        <ele>506</ele>
        <time>2026-08-20T09:20:53.000Z</time>
      </trkpt>
      <trkpt lat="47.80803" lon="6.90487">
        <ele>506.4</ele>
        <time>2026-08-20T09:20:55.000Z</time>
      </trkpt>
      <trkpt lat="47.808" lon="6.90479">
        <ele>506.4</ele>
        <time>2026-08-20T09:20:58.000Z</time>
      </trkpt>
      <trkpt lat="47.80798" lon="6.9048">
        <ele>506.2</ele>
        <time>2026-08-20T09:20:59.000Z</time>
      </trkpt>
      <trkpt lat="47.80791" lon="6.90492">
        <ele>505.8</ele>
        <time>2026-08-20T09:21:02.000Z</time>
      </trkpt>
      <trkpt lat="47.80773" lon="6.90506">
        <ele>505.6</ele>
        <time>2026-08-20T09:21:06.000Z</time>
      </trkpt>
      <trkpt lat="47.80755" lon="6.90521">
        <ele>505.6</ele>
        <time>2026-08-20T09:21:10.000Z</time>
      </trkpt>
      <trkpt lat="47.80742" lon="6.90532">
        <ele>505.4</ele>
        <time>2026-08-20T09:21:13.000Z</time>
      </trkpt>
      <trkpt lat="47.80728" lon="6.90542">
        <ele>505.4</ele>
        <time>2026-08-20T09:21:16.000Z</time>
      </trkpt>
      <trkpt lat="47.80719" lon="6.90543">
        <ele>505.4</ele>
        <time>2026-08-20T09:21:18.000Z</time>
      </trkpt>
      <trkpt lat="47.80716" lon="6.90541">
        <ele>505.6</ele>
        <time>2026-08-20T09:21:19.000Z</time>
      </trkpt>
      <trkpt lat="47.80712" lon="6.90539">
        <ele>505.6</ele>
        <time>2026-08-20T09:21:20.000Z</time>
      </trkpt>
      <trkpt lat="47.80706" lon="6.90533">
        <ele>506</ele>
        <time>2026-08-20T09:21:22.000Z</time>
      </trkpt>
      <trkpt lat="47.80702" lon="6.90525">
        <ele>506.2</ele>
        <time>2026-08-20T09:21:24.000Z</time>
      </trkpt>
      <trkpt lat="47.80702" lon="6.90505">
        <ele>506.2</ele>
        <time>2026-08-20T09:21:28.000Z</time>
      </trkpt>
      <trkpt lat="47.80707" lon="6.90478">
        <ele>506.6</ele>
        <time>2026-08-20T09:21:33.000Z</time>
      </trkpt>
      <trkpt lat="47.80707" lon="6.90472">
        <ele>506.6</ele>
        <time>2026-08-20T09:21:34.000Z</time>
      </trkpt>
      <trkpt lat="47.80706" lon="6.90466">
        <ele>506.8</ele>
        <time>2026-08-20T09:21:35.000Z</time>
      </trkpt>
      <trkpt lat="47.80701" lon="6.90455">
        <ele>506.6</ele>
        <time>2026-08-20T09:21:37.000Z</time>
      </trkpt>
      <trkpt lat="47.8069" lon="6.90441">
        <ele>506.4</ele>
        <time>2026-08-20T09:21:40.000Z</time>
      </trkpt>
      <trkpt lat="47.80676" lon="6.90421">
        <ele>506.6</ele>
        <time>2026-08-20T09:21:44.000Z</time>
      </trkpt>
      <trkpt lat="47.80673" lon="6.90415">
        <ele>506.8</ele>
        <time>2026-08-20T09:21:45.000Z</time>
      </trkpt>
      <trkpt lat="47.80669" lon="6.90402">
        <ele>507.2</ele>
        <time>2026-08-20T09:21:47.000Z</time>
      </trkpt>
      <trkpt lat="47.80668" lon="6.90395">
        <ele>507.6</ele>
        <time>2026-08-20T09:21:48.000Z</time>
      </trkpt>
      <trkpt lat="47.8066" lon="6.90369">
        <ele>508.2</ele>
        <time>2026-08-20T09:21:52.000Z</time>
      </trkpt>
      <trkpt lat="47.80658" lon="6.90364">
        <ele>508.4</ele>
        <time>2026-08-20T09:21:53.000Z</time>
      </trkpt>
      <trkpt lat="47.80655" lon="6.90358">
        <ele>508.4</ele>
        <time>2026-08-20T09:21:54.000Z</time>
      </trkpt>
      <trkpt lat="47.80643" lon="6.90337">
        <ele>509.2</ele>
        <time>2026-08-20T09:21:58.000Z</time>
      </trkpt>
      <trkpt lat="47.80641" lon="6.90332">
        <ele>509.4</ele>
        <time>2026-08-20T09:21:59.000Z</time>
      </trkpt>
      <trkpt lat="47.80633" lon="6.90317">
        <ele>510.4</ele>
        <time>2026-08-20T09:22:02.000Z</time>
      </trkpt>
      <trkpt lat="47.8063" lon="6.90312">
        <ele>510.6</ele>
        <time>2026-08-20T09:22:03.000Z</time>
      </trkpt>
      <trkpt lat="47.80627" lon="6.90307">
        <ele>510.8</ele>
        <time>2026-08-20T09:22:04.000Z</time>
      </trkpt>
      <trkpt lat="47.80619" lon="6.903">
        <ele>511.2</ele>
        <time>2026-08-20T09:22:06.000Z</time>
      </trkpt>
      <trkpt lat="47.8061" lon="6.90295">
        <ele>511.2</ele>
        <time>2026-08-20T09:22:08.000Z</time>
      </trkpt>
      <trkpt lat="47.80606" lon="6.90293">
        <ele>511</ele>
        <time>2026-08-20T09:22:09.000Z</time>
      </trkpt>
      <trkpt lat="47.80586" lon="6.90282">
        <ele>511.6</ele>
        <time>2026-08-20T09:22:14.000Z</time>
      </trkpt>
      <trkpt lat="47.80573" lon="6.90272">
        <ele>512.6</ele>
        <time>2026-08-20T09:22:18.000Z</time>
      </trkpt>
      <trkpt lat="47.8057" lon="6.90268">
        <ele>512.8</ele>
        <time>2026-08-20T09:22:19.000Z</time>
      </trkpt>
      <trkpt lat="47.80568" lon="6.90264">
        <ele>513</ele>
        <time>2026-08-20T09:22:20.000Z</time>
      </trkpt>
      <trkpt lat="47.8056" lon="6.90253">
        <ele>513.8</ele>
        <time>2026-08-20T09:22:23.000Z</time>
      </trkpt>
      <trkpt lat="47.80555" lon="6.90247">
        <ele>514.6</ele>
        <time>2026-08-20T09:22:25.000Z</time>
      </trkpt>
      <trkpt lat="47.80548" lon="6.90245">
        <ele>515</ele>
        <time>2026-08-20T09:22:27.000Z</time>
      </trkpt>
      <trkpt lat="47.80529" lon="6.90244">
        <ele>516.2</ele>
        <time>2026-08-20T09:22:33.000Z</time>
      </trkpt>
      <trkpt lat="47.80526" lon="6.90245">
        <ele>516.4</ele>
        <time>2026-08-20T09:22:34.000Z</time>
      </trkpt>
      <trkpt lat="47.80513" lon="6.90249">
        <ele>516.8</ele>
        <time>2026-08-20T09:22:38.000Z</time>
      </trkpt>
      <trkpt lat="47.80496" lon="6.90234">
        <ele>517.4</ele>
        <time>2026-08-20T09:22:44.000Z</time>
      </trkpt>
      <trkpt lat="47.80491" lon="6.90226">
        <ele>519</ele>
        <time>2026-08-20T09:22:47.000Z</time>
      </trkpt>
      <trkpt lat="47.80487" lon="6.9022">
        <ele>520.2</ele>
        <time>2026-08-20T09:22:49.000Z</time>
      </trkpt>
      <trkpt lat="47.80484" lon="6.90214">
        <ele>521</ele>
        <time>2026-08-20T09:22:51.000Z</time>
      </trkpt>
      <trkpt lat="47.80482" lon="6.90212">
        <ele>521.4</ele>
        <time>2026-08-20T09:22:52.000Z</time>
      </trkpt>
      <trkpt lat="47.80476" lon="6.90205">
        <ele>522.4</ele>
        <time>2026-08-20T09:22:55.000Z</time>
      </trkpt>
      <trkpt lat="47.80473" lon="6.90202">
        <ele>522.6</ele>
        <time>2026-08-20T09:22:56.000Z</time>
      </trkpt>
      <trkpt lat="47.80467" lon="6.90194">
        <ele>523.6</ele>
        <time>2026-08-20T09:22:59.000Z</time>
      </trkpt>
      <trkpt lat="47.80462" lon="6.90182">
        <ele>524.2</ele>
        <time>2026-08-20T09:23:02.000Z</time>
      </trkpt>
      <trkpt lat="47.80459" lon="6.9017">
        <ele>524.8</ele>
        <time>2026-08-20T09:23:05.000Z</time>
      </trkpt>
      <trkpt lat="47.80453" lon="6.90154">
        <ele>526.2</ele>
        <time>2026-08-20T09:23:09.000Z</time>
      </trkpt>
      <trkpt lat="47.80448" lon="6.9014">
        <ele>527.6</ele>
        <time>2026-08-20T09:23:13.000Z</time>
      </trkpt>
      <trkpt lat="47.80445" lon="6.90131">
        <ele>529</ele>
        <time>2026-08-20T09:23:16.000Z</time>
      </trkpt>
      <trkpt lat="47.80444" lon="6.90127">
        <ele>529.4</ele>
        <time>2026-08-20T09:23:17.000Z</time>
      </trkpt>
      <trkpt lat="47.80442" lon="6.9012">
        <ele>530.2</ele>
        <time>2026-08-20T09:23:19.000Z</time>
      </trkpt>
      <trkpt lat="47.8044" lon="6.90109">
        <ele>531.4</ele>
        <time>2026-08-20T09:23:22.000Z</time>
      </trkpt>
      <trkpt lat="47.80438" lon="6.90103">
        <ele>532.2</ele>
        <time>2026-08-20T09:23:24.000Z</time>
      </trkpt>
      <trkpt lat="47.80438" lon="6.901">
        <ele>532.6</ele>
        <time>2026-08-20T09:23:25.000Z</time>
      </trkpt>
      <trkpt lat="47.80437" lon="6.90092">
        <ele>533.8</ele>
        <time>2026-08-20T09:23:28.000Z</time>
      </trkpt>
      <trkpt lat="47.80434" lon="6.90083">
        <ele>534.8</ele>
        <time>2026-08-20T09:23:31.000Z</time>
      </trkpt>
      <trkpt lat="47.80432" lon="6.90081">
        <ele>535</ele>
        <time>2026-08-20T09:23:32.000Z</time>
      </trkpt>
      <trkpt lat="47.80427" lon="6.90076">
        <ele>536.4</ele>
        <time>2026-08-20T09:23:35.000Z</time>
      </trkpt>
      <trkpt lat="47.80426" lon="6.90076">
        <ele>537</ele>
        <time>2026-08-20T09:23:37.000Z</time>
      </trkpt>
      <trkpt lat="47.80426" lon="6.90075">
        <ele>537.4</ele>
        <time>2026-08-20T09:23:40.000Z</time>
      </trkpt>
      <trkpt lat="47.80426" lon="6.90074">
        <ele>537.2</ele>
        <time>2026-08-20T09:23:47.000Z</time>
      </trkpt>
      <trkpt lat="47.80426" lon="6.90076">
        <ele>537</ele>
        <time>2026-08-20T09:23:55.000Z</time>
      </trkpt>
      <trkpt lat="47.80429" lon="6.90074">
        <ele>536.4</ele>
        <time>2026-08-20T09:24:02.000Z</time>
      </trkpt>
      <trkpt lat="47.8043" lon="6.90074">
        <ele>536.2</ele>
        <time>2026-08-20T09:24:03.000Z</time>
      </trkpt>
      <trkpt lat="47.80434" lon="6.90073">
        <ele>536.2</ele>
        <time>2026-08-20T09:24:13.000Z</time>
      </trkpt>
      <trkpt lat="47.80433" lon="6.90064">
        <ele>536.4</ele>
        <time>2026-08-20T09:24:17.000Z</time>
      </trkpt>
      <trkpt lat="47.80432" lon="6.90061">
        <ele>536.4</ele>
        <time>2026-08-20T09:24:18.000Z</time>
      </trkpt>
      <trkpt lat="47.80426" lon="6.90053">
        <ele>537.4</ele>
        <time>2026-08-20T09:24:21.000Z</time>
      </trkpt>
      <trkpt lat="47.80422" lon="6.90046">
        <ele>538.4</ele>
        <time>2026-08-20T09:24:23.000Z</time>
      </trkpt>
      <trkpt lat="47.8042" lon="6.90042">
        <ele>539.2</ele>
        <time>2026-08-20T09:24:24.000Z</time>
      </trkpt>
      <trkpt lat="47.80419" lon="6.90039">
        <ele>539.8</ele>
        <time>2026-08-20T09:24:25.000Z</time>
      </trkpt>
      <trkpt lat="47.80415" lon="6.90033">
        <ele>541.4</ele>
        <time>2026-08-20T09:24:27.000Z</time>
      </trkpt>
      <trkpt lat="47.80411" lon="6.90028">
        <ele>542.4</ele>
        <time>2026-08-20T09:24:29.000Z</time>
      </trkpt>
      <trkpt lat="47.8041" lon="6.90026">
        <ele>543</ele>
        <time>2026-08-20T09:24:30.000Z</time>
      </trkpt>
      <trkpt lat="47.80408" lon="6.90024">
        <ele>543.8</ele>
        <time>2026-08-20T09:24:31.000Z</time>
      </trkpt>
      <trkpt lat="47.80404" lon="6.90019">
        <ele>545</ele>
        <time>2026-08-20T09:24:33.000Z</time>
      </trkpt>
      <trkpt lat="47.80401" lon="6.90014">
        <ele>546</ele>
        <time>2026-08-20T09:24:35.000Z</time>
      </trkpt>
      <trkpt lat="47.80397" lon="6.90007">
        <ele>547.2</ele>
        <time>2026-08-20T09:24:38.000Z</time>
      </trkpt>
      <trkpt lat="47.80393" lon="6.90001">
        <ele>548</ele>
        <time>2026-08-20T09:24:41.000Z</time>
      </trkpt>
      <trkpt lat="47.80391" lon="6.9">
        <ele>548.2</ele>
        <time>2026-08-20T09:24:43.000Z</time>
      </trkpt>
      <trkpt lat="47.80387" lon="6.89995">
        <ele>549</ele>
        <time>2026-08-20T09:24:46.000Z</time>
      </trkpt>
      <trkpt lat="47.80384" lon="6.89991">
        <ele>549.4</ele>
        <time>2026-08-20T09:24:48.000Z</time>
      </trkpt>
      <trkpt lat="47.8038" lon="6.89983">
        <ele>550.2</ele>
        <time>2026-08-20T09:24:51.000Z</time>
      </trkpt>
      <trkpt lat="47.80377" lon="6.8998">
        <ele>550.6</ele>
        <time>2026-08-20T09:24:53.000Z</time>
      </trkpt>
      <trkpt lat="47.80377" lon="6.8998">
        <ele>551</ele>
        <time>2026-08-20T09:24:59.000Z</time>
      </trkpt>
      <trkpt lat="47.80377" lon="6.8998">
        <ele>551</ele>
        <time>2026-08-20T09:25:05.000Z</time>
      </trkpt>
      <trkpt lat="47.80378" lon="6.89983">
        <ele>550.8</ele>
        <time>2026-08-20T09:25:10.000Z</time>
      </trkpt>
      <trkpt lat="47.80377" lon="6.89982">
        <ele>550.8</ele>
        <time>2026-08-20T09:25:11.000Z</time>
      </trkpt>
      <trkpt lat="47.80378" lon="6.89982">
        <ele>550.8</ele>
        <time>2026-08-20T09:25:17.000Z</time>
      </trkpt>
      <trkpt lat="47.80378" lon="6.89981">
        <ele>550.8</ele>
        <time>2026-08-20T09:25:18.000Z</time>
      </trkpt>
      <trkpt lat="47.80376" lon="6.89981">
        <ele>550.8</ele>
        <time>2026-08-20T09:25:26.000Z</time>
      </trkpt>
      <trkpt lat="47.80377" lon="6.89981">
        <ele>550.8</ele>
        <time>2026-08-20T09:25:30.000Z</time>
      </trkpt>
      <trkpt lat="47.80377" lon="6.89981">
        <ele>550.6</ele>
        <time>2026-08-20T09:25:35.000Z</time>
      </trkpt>
      <trkpt lat="47.80376" lon="6.89981">
        <ele>550.8</ele>
        <time>2026-08-20T09:25:42.000Z</time>
      </trkpt>
      <trkpt lat="47.80377" lon="6.89983">
        <ele>550.6</ele>
        <time>2026-08-20T09:25:50.000Z</time>
      </trkpt>
      <trkpt lat="47.80377" lon="6.89983">
        <ele>550.6</ele>
        <time>2026-08-20T09:25:52.000Z</time>
      </trkpt>
      <trkpt lat="47.80377" lon="6.89983">
        <ele>550.6</ele>
        <time>2026-08-20T09:25:54.000Z</time>
      </trkpt>
      <trkpt lat="47.80376" lon="6.89985">
        <ele>550.6</ele>
        <time>2026-08-20T09:26:07.000Z</time>
      </trkpt>
      <trkpt lat="47.80375" lon="6.89986">
        <ele>550.4</ele>
        <time>2026-08-20T09:26:17.000Z</time>
      </trkpt>
      <trkpt lat="47.80374" lon="6.89986">
        <ele>550.4</ele>
        <time>2026-08-20T09:26:21.000Z</time>
      </trkpt>
      <trkpt lat="47.80375" lon="6.89984">
        <ele>550.6</ele>
        <time>2026-08-20T09:26:26.000Z</time>
      </trkpt>
      <trkpt lat="47.80377" lon="6.89984">
        <ele>551</ele>
        <time>2026-08-20T09:26:30.000Z</time>
      </trkpt>
      <trkpt lat="47.80377" lon="6.89981">
        <ele>550.8</ele>
        <time>2026-08-20T09:26:36.000Z</time>
      </trkpt>
      <trkpt lat="47.80378" lon="6.8998">
        <ele>550.8</ele>
        <time>2026-08-20T09:26:37.000Z</time>
      </trkpt>
      <trkpt lat="47.80377" lon="6.89979">
        <ele>551</ele>
        <time>2026-08-20T09:26:46.000Z</time>
      </trkpt>
      <trkpt lat="47.80375" lon="6.89976">
        <ele>551.6</ele>
        <time>2026-08-20T09:26:49.000Z</time>
      </trkpt>
      <trkpt lat="47.80375" lon="6.89974">
        <ele>552.2</ele>
        <time>2026-08-20T09:26:52.000Z</time>
      </trkpt>
      <trkpt lat="47.80375" lon="6.89972">
        <ele>552.6</ele>
        <time>2026-08-20T09:26:54.000Z</time>
      </trkpt>
      <trkpt lat="47.80376" lon="6.89972">
        <ele>552.8</ele>
        <time>2026-08-20T09:26:55.000Z</time>
      </trkpt>
      <trkpt lat="47.80374" lon="6.89965">
        <ele>553.8</ele>
        <time>2026-08-20T09:27:02.000Z</time>
      </trkpt>
      <trkpt lat="47.80373" lon="6.89963">
        <ele>554.2</ele>
        <time>2026-08-20T09:27:05.000Z</time>
      </trkpt>
      <trkpt lat="47.80372" lon="6.89962">
        <ele>554.4</ele>
        <time>2026-08-20T09:27:07.000Z</time>
      </trkpt>
      <trkpt lat="47.80372" lon="6.89962">
        <ele>554.6</ele>
        <time>2026-08-20T09:27:08.000Z</time>
      </trkpt>
      <trkpt lat="47.8037" lon="6.8996">
        <ele>555</ele>
        <time>2026-08-20T09:27:10.000Z</time>
      </trkpt>
      <trkpt lat="47.80369" lon="6.89958">
        <ele>555.6</ele>
        <time>2026-08-20T09:27:13.000Z</time>
      </trkpt>
      <trkpt lat="47.80368" lon="6.89956">
        <ele>556</ele>
        <time>2026-08-20T09:27:15.000Z</time>
      </trkpt>
      <trkpt lat="47.80367" lon="6.89955">
        <ele>556.4</ele>
        <time>2026-08-20T09:27:17.000Z</time>
      </trkpt>
      <trkpt lat="47.80366" lon="6.89952">
        <ele>557.2</ele>
        <time>2026-08-20T09:27:20.000Z</time>
      </trkpt>
      <trkpt lat="47.80365" lon="6.8995">
        <ele>558</ele>
        <time>2026-08-20T09:27:25.000Z</time>
      </trkpt>
      <trkpt lat="47.80365" lon="6.8995">
        <ele>558</ele>
        <time>2026-08-20T09:27:48.000Z</time>
      </trkpt>
      <trkpt lat="47.80365" lon="6.8995">
        <ele>558</ele>
        <time>2026-08-20T09:27:52.000Z</time>
      </trkpt>
      <trkpt lat="47.80365" lon="6.8995">
        <ele>558</ele>
        <time>2026-08-20T09:28:00.000Z</time>
      </trkpt>
      <trkpt lat="47.80365" lon="6.8995">
        <ele>558</ele>
        <time>2026-08-20T09:28:03.000Z</time>
      </trkpt>
      <trkpt lat="47.80365" lon="6.8995">
        <ele>558.2</ele>
        <time>2026-08-20T09:28:06.000Z</time>
      </trkpt>
      <trkpt lat="47.80365" lon="6.8995">
        <ele>558.2</ele>
        <time>2026-08-20T09:28:07.000Z</time>
      </trkpt>
      <trkpt lat="47.80363" lon="6.8995">
        <ele>558.8</ele>
        <time>2026-08-20T09:28:10.000Z</time>
      </trkpt>
      <trkpt lat="47.80361" lon="6.8995">
        <ele>559.4</ele>
        <time>2026-08-20T09:28:14.000Z</time>
      </trkpt>
      <trkpt lat="47.80361" lon="6.89949">
        <ele>559.4</ele>
        <time>2026-08-20T09:28:16.000Z</time>
      </trkpt>
      <trkpt lat="47.8036" lon="6.89945">
        <ele>560.2</ele>
        <time>2026-08-20T09:28:24.000Z</time>
      </trkpt>
      <trkpt lat="47.80359" lon="6.89944">
        <ele>560.6</ele>
        <time>2026-08-20T09:28:26.000Z</time>
      </trkpt>
      <trkpt lat="47.80358" lon="6.89942">
        <ele>561.6</ele>
        <time>2026-08-20T09:28:30.000Z</time>
      </trkpt>
      <trkpt lat="47.80357" lon="6.8994">
        <ele>562.2</ele>
        <time>2026-08-20T09:28:33.000Z</time>
      </trkpt>
      <trkpt lat="47.80356" lon="6.89938">
        <ele>562.8</ele>
        <time>2026-08-20T09:28:35.000Z</time>
      </trkpt>
      <trkpt lat="47.80355" lon="6.89934">
        <ele>564</ele>
        <time>2026-08-20T09:28:39.000Z</time>
      </trkpt>
      <trkpt lat="47.80354" lon="6.89931">
        <ele>565.2</ele>
        <time>2026-08-20T09:28:43.000Z</time>
      </trkpt>
      <trkpt lat="47.80353" lon="6.89928">
        <ele>566.2</ele>
        <time>2026-08-20T09:28:47.000Z</time>
      </trkpt>
      <trkpt lat="47.80352" lon="6.89928">
        <ele>566.4</ele>
        <time>2026-08-20T09:28:48.000Z</time>
      </trkpt>
      <trkpt lat="47.80351" lon="6.89926">
        <ele>567</ele>
        <time>2026-08-20T09:28:50.000Z</time>
      </trkpt>
      <trkpt lat="47.80351" lon="6.89926">
        <ele>567.2</ele>
        <time>2026-08-20T09:28:51.000Z</time>
      </trkpt>
      <trkpt lat="47.80351" lon="6.89926">
        <ele>567.6</ele>
        <time>2026-08-20T09:28:52.000Z</time>
      </trkpt>
      <trkpt lat="47.80349" lon="6.89922">
        <ele>568.4</ele>
        <time>2026-08-20T09:28:56.000Z</time>
      </trkpt>
      <trkpt lat="47.80348" lon="6.89921">
        <ele>568.6</ele>
        <time>2026-08-20T09:28:57.000Z</time>
      </trkpt>
      <trkpt lat="47.80348" lon="6.89921">
        <ele>569</ele>
        <time>2026-08-20T09:28:58.000Z</time>
      </trkpt>
      <trkpt lat="47.80347" lon="6.89918">
        <ele>569.8</ele>
        <time>2026-08-20T09:29:02.000Z</time>
      </trkpt>
      <trkpt lat="47.80347" lon="6.89917">
        <ele>570</ele>
        <time>2026-08-20T09:29:04.000Z</time>
      </trkpt>
      <trkpt lat="47.80346" lon="6.89917">
        <ele>569.8</ele>
        <time>2026-08-20T09:29:09.000Z</time>
      </trkpt>
      <trkpt lat="47.80346" lon="6.89917">
        <ele>569.8</ele>
        <time>2026-08-20T09:29:19.000Z</time>
      </trkpt>
      <trkpt lat="47.80346" lon="6.89917">
        <ele>569.8</ele>
        <time>2026-08-20T09:29:20.000Z</time>
      </trkpt>
      <trkpt lat="47.80346" lon="6.89917">
        <ele>569.8</ele>
        <time>2026-08-20T09:29:27.000Z</time>
      </trkpt>
      <trkpt lat="47.80345" lon="6.89914">
        <ele>570</ele>
        <time>2026-08-20T09:29:33.000Z</time>
      </trkpt>
      <trkpt lat="47.80342" lon="6.89912">
        <ele>571</ele>
        <time>2026-08-20T09:29:38.000Z</time>
      </trkpt>
      <trkpt lat="47.8034" lon="6.89909">
        <ele>571.8</ele>
        <time>2026-08-20T09:29:43.000Z</time>
      </trkpt>
      <trkpt lat="47.8034" lon="6.89909">
        <ele>572</ele>
        <time>2026-08-20T09:29:45.000Z</time>
      </trkpt>
      <trkpt lat="47.8034" lon="6.89909">
        <ele>572.2</ele>
        <time>2026-08-20T09:29:55.000Z</time>
      </trkpt>
      <trkpt lat="47.8034" lon="6.89909">
        <ele>572</ele>
        <time>2026-08-20T09:30:01.000Z</time>
      </trkpt>
      <trkpt lat="47.8034" lon="6.89909">
        <ele>572</ele>
        <time>2026-08-20T09:30:06.000Z</time>
      </trkpt>
      <trkpt lat="47.8034" lon="6.89905">
        <ele>572.2</ele>
        <time>2026-08-20T09:30:10.000Z</time>
      </trkpt>
      <trkpt lat="47.80339" lon="6.89904">
        <ele>572.2</ele>
        <time>2026-08-20T09:30:11.000Z</time>
      </trkpt>
      <trkpt lat="47.80336" lon="6.89899">
        <ele>573.2</ele>
        <time>2026-08-20T09:30:17.000Z</time>
      </trkpt>
      <trkpt lat="47.80335" lon="6.89898">
        <ele>573.4</ele>
        <time>2026-08-20T09:30:19.000Z</time>
      </trkpt>
      <trkpt lat="47.80333" lon="6.89897">
        <ele>574.2</ele>
        <time>2026-08-20T09:30:22.000Z</time>
      </trkpt>
      <trkpt lat="47.80329" lon="6.89893">
        <ele>575.2</ele>
        <time>2026-08-20T09:30:27.000Z</time>
      </trkpt>
      <trkpt lat="47.80329" lon="6.89892">
        <ele>575.6</ele>
        <time>2026-08-20T09:30:29.000Z</time>
      </trkpt>
      <trkpt lat="47.80329" lon="6.89892">
        <ele>575.6</ele>
        <time>2026-08-20T09:30:33.000Z</time>
      </trkpt>
      <trkpt lat="47.80329" lon="6.89892">
        <ele>575.6</ele>
        <time>2026-08-20T09:30:34.000Z</time>
      </trkpt>
      <trkpt lat="47.80327" lon="6.89891">
        <ele>575.4</ele>
        <time>2026-08-20T09:30:38.000Z</time>
      </trkpt>
      <trkpt lat="47.80326" lon="6.89891">
        <ele>575.6</ele>
        <time>2026-08-20T09:30:40.000Z</time>
      </trkpt>
      <trkpt lat="47.80325" lon="6.89889">
        <ele>575.8</ele>
        <time>2026-08-20T09:30:46.000Z</time>
      </trkpt>
      <trkpt lat="47.80324" lon="6.89889">
        <ele>576</ele>
        <time>2026-08-20T09:30:47.000Z</time>
      </trkpt>
      <trkpt lat="47.80322" lon="6.89886">
        <ele>576.4</ele>
        <time>2026-08-20T09:30:51.000Z</time>
      </trkpt>
      <trkpt lat="47.80321" lon="6.89884">
        <ele>576.4</ele>
        <time>2026-08-20T09:30:52.000Z</time>
      </trkpt>
      <trkpt lat="47.80319" lon="6.89878">
        <ele>577.6</ele>
        <time>2026-08-20T09:30:55.000Z</time>
      </trkpt>
      <trkpt lat="47.80319" lon="6.89871">
        <ele>579</ele>
        <time>2026-08-20T09:30:58.000Z</time>
      </trkpt>
      <trkpt lat="47.8032" lon="6.8987">
        <ele>579.2</ele>
        <time>2026-08-20T09:31:00.000Z</time>
      </trkpt>
      <trkpt lat="47.8032" lon="6.89868">
        <ele>579.4</ele>
        <time>2026-08-20T09:31:02.000Z</time>
      </trkpt>
      <trkpt lat="47.8032" lon="6.89864">
        <ele>579.6</ele>
        <time>2026-08-20T09:31:06.000Z</time>
      </trkpt>
      <trkpt lat="47.80319" lon="6.89861">
        <ele>580</ele>
        <time>2026-08-20T09:31:10.000Z</time>
      </trkpt>
      <trkpt lat="47.80319" lon="6.8986">
        <ele>580.2</ele>
        <time>2026-08-20T09:31:11.000Z</time>
      </trkpt>
      <trkpt lat="47.80317" lon="6.89855">
        <ele>581</ele>
        <time>2026-08-20T09:31:16.000Z</time>
      </trkpt>
      <trkpt lat="47.80316" lon="6.89853">
        <ele>580.8</ele>
        <time>2026-08-20T09:31:20.000Z</time>
      </trkpt>
      <trkpt lat="47.80312" lon="6.89848">
        <ele>580.6</ele>
        <time>2026-08-20T09:31:26.000Z</time>
      </trkpt>
      <trkpt lat="47.80307" lon="6.8984">
        <ele>580.4</ele>
        <time>2026-08-20T09:31:33.000Z</time>
      </trkpt>
      <trkpt lat="47.80304" lon="6.89832">
        <ele>580.2</ele>
        <time>2026-08-20T09:31:39.000Z</time>
      </trkpt>
      <trkpt lat="47.80302" lon="6.89823">
        <ele>580</ele>
        <time>2026-08-20T09:31:41.000Z</time>
      </trkpt>
      <trkpt lat="47.80298" lon="6.89812">
        <ele>579.6</ele>
        <time>2026-08-20T09:31:45.000Z</time>
      </trkpt>
      <trkpt lat="47.80295" lon="6.89801">
        <ele>579.6</ele>
        <time>2026-08-20T09:31:48.000Z</time>
      </trkpt>
      <trkpt lat="47.80294" lon="6.89798">
        <ele>579.8</ele>
        <time>2026-08-20T09:31:49.000Z</time>
      </trkpt>
      <trkpt lat="47.80293" lon="6.89794">
        <ele>579.8</ele>
        <time>2026-08-20T09:31:50.000Z</time>
      </trkpt>
      <trkpt lat="47.80288" lon="6.89779">
        <ele>579.4</ele>
        <time>2026-08-20T09:31:54.000Z</time>
      </trkpt>
      <trkpt lat="47.80278" lon="6.8977">
        <ele>579.2</ele>
        <time>2026-08-20T09:31:59.000Z</time>
      </trkpt>
      <trkpt lat="47.80271" lon="6.89769">
        <ele>579.6</ele>
        <time>2026-08-20T09:32:04.000Z</time>
      </trkpt>
      <trkpt lat="47.80265" lon="6.89765">
        <ele>579.6</ele>
        <time>2026-08-20T09:32:10.000Z</time>
      </trkpt>
      <trkpt lat="47.80261" lon="6.89757">
        <ele>579.8</ele>
        <time>2026-08-20T09:32:16.000Z</time>
      </trkpt>
      <trkpt lat="47.80261" lon="6.8975">
        <ele>579.6</ele>
        <time>2026-08-20T09:32:22.000Z</time>
      </trkpt>
      <trkpt lat="47.8026" lon="6.89742">
        <ele>579.8</ele>
        <time>2026-08-20T09:32:27.000Z</time>
      </trkpt>
      <trkpt lat="47.80258" lon="6.89732">
        <ele>580</ele>
        <time>2026-08-20T09:32:31.000Z</time>
      </trkpt>
      <trkpt lat="47.80255" lon="6.89726">
        <ele>579.8</ele>
        <time>2026-08-20T09:32:33.000Z</time>
      </trkpt>
      <trkpt lat="47.80245" lon="6.89703">
        <ele>580.2</ele>
        <time>2026-08-20T09:32:40.000Z</time>
      </trkpt>
      <trkpt lat="47.80244" lon="6.89699">
        <ele>580.2</ele>
        <time>2026-08-20T09:32:41.000Z</time>
      </trkpt>
      <trkpt lat="47.8024" lon="6.89686">
        <ele>580</ele>
        <time>2026-08-20T09:32:44.000Z</time>
      </trkpt>
      <trkpt lat="47.8023" lon="6.89659">
        <ele>580</ele>
        <time>2026-08-20T09:32:51.000Z</time>
      </trkpt>
      <trkpt lat="47.80221" lon="6.8964">
        <ele>579.8</ele>
        <time>2026-08-20T09:32:57.000Z</time>
      </trkpt>
      <trkpt lat="47.8021" lon="6.89616">
        <ele>579.8</ele>
        <time>2026-08-20T09:33:05.000Z</time>
      </trkpt>
      <trkpt lat="47.80205" lon="6.89604">
        <ele>579.8</ele>
        <time>2026-08-20T09:33:10.000Z</time>
      </trkpt>
      <trkpt lat="47.80203" lon="6.89597">
        <ele>579.8</ele>
        <time>2026-08-20T09:33:16.000Z</time>
      </trkpt>
      <trkpt lat="47.80199" lon="6.89594">
        <ele>580.2</ele>
        <time>2026-08-20T09:33:22.000Z</time>
      </trkpt>
      <trkpt lat="47.80193" lon="6.89589">
        <ele>580.4</ele>
        <time>2026-08-20T09:33:28.000Z</time>
      </trkpt>
      <trkpt lat="47.80192" lon="6.89578">
        <ele>580.2</ele>
        <time>2026-08-20T09:33:35.000Z</time>
      </trkpt>
      <trkpt lat="47.80192" lon="6.89573">
        <ele>580.8</ele>
        <time>2026-08-20T09:33:42.000Z</time>
      </trkpt>
      <trkpt lat="47.8019" lon="6.89571">
        <ele>580.8</ele>
        <time>2026-08-20T09:33:48.000Z</time>
      </trkpt>
      <trkpt lat="47.80188" lon="6.89565">
        <ele>580.4</ele>
        <time>2026-08-20T09:33:54.000Z</time>
      </trkpt>
      <trkpt lat="47.80187" lon="6.89563">
        <ele>580.4</ele>
        <time>2026-08-20T09:33:56.000Z</time>
      </trkpt>
      <trkpt lat="47.80186" lon="6.89555">
        <ele>580.6</ele>
        <time>2026-08-20T09:34:01.000Z</time>
      </trkpt>
      <trkpt lat="47.80185" lon="6.89553">
        <ele>580.4</ele>
        <time>2026-08-20T09:34:05.000Z</time>
      </trkpt>
      <trkpt lat="47.80185" lon="6.89549">
        <ele>580.4</ele>
        <time>2026-08-20T09:34:08.000Z</time>
      </trkpt>
      <trkpt lat="47.80182" lon="6.89542">
        <ele>580.4</ele>
        <time>2026-08-20T09:34:16.000Z</time>
      </trkpt>
      <trkpt lat="47.80179" lon="6.89527">
        <ele>580.6</ele>
        <time>2026-08-20T09:34:24.000Z</time>
      </trkpt>
      <trkpt lat="47.80181" lon="6.89526">
        <ele>580.4</ele>
        <time>2026-08-20T09:34:26.000Z</time>
      </trkpt>
      <trkpt lat="47.80183" lon="6.89524">
        <ele>580</ele>
        <time>2026-08-20T09:34:29.000Z</time>
      </trkpt>
      <trkpt lat="47.80194" lon="6.89517">
        <ele>580</ele>
        <time>2026-08-20T09:34:39.000Z</time>
      </trkpt>
      <trkpt lat="47.80195" lon="6.89516">
        <ele>580</ele>
        <time>2026-08-20T09:34:40.000Z</time>
      </trkpt>
      <trkpt lat="47.80198" lon="6.89511">
        <ele>580</ele>
        <time>2026-08-20T09:34:45.000Z</time>
      </trkpt>
      <trkpt lat="47.80198" lon="6.89509">
        <ele>580</ele>
        <time>2026-08-20T09:34:47.000Z</time>
      </trkpt>
      <trkpt lat="47.80198" lon="6.89509">
        <ele>580.2</ele>
        <time>2026-08-20T09:34:52.000Z</time>
      </trkpt>
      <trkpt lat="47.80196" lon="6.89495">
        <ele>580.4</ele>
        <time>2026-08-20T09:34:57.000Z</time>
      </trkpt>
      <trkpt lat="47.80194" lon="6.89482">
        <ele>581</ele>
        <time>2026-08-20T09:35:00.000Z</time>
      </trkpt>
      <trkpt lat="47.80191" lon="6.8947">
        <ele>581.8</ele>
        <time>2026-08-20T09:35:03.000Z</time>
      </trkpt>
      <trkpt lat="47.8019" lon="6.89466">
        <ele>582</ele>
        <time>2026-08-20T09:35:04.000Z</time>
      </trkpt>
      <trkpt lat="47.80188" lon="6.89457">
        <ele>582.4</ele>
        <time>2026-08-20T09:35:06.000Z</time>
      </trkpt>
      <trkpt lat="47.80185" lon="6.89444">
        <ele>583</ele>
        <time>2026-08-20T09:35:09.000Z</time>
      </trkpt>
      <trkpt lat="47.80178" lon="6.89424">
        <ele>584</ele>
        <time>2026-08-20T09:35:14.000Z</time>
      </trkpt>
      <trkpt lat="47.80177" lon="6.8942">
        <ele>584.2</ele>
        <time>2026-08-20T09:35:15.000Z</time>
      </trkpt>
      <trkpt lat="47.8017" lon="6.89406">
        <ele>585.2</ele>
        <time>2026-08-20T09:35:19.000Z</time>
      </trkpt>
      <trkpt lat="47.80169" lon="6.89402">
        <ele>585.6</ele>
        <time>2026-08-20T09:35:20.000Z</time>
      </trkpt>
      <trkpt lat="47.80165" lon="6.89394">
        <ele>586.4</ele>
        <time>2026-08-20T09:35:22.000Z</time>
      </trkpt>
      <trkpt lat="47.8016" lon="6.89377">
        <ele>587.6</ele>
        <time>2026-08-20T09:35:26.000Z</time>
      </trkpt>
      <trkpt lat="47.80157" lon="6.89368">
        <ele>587.8</ele>
        <time>2026-08-20T09:35:28.000Z</time>
      </trkpt>
      <trkpt lat="47.80152" lon="6.8935">
        <ele>588.6</ele>
        <time>2026-08-20T09:35:32.000Z</time>
      </trkpt>
      <trkpt lat="47.80146" lon="6.89323">
        <ele>589.2</ele>
        <time>2026-08-20T09:35:37.000Z</time>
      </trkpt>
      <trkpt lat="47.80144" lon="6.89305">
        <ele>589.6</ele>
        <time>2026-08-20T09:35:40.000Z</time>
      </trkpt>
      <trkpt lat="47.80142" lon="6.89279">
        <ele>590</ele>
        <time>2026-08-20T09:35:44.000Z</time>
      </trkpt>
      <trkpt lat="47.8014" lon="6.89252">
        <ele>590.8</ele>
        <time>2026-08-20T09:35:48.000Z</time>
      </trkpt>
      <trkpt lat="47.80137" lon="6.89224">
        <ele>591.4</ele>
        <time>2026-08-20T09:35:52.000Z</time>
      </trkpt>
      <trkpt lat="47.80134" lon="6.89197">
        <ele>591.6</ele>
        <time>2026-08-20T09:35:56.000Z</time>
      </trkpt>
      <trkpt lat="47.80133" lon="6.89182">
        <ele>591.8</ele>
        <time>2026-08-20T09:35:58.000Z</time>
      </trkpt>
      <trkpt lat="47.8013" lon="6.8916">
        <ele>592.2</ele>
        <time>2026-08-20T09:36:01.000Z</time>
      </trkpt>
      <trkpt lat="47.80129" lon="6.89131">
        <ele>592.6</ele>
        <time>2026-08-20T09:36:05.000Z</time>
      </trkpt>
      <trkpt lat="47.80129" lon="6.89102">
        <ele>593</ele>
        <time>2026-08-20T09:36:09.000Z</time>
      </trkpt>
      <trkpt lat="47.80129" lon="6.89095">
        <ele>593</ele>
        <time>2026-08-20T09:36:10.000Z</time>
      </trkpt>
      <trkpt lat="47.80129" lon="6.89067">
        <ele>593.6</ele>
        <time>2026-08-20T09:36:14.000Z</time>
      </trkpt>
      <trkpt lat="47.80129" lon="6.8906">
        <ele>594</ele>
        <time>2026-08-20T09:36:15.000Z</time>
      </trkpt>
      <trkpt lat="47.80126" lon="6.89031">
        <ele>594.8</ele>
        <time>2026-08-20T09:36:19.000Z</time>
      </trkpt>
      <trkpt lat="47.80125" lon="6.89024">
        <ele>594.8</ele>
        <time>2026-08-20T09:36:20.000Z</time>
      </trkpt>
      <trkpt lat="47.8012" lon="6.89003">
        <ele>595</ele>
        <time>2026-08-20T09:36:23.000Z</time>
      </trkpt>
      <trkpt lat="47.80112" lon="6.88976">
        <ele>595.8</ele>
        <time>2026-08-20T09:36:27.000Z</time>
      </trkpt>
      <trkpt lat="47.80108" lon="6.88963">
        <ele>596.2</ele>
        <time>2026-08-20T09:36:29.000Z</time>
      </trkpt>
      <trkpt lat="47.801" lon="6.88936">
        <ele>596.8</ele>
        <time>2026-08-20T09:36:33.000Z</time>
      </trkpt>
      <trkpt lat="47.80093" lon="6.88911">
        <ele>597.2</ele>
        <time>2026-08-20T09:36:37.000Z</time>
      </trkpt>
      <trkpt lat="47.8009" lon="6.88898">
        <ele>597.6</ele>
        <time>2026-08-20T09:36:39.000Z</time>
      </trkpt>
      <trkpt lat="47.80088" lon="6.88878">
        <ele>598.4</ele>
        <time>2026-08-20T09:36:42.000Z</time>
      </trkpt>
      <trkpt lat="47.80085" lon="6.88851">
        <ele>599.6</ele>
        <time>2026-08-20T09:36:46.000Z</time>
      </trkpt>
      <trkpt lat="47.80083" lon="6.88838">
        <ele>600</ele>
        <time>2026-08-20T09:36:48.000Z</time>
      </trkpt>
      <trkpt lat="47.80078" lon="6.88826">
        <ele>600.4</ele>
        <time>2026-08-20T09:36:50.000Z</time>
      </trkpt>
      <trkpt lat="47.80072" lon="6.88817">
        <ele>600.8</ele>
        <time>2026-08-20T09:36:52.000Z</time>
      </trkpt>
      <trkpt lat="47.80068" lon="6.88814">
        <ele>601</ele>
        <time>2026-08-20T09:36:53.000Z</time>
      </trkpt>
      <trkpt lat="47.80063" lon="6.88812">
        <ele>601.2</ele>
        <time>2026-08-20T09:36:54.000Z</time>
      </trkpt>
      <trkpt lat="47.80055" lon="6.88808">
        <ele>601.6</ele>
        <time>2026-08-20T09:36:56.000Z</time>
      </trkpt>
      <trkpt lat="47.80048" lon="6.88801">
        <ele>601.6</ele>
        <time>2026-08-20T09:36:58.000Z</time>
      </trkpt>
      <trkpt lat="47.80041" lon="6.88791">
        <ele>601.6</ele>
        <time>2026-08-20T09:37:00.000Z</time>
      </trkpt>
      <trkpt lat="47.80038" lon="6.88778">
        <ele>601.6</ele>
        <time>2026-08-20T09:37:02.000Z</time>
      </trkpt>
      <trkpt lat="47.80034" lon="6.88759">
        <ele>602</ele>
        <time>2026-08-20T09:37:05.000Z</time>
      </trkpt>
      <trkpt lat="47.80034" lon="6.88753">
        <ele>602.2</ele>
        <time>2026-08-20T09:37:06.000Z</time>
      </trkpt>
      <trkpt lat="47.80036" lon="6.88741">
        <ele>603.2</ele>
        <time>2026-08-20T09:37:08.000Z</time>
      </trkpt>
      <trkpt lat="47.80038" lon="6.88725">
        <ele>604.2</ele>
        <time>2026-08-20T09:37:11.000Z</time>
      </trkpt>
      <trkpt lat="47.8004" lon="6.88714">
        <ele>604.8</ele>
        <time>2026-08-20T09:37:13.000Z</time>
      </trkpt>
      <trkpt lat="47.80041" lon="6.88703">
        <ele>605.4</ele>
        <time>2026-08-20T09:37:15.000Z</time>
      </trkpt>
      <trkpt lat="47.8004" lon="6.88672">
        <ele>606.2</ele>
        <time>2026-08-20T09:37:20.000Z</time>
      </trkpt>
      <trkpt lat="47.80039" lon="6.88665">
        <ele>606.2</ele>
        <time>2026-08-20T09:37:21.000Z</time>
      </trkpt>
      <trkpt lat="47.80034" lon="6.88644">
        <ele>606.4</ele>
        <time>2026-08-20T09:37:24.000Z</time>
      </trkpt>
      <trkpt lat="47.80026" lon="6.88625">
        <ele>607</ele>
        <time>2026-08-20T09:37:27.000Z</time>
      </trkpt>
      <trkpt lat="47.80021" lon="6.88613">
        <ele>607.6</ele>
        <time>2026-08-20T09:37:29.000Z</time>
      </trkpt>
      <trkpt lat="47.80009" lon="6.88584">
        <ele>608.8</ele>
        <time>2026-08-20T09:37:34.000Z</time>
      </trkpt>
      <trkpt lat="47.80002" lon="6.88565">
        <ele>609.8</ele>
        <time>2026-08-20T09:37:37.000Z</time>
      </trkpt>
      <trkpt lat="47.8" lon="6.88559">
        <ele>610</ele>
        <time>2026-08-20T09:37:38.000Z</time>
      </trkpt>
      <trkpt lat="47.79991" lon="6.88534">
        <ele>610.8</ele>
        <time>2026-08-20T09:37:42.000Z</time>
      </trkpt>
      <trkpt lat="47.79987" lon="6.88523">
        <ele>611</ele>
        <time>2026-08-20T09:37:44.000Z</time>
      </trkpt>
      <trkpt lat="47.79984" lon="6.88517">
        <ele>611.2</ele>
        <time>2026-08-20T09:37:45.000Z</time>
      </trkpt>
      <trkpt lat="47.7998" lon="6.88513">
        <ele>611.2</ele>
        <time>2026-08-20T09:37:46.000Z</time>
      </trkpt>
      <trkpt lat="47.79971" lon="6.88505">
        <ele>611.6</ele>
        <time>2026-08-20T09:37:48.000Z</time>
      </trkpt>
      <trkpt lat="47.79966" lon="6.88502">
        <ele>611.8</ele>
        <time>2026-08-20T09:37:49.000Z</time>
      </trkpt>
      <trkpt lat="47.79956" lon="6.88494">
        <ele>612</ele>
        <time>2026-08-20T09:37:51.000Z</time>
      </trkpt>
      <trkpt lat="47.79936" lon="6.88482">
        <ele>613</ele>
        <time>2026-08-20T09:37:55.000Z</time>
      </trkpt>
      <trkpt lat="47.79931" lon="6.88479">
        <ele>613</ele>
        <time>2026-08-20T09:37:56.000Z</time>
      </trkpt>
      <trkpt lat="47.79926" lon="6.88476">
        <ele>613.2</ele>
        <time>2026-08-20T09:37:57.000Z</time>
      </trkpt>
      <trkpt lat="47.79908" lon="6.88466">
        <ele>614</ele>
        <time>2026-08-20T09:38:01.000Z</time>
      </trkpt>
      <trkpt lat="47.79904" lon="6.88463">
        <ele>614.4</ele>
        <time>2026-08-20T09:38:02.000Z</time>
      </trkpt>
      <trkpt lat="47.79896" lon="6.88458">
        <ele>615.2</ele>
        <time>2026-08-20T09:38:04.000Z</time>
      </trkpt>
      <trkpt lat="47.79892" lon="6.88455">
        <ele>615.6</ele>
        <time>2026-08-20T09:38:05.000Z</time>
      </trkpt>
      <trkpt lat="47.79878" lon="6.88445">
        <ele>616.6</ele>
        <time>2026-08-20T09:38:09.000Z</time>
      </trkpt>
      <trkpt lat="47.79873" lon="6.8844">
        <ele>617.2</ele>
        <time>2026-08-20T09:38:11.000Z</time>
      </trkpt>
      <trkpt lat="47.79871" lon="6.88436">
        <ele>617.4</ele>
        <time>2026-08-20T09:38:12.000Z</time>
      </trkpt>
      <trkpt lat="47.79869" lon="6.88432">
        <ele>617.8</ele>
        <time>2026-08-20T09:38:13.000Z</time>
      </trkpt>
      <trkpt lat="47.79867" lon="6.88427">
        <ele>618.4</ele>
        <time>2026-08-20T09:38:16.000Z</time>
      </trkpt>
      <trkpt lat="47.79867" lon="6.88427">
        <ele>618.8</ele>
        <time>2026-08-20T09:38:18.000Z</time>
      </trkpt>
      <trkpt lat="47.79867" lon="6.88427">
        <ele>619</ele>
        <time>2026-08-20T09:38:22.000Z</time>
      </trkpt>
      <trkpt lat="47.79867" lon="6.88427">
        <ele>619.2</ele>
        <time>2026-08-20T09:38:27.000Z</time>
      </trkpt>
      <trkpt lat="47.79867" lon="6.88427">
        <ele>619.2</ele>
        <time>2026-08-20T09:38:34.000Z</time>
      </trkpt>
      <trkpt lat="47.79867" lon="6.88427">
        <ele>619.2</ele>
        <time>2026-08-20T09:38:42.000Z</time>
      </trkpt>
      <trkpt lat="47.79866" lon="6.88428">
        <ele>619</ele>
        <time>2026-08-20T09:38:50.000Z</time>
      </trkpt>
      <trkpt lat="47.79856" lon="6.88421">
        <ele>619.6</ele>
        <time>2026-08-20T09:38:54.000Z</time>
      </trkpt>
      <trkpt lat="47.79852" lon="6.88413">
        <ele>620</ele>
        <time>2026-08-20T09:38:56.000Z</time>
      </trkpt>
      <trkpt lat="47.79843" lon="6.88398">
        <ele>620.8</ele>
        <time>2026-08-20T09:39:00.000Z</time>
      </trkpt>
      <trkpt lat="47.7984" lon="6.88394">
        <ele>621</ele>
        <time>2026-08-20T09:39:01.000Z</time>
      </trkpt>
      <trkpt lat="47.79838" lon="6.88389">
        <ele>621.4</ele>
        <time>2026-08-20T09:39:02.000Z</time>
      </trkpt>
      <trkpt lat="47.7983" lon="6.88375">
        <ele>621.8</ele>
        <time>2026-08-20T09:39:05.000Z</time>
      </trkpt>
      <trkpt lat="47.79822" lon="6.88361">
        <ele>622.2</ele>
        <time>2026-08-20T09:39:08.000Z</time>
      </trkpt>
      <trkpt lat="47.7981" lon="6.88343">
        <ele>622.8</ele>
        <time>2026-08-20T09:39:12.000Z</time>
      </trkpt>
      <trkpt lat="47.79795" lon="6.88325">
        <ele>623.2</ele>
        <time>2026-08-20T09:39:16.000Z</time>
      </trkpt>
      <trkpt lat="47.79787" lon="6.88316">
        <ele>623.2</ele>
        <time>2026-08-20T09:39:18.000Z</time>
      </trkpt>
      <trkpt lat="47.79779" lon="6.88307">
        <ele>623.4</ele>
        <time>2026-08-20T09:39:20.000Z</time>
      </trkpt>
      <trkpt lat="47.79775" lon="6.88303">
        <ele>623.4</ele>
        <time>2026-08-20T09:39:21.000Z</time>
      </trkpt>
      <trkpt lat="47.79761" lon="6.88284">
        <ele>623.4</ele>
        <time>2026-08-20T09:39:25.000Z</time>
      </trkpt>
      <trkpt lat="47.79746" lon="6.88267">
        <ele>623.4</ele>
        <time>2026-08-20T09:39:29.000Z</time>
      </trkpt>
      <trkpt lat="47.7973" lon="6.88248">
        <ele>624</ele>
        <time>2026-08-20T09:39:33.000Z</time>
      </trkpt>
      <trkpt lat="47.79726" lon="6.88244">
        <ele>624.2</ele>
        <time>2026-08-20T09:39:34.000Z</time>
      </trkpt>
      <trkpt lat="47.79709" lon="6.88229">
        <ele>625.2</ele>
        <time>2026-08-20T09:39:38.000Z</time>
      </trkpt>
      <trkpt lat="47.79705" lon="6.88226">
        <ele>625.4</ele>
        <time>2026-08-20T09:39:39.000Z</time>
      </trkpt>
      <trkpt lat="47.79693" lon="6.88217">
        <ele>625.6</ele>
        <time>2026-08-20T09:39:42.000Z</time>
      </trkpt>
      <trkpt lat="47.79677" lon="6.88206">
        <ele>626.4</ele>
        <time>2026-08-20T09:39:46.000Z</time>
      </trkpt>
      <trkpt lat="47.79657" lon="6.88191">
        <ele>627.4</ele>
        <time>2026-08-20T09:39:51.000Z</time>
      </trkpt>
      <trkpt lat="47.79654" lon="6.88188">
        <ele>627.6</ele>
        <time>2026-08-20T09:39:52.000Z</time>
      </trkpt>
      <trkpt lat="47.79637" lon="6.88175">
        <ele>628.4</ele>
        <time>2026-08-20T09:39:56.000Z</time>
      </trkpt>
      <trkpt lat="47.79633" lon="6.88172">
        <ele>628.8</ele>
        <time>2026-08-20T09:39:57.000Z</time>
      </trkpt>
      <trkpt lat="47.79619" lon="6.88158">
        <ele>629.8</ele>
        <time>2026-08-20T09:40:01.000Z</time>
      </trkpt>
      <trkpt lat="47.79616" lon="6.88155">
        <ele>630.2</ele>
        <time>2026-08-20T09:40:02.000Z</time>
      </trkpt>
      <trkpt lat="47.79603" lon="6.88145">
        <ele>631.2</ele>
        <time>2026-08-20T09:40:06.000Z</time>
      </trkpt>
      <trkpt lat="47.79593" lon="6.88137">
        <ele>632.4</ele>
        <time>2026-08-20T09:40:09.000Z</time>
      </trkpt>
      <trkpt lat="47.7959" lon="6.88134">
        <ele>633</ele>
        <time>2026-08-20T09:40:10.000Z</time>
      </trkpt>
      <trkpt lat="47.79583" lon="6.88129">
        <ele>633.6</ele>
        <time>2026-08-20T09:40:12.000Z</time>
      </trkpt>
      <trkpt lat="47.79572" lon="6.8812">
        <ele>634.6</ele>
        <time>2026-08-20T09:40:15.000Z</time>
      </trkpt>
      <trkpt lat="47.7956" lon="6.88109">
        <ele>635.8</ele>
        <time>2026-08-20T09:40:19.000Z</time>
      </trkpt>
      <trkpt lat="47.79556" lon="6.88107">
        <ele>636.2</ele>
        <time>2026-08-20T09:40:20.000Z</time>
      </trkpt>
      <trkpt lat="47.79547" lon="6.88097">
        <ele>637</ele>
        <time>2026-08-20T09:40:23.000Z</time>
      </trkpt>
      <trkpt lat="47.79544" lon="6.88094">
        <ele>637.2</ele>
        <time>2026-08-20T09:40:24.000Z</time>
      </trkpt>
      <trkpt lat="47.79532" lon="6.88079">
        <ele>638</ele>
        <time>2026-08-20T09:40:28.000Z</time>
      </trkpt>
      <trkpt lat="47.79529" lon="6.88075">
        <ele>638</ele>
        <time>2026-08-20T09:40:29.000Z</time>
      </trkpt>
      <trkpt lat="47.79513" lon="6.88053">
        <ele>639</ele>
        <time>2026-08-20T09:40:34.000Z</time>
      </trkpt>
      <trkpt lat="47.7951" lon="6.88048">
        <ele>639.2</ele>
        <time>2026-08-20T09:40:35.000Z</time>
      </trkpt>
      <trkpt lat="47.79501" lon="6.88032">
        <ele>639.4</ele>
        <time>2026-08-20T09:40:38.000Z</time>
      </trkpt>
      <trkpt lat="47.79488" lon="6.88013">
        <ele>639.6</ele>
        <time>2026-08-20T09:40:42.000Z</time>
      </trkpt>
      <trkpt lat="47.79473" lon="6.87997">
        <ele>640</ele>
        <time>2026-08-20T09:40:46.000Z</time>
      </trkpt>
      <trkpt lat="47.79457" lon="6.87984">
        <ele>640.2</ele>
        <time>2026-08-20T09:40:50.000Z</time>
      </trkpt>
      <trkpt lat="47.79453" lon="6.8798">
        <ele>640.2</ele>
        <time>2026-08-20T09:40:51.000Z</time>
      </trkpt>
      <trkpt lat="47.79446" lon="6.87972">
        <ele>640.6</ele>
        <time>2026-08-20T09:40:53.000Z</time>
      </trkpt>
      <trkpt lat="47.79433" lon="6.87954">
        <ele>641.4</ele>
        <time>2026-08-20T09:40:57.000Z</time>
      </trkpt>
      <trkpt lat="47.79422" lon="6.87934">
        <ele>642</ele>
        <time>2026-08-20T09:41:01.000Z</time>
      </trkpt>
      <trkpt lat="47.79417" lon="6.87923">
        <ele>642.4</ele>
        <time>2026-08-20T09:41:03.000Z</time>
      </trkpt>
      <trkpt lat="47.79406" lon="6.87897">
        <ele>643.2</ele>
        <time>2026-08-20T09:41:08.000Z</time>
      </trkpt>
      <trkpt lat="47.79404" lon="6.87891">
        <ele>643.6</ele>
        <time>2026-08-20T09:41:09.000Z</time>
      </trkpt>
      <trkpt lat="47.79402" lon="6.87886">
        <ele>643.8</ele>
        <time>2026-08-20T09:41:10.000Z</time>
      </trkpt>
      <trkpt lat="47.79394" lon="6.87871">
        <ele>644.8</ele>
        <time>2026-08-20T09:41:13.000Z</time>
      </trkpt>
      <trkpt lat="47.79386" lon="6.87859">
        <ele>646</ele>
        <time>2026-08-20T09:41:16.000Z</time>
      </trkpt>
      <trkpt lat="47.79383" lon="6.87856">
        <ele>646.4</ele>
        <time>2026-08-20T09:41:17.000Z</time>
      </trkpt>
      <trkpt lat="47.7938" lon="6.87853">
        <ele>646.8</ele>
        <time>2026-08-20T09:41:18.000Z</time>
      </trkpt>
      <trkpt lat="47.79377" lon="6.8785">
        <ele>647.2</ele>
        <time>2026-08-20T09:41:19.000Z</time>
      </trkpt>
      <trkpt lat="47.79363" lon="6.87839">
        <ele>648.2</ele>
        <time>2026-08-20T09:41:23.000Z</time>
      </trkpt>
      <trkpt lat="47.7935" lon="6.87828">
        <ele>649.4</ele>
        <time>2026-08-20T09:41:27.000Z</time>
      </trkpt>
      <trkpt lat="47.79347" lon="6.87825">
        <ele>649.8</ele>
        <time>2026-08-20T09:41:28.000Z</time>
      </trkpt>
      <trkpt lat="47.79336" lon="6.87817">
        <ele>650.6</ele>
        <time>2026-08-20T09:41:31.000Z</time>
      </trkpt>
      <trkpt lat="47.79329" lon="6.8781">
        <ele>651.2</ele>
        <time>2026-08-20T09:41:33.000Z</time>
      </trkpt>
      <trkpt lat="47.79322" lon="6.87803">
        <ele>651.8</ele>
        <time>2026-08-20T09:41:35.000Z</time>
      </trkpt>
      <trkpt lat="47.79315" lon="6.87796">
        <ele>652.2</ele>
        <time>2026-08-20T09:41:37.000Z</time>
      </trkpt>
      <trkpt lat="47.79296" lon="6.87788">
        <ele>652.2</ele>
        <time>2026-08-20T09:41:41.000Z</time>
      </trkpt>
      <trkpt lat="47.79291" lon="6.87787">
        <ele>652.2</ele>
        <time>2026-08-20T09:41:42.000Z</time>
      </trkpt>
      <trkpt lat="47.79273" lon="6.87787">
        <ele>652.2</ele>
        <time>2026-08-20T09:41:46.000Z</time>
      </trkpt>
      <trkpt lat="47.79254" lon="6.87786">
        <ele>652.6</ele>
        <time>2026-08-20T09:41:50.000Z</time>
      </trkpt>
      <trkpt lat="47.79246" lon="6.87786">
        <ele>653</ele>
        <time>2026-08-20T09:41:52.000Z</time>
      </trkpt>
      <trkpt lat="47.79234" lon="6.87783">
        <ele>653.6</ele>
        <time>2026-08-20T09:41:55.000Z</time>
      </trkpt>
      <trkpt lat="47.79225" lon="6.87778">
        <ele>654.2</ele>
        <time>2026-08-20T09:41:57.000Z</time>
      </trkpt>
      <trkpt lat="47.79221" lon="6.87775">
        <ele>654.4</ele>
        <time>2026-08-20T09:41:58.000Z</time>
      </trkpt>
      <trkpt lat="47.7921" lon="6.87769">
        <ele>655.2</ele>
        <time>2026-08-20T09:42:01.000Z</time>
      </trkpt>
      <trkpt lat="47.79197" lon="6.8776">
        <ele>656.4</ele>
        <time>2026-08-20T09:42:05.000Z</time>
      </trkpt>
      <trkpt lat="47.79184" lon="6.87755">
        <ele>657</ele>
        <time>2026-08-20T09:42:09.000Z</time>
      </trkpt>
      <trkpt lat="47.7918" lon="6.87755">
        <ele>657.4</ele>
        <time>2026-08-20T09:42:10.000Z</time>
      </trkpt>
      <trkpt lat="47.79166" lon="6.8776">
        <ele>658.6</ele>
        <time>2026-08-20T09:42:14.000Z</time>
      </trkpt>
      <trkpt lat="47.79162" lon="6.87762">
        <ele>658.8</ele>
        <time>2026-08-20T09:42:15.000Z</time>
      </trkpt>
      <trkpt lat="47.79154" lon="6.8777">
        <ele>659.6</ele>
        <time>2026-08-20T09:42:18.000Z</time>
      </trkpt>
      <trkpt lat="47.79144" lon="6.87784">
        <ele>660.6</ele>
        <time>2026-08-20T09:42:22.000Z</time>
      </trkpt>
      <trkpt lat="47.79142" lon="6.87788">
        <ele>660.8</ele>
        <time>2026-08-20T09:42:23.000Z</time>
      </trkpt>
      <trkpt lat="47.79134" lon="6.87801">
        <ele>661.8</ele>
        <time>2026-08-20T09:42:27.000Z</time>
      </trkpt>
      <trkpt lat="47.79124" lon="6.87813">
        <ele>662.8</ele>
        <time>2026-08-20T09:42:31.000Z</time>
      </trkpt>
      <trkpt lat="47.79122" lon="6.87816">
        <ele>663</ele>
        <time>2026-08-20T09:42:32.000Z</time>
      </trkpt>
      <trkpt lat="47.79111" lon="6.87822">
        <ele>664.2</ele>
        <time>2026-08-20T09:42:36.000Z</time>
      </trkpt>
      <trkpt lat="47.79105" lon="6.87823">
        <ele>664.8</ele>
        <time>2026-08-20T09:42:38.000Z</time>
      </trkpt>
      <trkpt lat="47.79103" lon="6.87823">
        <ele>665.2</ele>
        <time>2026-08-20T09:42:39.000Z</time>
      </trkpt>
      <trkpt lat="47.79091" lon="6.87822">
        <ele>666.6</ele>
        <time>2026-08-20T09:42:43.000Z</time>
      </trkpt>
      <trkpt lat="47.79082" lon="6.87821">
        <ele>667.6</ele>
        <time>2026-08-20T09:42:46.000Z</time>
      </trkpt>
      <trkpt lat="47.79073" lon="6.87819">
        <ele>668.8</ele>
        <time>2026-08-20T09:42:49.000Z</time>
      </trkpt>
      <trkpt lat="47.79059" lon="6.87817">
        <ele>670</ele>
        <time>2026-08-20T09:42:53.000Z</time>
      </trkpt>
      <trkpt lat="47.79052" lon="6.87818">
        <ele>670.8</ele>
        <time>2026-08-20T09:42:55.000Z</time>
      </trkpt>
      <trkpt lat="47.79049" lon="6.87818">
        <ele>671.2</ele>
        <time>2026-08-20T09:42:56.000Z</time>
      </trkpt>
      <trkpt lat="47.79038" lon="6.87821">
        <ele>672.2</ele>
        <time>2026-08-20T09:42:59.000Z</time>
      </trkpt>
      <trkpt lat="47.79028" lon="6.87824">
        <ele>673.4</ele>
        <time>2026-08-20T09:43:02.000Z</time>
      </trkpt>
      <trkpt lat="47.79025" lon="6.87826">
        <ele>673.8</ele>
        <time>2026-08-20T09:43:03.000Z</time>
      </trkpt>
      <trkpt lat="47.79018" lon="6.87828">
        <ele>674.4</ele>
        <time>2026-08-20T09:43:05.000Z</time>
      </trkpt>
      <trkpt lat="47.79009" lon="6.8783">
        <ele>675.6</ele>
        <time>2026-08-20T09:43:08.000Z</time>
      </trkpt>
      <trkpt lat="47.78998" lon="6.87833">
        <ele>676.8</ele>
        <time>2026-08-20T09:43:11.000Z</time>
      </trkpt>
      <trkpt lat="47.78993" lon="6.8784">
        <ele>677.6</ele>
        <time>2026-08-20T09:43:13.000Z</time>
      </trkpt>
      <trkpt lat="47.78991" lon="6.87843">
        <ele>677.8</ele>
        <time>2026-08-20T09:43:14.000Z</time>
      </trkpt>
      <trkpt lat="47.78983" lon="6.87853">
        <ele>679</ele>
        <time>2026-08-20T09:43:17.000Z</time>
      </trkpt>
      <trkpt lat="47.78975" lon="6.87862">
        <ele>680.4</ele>
        <time>2026-08-20T09:43:20.000Z</time>
      </trkpt>
      <trkpt lat="47.78971" lon="6.87864">
        <ele>680.8</ele>
        <time>2026-08-20T09:43:21.000Z</time>
      </trkpt>
      <trkpt lat="47.78964" lon="6.87863">
        <ele>681.4</ele>
        <time>2026-08-20T09:43:23.000Z</time>
      </trkpt>
      <trkpt lat="47.78958" lon="6.87859">
        <ele>682</ele>
        <time>2026-08-20T09:43:25.000Z</time>
      </trkpt>
      <trkpt lat="47.78951" lon="6.87853">
        <ele>682.4</ele>
        <time>2026-08-20T09:43:27.000Z</time>
      </trkpt>
      <trkpt lat="47.78935" lon="6.87838">
        <ele>683</ele>
        <time>2026-08-20T09:43:32.000Z</time>
      </trkpt>
      <trkpt lat="47.78928" lon="6.87833">
        <ele>683.2</ele>
        <time>2026-08-20T09:43:34.000Z</time>
      </trkpt>
      <trkpt lat="47.78921" lon="6.87829">
        <ele>683.4</ele>
        <time>2026-08-20T09:43:36.000Z</time>
      </trkpt>
      <trkpt lat="47.78901" lon="6.87819">
        <ele>684.4</ele>
        <time>2026-08-20T09:43:42.000Z</time>
      </trkpt>
      <trkpt lat="47.78898" lon="6.87817">
        <ele>684.6</ele>
        <time>2026-08-20T09:43:43.000Z</time>
      </trkpt>
      <trkpt lat="47.78888" lon="6.87814">
        <ele>685.8</ele>
        <time>2026-08-20T09:43:46.000Z</time>
      </trkpt>
      <trkpt lat="47.78879" lon="6.8781">
        <ele>687</ele>
        <time>2026-08-20T09:43:49.000Z</time>
      </trkpt>
      <trkpt lat="47.7887" lon="6.87807">
        <ele>688</ele>
        <time>2026-08-20T09:43:52.000Z</time>
      </trkpt>
      <trkpt lat="47.78867" lon="6.87806">
        <ele>688.2</ele>
        <time>2026-08-20T09:43:53.000Z</time>
      </trkpt>
      <trkpt lat="47.78859" lon="6.87805">
        <ele>689.2</ele>
        <time>2026-08-20T09:43:56.000Z</time>
      </trkpt>
      <trkpt lat="47.78848" lon="6.87804">
        <ele>690.4</ele>
        <time>2026-08-20T09:44:00.000Z</time>
      </trkpt>
      <trkpt lat="47.7884" lon="6.87801">
        <ele>691</ele>
        <time>2026-08-20T09:44:03.000Z</time>
      </trkpt>
      <trkpt lat="47.78836" lon="6.87796">
        <ele>691.6</ele>
        <time>2026-08-20T09:44:05.000Z</time>
      </trkpt>
      <trkpt lat="47.78835" lon="6.87787">
        <ele>692.2</ele>
        <time>2026-08-20T09:44:08.000Z</time>
      </trkpt>
      <trkpt lat="47.78837" lon="6.87785">
        <ele>692.6</ele>
        <time>2026-08-20T09:44:10.000Z</time>
      </trkpt>
      <trkpt lat="47.78838" lon="6.87784">
        <ele>692.6</ele>
        <time>2026-08-20T09:44:12.000Z</time>
      </trkpt>
      <trkpt lat="47.78839" lon="6.87784">
        <ele>692.4</ele>
        <time>2026-08-20T09:44:16.000Z</time>
      </trkpt>
      <trkpt lat="47.78839" lon="6.87784">
        <ele>692.4</ele>
        <time>2026-08-20T09:44:20.000Z</time>
      </trkpt>
      <trkpt lat="47.78839" lon="6.87784">
        <ele>692.6</ele>
        <time>2026-08-20T09:44:23.000Z</time>
      </trkpt>
      <trkpt lat="47.78839" lon="6.87784">
        <ele>692.6</ele>
        <time>2026-08-20T09:44:27.000Z</time>
      </trkpt>
      <trkpt lat="47.78836" lon="6.87784">
        <ele>692.6</ele>
        <time>2026-08-20T09:44:48.000Z</time>
      </trkpt>
      <trkpt lat="47.78842" lon="6.87781">
        <ele>692.8</ele>
        <time>2026-08-20T09:44:55.000Z</time>
      </trkpt>
      <trkpt lat="47.78855" lon="6.87772">
        <ele>693.8</ele>
        <time>2026-08-20T09:45:00.000Z</time>
      </trkpt>
      <trkpt lat="47.78863" lon="6.87766">
        <ele>694.2</ele>
        <time>2026-08-20T09:45:03.000Z</time>
      </trkpt>
      <trkpt lat="47.78872" lon="6.87758">
        <ele>694.6</ele>
        <time>2026-08-20T09:45:06.000Z</time>
      </trkpt>
      <trkpt lat="47.78877" lon="6.87753">
        <ele>694.8</ele>
        <time>2026-08-20T09:45:08.000Z</time>
      </trkpt>
      <trkpt lat="47.78883" lon="6.87748">
        <ele>695.2</ele>
        <time>2026-08-20T09:45:10.000Z</time>
      </trkpt>
      <trkpt lat="47.78894" lon="6.87737">
        <ele>696</ele>
        <time>2026-08-20T09:45:14.000Z</time>
      </trkpt>
      <trkpt lat="47.789" lon="6.87733">
        <ele>696.4</ele>
        <time>2026-08-20T09:45:16.000Z</time>
      </trkpt>
      <trkpt lat="47.78905" lon="6.87729">
        <ele>696.8</ele>
        <time>2026-08-20T09:45:18.000Z</time>
      </trkpt>
      <trkpt lat="47.78908" lon="6.87728">
        <ele>697</ele>
        <time>2026-08-20T09:45:19.000Z</time>
      </trkpt>
      <trkpt lat="47.78917" lon="6.87724">
        <ele>697.8</ele>
        <time>2026-08-20T09:45:22.000Z</time>
      </trkpt>
      <trkpt lat="47.78919" lon="6.87723">
        <ele>698.2</ele>
        <time>2026-08-20T09:45:23.000Z</time>
      </trkpt>
      <trkpt lat="47.78927" lon="6.8772">
        <ele>699.4</ele>
        <time>2026-08-20T09:45:26.000Z</time>
      </trkpt>
      <trkpt lat="47.78938" lon="6.87714">
        <ele>700.6</ele>
        <time>2026-08-20T09:45:30.000Z</time>
      </trkpt>
      <trkpt lat="47.78944" lon="6.87711">
        <ele>701.4</ele>
        <time>2026-08-20T09:45:32.000Z</time>
      </trkpt>
      <trkpt lat="47.78947" lon="6.87709">
        <ele>701.8</ele>
        <time>2026-08-20T09:45:33.000Z</time>
      </trkpt>
      <trkpt lat="47.78965" lon="6.87697">
        <ele>702.6</ele>
        <time>2026-08-20T09:45:40.000Z</time>
      </trkpt>
      <trkpt lat="47.7897" lon="6.87694">
        <ele>702.8</ele>
        <time>2026-08-20T09:45:42.000Z</time>
      </trkpt>
      <trkpt lat="47.78988" lon="6.87687">
        <ele>704</ele>
        <time>2026-08-20T09:45:48.000Z</time>
      </trkpt>
      <trkpt lat="47.78999" lon="6.87688">
        <ele>705.2</ele>
        <time>2026-08-20T09:45:52.000Z</time>
      </trkpt>
      <trkpt lat="47.79011" lon="6.8769">
        <ele>706.2</ele>
        <time>2026-08-20T09:45:56.000Z</time>
      </trkpt>
      <trkpt lat="47.79025" lon="6.87689">
        <ele>707.4</ele>
        <time>2026-08-20T09:46:01.000Z</time>
      </trkpt>
      <trkpt lat="47.79036" lon="6.87687">
        <ele>708.6</ele>
        <time>2026-08-20T09:46:05.000Z</time>
      </trkpt>
      <trkpt lat="47.79045" lon="6.87686">
        <ele>709.4</ele>
        <time>2026-08-20T09:46:08.000Z</time>
      </trkpt>
      <trkpt lat="47.79047" lon="6.87686">
        <ele>709.8</ele>
        <time>2026-08-20T09:46:09.000Z</time>
      </trkpt>
      <trkpt lat="47.79058" lon="6.87685">
        <ele>710.8</ele>
        <time>2026-08-20T09:46:13.000Z</time>
      </trkpt>
      <trkpt lat="47.79067" lon="6.87683">
        <ele>711.6</ele>
        <time>2026-08-20T09:46:16.000Z</time>
      </trkpt>
      <trkpt lat="47.79069" lon="6.87683">
        <ele>712</ele>
        <time>2026-08-20T09:46:17.000Z</time>
      </trkpt>
      <trkpt lat="47.79081" lon="6.87678">
        <ele>713.2</ele>
        <time>2026-08-20T09:46:21.000Z</time>
      </trkpt>
      <trkpt lat="47.79089" lon="6.87674">
        <ele>714.2</ele>
        <time>2026-08-20T09:46:24.000Z</time>
      </trkpt>
      <trkpt lat="47.79091" lon="6.87673">
        <ele>714.4</ele>
        <time>2026-08-20T09:46:25.000Z</time>
      </trkpt>
      <trkpt lat="47.79102" lon="6.87668">
        <ele>715.6</ele>
        <time>2026-08-20T09:46:29.000Z</time>
      </trkpt>
      <trkpt lat="47.79109" lon="6.87663">
        <ele>716.2</ele>
        <time>2026-08-20T09:46:32.000Z</time>
      </trkpt>
      <trkpt lat="47.79114" lon="6.87658">
        <ele>716.6</ele>
        <time>2026-08-20T09:46:34.000Z</time>
      </trkpt>
      <trkpt lat="47.79127" lon="6.87647">
        <ele>717.6</ele>
        <time>2026-08-20T09:46:39.000Z</time>
      </trkpt>
      <trkpt lat="47.79132" lon="6.87641">
        <ele>718</ele>
        <time>2026-08-20T09:46:41.000Z</time>
      </trkpt>
      <trkpt lat="47.79138" lon="6.87632">
        <ele>718.8</ele>
        <time>2026-08-20T09:46:44.000Z</time>
      </trkpt>
      <trkpt lat="47.79141" lon="6.87618">
        <ele>720.2</ele>
        <time>2026-08-20T09:46:48.000Z</time>
      </trkpt>
      <trkpt lat="47.79143" lon="6.87602">
        <ele>721.4</ele>
        <time>2026-08-20T09:46:52.000Z</time>
      </trkpt>
      <trkpt lat="47.79145" lon="6.87586">
        <ele>722.6</ele>
        <time>2026-08-20T09:46:56.000Z</time>
      </trkpt>
      <trkpt lat="47.79145" lon="6.87582">
        <ele>723</ele>
        <time>2026-08-20T09:46:57.000Z</time>
      </trkpt>
      <trkpt lat="47.79147" lon="6.87569">
        <ele>723.8</ele>
        <time>2026-08-20T09:47:00.000Z</time>
      </trkpt>
      <trkpt lat="47.79148" lon="6.87548">
        <ele>724.8</ele>
        <time>2026-08-20T09:47:05.000Z</time>
      </trkpt>
      <trkpt lat="47.79148" lon="6.87543">
        <ele>725</ele>
        <time>2026-08-20T09:47:06.000Z</time>
      </trkpt>
      <trkpt lat="47.79148" lon="6.87526">
        <ele>726</ele>
        <time>2026-08-20T09:47:10.000Z</time>
      </trkpt>
      <trkpt lat="47.79154" lon="6.87513">
        <ele>726.6</ele>
        <time>2026-08-20T09:47:13.000Z</time>
      </trkpt>
      <trkpt lat="47.79159" lon="6.87509">
        <ele>727.2</ele>
        <time>2026-08-20T09:47:15.000Z</time>
      </trkpt>
      <trkpt lat="47.79169" lon="6.87508">
        <ele>727.8</ele>
        <time>2026-08-20T09:47:18.000Z</time>
      </trkpt>
      <trkpt lat="47.79175" lon="6.87509">
        <ele>728.2</ele>
        <time>2026-08-20T09:47:20.000Z</time>
      </trkpt>
      <trkpt lat="47.79186" lon="6.87514">
        <ele>729.4</ele>
        <time>2026-08-20T09:47:24.000Z</time>
      </trkpt>
      <trkpt lat="47.79188" lon="6.87516">
        <ele>729.6</ele>
        <time>2026-08-20T09:47:25.000Z</time>
      </trkpt>
      <trkpt lat="47.79196" lon="6.87521">
        <ele>730.4</ele>
        <time>2026-08-20T09:47:28.000Z</time>
      </trkpt>
      <trkpt lat="47.79207" lon="6.87527">
        <ele>731.6</ele>
        <time>2026-08-20T09:47:32.000Z</time>
      </trkpt>
      <trkpt lat="47.79217" lon="6.87535">
        <ele>732.6</ele>
        <time>2026-08-20T09:47:36.000Z</time>
      </trkpt>
      <trkpt lat="47.79228" lon="6.87538">
        <ele>734</ele>
        <time>2026-08-20T09:47:40.000Z</time>
      </trkpt>
      <trkpt lat="47.79238" lon="6.87541">
        <ele>735</ele>
        <time>2026-08-20T09:47:44.000Z</time>
      </trkpt>
      <trkpt lat="47.7924" lon="6.87541">
        <ele>735.2</ele>
        <time>2026-08-20T09:47:45.000Z</time>
      </trkpt>
      <trkpt lat="47.79247" lon="6.87545">
        <ele>736</ele>
        <time>2026-08-20T09:47:48.000Z</time>
      </trkpt>
      <trkpt lat="47.79257" lon="6.87548">
        <ele>737</ele>
        <time>2026-08-20T09:47:52.000Z</time>
      </trkpt>
      <trkpt lat="47.79265" lon="6.87551">
        <ele>737.8</ele>
        <time>2026-08-20T09:47:55.000Z</time>
      </trkpt>
      <trkpt lat="47.79268" lon="6.87551">
        <ele>738.2</ele>
        <time>2026-08-20T09:47:56.000Z</time>
      </trkpt>
      <trkpt lat="47.79282" lon="6.8755">
        <ele>739.2</ele>
        <time>2026-08-20T09:48:01.000Z</time>
      </trkpt>
      <trkpt lat="47.79291" lon="6.87551">
        <ele>739.8</ele>
        <time>2026-08-20T09:48:04.000Z</time>
      </trkpt>
      <trkpt lat="47.79297" lon="6.87553">
        <ele>740.4</ele>
        <time>2026-08-20T09:48:06.000Z</time>
      </trkpt>
      <trkpt lat="47.79307" lon="6.87556">
        <ele>741</ele>
        <time>2026-08-20T09:48:09.000Z</time>
      </trkpt>
      <trkpt lat="47.79313" lon="6.87558">
        <ele>741.4</ele>
        <time>2026-08-20T09:48:11.000Z</time>
      </trkpt>
      <trkpt lat="47.79318" lon="6.8756">
        <ele>742</ele>
        <time>2026-08-20T09:48:13.000Z</time>
      </trkpt>
      <trkpt lat="47.79326" lon="6.87562">
        <ele>742.4</ele>
        <time>2026-08-20T09:48:16.000Z</time>
      </trkpt>
      <trkpt lat="47.79338" lon="6.87565">
        <ele>743.6</ele>
        <time>2026-08-20T09:48:20.000Z</time>
      </trkpt>
      <trkpt lat="47.79347" lon="6.87567">
        <ele>744.4</ele>
        <time>2026-08-20T09:48:23.000Z</time>
      </trkpt>
      <trkpt lat="47.7935" lon="6.87567">
        <ele>744.6</ele>
        <time>2026-08-20T09:48:24.000Z</time>
      </trkpt>
      <trkpt lat="47.79362" lon="6.8757">
        <ele>746</ele>
        <time>2026-08-20T09:48:28.000Z</time>
      </trkpt>
      <trkpt lat="47.79374" lon="6.87574">
        <ele>747.4</ele>
        <time>2026-08-20T09:48:32.000Z</time>
      </trkpt>
      <trkpt lat="47.79377" lon="6.87576">
        <ele>747.6</ele>
        <time>2026-08-20T09:48:33.000Z</time>
      </trkpt>
      <trkpt lat="47.79383" lon="6.87577">
        <ele>748.4</ele>
        <time>2026-08-20T09:48:35.000Z</time>
      </trkpt>
      <trkpt lat="47.79393" lon="6.87571">
        <ele>749.6</ele>
        <time>2026-08-20T09:48:39.000Z</time>
      </trkpt>
      <trkpt lat="47.79399" lon="6.87566">
        <ele>750.2</ele>
        <time>2026-08-20T09:48:41.000Z</time>
      </trkpt>
      <trkpt lat="47.79405" lon="6.87563">
        <ele>750.8</ele>
        <time>2026-08-20T09:48:43.000Z</time>
      </trkpt>
      <trkpt lat="47.79412" lon="6.87562">
        <ele>751</ele>
        <time>2026-08-20T09:48:45.000Z</time>
      </trkpt>
      <trkpt lat="47.79424" lon="6.87566">
        <ele>751.8</ele>
        <time>2026-08-20T09:48:49.000Z</time>
      </trkpt>
      <trkpt lat="47.79427" lon="6.87568">
        <ele>752</ele>
        <time>2026-08-20T09:48:50.000Z</time>
      </trkpt>
      <trkpt lat="47.79436" lon="6.87575">
        <ele>752.8</ele>
        <time>2026-08-20T09:48:53.000Z</time>
      </trkpt>
      <trkpt lat="47.79447" lon="6.87586">
        <ele>753.6</ele>
        <time>2026-08-20T09:48:57.000Z</time>
      </trkpt>
      <trkpt lat="47.79449" lon="6.87589">
        <ele>754</ele>
        <time>2026-08-20T09:48:58.000Z</time>
      </trkpt>
      <trkpt lat="47.79458" lon="6.87603">
        <ele>755</ele>
        <time>2026-08-20T09:49:02.000Z</time>
      </trkpt>
      <trkpt lat="47.79464" lon="6.87614">
        <ele>755.8</ele>
        <time>2026-08-20T09:49:05.000Z</time>
      </trkpt>
      <trkpt lat="47.79468" lon="6.8762">
        <ele>756.4</ele>
        <time>2026-08-20T09:49:07.000Z</time>
      </trkpt>
      <trkpt lat="47.79479" lon="6.87636">
        <ele>757.6</ele>
        <time>2026-08-20T09:49:12.000Z</time>
      </trkpt>
      <trkpt lat="47.79489" lon="6.87651">
        <ele>758.8</ele>
        <time>2026-08-20T09:49:17.000Z</time>
      </trkpt>
      <trkpt lat="47.79497" lon="6.87662">
        <ele>759.8</ele>
        <time>2026-08-20T09:49:20.000Z</time>
      </trkpt>
      <trkpt lat="47.795" lon="6.87664">
        <ele>759.8</ele>
        <time>2026-08-20T09:49:21.000Z</time>
      </trkpt>
      <trkpt lat="47.79513" lon="6.87681">
        <ele>760.8</ele>
        <time>2026-08-20T09:49:26.000Z</time>
      </trkpt>
      <trkpt lat="47.79516" lon="6.87684">
        <ele>761</ele>
        <time>2026-08-20T09:49:27.000Z</time>
      </trkpt>
      <trkpt lat="47.79525" lon="6.87697">
        <ele>761.8</ele>
        <time>2026-08-20T09:49:31.000Z</time>
      </trkpt>
      <trkpt lat="47.79539" lon="6.87711">
        <ele>763</ele>
        <time>2026-08-20T09:49:36.000Z</time>
      </trkpt>
      <trkpt lat="47.79552" lon="6.87725">
        <ele>764</ele>
        <time>2026-08-20T09:49:41.000Z</time>
      </trkpt>
      <trkpt lat="47.7956" lon="6.87735">
        <ele>764.8</ele>
        <time>2026-08-20T09:49:44.000Z</time>
      </trkpt>
      <trkpt lat="47.79565" lon="6.87741">
        <ele>765.2</ele>
        <time>2026-08-20T09:49:46.000Z</time>
      </trkpt>
      <trkpt lat="47.79577" lon="6.87758">
        <ele>766.4</ele>
        <time>2026-08-20T09:49:51.000Z</time>
      </trkpt>
      <trkpt lat="47.79579" lon="6.87761">
        <ele>766.6</ele>
        <time>2026-08-20T09:49:52.000Z</time>
      </trkpt>
      <trkpt lat="47.79588" lon="6.87775">
        <ele>767.4</ele>
        <time>2026-08-20T09:49:56.000Z</time>
      </trkpt>
      <trkpt lat="47.79597" lon="6.87786">
        <ele>768.4</ele>
        <time>2026-08-20T09:50:00.000Z</time>
      </trkpt>
      <trkpt lat="47.796" lon="6.87788">
        <ele>768.8</ele>
        <time>2026-08-20T09:50:01.000Z</time>
      </trkpt>
      <trkpt lat="47.79608" lon="6.87794">
        <ele>769.6</ele>
        <time>2026-08-20T09:50:04.000Z</time>
      </trkpt>
      <trkpt lat="47.79619" lon="6.87794">
        <ele>770.6</ele>
        <time>2026-08-20T09:50:08.000Z</time>
      </trkpt>
      <trkpt lat="47.79638" lon="6.87789">
        <ele>771.8</ele>
        <time>2026-08-20T09:50:14.000Z</time>
      </trkpt>
      <trkpt lat="47.79651" lon="6.87786">
        <ele>772.8</ele>
        <time>2026-08-20T09:50:18.000Z</time>
      </trkpt>
      <trkpt lat="47.79654" lon="6.87786">
        <ele>773</ele>
        <time>2026-08-20T09:50:19.000Z</time>
      </trkpt>
      <trkpt lat="47.79671" lon="6.87783">
        <ele>774.2</ele>
        <time>2026-08-20T09:50:24.000Z</time>
      </trkpt>
      <trkpt lat="47.79683" lon="6.87777">
        <ele>775.2</ele>
        <time>2026-08-20T09:50:28.000Z</time>
      </trkpt>
      <trkpt lat="47.79695" lon="6.8777">
        <ele>776.2</ele>
        <time>2026-08-20T09:50:32.000Z</time>
      </trkpt>
      <trkpt lat="47.79706" lon="6.87763">
        <ele>777.4</ele>
        <time>2026-08-20T09:50:36.000Z</time>
      </trkpt>
      <trkpt lat="47.79709" lon="6.87762">
        <ele>777.6</ele>
        <time>2026-08-20T09:50:37.000Z</time>
      </trkpt>
      <trkpt lat="47.79722" lon="6.87757">
        <ele>778.4</ele>
        <time>2026-08-20T09:50:41.000Z</time>
      </trkpt>
      <trkpt lat="47.79732" lon="6.87756">
        <ele>779.2</ele>
        <time>2026-08-20T09:50:44.000Z</time>
      </trkpt>
      <trkpt lat="47.79738" lon="6.87753">
        <ele>779.4</ele>
        <time>2026-08-20T09:50:46.000Z</time>
      </trkpt>
      <trkpt lat="47.7975" lon="6.87745">
        <ele>780.2</ele>
        <time>2026-08-20T09:50:50.000Z</time>
      </trkpt>
      <trkpt lat="47.79754" lon="6.87738">
        <ele>780.6</ele>
        <time>2026-08-20T09:50:52.000Z</time>
      </trkpt>
      <trkpt lat="47.79758" lon="6.87725">
        <ele>781.4</ele>
        <time>2026-08-20T09:50:56.000Z</time>
      </trkpt>
      <trkpt lat="47.7976" lon="6.8772">
        <ele>781.6</ele>
        <time>2026-08-20T09:50:58.000Z</time>
      </trkpt>
      <trkpt lat="47.79762" lon="6.87713">
        <ele>782.4</ele>
        <time>2026-08-20T09:51:02.000Z</time>
      </trkpt>
      <trkpt lat="47.79762" lon="6.87712">
        <ele>782.6</ele>
        <time>2026-08-20T09:51:05.000Z</time>
      </trkpt>
      <trkpt lat="47.79762" lon="6.87712">
        <ele>782.8</ele>
        <time>2026-08-20T09:51:17.000Z</time>
      </trkpt>
      <trkpt lat="47.79762" lon="6.87714">
        <ele>783.4</ele>
        <time>2026-08-20T09:51:46.000Z</time>
      </trkpt>
      <trkpt lat="47.7976" lon="6.87723">
        <ele>783.2</ele>
        <time>2026-08-20T09:51:51.000Z</time>
      </trkpt>
      <trkpt lat="47.79756" lon="6.87736">
        <ele>782.6</ele>
        <time>2026-08-20T09:51:59.000Z</time>
      </trkpt>
      <trkpt lat="47.79755" lon="6.87738">
        <ele>782.6</ele>
        <time>2026-08-20T09:52:00.000Z</time>
      </trkpt>
      <trkpt lat="47.79754" lon="6.8774">
        <ele>782.4</ele>
        <time>2026-08-20T09:52:01.000Z</time>
      </trkpt>
      <trkpt lat="47.79751" lon="6.87743">
        <ele>782.2</ele>
        <time>2026-08-20T09:52:03.000Z</time>
      </trkpt>
      <trkpt lat="47.79747" lon="6.87738">
        <ele>781.8</ele>
        <time>2026-08-20T09:52:06.000Z</time>
      </trkpt>
      <trkpt lat="47.79748" lon="6.87733">
        <ele>783.2</ele>
        <time>2026-08-20T09:52:12.000Z</time>
      </trkpt>
      <trkpt lat="47.79749" lon="6.87732">
        <ele>783.8</ele>
        <time>2026-08-20T09:52:15.000Z</time>
      </trkpt>
      <trkpt lat="47.79749" lon="6.87732">
        <ele>784</ele>
        <time>2026-08-20T09:52:17.000Z</time>
      </trkpt>
      <trkpt lat="47.79749" lon="6.87729">
        <ele>784.4</ele>
        <time>2026-08-20T09:52:19.000Z</time>
      </trkpt>
      <trkpt lat="47.79749" lon="6.87725">
        <ele>785</ele>
        <time>2026-08-20T09:52:22.000Z</time>
      </trkpt>
      <trkpt lat="47.7975" lon="6.87724">
        <ele>785.4</ele>
        <time>2026-08-20T09:52:24.000Z</time>
      </trkpt>
      <trkpt lat="47.7975" lon="6.87723">
        <ele>785.8</ele>
        <time>2026-08-20T09:52:26.000Z</time>
      </trkpt>
      <trkpt lat="47.79751" lon="6.8772">
        <ele>786</ele>
        <time>2026-08-20T09:52:29.000Z</time>
      </trkpt>
      <trkpt lat="47.79751" lon="6.87721">
        <ele>786</ele>
        <time>2026-08-20T09:52:31.000Z</time>
      </trkpt>
      <trkpt lat="47.79751" lon="6.87722">
        <ele>785.8</ele>
        <time>2026-08-20T09:52:33.000Z</time>
      </trkpt>
      <trkpt lat="47.79751" lon="6.87719">
        <ele>786</ele>
        <time>2026-08-20T09:52:40.000Z</time>
      </trkpt>
      <trkpt lat="47.79751" lon="6.87718">
        <ele>786</ele>
        <time>2026-08-20T09:52:43.000Z</time>
      </trkpt>
      <trkpt lat="47.79751" lon="6.87718">
        <ele>786</ele>
        <time>2026-08-20T09:52:46.000Z</time>
      </trkpt>
      <trkpt lat="47.79751" lon="6.87714">
        <ele>786.4</ele>
        <time>2026-08-20T09:52:51.000Z</time>
      </trkpt>
      <trkpt lat="47.79754" lon="6.87708">
        <ele>787</ele>
        <time>2026-08-20T09:52:54.000Z</time>
      </trkpt>
      <trkpt lat="47.79756" lon="6.87701">
        <ele>788.2</ele>
        <time>2026-08-20T09:52:57.000Z</time>
      </trkpt>
      <trkpt lat="47.79756" lon="6.87698">
        <ele>788.4</ele>
        <time>2026-08-20T09:52:58.000Z</time>
      </trkpt>
      <trkpt lat="47.79758" lon="6.8769">
        <ele>789.4</ele>
        <time>2026-08-20T09:53:01.000Z</time>
      </trkpt>
      <trkpt lat="47.79759" lon="6.87682">
        <ele>790.4</ele>
        <time>2026-08-20T09:53:04.000Z</time>
      </trkpt>
      <trkpt lat="47.79759" lon="6.87677">
        <ele>791.2</ele>
        <time>2026-08-20T09:53:06.000Z</time>
      </trkpt>
      <trkpt lat="47.79759" lon="6.87675">
        <ele>791.4</ele>
        <time>2026-08-20T09:53:07.000Z</time>
      </trkpt>
      <trkpt lat="47.7976" lon="6.87663">
        <ele>792.8</ele>
        <time>2026-08-20T09:53:11.000Z</time>
      </trkpt>
      <trkpt lat="47.79759" lon="6.87658">
        <ele>793.4</ele>
        <time>2026-08-20T09:53:13.000Z</time>
      </trkpt>
      <trkpt lat="47.79758" lon="6.87653">
        <ele>794</ele>
        <time>2026-08-20T09:53:15.000Z</time>
      </trkpt>
      <trkpt lat="47.79756" lon="6.87643">
        <ele>795</ele>
        <time>2026-08-20T09:53:19.000Z</time>
      </trkpt>
      <trkpt lat="47.79754" lon="6.87636">
        <ele>795.4</ele>
        <time>2026-08-20T09:53:21.000Z</time>
      </trkpt>
      <trkpt lat="47.79752" lon="6.87623">
        <ele>796.2</ele>
        <time>2026-08-20T09:53:25.000Z</time>
      </trkpt>
      <trkpt lat="47.79752" lon="6.87612">
        <ele>797.4</ele>
        <time>2026-08-20T09:53:29.000Z</time>
      </trkpt>
      <trkpt lat="47.79752" lon="6.87609">
        <ele>797.8</ele>
        <time>2026-08-20T09:53:30.000Z</time>
      </trkpt>
      <trkpt lat="47.79752" lon="6.87606">
        <ele>798.6</ele>
        <time>2026-08-20T09:53:32.000Z</time>
      </trkpt>
      <trkpt lat="47.79753" lon="6.87595">
        <ele>800</ele>
        <time>2026-08-20T09:53:36.000Z</time>
      </trkpt>
      <trkpt lat="47.79754" lon="6.8759">
        <ele>800.6</ele>
        <time>2026-08-20T09:53:38.000Z</time>
      </trkpt>
      <trkpt lat="47.79755" lon="6.87581">
        <ele>801.2</ele>
        <time>2026-08-20T09:53:41.000Z</time>
      </trkpt>
      <trkpt lat="47.79759" lon="6.87569">
        <ele>802.4</ele>
        <time>2026-08-20T09:53:44.000Z</time>
      </trkpt>
      <trkpt lat="47.79761" lon="6.87562">
        <ele>803.6</ele>
        <time>2026-08-20T09:53:46.000Z</time>
      </trkpt>
      <trkpt lat="47.79762" lon="6.87556">
        <ele>804.8</ele>
        <time>2026-08-20T09:53:48.000Z</time>
      </trkpt>
      <trkpt lat="47.79761" lon="6.87549">
        <ele>806</ele>
        <time>2026-08-20T09:53:50.000Z</time>
      </trkpt>
      <trkpt lat="47.79762" lon="6.87542">
        <ele>807.2</ele>
        <time>2026-08-20T09:53:52.000Z</time>
      </trkpt>
      <trkpt lat="47.79762" lon="6.87536">
        <ele>808.4</ele>
        <time>2026-08-20T09:53:54.000Z</time>
      </trkpt>
      <trkpt lat="47.79762" lon="6.8753">
        <ele>809.6</ele>
        <time>2026-08-20T09:53:56.000Z</time>
      </trkpt>
      <trkpt lat="47.79763" lon="6.87524">
        <ele>810.6</ele>
        <time>2026-08-20T09:53:58.000Z</time>
      </trkpt>
      <trkpt lat="47.79762" lon="6.87519">
        <ele>811.6</ele>
        <time>2026-08-20T09:54:00.000Z</time>
      </trkpt>
      <trkpt lat="47.79762" lon="6.87514">
        <ele>812.6</ele>
        <time>2026-08-20T09:54:02.000Z</time>
      </trkpt>
      <trkpt lat="47.79762" lon="6.87512">
        <ele>813.2</ele>
        <time>2026-08-20T09:54:03.000Z</time>
      </trkpt>
      <trkpt lat="47.79761" lon="6.875">
        <ele>814.2</ele>
        <time>2026-08-20T09:54:07.000Z</time>
      </trkpt>
      <trkpt lat="47.79762" lon="6.87491">
        <ele>815</ele>
        <time>2026-08-20T09:54:10.000Z</time>
      </trkpt>
      <trkpt lat="47.79761" lon="6.87485">
        <ele>815.6</ele>
        <time>2026-08-20T09:54:12.000Z</time>
      </trkpt>
      <trkpt lat="47.7976" lon="6.87477">
        <ele>816.8</ele>
        <time>2026-08-20T09:54:15.000Z</time>
      </trkpt>
      <trkpt lat="47.79759" lon="6.87472">
        <ele>817.6</ele>
        <time>2026-08-20T09:54:17.000Z</time>
      </trkpt>
      <trkpt lat="47.79759" lon="6.8747">
        <ele>817.8</ele>
        <time>2026-08-20T09:54:18.000Z</time>
      </trkpt>
      <trkpt lat="47.79758" lon="6.87463">
        <ele>819</ele>
        <time>2026-08-20T09:54:21.000Z</time>
      </trkpt>
      <trkpt lat="47.79758" lon="6.87459">
        <ele>819.8</ele>
        <time>2026-08-20T09:54:23.000Z</time>
      </trkpt>
      <trkpt lat="47.79758" lon="6.87457">
        <ele>820.2</ele>
        <time>2026-08-20T09:54:24.000Z</time>
      </trkpt>
      <trkpt lat="47.79757" lon="6.87448">
        <ele>821.4</ele>
        <time>2026-08-20T09:54:27.000Z</time>
      </trkpt>
      <trkpt lat="47.79757" lon="6.87442">
        <ele>822.2</ele>
        <time>2026-08-20T09:54:29.000Z</time>
      </trkpt>
      <trkpt lat="47.79757" lon="6.8744">
        <ele>822.6</ele>
        <time>2026-08-20T09:54:30.000Z</time>
      </trkpt>
      <trkpt lat="47.79755" lon="6.8743">
        <ele>823.6</ele>
        <time>2026-08-20T09:54:34.000Z</time>
      </trkpt>
      <trkpt lat="47.79754" lon="6.87418">
        <ele>824.6</ele>
        <time>2026-08-20T09:54:38.000Z</time>
      </trkpt>
      <trkpt lat="47.79754" lon="6.87414">
        <ele>824.8</ele>
        <time>2026-08-20T09:54:39.000Z</time>
      </trkpt>
      <trkpt lat="47.79754" lon="6.87402">
        <ele>825.8</ele>
        <time>2026-08-20T09:54:44.000Z</time>
      </trkpt>
      <trkpt lat="47.79754" lon="6.87399">
        <ele>826</ele>
        <time>2026-08-20T09:54:45.000Z</time>
      </trkpt>
      <trkpt lat="47.79754" lon="6.87387">
        <ele>827.2</ele>
        <time>2026-08-20T09:54:49.000Z</time>
      </trkpt>
      <trkpt lat="47.79753" lon="6.87377">
        <ele>828</ele>
        <time>2026-08-20T09:54:53.000Z</time>
      </trkpt>
      <trkpt lat="47.79753" lon="6.87374">
        <ele>828.2</ele>
        <time>2026-08-20T09:54:54.000Z</time>
      </trkpt>
      <trkpt lat="47.79752" lon="6.87363">
        <ele>829.2</ele>
        <time>2026-08-20T09:54:58.000Z</time>
      </trkpt>
      <trkpt lat="47.7975" lon="6.8735">
        <ele>830.6</ele>
        <time>2026-08-20T09:55:02.000Z</time>
      </trkpt>
      <trkpt lat="47.79749" lon="6.87339">
        <ele>831.8</ele>
        <time>2026-08-20T09:55:05.000Z</time>
      </trkpt>
      <trkpt lat="47.79749" lon="6.87333">
        <ele>833.2</ele>
        <time>2026-08-20T09:55:07.000Z</time>
      </trkpt>
      <trkpt lat="47.79748" lon="6.87328">
        <ele>834.2</ele>
        <time>2026-08-20T09:55:09.000Z</time>
      </trkpt>
      <trkpt lat="47.79747" lon="6.87327">
        <ele>834.6</ele>
        <time>2026-08-20T09:55:12.000Z</time>
      </trkpt>
      <trkpt lat="47.79746" lon="6.87328">
        <ele>834.6</ele>
        <time>2026-08-20T09:55:13.000Z</time>
      </trkpt>
      <trkpt lat="47.79744" lon="6.87343">
        <ele>835</ele>
        <time>2026-08-20T09:55:18.000Z</time>
      </trkpt>
      <trkpt lat="47.79742" lon="6.87349">
        <ele>835.2</ele>
        <time>2026-08-20T09:55:20.000Z</time>
      </trkpt>
      <trkpt lat="47.79739" lon="6.87362">
        <ele>835.8</ele>
        <time>2026-08-20T09:55:24.000Z</time>
      </trkpt>
      <trkpt lat="47.79738" lon="6.87366">
        <ele>836</ele>
        <time>2026-08-20T09:55:25.000Z</time>
      </trkpt>
      <trkpt lat="47.79735" lon="6.87377">
        <ele>836.4</ele>
        <time>2026-08-20T09:55:28.000Z</time>
      </trkpt>
      <trkpt lat="47.79729" lon="6.874">
        <ele>837</ele>
        <time>2026-08-20T09:55:34.000Z</time>
      </trkpt>
      <trkpt lat="47.79726" lon="6.87415">
        <ele>837.4</ele>
        <time>2026-08-20T09:55:37.000Z</time>
      </trkpt>
      <trkpt lat="47.79719" lon="6.87438">
        <ele>837.8</ele>
        <time>2026-08-20T09:55:42.000Z</time>
      </trkpt>
      <trkpt lat="47.79713" lon="6.87458">
        <ele>838.4</ele>
        <time>2026-08-20T09:55:47.000Z</time>
      </trkpt>
      <trkpt lat="47.79708" lon="6.87476">
        <ele>839</ele>
        <time>2026-08-20T09:55:51.000Z</time>
      </trkpt>
      <trkpt lat="47.79702" lon="6.87498">
        <ele>839.6</ele>
        <time>2026-08-20T09:55:56.000Z</time>
      </trkpt>
      <trkpt lat="47.79696" lon="6.87518">
        <ele>840.2</ele>
        <time>2026-08-20T09:56:00.000Z</time>
      </trkpt>
      <trkpt lat="47.79686" lon="6.87541">
        <ele>840.6</ele>
        <time>2026-08-20T09:56:05.000Z</time>
      </trkpt>
      <trkpt lat="47.79676" lon="6.87562">
        <ele>841.6</ele>
        <time>2026-08-20T09:56:10.000Z</time>
      </trkpt>
      <trkpt lat="47.79672" lon="6.87568">
        <ele>841.8</ele>
        <time>2026-08-20T09:56:12.000Z</time>
      </trkpt>
      <trkpt lat="47.79667" lon="6.87575">
        <ele>842</ele>
        <time>2026-08-20T09:56:15.000Z</time>
      </trkpt>
      <trkpt lat="47.79665" lon="6.87576">
        <ele>843.2</ele>
        <time>2026-08-20T09:56:16.000Z</time>
      </trkpt>
      <trkpt lat="47.79659" lon="6.87574">
        <ele>844.8</ele>
        <time>2026-08-20T09:56:19.000Z</time>
      </trkpt>
      <trkpt lat="47.79658" lon="6.8757">
        <ele>845.4</ele>
        <time>2026-08-20T09:56:20.000Z</time>
      </trkpt>
      <trkpt lat="47.79659" lon="6.87567">
        <ele>845.8</ele>
        <time>2026-08-20T09:56:21.000Z</time>
      </trkpt>
      <trkpt lat="47.7966" lon="6.87564">
        <ele>846</ele>
        <time>2026-08-20T09:56:22.000Z</time>
      </trkpt>
      <trkpt lat="47.79668" lon="6.87549">
        <ele>846</ele>
        <time>2026-08-20T09:56:27.000Z</time>
      </trkpt>
      <trkpt lat="47.79678" lon="6.87527">
        <ele>847</ele>
        <time>2026-08-20T09:56:34.000Z</time>
      </trkpt>
      <trkpt lat="47.79678" lon="6.87526">
        <ele>847.2</ele>
        <time>2026-08-20T09:56:35.000Z</time>
      </trkpt>
      <trkpt lat="47.79679" lon="6.87523">
        <ele>847.4</ele>
        <time>2026-08-20T09:56:41.000Z</time>
      </trkpt>
      <trkpt lat="47.79677" lon="6.87526">
        <ele>847.2</ele>
        <time>2026-08-20T09:56:59.000Z</time>
      </trkpt>
      <trkpt lat="47.79673" lon="6.87539">
        <ele>846.8</ele>
        <time>2026-08-20T09:57:03.000Z</time>
      </trkpt>
      <trkpt lat="47.79669" lon="6.87547">
        <ele>845.8</ele>
        <time>2026-08-20T09:57:06.000Z</time>
      </trkpt>
      <trkpt lat="47.7966" lon="6.87569">
        <ele>845</ele>
        <time>2026-08-20T09:57:09.000Z</time>
      </trkpt>
      <trkpt lat="47.79651" lon="6.87584">
        <ele>845</ele>
        <time>2026-08-20T09:57:12.000Z</time>
      </trkpt>
      <trkpt lat="47.79644" lon="6.87588">
        <ele>844.8</ele>
        <time>2026-08-20T09:57:14.000Z</time>
      </trkpt>
      <trkpt lat="47.79623" lon="6.87587">
        <ele>844.2</ele>
        <time>2026-08-20T09:57:20.000Z</time>
      </trkpt>
      <trkpt lat="47.79605" lon="6.87578">
        <ele>845</ele>
        <time>2026-08-20T09:57:25.000Z</time>
      </trkpt>
      <trkpt lat="47.79601" lon="6.87574">
        <ele>845.4</ele>
        <time>2026-08-20T09:57:26.000Z</time>
      </trkpt>
      <trkpt lat="47.79589" lon="6.87565">
        <ele>846</ele>
        <time>2026-08-20T09:57:29.000Z</time>
      </trkpt>
      <trkpt lat="47.79582" lon="6.87559">
        <ele>846.4</ele>
        <time>2026-08-20T09:57:31.000Z</time>
      </trkpt>
      <trkpt lat="47.79576" lon="6.87552">
        <ele>846.8</ele>
        <time>2026-08-20T09:57:33.000Z</time>
      </trkpt>
      <trkpt lat="47.79573" lon="6.87548">
        <ele>847</ele>
        <time>2026-08-20T09:57:34.000Z</time>
      </trkpt>
      <trkpt lat="47.79564" lon="6.8753">
        <ele>848</ele>
        <time>2026-08-20T09:57:38.000Z</time>
      </trkpt>
      <trkpt lat="47.79558" lon="6.87513">
        <ele>848.6</ele>
        <time>2026-08-20T09:57:41.000Z</time>
      </trkpt>
      <trkpt lat="47.79548" lon="6.87488">
        <ele>849</ele>
        <time>2026-08-20T09:57:46.000Z</time>
      </trkpt>
      <trkpt lat="47.7954" lon="6.87469">
        <ele>849.8</ele>
        <time>2026-08-20T09:57:50.000Z</time>
      </trkpt>
      <trkpt lat="47.79536" lon="6.87461">
        <ele>850.4</ele>
        <time>2026-08-20T09:57:52.000Z</time>
      </trkpt>
      <trkpt lat="47.79527" lon="6.87444">
        <ele>851.2</ele>
        <time>2026-08-20T09:57:56.000Z</time>
      </trkpt>
      <trkpt lat="47.79525" lon="6.8744">
        <ele>851.4</ele>
        <time>2026-08-20T09:57:57.000Z</time>
      </trkpt>
      <trkpt lat="47.79515" lon="6.87426">
        <ele>852.6</ele>
        <time>2026-08-20T09:58:01.000Z</time>
      </trkpt>
      <trkpt lat="47.79505" lon="6.87416">
        <ele>853.6</ele>
        <time>2026-08-20T09:58:05.000Z</time>
      </trkpt>
      <trkpt lat="47.79496" lon="6.87404">
        <ele>854.6</ele>
        <time>2026-08-20T09:58:09.000Z</time>
      </trkpt>
      <trkpt lat="47.79494" lon="6.87401">
        <ele>854.8</ele>
        <time>2026-08-20T09:58:10.000Z</time>
      </trkpt>
      <trkpt lat="47.79483" lon="6.87386">
        <ele>856</ele>
        <time>2026-08-20T09:58:15.000Z</time>
      </trkpt>
      <trkpt lat="47.79477" lon="6.87378">
        <ele>856.8</ele>
        <time>2026-08-20T09:58:18.000Z</time>
      </trkpt>
      <trkpt lat="47.79472" lon="6.87373">
        <ele>857.2</ele>
        <time>2026-08-20T09:58:20.000Z</time>
      </trkpt>
      <trkpt lat="47.79458" lon="6.87366">
        <ele>858</ele>
        <time>2026-08-20T09:58:25.000Z</time>
      </trkpt>
      <trkpt lat="47.79455" lon="6.87365">
        <ele>858.2</ele>
        <time>2026-08-20T09:58:26.000Z</time>
      </trkpt>
      <trkpt lat="47.79436" lon="6.87359">
        <ele>859</ele>
        <time>2026-08-20T09:58:32.000Z</time>
      </trkpt>
      <trkpt lat="47.7943" lon="6.87357">
        <ele>859.2</ele>
        <time>2026-08-20T09:58:34.000Z</time>
      </trkpt>
      <trkpt lat="47.79427" lon="6.87356">
        <ele>859.4</ele>
        <time>2026-08-20T09:58:35.000Z</time>
      </trkpt>
      <trkpt lat="47.79408" lon="6.87353">
        <ele>860.2</ele>
        <time>2026-08-20T09:58:41.000Z</time>
      </trkpt>
      <trkpt lat="47.79405" lon="6.87353">
        <ele>860.4</ele>
        <time>2026-08-20T09:58:42.000Z</time>
      </trkpt>
      <trkpt lat="47.79392" lon="6.87354">
        <ele>861</ele>
        <time>2026-08-20T09:58:46.000Z</time>
      </trkpt>
      <trkpt lat="47.79373" lon="6.87363">
        <ele>861.6</ele>
        <time>2026-08-20T09:58:52.000Z</time>
      </trkpt>
      <trkpt lat="47.7937" lon="6.87365">
        <ele>861.6</ele>
        <time>2026-08-20T09:58:53.000Z</time>
      </trkpt>
      <trkpt lat="47.79351" lon="6.87362">
        <ele>862</ele>
        <time>2026-08-20T09:58:59.000Z</time>
      </trkpt>
      <trkpt lat="47.79334" lon="6.87347">
        <ele>862.2</ele>
        <time>2026-08-20T09:59:04.000Z</time>
      </trkpt>
      <trkpt lat="47.79324" lon="6.87334">
        <ele>862.6</ele>
        <time>2026-08-20T09:59:07.000Z</time>
      </trkpt>
      <trkpt lat="47.7931" lon="6.87316">
        <ele>862.8</ele>
        <time>2026-08-20T09:59:11.000Z</time>
      </trkpt>
      <trkpt lat="47.79305" lon="6.87305">
        <ele>863</ele>
        <time>2026-08-20T09:59:13.000Z</time>
      </trkpt>
      <trkpt lat="47.79293" lon="6.87279">
        <ele>863.2</ele>
        <time>2026-08-20T09:59:17.000Z</time>
      </trkpt>
      <trkpt lat="47.79278" lon="6.8726">
        <ele>863.2</ele>
        <time>2026-08-20T09:59:21.000Z</time>
      </trkpt>
      <trkpt lat="47.79269" lon="6.8725">
        <ele>863.4</ele>
        <time>2026-08-20T09:59:23.000Z</time>
      </trkpt>
      <trkpt lat="47.79262" lon="6.8724">
        <ele>863.6</ele>
        <time>2026-08-20T09:59:25.000Z</time>
      </trkpt>
      <trkpt lat="47.79247" lon="6.87218">
        <ele>863.8</ele>
        <time>2026-08-20T09:59:29.000Z</time>
      </trkpt>
      <trkpt lat="47.79235" lon="6.87205">
        <ele>863.6</ele>
        <time>2026-08-20T09:59:32.000Z</time>
      </trkpt>
      <trkpt lat="47.79218" lon="6.87184">
        <ele>863.2</ele>
        <time>2026-08-20T09:59:36.000Z</time>
      </trkpt>
      <trkpt lat="47.79215" lon="6.87178">
        <ele>863.4</ele>
        <time>2026-08-20T09:59:37.000Z</time>
      </trkpt>
      <trkpt lat="47.79212" lon="6.87171">
        <ele>863.6</ele>
        <time>2026-08-20T09:59:38.000Z</time>
      </trkpt>
      <trkpt lat="47.79199" lon="6.87147">
        <ele>864.6</ele>
        <time>2026-08-20T09:59:42.000Z</time>
      </trkpt>
      <trkpt lat="47.79184" lon="6.87127">
        <ele>865.4</ele>
        <time>2026-08-20T09:59:46.000Z</time>
      </trkpt>
      <trkpt lat="47.7918" lon="6.87123">
        <ele>865.4</ele>
        <time>2026-08-20T09:59:47.000Z</time>
      </trkpt>
      <trkpt lat="47.79176" lon="6.87118">
        <ele>865.6</ele>
        <time>2026-08-20T09:59:48.000Z</time>
      </trkpt>
      <trkpt lat="47.79159" lon="6.87099">
        <ele>866.6</ele>
        <time>2026-08-20T09:59:52.000Z</time>
      </trkpt>
      <trkpt lat="47.79156" lon="6.87093">
        <ele>866.8</ele>
        <time>2026-08-20T09:59:53.000Z</time>
      </trkpt>
      <trkpt lat="47.7915" lon="6.87082">
        <ele>867.2</ele>
        <time>2026-08-20T09:59:55.000Z</time>
      </trkpt>
      <trkpt lat="47.79135" lon="6.87062">
        <ele>867.6</ele>
        <time>2026-08-20T09:59:59.000Z</time>
      </trkpt>
      <trkpt lat="47.79132" lon="6.87058">
        <ele>867.8</ele>
        <time>2026-08-20T10:00:00.000Z</time>
      </trkpt>
      <trkpt lat="47.7912" lon="6.87046">
        <ele>868.4</ele>
        <time>2026-08-20T10:00:03.000Z</time>
      </trkpt>
      <trkpt lat="47.79108" lon="6.87031">
        <ele>869</ele>
        <time>2026-08-20T10:00:06.000Z</time>
      </trkpt>
      <trkpt lat="47.79093" lon="6.8701">
        <ele>869.8</ele>
        <time>2026-08-20T10:00:10.000Z</time>
      </trkpt>
      <trkpt lat="47.79087" lon="6.86998">
        <ele>870.2</ele>
        <time>2026-08-20T10:00:12.000Z</time>
      </trkpt>
      <trkpt lat="47.79078" lon="6.86971">
        <ele>870.6</ele>
        <time>2026-08-20T10:00:16.000Z</time>
      </trkpt>
      <trkpt lat="47.79069" lon="6.86952">
        <ele>871</ele>
        <time>2026-08-20T10:00:19.000Z</time>
      </trkpt>
      <trkpt lat="47.79065" lon="6.86948">
        <ele>871.2</ele>
        <time>2026-08-20T10:00:20.000Z</time>
      </trkpt>
      <trkpt lat="47.7905" lon="6.86931">
        <ele>872.2</ele>
        <time>2026-08-20T10:00:24.000Z</time>
      </trkpt>
      <trkpt lat="47.79046" lon="6.86926">
        <ele>872.6</ele>
        <time>2026-08-20T10:00:25.000Z</time>
      </trkpt>
      <trkpt lat="47.79032" lon="6.86905">
        <ele>873.4</ele>
        <time>2026-08-20T10:00:29.000Z</time>
      </trkpt>
      <trkpt lat="47.79023" lon="6.86886">
        <ele>873.6</ele>
        <time>2026-08-20T10:00:32.000Z</time>
      </trkpt>
      <trkpt lat="47.79019" lon="6.86881">
        <ele>873.6</ele>
        <time>2026-08-20T10:00:33.000Z</time>
      </trkpt>
      <trkpt lat="47.79009" lon="6.86874">
        <ele>873.6</ele>
        <time>2026-08-20T10:00:35.000Z</time>
      </trkpt>
      <trkpt lat="47.79004" lon="6.86871">
        <ele>873.6</ele>
        <time>2026-08-20T10:00:36.000Z</time>
      </trkpt>
      <trkpt lat="47.78984" lon="6.86864">
        <ele>874.6</ele>
        <time>2026-08-20T10:00:40.000Z</time>
      </trkpt>
      <trkpt lat="47.78974" lon="6.86861">
        <ele>875</ele>
        <time>2026-08-20T10:00:42.000Z</time>
      </trkpt>
      <trkpt lat="47.78964" lon="6.86859">
        <ele>875.8</ele>
        <time>2026-08-20T10:00:44.000Z</time>
      </trkpt>
      <trkpt lat="47.78959" lon="6.86861">
        <ele>876.2</ele>
        <time>2026-08-20T10:00:45.000Z</time>
      </trkpt>
      <trkpt lat="47.78951" lon="6.86868">
        <ele>876.8</ele>
        <time>2026-08-20T10:00:47.000Z</time>
      </trkpt>
      <trkpt lat="47.78945" lon="6.86877">
        <ele>877</ele>
        <time>2026-08-20T10:00:49.000Z</time>
      </trkpt>
      <trkpt lat="47.78941" lon="6.86891">
        <ele>877.2</ele>
        <time>2026-08-20T10:00:51.000Z</time>
      </trkpt>
      <trkpt lat="47.78934" lon="6.8692">
        <ele>877.8</ele>
        <time>2026-08-20T10:00:55.000Z</time>
      </trkpt>
      <trkpt lat="47.78933" lon="6.86927">
        <ele>878</ele>
        <time>2026-08-20T10:00:56.000Z</time>
      </trkpt>
      <trkpt lat="47.78931" lon="6.86942">
        <ele>878.4</ele>
        <time>2026-08-20T10:00:58.000Z</time>
      </trkpt>
      <trkpt lat="47.78927" lon="6.86971">
        <ele>878.8</ele>
        <time>2026-08-20T10:01:02.000Z</time>
      </trkpt>
      <trkpt lat="47.78926" lon="6.86986">
        <ele>879.2</ele>
        <time>2026-08-20T10:01:04.000Z</time>
      </trkpt>
      <trkpt lat="47.78926" lon="6.87017">
        <ele>880</ele>
        <time>2026-08-20T10:01:08.000Z</time>
      </trkpt>
      <trkpt lat="47.78926" lon="6.87032">
        <ele>880.4</ele>
        <time>2026-08-20T10:01:10.000Z</time>
      </trkpt>
      <trkpt lat="47.78926" lon="6.87057">
        <ele>881</ele>
        <time>2026-08-20T10:01:13.000Z</time>
      </trkpt>
      <trkpt lat="47.78925" lon="6.87071">
        <ele>881.4</ele>
        <time>2026-08-20T10:01:15.000Z</time>
      </trkpt>
      <trkpt lat="47.78925" lon="6.87101">
        <ele>882.4</ele>
        <time>2026-08-20T10:01:19.000Z</time>
      </trkpt>
      <trkpt lat="47.78923" lon="6.87117">
        <ele>882.6</ele>
        <time>2026-08-20T10:01:21.000Z</time>
      </trkpt>
      <trkpt lat="47.78918" lon="6.87148">
        <ele>883.6</ele>
        <time>2026-08-20T10:01:25.000Z</time>
      </trkpt>
      <trkpt lat="47.78911" lon="6.87157">
        <ele>884.2</ele>
        <time>2026-08-20T10:01:27.000Z</time>
      </trkpt>
      <trkpt lat="47.78906" lon="6.87158">
        <ele>884.2</ele>
        <time>2026-08-20T10:01:28.000Z</time>
      </trkpt>
      <trkpt lat="47.78901" lon="6.87156">
        <ele>884.4</ele>
        <time>2026-08-20T10:01:29.000Z</time>
      </trkpt>
      <trkpt lat="47.78895" lon="6.87147">
        <ele>884.8</ele>
        <time>2026-08-20T10:01:31.000Z</time>
      </trkpt>
      <trkpt lat="47.78882" lon="6.87126">
        <ele>885.2</ele>
        <time>2026-08-20T10:01:35.000Z</time>
      </trkpt>
      <trkpt lat="47.78875" lon="6.87116">
        <ele>885.8</ele>
        <time>2026-08-20T10:01:37.000Z</time>
      </trkpt>
      <trkpt lat="47.78862" lon="6.87095">
        <ele>886.8</ele>
        <time>2026-08-20T10:01:41.000Z</time>
      </trkpt>
      <trkpt lat="47.78858" lon="6.87091">
        <ele>887</ele>
        <time>2026-08-20T10:01:42.000Z</time>
      </trkpt>
      <trkpt lat="47.7884" lon="6.87076">
        <ele>887.4</ele>
        <time>2026-08-20T10:01:46.000Z</time>
      </trkpt>
      <trkpt lat="47.78835" lon="6.87074">
        <ele>887.6</ele>
        <time>2026-08-20T10:01:47.000Z</time>
      </trkpt>
      <trkpt lat="47.78825" lon="6.87073">
        <ele>887.8</ele>
        <time>2026-08-20T10:01:49.000Z</time>
      </trkpt>
      <trkpt lat="47.78815" lon="6.8708">
        <ele>888</ele>
        <time>2026-08-20T10:01:51.000Z</time>
      </trkpt>
      <trkpt lat="47.78808" lon="6.8709">
        <ele>888.2</ele>
        <time>2026-08-20T10:01:53.000Z</time>
      </trkpt>
      <trkpt lat="47.78803" lon="6.87102">
        <ele>888.4</ele>
        <time>2026-08-20T10:01:55.000Z</time>
      </trkpt>
      <trkpt lat="47.78791" lon="6.87127">
        <ele>888.8</ele>
        <time>2026-08-20T10:01:59.000Z</time>
      </trkpt>
      <trkpt lat="47.78786" lon="6.87129">
        <ele>888.8</ele>
        <time>2026-08-20T10:02:00.000Z</time>
      </trkpt>
      <trkpt lat="47.7878" lon="6.8713">
        <ele>889</ele>
        <time>2026-08-20T10:02:01.000Z</time>
      </trkpt>
      <trkpt lat="47.78774" lon="6.8713">
        <ele>889.2</ele>
        <time>2026-08-20T10:02:02.000Z</time>
      </trkpt>
      <trkpt lat="47.78767" lon="6.87129">
        <ele>889.4</ele>
        <time>2026-08-20T10:02:03.000Z</time>
      </trkpt>
      <trkpt lat="47.78751" lon="6.87135">
        <ele>890</ele>
        <time>2026-08-20T10:02:06.000Z</time>
      </trkpt>
      <trkpt lat="47.78743" lon="6.87146">
        <ele>890.4</ele>
        <time>2026-08-20T10:02:08.000Z</time>
      </trkpt>
      <trkpt lat="47.7873" lon="6.87173">
        <ele>891</ele>
        <time>2026-08-20T10:02:12.000Z</time>
      </trkpt>
      <trkpt lat="47.78727" lon="6.87179">
        <ele>891</ele>
        <time>2026-08-20T10:02:13.000Z</time>
      </trkpt>
      <trkpt lat="47.78715" lon="6.87197">
        <ele>891.4</ele>
        <time>2026-08-20T10:02:16.000Z</time>
      </trkpt>
      <trkpt lat="47.78696" lon="6.87214">
        <ele>892.2</ele>
        <time>2026-08-20T10:02:20.000Z</time>
      </trkpt>
      <trkpt lat="47.78691" lon="6.87217">
        <ele>892.4</ele>
        <time>2026-08-20T10:02:21.000Z</time>
      </trkpt>
      <trkpt lat="47.78677" lon="6.87228">
        <ele>892.8</ele>
        <time>2026-08-20T10:02:24.000Z</time>
      </trkpt>
      <trkpt lat="47.78669" lon="6.8724">
        <ele>892.8</ele>
        <time>2026-08-20T10:02:26.000Z</time>
      </trkpt>
      <trkpt lat="47.78663" lon="6.87253">
        <ele>893.6</ele>
        <time>2026-08-20T10:02:28.000Z</time>
      </trkpt>
      <trkpt lat="47.78652" lon="6.87273">
        <ele>894.8</ele>
        <time>2026-08-20T10:02:31.000Z</time>
      </trkpt>
      <trkpt lat="47.78647" lon="6.87278">
        <ele>895.2</ele>
        <time>2026-08-20T10:02:32.000Z</time>
      </trkpt>
      <trkpt lat="47.78642" lon="6.87282">
        <ele>895.2</ele>
        <time>2026-08-20T10:02:33.000Z</time>
      </trkpt>
      <trkpt lat="47.78631" lon="6.87287">
        <ele>895.4</ele>
        <time>2026-08-20T10:02:35.000Z</time>
      </trkpt>
      <trkpt lat="47.78624" lon="6.87288">
        <ele>895.4</ele>
        <time>2026-08-20T10:02:36.000Z</time>
      </trkpt>
      <trkpt lat="47.78618" lon="6.87287">
        <ele>895.6</ele>
        <time>2026-08-20T10:02:37.000Z</time>
      </trkpt>
      <trkpt lat="47.78613" lon="6.87285">
        <ele>895.8</ele>
        <time>2026-08-20T10:02:38.000Z</time>
      </trkpt>
      <trkpt lat="47.78608" lon="6.87281">
        <ele>896.2</ele>
        <time>2026-08-20T10:02:39.000Z</time>
      </trkpt>
      <trkpt lat="47.78603" lon="6.87277">
        <ele>896.6</ele>
        <time>2026-08-20T10:02:40.000Z</time>
      </trkpt>
      <trkpt lat="47.78599" lon="6.87272">
        <ele>897.2</ele>
        <time>2026-08-20T10:02:41.000Z</time>
      </trkpt>
      <trkpt lat="47.78587" lon="6.87255">
        <ele>898.2</ele>
        <time>2026-08-20T10:02:44.000Z</time>
      </trkpt>
      <trkpt lat="47.78583" lon="6.87249">
        <ele>898.4</ele>
        <time>2026-08-20T10:02:45.000Z</time>
      </trkpt>
      <trkpt lat="47.78565" lon="6.87227">
        <ele>899.4</ele>
        <time>2026-08-20T10:02:49.000Z</time>
      </trkpt>
      <trkpt lat="47.78546" lon="6.87212">
        <ele>900</ele>
        <time>2026-08-20T10:02:53.000Z</time>
      </trkpt>
      <trkpt lat="47.7854" lon="6.87211">
        <ele>900</ele>
        <time>2026-08-20T10:02:54.000Z</time>
      </trkpt>
      <trkpt lat="47.7853" lon="6.87213">
        <ele>900.2</ele>
        <time>2026-08-20T10:02:56.000Z</time>
      </trkpt>
      <trkpt lat="47.78524" lon="6.87216">
        <ele>900.6</ele>
        <time>2026-08-20T10:02:57.000Z</time>
      </trkpt>
      <trkpt lat="47.78519" lon="6.87217">
        <ele>901</ele>
        <time>2026-08-20T10:02:58.000Z</time>
      </trkpt>
      <trkpt lat="47.78513" lon="6.87217">
        <ele>901.4</ele>
        <time>2026-08-20T10:02:59.000Z</time>
      </trkpt>
      <trkpt lat="47.78508" lon="6.87213">
        <ele>901.8</ele>
        <time>2026-08-20T10:03:00.000Z</time>
      </trkpt>
      <trkpt lat="47.78505" lon="6.87206">
        <ele>902.2</ele>
        <time>2026-08-20T10:03:01.000Z</time>
      </trkpt>
      <trkpt lat="47.785" lon="6.87182">
        <ele>902.8</ele>
        <time>2026-08-20T10:03:04.000Z</time>
      </trkpt>
      <trkpt lat="47.78496" lon="6.87175">
        <ele>903</ele>
        <time>2026-08-20T10:03:05.000Z</time>
      </trkpt>
      <trkpt lat="47.78488" lon="6.87166">
        <ele>903.4</ele>
        <time>2026-08-20T10:03:07.000Z</time>
      </trkpt>
      <trkpt lat="47.78483" lon="6.87163">
        <ele>903.6</ele>
        <time>2026-08-20T10:03:08.000Z</time>
      </trkpt>
      <trkpt lat="47.78475" lon="6.87154">
        <ele>904</ele>
        <time>2026-08-20T10:03:10.000Z</time>
      </trkpt>
      <trkpt lat="47.78457" lon="6.87139">
        <ele>904.6</ele>
        <time>2026-08-20T10:03:14.000Z</time>
      </trkpt>
      <trkpt lat="47.78451" lon="6.8714">
        <ele>904.6</ele>
        <time>2026-08-20T10:03:15.000Z</time>
      </trkpt>
      <trkpt lat="47.78446" lon="6.87141">
        <ele>904.6</ele>
        <time>2026-08-20T10:03:16.000Z</time>
      </trkpt>
      <trkpt lat="47.78437" lon="6.87147">
        <ele>904.8</ele>
        <time>2026-08-20T10:03:18.000Z</time>
      </trkpt>
      <trkpt lat="47.78434" lon="6.87151">
        <ele>905</ele>
        <time>2026-08-20T10:03:19.000Z</time>
      </trkpt>
      <trkpt lat="47.78431" lon="6.87159">
        <ele>905.2</ele>
        <time>2026-08-20T10:03:20.000Z</time>
      </trkpt>
      <trkpt lat="47.78426" lon="6.87174">
        <ele>905.6</ele>
        <time>2026-08-20T10:03:22.000Z</time>
      </trkpt>
      <trkpt lat="47.78416" lon="6.87205">
        <ele>905.8</ele>
        <time>2026-08-20T10:03:26.000Z</time>
      </trkpt>
      <trkpt lat="47.7841" lon="6.8722">
        <ele>906</ele>
        <time>2026-08-20T10:03:28.000Z</time>
      </trkpt>
      <trkpt lat="47.78396" lon="6.87249">
        <ele>906.6</ele>
        <time>2026-08-20T10:03:32.000Z</time>
      </trkpt>
      <trkpt lat="47.78388" lon="6.87261">
        <ele>906.6</ele>
        <time>2026-08-20T10:03:34.000Z</time>
      </trkpt>
      <trkpt lat="47.78379" lon="6.87271">
        <ele>906.8</ele>
        <time>2026-08-20T10:03:36.000Z</time>
      </trkpt>
      <trkpt lat="47.78374" lon="6.87274">
        <ele>906.8</ele>
        <time>2026-08-20T10:03:37.000Z</time>
      </trkpt>
      <trkpt lat="47.7836" lon="6.8729">
        <ele>907.2</ele>
        <time>2026-08-20T10:03:40.000Z</time>
      </trkpt>
      <trkpt lat="47.78353" lon="6.87303">
        <ele>907.4</ele>
        <time>2026-08-20T10:03:42.000Z</time>
      </trkpt>
      <trkpt lat="47.7834" lon="6.87333">
        <ele>907.8</ele>
        <time>2026-08-20T10:03:46.000Z</time>
      </trkpt>
      <trkpt lat="47.7833" lon="6.87365">
        <ele>907.8</ele>
        <time>2026-08-20T10:03:50.000Z</time>
      </trkpt>
      <trkpt lat="47.78328" lon="6.87373">
        <ele>907.6</ele>
        <time>2026-08-20T10:03:51.000Z</time>
      </trkpt>
      <trkpt lat="47.78318" lon="6.87403">
        <ele>908.4</ele>
        <time>2026-08-20T10:03:55.000Z</time>
      </trkpt>
      <trkpt lat="47.78309" lon="6.87432">
        <ele>909.2</ele>
        <time>2026-08-20T10:03:59.000Z</time>
      </trkpt>
      <trkpt lat="47.78305" lon="6.87448">
        <ele>909.4</ele>
        <time>2026-08-20T10:04:01.000Z</time>
      </trkpt>
      <trkpt lat="47.78304" lon="6.87456">
        <ele>909.4</ele>
        <time>2026-08-20T10:04:02.000Z</time>
      </trkpt>
      <trkpt lat="47.78302" lon="6.8749">
        <ele>909.4</ele>
        <time>2026-08-20T10:04:06.000Z</time>
      </trkpt>
      <trkpt lat="47.783" lon="6.87523">
        <ele>910.2</ele>
        <time>2026-08-20T10:04:10.000Z</time>
      </trkpt>
      <trkpt lat="47.783" lon="6.8754">
        <ele>910.4</ele>
        <time>2026-08-20T10:04:12.000Z</time>
      </trkpt>
      <trkpt lat="47.78299" lon="6.87573">
        <ele>911.4</ele>
        <time>2026-08-20T10:04:16.000Z</time>
      </trkpt>
      <trkpt lat="47.78299" lon="6.87581">
        <ele>911.6</ele>
        <time>2026-08-20T10:04:17.000Z</time>
      </trkpt>
      <trkpt lat="47.78303" lon="6.87613">
        <ele>912</ele>
        <time>2026-08-20T10:04:21.000Z</time>
      </trkpt>
      <trkpt lat="47.78305" lon="6.8762">
        <ele>912.2</ele>
        <time>2026-08-20T10:04:22.000Z</time>
      </trkpt>
      <trkpt lat="47.78309" lon="6.87636">
        <ele>912.6</ele>
        <time>2026-08-20T10:04:24.000Z</time>
      </trkpt>
      <trkpt lat="47.78315" lon="6.8767">
        <ele>913</ele>
        <time>2026-08-20T10:04:28.000Z</time>
      </trkpt>
      <trkpt lat="47.78316" lon="6.87704">
        <ele>912.8</ele>
        <time>2026-08-20T10:04:32.000Z</time>
      </trkpt>
      <trkpt lat="47.78318" lon="6.87721">
        <ele>912.8</ele>
        <time>2026-08-20T10:04:34.000Z</time>
      </trkpt>
      <trkpt lat="47.78324" lon="6.87747">
        <ele>912.4</ele>
        <time>2026-08-20T10:04:37.000Z</time>
      </trkpt>
      <trkpt lat="47.78327" lon="6.87755">
        <ele>912.4</ele>
        <time>2026-08-20T10:04:38.000Z</time>
      </trkpt>
      <trkpt lat="47.78331" lon="6.87763">
        <ele>912.6</ele>
        <time>2026-08-20T10:04:39.000Z</time>
      </trkpt>
      <trkpt lat="47.78343" lon="6.87783">
        <ele>913.4</ele>
        <time>2026-08-20T10:04:42.000Z</time>
      </trkpt>
      <trkpt lat="47.78347" lon="6.87789">
        <ele>913.4</ele>
        <time>2026-08-20T10:04:43.000Z</time>
      </trkpt>
      <trkpt lat="47.78355" lon="6.87802">
        <ele>913.4</ele>
        <time>2026-08-20T10:04:45.000Z</time>
      </trkpt>
      <trkpt lat="47.78367" lon="6.87823">
        <ele>913.6</ele>
        <time>2026-08-20T10:04:48.000Z</time>
      </trkpt>
      <trkpt lat="47.7837" lon="6.8783">
        <ele>913.6</ele>
        <time>2026-08-20T10:04:49.000Z</time>
      </trkpt>
      <trkpt lat="47.78383" lon="6.87858">
        <ele>913.6</ele>
        <time>2026-08-20T10:04:53.000Z</time>
      </trkpt>
      <trkpt lat="47.7839" lon="6.87873">
        <ele>913.8</ele>
        <time>2026-08-20T10:04:55.000Z</time>
      </trkpt>
      <trkpt lat="47.78402" lon="6.87902">
        <ele>913.8</ele>
        <time>2026-08-20T10:04:59.000Z</time>
      </trkpt>
      <trkpt lat="47.78406" lon="6.87925">
        <ele>914.6</ele>
        <time>2026-08-20T10:05:02.000Z</time>
      </trkpt>
      <trkpt lat="47.78406" lon="6.87934">
        <ele>914.8</ele>
        <time>2026-08-20T10:05:03.000Z</time>
      </trkpt>
      <trkpt lat="47.78405" lon="6.87942">
        <ele>915</ele>
        <time>2026-08-20T10:05:04.000Z</time>
      </trkpt>
      <trkpt lat="47.78399" lon="6.87959">
        <ele>915</ele>
        <time>2026-08-20T10:05:06.000Z</time>
      </trkpt>
      <trkpt lat="47.78391" lon="6.87972">
        <ele>915.2</ele>
        <time>2026-08-20T10:05:08.000Z</time>
      </trkpt>
      <trkpt lat="47.78383" lon="6.87984">
        <ele>915.6</ele>
        <time>2026-08-20T10:05:10.000Z</time>
      </trkpt>
      <trkpt lat="47.78379" lon="6.87988">
        <ele>915.8</ele>
        <time>2026-08-20T10:05:11.000Z</time>
      </trkpt>
      <trkpt lat="47.78361" lon="6.88005">
        <ele>916.8</ele>
        <time>2026-08-20T10:05:15.000Z</time>
      </trkpt>
      <trkpt lat="47.78358" lon="6.88009">
        <ele>917.2</ele>
        <time>2026-08-20T10:05:16.000Z</time>
      </trkpt>
      <trkpt lat="47.78344" lon="6.88031">
        <ele>918.4</ele>
        <time>2026-08-20T10:05:20.000Z</time>
      </trkpt>
      <trkpt lat="47.78337" lon="6.88042">
        <ele>918.8</ele>
        <time>2026-08-20T10:05:22.000Z</time>
      </trkpt>
      <trkpt lat="47.7833" lon="6.8806">
        <ele>919.4</ele>
        <time>2026-08-20T10:05:25.000Z</time>
      </trkpt>
      <trkpt lat="47.78328" lon="6.88076">
        <ele>919.6</ele>
        <time>2026-08-20T10:05:27.000Z</time>
      </trkpt>
      <trkpt lat="47.7832" lon="6.88107">
        <ele>920.2</ele>
        <time>2026-08-20T10:05:31.000Z</time>
      </trkpt>
      <trkpt lat="47.78314" lon="6.88118">
        <ele>920.6</ele>
        <time>2026-08-20T10:05:33.000Z</time>
      </trkpt>
      <trkpt lat="47.78309" lon="6.88121">
        <ele>920.8</ele>
        <time>2026-08-20T10:05:34.000Z</time>
      </trkpt>
      <trkpt lat="47.78297" lon="6.88132">
        <ele>921.6</ele>
        <time>2026-08-20T10:05:37.000Z</time>
      </trkpt>
      <trkpt lat="47.7829" lon="6.88141">
        <ele>922.2</ele>
        <time>2026-08-20T10:05:39.000Z</time>
      </trkpt>
      <trkpt lat="47.78284" lon="6.88154">
        <ele>922.6</ele>
        <time>2026-08-20T10:05:41.000Z</time>
      </trkpt>
      <trkpt lat="47.78283" lon="6.88161">
        <ele>922.8</ele>
        <time>2026-08-20T10:05:42.000Z</time>
      </trkpt>
      <trkpt lat="47.78282" lon="6.88168">
        <ele>923</ele>
        <time>2026-08-20T10:05:43.000Z</time>
      </trkpt>
      <trkpt lat="47.78278" lon="6.88201">
        <ele>923.6</ele>
        <time>2026-08-20T10:05:47.000Z</time>
      </trkpt>
      <trkpt lat="47.78274" lon="6.88216">
        <ele>923.8</ele>
        <time>2026-08-20T10:05:49.000Z</time>
      </trkpt>
      <trkpt lat="47.78271" lon="6.88223">
        <ele>924</ele>
        <time>2026-08-20T10:05:50.000Z</time>
      </trkpt>
      <trkpt lat="47.78265" lon="6.88236">
        <ele>924.4</ele>
        <time>2026-08-20T10:05:52.000Z</time>
      </trkpt>
      <trkpt lat="47.7825" lon="6.88261">
        <ele>924.6</ele>
        <time>2026-08-20T10:05:56.000Z</time>
      </trkpt>
      <trkpt lat="47.78242" lon="6.88271">
        <ele>925</ele>
        <time>2026-08-20T10:05:58.000Z</time>
      </trkpt>
      <trkpt lat="47.78233" lon="6.88276">
        <ele>925</ele>
        <time>2026-08-20T10:06:00.000Z</time>
      </trkpt>
      <trkpt lat="47.78223" lon="6.88282">
        <ele>925.4</ele>
        <time>2026-08-20T10:06:02.000Z</time>
      </trkpt>
      <trkpt lat="47.78209" lon="6.88293">
        <ele>926</ele>
        <time>2026-08-20T10:06:05.000Z</time>
      </trkpt>
      <trkpt lat="47.78202" lon="6.88302">
        <ele>926.4</ele>
        <time>2026-08-20T10:06:07.000Z</time>
      </trkpt>
      <trkpt lat="47.78199" lon="6.88307">
        <ele>926.4</ele>
        <time>2026-08-20T10:06:08.000Z</time>
      </trkpt>
      <trkpt lat="47.78187" lon="6.88329">
        <ele>927</ele>
        <time>2026-08-20T10:06:12.000Z</time>
      </trkpt>
      <trkpt lat="47.78184" lon="6.88334">
        <ele>927.2</ele>
        <time>2026-08-20T10:06:13.000Z</time>
      </trkpt>
      <trkpt lat="47.78181" lon="6.8834">
        <ele>927.2</ele>
        <time>2026-08-20T10:06:14.000Z</time>
      </trkpt>
      <trkpt lat="47.78168" lon="6.88361">
        <ele>927.8</ele>
        <time>2026-08-20T10:06:19.000Z</time>
      </trkpt>
      <trkpt lat="47.78163" lon="6.88354">
        <ele>928</ele>
        <time>2026-08-20T10:06:22.000Z</time>
      </trkpt>
      <trkpt lat="47.78166" lon="6.88345">
        <ele>928.4</ele>
        <time>2026-08-20T10:06:26.000Z</time>
      </trkpt>
      <trkpt lat="47.78165" lon="6.88334">
        <ele>930.2</ele>
        <time>2026-08-20T10:06:29.000Z</time>
      </trkpt>
      <trkpt lat="47.78166" lon="6.88329">
        <ele>931.4</ele>
        <time>2026-08-20T10:06:31.000Z</time>
      </trkpt>
      <trkpt lat="47.78169" lon="6.88324">
        <ele>932.8</ele>
        <time>2026-08-20T10:06:33.000Z</time>
      </trkpt>
      <trkpt lat="47.7817" lon="6.8832">
        <ele>933.8</ele>
        <time>2026-08-20T10:06:35.000Z</time>
      </trkpt>
      <trkpt lat="47.7817" lon="6.8832">
        <ele>934.2</ele>
        <time>2026-08-20T10:06:36.000Z</time>
      </trkpt>
      <trkpt lat="47.78169" lon="6.88319">
        <ele>934.8</ele>
        <time>2026-08-20T10:06:39.000Z</time>
      </trkpt>
      <trkpt lat="47.78171" lon="6.88316">
        <ele>934.8</ele>
        <time>2026-08-20T10:06:44.000Z</time>
      </trkpt>
      <trkpt lat="47.78172" lon="6.88314">
        <ele>935.4</ele>
        <time>2026-08-20T10:06:48.000Z</time>
      </trkpt>
      <trkpt lat="47.78171" lon="6.88315">
        <ele>935.8</ele>
        <time>2026-08-20T10:06:52.000Z</time>
      </trkpt>
      <trkpt lat="47.78172" lon="6.88312">
        <ele>935.6</ele>
        <time>2026-08-20T10:07:00.000Z</time>
      </trkpt>
      <trkpt lat="47.78169" lon="6.88313">
        <ele>935</ele>
        <time>2026-08-20T10:07:07.000Z</time>
      </trkpt>
      <trkpt lat="47.78168" lon="6.88312">
        <ele>935.2</ele>
        <time>2026-08-20T10:07:11.000Z</time>
      </trkpt>
      <trkpt lat="47.78169" lon="6.88311">
        <ele>935.4</ele>
        <time>2026-08-20T10:07:17.000Z</time>
      </trkpt>
      <trkpt lat="47.7817" lon="6.88314">
        <ele>935.6</ele>
        <time>2026-08-20T10:07:23.000Z</time>
      </trkpt>
      <trkpt lat="47.78168" lon="6.88313">
        <ele>935.6</ele>
        <time>2026-08-20T10:07:32.000Z</time>
      </trkpt>
      <trkpt lat="47.78168" lon="6.88314">
        <ele>935.6</ele>
        <time>2026-08-20T10:07:33.000Z</time>
      </trkpt>
      <trkpt lat="47.78168" lon="6.88314">
        <ele>935.6</ele>
        <time>2026-08-20T10:07:34.000Z</time>
      </trkpt>
      <trkpt lat="47.78167" lon="6.88316">
        <ele>935.6</ele>
        <time>2026-08-20T10:07:38.000Z</time>
      </trkpt>
      <trkpt lat="47.78169" lon="6.88314">
        <ele>935.6</ele>
        <time>2026-08-20T10:07:41.000Z</time>
      </trkpt>
      <trkpt lat="47.78169" lon="6.88312">
        <ele>935.6</ele>
        <time>2026-08-20T10:07:50.000Z</time>
      </trkpt>
      <trkpt lat="47.78171" lon="6.88311">
        <ele>935.2</ele>
        <time>2026-08-20T10:07:56.000Z</time>
      </trkpt>
      <trkpt lat="47.78173" lon="6.88307">
        <ele>935.6</ele>
        <time>2026-08-20T10:08:03.000Z</time>
      </trkpt>
      <trkpt lat="47.78174" lon="6.88302">
        <ele>936.2</ele>
        <time>2026-08-20T10:08:11.000Z</time>
      </trkpt>
      <trkpt lat="47.78175" lon="6.88292">
        <ele>936.8</ele>
        <time>2026-08-20T10:08:15.000Z</time>
      </trkpt>
      <trkpt lat="47.78175" lon="6.88289">
        <ele>937.2</ele>
        <time>2026-08-20T10:08:16.000Z</time>
      </trkpt>
      <trkpt lat="47.78177" lon="6.88285">
        <ele>938</ele>
        <time>2026-08-20T10:08:18.000Z</time>
      </trkpt>
      <trkpt lat="47.78178" lon="6.88281">
        <ele>939.2</ele>
        <time>2026-08-20T10:08:20.000Z</time>
      </trkpt>
      <trkpt lat="47.78181" lon="6.88275">
        <ele>940.2</ele>
        <time>2026-08-20T10:08:22.000Z</time>
      </trkpt>
      <trkpt lat="47.78181" lon="6.88273">
        <ele>940.6</ele>
        <time>2026-08-20T10:08:23.000Z</time>
      </trkpt>
      <trkpt lat="47.78181" lon="6.88272">
        <ele>941.2</ele>
        <time>2026-08-20T10:08:24.000Z</time>
      </trkpt>
      <trkpt lat="47.78181" lon="6.88271">
        <ele>941.8</ele>
        <time>2026-08-20T10:08:26.000Z</time>
      </trkpt>
      <trkpt lat="47.78182" lon="6.88269">
        <ele>942.2</ele>
        <time>2026-08-20T10:08:28.000Z</time>
      </trkpt>
      <trkpt lat="47.78182" lon="6.88269">
        <ele>942.2</ele>
        <time>2026-08-20T10:08:29.000Z</time>
      </trkpt>
      <trkpt lat="47.78184" lon="6.88268">
        <ele>942.6</ele>
        <time>2026-08-20T10:08:36.000Z</time>
      </trkpt>
      <trkpt lat="47.78184" lon="6.88266">
        <ele>943</ele>
        <time>2026-08-20T10:08:40.000Z</time>
      </trkpt>
      <trkpt lat="47.78184" lon="6.88266">
        <ele>943.2</ele>
        <time>2026-08-20T10:08:41.000Z</time>
      </trkpt>
      <trkpt lat="47.78185" lon="6.88265">
        <ele>943.8</ele>
        <time>2026-08-20T10:08:45.000Z</time>
      </trkpt>
      <trkpt lat="47.78186" lon="6.88265">
        <ele>944.2</ele>
        <time>2026-08-20T10:08:48.000Z</time>
      </trkpt>
      <trkpt lat="47.78188" lon="6.88262">
        <ele>945</ele>
        <time>2026-08-20T10:08:53.000Z</time>
      </trkpt>
      <trkpt lat="47.78189" lon="6.88261">
        <ele>945.2</ele>
        <time>2026-08-20T10:08:55.000Z</time>
      </trkpt>
      <trkpt lat="47.7819" lon="6.8826">
        <ele>946</ele>
        <time>2026-08-20T10:09:00.000Z</time>
      </trkpt>
      <trkpt lat="47.7819" lon="6.88258">
        <ele>946.4</ele>
        <time>2026-08-20T10:09:13.000Z</time>
      </trkpt>
      <trkpt lat="47.7819" lon="6.88256">
        <ele>947.2</ele>
        <time>2026-08-20T10:09:18.000Z</time>
      </trkpt>
      <trkpt lat="47.7819" lon="6.88256">
        <ele>947.4</ele>
        <time>2026-08-20T10:09:19.000Z</time>
      </trkpt>
      <trkpt lat="47.78192" lon="6.88253">
        <ele>947.4</ele>
        <time>2026-08-20T10:09:25.000Z</time>
      </trkpt>
      <trkpt lat="47.78192" lon="6.88252">
        <ele>947.8</ele>
        <time>2026-08-20T10:09:30.000Z</time>
      </trkpt>
      <trkpt lat="47.78192" lon="6.88252">
        <ele>948</ele>
        <time>2026-08-20T10:09:33.000Z</time>
      </trkpt>
      <trkpt lat="47.78192" lon="6.88251">
        <ele>948.4</ele>
        <time>2026-08-20T10:09:42.000Z</time>
      </trkpt>
      <trkpt lat="47.78192" lon="6.8825">
        <ele>948.4</ele>
        <time>2026-08-20T10:09:43.000Z</time>
      </trkpt>
      <trkpt lat="47.78193" lon="6.88249">
        <ele>949.4</ele>
        <time>2026-08-20T10:09:50.000Z</time>
      </trkpt>
      <trkpt lat="47.78194" lon="6.88248">
        <ele>950</ele>
        <time>2026-08-20T10:09:52.000Z</time>
      </trkpt>
      <trkpt lat="47.78195" lon="6.88246">
        <ele>950.6</ele>
        <time>2026-08-20T10:09:55.000Z</time>
      </trkpt>
      <trkpt lat="47.78195" lon="6.88245">
        <ele>951.6</ele>
        <time>2026-08-20T10:10:00.000Z</time>
      </trkpt>
      <trkpt lat="47.78195" lon="6.88241">
        <ele>951</ele>
        <time>2026-08-20T10:10:13.000Z</time>
      </trkpt>
      <trkpt lat="47.78196" lon="6.88237">
        <ele>951.8</ele>
        <time>2026-08-20T10:10:17.000Z</time>
      </trkpt>
      <trkpt lat="47.78197" lon="6.88233">
        <ele>952.8</ele>
        <time>2026-08-20T10:10:22.000Z</time>
      </trkpt>
      <trkpt lat="47.78197" lon="6.88232">
        <ele>953</ele>
        <time>2026-08-20T10:10:23.000Z</time>
      </trkpt>
      <trkpt lat="47.782" lon="6.88227">
        <ele>954</ele>
        <time>2026-08-20T10:10:30.000Z</time>
      </trkpt>
      <trkpt lat="47.782" lon="6.88227">
        <ele>954</ele>
        <time>2026-08-20T10:10:31.000Z</time>
      </trkpt>
      <trkpt lat="47.78203" lon="6.88223">
        <ele>955</ele>
        <time>2026-08-20T10:10:36.000Z</time>
      </trkpt>
      <trkpt lat="47.78203" lon="6.88222">
        <ele>955.2</ele>
        <time>2026-08-20T10:10:37.000Z</time>
      </trkpt>
      <trkpt lat="47.78204" lon="6.88216">
        <ele>956.4</ele>
        <time>2026-08-20T10:10:43.000Z</time>
      </trkpt>
      <trkpt lat="47.78204" lon="6.88215">
        <ele>956.4</ele>
        <time>2026-08-20T10:10:44.000Z</time>
      </trkpt>
      <trkpt lat="47.78204" lon="6.88212">
        <ele>956</ele>
        <time>2026-08-20T10:10:57.000Z</time>
      </trkpt>
      <trkpt lat="47.78206" lon="6.88204">
        <ele>956.8</ele>
        <time>2026-08-20T10:11:05.000Z</time>
      </trkpt>
      <trkpt lat="47.78207" lon="6.88199">
        <ele>957</ele>
        <time>2026-08-20T10:11:09.000Z</time>
      </trkpt>
      <trkpt lat="47.78206" lon="6.88195">
        <ele>957.4</ele>
        <time>2026-08-20T10:11:13.000Z</time>
      </trkpt>
      <trkpt lat="47.78205" lon="6.88195">
        <ele>957.4</ele>
        <time>2026-08-20T10:11:14.000Z</time>
      </trkpt>
      <trkpt lat="47.78206" lon="6.88185">
        <ele>957.6</ele>
        <time>2026-08-20T10:11:22.000Z</time>
      </trkpt>
      <trkpt lat="47.78212" lon="6.88174">
        <ele>958.4</ele>
        <time>2026-08-20T10:11:28.000Z</time>
      </trkpt>
      <trkpt lat="47.78213" lon="6.88172">
        <ele>958.6</ele>
        <time>2026-08-20T10:11:29.000Z</time>
      </trkpt>
      <trkpt lat="47.78217" lon="6.88163">
        <ele>959.4</ele>
        <time>2026-08-20T10:11:33.000Z</time>
      </trkpt>
      <trkpt lat="47.78219" lon="6.88153">
        <ele>959.6</ele>
        <time>2026-08-20T10:11:36.000Z</time>
      </trkpt>
      <trkpt lat="47.78221" lon="6.88132">
        <ele>960.4</ele>
        <time>2026-08-20T10:11:42.000Z</time>
      </trkpt>
      <trkpt lat="47.78227" lon="6.88112">
        <ele>960.4</ele>
        <time>2026-08-20T10:11:48.000Z</time>
      </trkpt>
      <trkpt lat="47.78237" lon="6.8809">
        <ele>961.4</ele>
        <time>2026-08-20T10:11:55.000Z</time>
      </trkpt>
      <trkpt lat="47.78245" lon="6.88064">
        <ele>961.4</ele>
        <time>2026-08-20T10:12:01.000Z</time>
      </trkpt>
      <trkpt lat="47.78246" lon="6.8806">
        <ele>961.6</ele>
        <time>2026-08-20T10:12:02.000Z</time>
      </trkpt>
      <trkpt lat="47.7825" lon="6.88049">
        <ele>962.2</ele>
        <time>2026-08-20T10:12:05.000Z</time>
      </trkpt>
      <trkpt lat="47.78252" lon="6.88039">
        <ele>962.6</ele>
        <time>2026-08-20T10:12:07.000Z</time>
      </trkpt>
      <trkpt lat="47.78262" lon="6.8802">
        <ele>962.6</ele>
        <time>2026-08-20T10:12:13.000Z</time>
      </trkpt>
      <trkpt lat="47.78265" lon="6.88001">
        <ele>961.4</ele>
        <time>2026-08-20T10:12:17.000Z</time>
      </trkpt>
      <trkpt lat="47.78265" lon="6.87997">
        <ele>961.2</ele>
        <time>2026-08-20T10:12:18.000Z</time>
      </trkpt>
      <trkpt lat="47.78261" lon="6.87977">
        <ele>960.6</ele>
        <time>2026-08-20T10:12:22.000Z</time>
      </trkpt>
      <trkpt lat="47.78259" lon="6.87966">
        <ele>960.2</ele>
        <time>2026-08-20T10:12:24.000Z</time>
      </trkpt>
      <trkpt lat="47.78256" lon="6.87944">
        <ele>959.2</ele>
        <time>2026-08-20T10:12:28.000Z</time>
      </trkpt>
      <trkpt lat="47.78255" lon="6.87931">
        <ele>958</ele>
        <time>2026-08-20T10:12:31.000Z</time>
      </trkpt>
      <trkpt lat="47.78253" lon="6.87919">
        <ele>956.6</ele>
        <time>2026-08-20T10:12:34.000Z</time>
      </trkpt>
      <trkpt lat="47.78252" lon="6.87908">
        <ele>955.6</ele>
        <time>2026-08-20T10:12:36.000Z</time>
      </trkpt>
      <trkpt lat="47.78252" lon="6.87899">
        <ele>954.4</ele>
        <time>2026-08-20T10:12:38.000Z</time>
      </trkpt>
      <trkpt lat="47.78253" lon="6.87889">
        <ele>953.2</ele>
        <time>2026-08-20T10:12:40.000Z</time>
      </trkpt>
      <trkpt lat="47.78254" lon="6.87879">
        <ele>951.8</ele>
        <time>2026-08-20T10:12:42.000Z</time>
      </trkpt>
      <trkpt lat="47.78256" lon="6.87865">
        <ele>950</ele>
        <time>2026-08-20T10:12:44.000Z</time>
      </trkpt>
      <trkpt lat="47.78258" lon="6.87852">
        <ele>948.4</ele>
        <time>2026-08-20T10:12:46.000Z</time>
      </trkpt>
      <trkpt lat="47.78257" lon="6.87839">
        <ele>947.2</ele>
        <time>2026-08-20T10:12:48.000Z</time>
      </trkpt>
      <trkpt lat="47.78257" lon="6.87827">
        <ele>946</ele>
        <time>2026-08-20T10:12:50.000Z</time>
      </trkpt>
      <trkpt lat="47.78256" lon="6.87822">
        <ele>945.6</ele>
        <time>2026-08-20T10:12:51.000Z</time>
      </trkpt>
      <trkpt lat="47.78256" lon="6.87816">
        <ele>945.2</ele>
        <time>2026-08-20T10:12:52.000Z</time>
      </trkpt>
      <trkpt lat="47.78257" lon="6.87811">
        <ele>944.6</ele>
        <time>2026-08-20T10:12:53.000Z</time>
      </trkpt>
      <trkpt lat="47.78256" lon="6.87792">
        <ele>943.2</ele>
        <time>2026-08-20T10:12:56.000Z</time>
      </trkpt>
      <trkpt lat="47.78255" lon="6.87785">
        <ele>942.8</ele>
        <time>2026-08-20T10:12:57.000Z</time>
      </trkpt>
      <trkpt lat="47.78254" lon="6.87763">
        <ele>942.2</ele>
        <time>2026-08-20T10:13:00.000Z</time>
      </trkpt>
      <trkpt lat="47.78252" lon="6.87746">
        <ele>941.8</ele>
        <time>2026-08-20T10:13:02.000Z</time>
      </trkpt>
      <trkpt lat="47.78249" lon="6.87716">
        <ele>941.4</ele>
        <time>2026-08-20T10:13:06.000Z</time>
      </trkpt>
      <trkpt lat="47.78248" lon="6.87702">
        <ele>941.8</ele>
        <time>2026-08-20T10:13:08.000Z</time>
      </trkpt>
      <trkpt lat="47.78245" lon="6.87672">
        <ele>941.4</ele>
        <time>2026-08-20T10:13:12.000Z</time>
      </trkpt>
      <trkpt lat="47.78244" lon="6.8765">
        <ele>941</ele>
        <time>2026-08-20T10:13:15.000Z</time>
      </trkpt>
      <trkpt lat="47.78242" lon="6.87643">
        <ele>940.8</ele>
        <time>2026-08-20T10:13:16.000Z</time>
      </trkpt>
      <trkpt lat="47.78241" lon="6.87637">
        <ele>940.8</ele>
        <time>2026-08-20T10:13:17.000Z</time>
      </trkpt>
      <trkpt lat="47.78233" lon="6.87615">
        <ele>940.8</ele>
        <time>2026-08-20T10:13:21.000Z</time>
      </trkpt>
      <trkpt lat="47.78227" lon="6.87601">
        <ele>941.8</ele>
        <time>2026-08-20T10:13:24.000Z</time>
      </trkpt>
      <trkpt lat="47.78226" lon="6.87597">
        <ele>942.2</ele>
        <time>2026-08-20T10:13:25.000Z</time>
      </trkpt>
      <trkpt lat="47.78227" lon="6.87591">
        <ele>942.6</ele>
        <time>2026-08-20T10:13:26.000Z</time>
      </trkpt>
      <trkpt lat="47.78229" lon="6.87584">
        <ele>943.2</ele>
        <time>2026-08-20T10:13:28.000Z</time>
      </trkpt>
      <trkpt lat="47.7823" lon="6.87574">
        <ele>944.2</ele>
        <time>2026-08-20T10:13:30.000Z</time>
      </trkpt>
      <trkpt lat="47.78231" lon="6.8757">
        <ele>944.6</ele>
        <time>2026-08-20T10:13:31.000Z</time>
      </trkpt>
      <trkpt lat="47.78232" lon="6.87562">
        <ele>946</ele>
        <time>2026-08-20T10:13:33.000Z</time>
      </trkpt>
      <trkpt lat="47.78232" lon="6.87554">
        <ele>947.4</ele>
        <time>2026-08-20T10:13:35.000Z</time>
      </trkpt>
      <trkpt lat="47.78233" lon="6.87545">
        <ele>948.8</ele>
        <time>2026-08-20T10:13:37.000Z</time>
      </trkpt>
      <trkpt lat="47.78233" lon="6.87542">
        <ele>949.4</ele>
        <time>2026-08-20T10:13:38.000Z</time>
      </trkpt>
      <trkpt lat="47.78234" lon="6.87538">
        <ele>950.2</ele>
        <time>2026-08-20T10:13:39.000Z</time>
      </trkpt>
      <trkpt lat="47.78235" lon="6.87529">
        <ele>951.2</ele>
        <time>2026-08-20T10:13:41.000Z</time>
      </trkpt>
      <trkpt lat="47.78235" lon="6.87521">
        <ele>952.2</ele>
        <time>2026-08-20T10:13:43.000Z</time>
      </trkpt>
      <trkpt lat="47.78235" lon="6.8751">
        <ele>953.4</ele>
        <time>2026-08-20T10:13:45.000Z</time>
      </trkpt>
      <trkpt lat="47.78235" lon="6.87505">
        <ele>954</ele>
        <time>2026-08-20T10:13:46.000Z</time>
      </trkpt>
      <trkpt lat="47.78234" lon="6.87499">
        <ele>954.4</ele>
        <time>2026-08-20T10:13:47.000Z</time>
      </trkpt>
      <trkpt lat="47.78233" lon="6.8749">
        <ele>955.6</ele>
        <time>2026-08-20T10:13:49.000Z</time>
      </trkpt>
      <trkpt lat="47.78232" lon="6.87483">
        <ele>956.6</ele>
        <time>2026-08-20T10:13:51.000Z</time>
      </trkpt>
      <trkpt lat="47.78232" lon="6.87479">
        <ele>957.2</ele>
        <time>2026-08-20T10:13:52.000Z</time>
      </trkpt>
      <trkpt lat="47.78232" lon="6.87475">
        <ele>957.8</ele>
        <time>2026-08-20T10:13:53.000Z</time>
      </trkpt>
      <trkpt lat="47.78232" lon="6.87466">
        <ele>959</ele>
        <time>2026-08-20T10:13:55.000Z</time>
      </trkpt>
      <trkpt lat="47.78233" lon="6.87454">
        <ele>960.2</ele>
        <time>2026-08-20T10:13:58.000Z</time>
      </trkpt>
      <trkpt lat="47.78234" lon="6.8744">
        <ele>961.4</ele>
        <time>2026-08-20T10:14:01.000Z</time>
      </trkpt>
      <trkpt lat="47.78234" lon="6.87427">
        <ele>962.4</ele>
        <time>2026-08-20T10:14:04.000Z</time>
      </trkpt>
      <trkpt lat="47.78234" lon="6.87415">
        <ele>963.4</ele>
        <time>2026-08-20T10:14:07.000Z</time>
      </trkpt>
      <trkpt lat="47.78234" lon="6.87412">
        <ele>963.8</ele>
        <time>2026-08-20T10:14:08.000Z</time>
      </trkpt>
      <trkpt lat="47.78234" lon="6.874">
        <ele>965.2</ele>
        <time>2026-08-20T10:14:11.000Z</time>
      </trkpt>
      <trkpt lat="47.78234" lon="6.87386">
        <ele>966.8</ele>
        <time>2026-08-20T10:14:14.000Z</time>
      </trkpt>
      <trkpt lat="47.78232" lon="6.87381">
        <ele>968.2</ele>
        <time>2026-08-20T10:14:17.000Z</time>
      </trkpt>
      <trkpt lat="47.78228" lon="6.87391">
        <ele>969.2</ele>
        <time>2026-08-20T10:14:21.000Z</time>
      </trkpt>
      <trkpt lat="47.78216" lon="6.87415">
        <ele>969.6</ele>
        <time>2026-08-20T10:14:29.000Z</time>
      </trkpt>
      <trkpt lat="47.78214" lon="6.87418">
        <ele>969.6</ele>
        <time>2026-08-20T10:14:30.000Z</time>
      </trkpt>
      <trkpt lat="47.78209" lon="6.87429">
        <ele>970</ele>
        <time>2026-08-20T10:14:33.000Z</time>
      </trkpt>
      <trkpt lat="47.78206" lon="6.87434">
        <ele>970.2</ele>
        <time>2026-08-20T10:14:35.000Z</time>
      </trkpt>
      <trkpt lat="47.78203" lon="6.87434">
        <ele>970.4</ele>
        <time>2026-08-20T10:14:36.000Z</time>
      </trkpt>
      <trkpt lat="47.78197" lon="6.87428">
        <ele>971.2</ele>
        <time>2026-08-20T10:14:40.000Z</time>
      </trkpt>
      <trkpt lat="47.78196" lon="6.87425">
        <ele>971.6</ele>
        <time>2026-08-20T10:14:41.000Z</time>
      </trkpt>
      <trkpt lat="47.78196" lon="6.87417">
        <ele>972.6</ele>
        <time>2026-08-20T10:14:44.000Z</time>
      </trkpt>
      <trkpt lat="47.78197" lon="6.87411">
        <ele>973.2</ele>
        <time>2026-08-20T10:14:46.000Z</time>
      </trkpt>
      <trkpt lat="47.78197" lon="6.87408">
        <ele>973.6</ele>
        <time>2026-08-20T10:14:47.000Z</time>
      </trkpt>
      <trkpt lat="47.78196" lon="6.87399">
        <ele>974.8</ele>
        <time>2026-08-20T10:14:50.000Z</time>
      </trkpt>
      <trkpt lat="47.78194" lon="6.87392">
        <ele>975.8</ele>
        <time>2026-08-20T10:14:52.000Z</time>
      </trkpt>
      <trkpt lat="47.78192" lon="6.87388">
        <ele>977</ele>
        <time>2026-08-20T10:14:54.000Z</time>
      </trkpt>
      <trkpt lat="47.78191" lon="6.87383">
        <ele>978.2</ele>
        <time>2026-08-20T10:14:56.000Z</time>
      </trkpt>
      <trkpt lat="47.7819" lon="6.87379">
        <ele>979.2</ele>
        <time>2026-08-20T10:14:58.000Z</time>
      </trkpt>
      <trkpt lat="47.78189" lon="6.87377">
        <ele>979.6</ele>
        <time>2026-08-20T10:14:59.000Z</time>
      </trkpt>
      <trkpt lat="47.78188" lon="6.87376">
        <ele>980.4</ele>
        <time>2026-08-20T10:15:04.000Z</time>
      </trkpt>
      <trkpt lat="47.78188" lon="6.87376">
        <ele>980.4</ele>
        <time>2026-08-20T10:15:10.000Z</time>
      </trkpt>
      <trkpt lat="47.78188" lon="6.87376">
        <ele>980.4</ele>
        <time>2026-08-20T10:15:11.000Z</time>
      </trkpt>
      <trkpt lat="47.78188" lon="6.87372">
        <ele>980.6</ele>
        <time>2026-08-20T10:15:16.000Z</time>
      </trkpt>
      <trkpt lat="47.78188" lon="6.87372">
        <ele>980.8</ele>
        <time>2026-08-20T10:15:17.000Z</time>
      </trkpt>
      <trkpt lat="47.78187" lon="6.8737">
        <ele>981.6</ele>
        <time>2026-08-20T10:15:21.000Z</time>
      </trkpt>
      <trkpt lat="47.78187" lon="6.8737">
        <ele>981.8</ele>
        <time>2026-08-20T10:15:22.000Z</time>
      </trkpt>
      <trkpt lat="47.78186" lon="6.87368">
        <ele>982</ele>
        <time>2026-08-20T10:15:25.000Z</time>
      </trkpt>
      <trkpt lat="47.78186" lon="6.87367">
        <ele>982.4</ele>
        <time>2026-08-20T10:15:30.000Z</time>
      </trkpt>
      <trkpt lat="47.78185" lon="6.87369">
        <ele>982.6</ele>
        <time>2026-08-20T10:15:39.000Z</time>
      </trkpt>
      <trkpt lat="47.78185" lon="6.87369">
        <ele>982.8</ele>
        <time>2026-08-20T10:15:48.000Z</time>
      </trkpt>
      <trkpt lat="47.78183" lon="6.87364">
        <ele>982.8</ele>
        <time>2026-08-20T10:15:52.000Z</time>
      </trkpt>
      <trkpt lat="47.78179" lon="6.87353">
        <ele>984</ele>
        <time>2026-08-20T10:15:58.000Z</time>
      </trkpt>
      <trkpt lat="47.78178" lon="6.87349">
        <ele>984.6</ele>
        <time>2026-08-20T10:16:00.000Z</time>
      </trkpt>
      <trkpt lat="47.78176" lon="6.87343">
        <ele>985.4</ele>
        <time>2026-08-20T10:16:02.000Z</time>
      </trkpt>
      <trkpt lat="47.78175" lon="6.87336">
        <ele>986.8</ele>
        <time>2026-08-20T10:16:05.000Z</time>
      </trkpt>
      <trkpt lat="47.78175" lon="6.87326">
        <ele>988</ele>
        <time>2026-08-20T10:16:08.000Z</time>
      </trkpt>
      <trkpt lat="47.78176" lon="6.87317">
        <ele>989.2</ele>
        <time>2026-08-20T10:16:11.000Z</time>
      </trkpt>
      <trkpt lat="47.78178" lon="6.87309">
        <ele>990.4</ele>
        <time>2026-08-20T10:16:14.000Z</time>
      </trkpt>
      <trkpt lat="47.7818" lon="6.87304">
        <ele>991.2</ele>
        <time>2026-08-20T10:16:16.000Z</time>
      </trkpt>
      <trkpt lat="47.78181" lon="6.87301">
        <ele>991.6</ele>
        <time>2026-08-20T10:16:17.000Z</time>
      </trkpt>
      <trkpt lat="47.78181" lon="6.87292">
        <ele>992.8</ele>
        <time>2026-08-20T10:16:20.000Z</time>
      </trkpt>
      <trkpt lat="47.78181" lon="6.87286">
        <ele>993.6</ele>
        <time>2026-08-20T10:16:22.000Z</time>
      </trkpt>
      <trkpt lat="47.78181" lon="6.87283">
        <ele>994</ele>
        <time>2026-08-20T10:16:23.000Z</time>
      </trkpt>
      <trkpt lat="47.78178" lon="6.87276">
        <ele>995</ele>
        <time>2026-08-20T10:16:26.000Z</time>
      </trkpt>
      <trkpt lat="47.78176" lon="6.87267">
        <ele>996</ele>
        <time>2026-08-20T10:16:29.000Z</time>
      </trkpt>
      <trkpt lat="47.78176" lon="6.87264">
        <ele>996.2</ele>
        <time>2026-08-20T10:16:30.000Z</time>
      </trkpt>
      <trkpt lat="47.78176" lon="6.87254">
        <ele>997.4</ele>
        <time>2026-08-20T10:16:34.000Z</time>
      </trkpt>
      <trkpt lat="47.78177" lon="6.87248">
        <ele>997.8</ele>
        <time>2026-08-20T10:16:36.000Z</time>
      </trkpt>
      <trkpt lat="47.78177" lon="6.87239">
        <ele>998.6</ele>
        <time>2026-08-20T10:16:39.000Z</time>
      </trkpt>
      <trkpt lat="47.78176" lon="6.87224">
        <ele>999.6</ele>
        <time>2026-08-20T10:16:44.000Z</time>
      </trkpt>
      <trkpt lat="47.78176" lon="6.87222">
        <ele>999.8</ele>
        <time>2026-08-20T10:16:45.000Z</time>
      </trkpt>
      <trkpt lat="47.78176" lon="6.87207">
        <ele>1000.6</ele>
        <time>2026-08-20T10:16:51.000Z</time>
      </trkpt>
      <trkpt lat="47.78175" lon="6.87206">
        <ele>1000.8</ele>
        <time>2026-08-20T10:16:52.000Z</time>
      </trkpt>
      <trkpt lat="47.78175" lon="6.87193">
        <ele>1002</ele>
        <time>2026-08-20T10:16:57.000Z</time>
      </trkpt>
      <trkpt lat="47.78178" lon="6.87175">
        <ele>1003.2</ele>
        <time>2026-08-20T10:17:02.000Z</time>
      </trkpt>
      <trkpt lat="47.7818" lon="6.87166">
        <ele>1004.2</ele>
        <time>2026-08-20T10:17:06.000Z</time>
      </trkpt>
      <trkpt lat="47.78183" lon="6.87156">
        <ele>1005.4</ele>
        <time>2026-08-20T10:17:10.000Z</time>
      </trkpt>
      <trkpt lat="47.78185" lon="6.87148">
        <ele>1006.4</ele>
        <time>2026-08-20T10:17:13.000Z</time>
      </trkpt>
      <trkpt lat="47.78185" lon="6.87145">
        <ele>1006.8</ele>
        <time>2026-08-20T10:17:14.000Z</time>
      </trkpt>
      <trkpt lat="47.78188" lon="6.87136">
        <ele>1007.8</ele>
        <time>2026-08-20T10:17:17.000Z</time>
      </trkpt>
      <trkpt lat="47.7819" lon="6.87127">
        <ele>1009</ele>
        <time>2026-08-20T10:17:20.000Z</time>
      </trkpt>
      <trkpt lat="47.78192" lon="6.87119">
        <ele>1010.4</ele>
        <time>2026-08-20T10:17:23.000Z</time>
      </trkpt>
      <trkpt lat="47.78195" lon="6.87111">
        <ele>1011.6</ele>
        <time>2026-08-20T10:17:26.000Z</time>
      </trkpt>
      <trkpt lat="47.78198" lon="6.87108">
        <ele>1012.6</ele>
        <time>2026-08-20T10:17:29.000Z</time>
      </trkpt>
      <trkpt lat="47.78199" lon="6.87107">
        <ele>1013</ele>
        <time>2026-08-20T10:17:30.000Z</time>
      </trkpt>
      <trkpt lat="47.78204" lon="6.87101">
        <ele>1013.6</ele>
        <time>2026-08-20T10:17:33.000Z</time>
      </trkpt>
      <trkpt lat="47.78208" lon="6.8709">
        <ele>1014.8</ele>
        <time>2026-08-20T10:17:37.000Z</time>
      </trkpt>
      <trkpt lat="47.78208" lon="6.87088">
        <ele>1015.2</ele>
        <time>2026-08-20T10:17:38.000Z</time>
      </trkpt>
      <trkpt lat="47.78208" lon="6.87083">
        <ele>1016</ele>
        <time>2026-08-20T10:17:40.000Z</time>
      </trkpt>
      <trkpt lat="47.78208" lon="6.87074">
        <ele>1017</ele>
        <time>2026-08-20T10:17:44.000Z</time>
      </trkpt>
      <trkpt lat="47.78208" lon="6.87072">
        <ele>1017.2</ele>
        <time>2026-08-20T10:17:45.000Z</time>
      </trkpt>
      <trkpt lat="47.7821" lon="6.87056">
        <ele>1018</ele>
        <time>2026-08-20T10:17:50.000Z</time>
      </trkpt>
      <trkpt lat="47.78211" lon="6.87039">
        <ele>1018.4</ele>
        <time>2026-08-20T10:17:54.000Z</time>
      </trkpt>
      <trkpt lat="47.78211" lon="6.87019">
        <ele>1019</ele>
        <time>2026-08-20T10:17:59.000Z</time>
      </trkpt>
      <trkpt lat="47.78212" lon="6.87016">
        <ele>1019.4</ele>
        <time>2026-08-20T10:18:00.000Z</time>
      </trkpt>
      <trkpt lat="47.78213" lon="6.86999">
        <ele>1020.4</ele>
        <time>2026-08-20T10:18:05.000Z</time>
      </trkpt>
      <trkpt lat="47.78222" lon="6.86978">
        <ele>1020.4</ele>
        <time>2026-08-20T10:18:11.000Z</time>
      </trkpt>
      <trkpt lat="47.78236" lon="6.86957">
        <ele>1020</ele>
        <time>2026-08-20T10:18:17.000Z</time>
      </trkpt>
      <trkpt lat="47.7824" lon="6.86949">
        <ele>1020</ele>
        <time>2026-08-20T10:18:19.000Z</time>
      </trkpt>
      <trkpt lat="47.78255" lon="6.86926">
        <ele>1020.8</ele>
        <time>2026-08-20T10:18:25.000Z</time>
      </trkpt>
      <trkpt lat="47.78257" lon="6.86922">
        <ele>1020.8</ele>
        <time>2026-08-20T10:18:26.000Z</time>
      </trkpt>
      <trkpt lat="47.78264" lon="6.86912">
        <ele>1021.8</ele>
        <time>2026-08-20T10:18:29.000Z</time>
      </trkpt>
      <trkpt lat="47.78266" lon="6.86906">
        <ele>1022.8</ele>
        <time>2026-08-20T10:18:31.000Z</time>
      </trkpt>
      <trkpt lat="47.78274" lon="6.86885">
        <ele>1023</ele>
        <time>2026-08-20T10:18:36.000Z</time>
      </trkpt>
      <trkpt lat="47.78281" lon="6.86859">
        <ele>1023.6</ele>
        <time>2026-08-20T10:18:41.000Z</time>
      </trkpt>
      <trkpt lat="47.78282" lon="6.86853">
        <ele>1023.8</ele>
        <time>2026-08-20T10:18:42.000Z</time>
      </trkpt>
      <trkpt lat="47.78284" lon="6.86843">
        <ele>1024.4</ele>
        <time>2026-08-20T10:18:44.000Z</time>
      </trkpt>
      <trkpt lat="47.78287" lon="6.86834">
        <ele>1025</ele>
        <time>2026-08-20T10:18:46.000Z</time>
      </trkpt>
      <trkpt lat="47.78292" lon="6.86818">
        <ele>1026</ele>
        <time>2026-08-20T10:18:50.000Z</time>
      </trkpt>
      <trkpt lat="47.78292" lon="6.86813">
        <ele>1026.6</ele>
        <time>2026-08-20T10:18:51.000Z</time>
      </trkpt>
      <trkpt lat="47.78293" lon="6.86806">
        <ele>1027.6</ele>
        <time>2026-08-20T10:18:53.000Z</time>
      </trkpt>
      <trkpt lat="47.78294" lon="6.86801">
        <ele>1029</ele>
        <time>2026-08-20T10:18:55.000Z</time>
      </trkpt>
      <trkpt lat="47.78296" lon="6.86796">
        <ele>1030.2</ele>
        <time>2026-08-20T10:18:57.000Z</time>
      </trkpt>
      <trkpt lat="47.78298" lon="6.8679">
        <ele>1031.4</ele>
        <time>2026-08-20T10:19:00.000Z</time>
      </trkpt>
      <trkpt lat="47.78299" lon="6.86788">
        <ele>1032</ele>
        <time>2026-08-20T10:19:01.000Z</time>
      </trkpt>
      <trkpt lat="47.783" lon="6.86784">
        <ele>1032.8</ele>
        <time>2026-08-20T10:19:03.000Z</time>
      </trkpt>
      <trkpt lat="47.78302" lon="6.8678">
        <ele>1033.8</ele>
        <time>2026-08-20T10:19:05.000Z</time>
      </trkpt>
      <trkpt lat="47.78304" lon="6.86775">
        <ele>1035</ele>
        <time>2026-08-20T10:19:07.000Z</time>
      </trkpt>
      <trkpt lat="47.78306" lon="6.86769">
        <ele>1036.4</ele>
        <time>2026-08-20T10:19:09.000Z</time>
      </trkpt>
      <trkpt lat="47.78308" lon="6.86763">
        <ele>1037.6</ele>
        <time>2026-08-20T10:19:11.000Z</time>
      </trkpt>
      <trkpt lat="47.78309" lon="6.86761">
        <ele>1038.2</ele>
        <time>2026-08-20T10:19:12.000Z</time>
      </trkpt>
      <trkpt lat="47.7831" lon="6.86759">
        <ele>1038.8</ele>
        <time>2026-08-20T10:19:13.000Z</time>
      </trkpt>
      <trkpt lat="47.78315" lon="6.86753">
        <ele>1040.2</ele>
        <time>2026-08-20T10:19:16.000Z</time>
      </trkpt>
      <trkpt lat="47.78318" lon="6.8675">
        <ele>1041</ele>
        <time>2026-08-20T10:19:18.000Z</time>
      </trkpt>
      <trkpt lat="47.78319" lon="6.86748">
        <ele>1041.2</ele>
        <time>2026-08-20T10:19:19.000Z</time>
      </trkpt>
      <trkpt lat="47.78322" lon="6.86744">
        <ele>1042</ele>
        <time>2026-08-20T10:19:21.000Z</time>
      </trkpt>
      <trkpt lat="47.78322" lon="6.86742">
        <ele>1042.6</ele>
        <time>2026-08-20T10:19:22.000Z</time>
      </trkpt>
      <trkpt lat="47.78324" lon="6.86736">
        <ele>1043.6</ele>
        <time>2026-08-20T10:19:24.000Z</time>
      </trkpt>
      <trkpt lat="47.78327" lon="6.8673">
        <ele>1044.6</ele>
        <time>2026-08-20T10:19:26.000Z</time>
      </trkpt>
      <trkpt lat="47.78329" lon="6.86725">
        <ele>1045.6</ele>
        <time>2026-08-20T10:19:28.000Z</time>
      </trkpt>
      <trkpt lat="47.78332" lon="6.86722">
        <ele>1046.8</ele>
        <time>2026-08-20T10:19:30.000Z</time>
      </trkpt>
      <trkpt lat="47.78335" lon="6.86719">
        <ele>1047.8</ele>
        <time>2026-08-20T10:19:32.000Z</time>
      </trkpt>
      <trkpt lat="47.78336" lon="6.86717">
        <ele>1048.4</ele>
        <time>2026-08-20T10:19:33.000Z</time>
      </trkpt>
      <trkpt lat="47.78337" lon="6.86716">
        <ele>1048.8</ele>
        <time>2026-08-20T10:19:34.000Z</time>
      </trkpt>
      <trkpt lat="47.78339" lon="6.86711">
        <ele>1050.2</ele>
        <time>2026-08-20T10:19:37.000Z</time>
      </trkpt>
      <trkpt lat="47.78341" lon="6.86707">
        <ele>1051</ele>
        <time>2026-08-20T10:19:39.000Z</time>
      </trkpt>
      <trkpt lat="47.78343" lon="6.86704">
        <ele>1051.4</ele>
        <time>2026-08-20T10:19:40.000Z</time>
      </trkpt>
      <trkpt lat="47.78347" lon="6.86697">
        <ele>1052.8</ele>
        <time>2026-08-20T10:19:43.000Z</time>
      </trkpt>
      <trkpt lat="47.7835" lon="6.86689">
        <ele>1054</ele>
        <time>2026-08-20T10:19:46.000Z</time>
      </trkpt>
      <trkpt lat="47.78351" lon="6.86682">
        <ele>1055.4</ele>
        <time>2026-08-20T10:19:49.000Z</time>
      </trkpt>
      <trkpt lat="47.78351" lon="6.86677">
        <ele>1056.4</ele>
        <time>2026-08-20T10:19:51.000Z</time>
      </trkpt>
      <trkpt lat="47.78352" lon="6.86672">
        <ele>1057.4</ele>
        <time>2026-08-20T10:19:53.000Z</time>
      </trkpt>
      <trkpt lat="47.78352" lon="6.8667">
        <ele>1057.8</ele>
        <time>2026-08-20T10:19:54.000Z</time>
      </trkpt>
      <trkpt lat="47.78355" lon="6.86662">
        <ele>1059</ele>
        <time>2026-08-20T10:19:57.000Z</time>
      </trkpt>
      <trkpt lat="47.78359" lon="6.86656">
        <ele>1060</ele>
        <time>2026-08-20T10:20:00.000Z</time>
      </trkpt>
      <trkpt lat="47.7836" lon="6.86655">
        <ele>1060.4</ele>
        <time>2026-08-20T10:20:01.000Z</time>
      </trkpt>
      <trkpt lat="47.78364" lon="6.86651">
        <ele>1061.4</ele>
        <time>2026-08-20T10:20:03.000Z</time>
      </trkpt>
      <trkpt lat="47.78369" lon="6.86647">
        <ele>1062.8</ele>
        <time>2026-08-20T10:20:06.000Z</time>
      </trkpt>
      <trkpt lat="47.78371" lon="6.86646">
        <ele>1063.2</ele>
        <time>2026-08-20T10:20:07.000Z</time>
      </trkpt>
      <trkpt lat="47.78373" lon="6.86643">
        <ele>1063.8</ele>
        <time>2026-08-20T10:20:09.000Z</time>
      </trkpt>
      <trkpt lat="47.78373" lon="6.8664">
        <ele>1064.2</ele>
        <time>2026-08-20T10:20:10.000Z</time>
      </trkpt>
      <trkpt lat="47.78374" lon="6.86635">
        <ele>1065.2</ele>
        <time>2026-08-20T10:20:12.000Z</time>
      </trkpt>
      <trkpt lat="47.78375" lon="6.86633">
        <ele>1065.6</ele>
        <time>2026-08-20T10:20:13.000Z</time>
      </trkpt>
      <trkpt lat="47.78375" lon="6.86632">
        <ele>1066.2</ele>
        <time>2026-08-20T10:20:14.000Z</time>
      </trkpt>
      <trkpt lat="47.78376" lon="6.86627">
        <ele>1067.4</ele>
        <time>2026-08-20T10:20:17.000Z</time>
      </trkpt>
      <trkpt lat="47.78376" lon="6.86626">
        <ele>1067.4</ele>
        <time>2026-08-20T10:20:19.000Z</time>
      </trkpt>
      <trkpt lat="47.78377" lon="6.86623">
        <ele>1067.2</ele>
        <time>2026-08-20T10:20:26.000Z</time>
      </trkpt>
      <trkpt lat="47.78377" lon="6.86623">
        <ele>1067.2</ele>
        <time>2026-08-20T10:20:28.000Z</time>
      </trkpt>
      <trkpt lat="47.78376" lon="6.86624">
        <ele>1067.2</ele>
        <time>2026-08-20T10:20:32.000Z</time>
      </trkpt>
      <trkpt lat="47.78376" lon="6.86624">
        <ele>1067.4</ele>
        <time>2026-08-20T10:20:36.000Z</time>
      </trkpt>
      <trkpt lat="47.78377" lon="6.86622">
        <ele>1067.2</ele>
        <time>2026-08-20T10:20:39.000Z</time>
      </trkpt>
      <trkpt lat="47.78376" lon="6.86622">
        <ele>1067.8</ele>
        <time>2026-08-20T10:20:48.000Z</time>
      </trkpt>
      <trkpt lat="47.78375" lon="6.86624">
        <ele>1068.2</ele>
        <time>2026-08-20T10:20:52.000Z</time>
      </trkpt>
      <trkpt lat="47.78376" lon="6.86623">
        <ele>1068</ele>
        <time>2026-08-20T10:20:57.000Z</time>
      </trkpt>
      <trkpt lat="47.78379" lon="6.86618">
        <ele>1068.4</ele>
        <time>2026-08-20T10:21:02.000Z</time>
      </trkpt>
      <trkpt lat="47.7838" lon="6.86616">
        <ele>1068.6</ele>
        <time>2026-08-20T10:21:05.000Z</time>
      </trkpt>
      <trkpt lat="47.7838" lon="6.86617">
        <ele>1068.8</ele>
        <time>2026-08-20T10:21:09.000Z</time>
      </trkpt>
      <trkpt lat="47.78381" lon="6.8661">
        <ele>1069</ele>
        <time>2026-08-20T10:21:13.000Z</time>
      </trkpt>
      <trkpt lat="47.78383" lon="6.86605">
        <ele>1069.6</ele>
        <time>2026-08-20T10:21:15.000Z</time>
      </trkpt>
      <trkpt lat="47.78385" lon="6.86602">
        <ele>1070.6</ele>
        <time>2026-08-20T10:21:17.000Z</time>
      </trkpt>
      <trkpt lat="47.78388" lon="6.86599">
        <ele>1071.8</ele>
        <time>2026-08-20T10:21:19.000Z</time>
      </trkpt>
      <trkpt lat="47.7839" lon="6.86597">
        <ele>1072.4</ele>
        <time>2026-08-20T10:21:20.000Z</time>
      </trkpt>
      <trkpt lat="47.78394" lon="6.86593">
        <ele>1073.4</ele>
        <time>2026-08-20T10:21:22.000Z</time>
      </trkpt>
      <trkpt lat="47.78398" lon="6.8659">
        <ele>1074.4</ele>
        <time>2026-08-20T10:21:24.000Z</time>
      </trkpt>
      <trkpt lat="47.78403" lon="6.86588">
        <ele>1075.8</ele>
        <time>2026-08-20T10:21:26.000Z</time>
      </trkpt>
      <trkpt lat="47.78405" lon="6.86587">
        <ele>1076.2</ele>
        <time>2026-08-20T10:21:27.000Z</time>
      </trkpt>
      <trkpt lat="47.78409" lon="6.86585">
        <ele>1077</ele>
        <time>2026-08-20T10:21:29.000Z</time>
      </trkpt>
      <trkpt lat="47.78416" lon="6.86579">
        <ele>1078.4</ele>
        <time>2026-08-20T10:21:32.000Z</time>
      </trkpt>
      <trkpt lat="47.78422" lon="6.86574">
        <ele>1079.2</ele>
        <time>2026-08-20T10:21:34.000Z</time>
      </trkpt>
      <trkpt lat="47.78424" lon="6.86571">
        <ele>1079.6</ele>
        <time>2026-08-20T10:21:35.000Z</time>
      </trkpt>
      <trkpt lat="47.78432" lon="6.86564">
        <ele>1080.8</ele>
        <time>2026-08-20T10:21:38.000Z</time>
      </trkpt>
      <trkpt lat="47.78438" lon="6.86563">
        <ele>1082</ele>
        <time>2026-08-20T10:21:40.000Z</time>
      </trkpt>
      <trkpt lat="47.7844" lon="6.86563">
        <ele>1082.6</ele>
        <time>2026-08-20T10:21:41.000Z</time>
      </trkpt>
      <trkpt lat="47.78443" lon="6.86563">
        <ele>1083.2</ele>
        <time>2026-08-20T10:21:42.000Z</time>
      </trkpt>
      <trkpt lat="47.78448" lon="6.86563">
        <ele>1084.2</ele>
        <time>2026-08-20T10:21:44.000Z</time>
      </trkpt>
      <trkpt lat="47.78459" lon="6.86561">
        <ele>1085</ele>
        <time>2026-08-20T10:21:48.000Z</time>
      </trkpt>
      <trkpt lat="47.78466" lon="6.86553">
        <ele>1085.4</ele>
        <time>2026-08-20T10:21:51.000Z</time>
      </trkpt>
      <trkpt lat="47.7847" lon="6.86547">
        <ele>1086</ele>
        <time>2026-08-20T10:21:53.000Z</time>
      </trkpt>
      <trkpt lat="47.78476" lon="6.86534">
        <ele>1086.6</ele>
        <time>2026-08-20T10:21:57.000Z</time>
      </trkpt>
      <trkpt lat="47.78479" lon="6.86523">
        <ele>1086.6</ele>
        <time>2026-08-20T10:22:00.000Z</time>
      </trkpt>
      <trkpt lat="47.78489" lon="6.865">
        <ele>1086.6</ele>
        <time>2026-08-20T10:22:06.000Z</time>
      </trkpt>
      <trkpt lat="47.78501" lon="6.86484">
        <ele>1085.4</ele>
        <time>2026-08-20T10:22:11.000Z</time>
      </trkpt>
      <trkpt lat="47.78507" lon="6.8647">
        <ele>1085.2</ele>
        <time>2026-08-20T10:22:14.000Z</time>
      </trkpt>
      <trkpt lat="47.78515" lon="6.86451">
        <ele>1084.8</ele>
        <time>2026-08-20T10:22:19.000Z</time>
      </trkpt>
      <trkpt lat="47.78522" lon="6.86436">
        <ele>1084.2</ele>
        <time>2026-08-20T10:22:23.000Z</time>
      </trkpt>
      <trkpt lat="47.78527" lon="6.86424">
        <ele>1083.8</ele>
        <time>2026-08-20T10:22:26.000Z</time>
      </trkpt>
      <trkpt lat="47.78528" lon="6.8642">
        <ele>1083.6</ele>
        <time>2026-08-20T10:22:27.000Z</time>
      </trkpt>
      <trkpt lat="47.7853" lon="6.86415">
        <ele>1083.2</ele>
        <time>2026-08-20T10:22:28.000Z</time>
      </trkpt>
      <trkpt lat="47.78537" lon="6.86396">
        <ele>1082.2</ele>
        <time>2026-08-20T10:22:31.000Z</time>
      </trkpt>
      <trkpt lat="47.7854" lon="6.86389">
        <ele>1081.2</ele>
        <time>2026-08-20T10:22:32.000Z</time>
      </trkpt>
      <trkpt lat="47.78543" lon="6.86382">
        <ele>1080.4</ele>
        <time>2026-08-20T10:22:33.000Z</time>
      </trkpt>
      <trkpt lat="47.78552" lon="6.86371">
        <ele>1079.4</ele>
        <time>2026-08-20T10:22:35.000Z</time>
      </trkpt>
      <trkpt lat="47.78556" lon="6.86365">
        <ele>1078.8</ele>
        <time>2026-08-20T10:22:36.000Z</time>
      </trkpt>
      <trkpt lat="47.78566" lon="6.86352">
        <ele>1078.2</ele>
        <time>2026-08-20T10:22:38.000Z</time>
      </trkpt>
      <trkpt lat="47.78571" lon="6.86345">
        <ele>1077</ele>
        <time>2026-08-20T10:22:39.000Z</time>
      </trkpt>
      <trkpt lat="47.78577" lon="6.86338">
        <ele>1075.6</ele>
        <time>2026-08-20T10:22:40.000Z</time>
      </trkpt>
      <trkpt lat="47.78582" lon="6.8633">
        <ele>1074.2</ele>
        <time>2026-08-20T10:22:41.000Z</time>
      </trkpt>
      <trkpt lat="47.78593" lon="6.86314">
        <ele>1072.8</ele>
        <time>2026-08-20T10:22:43.000Z</time>
      </trkpt>
      <trkpt lat="47.78607" lon="6.86291">
        <ele>1072.6</ele>
        <time>2026-08-20T10:22:46.000Z</time>
      </trkpt>
      <trkpt lat="47.78616" lon="6.86278">
        <ele>1072.6</ele>
        <time>2026-08-20T10:22:48.000Z</time>
      </trkpt>
      <trkpt lat="47.78631" lon="6.86257">
        <ele>1072.4</ele>
        <time>2026-08-20T10:22:52.000Z</time>
      </trkpt>
      <trkpt lat="47.78639" lon="6.8625">
        <ele>1072.6</ele>
        <time>2026-08-20T10:22:54.000Z</time>
      </trkpt>
      <trkpt lat="47.78653" lon="6.86242">
        <ele>1072.6</ele>
        <time>2026-08-20T10:22:57.000Z</time>
      </trkpt>
      <trkpt lat="47.78663" lon="6.86237">
        <ele>1071.8</ele>
        <time>2026-08-20T10:22:59.000Z</time>
      </trkpt>
      <trkpt lat="47.78668" lon="6.86234">
        <ele>1071.6</ele>
        <time>2026-08-20T10:23:00.000Z</time>
      </trkpt>
      <trkpt lat="47.78685" lon="6.86222">
        <ele>1071.4</ele>
        <time>2026-08-20T10:23:04.000Z</time>
      </trkpt>
      <trkpt lat="47.78693" lon="6.86218">
        <ele>1071</ele>
        <time>2026-08-20T10:23:06.000Z</time>
      </trkpt>
      <trkpt lat="47.7871" lon="6.86208">
        <ele>1070.8</ele>
        <time>2026-08-20T10:23:10.000Z</time>
      </trkpt>
      <trkpt lat="47.78715" lon="6.86206">
        <ele>1070.4</ele>
        <time>2026-08-20T10:23:11.000Z</time>
      </trkpt>
      <trkpt lat="47.78725" lon="6.86201">
        <ele>1068.8</ele>
        <time>2026-08-20T10:23:13.000Z</time>
      </trkpt>
      <trkpt lat="47.78738" lon="6.86194">
        <ele>1068.2</ele>
        <time>2026-08-20T10:23:16.000Z</time>
      </trkpt>
      <trkpt lat="47.78746" lon="6.86191">
        <ele>1068.4</ele>
        <time>2026-08-20T10:23:18.000Z</time>
      </trkpt>
      <trkpt lat="47.78759" lon="6.86186">
        <ele>1067.8</ele>
        <time>2026-08-20T10:23:21.000Z</time>
      </trkpt>
      <trkpt lat="47.78776" lon="6.86178">
        <ele>1069.2</ele>
        <time>2026-08-20T10:23:25.000Z</time>
      </trkpt>
      <trkpt lat="47.78784" lon="6.86174">
        <ele>1070.6</ele>
        <time>2026-08-20T10:23:27.000Z</time>
      </trkpt>
      <trkpt lat="47.7879" lon="6.86172">
        <ele>1072</ele>
        <time>2026-08-20T10:23:29.000Z</time>
      </trkpt>
      <trkpt lat="47.78797" lon="6.86172">
        <ele>1073.2</ele>
        <time>2026-08-20T10:23:31.000Z</time>
      </trkpt>
      <trkpt lat="47.78803" lon="6.8617">
        <ele>1073.4</ele>
        <time>2026-08-20T10:23:33.000Z</time>
      </trkpt>
      <trkpt lat="47.78809" lon="6.86168">
        <ele>1073.4</ele>
        <time>2026-08-20T10:23:35.000Z</time>
      </trkpt>
      <trkpt lat="47.78816" lon="6.86168">
        <ele>1074</ele>
        <time>2026-08-20T10:23:37.000Z</time>
      </trkpt>
      <trkpt lat="47.78819" lon="6.86169">
        <ele>1074.4</ele>
        <time>2026-08-20T10:23:38.000Z</time>
      </trkpt>
      <trkpt lat="47.78834" lon="6.86168">
        <ele>1075.2</ele>
        <time>2026-08-20T10:23:43.000Z</time>
      </trkpt>
      <trkpt lat="47.78837" lon="6.86167">
        <ele>1075.6</ele>
        <time>2026-08-20T10:23:44.000Z</time>
      </trkpt>
      <trkpt lat="47.78856" lon="6.8616">
        <ele>1076.2</ele>
        <time>2026-08-20T10:23:50.000Z</time>
      </trkpt>
      <trkpt lat="47.78859" lon="6.8616">
        <ele>1076.4</ele>
        <time>2026-08-20T10:23:51.000Z</time>
      </trkpt>
      <trkpt lat="47.78862" lon="6.8616">
        <ele>1076.6</ele>
        <time>2026-08-20T10:23:52.000Z</time>
      </trkpt>
      <trkpt lat="47.78871" lon="6.86161">
        <ele>1078</ele>
        <time>2026-08-20T10:23:55.000Z</time>
      </trkpt>
      <trkpt lat="47.78877" lon="6.86161">
        <ele>1078.4</ele>
        <time>2026-08-20T10:23:57.000Z</time>
      </trkpt>
      <trkpt lat="47.78886" lon="6.86158">
        <ele>1079</ele>
        <time>2026-08-20T10:24:00.000Z</time>
      </trkpt>
      <trkpt lat="47.78899" lon="6.86157">
        <ele>1079.4</ele>
        <time>2026-08-20T10:24:04.000Z</time>
      </trkpt>
      <trkpt lat="47.78905" lon="6.86158">
        <ele>1080</ele>
        <time>2026-08-20T10:24:06.000Z</time>
      </trkpt>
      <trkpt lat="47.78914" lon="6.8616">
        <ele>1081.6</ele>
        <time>2026-08-20T10:24:09.000Z</time>
      </trkpt>
      <trkpt lat="47.78923" lon="6.86163">
        <ele>1082.6</ele>
        <time>2026-08-20T10:24:12.000Z</time>
      </trkpt>
      <trkpt lat="47.78935" lon="6.86168">
        <ele>1083.8</ele>
        <time>2026-08-20T10:24:16.000Z</time>
      </trkpt>
      <trkpt lat="47.78943" lon="6.86172">
        <ele>1084.2</ele>
        <time>2026-08-20T10:24:19.000Z</time>
      </trkpt>
      <trkpt lat="47.78953" lon="6.86176">
        <ele>1085</ele>
        <time>2026-08-20T10:24:22.000Z</time>
      </trkpt>
      <trkpt lat="47.78969" lon="6.86183">
        <ele>1086.2</ele>
        <time>2026-08-20T10:24:27.000Z</time>
      </trkpt>
      <trkpt lat="47.78975" lon="6.86187">
        <ele>1087</ele>
        <time>2026-08-20T10:24:29.000Z</time>
      </trkpt>
      <trkpt lat="47.78978" lon="6.86188">
        <ele>1087.4</ele>
        <time>2026-08-20T10:24:30.000Z</time>
      </trkpt>
      <trkpt lat="47.78988" lon="6.86192">
        <ele>1088.6</ele>
        <time>2026-08-20T10:24:33.000Z</time>
      </trkpt>
      <trkpt lat="47.78993" lon="6.86194">
        <ele>1089</ele>
        <time>2026-08-20T10:24:35.000Z</time>
      </trkpt>
      <trkpt lat="47.79002" lon="6.86198">
        <ele>1089.8</ele>
        <time>2026-08-20T10:24:38.000Z</time>
      </trkpt>
      <trkpt lat="47.79011" lon="6.86202">
        <ele>1091.2</ele>
        <time>2026-08-20T10:24:41.000Z</time>
      </trkpt>
      <trkpt lat="47.7902" lon="6.86207">
        <ele>1091.8</ele>
        <time>2026-08-20T10:24:44.000Z</time>
      </trkpt>
      <trkpt lat="47.79026" lon="6.86209">
        <ele>1092.2</ele>
        <time>2026-08-20T10:24:46.000Z</time>
      </trkpt>
      <trkpt lat="47.79033" lon="6.86215">
        <ele>1093.6</ele>
        <time>2026-08-20T10:24:49.000Z</time>
      </trkpt>
      <trkpt lat="47.79036" lon="6.86217">
        <ele>1094</ele>
        <time>2026-08-20T10:24:50.000Z</time>
      </trkpt>
      <trkpt lat="47.79041" lon="6.86219">
        <ele>1094.8</ele>
        <time>2026-08-20T10:24:52.000Z</time>
      </trkpt>
      <trkpt lat="47.79057" lon="6.86222">
        <ele>1095.8</ele>
        <time>2026-08-20T10:24:57.000Z</time>
      </trkpt>
      <trkpt lat="47.7906" lon="6.86222">
        <ele>1096</ele>
        <time>2026-08-20T10:24:58.000Z</time>
      </trkpt>
      <trkpt lat="47.79082" lon="6.8622">
        <ele>1096.8</ele>
        <time>2026-08-20T10:25:04.000Z</time>
      </trkpt>
      <trkpt lat="47.79086" lon="6.8622">
        <ele>1097.2</ele>
        <time>2026-08-20T10:25:05.000Z</time>
      </trkpt>
      <trkpt lat="47.79105" lon="6.86224">
        <ele>1098.2</ele>
        <time>2026-08-20T10:25:10.000Z</time>
      </trkpt>
      <trkpt lat="47.79113" lon="6.86224">
        <ele>1098.4</ele>
        <time>2026-08-20T10:25:12.000Z</time>
      </trkpt>
      <trkpt lat="47.79132" lon="6.86223">
        <ele>1099.2</ele>
        <time>2026-08-20T10:25:17.000Z</time>
      </trkpt>
      <trkpt lat="47.79142" lon="6.86223">
        <ele>1100.8</ele>
        <time>2026-08-20T10:25:20.000Z</time>
      </trkpt>
      <trkpt lat="47.79148" lon="6.86222">
        <ele>1101.8</ele>
        <time>2026-08-20T10:25:22.000Z</time>
      </trkpt>
      <trkpt lat="47.79154" lon="6.86223">
        <ele>1103.8</ele>
        <time>2026-08-20T10:25:24.000Z</time>
      </trkpt>
      <trkpt lat="47.79161" lon="6.86224">
        <ele>1105.4</ele>
        <time>2026-08-20T10:25:26.000Z</time>
      </trkpt>
      <trkpt lat="47.79164" lon="6.86224">
        <ele>1106</ele>
        <time>2026-08-20T10:25:27.000Z</time>
      </trkpt>
      <trkpt lat="47.79167" lon="6.86224">
        <ele>1106.6</ele>
        <time>2026-08-20T10:25:28.000Z</time>
      </trkpt>
      <trkpt lat="47.79176" lon="6.86224">
        <ele>1108</ele>
        <time>2026-08-20T10:25:31.000Z</time>
      </trkpt>
      <trkpt lat="47.79182" lon="6.86223">
        <ele>1109.4</ele>
        <time>2026-08-20T10:25:33.000Z</time>
      </trkpt>
      <trkpt lat="47.79185" lon="6.86222">
        <ele>1110</ele>
        <time>2026-08-20T10:25:34.000Z</time>
      </trkpt>
      <trkpt lat="47.79188" lon="6.8622">
        <ele>1110.6</ele>
        <time>2026-08-20T10:25:35.000Z</time>
      </trkpt>
      <trkpt lat="47.79198" lon="6.86216">
        <ele>1111.8</ele>
        <time>2026-08-20T10:25:38.000Z</time>
      </trkpt>
      <trkpt lat="47.79207" lon="6.8621">
        <ele>1113</ele>
        <time>2026-08-20T10:25:41.000Z</time>
      </trkpt>
      <trkpt lat="47.7921" lon="6.86208">
        <ele>1113.4</ele>
        <time>2026-08-20T10:25:42.000Z</time>
      </trkpt>
      <trkpt lat="47.79213" lon="6.86205">
        <ele>1113.6</ele>
        <time>2026-08-20T10:25:43.000Z</time>
      </trkpt>
      <trkpt lat="47.79231" lon="6.86188">
        <ele>1113.6</ele>
        <time>2026-08-20T10:25:49.000Z</time>
      </trkpt>
      <trkpt lat="47.79234" lon="6.86185">
        <ele>1114.2</ele>
        <time>2026-08-20T10:25:50.000Z</time>
      </trkpt>
      <trkpt lat="47.7924" lon="6.8618">
        <ele>1115.6</ele>
        <time>2026-08-20T10:25:52.000Z</time>
      </trkpt>
      <trkpt lat="47.79253" lon="6.86169">
        <ele>1116.4</ele>
        <time>2026-08-20T10:25:56.000Z</time>
      </trkpt>
      <trkpt lat="47.79255" lon="6.86168">
        <ele>1116.8</ele>
        <time>2026-08-20T10:25:57.000Z</time>
      </trkpt>
      <trkpt lat="47.79262" lon="6.86165">
        <ele>1117.4</ele>
        <time>2026-08-20T10:26:00.000Z</time>
      </trkpt>
      <trkpt lat="47.79264" lon="6.86165">
        <ele>1118</ele>
        <time>2026-08-20T10:26:01.000Z</time>
      </trkpt>
      <trkpt lat="47.79267" lon="6.86162">
        <ele>1118.6</ele>
        <time>2026-08-20T10:26:03.000Z</time>
      </trkpt>
      <trkpt lat="47.79268" lon="6.86159">
        <ele>1119.2</ele>
        <time>2026-08-20T10:26:04.000Z</time>
      </trkpt>
      <trkpt lat="47.79268" lon="6.86157">
        <ele>1119.6</ele>
        <time>2026-08-20T10:26:05.000Z</time>
      </trkpt>
      <trkpt lat="47.7927" lon="6.86145">
        <ele>1119.6</ele>
        <time>2026-08-20T10:26:09.000Z</time>
      </trkpt>
      <trkpt lat="47.79271" lon="6.86144">
        <ele>1119.6</ele>
        <time>2026-08-20T10:26:10.000Z</time>
      </trkpt>
      <trkpt lat="47.79282" lon="6.86133">
        <ele>1118</ele>
        <time>2026-08-20T10:26:15.000Z</time>
      </trkpt>
      <trkpt lat="47.7929" lon="6.86117">
        <ele>1116.8</ele>
        <time>2026-08-20T10:26:19.000Z</time>
      </trkpt>
      <trkpt lat="47.79293" lon="6.86112">
        <ele>1116.2</ele>
        <time>2026-08-20T10:26:20.000Z</time>
      </trkpt>
      <trkpt lat="47.79298" lon="6.86107">
        <ele>1115.8</ele>
        <time>2026-08-20T10:26:21.000Z</time>
      </trkpt>
      <trkpt lat="47.79306" lon="6.86101">
        <ele>1114.4</ele>
        <time>2026-08-20T10:26:23.000Z</time>
      </trkpt>
      <trkpt lat="47.79308" lon="6.86098">
        <ele>1114</ele>
        <time>2026-08-20T10:26:24.000Z</time>
      </trkpt>
      <trkpt lat="47.79314" lon="6.86089">
        <ele>1113.2</ele>
        <time>2026-08-20T10:26:26.000Z</time>
      </trkpt>
      <trkpt lat="47.79316" lon="6.86083">
        <ele>1112.8</ele>
        <time>2026-08-20T10:26:27.000Z</time>
      </trkpt>
      <trkpt lat="47.7932" lon="6.86077">
        <ele>1111.8</ele>
        <time>2026-08-20T10:26:28.000Z</time>
      </trkpt>
      <trkpt lat="47.79324" lon="6.86072">
        <ele>1110.4</ele>
        <time>2026-08-20T10:26:29.000Z</time>
      </trkpt>
      <trkpt lat="47.79328" lon="6.86068">
        <ele>1109.4</ele>
        <time>2026-08-20T10:26:30.000Z</time>
      </trkpt>
      <trkpt lat="47.79332" lon="6.86065">
        <ele>1109</ele>
        <time>2026-08-20T10:26:31.000Z</time>
      </trkpt>
      <trkpt lat="47.7934" lon="6.86056">
        <ele>1107.6</ele>
        <time>2026-08-20T10:26:33.000Z</time>
      </trkpt>
      <trkpt lat="47.7935" lon="6.86043">
        <ele>1106</ele>
        <time>2026-08-20T10:26:35.000Z</time>
      </trkpt>
      <trkpt lat="47.79355" lon="6.86037">
        <ele>1104.8</ele>
        <time>2026-08-20T10:26:36.000Z</time>
      </trkpt>
      <trkpt lat="47.79361" lon="6.86032">
        <ele>1103.6</ele>
        <time>2026-08-20T10:26:37.000Z</time>
      </trkpt>
      <trkpt lat="47.79372" lon="6.86021">
        <ele>1102</ele>
        <time>2026-08-20T10:26:39.000Z</time>
      </trkpt>
      <trkpt lat="47.79377" lon="6.86016">
        <ele>1100.8</ele>
        <time>2026-08-20T10:26:40.000Z</time>
      </trkpt>
      <trkpt lat="47.79382" lon="6.8601">
        <ele>1099.8</ele>
        <time>2026-08-20T10:26:41.000Z</time>
      </trkpt>
      <trkpt lat="47.79396" lon="6.85991">
        <ele>1098.2</ele>
        <time>2026-08-20T10:26:44.000Z</time>
      </trkpt>
      <trkpt lat="47.79405" lon="6.8598">
        <ele>1098</ele>
        <time>2026-08-20T10:26:46.000Z</time>
      </trkpt>
      <trkpt lat="47.7942" lon="6.85964">
        <ele>1098.4</ele>
        <time>2026-08-20T10:26:49.000Z</time>
      </trkpt>
      <trkpt lat="47.79433" lon="6.8595">
        <ele>1099</ele>
        <time>2026-08-20T10:26:52.000Z</time>
      </trkpt>
      <trkpt lat="47.79447" lon="6.8593">
        <ele>1098</ele>
        <time>2026-08-20T10:26:56.000Z</time>
      </trkpt>
      <trkpt lat="47.79456" lon="6.85915">
        <ele>1098.2</ele>
        <time>2026-08-20T10:26:59.000Z</time>
      </trkpt>
      <trkpt lat="47.79462" lon="6.85898">
        <ele>1097.4</ele>
        <time>2026-08-20T10:27:02.000Z</time>
      </trkpt>
      <trkpt lat="47.79469" lon="6.85875">
        <ele>1096.8</ele>
        <time>2026-08-20T10:27:05.000Z</time>
      </trkpt>
      <trkpt lat="47.79473" lon="6.85859">
        <ele>1096</ele>
        <time>2026-08-20T10:27:07.000Z</time>
      </trkpt>
      <trkpt lat="47.79476" lon="6.85851">
        <ele>1095.6</ele>
        <time>2026-08-20T10:27:08.000Z</time>
      </trkpt>
      <trkpt lat="47.79486" lon="6.85828">
        <ele>1095</ele>
        <time>2026-08-20T10:27:11.000Z</time>
      </trkpt>
      <trkpt lat="47.7949" lon="6.85822">
        <ele>1094.6</ele>
        <time>2026-08-20T10:27:12.000Z</time>
      </trkpt>
      <trkpt lat="47.79494" lon="6.85816">
        <ele>1094.4</ele>
        <time>2026-08-20T10:27:13.000Z</time>
      </trkpt>
      <trkpt lat="47.79504" lon="6.85794">
        <ele>1095.2</ele>
        <time>2026-08-20T10:27:18.000Z</time>
      </trkpt>
      <trkpt lat="47.79504" lon="6.85792">
        <ele>1095</ele>
        <time>2026-08-20T10:27:19.000Z</time>
      </trkpt>
      <trkpt lat="47.79501" lon="6.8579">
        <ele>1094.6</ele>
        <time>2026-08-20T10:27:21.000Z</time>
      </trkpt>
      <trkpt lat="47.795" lon="6.85789">
        <ele>1094.8</ele>
        <time>2026-08-20T10:27:22.000Z</time>
      </trkpt>
      <trkpt lat="47.79493" lon="6.85777">
        <ele>1095.6</ele>
        <time>2026-08-20T10:27:27.000Z</time>
      </trkpt>
      <trkpt lat="47.79493" lon="6.85773">
        <ele>1095.8</ele>
        <time>2026-08-20T10:27:28.000Z</time>
      </trkpt>
      <trkpt lat="47.79496" lon="6.85761">
        <ele>1096.8</ele>
        <time>2026-08-20T10:27:31.000Z</time>
      </trkpt>
      <trkpt lat="47.79503" lon="6.85732">
        <ele>1096.6</ele>
        <time>2026-08-20T10:27:37.000Z</time>
      </trkpt>
      <trkpt lat="47.79505" lon="6.85727">
        <ele>1096.6</ele>
        <time>2026-08-20T10:27:38.000Z</time>
      </trkpt>
      <trkpt lat="47.79507" lon="6.85716">
        <ele>1096.8</ele>
        <time>2026-08-20T10:27:40.000Z</time>
      </trkpt>
      <trkpt lat="47.79513" lon="6.85694">
        <ele>1097.8</ele>
        <time>2026-08-20T10:27:44.000Z</time>
      </trkpt>
      <trkpt lat="47.79514" lon="6.85689">
        <ele>1098</ele>
        <time>2026-08-20T10:27:45.000Z</time>
      </trkpt>
      <trkpt lat="47.79518" lon="6.8568">
        <ele>1098.4</ele>
        <time>2026-08-20T10:27:47.000Z</time>
      </trkpt>
      <trkpt lat="47.79527" lon="6.85658">
        <ele>1099.2</ele>
        <time>2026-08-20T10:27:52.000Z</time>
      </trkpt>
      <trkpt lat="47.79532" lon="6.85646">
        <ele>1100.2</ele>
        <time>2026-08-20T10:27:55.000Z</time>
      </trkpt>
      <trkpt lat="47.79537" lon="6.85631">
        <ele>1101.4</ele>
        <time>2026-08-20T10:27:59.000Z</time>
      </trkpt>
      <trkpt lat="47.79542" lon="6.85624">
        <ele>1101.8</ele>
        <time>2026-08-20T10:28:01.000Z</time>
      </trkpt>
      <trkpt lat="47.79547" lon="6.85617">
        <ele>1102.4</ele>
        <time>2026-08-20T10:28:03.000Z</time>
      </trkpt>
      <trkpt lat="47.79554" lon="6.85606">
        <ele>1103.8</ele>
        <time>2026-08-20T10:28:06.000Z</time>
      </trkpt>
      <trkpt lat="47.79556" lon="6.85602">
        <ele>1104.4</ele>
        <time>2026-08-20T10:28:07.000Z</time>
      </trkpt>
      <trkpt lat="47.79558" lon="6.85598">
        <ele>1105</ele>
        <time>2026-08-20T10:28:08.000Z</time>
      </trkpt>
      <trkpt lat="47.7956" lon="6.8559">
        <ele>1106</ele>
        <time>2026-08-20T10:28:10.000Z</time>
      </trkpt>
      <trkpt lat="47.79562" lon="6.85578">
        <ele>1107.4</ele>
        <time>2026-08-20T10:28:13.000Z</time>
      </trkpt>
      <trkpt lat="47.79563" lon="6.85563">
        <ele>1108.8</ele>
        <time>2026-08-20T10:28:17.000Z</time>
      </trkpt>
      <trkpt lat="47.79564" lon="6.85551">
        <ele>1110.2</ele>
        <time>2026-08-20T10:28:20.000Z</time>
      </trkpt>
      <trkpt lat="47.79565" lon="6.85546">
        <ele>1110.4</ele>
        <time>2026-08-20T10:28:21.000Z</time>
      </trkpt>
      <trkpt lat="47.79572" lon="6.85518">
        <ele>1111.2</ele>
        <time>2026-08-20T10:28:27.000Z</time>
      </trkpt>
      <trkpt lat="47.79573" lon="6.85513">
        <ele>1111.2</ele>
        <time>2026-08-20T10:28:28.000Z</time>
      </trkpt>
      <trkpt lat="47.79581" lon="6.85488">
        <ele>1111</ele>
        <time>2026-08-20T10:28:33.000Z</time>
      </trkpt>
      <trkpt lat="47.79582" lon="6.85484">
        <ele>1110.8</ele>
        <time>2026-08-20T10:28:34.000Z</time>
      </trkpt>
      <trkpt lat="47.79586" lon="6.85471">
        <ele>1110.4</ele>
        <time>2026-08-20T10:28:39.000Z</time>
      </trkpt>
      <trkpt lat="47.79587" lon="6.85469">
        <ele>1110.2</ele>
        <time>2026-08-20T10:28:40.000Z</time>
      </trkpt>
      <trkpt lat="47.79594" lon="6.85457">
        <ele>1109</ele>
        <time>2026-08-20T10:28:44.000Z</time>
      </trkpt>
      <trkpt lat="47.79596" lon="6.85454">
        <ele>1108.8</ele>
        <time>2026-08-20T10:28:45.000Z</time>
      </trkpt>
      <trkpt lat="47.79606" lon="6.85436">
        <ele>1108</ele>
        <time>2026-08-20T10:28:50.000Z</time>
      </trkpt>
      <trkpt lat="47.79612" lon="6.85428">
        <ele>1108</ele>
        <time>2026-08-20T10:28:52.000Z</time>
      </trkpt>
      <trkpt lat="47.79625" lon="6.85413">
        <ele>1106.2</ele>
        <time>2026-08-20T10:28:56.000Z</time>
      </trkpt>
      <trkpt lat="47.79632" lon="6.85403">
        <ele>1104.8</ele>
        <time>2026-08-20T10:28:58.000Z</time>
      </trkpt>
      <trkpt lat="47.79644" lon="6.85386">
        <ele>1104.2</ele>
        <time>2026-08-20T10:29:01.000Z</time>
      </trkpt>
      <trkpt lat="47.79653" lon="6.85374">
        <ele>1104.2</ele>
        <time>2026-08-20T10:29:03.000Z</time>
      </trkpt>
      <trkpt lat="47.79658" lon="6.85368">
        <ele>1103.4</ele>
        <time>2026-08-20T10:29:04.000Z</time>
      </trkpt>
      <trkpt lat="47.79673" lon="6.8535">
        <ele>1102</ele>
        <time>2026-08-20T10:29:07.000Z</time>
      </trkpt>
      <trkpt lat="47.79678" lon="6.85344">
        <ele>1101.4</ele>
        <time>2026-08-20T10:29:08.000Z</time>
      </trkpt>
      <trkpt lat="47.79688" lon="6.85333">
        <ele>1100.6</ele>
        <time>2026-08-20T10:29:10.000Z</time>
      </trkpt>
      <trkpt lat="47.79704" lon="6.8531">
        <ele>1100.2</ele>
        <time>2026-08-20T10:29:14.000Z</time>
      </trkpt>
      <trkpt lat="47.79718" lon="6.85288">
        <ele>1101.6</ele>
        <time>2026-08-20T10:29:18.000Z</time>
      </trkpt>
      <trkpt lat="47.79722" lon="6.85284">
        <ele>1101.6</ele>
        <time>2026-08-20T10:29:19.000Z</time>
      </trkpt>
      <trkpt lat="47.79725" lon="6.8528">
        <ele>1101.8</ele>
        <time>2026-08-20T10:29:20.000Z</time>
      </trkpt>
      <trkpt lat="47.79737" lon="6.85263">
        <ele>1102.6</ele>
        <time>2026-08-20T10:29:24.000Z</time>
      </trkpt>
      <trkpt lat="47.79746" lon="6.85251">
        <ele>1101.8</ele>
        <time>2026-08-20T10:29:27.000Z</time>
      </trkpt>
      <trkpt lat="47.79759" lon="6.8524">
        <ele>1101.6</ele>
        <time>2026-08-20T10:29:31.000Z</time>
      </trkpt>
      <trkpt lat="47.79765" lon="6.85233">
        <ele>1102</ele>
        <time>2026-08-20T10:29:33.000Z</time>
      </trkpt>
      <trkpt lat="47.79771" lon="6.85223">
        <ele>1102.4</ele>
        <time>2026-08-20T10:29:36.000Z</time>
      </trkpt>
      <trkpt lat="47.79773" lon="6.85216">
        <ele>1102.6</ele>
        <time>2026-08-20T10:29:38.000Z</time>
      </trkpt>
      <trkpt lat="47.79774" lon="6.85212">
        <ele>1102.8</ele>
        <time>2026-08-20T10:29:39.000Z</time>
      </trkpt>
      <trkpt lat="47.79782" lon="6.8519">
        <ele>1102.2</ele>
        <time>2026-08-20T10:29:46.000Z</time>
      </trkpt>
      <trkpt lat="47.79784" lon="6.85185">
        <ele>1101.6</ele>
        <time>2026-08-20T10:29:48.000Z</time>
      </trkpt>
      <trkpt lat="47.79786" lon="6.85176">
        <ele>1100.8</ele>
        <time>2026-08-20T10:29:52.000Z</time>
      </trkpt>
      <trkpt lat="47.79787" lon="6.85174">
        <ele>1100.2</ele>
        <time>2026-08-20T10:29:53.000Z</time>
      </trkpt>
      <trkpt lat="47.7979" lon="6.85168">
        <ele>1098.8</ele>
        <time>2026-08-20T10:29:55.000Z</time>
      </trkpt>
      <trkpt lat="47.79796" lon="6.85158">
        <ele>1097.4</ele>
        <time>2026-08-20T10:29:57.000Z</time>
      </trkpt>
      <trkpt lat="47.79802" lon="6.85151">
        <ele>1096.6</ele>
        <time>2026-08-20T10:29:59.000Z</time>
      </trkpt>
      <trkpt lat="47.79805" lon="6.8515">
        <ele>1096.4</ele>
        <time>2026-08-20T10:30:00.000Z</time>
      </trkpt>
      <trkpt lat="47.79809" lon="6.85149">
        <ele>1096.2</ele>
        <time>2026-08-20T10:30:01.000Z</time>
      </trkpt>
      <trkpt lat="47.79823" lon="6.85153">
        <ele>1095.2</ele>
        <time>2026-08-20T10:30:05.000Z</time>
      </trkpt>
      <trkpt lat="47.79827" lon="6.85155">
        <ele>1094.6</ele>
        <time>2026-08-20T10:30:06.000Z</time>
      </trkpt>
      <trkpt lat="47.79832" lon="6.85157">
        <ele>1094.2</ele>
        <time>2026-08-20T10:30:07.000Z</time>
      </trkpt>
      <trkpt lat="47.79842" lon="6.85161">
        <ele>1092.6</ele>
        <time>2026-08-20T10:30:09.000Z</time>
      </trkpt>
      <trkpt lat="47.79851" lon="6.8516">
        <ele>1091.2</ele>
        <time>2026-08-20T10:30:11.000Z</time>
      </trkpt>
      <trkpt lat="47.79863" lon="6.85149">
        <ele>1089.8</ele>
        <time>2026-08-20T10:30:14.000Z</time>
      </trkpt>
      <trkpt lat="47.79866" lon="6.85146">
        <ele>1089.4</ele>
        <time>2026-08-20T10:30:15.000Z</time>
      </trkpt>
      <trkpt lat="47.79873" lon="6.85135">
        <ele>1088.6</ele>
        <time>2026-08-20T10:30:18.000Z</time>
      </trkpt>
      <trkpt lat="47.7988" lon="6.85131">
        <ele>1087.4</ele>
        <time>2026-08-20T10:30:20.000Z</time>
      </trkpt>
      <trkpt lat="47.79886" lon="6.85129">
        <ele>1086.2</ele>
        <time>2026-08-20T10:30:22.000Z</time>
      </trkpt>
      <trkpt lat="47.79893" lon="6.85132">
        <ele>1084.8</ele>
        <time>2026-08-20T10:30:24.000Z</time>
      </trkpt>
      <trkpt lat="47.79896" lon="6.85132">
        <ele>1084</ele>
        <time>2026-08-20T10:30:25.000Z</time>
      </trkpt>
      <trkpt lat="47.79899" lon="6.85133">
        <ele>1083.4</ele>
        <time>2026-08-20T10:30:26.000Z</time>
      </trkpt>
      <trkpt lat="47.79906" lon="6.85135">
        <ele>1082.2</ele>
        <time>2026-08-20T10:30:28.000Z</time>
      </trkpt>
      <trkpt lat="47.79914" lon="6.85136">
        <ele>1081.2</ele>
        <time>2026-08-20T10:30:30.000Z</time>
      </trkpt>
      <trkpt lat="47.79917" lon="6.85137">
        <ele>1080.6</ele>
        <time>2026-08-20T10:30:31.000Z</time>
      </trkpt>
      <trkpt lat="47.79925" lon="6.85134">
        <ele>1079.4</ele>
        <time>2026-08-20T10:30:33.000Z</time>
      </trkpt>
      <trkpt lat="47.79929" lon="6.8513">
        <ele>1078.8</ele>
        <time>2026-08-20T10:30:34.000Z</time>
      </trkpt>
      <trkpt lat="47.79932" lon="6.85127">
        <ele>1078</ele>
        <time>2026-08-20T10:30:35.000Z</time>
      </trkpt>
      <trkpt lat="47.79945" lon="6.85116">
        <ele>1076.4</ele>
        <time>2026-08-20T10:30:38.000Z</time>
      </trkpt>
      <trkpt lat="47.79954" lon="6.85108">
        <ele>1074.8</ele>
        <time>2026-08-20T10:30:40.000Z</time>
      </trkpt>
      <trkpt lat="47.79958" lon="6.85103">
        <ele>1074</ele>
        <time>2026-08-20T10:30:41.000Z</time>
      </trkpt>
      <trkpt lat="47.79963" lon="6.85099">
        <ele>1073.2</ele>
        <time>2026-08-20T10:30:42.000Z</time>
      </trkpt>
      <trkpt lat="47.79972" lon="6.8509">
        <ele>1072</ele>
        <time>2026-08-20T10:30:44.000Z</time>
      </trkpt>
      <trkpt lat="47.79978" lon="6.85087">
        <ele>1071.6</ele>
        <time>2026-08-20T10:30:45.000Z</time>
      </trkpt>
      <trkpt lat="47.79983" lon="6.85083">
        <ele>1071</ele>
        <time>2026-08-20T10:30:46.000Z</time>
      </trkpt>
      <trkpt lat="47.79989" lon="6.85081">
        <ele>1070.2</ele>
        <time>2026-08-20T10:30:47.000Z</time>
      </trkpt>
      <trkpt lat="47.79994" lon="6.85078">
        <ele>1069.4</ele>
        <time>2026-08-20T10:30:48.000Z</time>
      </trkpt>
      <trkpt lat="47.80005" lon="6.85073">
        <ele>1067.6</ele>
        <time>2026-08-20T10:30:50.000Z</time>
      </trkpt>
      <trkpt lat="47.80014" lon="6.85069">
        <ele>1066</ele>
        <time>2026-08-20T10:30:52.000Z</time>
      </trkpt>
      <trkpt lat="47.80018" lon="6.85066">
        <ele>1065.2</ele>
        <time>2026-08-20T10:30:53.000Z</time>
      </trkpt>
      <trkpt lat="47.80022" lon="6.85063">
        <ele>1064.2</ele>
        <time>2026-08-20T10:30:54.000Z</time>
      </trkpt>
      <trkpt lat="47.80029" lon="6.85055">
        <ele>1062.4</ele>
        <time>2026-08-20T10:30:56.000Z</time>
      </trkpt>
      <trkpt lat="47.80037" lon="6.85048">
        <ele>1061.4</ele>
        <time>2026-08-20T10:30:58.000Z</time>
      </trkpt>
      <trkpt lat="47.80053" lon="6.8503">
        <ele>1060.6</ele>
        <time>2026-08-20T10:31:02.000Z</time>
      </trkpt>
      <trkpt lat="47.80057" lon="6.85024">
        <ele>1060.4</ele>
        <time>2026-08-20T10:31:03.000Z</time>
      </trkpt>
      <trkpt lat="47.80064" lon="6.85014">
        <ele>1059.6</ele>
        <time>2026-08-20T10:31:05.000Z</time>
      </trkpt>
      <trkpt lat="47.80072" lon="6.85004">
        <ele>1059.2</ele>
        <time>2026-08-20T10:31:07.000Z</time>
      </trkpt>
      <trkpt lat="47.80087" lon="6.84987">
        <ele>1058.4</ele>
        <time>2026-08-20T10:31:11.000Z</time>
      </trkpt>
      <trkpt lat="47.80096" lon="6.84974">
        <ele>1058.6</ele>
        <time>2026-08-20T10:31:14.000Z</time>
      </trkpt>
      <trkpt lat="47.80101" lon="6.84964">
        <ele>1059</ele>
        <time>2026-08-20T10:31:16.000Z</time>
      </trkpt>
      <trkpt lat="47.80102" lon="6.84958">
        <ele>1059.2</ele>
        <time>2026-08-20T10:31:17.000Z</time>
      </trkpt>
      <trkpt lat="47.80106" lon="6.8494">
        <ele>1058.6</ele>
        <time>2026-08-20T10:31:21.000Z</time>
      </trkpt>
      <trkpt lat="47.80106" lon="6.84935">
        <ele>1058.6</ele>
        <time>2026-08-20T10:31:23.000Z</time>
      </trkpt>
      <trkpt lat="47.80106" lon="6.84934">
        <ele>1059</ele>
        <time>2026-08-20T10:31:25.000Z</time>
      </trkpt>
      <trkpt lat="47.80106" lon="6.84934">
        <ele>1059</ele>
        <time>2026-08-20T10:31:29.000Z</time>
      </trkpt>
      <trkpt lat="47.80106" lon="6.84935">
        <ele>1059.2</ele>
        <time>2026-08-20T10:31:33.000Z</time>
      </trkpt>
      <trkpt lat="47.80107" lon="6.84934">
        <ele>1059</ele>
        <time>2026-08-20T10:31:35.000Z</time>
      </trkpt>
      <trkpt lat="47.80107" lon="6.84926">
        <ele>1058.8</ele>
        <time>2026-08-20T10:31:39.000Z</time>
      </trkpt>
      <trkpt lat="47.80105" lon="6.84902">
        <ele>1058.4</ele>
        <time>2026-08-20T10:31:44.000Z</time>
      </trkpt>
      <trkpt lat="47.80102" lon="6.8489">
        <ele>1057.8</ele>
        <time>2026-08-20T10:31:46.000Z</time>
      </trkpt>
      <trkpt lat="47.80099" lon="6.84878">
        <ele>1057.2</ele>
        <time>2026-08-20T10:31:48.000Z</time>
      </trkpt>
      <trkpt lat="47.80099" lon="6.84872">
        <ele>1057</ele>
        <time>2026-08-20T10:31:49.000Z</time>
      </trkpt>
      <trkpt lat="47.80099" lon="6.84866">
        <ele>1056.6</ele>
        <time>2026-08-20T10:31:50.000Z</time>
      </trkpt>
      <trkpt lat="47.80099" lon="6.84848">
        <ele>1055.4</ele>
        <time>2026-08-20T10:31:53.000Z</time>
      </trkpt>
      <trkpt lat="47.80101" lon="6.84842">
        <ele>1054.8</ele>
        <time>2026-08-20T10:31:54.000Z</time>
      </trkpt>
      <trkpt lat="47.80107" lon="6.84831">
        <ele>1054.4</ele>
        <time>2026-08-20T10:31:56.000Z</time>
      </trkpt>
      <trkpt lat="47.80114" lon="6.84821">
        <ele>1054</ele>
        <time>2026-08-20T10:31:58.000Z</time>
      </trkpt>
      <trkpt lat="47.80127" lon="6.84807">
        <ele>1053</ele>
        <time>2026-08-20T10:32:01.000Z</time>
      </trkpt>
      <trkpt lat="47.80143" lon="6.8479">
        <ele>1053</ele>
        <time>2026-08-20T10:32:05.000Z</time>
      </trkpt>
      <trkpt lat="47.80146" lon="6.84786">
        <ele>1053.2</ele>
        <time>2026-08-20T10:32:06.000Z</time>
      </trkpt>
      <trkpt lat="47.80163" lon="6.84772">
        <ele>1053.4</ele>
        <time>2026-08-20T10:32:11.000Z</time>
      </trkpt>
      <trkpt lat="47.8017" lon="6.84767">
        <ele>1053.4</ele>
        <time>2026-08-20T10:32:13.000Z</time>
      </trkpt>
      <trkpt lat="47.80176" lon="6.84761">
        <ele>1053.2</ele>
        <time>2026-08-20T10:32:15.000Z</time>
      </trkpt>
      <trkpt lat="47.80184" lon="6.84752">
        <ele>1053.4</ele>
        <time>2026-08-20T10:32:18.000Z</time>
      </trkpt>
      <trkpt lat="47.80188" lon="6.8475">
        <ele>1053.6</ele>
        <time>2026-08-20T10:32:19.000Z</time>
      </trkpt>
      <trkpt lat="47.80203" lon="6.84735">
        <ele>1053.6</ele>
        <time>2026-08-20T10:32:24.000Z</time>
      </trkpt>
      <trkpt lat="47.80209" lon="6.84728">
        <ele>1053.6</ele>
        <time>2026-08-20T10:32:26.000Z</time>
      </trkpt>
      <trkpt lat="47.80211" lon="6.84726">
        <ele>1053.6</ele>
        <time>2026-08-20T10:32:27.000Z</time>
      </trkpt>
      <trkpt lat="47.80221" lon="6.84713">
        <ele>1053.4</ele>
        <time>2026-08-20T10:32:31.000Z</time>
      </trkpt>
      <trkpt lat="47.80218" lon="6.8471">
        <ele>1053.6</ele>
        <time>2026-08-20T10:32:33.000Z</time>
      </trkpt>
      <trkpt lat="47.80215" lon="6.84712">
        <ele>1053.8</ele>
        <time>2026-08-20T10:32:36.000Z</time>
      </trkpt>
      <trkpt lat="47.80215" lon="6.84711">
        <ele>1054</ele>
        <time>2026-08-20T10:32:38.000Z</time>
      </trkpt>
    </trkseg>
  </trk>
</gpx>